<?xml version='1.0' encoding='UTF-8'?><gpx version="1.1" creator="JPX - https://github.com/jenetics/jpx" xmlns="http://www.topografix.com/GPX/1/1"><trk><trkseg><trkpt lat="44.2117933" lon="12.0147717"><ele>35.0</ele><time>2026-04-04T10:42:10.007Z</time></trkpt><trkpt lat="44.2117652" lon="12.0146715"><ele>35.0</ele><time>2026-04-04T10:42:30.062Z</time></trkpt><trkpt lat="44.2117279" lon="12.014581"><ele>35.0</ele><time>2026-04-04T10:42:32.068Z</time></trkpt><trkpt lat="44.2116552" lon="12.0144468"><ele>35.0</ele><time>2026-04-04T10:42:34.074Z</time></trkpt><trkpt lat="44.2116083" lon="12.0143583"><ele>35.0</ele><time>2026-04-04T10:42:35.077Z</time></trkpt><trkpt lat="44.2115467" lon="12.0142357"><ele>34.666666666666664</ele><time>2026-04-04T10:42:36.006Z</time></trkpt><trkpt lat="44.2114872" lon="12.014119"><ele>34.33333333333333</ele><time>2026-04-04T10:42:37.006Z</time></trkpt><trkpt lat="44.2114331" lon="12.0140123"><ele>34.0</ele><time>2026-04-04T10:42:38.008Z</time></trkpt><trkpt lat="44.2113831" lon="12.0139096"><ele>33.666666666666664</ele><time>2026-04-04T10:42:39.005Z</time></trkpt><trkpt lat="44.2113389" lon="12.0138166"><ele>33.333333333333336</ele><time>2026-04-04T10:42:40.006Z</time></trkpt><trkpt lat="44.2112952" lon="12.0137311"><ele>33.0</ele><time>2026-04-04T10:42:41.007Z</time></trkpt><trkpt lat="44.2112574" lon="12.013638"><ele>33.0</ele><time>2026-04-04T10:42:42.006Z</time></trkpt><trkpt lat="44.2112215" lon="12.0135388"><ele>33.0</ele><time>2026-04-04T10:42:43.007Z</time></trkpt><trkpt lat="44.2111836" lon="12.0134341"><ele>33.0</ele><time>2026-04-04T10:42:44.006Z</time></trkpt><trkpt lat="44.2111452" lon="12.0133282"><ele>33.0</ele><time>2026-04-04T10:42:45.006Z</time></trkpt><trkpt lat="44.2111147" lon="12.0132302"><ele>33.0</ele><time>2026-04-04T10:42:46.004Z</time></trkpt><trkpt lat="44.2110859" lon="12.0131276"><ele>33.0</ele><time>2026-04-04T10:42:47.008Z</time></trkpt><trkpt lat="44.2110583" lon="12.0130231"><ele>33.0</ele><time>2026-04-04T10:42:48.008Z</time></trkpt><trkpt lat="44.2110298" lon="12.0129175"><ele>33.0</ele><time>2026-04-04T10:42:49.008Z</time></trkpt><trkpt lat="44.211002" lon="12.0128076"><ele>33.0</ele><time>2026-04-04T10:42:50.006Z</time></trkpt><trkpt lat="44.2109716" lon="12.0126966"><ele>33.0</ele><time>2026-04-04T10:42:51.008Z</time></trkpt><trkpt lat="44.2109426" lon="12.0125844"><ele>33.0</ele><time>2026-04-04T10:42:52.007Z</time></trkpt><trkpt lat="44.2109099" lon="12.0124736"><ele>33.0</ele><time>2026-04-04T10:42:53.006Z</time></trkpt><trkpt lat="44.2108787" lon="12.0123605"><ele>33.333333333333336</ele><time>2026-04-04T10:42:54.005Z</time></trkpt><trkpt lat="44.2108475" lon="12.0122482"><ele>33.666666666666664</ele><time>2026-04-04T10:42:55.005Z</time></trkpt><trkpt lat="44.2108143" lon="12.0121372"><ele>34.0</ele><time>2026-04-04T10:42:56.007Z</time></trkpt><trkpt lat="44.2107823" lon="12.0120237"><ele>34.33333333333333</ele><time>2026-04-04T10:42:57.006Z</time></trkpt><trkpt lat="44.2107532" lon="12.0119061"><ele>34.666666666666664</ele><time>2026-04-04T10:42:58.006Z</time></trkpt><trkpt lat="44.2107233" lon="12.0117893"><ele>35.0</ele><time>2026-04-04T10:42:59.006Z</time></trkpt><trkpt lat="44.2106933" lon="12.0116751"><ele>35.0</ele><time>2026-04-04T10:43:00.008Z</time></trkpt><trkpt lat="44.2106633" lon="12.0115634"><ele>35.0</ele><time>2026-04-04T10:43:01.005Z</time></trkpt><trkpt lat="44.2106324" lon="12.011452"><ele>35.0</ele><time>2026-04-04T10:43:02.006Z</time></trkpt><trkpt lat="44.2106019" lon="12.0113409"><ele>35.0</ele><time>2026-04-04T10:43:03.006Z</time></trkpt><trkpt lat="44.210576" lon="12.0112313"><ele>35.0</ele><time>2026-04-04T10:43:04.005Z</time></trkpt><trkpt lat="44.2105551" lon="12.0111374"><ele>35.0</ele><time>2026-04-04T10:43:05.007Z</time></trkpt><trkpt lat="44.2105225" lon="12.0109805"><ele>35.0</ele><time>2026-04-04T10:43:07.006Z</time></trkpt><trkpt lat="44.2104985" lon="12.0108534"><ele>35.0</ele><time>2026-04-04T10:43:09.006Z</time></trkpt><trkpt lat="44.2104711" lon="12.0106986"><ele>35.0</ele><time>2026-04-04T10:43:11.01Z</time></trkpt><trkpt lat="44.2104597" lon="12.0106048"><ele>35.0</ele><time>2026-04-04T10:43:12.005Z</time></trkpt><trkpt lat="44.2104471" lon="12.0105068"><ele>35.0</ele><time>2026-04-04T10:43:13.008Z</time></trkpt><trkpt lat="44.2104352" lon="12.0104"><ele>35.0</ele><time>2026-04-04T10:43:14.007Z</time></trkpt><trkpt lat="44.2104181" lon="12.0102878"><ele>35.142857142857146</ele><time>2026-04-04T10:43:15.006Z</time></trkpt><trkpt lat="44.2104045" lon="12.0101799"><ele>35.285714285714285</ele><time>2026-04-04T10:43:16.006Z</time></trkpt><trkpt lat="44.2103974" lon="12.0100762"><ele>35.42857142857143</ele><time>2026-04-04T10:43:17.005Z</time></trkpt><trkpt lat="44.2104122" lon="12.0099856"><ele>35.57142857142857</ele><time>2026-04-04T10:43:18.006Z</time></trkpt><trkpt lat="44.2104333" lon="12.0098946"><ele>35.714285714285715</ele><time>2026-04-04T10:43:19.008Z</time></trkpt><trkpt lat="44.2104713" lon="12.0098064"><ele>35.85714285714286</ele><time>2026-04-04T10:43:20.005Z</time></trkpt><trkpt lat="44.2105264" lon="12.0097252"><ele>36.0</ele><time>2026-04-04T10:43:21.011Z</time></trkpt><trkpt lat="44.2105989" lon="12.0096584"><ele>36.2</ele><time>2026-04-04T10:43:22.007Z</time></trkpt><trkpt lat="44.2106849" lon="12.0096083"><ele>36.400000000000006</ele><time>2026-04-04T10:43:23.006Z</time></trkpt><trkpt lat="44.210773" lon="12.0095651"><ele>36.6</ele><time>2026-04-04T10:43:24.007Z</time></trkpt><trkpt lat="44.2108662" lon="12.0095181"><ele>36.800000000000004</ele><time>2026-04-04T10:43:25.007Z</time></trkpt><trkpt lat="44.2109647" lon="12.0094688"><ele>37.0</ele><time>2026-04-04T10:43:26.009Z</time></trkpt><trkpt lat="44.2110685" lon="12.0094176"><ele>37.0</ele><time>2026-04-04T10:43:27.008Z</time></trkpt><trkpt lat="44.2111754" lon="12.0093694"><ele>37.0</ele><time>2026-04-04T10:43:28.007Z</time></trkpt><trkpt lat="44.2112866" lon="12.0093215"><ele>37.0</ele><time>2026-04-04T10:43:29.006Z</time></trkpt><trkpt lat="44.211402" lon="12.0092703"><ele>37.0</ele><time>2026-04-04T10:43:30.006Z</time></trkpt><trkpt lat="44.2115178" lon="12.0092161"><ele>37.0</ele><time>2026-04-04T10:43:31.007Z</time></trkpt><trkpt lat="44.2116359" lon="12.0091592"><ele>37.0</ele><time>2026-04-04T10:43:32.008Z</time></trkpt><trkpt lat="44.2117544" lon="12.0091042"><ele>37.0</ele><time>2026-04-04T10:43:33.007Z</time></trkpt><trkpt lat="44.211874" lon="12.0090461"><ele>37.0</ele><time>2026-04-04T10:43:34.006Z</time></trkpt><trkpt lat="44.2119955" lon="12.0089876"><ele>37.0</ele><time>2026-04-04T10:43:35.006Z</time></trkpt><trkpt lat="44.2121163" lon="12.0089321"><ele>37.0</ele><time>2026-04-04T10:43:36.006Z</time></trkpt><trkpt lat="44.212238" lon="12.0088734"><ele>37.0</ele><time>2026-04-04T10:43:37.006Z</time></trkpt><trkpt lat="44.2123614" lon="12.0088129"><ele>37.0</ele><time>2026-04-04T10:43:38.01Z</time></trkpt><trkpt lat="44.2124849" lon="12.0087546"><ele>36.25</ele><time>2026-04-04T10:43:39.007Z</time></trkpt><trkpt lat="44.2126142" lon="12.0086965"><ele>35.5</ele><time>2026-04-04T10:43:40.005Z</time></trkpt><trkpt lat="44.2127488" lon="12.0086401"><ele>34.75</ele><time>2026-04-04T10:43:41.004Z</time></trkpt><trkpt lat="44.2128969" lon="12.0085788"><ele>34.0</ele><time>2026-04-04T10:43:42.006Z</time></trkpt><trkpt lat="44.2130593" lon="12.0085062"><ele>34.0</ele><time>2026-04-04T10:43:43.007Z</time></trkpt><trkpt lat="44.2132375" lon="12.0084298"><ele>34.0</ele><time>2026-04-04T10:43:44.008Z</time></trkpt><trkpt lat="44.2134378" lon="12.0083374"><ele>34.0</ele><time>2026-04-04T10:43:45.006Z</time></trkpt><trkpt lat="44.2136593" lon="12.0082274"><ele>34.5</ele><time>2026-04-04T10:43:46.006Z</time></trkpt><trkpt lat="44.2138954" lon="12.008118"><ele>35.0</ele><time>2026-04-04T10:43:47.007Z</time></trkpt><trkpt lat="44.2141351" lon="12.0080062"><ele>35.0</ele><time>2026-04-04T10:43:48.007Z</time></trkpt><trkpt lat="44.2143726" lon="12.007895"><ele>35.0</ele><time>2026-04-04T10:43:49.006Z</time></trkpt><trkpt lat="44.2146142" lon="12.0077776"><ele>35.0</ele><time>2026-04-04T10:43:50.007Z</time></trkpt><trkpt lat="44.2148523" lon="12.0076606"><ele>35.0</ele><time>2026-04-04T10:43:51.006Z</time></trkpt><trkpt lat="44.2150791" lon="12.0075465"><ele>35.0</ele><time>2026-04-04T10:43:52.008Z</time></trkpt><trkpt lat="44.2152913" lon="12.0074155"><ele>35.0</ele><time>2026-04-04T10:43:53.007Z</time></trkpt><trkpt lat="44.2154869" lon="12.0072524"><ele>35.5</ele><time>2026-04-04T10:43:54.005Z</time></trkpt><trkpt lat="44.215663" lon="12.0070499"><ele>36.0</ele><time>2026-04-04T10:43:55.005Z</time></trkpt><trkpt lat="44.2158185" lon="12.0068052"><ele>35.5</ele><time>2026-04-04T10:43:56.01Z</time></trkpt><trkpt lat="44.2159598" lon="12.0065083"><ele>35.0</ele><time>2026-04-04T10:43:57.006Z</time></trkpt><trkpt lat="44.2160904" lon="12.006171"><ele>34.0</ele><time>2026-04-04T10:43:58.006Z</time></trkpt><trkpt lat="44.2162193" lon="12.0058249"><ele>33.0</ele><time>2026-04-04T10:43:59.004Z</time></trkpt><trkpt lat="44.2163408" lon="12.0054995"><ele>33.0</ele><time>2026-04-04T10:44:00.006Z</time></trkpt><trkpt lat="44.2164573" lon="12.005192"><ele>33.0</ele><time>2026-04-04T10:44:01.011Z</time></trkpt><trkpt lat="44.2165665" lon="12.0049011"><ele>33.666666666666664</ele><time>2026-04-04T10:44:02.007Z</time></trkpt><trkpt lat="44.2166771" lon="12.0046273"><ele>34.33333333333333</ele><time>2026-04-04T10:44:03.007Z</time></trkpt><trkpt lat="44.2167828" lon="12.0043621"><ele>35.0</ele><time>2026-04-04T10:44:04.005Z</time></trkpt><trkpt lat="44.2168827" lon="12.0041033"><ele>35.0</ele><time>2026-04-04T10:44:05.009Z</time></trkpt><trkpt lat="44.2169771" lon="12.0038528"><ele>35.0</ele><time>2026-04-04T10:44:06.006Z</time></trkpt><trkpt lat="44.2170718" lon="12.0036085"><ele>35.0</ele><time>2026-04-04T10:44:07.006Z</time></trkpt><trkpt lat="44.2171653" lon="12.0033691"><ele>35.0</ele><time>2026-04-04T10:44:08.006Z</time></trkpt><trkpt lat="44.2172568" lon="12.0031283"><ele>35.0</ele><time>2026-04-04T10:44:09.007Z</time></trkpt><trkpt lat="44.2173458" lon="12.0028859"><ele>35.0</ele><time>2026-04-04T10:44:10.009Z</time></trkpt><trkpt lat="44.2174327" lon="12.00264"><ele>35.0</ele><time>2026-04-04T10:44:11.009Z</time></trkpt><trkpt lat="44.2175198" lon="12.002393"><ele>35.0</ele><time>2026-04-04T10:44:12.006Z</time></trkpt><trkpt lat="44.2176083" lon="12.0021521"><ele>35.0</ele><time>2026-04-04T10:44:13.006Z</time></trkpt><trkpt lat="44.2176949" lon="12.0019142"><ele>35.0</ele><time>2026-04-04T10:44:14.007Z</time></trkpt><trkpt lat="44.2177827" lon="12.0016823"><ele>35.0</ele><time>2026-04-04T10:44:15.008Z</time></trkpt><trkpt lat="44.2178678" lon="12.0014556"><ele>35.0</ele><time>2026-04-04T10:44:16.008Z</time></trkpt><trkpt lat="44.2179515" lon="12.0012322"><ele>35.0</ele><time>2026-04-04T10:44:17.006Z</time></trkpt><trkpt lat="44.2180339" lon="12.0010157"><ele>35.0</ele><time>2026-04-04T10:44:18.005Z</time></trkpt><trkpt lat="44.2181111" lon="12.000803"><ele>35.0</ele><time>2026-04-04T10:44:19.006Z</time></trkpt><trkpt lat="44.2181882" lon="12.0005959"><ele>35.0</ele><time>2026-04-04T10:44:20.008Z</time></trkpt><trkpt lat="44.2182663" lon="12.0003901"><ele>35.0</ele><time>2026-04-04T10:44:21.005Z</time></trkpt><trkpt lat="44.2183453" lon="12.0001836"><ele>35.0</ele><time>2026-04-04T10:44:22.008Z</time></trkpt><trkpt lat="44.2184211" lon="11.9999869"><ele>35.0</ele><time>2026-04-04T10:44:23.008Z</time></trkpt><trkpt lat="44.2184906" lon="11.9998053"><ele>35.0</ele><time>2026-04-04T10:44:24.006Z</time></trkpt><trkpt lat="44.2185535" lon="11.9996369"><ele>35.0</ele><time>2026-04-04T10:44:25.007Z</time></trkpt><trkpt lat="44.2186126" lon="11.9994776"><ele>35.0</ele><time>2026-04-04T10:44:26.007Z</time></trkpt><trkpt lat="44.2186624" lon="11.999332"><ele>35.0</ele><time>2026-04-04T10:44:27.008Z</time></trkpt><trkpt lat="44.2187062" lon="11.9992013"><ele>35.0</ele><time>2026-04-04T10:44:28.008Z</time></trkpt><trkpt lat="44.2187535" lon="11.9990815"><ele>35.0</ele><time>2026-04-04T10:44:29.006Z</time></trkpt><trkpt lat="44.2187991" lon="11.9989637"><ele>35.0</ele><time>2026-04-04T10:44:30.007Z</time></trkpt><trkpt lat="44.2188504" lon="11.9988479"><ele>35.0</ele><time>2026-04-04T10:44:31.011Z</time></trkpt><trkpt lat="44.2189085" lon="11.9987403"><ele>35.0</ele><time>2026-04-04T10:44:32.008Z</time></trkpt><trkpt lat="44.218987" lon="11.9986673"><ele>35.0</ele><time>2026-04-04T10:44:33.006Z</time></trkpt><trkpt lat="44.2190777" lon="11.9986448"><ele>35.0</ele><time>2026-04-04T10:44:34.008Z</time></trkpt><trkpt lat="44.2191732" lon="11.9986669"><ele>35.0</ele><time>2026-04-04T10:44:35.007Z</time></trkpt><trkpt lat="44.2192719" lon="11.9986976"><ele>35.0</ele><time>2026-04-04T10:44:36.009Z</time></trkpt><trkpt lat="44.2193789" lon="11.9987778"><ele>35.0</ele><time>2026-04-04T10:44:37.009Z</time></trkpt><trkpt lat="44.2194886" lon="11.9988758"><ele>35.0</ele><time>2026-04-04T10:44:38.008Z</time></trkpt><trkpt lat="44.2195992" lon="11.9989741"><ele>35.0</ele><time>2026-04-04T10:44:39.007Z</time></trkpt><trkpt lat="44.2197132" lon="11.9990708"><ele>35.0</ele><time>2026-04-04T10:44:40.01Z</time></trkpt><trkpt lat="44.2198307" lon="11.9991588"><ele>34.75</ele><time>2026-04-04T10:44:41.008Z</time></trkpt><trkpt lat="44.2199494" lon="11.9992436"><ele>34.5</ele><time>2026-04-04T10:44:42.007Z</time></trkpt><trkpt lat="44.2200681" lon="11.9993375"><ele>34.25</ele><time>2026-04-04T10:44:43.004Z</time></trkpt><trkpt lat="44.2201913" lon="11.9994373"><ele>34.0</ele><time>2026-04-04T10:44:44.009Z</time></trkpt><trkpt lat="44.2203198" lon="11.9995337"><ele>34.0</ele><time>2026-04-04T10:44:45.006Z</time></trkpt><trkpt lat="44.2204478" lon="11.9996341"><ele>34.0</ele><time>2026-04-04T10:44:46.006Z</time></trkpt><trkpt lat="44.2205736" lon="11.9997319"><ele>34.0</ele><time>2026-04-04T10:44:47.008Z</time></trkpt><trkpt lat="44.2206917" lon="11.9998222"><ele>34.0</ele><time>2026-04-04T10:44:48.008Z</time></trkpt><trkpt lat="44.2207958" lon="11.9999184"><ele>33.75</ele><time>2026-04-04T10:44:49.007Z</time></trkpt><trkpt lat="44.2208752" lon="12.000035"><ele>33.5</ele><time>2026-04-04T10:44:50.005Z</time></trkpt><trkpt lat="44.2209207" lon="12.0001974"><ele>33.25</ele><time>2026-04-04T10:44:51.008Z</time></trkpt><trkpt lat="44.2209459" lon="12.0004044"><ele>33.0</ele><time>2026-04-04T10:44:52.007Z</time></trkpt><trkpt lat="44.2209738" lon="12.0006542"><ele>33.0</ele><time>2026-04-04T10:44:53.007Z</time></trkpt><trkpt lat="44.220975" lon="12.0009738"><ele>33.0</ele><time>2026-04-04T10:44:54.007Z</time></trkpt><trkpt lat="44.2209804" lon="12.001318"><ele>33.0</ele><time>2026-04-04T10:44:55.005Z</time></trkpt><trkpt lat="44.2210074" lon="12.0016623"><ele>33.0</ele><time>2026-04-04T10:44:56.006Z</time></trkpt><trkpt lat="44.2210544" lon="12.0019862"><ele>33.0</ele><time>2026-04-04T10:44:57.006Z</time></trkpt><trkpt lat="44.2211207" lon="12.0022812"><ele>33.0</ele><time>2026-04-04T10:44:58.007Z</time></trkpt><trkpt lat="44.2211636" lon="12.0025606"><ele>33.0</ele><time>2026-04-04T10:44:59.006Z</time></trkpt><trkpt lat="44.2211784" lon="12.0028304"><ele>33.0</ele><time>2026-04-04T10:45:00.007Z</time></trkpt><trkpt lat="44.2211641" lon="12.0030937"><ele>33.0</ele><time>2026-04-04T10:45:01.007Z</time></trkpt><trkpt lat="44.2211243" lon="12.0033535"><ele>33.0</ele><time>2026-04-04T10:45:02.007Z</time></trkpt><trkpt lat="44.2210613" lon="12.0036253"><ele>32.666666666666664</ele><time>2026-04-04T10:45:03.009Z</time></trkpt><trkpt lat="44.2209902" lon="12.0038937"><ele>32.33333333333333</ele><time>2026-04-04T10:45:04.005Z</time></trkpt><trkpt lat="44.2209276" lon="12.0041558"><ele>32.0</ele><time>2026-04-04T10:45:05.005Z</time></trkpt><trkpt lat="44.220879" lon="12.0044241"><ele>31.666666666666664</ele><time>2026-04-04T10:45:06.008Z</time></trkpt><trkpt lat="44.2208567" lon="12.0047164"><ele>31.333333333333336</ele><time>2026-04-04T10:45:07.008Z</time></trkpt><trkpt lat="44.220861" lon="12.0050297"><ele>31.0</ele><time>2026-04-04T10:45:08.006Z</time></trkpt><trkpt lat="44.2208752" lon="12.0053365"><ele>31.0</ele><time>2026-04-04T10:45:09.01Z</time></trkpt><trkpt lat="44.2208937" lon="12.0056223"><ele>31.0</ele><time>2026-04-04T10:45:10.006Z</time></trkpt><trkpt lat="44.2209293" lon="12.0058707"><ele>31.0</ele><time>2026-04-04T10:45:11.008Z</time></trkpt><trkpt lat="44.2210007" lon="12.0061021"><ele>30.5</ele><time>2026-04-04T10:45:12.008Z</time></trkpt><trkpt lat="44.2211223" lon="12.0063438"><ele>30.0</ele><time>2026-04-04T10:45:13.007Z</time></trkpt><trkpt lat="44.2212764" lon="12.0066055"><ele>30.0</ele><time>2026-04-04T10:45:14.006Z</time></trkpt><trkpt lat="44.2214404" lon="12.0068846"><ele>30.0</ele><time>2026-04-04T10:45:15.006Z</time></trkpt><trkpt lat="44.2215943" lon="12.0071593"><ele>30.0</ele><time>2026-04-04T10:45:16.006Z</time></trkpt><trkpt lat="44.2217341" lon="12.0074139"><ele>30.0</ele><time>2026-04-04T10:45:17.006Z</time></trkpt><trkpt lat="44.2218567" lon="12.0076476"><ele>30.0</ele><time>2026-04-04T10:45:18.007Z</time></trkpt><trkpt lat="44.221964" lon="12.0078575"><ele>30.25</ele><time>2026-04-04T10:45:19.006Z</time></trkpt><trkpt lat="44.2220561" lon="12.0080407"><ele>30.5</ele><time>2026-04-04T10:45:20.008Z</time></trkpt><trkpt lat="44.2221315" lon="12.0081998"><ele>30.75</ele><time>2026-04-04T10:45:21.008Z</time></trkpt><trkpt lat="44.2221731" lon="12.0083503"><ele>31.0</ele><time>2026-04-04T10:45:22.007Z</time></trkpt><trkpt lat="44.2221791" lon="12.0084945"><ele>31.0</ele><time>2026-04-04T10:45:23.005Z</time></trkpt><trkpt lat="44.222154" lon="12.0086331"><ele>31.0</ele><time>2026-04-04T10:45:24.007Z</time></trkpt><trkpt lat="44.2221097" lon="12.0087714"><ele>31.0</ele><time>2026-04-04T10:45:25.006Z</time></trkpt><trkpt lat="44.2220516" lon="12.0089124"><ele>31.0</ele><time>2026-04-04T10:45:26.008Z</time></trkpt><trkpt lat="44.2219828" lon="12.009066"><ele>31.5</ele><time>2026-04-04T10:45:27.008Z</time></trkpt><trkpt lat="44.221906" lon="12.0092307"><ele>32.0</ele><time>2026-04-04T10:45:28.006Z</time></trkpt><trkpt lat="44.221833" lon="12.0094023"><ele>32.5</ele><time>2026-04-04T10:45:29.006Z</time></trkpt><trkpt lat="44.2217728" lon="12.0095863"><ele>33.0</ele><time>2026-04-04T10:45:30.007Z</time></trkpt><trkpt lat="44.2217338" lon="12.0097894"><ele>32.333333333333336</ele><time>2026-04-04T10:45:31.008Z</time></trkpt><trkpt lat="44.2217203" lon="12.010027"><ele>31.666666666666668</ele><time>2026-04-04T10:45:32.01Z</time></trkpt><trkpt lat="44.2217217" lon="12.0103079"><ele>31.0</ele><time>2026-04-04T10:45:33.006Z</time></trkpt><trkpt lat="44.2217185" lon="12.0106261"><ele>30.5</ele><time>2026-04-04T10:45:34.008Z</time></trkpt><trkpt lat="44.2216994" lon="12.0109641"><ele>30.0</ele><time>2026-04-04T10:45:35.007Z</time></trkpt><trkpt lat="44.2216704" lon="12.0112919"><ele>30.0</ele><time>2026-04-04T10:45:36.007Z</time></trkpt><trkpt lat="44.2216365" lon="12.0116023"><ele>30.0</ele><time>2026-04-04T10:45:37.006Z</time></trkpt><trkpt lat="44.2216203" lon="12.0118902"><ele>30.0</ele><time>2026-04-04T10:45:38.01Z</time></trkpt><trkpt lat="44.2216215" lon="12.0121544"><ele>30.0</ele><time>2026-04-04T10:45:39.009Z</time></trkpt><trkpt lat="44.2216368" lon="12.0123886"><ele>30.0</ele><time>2026-04-04T10:45:40.008Z</time></trkpt><trkpt lat="44.2216756" lon="12.0126042"><ele>30.0</ele><time>2026-04-04T10:45:41.007Z</time></trkpt><trkpt lat="44.2217473" lon="12.0128142"><ele>30.0</ele><time>2026-04-04T10:45:42.005Z</time></trkpt><trkpt lat="44.2218496" lon="12.0130309"><ele>30.0</ele><time>2026-04-04T10:45:43.008Z</time></trkpt><trkpt lat="44.2219806" lon="12.0132677"><ele>30.0</ele><time>2026-04-04T10:45:44.007Z</time></trkpt><trkpt lat="44.2221167" lon="12.0135359"><ele>30.0</ele><time>2026-04-04T10:45:45.006Z</time></trkpt><trkpt lat="44.2222463" lon="12.0138364"><ele>30.0</ele><time>2026-04-04T10:45:46.007Z</time></trkpt><trkpt lat="44.2223605" lon="12.014146"><ele>29.5</ele><time>2026-04-04T10:45:47.007Z</time></trkpt><trkpt lat="44.2224534" lon="12.0144485"><ele>29.0</ele><time>2026-04-04T10:45:48.005Z</time></trkpt><trkpt lat="44.2225341" lon="12.0147316"><ele>28.666666666666664</ele><time>2026-04-04T10:45:49.006Z</time></trkpt><trkpt lat="44.222595" lon="12.014988"><ele>28.333333333333336</ele><time>2026-04-04T10:45:50.006Z</time></trkpt><trkpt lat="44.2226302" lon="12.0152397"><ele>28.0</ele><time>2026-04-04T10:45:51.007Z</time></trkpt><trkpt lat="44.222644" lon="12.0154792"><ele>28.0</ele><time>2026-04-04T10:45:52.007Z</time></trkpt><trkpt lat="44.2226452" lon="12.015708"><ele>28.0</ele><time>2026-04-04T10:45:53.007Z</time></trkpt><trkpt lat="44.2226319" lon="12.0159315"><ele>28.0</ele><time>2026-04-04T10:45:54.009Z</time></trkpt><trkpt lat="44.2225906" lon="12.0161504"><ele>28.333333333333336</ele><time>2026-04-04T10:45:55.007Z</time></trkpt><trkpt lat="44.2225284" lon="12.0163609"><ele>28.666666666666664</ele><time>2026-04-04T10:45:56.005Z</time></trkpt><trkpt lat="44.2224569" lon="12.0165651"><ele>29.0</ele><time>2026-04-04T10:45:57.01Z</time></trkpt><trkpt lat="44.2223896" lon="12.0167605"><ele>29.0</ele><time>2026-04-04T10:45:58.008Z</time></trkpt><trkpt lat="44.2223298" lon="12.0169437"><ele>29.0</ele><time>2026-04-04T10:45:59.007Z</time></trkpt><trkpt lat="44.2222787" lon="12.0171104"><ele>29.0</ele><time>2026-04-04T10:46:00.007Z</time></trkpt><trkpt lat="44.2222426" lon="12.0172674"><ele>29.0</ele><time>2026-04-04T10:46:01.007Z</time></trkpt><trkpt lat="44.2222186" lon="12.01742"><ele>29.0</ele><time>2026-04-04T10:46:02.007Z</time></trkpt><trkpt lat="44.2222118" lon="12.0175708"><ele>29.0</ele><time>2026-04-04T10:46:03.006Z</time></trkpt><trkpt lat="44.2222112" lon="12.0177253"><ele>29.0</ele><time>2026-04-04T10:46:04.006Z</time></trkpt><trkpt lat="44.2222262" lon="12.0178872"><ele>29.0</ele><time>2026-04-04T10:46:05.007Z</time></trkpt><trkpt lat="44.2222559" lon="12.01805"><ele>29.0</ele><time>2026-04-04T10:46:06.009Z</time></trkpt><trkpt lat="44.2223016" lon="12.0182127"><ele>29.0</ele><time>2026-04-04T10:46:07.007Z</time></trkpt><trkpt lat="44.2223568" lon="12.0183837"><ele>29.0</ele><time>2026-04-04T10:46:08.006Z</time></trkpt><trkpt lat="44.2224098" lon="12.0185537"><ele>29.0</ele><time>2026-04-04T10:46:09.007Z</time></trkpt><trkpt lat="44.2224598" lon="12.0187239"><ele>29.25</ele><time>2026-04-04T10:46:10.006Z</time></trkpt><trkpt lat="44.2225075" lon="12.0188873"><ele>29.5</ele><time>2026-04-04T10:46:11.008Z</time></trkpt><trkpt lat="44.222554" lon="12.0190512"><ele>29.75</ele><time>2026-04-04T10:46:12.006Z</time></trkpt><trkpt lat="44.2225936" lon="12.0192205"><ele>30.0</ele><time>2026-04-04T10:46:13.007Z</time></trkpt><trkpt lat="44.222635" lon="12.0193897"><ele>30.0</ele><time>2026-04-04T10:46:14.006Z</time></trkpt><trkpt lat="44.2226793" lon="12.0195584"><ele>30.0</ele><time>2026-04-04T10:46:15.008Z</time></trkpt><trkpt lat="44.2227261" lon="12.0197276"><ele>30.0</ele><time>2026-04-04T10:46:16.008Z</time></trkpt><trkpt lat="44.2227785" lon="12.019896"><ele>30.0</ele><time>2026-04-04T10:46:17.008Z</time></trkpt><trkpt lat="44.2228291" lon="12.0200656"><ele>29.75</ele><time>2026-04-04T10:46:18.008Z</time></trkpt><trkpt lat="44.222882" lon="12.0202355"><ele>29.5</ele><time>2026-04-04T10:46:19.006Z</time></trkpt><trkpt lat="44.2229334" lon="12.0204073"><ele>29.25</ele><time>2026-04-04T10:46:20.007Z</time></trkpt><trkpt lat="44.2229849" lon="12.0205836"><ele>29.0</ele><time>2026-04-04T10:46:21.007Z</time></trkpt><trkpt lat="44.2230383" lon="12.0207735"><ele>29.333333333333332</ele><time>2026-04-04T10:46:22.008Z</time></trkpt><trkpt lat="44.223093" lon="12.0209756"><ele>29.666666666666664</ele><time>2026-04-04T10:46:23.005Z</time></trkpt><trkpt lat="44.2231434" lon="12.0211797"><ele>30.0</ele><time>2026-04-04T10:46:24.009Z</time></trkpt><trkpt lat="44.2231919" lon="12.0213823"><ele>30.0</ele><time>2026-04-04T10:46:25.006Z</time></trkpt><trkpt lat="44.2232424" lon="12.0215856"><ele>30.0</ele><time>2026-04-04T10:46:26.007Z</time></trkpt><trkpt lat="44.2232904" lon="12.0217855"><ele>30.0</ele><time>2026-04-04T10:46:27.009Z</time></trkpt><trkpt lat="44.2233361" lon="12.021982"><ele>30.0</ele><time>2026-04-04T10:46:28.008Z</time></trkpt><trkpt lat="44.2233781" lon="12.022189"><ele>30.0</ele><time>2026-04-04T10:46:29.008Z</time></trkpt><trkpt lat="44.2234224" lon="12.0223936"><ele>30.0</ele><time>2026-04-04T10:46:30.007Z</time></trkpt><trkpt lat="44.2234651" lon="12.0225868"><ele>30.0</ele><time>2026-04-04T10:46:31.007Z</time></trkpt><trkpt lat="44.2235016" lon="12.0227688"><ele>30.0</ele><time>2026-04-04T10:46:32.007Z</time></trkpt><trkpt lat="44.2235368" lon="12.022945"><ele>30.0</ele><time>2026-04-04T10:46:33.009Z</time></trkpt><trkpt lat="44.2235756" lon="12.0231275"><ele>30.0</ele><time>2026-04-04T10:46:34.008Z</time></trkpt><trkpt lat="44.2236145" lon="12.0233031"><ele>29.75</ele><time>2026-04-04T10:46:35.008Z</time></trkpt><trkpt lat="44.2236482" lon="12.0234634"><ele>29.5</ele><time>2026-04-04T10:46:36.008Z</time></trkpt><trkpt lat="44.223683" lon="12.0236123"><ele>29.25</ele><time>2026-04-04T10:46:37.008Z</time></trkpt><trkpt lat="44.2237203" lon="12.0237702"><ele>29.0</ele><time>2026-04-04T10:46:38.006Z</time></trkpt><trkpt lat="44.2237605" lon="12.0239409"><ele>29.0</ele><time>2026-04-04T10:46:39.007Z</time></trkpt><trkpt lat="44.2237993" lon="12.0241079"><ele>29.0</ele><time>2026-04-04T10:46:40.005Z</time></trkpt><trkpt lat="44.2238405" lon="12.0242748"><ele>29.0</ele><time>2026-04-04T10:46:41.007Z</time></trkpt><trkpt lat="44.223879" lon="12.0244471"><ele>29.0</ele><time>2026-04-04T10:46:42.007Z</time></trkpt><trkpt lat="44.2239138" lon="12.0246033"><ele>28.833333333333332</ele><time>2026-04-04T10:46:43.009Z</time></trkpt><trkpt lat="44.2239463" lon="12.0247291"><ele>28.666666666666664</ele><time>2026-04-04T10:46:44.006Z</time></trkpt><trkpt lat="44.2239763" lon="12.0248325"><ele>28.5</ele><time>2026-04-04T10:46:45.007Z</time></trkpt><trkpt lat="44.2240111" lon="12.0249124"><ele>28.333333333333336</ele><time>2026-04-04T10:46:46.007Z</time></trkpt><trkpt lat="44.2241101" lon="12.0249208"><ele>28.166666666666668</ele><time>2026-04-04T10:46:48.009Z</time></trkpt><trkpt lat="44.2241699" lon="12.0248791"><ele>28.0</ele><time>2026-04-04T10:46:49.006Z</time></trkpt><trkpt lat="44.2242398" lon="12.0248383"><ele>28.25</ele><time>2026-04-04T10:46:50.006Z</time></trkpt><trkpt lat="44.2243302" lon="12.0247988"><ele>28.5</ele><time>2026-04-04T10:46:51.006Z</time></trkpt><trkpt lat="44.2244665" lon="12.024722"><ele>28.75</ele><time>2026-04-04T10:46:52.007Z</time></trkpt><trkpt lat="44.2246533" lon="12.0246153"><ele>29.0</ele><time>2026-04-04T10:46:53.006Z</time></trkpt><trkpt lat="44.2248457" lon="12.02453"><ele>29.0</ele><time>2026-04-04T10:46:54.006Z</time></trkpt><trkpt lat="44.2250261" lon="12.0244666"><ele>29.0</ele><time>2026-04-04T10:46:55.007Z</time></trkpt><trkpt lat="44.225189" lon="12.024405"><ele>29.0</ele><time>2026-04-04T10:46:56.006Z</time></trkpt><trkpt lat="44.225333" lon="12.0243457"><ele>29.0</ele><time>2026-04-04T10:46:57.007Z</time></trkpt><trkpt lat="44.2254644" lon="12.0242871"><ele>29.0</ele><time>2026-04-04T10:46:58.006Z</time></trkpt><trkpt lat="44.2255949" lon="12.0242319"><ele>29.0</ele><time>2026-04-04T10:46:59.011Z</time></trkpt><trkpt lat="44.2257322" lon="12.0241784"><ele>29.0</ele><time>2026-04-04T10:47:00.007Z</time></trkpt><trkpt lat="44.2258747" lon="12.0241257"><ele>29.0</ele><time>2026-04-04T10:47:01.006Z</time></trkpt><trkpt lat="44.2260122" lon="12.0240829"><ele>29.0</ele><time>2026-04-04T10:47:02.007Z</time></trkpt><trkpt lat="44.2261419" lon="12.0240372"><ele>29.0</ele><time>2026-04-04T10:47:03.006Z</time></trkpt><trkpt lat="44.2262596" lon="12.0240033"><ele>29.0</ele><time>2026-04-04T10:47:04.009Z</time></trkpt><trkpt lat="44.2263737" lon="12.0239868"><ele>29.0</ele><time>2026-04-04T10:47:05.005Z</time></trkpt><trkpt lat="44.2264808" lon="12.0239672"><ele>29.0</ele><time>2026-04-04T10:47:06.009Z</time></trkpt><trkpt lat="44.2265785" lon="12.0239407"><ele>29.0</ele><time>2026-04-04T10:47:07.006Z</time></trkpt><trkpt lat="44.2266728" lon="12.0239168"><ele>29.0</ele><time>2026-04-04T10:47:08.007Z</time></trkpt><trkpt lat="44.2267708" lon="12.0238861"><ele>29.0</ele><time>2026-04-04T10:47:09.009Z</time></trkpt><trkpt lat="44.2268742" lon="12.0238596"><ele>29.0</ele><time>2026-04-04T10:47:10.006Z</time></trkpt><trkpt lat="44.226985" lon="12.0238311"><ele>29.0</ele><time>2026-04-04T10:47:11.007Z</time></trkpt><trkpt lat="44.2271026" lon="12.0238156"><ele>29.0</ele><time>2026-04-04T10:47:12.006Z</time></trkpt><trkpt lat="44.2272225" lon="12.0238379"><ele>29.0</ele><time>2026-04-04T10:47:13.007Z</time></trkpt><trkpt lat="44.2273399" lon="12.0238979"><ele>28.75</ele><time>2026-04-04T10:47:14.006Z</time></trkpt><trkpt lat="44.2274547" lon="12.0239925"><ele>28.5</ele><time>2026-04-04T10:47:15.008Z</time></trkpt><trkpt lat="44.2275617" lon="12.0241206"><ele>28.25</ele><time>2026-04-04T10:47:16.008Z</time></trkpt><trkpt lat="44.2276675" lon="12.0242142"><ele>28.0</ele><time>2026-04-04T10:47:17.007Z</time></trkpt><trkpt lat="44.227747" lon="12.024293"><ele>28.000000000000004</ele><time>2026-04-04T10:47:18.006Z</time></trkpt><trkpt lat="44.2278129" lon="12.0243522"><ele>28.0</ele><time>2026-04-04T10:47:19.009Z</time></trkpt><trkpt lat="44.2278684" lon="12.0244048"><ele>28.0</ele><time>2026-04-04T10:47:20.006Z</time></trkpt><trkpt lat="44.2279252" lon="12.0244471"><ele>28.0</ele><time>2026-04-04T10:47:21.007Z</time></trkpt><trkpt lat="44.2279837" lon="12.0245229"><ele>28.000000000000004</ele><time>2026-04-04T10:47:23.005Z</time></trkpt><trkpt lat="44.2280867" lon="12.0245433"><ele>28.0</ele><time>2026-04-04T10:48:33.007Z</time></trkpt><trkpt lat="44.228155" lon="12.0245233"><ele>27.599999999999998</ele><time>2026-04-04T10:48:34.007Z</time></trkpt><trkpt lat="44.22825" lon="12.0244233"><ele>27.199999999999996</ele><time>2026-04-04T10:48:35.008Z</time></trkpt><trkpt lat="44.2283183" lon="12.0242983"><ele>26.8</ele><time>2026-04-04T10:48:36.007Z</time></trkpt><trkpt lat="44.2283783" lon="12.0241933"><ele>26.4</ele><time>2026-04-04T10:48:37.007Z</time></trkpt><trkpt lat="44.2284267" lon="12.024115"><ele>26.0</ele><time>2026-04-04T10:48:38.009Z</time></trkpt><trkpt lat="44.2284867" lon="12.0240267"><ele>25.8</ele><time>2026-04-04T10:48:40.008Z</time></trkpt><trkpt lat="44.22856" lon="12.0239633"><ele>25.6</ele><time>2026-04-04T10:48:56.007Z</time></trkpt><trkpt lat="44.228595" lon="12.0238817"><ele>25.4</ele><time>2026-04-04T10:48:57.008Z</time></trkpt><trkpt lat="44.2286433" lon="12.0237733"><ele>25.2</ele><time>2026-04-04T10:48:58.006Z</time></trkpt><trkpt lat="44.2287017" lon="12.0236367"><ele>25.0</ele><time>2026-04-04T10:48:59.006Z</time></trkpt><trkpt lat="44.2287817" lon="12.0234683"><ele>24.333333333333336</ele><time>2026-04-04T10:49:00.007Z</time></trkpt><trkpt lat="44.2288633" lon="12.023295"><ele>23.666666666666668</ele><time>2026-04-04T10:49:01.005Z</time></trkpt><trkpt lat="44.2289483" lon="12.0231067"><ele>23.0</ele><time>2026-04-04T10:49:02.01Z</time></trkpt><trkpt lat="44.2290367" lon="12.0229167"><ele>24.0</ele><time>2026-04-04T10:49:03.007Z</time></trkpt><trkpt lat="44.2291283" lon="12.0227117"><ele>25.0</ele><time>2026-04-04T10:49:04.006Z</time></trkpt><trkpt lat="44.2292167" lon="12.0225083"><ele>26.0</ele><time>2026-04-04T10:49:05.007Z</time></trkpt><trkpt lat="44.2292983" lon="12.02231"><ele>26.0</ele><time>2026-04-04T10:49:06.007Z</time></trkpt><trkpt lat="44.229395" lon="12.0221033"><ele>26.0</ele><time>2026-04-04T10:49:07.015Z</time></trkpt><trkpt lat="44.22948" lon="12.0219017"><ele>26.0</ele><time>2026-04-04T10:49:08.008Z</time></trkpt><trkpt lat="44.2295683" lon="12.021695"><ele>25.333333333333332</ele><time>2026-04-04T10:49:09.007Z</time></trkpt><trkpt lat="44.2296533" lon="12.0214967"><ele>24.666666666666664</ele><time>2026-04-04T10:49:10.007Z</time></trkpt><trkpt lat="44.2297467" lon="12.02129"><ele>24.0</ele><time>2026-04-04T10:49:11.007Z</time></trkpt><trkpt lat="44.2298517" lon="12.0210467"><ele>23.5</ele><time>2026-04-04T10:49:12.007Z</time></trkpt><trkpt lat="44.22997" lon="12.0207617"><ele>23.0</ele><time>2026-04-04T10:49:13.006Z</time></trkpt><trkpt lat="44.2301167" lon="12.020455"><ele>23.0</ele><time>2026-04-04T10:49:14.007Z</time></trkpt><trkpt lat="44.2302733" lon="12.0201317"><ele>23.0</ele><time>2026-04-04T10:49:15.007Z</time></trkpt><trkpt lat="44.2304283" lon="12.01981"><ele>24.0</ele><time>2026-04-04T10:49:16.007Z</time></trkpt><trkpt lat="44.2305667" lon="12.019505"><ele>25.0</ele><time>2026-04-04T10:49:17.006Z</time></trkpt><trkpt lat="44.2306967" lon="12.0192267"><ele>25.333333333333336</ele><time>2026-04-04T10:49:18.007Z</time></trkpt><trkpt lat="44.2308183" lon="12.01897"><ele>25.666666666666664</ele><time>2026-04-04T10:49:19.006Z</time></trkpt><trkpt lat="44.230925" lon="12.0187417"><ele>26.0</ele><time>2026-04-04T10:49:20.007Z</time></trkpt><trkpt lat="44.2310117" lon="12.0185483"><ele>26.0</ele><time>2026-04-04T10:49:21.008Z</time></trkpt><trkpt lat="44.231085" lon="12.0183883"><ele>26.0</ele><time>2026-04-04T10:49:22.012Z</time></trkpt><trkpt lat="44.2311517" lon="12.0182567"><ele>26.0</ele><time>2026-04-04T10:49:23.008Z</time></trkpt><trkpt lat="44.2312217" lon="12.0181367"><ele>26.0</ele><time>2026-04-04T10:49:24.007Z</time></trkpt><trkpt lat="44.2312883" lon="12.018015"><ele>25.999999999999996</ele><time>2026-04-04T10:49:25.007Z</time></trkpt><trkpt lat="44.2313517" lon="12.0178867"><ele>26.0</ele><time>2026-04-04T10:49:26.009Z</time></trkpt><trkpt lat="44.2313833" lon="12.0177617"><ele>26.0</ele><time>2026-04-04T10:49:27.008Z</time></trkpt><trkpt lat="44.2314283" lon="12.01768"><ele>26.0</ele><time>2026-04-04T10:49:28.007Z</time></trkpt><trkpt lat="44.2314867" lon="12.01762"><ele>25.999999999999996</ele><time>2026-04-04T10:49:29.015Z</time></trkpt><trkpt lat="44.231553" lon="12.0175798"><ele>26.0</ele><time>2026-04-04T10:49:30.007Z</time></trkpt><trkpt lat="44.2316189" lon="12.0175488"><ele>26.0</ele><time>2026-04-04T10:49:31.006Z</time></trkpt><trkpt lat="44.231684" lon="12.0175201"><ele>26.0</ele><time>2026-04-04T10:49:32.007Z</time></trkpt><trkpt lat="44.2317263" lon="12.0174524"><ele>26.0</ele><time>2026-04-04T10:49:33.009Z</time></trkpt><trkpt lat="44.2317555" lon="12.0173684"><ele>26.0</ele><time>2026-04-04T10:49:34.007Z</time></trkpt><trkpt lat="44.2317558" lon="12.0172719"><ele>26.0</ele><time>2026-04-04T10:49:36.008Z</time></trkpt><trkpt lat="44.2316766" lon="12.0172787"><ele>26.0</ele><time>2026-04-04T10:49:38.009Z</time></trkpt><trkpt lat="44.2316053" lon="12.0173066"><ele>26.0</ele><time>2026-04-04T10:49:40.008Z</time></trkpt><trkpt lat="44.23158" lon="12.0174883"><ele>26.0</ele><time>2026-04-04T10:52:31.01Z</time></trkpt><trkpt lat="44.2315183" lon="12.017535"><ele>26.0</ele><time>2026-04-04T10:52:34.008Z</time></trkpt><trkpt lat="44.23141" lon="12.01751"><ele>26.0</ele><time>2026-04-04T10:52:44.006Z</time></trkpt><trkpt lat="44.2313283" lon="12.0175817"><ele>26.0</ele><time>2026-04-04T10:52:46.006Z</time></trkpt><trkpt lat="44.23127" lon="12.0176667"><ele>26.0</ele><time>2026-04-04T10:52:51.007Z</time></trkpt><trkpt lat="44.231195" lon="12.0178267"><ele>26.0</ele><time>2026-04-04T10:52:53.007Z</time></trkpt><trkpt lat="44.2311433" lon="12.0179567"><ele>26.0</ele><time>2026-04-04T10:52:54.007Z</time></trkpt><trkpt lat="44.2310883" lon="12.0180917"><ele>26.0</ele><time>2026-04-04T10:52:55.008Z</time></trkpt><trkpt lat="44.2310233" lon="12.018265"><ele>26.0</ele><time>2026-04-04T10:52:56.006Z</time></trkpt><trkpt lat="44.2309367" lon="12.0184767"><ele>26.0</ele><time>2026-04-04T10:52:57.008Z</time></trkpt><trkpt lat="44.230815" lon="12.01873"><ele>26.0</ele><time>2026-04-04T10:52:58.006Z</time></trkpt><trkpt lat="44.23068" lon="12.01902"><ele>25.5</ele><time>2026-04-04T10:52:59.007Z</time></trkpt><trkpt lat="44.2305367" lon="12.0193433"><ele>25.0</ele><time>2026-04-04T10:53:00.009Z</time></trkpt><trkpt lat="44.2304" lon="12.0196583"><ele>25.0</ele><time>2026-04-04T10:53:01.008Z</time></trkpt><trkpt lat="44.230275" lon="12.019945"><ele>25.0</ele><time>2026-04-04T10:53:02.008Z</time></trkpt><trkpt lat="44.2301583" lon="12.0202083"><ele>24.666666666666668</ele><time>2026-04-04T10:53:03.008Z</time></trkpt><trkpt lat="44.2300433" lon="12.0204483"><ele>24.333333333333336</ele><time>2026-04-04T10:53:04.007Z</time></trkpt><trkpt lat="44.2299367" lon="12.0206717"><ele>24.0</ele><time>2026-04-04T10:53:05.006Z</time></trkpt><trkpt lat="44.2298417" lon="12.0208733"><ele>24.0</ele><time>2026-04-04T10:53:06.007Z</time></trkpt><trkpt lat="44.22975" lon="12.0210633"><ele>24.0</ele><time>2026-04-04T10:53:07.006Z</time></trkpt><trkpt lat="44.2296583" lon="12.0212517"><ele>24.0</ele><time>2026-04-04T10:53:08.008Z</time></trkpt><trkpt lat="44.2295783" lon="12.0214267"><ele>24.0</ele><time>2026-04-04T10:53:09.007Z</time></trkpt><trkpt lat="44.2295017" lon="12.0216"><ele>24.0</ele><time>2026-04-04T10:53:10.006Z</time></trkpt><trkpt lat="44.2294217" lon="12.0217683"><ele>24.0</ele><time>2026-04-04T10:53:11.006Z</time></trkpt><trkpt lat="44.2293417" lon="12.02194"><ele>24.0</ele><time>2026-04-04T10:53:12.006Z</time></trkpt><trkpt lat="44.2292617" lon="12.0221117"><ele>23.75</ele><time>2026-04-04T10:53:13.01Z</time></trkpt><trkpt lat="44.229185" lon="12.0222767"><ele>23.5</ele><time>2026-04-04T10:53:14.006Z</time></trkpt><trkpt lat="44.22911" lon="12.022445"><ele>23.25</ele><time>2026-04-04T10:53:15.008Z</time></trkpt><trkpt lat="44.22904" lon="12.022605"><ele>23.0</ele><time>2026-04-04T10:53:16.009Z</time></trkpt><trkpt lat="44.2289667" lon="12.0227717"><ele>23.0</ele><time>2026-04-04T10:53:17.007Z</time></trkpt><trkpt lat="44.228895" lon="12.0229367"><ele>23.0</ele><time>2026-04-04T10:53:18.007Z</time></trkpt><trkpt lat="44.2288233" lon="12.0231"><ele>23.0</ele><time>2026-04-04T10:53:19.006Z</time></trkpt><trkpt lat="44.228755" lon="12.02326"><ele>23.0</ele><time>2026-04-04T10:53:20.006Z</time></trkpt><trkpt lat="44.2286833" lon="12.0234183"><ele>23.5</ele><time>2026-04-04T10:53:21.008Z</time></trkpt><trkpt lat="44.2286133" lon="12.0235683"><ele>24.0</ele><time>2026-04-04T10:53:22.008Z</time></trkpt><trkpt lat="44.2285433" lon="12.02372"><ele>24.5</ele><time>2026-04-04T10:53:23.008Z</time></trkpt><trkpt lat="44.2284633" lon="12.0238783"><ele>25.0</ele><time>2026-04-04T10:53:24.007Z</time></trkpt><trkpt lat="44.228395" lon="12.02403"><ele>25.25</ele><time>2026-04-04T10:53:25.01Z</time></trkpt><trkpt lat="44.228325" lon="12.0241833"><ele>25.5</ele><time>2026-04-04T10:53:26.01Z</time></trkpt><trkpt lat="44.2282533" lon="12.02434"><ele>25.75</ele><time>2026-04-04T10:53:27.007Z</time></trkpt><trkpt lat="44.2281767" lon="12.0245"><ele>26.0</ele><time>2026-04-04T10:53:28.009Z</time></trkpt><trkpt lat="44.228105" lon="12.0246617"><ele>26.5</ele><time>2026-04-04T10:53:29.007Z</time></trkpt><trkpt lat="44.22803" lon="12.0248233"><ele>27.0</ele><time>2026-04-04T10:53:30.006Z</time></trkpt><trkpt lat="44.2279617" lon="12.0249867"><ele>27.5</ele><time>2026-04-04T10:53:31.008Z</time></trkpt><trkpt lat="44.2278917" lon="12.0251383"><ele>28.0</ele><time>2026-04-04T10:53:32.007Z</time></trkpt><trkpt lat="44.2278317" lon="12.025275"><ele>28.0</ele><time>2026-04-04T10:53:33.008Z</time></trkpt><trkpt lat="44.2277667" lon="12.0254067"><ele>27.999999999999996</ele><time>2026-04-04T10:53:34.008Z</time></trkpt><trkpt lat="44.2277083" lon="12.0255283"><ele>27.999999999999996</ele><time>2026-04-04T10:53:35.007Z</time></trkpt><trkpt lat="44.2276533" lon="12.0256333"><ele>28.0</ele><time>2026-04-04T10:53:36.007Z</time></trkpt><trkpt lat="44.2276" lon="12.0257317"><ele>28.0</ele><time>2026-04-04T10:53:37.01Z</time></trkpt><trkpt lat="44.2275559" lon="12.0258232"><ele>28.166666666666668</ele><time>2026-04-04T10:53:38.008Z</time></trkpt><trkpt lat="44.2275155" lon="12.0259141"><ele>28.333333333333336</ele><time>2026-04-04T10:53:39.008Z</time></trkpt><trkpt lat="44.2274773" lon="12.0259967"><ele>28.5</ele><time>2026-04-04T10:53:40.008Z</time></trkpt><trkpt lat="44.2274203" lon="12.0261026"><ele>28.666666666666664</ele><time>2026-04-04T10:53:42.013Z</time></trkpt><trkpt lat="44.2274" lon="12.0262533"><ele>28.833333333333332</ele><time>2026-04-04T10:54:32.006Z</time></trkpt><trkpt lat="44.227355" lon="12.026355"><ele>29.0</ele><time>2026-04-04T10:54:34.006Z</time></trkpt><trkpt lat="44.22739" lon="12.0262734"><ele>29.0</ele><time>2026-04-04T10:54:36.043Z</time></trkpt><trkpt lat="44.2272888" lon="12.0264907"><ele>29.0</ele><time>2026-04-04T10:54:38.006Z</time></trkpt><trkpt lat="44.22721" lon="12.0266571"><ele>29.0</ele><time>2026-04-04T10:54:39.006Z</time></trkpt><trkpt lat="44.2271401" lon="12.0267558"><ele>29.0</ele><time>2026-04-04T10:54:40.012Z</time></trkpt><trkpt lat="44.2270735" lon="12.0268069"><ele>28.999999999999996</ele><time>2026-04-04T10:54:41.005Z</time></trkpt><trkpt lat="44.2270099" lon="12.0268174"><ele>29.0</ele><time>2026-04-04T10:54:42.006Z</time></trkpt><trkpt lat="44.2269404" lon="12.026792"><ele>29.0</ele><time>2026-04-04T10:54:43.008Z</time></trkpt><trkpt lat="44.2268654" lon="12.0267398"><ele>29.0</ele><time>2026-04-04T10:54:44.006Z</time></trkpt><trkpt lat="44.2267828" lon="12.0266724"><ele>28.999999999999996</ele><time>2026-04-04T10:54:45.006Z</time></trkpt><trkpt lat="44.2266876" lon="12.0265935"><ele>29.0</ele><time>2026-04-04T10:54:46.006Z</time></trkpt><trkpt lat="44.2265793" lon="12.0265058"><ele>29.0</ele><time>2026-04-04T10:54:47.007Z</time></trkpt><trkpt lat="44.2264681" lon="12.0264169"><ele>29.0</ele><time>2026-04-04T10:54:48.005Z</time></trkpt><trkpt lat="44.2263591" lon="12.0263323"><ele>29.0</ele><time>2026-04-04T10:54:49.007Z</time></trkpt><trkpt lat="44.2262546" lon="12.0262552"><ele>29.0</ele><time>2026-04-04T10:54:50.012Z</time></trkpt><trkpt lat="44.2261559" lon="12.0261995"><ele>29.0</ele><time>2026-04-04T10:54:51.006Z</time></trkpt><trkpt lat="44.226059" lon="12.0261729"><ele>29.0</ele><time>2026-04-04T10:54:52.006Z</time></trkpt><trkpt lat="44.2259565" lon="12.0261832"><ele>29.0</ele><time>2026-04-04T10:54:53.007Z</time></trkpt><trkpt lat="44.2258392" lon="12.0262216"><ele>29.0</ele><time>2026-04-04T10:54:54.006Z</time></trkpt><trkpt lat="44.2257074" lon="12.0262825"><ele>28.666666666666664</ele><time>2026-04-04T10:54:55.006Z</time></trkpt><trkpt lat="44.2255544" lon="12.0263584"><ele>28.333333333333336</ele><time>2026-04-04T10:54:56.006Z</time></trkpt><trkpt lat="44.2253881" lon="12.0264365"><ele>28.0</ele><time>2026-04-04T10:54:57.01Z</time></trkpt><trkpt lat="44.2252167" lon="12.0265072"><ele>28.0</ele><time>2026-04-04T10:54:58.006Z</time></trkpt><trkpt lat="44.2250505" lon="12.0265726"><ele>28.0</ele><time>2026-04-04T10:54:59.006Z</time></trkpt><trkpt lat="44.2248948" lon="12.0266313"><ele>28.0</ele><time>2026-04-04T10:55:00.007Z</time></trkpt><trkpt lat="44.2247469" lon="12.0266859"><ele>28.666666666666668</ele><time>2026-04-04T10:55:01.006Z</time></trkpt><trkpt lat="44.2245973" lon="12.0267355"><ele>29.333333333333336</ele><time>2026-04-04T10:55:02.006Z</time></trkpt><trkpt lat="44.2244392" lon="12.0267819"><ele>30.0</ele><time>2026-04-04T10:55:03.005Z</time></trkpt><trkpt lat="44.2242675" lon="12.0268229"><ele>30.0</ele><time>2026-04-04T10:55:04.006Z</time></trkpt><trkpt lat="44.2240791" lon="12.0268464"><ele>30.0</ele><time>2026-04-04T10:55:05.006Z</time></trkpt><trkpt lat="44.2238708" lon="12.0268623"><ele>30.0</ele><time>2026-04-04T10:55:06.007Z</time></trkpt><trkpt lat="44.2236477" lon="12.026885"><ele>29.0</ele><time>2026-04-04T10:55:07.007Z</time></trkpt><trkpt lat="44.2234243" lon="12.0269115"><ele>28.0</ele><time>2026-04-04T10:55:08.007Z</time></trkpt><trkpt lat="44.2231827" lon="12.026934"><ele>28.5</ele><time>2026-04-04T10:55:09.006Z</time></trkpt><trkpt lat="44.222932" lon="12.0269578"><ele>29.0</ele><time>2026-04-04T10:55:10.006Z</time></trkpt><trkpt lat="44.2226791" lon="12.0269828"><ele>29.0</ele><time>2026-04-04T10:55:11.006Z</time></trkpt><trkpt lat="44.2224237" lon="12.0270095"><ele>29.0</ele><time>2026-04-04T10:55:12.005Z</time></trkpt><trkpt lat="44.2221672" lon="12.0270355"><ele>29.0</ele><time>2026-04-04T10:55:13.006Z</time></trkpt><trkpt lat="44.2219082" lon="12.0270645"><ele>29.0</ele><time>2026-04-04T10:55:14.006Z</time></trkpt><trkpt lat="44.2216507" lon="12.027097"><ele>30.0</ele><time>2026-04-04T10:55:15.011Z</time></trkpt><trkpt lat="44.2214022" lon="12.0271306"><ele>31.0</ele><time>2026-04-04T10:55:16.005Z</time></trkpt><trkpt lat="44.2211683" lon="12.0271618"><ele>31.0</ele><time>2026-04-04T10:55:17.005Z</time></trkpt><trkpt lat="44.2209482" lon="12.0271866"><ele>31.0</ele><time>2026-04-04T10:55:18.006Z</time></trkpt><trkpt lat="44.2207319" lon="12.0272079"><ele>31.0</ele><time>2026-04-04T10:55:19.005Z</time></trkpt><trkpt lat="44.2205049" lon="12.027229"><ele>31.5</ele><time>2026-04-04T10:55:20.007Z</time></trkpt><trkpt lat="44.2202624" lon="12.027257"><ele>32.0</ele><time>2026-04-04T10:55:21.007Z</time></trkpt><trkpt lat="44.2200008" lon="12.0272938"><ele>31.5</ele><time>2026-04-04T10:55:22.006Z</time></trkpt><trkpt lat="44.2197204" lon="12.0273343"><ele>31.0</ele><time>2026-04-04T10:55:23.006Z</time></trkpt><trkpt lat="44.219444" lon="12.0273728"><ele>31.0</ele><time>2026-04-04T10:55:24.007Z</time></trkpt><trkpt lat="44.2191869" lon="12.0273962"><ele>31.0</ele><time>2026-04-04T10:55:25.006Z</time></trkpt><trkpt lat="44.2189453" lon="12.0273975"><ele>31.0</ele><time>2026-04-04T10:55:26.007Z</time></trkpt><trkpt lat="44.2187201" lon="12.027369"><ele>31.0</ele><time>2026-04-04T10:55:27.007Z</time></trkpt><trkpt lat="44.218522" lon="12.0272929"><ele>31.0</ele><time>2026-04-04T10:55:28.007Z</time></trkpt><trkpt lat="44.2183352" lon="12.0271624"><ele>31.0</ele><time>2026-04-04T10:55:29.006Z</time></trkpt><trkpt lat="44.2181522" lon="12.0269717"><ele>31.0</ele><time>2026-04-04T10:55:30.006Z</time></trkpt><trkpt lat="44.2179617" lon="12.0267446"><ele>31.5</ele><time>2026-04-04T10:55:31.005Z</time></trkpt><trkpt lat="44.2177641" lon="12.0265013"><ele>32.0</ele><time>2026-04-04T10:55:32.008Z</time></trkpt><trkpt lat="44.2175631" lon="12.0262592"><ele>32.0</ele><time>2026-04-04T10:55:33.009Z</time></trkpt><trkpt lat="44.2173662" lon="12.0260254"><ele>32.0</ele><time>2026-04-04T10:55:34.006Z</time></trkpt><trkpt lat="44.2171781" lon="12.0258104"><ele>32.666666666666664</ele><time>2026-04-04T10:55:35.008Z</time></trkpt><trkpt lat="44.2170005" lon="12.0256159"><ele>33.333333333333336</ele><time>2026-04-04T10:55:36.005Z</time></trkpt><trkpt lat="44.2168288" lon="12.0254391"><ele>34.0</ele><time>2026-04-04T10:55:37.009Z</time></trkpt><trkpt lat="44.2166658" lon="12.0252761"><ele>34.0</ele><time>2026-04-04T10:55:38.006Z</time></trkpt><trkpt lat="44.2165089" lon="12.0251155"><ele>34.0</ele><time>2026-04-04T10:55:39.005Z</time></trkpt><trkpt lat="44.2163571" lon="12.024953"><ele>34.0</ele><time>2026-04-04T10:55:40.005Z</time></trkpt><trkpt lat="44.2162074" lon="12.0247807"><ele>34.0</ele><time>2026-04-04T10:55:41.007Z</time></trkpt><trkpt lat="44.2160652" lon="12.0245931"><ele>34.0</ele><time>2026-04-04T10:55:42.006Z</time></trkpt><trkpt lat="44.2159282" lon="12.0243951"><ele>34.0</ele><time>2026-04-04T10:55:43.006Z</time></trkpt><trkpt lat="44.2158066" lon="12.0241787"><ele>33.66666666666667</ele><time>2026-04-04T10:55:44.007Z</time></trkpt><trkpt lat="44.215694" lon="12.0239447"><ele>33.333333333333336</ele><time>2026-04-04T10:55:45.005Z</time></trkpt><trkpt lat="44.2155849" lon="12.0237062"><ele>33.0</ele><time>2026-04-04T10:55:46.007Z</time></trkpt><trkpt lat="44.2154736" lon="12.0234642"><ele>32.666666666666664</ele><time>2026-04-04T10:55:47.006Z</time></trkpt><trkpt lat="44.2153547" lon="12.0232267"><ele>32.33333333333333</ele><time>2026-04-04T10:55:48.006Z</time></trkpt><trkpt lat="44.2152321" lon="12.0229928"><ele>32.0</ele><time>2026-04-04T10:55:49.008Z</time></trkpt><trkpt lat="44.2151079" lon="12.0227629"><ele>32.0</ele><time>2026-04-04T10:55:50.006Z</time></trkpt><trkpt lat="44.2149789" lon="12.0225367"><ele>32.0</ele><time>2026-04-04T10:55:51.007Z</time></trkpt><trkpt lat="44.2148509" lon="12.0223122"><ele>32.0</ele><time>2026-04-04T10:55:52.007Z</time></trkpt><trkpt lat="44.2147251" lon="12.0220901"><ele>32.33333333333333</ele><time>2026-04-04T10:55:53.006Z</time></trkpt><trkpt lat="44.2145962" lon="12.0218634"><ele>32.666666666666664</ele><time>2026-04-04T10:55:54.006Z</time></trkpt><trkpt lat="44.21445" lon="12.0216227"><ele>33.0</ele><time>2026-04-04T10:55:55.007Z</time></trkpt><trkpt lat="44.2142902" lon="12.0213646"><ele>33.0</ele><time>2026-04-04T10:55:56.006Z</time></trkpt><trkpt lat="44.2141286" lon="12.0210882"><ele>33.0</ele><time>2026-04-04T10:55:57.007Z</time></trkpt><trkpt lat="44.2139749" lon="12.0207931"><ele>33.5</ele><time>2026-04-04T10:55:58.006Z</time></trkpt><trkpt lat="44.2138265" lon="12.0204966"><ele>34.0</ele><time>2026-04-04T10:55:59.007Z</time></trkpt><trkpt lat="44.2136914" lon="12.0201962"><ele>34.0</ele><time>2026-04-04T10:56:00.007Z</time></trkpt><trkpt lat="44.2135724" lon="12.0198939"><ele>34.0</ele><time>2026-04-04T10:56:01.007Z</time></trkpt><trkpt lat="44.2134666" lon="12.0195989"><ele>34.0</ele><time>2026-04-04T10:56:02.007Z</time></trkpt><trkpt lat="44.2133666" lon="12.0193155"><ele>34.0</ele><time>2026-04-04T10:56:03.008Z</time></trkpt><trkpt lat="44.2132695" lon="12.0190462"><ele>34.0</ele><time>2026-04-04T10:56:04.007Z</time></trkpt><trkpt lat="44.2131713" lon="12.0187877"><ele>34.333333333333336</ele><time>2026-04-04T10:56:05.006Z</time></trkpt><trkpt lat="44.2130746" lon="12.0185306"><ele>34.666666666666664</ele><time>2026-04-04T10:56:06.007Z</time></trkpt><trkpt lat="44.2129876" lon="12.018301"><ele>35.0</ele><time>2026-04-04T10:56:07.006Z</time></trkpt><trkpt lat="44.2129111" lon="12.0180919"><ele>35.0</ele><time>2026-04-04T10:56:08.008Z</time></trkpt><trkpt lat="44.2128372" lon="12.017893"><ele>35.0</ele><time>2026-04-04T10:56:09.005Z</time></trkpt><trkpt lat="44.2127621" lon="12.017696"><ele>35.0</ele><time>2026-04-04T10:56:10.008Z</time></trkpt><trkpt lat="44.2126842" lon="12.0174981"><ele>35.33333333333333</ele><time>2026-04-04T10:56:11.007Z</time></trkpt><trkpt lat="44.2126089" lon="12.0172977"><ele>35.666666666666664</ele><time>2026-04-04T10:56:12.007Z</time></trkpt><trkpt lat="44.2125312" lon="12.0170969"><ele>36.0</ele><time>2026-04-04T10:56:13.006Z</time></trkpt><trkpt lat="44.2124576" lon="12.0168923"><ele>36.0</ele><time>2026-04-04T10:56:14.006Z</time></trkpt><trkpt lat="44.2123881" lon="12.0166943"><ele>36.0</ele><time>2026-04-04T10:56:15.007Z</time></trkpt><trkpt lat="44.2123252" lon="12.0165097"><ele>36.0</ele><time>2026-04-04T10:56:16.006Z</time></trkpt><trkpt lat="44.2122671" lon="12.0163364"><ele>36.0</ele><time>2026-04-04T10:56:17.006Z</time></trkpt><trkpt lat="44.2122081" lon="12.0161566"><ele>36.0</ele><time>2026-04-04T10:56:18.007Z</time></trkpt><trkpt lat="44.2121422" lon="12.0159599"><ele>36.0</ele><time>2026-04-04T10:56:19.006Z</time></trkpt><trkpt lat="44.2120701" lon="12.015748"><ele>36.0</ele><time>2026-04-04T10:56:20.006Z</time></trkpt><trkpt lat="44.2119886" lon="12.0155218"><ele>36.0</ele><time>2026-04-04T10:56:21.006Z</time></trkpt><trkpt lat="44.2119001" lon="12.0152805"><ele>36.0</ele><time>2026-04-04T10:56:22.006Z</time></trkpt><trkpt lat="44.2118095" lon="12.0150254"><ele>36.0</ele><time>2026-04-04T10:56:23.006Z</time></trkpt><trkpt lat="44.2117111" lon="12.0147603"><ele>35.5</ele><time>2026-04-04T10:56:24.006Z</time></trkpt><trkpt lat="44.2115969" lon="12.0144666"><ele>35.0</ele><time>2026-04-04T10:56:25.007Z</time></trkpt><trkpt lat="44.2114619" lon="12.0141458"><ele>34.0</ele><time>2026-04-04T10:56:26.009Z</time></trkpt><trkpt lat="44.2113173" lon="12.0138106"><ele>33.0</ele><time>2026-04-04T10:56:27.006Z</time></trkpt><trkpt lat="44.2111858" lon="12.0134985"><ele>33.0</ele><time>2026-04-04T10:56:28.007Z</time></trkpt><trkpt lat="44.2110754" lon="12.0132053"><ele>33.0</ele><time>2026-04-04T10:56:29.006Z</time></trkpt><trkpt lat="44.2109838" lon="12.0129209"><ele>33.0</ele><time>2026-04-04T10:56:30.007Z</time></trkpt><trkpt lat="44.2109083" lon="12.0126506"><ele>33.0</ele><time>2026-04-04T10:56:31.007Z</time></trkpt><trkpt lat="44.2108411" lon="12.0123945"><ele>33.0</ele><time>2026-04-04T10:56:32.007Z</time></trkpt><trkpt lat="44.2107784" lon="12.0121508"><ele>33.666666666666664</ele><time>2026-04-04T10:56:33.007Z</time></trkpt><trkpt lat="44.2107173" lon="12.0119186"><ele>34.33333333333333</ele><time>2026-04-04T10:56:34.008Z</time></trkpt><trkpt lat="44.2106578" lon="12.0116966"><ele>35.0</ele><time>2026-04-04T10:56:35.007Z</time></trkpt><trkpt lat="44.2105984" lon="12.0114846"><ele>35.0</ele><time>2026-04-04T10:56:36.007Z</time></trkpt><trkpt lat="44.2105403" lon="12.0112783"><ele>35.0</ele><time>2026-04-04T10:56:37.007Z</time></trkpt><trkpt lat="44.2104862" lon="12.0110737"><ele>35.0</ele><time>2026-04-04T10:56:38.006Z</time></trkpt><trkpt lat="44.2104331" lon="12.010871"><ele>35.5</ele><time>2026-04-04T10:56:39.006Z</time></trkpt><trkpt lat="44.2103902" lon="12.0106882"><ele>36.0</ele><time>2026-04-04T10:56:40.007Z</time></trkpt><trkpt lat="44.2103563" lon="12.0105214"><ele>36.5</ele><time>2026-04-04T10:56:41.005Z</time></trkpt><trkpt lat="44.2103301" lon="12.0103667"><ele>37.0</ele><time>2026-04-04T10:56:42.008Z</time></trkpt><trkpt lat="44.2103089" lon="12.0102215"><ele>37.0</ele><time>2026-04-04T10:56:43.007Z</time></trkpt><trkpt lat="44.2102949" lon="12.0100671"><ele>37.0</ele><time>2026-04-04T10:56:44.007Z</time></trkpt><trkpt lat="44.2103017" lon="12.0098709"><ele>37.0</ele><time>2026-04-04T10:56:45.01Z</time></trkpt><trkpt lat="44.2102866" lon="12.0096581"><ele>37.0</ele><time>2026-04-04T10:56:46.006Z</time></trkpt><trkpt lat="44.2102848" lon="12.0093479"><ele>37.0</ele><time>2026-04-04T10:56:47.007Z</time></trkpt><trkpt lat="44.2102723" lon="12.0090296"><ele>37.0</ele><time>2026-04-04T10:56:48.007Z</time></trkpt><trkpt lat="44.2102502" lon="12.0086944"><ele>37.0</ele><time>2026-04-04T10:56:49.005Z</time></trkpt><trkpt lat="44.2102165" lon="12.0083384"><ele>37.0</ele><time>2026-04-04T10:56:50.006Z</time></trkpt><trkpt lat="44.2101817" lon="12.0079627"><ele>37.0</ele><time>2026-04-04T10:56:51.007Z</time></trkpt><trkpt lat="44.2101391" lon="12.0075919"><ele>37.0</ele><time>2026-04-04T10:56:52.006Z</time></trkpt><trkpt lat="44.2100951" lon="12.007197"><ele>36.5</ele><time>2026-04-04T10:56:53.007Z</time></trkpt><trkpt lat="44.2100463" lon="12.0067944"><ele>36.0</ele><time>2026-04-04T10:56:54.006Z</time></trkpt><trkpt lat="44.2100222" lon="12.0063753"><ele>36.0</ele><time>2026-04-04T10:56:55.007Z</time></trkpt><trkpt lat="44.2100133" lon="12.005953"><ele>36.0</ele><time>2026-04-04T10:56:56.006Z</time></trkpt><trkpt lat="44.2099822" lon="12.0055419"><ele>37.0</ele><time>2026-04-04T10:56:57.007Z</time></trkpt><trkpt lat="44.2099493" lon="12.0051339"><ele>38.0</ele><time>2026-04-04T10:56:58.006Z</time></trkpt><trkpt lat="44.2099193" lon="12.0047289"><ele>38.0</ele><time>2026-04-04T10:56:59.008Z</time></trkpt><trkpt lat="44.2098833" lon="12.0043278"><ele>38.0</ele><time>2026-04-04T10:57:00.006Z</time></trkpt><trkpt lat="44.2098412" lon="12.0039317"><ele>38.0</ele><time>2026-04-04T10:57:01.007Z</time></trkpt><trkpt lat="44.2097837" lon="12.0035333"><ele>38.0</ele><time>2026-04-04T10:57:02.008Z</time></trkpt><trkpt lat="44.2097053" lon="12.0031205"><ele>38.0</ele><time>2026-04-04T10:57:03.007Z</time></trkpt><trkpt lat="44.2096092" lon="12.0026907"><ele>38.0</ele><time>2026-04-04T10:57:04.007Z</time></trkpt><trkpt lat="44.209513" lon="12.0022681"><ele>38.0</ele><time>2026-04-04T10:57:05.007Z</time></trkpt><trkpt lat="44.2094252" lon="12.0018693"><ele>38.0</ele><time>2026-04-04T10:57:06.008Z</time></trkpt><trkpt lat="44.2093456" lon="12.0015011"><ele>38.5</ele><time>2026-04-04T10:57:07.007Z</time></trkpt><trkpt lat="44.2092622" lon="12.0011437"><ele>39.0</ele><time>2026-04-04T10:57:08.006Z</time></trkpt><trkpt lat="44.2091743" lon="12.0008192"><ele>39.5</ele><time>2026-04-04T10:57:09.011Z</time></trkpt><trkpt lat="44.2090821" lon="12.0005184"><ele>40.0</ele><time>2026-04-04T10:57:10.006Z</time></trkpt><trkpt lat="44.2089835" lon="12.0002261"><ele>40.5</ele><time>2026-04-04T10:57:11.006Z</time></trkpt><trkpt lat="44.2088861" lon="11.9999462"><ele>41.0</ele><time>2026-04-04T10:57:12.007Z</time></trkpt><trkpt lat="44.2087761" lon="11.9996537"><ele>41.0</ele><time>2026-04-04T10:57:13.007Z</time></trkpt><trkpt lat="44.2086602" lon="11.9993644"><ele>41.0</ele><time>2026-04-04T10:57:14.008Z</time></trkpt><trkpt lat="44.208543" lon="11.9990809"><ele>40.5</ele><time>2026-04-04T10:57:15.006Z</time></trkpt><trkpt lat="44.2084256" lon="11.9988027"><ele>40.0</ele><time>2026-04-04T10:57:16.006Z</time></trkpt><trkpt lat="44.2083083" lon="11.9985252"><ele>40.0</ele><time>2026-04-04T10:57:17.006Z</time></trkpt><trkpt lat="44.2081892" lon="11.9982482"><ele>40.0</ele><time>2026-04-04T10:57:18.007Z</time></trkpt><trkpt lat="44.2080707" lon="11.9979673"><ele>39.5</ele><time>2026-04-04T10:57:19.011Z</time></trkpt><trkpt lat="44.2079477" lon="11.9976811"><ele>39.0</ele><time>2026-04-04T10:57:20.007Z</time></trkpt><trkpt lat="44.2078276" lon="11.9973912"><ele>40.0</ele><time>2026-04-04T10:57:21.007Z</time></trkpt><trkpt lat="44.2077058" lon="11.9971045"><ele>41.0</ele><time>2026-04-04T10:57:22.006Z</time></trkpt><trkpt lat="44.2075857" lon="11.996813"><ele>41.5</ele><time>2026-04-04T10:57:23.008Z</time></trkpt><trkpt lat="44.2074695" lon="11.9965177"><ele>42.0</ele><time>2026-04-04T10:57:24.007Z</time></trkpt><trkpt lat="44.2073509" lon="11.9962204"><ele>42.0</ele><time>2026-04-04T10:57:25.006Z</time></trkpt><trkpt lat="44.20723" lon="11.9959251"><ele>42.0</ele><time>2026-04-04T10:57:26.006Z</time></trkpt><trkpt lat="44.2071118" lon="11.9956314"><ele>42.0</ele><time>2026-04-04T10:57:27.007Z</time></trkpt><trkpt lat="44.2069991" lon="11.9953457"><ele>42.0</ele><time>2026-04-04T10:57:28.007Z</time></trkpt><trkpt lat="44.2068882" lon="11.9950681"><ele>42.0</ele><time>2026-04-04T10:57:29.006Z</time></trkpt><trkpt lat="44.2067811" lon="11.9947994"><ele>42.0</ele><time>2026-04-04T10:57:30.007Z</time></trkpt><trkpt lat="44.2066876" lon="11.9945313"><ele>42.0</ele><time>2026-04-04T10:57:31.007Z</time></trkpt><trkpt lat="44.2066098" lon="11.9942631"><ele>42.0</ele><time>2026-04-04T10:57:32.006Z</time></trkpt><trkpt lat="44.2065435" lon="11.9939923"><ele>42.0</ele><time>2026-04-04T10:57:33.007Z</time></trkpt><trkpt lat="44.2064806" lon="11.9937211"><ele>42.0</ele><time>2026-04-04T10:57:34.007Z</time></trkpt><trkpt lat="44.2064184" lon="11.9934509"><ele>42.0</ele><time>2026-04-04T10:57:35.009Z</time></trkpt><trkpt lat="44.2063509" lon="11.9931855"><ele>42.0</ele><time>2026-04-04T10:57:36.007Z</time></trkpt><trkpt lat="44.20628" lon="11.9929242"><ele>42.0</ele><time>2026-04-04T10:57:37.009Z</time></trkpt><trkpt lat="44.2062128" lon="11.9926688"><ele>42.666666666666664</ele><time>2026-04-04T10:57:38.007Z</time></trkpt><trkpt lat="44.2061441" lon="11.9924166"><ele>43.33333333333333</ele><time>2026-04-04T10:57:39.007Z</time></trkpt><trkpt lat="44.2060711" lon="11.9921634"><ele>44.0</ele><time>2026-04-04T10:57:40.007Z</time></trkpt><trkpt lat="44.2059925" lon="11.9919087"><ele>43.666666666666664</ele><time>2026-04-04T10:57:41.007Z</time></trkpt><trkpt lat="44.2059102" lon="11.991653"><ele>43.333333333333336</ele><time>2026-04-04T10:57:42.008Z</time></trkpt><trkpt lat="44.205825" lon="11.991398"><ele>43.0</ele><time>2026-04-04T10:57:43.006Z</time></trkpt><trkpt lat="44.2057334" lon="11.9911423"><ele>43.0</ele><time>2026-04-04T10:57:44.007Z</time></trkpt><trkpt lat="44.2056391" lon="11.990888"><ele>43.0</ele><time>2026-04-04T10:57:45.008Z</time></trkpt><trkpt lat="44.2055435" lon="11.9906336"><ele>43.0</ele><time>2026-04-04T10:57:46.007Z</time></trkpt><trkpt lat="44.2054482" lon="11.9903788"><ele>43.0</ele><time>2026-04-04T10:57:47.004Z</time></trkpt><trkpt lat="44.2053535" lon="11.9901214"><ele>43.0</ele><time>2026-04-04T10:57:48.008Z</time></trkpt><trkpt lat="44.2052615" lon="11.9898622"><ele>43.0</ele><time>2026-04-04T10:57:49.006Z</time></trkpt><trkpt lat="44.2051703" lon="11.9896015"><ele>43.333333333333336</ele><time>2026-04-04T10:57:50.006Z</time></trkpt><trkpt lat="44.2050742" lon="11.989339"><ele>43.666666666666664</ele><time>2026-04-04T10:57:51.008Z</time></trkpt><trkpt lat="44.2049804" lon="11.9890748"><ele>44.0</ele><time>2026-04-04T10:57:52.007Z</time></trkpt><trkpt lat="44.2048904" lon="11.9888088"><ele>43.666666666666664</ele><time>2026-04-04T10:57:53.011Z</time></trkpt><trkpt lat="44.2048" lon="11.9885387"><ele>43.333333333333336</ele><time>2026-04-04T10:57:54.007Z</time></trkpt><trkpt lat="44.2047105" lon="11.9882637"><ele>43.0</ele><time>2026-04-04T10:57:55.005Z</time></trkpt><trkpt lat="44.2046173" lon="11.9879917"><ele>43.66666666666667</ele><time>2026-04-04T10:57:56.008Z</time></trkpt><trkpt lat="44.2045248" lon="11.987718"><ele>44.333333333333336</ele><time>2026-04-04T10:57:57.008Z</time></trkpt><trkpt lat="44.204431" lon="11.9874436"><ele>45.0</ele><time>2026-04-04T10:57:58.007Z</time></trkpt><trkpt lat="44.2043367" lon="11.9871665"><ele>45.333333333333336</ele><time>2026-04-04T10:57:59.006Z</time></trkpt><trkpt lat="44.2042445" lon="11.9868873"><ele>45.66666666666667</ele><time>2026-04-04T10:58:00.008Z</time></trkpt><trkpt lat="44.2041555" lon="11.9866063"><ele>46.0</ele><time>2026-04-04T10:58:01.008Z</time></trkpt><trkpt lat="44.204072" lon="11.9863206"><ele>46.0</ele><time>2026-04-04T10:58:02.007Z</time></trkpt><trkpt lat="44.2039984" lon="11.9860329"><ele>46.0</ele><time>2026-04-04T10:58:03.006Z</time></trkpt><trkpt lat="44.2039317" lon="11.985743"><ele>46.0</ele><time>2026-04-04T10:58:04.007Z</time></trkpt><trkpt lat="44.2038697" lon="11.9854514"><ele>46.0</ele><time>2026-04-04T10:58:05.009Z</time></trkpt><trkpt lat="44.2038124" lon="11.98516"><ele>46.0</ele><time>2026-04-04T10:58:06.008Z</time></trkpt><trkpt lat="44.2037575" lon="11.9848716"><ele>46.0</ele><time>2026-04-04T10:58:07.007Z</time></trkpt><trkpt lat="44.2037045" lon="11.984582"><ele>46.0</ele><time>2026-04-04T10:58:08.007Z</time></trkpt><trkpt lat="44.2036491" lon="11.9842894"><ele>46.0</ele><time>2026-04-04T10:58:09.007Z</time></trkpt><trkpt lat="44.2035901" lon="11.9839994"><ele>46.0</ele><time>2026-04-04T10:58:10.007Z</time></trkpt><trkpt lat="44.2035299" lon="11.9837099"><ele>46.0</ele><time>2026-04-04T10:58:11.008Z</time></trkpt><trkpt lat="44.2034751" lon="11.9834211"><ele>46.0</ele><time>2026-04-04T10:58:12.007Z</time></trkpt><trkpt lat="44.203427" lon="11.9831271"><ele>46.0</ele><time>2026-04-04T10:58:13.012Z</time></trkpt><trkpt lat="44.2033873" lon="11.9828337"><ele>47.0</ele><time>2026-04-04T10:58:14.008Z</time></trkpt><trkpt lat="44.2033506" lon="11.982535"><ele>48.0</ele><time>2026-04-04T10:58:15.007Z</time></trkpt><trkpt lat="44.2033103" lon="11.982237"><ele>49.0</ele><time>2026-04-04T10:58:16.005Z</time></trkpt><trkpt lat="44.2032677" lon="11.981941"><ele>49.0</ele><time>2026-04-04T10:58:17.007Z</time></trkpt><trkpt lat="44.2032229" lon="11.981645"><ele>49.0</ele><time>2026-04-04T10:58:18.007Z</time></trkpt><trkpt lat="44.2031778" lon="11.9813423"><ele>49.0</ele><time>2026-04-04T10:58:19.007Z</time></trkpt><trkpt lat="44.2031361" lon="11.9810412"><ele>49.0</ele><time>2026-04-04T10:58:20.006Z</time></trkpt><trkpt lat="44.2030983" lon="11.9807414"><ele>49.0</ele><time>2026-04-04T10:58:21.006Z</time></trkpt><trkpt lat="44.2030632" lon="11.9804451"><ele>49.0</ele><time>2026-04-04T10:58:22.007Z</time></trkpt><trkpt lat="44.2030318" lon="11.980157"><ele>49.33333333333333</ele><time>2026-04-04T10:58:23.008Z</time></trkpt><trkpt lat="44.2029997" lon="11.9798855"><ele>49.66666666666667</ele><time>2026-04-04T10:58:24.007Z</time></trkpt><trkpt lat="44.2029696" lon="11.9796287"><ele>50.0</ele><time>2026-04-04T10:58:25.007Z</time></trkpt><trkpt lat="44.2029475" lon="11.9794127"><ele>50.333333333333336</ele><time>2026-04-04T10:58:26.006Z</time></trkpt><trkpt lat="44.2029211" lon="11.9791762"><ele>50.66666666666667</ele><time>2026-04-04T10:58:27.006Z</time></trkpt><trkpt lat="44.2029024" lon="11.9789665"><ele>51.0</ele><time>2026-04-04T10:58:28.008Z</time></trkpt><trkpt lat="44.20288" lon="11.9787824"><ele>51.0</ele><time>2026-04-04T10:58:29.006Z</time></trkpt><trkpt lat="44.2028466" lon="11.9786167"><ele>51.0</ele><time>2026-04-04T10:58:30.007Z</time></trkpt><trkpt lat="44.2028044" lon="11.9784568"><ele>51.0</ele><time>2026-04-04T10:58:31.008Z</time></trkpt><trkpt lat="44.2027508" lon="11.9783074"><ele>51.0</ele><time>2026-04-04T10:58:32.005Z</time></trkpt><trkpt lat="44.2026871" lon="11.9781593"><ele>51.0</ele><time>2026-04-04T10:58:33.005Z</time></trkpt><trkpt lat="44.2026083" lon="11.9780189"><ele>51.0</ele><time>2026-04-04T10:58:34.005Z</time></trkpt><trkpt lat="44.2025334" lon="11.9778748"><ele>51.0</ele><time>2026-04-04T10:58:35.005Z</time></trkpt><trkpt lat="44.2024512" lon="11.9777361"><ele>51.0</ele><time>2026-04-04T10:58:36.01Z</time></trkpt><trkpt lat="44.2023695" lon="11.9775962"><ele>50.0</ele><time>2026-04-04T10:58:37.007Z</time></trkpt><trkpt lat="44.2022857" lon="11.9774588"><ele>49.0</ele><time>2026-04-04T10:58:38.009Z</time></trkpt><trkpt lat="44.2021937" lon="11.9773321"><ele>48.0</ele><time>2026-04-04T10:58:39.008Z</time></trkpt><trkpt lat="44.2020958" lon="11.9772142"><ele>47.0</ele><time>2026-04-04T10:58:40.006Z</time></trkpt><trkpt lat="44.2019912" lon="11.9771035"><ele>47.0</ele><time>2026-04-04T10:58:41.005Z</time></trkpt><trkpt lat="44.2018838" lon="11.9769934"><ele>47.0</ele><time>2026-04-04T10:58:42.005Z</time></trkpt><trkpt lat="44.201769" lon="11.9768727"><ele>47.0</ele><time>2026-04-04T10:58:43.009Z</time></trkpt><trkpt lat="44.2016429" lon="11.9767405"><ele>47.0</ele><time>2026-04-04T10:58:44.006Z</time></trkpt><trkpt lat="44.2015018" lon="11.9766034"><ele>46.666666666666664</ele><time>2026-04-04T10:58:45.01Z</time></trkpt><trkpt lat="44.2013456" lon="11.9764594"><ele>46.333333333333336</ele><time>2026-04-04T10:58:46.006Z</time></trkpt><trkpt lat="44.2011753" lon="11.9763053"><ele>46.0</ele><time>2026-04-04T10:58:47.007Z</time></trkpt><trkpt lat="44.200996" lon="11.9761467"><ele>46.0</ele><time>2026-04-04T10:58:48.006Z</time></trkpt><trkpt lat="44.2008134" lon="11.9759822"><ele>46.0</ele><time>2026-04-04T10:58:49.007Z</time></trkpt><trkpt lat="44.2006306" lon="11.9758081"><ele>46.0</ele><time>2026-04-04T10:58:50.007Z</time></trkpt><trkpt lat="44.2004454" lon="11.9756365"><ele>46.333333333333336</ele><time>2026-04-04T10:58:51.007Z</time></trkpt><trkpt lat="44.2002623" lon="11.9754587"><ele>46.666666666666664</ele><time>2026-04-04T10:58:52.006Z</time></trkpt><trkpt lat="44.2000823" lon="11.975288"><ele>47.0</ele><time>2026-04-04T10:58:53.007Z</time></trkpt><trkpt lat="44.1999172" lon="11.9751203"><ele>47.33333333333333</ele><time>2026-04-04T10:58:54.006Z</time></trkpt><trkpt lat="44.1997676" lon="11.9749476"><ele>47.666666666666664</ele><time>2026-04-04T10:58:55.006Z</time></trkpt><trkpt lat="44.1996328" lon="11.9747628"><ele>48.0</ele><time>2026-04-04T10:58:56.008Z</time></trkpt><trkpt lat="44.1995017" lon="11.9745625"><ele>48.0</ele><time>2026-04-04T10:58:57.009Z</time></trkpt><trkpt lat="44.1993713" lon="11.9743541"><ele>48.0</ele><time>2026-04-04T10:58:58.006Z</time></trkpt><trkpt lat="44.1992341" lon="11.9741483"><ele>48.0</ele><time>2026-04-04T10:58:59.007Z</time></trkpt><trkpt lat="44.1990992" lon="11.9739421"><ele>47.666666666666664</ele><time>2026-04-04T10:59:00.009Z</time></trkpt><trkpt lat="44.1989673" lon="11.9737389"><ele>47.33333333333333</ele><time>2026-04-04T10:59:01.006Z</time></trkpt><trkpt lat="44.1988392" lon="11.9735343"><ele>47.0</ele><time>2026-04-04T10:59:02.006Z</time></trkpt><trkpt lat="44.1987128" lon="11.9733303"><ele>47.666666666666664</ele><time>2026-04-04T10:59:03.01Z</time></trkpt><trkpt lat="44.1985853" lon="11.9731325"><ele>48.33333333333333</ele><time>2026-04-04T10:59:04.005Z</time></trkpt><trkpt lat="44.1984528" lon="11.9729413"><ele>49.0</ele><time>2026-04-04T10:59:05.008Z</time></trkpt><trkpt lat="44.1983219" lon="11.9727591"><ele>49.0</ele><time>2026-04-04T10:59:06.006Z</time></trkpt><trkpt lat="44.1981941" lon="11.9725916"><ele>49.0</ele><time>2026-04-04T10:59:07.008Z</time></trkpt><trkpt lat="44.1980706" lon="11.9724435"><ele>49.0</ele><time>2026-04-04T10:59:08.007Z</time></trkpt><trkpt lat="44.197951" lon="11.9723096"><ele>49.0</ele><time>2026-04-04T10:59:09.006Z</time></trkpt><trkpt lat="44.1978339" lon="11.9721797"><ele>49.0</ele><time>2026-04-04T10:59:10.008Z</time></trkpt><trkpt lat="44.1977085" lon="11.9720611"><ele>49.0</ele><time>2026-04-04T10:59:11.006Z</time></trkpt><trkpt lat="44.1975747" lon="11.9719379"><ele>49.0</ele><time>2026-04-04T10:59:12.008Z</time></trkpt><trkpt lat="44.1974329" lon="11.9718127"><ele>49.0</ele><time>2026-04-04T10:59:13.007Z</time></trkpt><trkpt lat="44.1972817" lon="11.9716909"><ele>49.0</ele><time>2026-04-04T10:59:14.01Z</time></trkpt><trkpt lat="44.1971243" lon="11.9715696"><ele>49.33333333333333</ele><time>2026-04-04T10:59:15.007Z</time></trkpt><trkpt lat="44.1969537" lon="11.9714453"><ele>49.66666666666667</ele><time>2026-04-04T10:59:16.005Z</time></trkpt><trkpt lat="44.1967785" lon="11.9713204"><ele>50.0</ele><time>2026-04-04T10:59:17.007Z</time></trkpt><trkpt lat="44.1966045" lon="11.9711906"><ele>50.0</ele><time>2026-04-04T10:59:18.007Z</time></trkpt><trkpt lat="44.1964285" lon="11.9710543"><ele>50.0</ele><time>2026-04-04T10:59:19.011Z</time></trkpt><trkpt lat="44.1962507" lon="11.9709132"><ele>50.0</ele><time>2026-04-04T10:59:20.008Z</time></trkpt><trkpt lat="44.1960709" lon="11.9707736"><ele>50.0</ele><time>2026-04-04T10:59:21.007Z</time></trkpt><trkpt lat="44.1958874" lon="11.9706372"><ele>50.0</ele><time>2026-04-04T10:59:22.007Z</time></trkpt><trkpt lat="44.1957024" lon="11.9704989"><ele>50.0</ele><time>2026-04-04T10:59:23.006Z</time></trkpt><trkpt lat="44.1955143" lon="11.9703632"><ele>49.0</ele><time>2026-04-04T10:59:24.007Z</time></trkpt><trkpt lat="44.1953244" lon="11.970225"><ele>48.0</ele><time>2026-04-04T10:59:25.007Z</time></trkpt><trkpt lat="44.1951331" lon="11.9700818"><ele>47.0</ele><time>2026-04-04T10:59:26.009Z</time></trkpt><trkpt lat="44.1949397" lon="11.9699423"><ele>47.0</ele><time>2026-04-04T10:59:27.007Z</time></trkpt><trkpt lat="44.1947455" lon="11.9698011"><ele>47.0</ele><time>2026-04-04T10:59:28.005Z</time></trkpt><trkpt lat="44.1945473" lon="11.9696639"><ele>47.0</ele><time>2026-04-04T10:59:29.006Z</time></trkpt><trkpt lat="44.1943481" lon="11.9695262"><ele>47.0</ele><time>2026-04-04T10:59:30.008Z</time></trkpt><trkpt lat="44.1941488" lon="11.9693835"><ele>47.0</ele><time>2026-04-04T10:59:31.009Z</time></trkpt><trkpt lat="44.1939494" lon="11.9692375"><ele>47.0</ele><time>2026-04-04T10:59:32.009Z</time></trkpt><trkpt lat="44.1937507" lon="11.969094"><ele>47.5</ele><time>2026-04-04T10:59:33.008Z</time></trkpt><trkpt lat="44.19355" lon="11.9689508"><ele>48.0</ele><time>2026-04-04T10:59:34.006Z</time></trkpt><trkpt lat="44.1933478" lon="11.9688064"><ele>48.0</ele><time>2026-04-04T10:59:35.008Z</time></trkpt><trkpt lat="44.1931455" lon="11.968658"><ele>48.0</ele><time>2026-04-04T10:59:36.009Z</time></trkpt><trkpt lat="44.1929415" lon="11.9685096"><ele>48.0</ele><time>2026-04-04T10:59:37.01Z</time></trkpt><trkpt lat="44.1927378" lon="11.9683631"><ele>48.0</ele><time>2026-04-04T10:59:38.006Z</time></trkpt><trkpt lat="44.1925348" lon="11.9682137"><ele>49.0</ele><time>2026-04-04T10:59:39.009Z</time></trkpt><trkpt lat="44.1923327" lon="11.9680613"><ele>50.0</ele><time>2026-04-04T10:59:40.007Z</time></trkpt><trkpt lat="44.1921275" lon="11.9679093"><ele>50.0</ele><time>2026-04-04T10:59:41.012Z</time></trkpt><trkpt lat="44.1919212" lon="11.967759"><ele>50.0</ele><time>2026-04-04T10:59:42.005Z</time></trkpt><trkpt lat="44.1917158" lon="11.9676097"><ele>50.0</ele><time>2026-04-04T10:59:43.009Z</time></trkpt><trkpt lat="44.1915089" lon="11.9674663"><ele>50.0</ele><time>2026-04-04T10:59:44.006Z</time></trkpt><trkpt lat="44.191302" lon="11.967327"><ele>50.0</ele><time>2026-04-04T10:59:45.007Z</time></trkpt><trkpt lat="44.1910939" lon="11.9671918"><ele>50.0</ele><time>2026-04-04T10:59:46.01Z</time></trkpt><trkpt lat="44.1908855" lon="11.9670627"><ele>49.0</ele><time>2026-04-04T10:59:47.006Z</time></trkpt><trkpt lat="44.1906723" lon="11.9669513"><ele>48.0</ele><time>2026-04-04T10:59:48.007Z</time></trkpt><trkpt lat="44.1904556" lon="11.9668562"><ele>48.0</ele><time>2026-04-04T10:59:49.005Z</time></trkpt><trkpt lat="44.1902354" lon="11.9667785"><ele>48.0</ele><time>2026-04-04T10:59:50.005Z</time></trkpt><trkpt lat="44.190011" lon="11.9667218"><ele>50.0</ele><time>2026-04-04T10:59:51.008Z</time></trkpt><trkpt lat="44.189786" lon="11.9666742"><ele>52.0</ele><time>2026-04-04T10:59:52.005Z</time></trkpt><trkpt lat="44.1895568" lon="11.966649"><ele>52.0</ele><time>2026-04-04T10:59:53.007Z</time></trkpt><trkpt lat="44.1893285" lon="11.9666361"><ele>52.0</ele><time>2026-04-04T10:59:54.006Z</time></trkpt><trkpt lat="44.189102" lon="11.9666398"><ele>51.0</ele><time>2026-04-04T10:59:55.007Z</time></trkpt><trkpt lat="44.1888747" lon="11.9666484"><ele>50.0</ele><time>2026-04-04T10:59:56.005Z</time></trkpt><trkpt lat="44.1886481" lon="11.9666549"><ele>50.0</ele><time>2026-04-04T10:59:57.007Z</time></trkpt><trkpt lat="44.1884225" lon="11.9666553"><ele>50.0</ele><time>2026-04-04T10:59:58.007Z</time></trkpt><trkpt lat="44.1881991" lon="11.9666541"><ele>50.0</ele><time>2026-04-04T10:59:59.005Z</time></trkpt><trkpt lat="44.1879716" lon="11.9666539"><ele>51.0</ele><time>2026-04-04T11:00:00.007Z</time></trkpt><trkpt lat="44.1877446" lon="11.9666497"><ele>52.0</ele><time>2026-04-04T11:00:01.005Z</time></trkpt><trkpt lat="44.1875176" lon="11.9666472"><ele>51.5</ele><time>2026-04-04T11:00:02.006Z</time></trkpt><trkpt lat="44.1872923" lon="11.9666458"><ele>51.0</ele><time>2026-04-04T11:00:03.005Z</time></trkpt><trkpt lat="44.1870669" lon="11.9666476"><ele>51.0</ele><time>2026-04-04T11:00:04.006Z</time></trkpt><trkpt lat="44.1868382" lon="11.9666465"><ele>51.0</ele><time>2026-04-04T11:00:05.007Z</time></trkpt><trkpt lat="44.1866117" lon="11.9666559"><ele>51.33333333333333</ele><time>2026-04-04T11:00:06.006Z</time></trkpt><trkpt lat="44.1863873" lon="11.966661"><ele>51.666666666666664</ele><time>2026-04-04T11:00:07.01Z</time></trkpt><trkpt lat="44.1861645" lon="11.9666652"><ele>52.0</ele><time>2026-04-04T11:00:08.005Z</time></trkpt><trkpt lat="44.1859414" lon="11.9666698"><ele>52.0</ele><time>2026-04-04T11:00:09.006Z</time></trkpt><trkpt lat="44.1857193" lon="11.9666681"><ele>52.0</ele><time>2026-04-04T11:00:10.008Z</time></trkpt><trkpt lat="44.1854975" lon="11.9666723"><ele>52.0</ele><time>2026-04-04T11:00:11.007Z</time></trkpt><trkpt lat="44.185277" lon="11.9666721"><ele>52.33333333333333</ele><time>2026-04-04T11:00:12.008Z</time></trkpt><trkpt lat="44.1850586" lon="11.9666703"><ele>52.66666666666667</ele><time>2026-04-04T11:00:13.008Z</time></trkpt><trkpt lat="44.1848412" lon="11.9666867"><ele>53.0</ele><time>2026-04-04T11:00:14.007Z</time></trkpt><trkpt lat="44.1846209" lon="11.9667098"><ele>54.66666666666667</ele><time>2026-04-04T11:00:15.006Z</time></trkpt><trkpt lat="44.1844017" lon="11.966737"><ele>56.33333333333333</ele><time>2026-04-04T11:00:16.007Z</time></trkpt><trkpt lat="44.1841837" lon="11.9667679"><ele>58.0</ele><time>2026-04-04T11:00:17.007Z</time></trkpt><trkpt lat="44.1839674" lon="11.9668151"><ele>59.666666666666664</ele><time>2026-04-04T11:00:18.006Z</time></trkpt><trkpt lat="44.1837557" lon="11.9668834"><ele>61.33333333333333</ele><time>2026-04-04T11:00:19.007Z</time></trkpt><trkpt lat="44.1835488" lon="11.9669814"><ele>63.0</ele><time>2026-04-04T11:00:20.006Z</time></trkpt><trkpt lat="44.1833438" lon="11.9670652"><ele>63.66666666666667</ele><time>2026-04-04T11:00:21.005Z</time></trkpt><trkpt lat="44.1831372" lon="11.9671456"><ele>64.33333333333334</ele><time>2026-04-04T11:00:22.006Z</time></trkpt><trkpt lat="44.1829353" lon="11.967226"><ele>65.0</ele><time>2026-04-04T11:00:23.006Z</time></trkpt><trkpt lat="44.182735" lon="11.9673025"><ele>65.0</ele><time>2026-04-04T11:00:24.008Z</time></trkpt><trkpt lat="44.1825364" lon="11.9673779"><ele>65.0</ele><time>2026-04-04T11:00:25.007Z</time></trkpt><trkpt lat="44.1823335" lon="11.9674528"><ele>65.0</ele><time>2026-04-04T11:00:26.006Z</time></trkpt><trkpt lat="44.1821286" lon="11.9675292"><ele>65.66666666666667</ele><time>2026-04-04T11:00:27.006Z</time></trkpt><trkpt lat="44.1819234" lon="11.9676033"><ele>66.33333333333333</ele><time>2026-04-04T11:00:28.007Z</time></trkpt><trkpt lat="44.1817145" lon="11.9676759"><ele>67.0</ele><time>2026-04-04T11:00:29.008Z</time></trkpt><trkpt lat="44.1815044" lon="11.9677597"><ele>67.66666666666666</ele><time>2026-04-04T11:00:30.009Z</time></trkpt><trkpt lat="44.1812954" lon="11.9678456"><ele>68.33333333333333</ele><time>2026-04-04T11:00:31.008Z</time></trkpt><trkpt lat="44.1810848" lon="11.9679207"><ele>69.0</ele><time>2026-04-04T11:00:32.006Z</time></trkpt><trkpt lat="44.1808721" lon="11.967998"><ele>69.33333333333333</ele><time>2026-04-04T11:00:33.007Z</time></trkpt><trkpt lat="44.1806609" lon="11.9680684"><ele>69.66666666666666</ele><time>2026-04-04T11:00:34.007Z</time></trkpt><trkpt lat="44.1804478" lon="11.9681355"><ele>70.0</ele><time>2026-04-04T11:00:35.009Z</time></trkpt><trkpt lat="44.1802349" lon="11.9681845"><ele>70.0</ele><time>2026-04-04T11:00:36.007Z</time></trkpt><trkpt lat="44.1800205" lon="11.9682088"><ele>70.0</ele><time>2026-04-04T11:00:37.007Z</time></trkpt><trkpt lat="44.1798037" lon="11.968218"><ele>70.0</ele><time>2026-04-04T11:00:38.006Z</time></trkpt><trkpt lat="44.1795857" lon="11.9682101"><ele>70.66666666666666</ele><time>2026-04-04T11:00:39.005Z</time></trkpt><trkpt lat="44.1793664" lon="11.9681857"><ele>71.33333333333333</ele><time>2026-04-04T11:00:40.007Z</time></trkpt><trkpt lat="44.1791495" lon="11.9681413"><ele>72.0</ele><time>2026-04-04T11:00:41.004Z</time></trkpt><trkpt lat="44.1789378" lon="11.9680736"><ele>74.33333333333333</ele><time>2026-04-04T11:00:42.008Z</time></trkpt><trkpt lat="44.1787297" lon="11.9679915"><ele>76.66666666666666</ele><time>2026-04-04T11:00:43.007Z</time></trkpt><trkpt lat="44.1785245" lon="11.9678977"><ele>79.0</ele><time>2026-04-04T11:00:44.006Z</time></trkpt><trkpt lat="44.178324" lon="11.9677831"><ele>78.66666666666666</ele><time>2026-04-04T11:00:45.006Z</time></trkpt><trkpt lat="44.1781287" lon="11.967649"><ele>78.33333333333333</ele><time>2026-04-04T11:00:46.006Z</time></trkpt><trkpt lat="44.1779411" lon="11.9675021"><ele>78.0</ele><time>2026-04-04T11:00:47.008Z</time></trkpt><trkpt lat="44.1777593" lon="11.9673448"><ele>78.0</ele><time>2026-04-04T11:00:48.006Z</time></trkpt><trkpt lat="44.1775762" lon="11.9671815"><ele>78.0</ele><time>2026-04-04T11:00:49.007Z</time></trkpt><trkpt lat="44.1773935" lon="11.9670162"><ele>78.0</ele><time>2026-04-04T11:00:50.005Z</time></trkpt><trkpt lat="44.1772127" lon="11.9668496"><ele>79.0</ele><time>2026-04-04T11:00:51.008Z</time></trkpt><trkpt lat="44.177036" lon="11.9666816"><ele>80.0</ele><time>2026-04-04T11:00:52.006Z</time></trkpt><trkpt lat="44.1768572" lon="11.966517"><ele>81.0</ele><time>2026-04-04T11:00:53.008Z</time></trkpt><trkpt lat="44.1766822" lon="11.9663505"><ele>85.0</ele><time>2026-04-04T11:00:54.006Z</time></trkpt><trkpt lat="44.1765073" lon="11.9661901"><ele>89.0</ele><time>2026-04-04T11:00:55.007Z</time></trkpt><trkpt lat="44.1763333" lon="11.9660286"><ele>93.0</ele><time>2026-04-04T11:00:56.006Z</time></trkpt><trkpt lat="44.1761554" lon="11.9658654"><ele>93.66666666666667</ele><time>2026-04-04T11:00:57.006Z</time></trkpt><trkpt lat="44.175977" lon="11.9656972"><ele>94.33333333333334</ele><time>2026-04-04T11:00:58.009Z</time></trkpt><trkpt lat="44.1758" lon="11.9655295"><ele>95.0</ele><time>2026-04-04T11:00:59.006Z</time></trkpt><trkpt lat="44.1756194" lon="11.9653634"><ele>95.0</ele><time>2026-04-04T11:01:00.006Z</time></trkpt><trkpt lat="44.1754397" lon="11.9652031"><ele>95.0</ele><time>2026-04-04T11:01:01.007Z</time></trkpt><trkpt lat="44.1752567" lon="11.9650471"><ele>95.0</ele><time>2026-04-04T11:01:02.006Z</time></trkpt><trkpt lat="44.1750744" lon="11.9648873"><ele>94.66666666666667</ele><time>2026-04-04T11:01:03.01Z</time></trkpt><trkpt lat="44.1748932" lon="11.9647232"><ele>94.33333333333333</ele><time>2026-04-04T11:01:04.007Z</time></trkpt><trkpt lat="44.1747142" lon="11.9645513"><ele>94.0</ele><time>2026-04-04T11:01:05.006Z</time></trkpt><trkpt lat="44.1745383" lon="11.9643686"><ele>91.33333333333333</ele><time>2026-04-04T11:01:06.005Z</time></trkpt><trkpt lat="44.174366" lon="11.9641759"><ele>88.66666666666667</ele><time>2026-04-04T11:01:07.009Z</time></trkpt><trkpt lat="44.1741939" lon="11.9639817"><ele>86.0</ele><time>2026-04-04T11:01:08.007Z</time></trkpt><trkpt lat="44.1740223" lon="11.9637868"><ele>87.0</ele><time>2026-04-04T11:01:09.008Z</time></trkpt><trkpt lat="44.1738569" lon="11.9635902"><ele>88.0</ele><time>2026-04-04T11:01:10.006Z</time></trkpt><trkpt lat="44.1736962" lon="11.9633954"><ele>89.0</ele><time>2026-04-04T11:01:11.006Z</time></trkpt><trkpt lat="44.1735383" lon="11.9631987"><ele>89.0</ele><time>2026-04-04T11:01:12.007Z</time></trkpt><trkpt lat="44.1733836" lon="11.9629961"><ele>89.0</ele><time>2026-04-04T11:01:13.009Z</time></trkpt><trkpt lat="44.1732333" lon="11.9627873"><ele>89.0</ele><time>2026-04-04T11:01:14.006Z</time></trkpt><trkpt lat="44.1730858" lon="11.9625775"><ele>89.0</ele><time>2026-04-04T11:01:15.007Z</time></trkpt><trkpt lat="44.1729389" lon="11.9623729"><ele>89.0</ele><time>2026-04-04T11:01:16.007Z</time></trkpt><trkpt lat="44.1727909" lon="11.9621615"><ele>89.0</ele><time>2026-04-04T11:01:17.005Z</time></trkpt><trkpt lat="44.1726353" lon="11.9619384"><ele>89.0</ele><time>2026-04-04T11:01:18.007Z</time></trkpt><trkpt lat="44.1724659" lon="11.9617022"><ele>89.0</ele><time>2026-04-04T11:01:19.005Z</time></trkpt><trkpt lat="44.1722882" lon="11.9614658"><ele>89.0</ele><time>2026-04-04T11:01:20.007Z</time></trkpt><trkpt lat="44.1721121" lon="11.9612316"><ele>89.0</ele><time>2026-04-04T11:01:21.007Z</time></trkpt><trkpt lat="44.1719397" lon="11.9609977"><ele>88.0</ele><time>2026-04-04T11:01:22.005Z</time></trkpt><trkpt lat="44.1717636" lon="11.960768"><ele>87.0</ele><time>2026-04-04T11:01:23.005Z</time></trkpt><trkpt lat="44.1715886" lon="11.9605379"><ele>92.0</ele><time>2026-04-04T11:01:24.007Z</time></trkpt><trkpt lat="44.171413" lon="11.9603091"><ele>97.0</ele><time>2026-04-04T11:01:25.006Z</time></trkpt><trkpt lat="44.1712366" lon="11.9600868"><ele>94.0</ele><time>2026-04-04T11:01:26.005Z</time></trkpt><trkpt lat="44.1710647" lon="11.9598677"><ele>91.0</ele><time>2026-04-04T11:01:27.007Z</time></trkpt><trkpt lat="44.1708976" lon="11.9596447"><ele>91.0</ele><time>2026-04-04T11:01:28.007Z</time></trkpt><trkpt lat="44.1707349" lon="11.9594192"><ele>91.0</ele><time>2026-04-04T11:01:29.008Z</time></trkpt><trkpt lat="44.1705752" lon="11.9591979"><ele>92.33333333333333</ele><time>2026-04-04T11:01:30.006Z</time></trkpt><trkpt lat="44.1704207" lon="11.9589893"><ele>93.66666666666667</ele><time>2026-04-04T11:01:31.008Z</time></trkpt><trkpt lat="44.1702765" lon="11.9587944"><ele>95.0</ele><time>2026-04-04T11:01:32.006Z</time></trkpt><trkpt lat="44.1701459" lon="11.9586155"><ele>95.0</ele><time>2026-04-04T11:01:33.006Z</time></trkpt><trkpt lat="44.1700284" lon="11.9584499"><ele>95.0</ele><time>2026-04-04T11:01:34.007Z</time></trkpt><trkpt lat="44.1699194" lon="11.9582975"><ele>95.0</ele><time>2026-04-04T11:01:35.008Z</time></trkpt><trkpt lat="44.1698264" lon="11.9581604"><ele>95.66666666666667</ele><time>2026-04-04T11:01:36.007Z</time></trkpt><trkpt lat="44.1697498" lon="11.9580404"><ele>96.33333333333334</ele><time>2026-04-04T11:01:37.006Z</time></trkpt><trkpt lat="44.1696802" lon="11.9579464"><ele>97.0</ele><time>2026-04-04T11:01:38.007Z</time></trkpt><trkpt lat="44.1696091" lon="11.9579143"><ele>97.66666666666667</ele><time>2026-04-04T11:01:39.007Z</time></trkpt><trkpt lat="44.1695387" lon="11.9579006"><ele>98.33333333333333</ele><time>2026-04-04T11:01:40.007Z</time></trkpt><trkpt lat="44.1694699" lon="11.9579075"><ele>99.0</ele><time>2026-04-04T11:01:41.007Z</time></trkpt><trkpt lat="44.1694016" lon="11.9579379"><ele>99.0</ele><time>2026-04-04T11:01:42.007Z</time></trkpt><trkpt lat="44.1693244" lon="11.9580158"><ele>99.0</ele><time>2026-04-04T11:01:43.008Z</time></trkpt><trkpt lat="44.169234" lon="11.9581045"><ele>99.0</ele><time>2026-04-04T11:01:44.006Z</time></trkpt><trkpt lat="44.1691176" lon="11.9581915"><ele>99.0</ele><time>2026-04-04T11:01:45.006Z</time></trkpt><trkpt lat="44.1689888" lon="11.9582761"><ele>101.6</ele><time>2026-04-04T11:01:46.006Z</time></trkpt><trkpt lat="44.168864" lon="11.9583586"><ele>104.2</ele><time>2026-04-04T11:01:47.007Z</time></trkpt><trkpt lat="44.1687556" lon="11.9584249"><ele>106.79999999999998</ele><time>2026-04-04T11:01:48.006Z</time></trkpt><trkpt lat="44.1686712" lon="11.9584925"><ele>109.39999999999999</ele><time>2026-04-04T11:01:49.005Z</time></trkpt><trkpt lat="44.1686035" lon="11.9585688"><ele>112.0</ele><time>2026-04-04T11:01:50.006Z</time></trkpt><trkpt lat="44.1685548" lon="11.9586627"><ele>112.19999999999999</ele><time>2026-04-04T11:01:51.009Z</time></trkpt><trkpt lat="44.1685224" lon="11.9587587"><ele>112.39999999999999</ele><time>2026-04-04T11:01:52.011Z</time></trkpt><trkpt lat="44.1685769" lon="11.9588569"><ele>112.60000000000001</ele><time>2026-04-04T11:01:53.006Z</time></trkpt><trkpt lat="44.1686434" lon="11.9589698"><ele>112.80000000000001</ele><time>2026-04-04T11:01:54.006Z</time></trkpt><trkpt lat="44.1687499" lon="11.9591116"><ele>113.0</ele><time>2026-04-04T11:01:55.007Z</time></trkpt><trkpt lat="44.1688748" lon="11.9592809"><ele>113.75</ele><time>2026-04-04T11:01:56.006Z</time></trkpt><trkpt lat="44.168984" lon="11.9594426"><ele>114.5</ele><time>2026-04-04T11:01:57.009Z</time></trkpt><trkpt lat="44.1690709" lon="11.9595859"><ele>115.25</ele><time>2026-04-04T11:01:58.005Z</time></trkpt><trkpt lat="44.1691193" lon="11.959709"><ele>116.0</ele><time>2026-04-04T11:01:59.007Z</time></trkpt><trkpt lat="44.1691429" lon="11.9598133"><ele>116.0</ele><time>2026-04-04T11:02:00.009Z</time></trkpt><trkpt lat="44.1691517" lon="11.9599054"><ele>116.0</ele><time>2026-04-04T11:02:01.009Z</time></trkpt><trkpt lat="44.1690801" lon="11.9600202"><ele>116.0</ele><time>2026-04-04T11:02:03.006Z</time></trkpt><trkpt lat="44.1688611" lon="11.9599321"><ele>116.0</ele><time>2026-04-04T11:02:05.007Z</time></trkpt><trkpt lat="44.1687202" lon="11.9598371"><ele>117.4</ele><time>2026-04-04T11:02:06.005Z</time></trkpt><trkpt lat="44.1686031" lon="11.9597817"><ele>118.8</ele><time>2026-04-04T11:02:07.006Z</time></trkpt><trkpt lat="44.1684982" lon="11.9597609"><ele>120.20000000000002</ele><time>2026-04-04T11:02:08.005Z</time></trkpt><trkpt lat="44.1684192" lon="11.959773"><ele>121.60000000000001</ele><time>2026-04-04T11:02:09.006Z</time></trkpt><trkpt lat="44.1683551" lon="11.9598064"><ele>123.0</ele><time>2026-04-04T11:02:10.006Z</time></trkpt><trkpt lat="44.1683951" lon="11.959982"><ele>127.0</ele><time>2026-04-04T11:02:12.006Z</time></trkpt><trkpt lat="44.1684942" lon="11.9600866"><ele>131.0</ele><time>2026-04-04T11:02:13.006Z</time></trkpt><trkpt lat="44.1686057" lon="11.9601759"><ele>135.0</ele><time>2026-04-04T11:02:14.008Z</time></trkpt><trkpt lat="44.1687045" lon="11.9602618"><ele>139.0</ele><time>2026-04-04T11:02:15.007Z</time></trkpt><trkpt lat="44.1687783" lon="11.960351"><ele>139.0</ele><time>2026-04-04T11:02:16.005Z</time></trkpt><trkpt lat="44.1688201" lon="11.9604428"><ele>139.0</ele><time>2026-04-04T11:02:17.006Z</time></trkpt><trkpt lat="44.1687944" lon="11.9605739"><ele>139.0</ele><time>2026-04-04T11:02:19.008Z</time></trkpt><trkpt lat="44.1687205" lon="11.9605692"><ele>139.0</ele><time>2026-04-04T11:02:20.006Z</time></trkpt><trkpt lat="44.1686221" lon="11.9605034"><ele>139.0</ele><time>2026-04-04T11:02:21.005Z</time></trkpt><trkpt lat="44.1685123" lon="11.9603951"><ele>139.0</ele><time>2026-04-04T11:02:22.006Z</time></trkpt><trkpt lat="44.1684052" lon="11.9602903"><ele>139.0</ele><time>2026-04-04T11:02:23.006Z</time></trkpt><trkpt lat="44.1683106" lon="11.9602111"><ele>139.0</ele><time>2026-04-04T11:02:24.007Z</time></trkpt><trkpt lat="44.1682284" lon="11.9601734"><ele>139.0</ele><time>2026-04-04T11:02:25.006Z</time></trkpt><trkpt lat="44.1681558" lon="11.9601626"><ele>139.0</ele><time>2026-04-04T11:02:26.007Z</time></trkpt><trkpt lat="44.1681347" lon="11.9603176"><ele>139.0</ele><time>2026-04-04T11:02:28.006Z</time></trkpt><trkpt lat="44.1681567" lon="11.9604205"><ele>139.0</ele><time>2026-04-04T11:02:29.006Z</time></trkpt><trkpt lat="44.1681978" lon="11.96053"><ele>139.0</ele><time>2026-04-04T11:02:30.007Z</time></trkpt><trkpt lat="44.168273" lon="11.9606481"><ele>139.0</ele><time>2026-04-04T11:02:31.007Z</time></trkpt><trkpt lat="44.1684012" lon="11.9607604"><ele>139.0</ele><time>2026-04-04T11:02:32.006Z</time></trkpt><trkpt lat="44.1685165" lon="11.96086"><ele>141.6</ele><time>2026-04-04T11:02:33.007Z</time></trkpt><trkpt lat="44.1686079" lon="11.9609458"><ele>144.2</ele><time>2026-04-04T11:02:34.007Z</time></trkpt><trkpt lat="44.1686725" lon="11.9610286"><ele>146.79999999999998</ele><time>2026-04-04T11:02:35.006Z</time></trkpt><trkpt lat="44.1687111" lon="11.9611098"><ele>149.4</ele><time>2026-04-04T11:02:36.005Z</time></trkpt><trkpt lat="44.1686673" lon="11.9612389"><ele>152.0</ele><time>2026-04-04T11:02:38.009Z</time></trkpt><trkpt lat="44.1684997" lon="11.9611824"><ele>152.0</ele><time>2026-04-04T11:02:40.005Z</time></trkpt><trkpt lat="44.1683811" lon="11.9610563"><ele>152.0</ele><time>2026-04-04T11:02:41.006Z</time></trkpt><trkpt lat="44.1682754" lon="11.9609204"><ele>152.0</ele><time>2026-04-04T11:02:42.007Z</time></trkpt><trkpt lat="44.1681813" lon="11.9608144"><ele>152.0</ele><time>2026-04-04T11:02:43.006Z</time></trkpt><trkpt lat="44.1680931" lon="11.9607502"><ele>150.6</ele><time>2026-04-04T11:02:44.006Z</time></trkpt><trkpt lat="44.1680129" lon="11.9607243"><ele>149.2</ele><time>2026-04-04T11:02:45.007Z</time></trkpt><trkpt lat="44.167938" lon="11.9607249"><ele>147.8</ele><time>2026-04-04T11:02:46.007Z</time></trkpt><trkpt lat="44.1678834" lon="11.9608844"><ele>146.4</ele><time>2026-04-04T11:02:48.006Z</time></trkpt><trkpt lat="44.1679142" lon="11.9609951"><ele>145.0</ele><time>2026-04-04T11:02:49.006Z</time></trkpt><trkpt lat="44.16797" lon="11.9611168"><ele>147.33333333333334</ele><time>2026-04-04T11:02:50.009Z</time></trkpt><trkpt lat="44.1680563" lon="11.9612508"><ele>149.66666666666666</ele><time>2026-04-04T11:02:51.007Z</time></trkpt><trkpt lat="44.1681589" lon="11.9614034"><ele>152.0</ele><time>2026-04-04T11:02:52.006Z</time></trkpt><trkpt lat="44.1682754" lon="11.9615777"><ele>154.75</ele><time>2026-04-04T11:02:53.007Z</time></trkpt><trkpt lat="44.1683923" lon="11.961755"><ele>157.5</ele><time>2026-04-04T11:02:54.007Z</time></trkpt><trkpt lat="44.168489" lon="11.9619025"><ele>160.25</ele><time>2026-04-04T11:02:55.007Z</time></trkpt><trkpt lat="44.1685577" lon="11.9620213"><ele>163.0</ele><time>2026-04-04T11:02:56.006Z</time></trkpt><trkpt lat="44.1685898" lon="11.9621228"><ele>163.0</ele><time>2026-04-04T11:02:57.008Z</time></trkpt><trkpt lat="44.1685773" lon="11.9622592"><ele>163.0</ele><time>2026-04-04T11:02:59.007Z</time></trkpt><trkpt lat="44.1684228" lon="11.9622124"><ele>163.0</ele><time>2026-04-04T11:03:01.006Z</time></trkpt><trkpt lat="44.1683056" lon="11.9621106"><ele>163.0</ele><time>2026-04-04T11:03:02.007Z</time></trkpt><trkpt lat="44.1681893" lon="11.9619947"><ele>165.60000000000002</ele><time>2026-04-04T11:03:03.007Z</time></trkpt><trkpt lat="44.1680767" lon="11.9618926"><ele>168.20000000000002</ele><time>2026-04-04T11:03:04.006Z</time></trkpt><trkpt lat="44.1679796" lon="11.9618219"><ele>170.8</ele><time>2026-04-04T11:03:05.005Z</time></trkpt><trkpt lat="44.1679018" lon="11.9617903"><ele>173.4</ele><time>2026-04-04T11:03:06.007Z</time></trkpt><trkpt lat="44.1678284" lon="11.9617851"><ele>176.0</ele><time>2026-04-04T11:03:07.008Z</time></trkpt><trkpt lat="44.1677719" lon="11.9619186"><ele>176.0</ele><time>2026-04-04T11:03:09.006Z</time></trkpt><trkpt lat="44.1677763" lon="11.9620188"><ele>176.0</ele><time>2026-04-04T11:03:10.006Z</time></trkpt><trkpt lat="44.1678304" lon="11.9621391"><ele>176.0</ele><time>2026-04-04T11:03:11.006Z</time></trkpt><trkpt lat="44.1679063" lon="11.9622734"><ele>176.0</ele><time>2026-04-04T11:03:12.007Z</time></trkpt><trkpt lat="44.1679839" lon="11.9624124"><ele>176.0</ele><time>2026-04-04T11:03:13.008Z</time></trkpt><trkpt lat="44.1680454" lon="11.9625394"><ele>177.20000000000002</ele><time>2026-04-04T11:03:14.007Z</time></trkpt><trkpt lat="44.1680854" lon="11.9626497"><ele>178.4</ele><time>2026-04-04T11:03:15.007Z</time></trkpt><trkpt lat="44.1681058" lon="11.9627416"><ele>179.6</ele><time>2026-04-04T11:03:16.007Z</time></trkpt><trkpt lat="44.1680028" lon="11.9627932"><ele>180.8</ele><time>2026-04-04T11:03:18.009Z</time></trkpt><trkpt lat="44.1679204" lon="11.9627734"><ele>182.0</ele><time>2026-04-04T11:03:19.01Z</time></trkpt><trkpt lat="44.1678105" lon="11.9627103"><ele>182.0</ele><time>2026-04-04T11:03:20.005Z</time></trkpt><trkpt lat="44.1676729" lon="11.9626151"><ele>182.0</ele><time>2026-04-04T11:03:21.007Z</time></trkpt><trkpt lat="44.16754" lon="11.9625268"><ele>182.0</ele><time>2026-04-04T11:03:22.006Z</time></trkpt><trkpt lat="44.1674288" lon="11.9624617"><ele>182.0</ele><time>2026-04-04T11:03:23.007Z</time></trkpt><trkpt lat="44.1673421" lon="11.962438"><ele>182.0</ele><time>2026-04-04T11:03:24.008Z</time></trkpt><trkpt lat="44.1672746" lon="11.9624539"><ele>182.0</ele><time>2026-04-04T11:03:25.007Z</time></trkpt><trkpt lat="44.167238" lon="11.9626109"><ele>182.0</ele><time>2026-04-04T11:03:27.007Z</time></trkpt><trkpt lat="44.1672555" lon="11.9627204"><ele>182.0</ele><time>2026-04-04T11:03:28.006Z</time></trkpt><trkpt lat="44.1673021" lon="11.9628274"><ele>182.0</ele><time>2026-04-04T11:03:29.007Z</time></trkpt><trkpt lat="44.1673486" lon="11.9629199"><ele>182.0</ele><time>2026-04-04T11:03:30.006Z</time></trkpt><trkpt lat="44.1673726" lon="11.9630023"><ele>182.0</ele><time>2026-04-04T11:03:31.008Z</time></trkpt><trkpt lat="44.1673774" lon="11.9631186"><ele>182.0</ele><time>2026-04-04T11:03:33.007Z</time></trkpt><trkpt lat="44.1672327" lon="11.9630801"><ele>182.0</ele><time>2026-04-04T11:03:35.007Z</time></trkpt><trkpt lat="44.1671272" lon="11.9630268"><ele>182.0</ele><time>2026-04-04T11:03:36.005Z</time></trkpt><trkpt lat="44.1670199" lon="11.9629835"><ele>183.6</ele><time>2026-04-04T11:03:37.007Z</time></trkpt><trkpt lat="44.1669113" lon="11.9629521"><ele>185.2</ele><time>2026-04-04T11:03:38.008Z</time></trkpt><trkpt lat="44.1668029" lon="11.9629372"><ele>186.8</ele><time>2026-04-04T11:03:39.006Z</time></trkpt><trkpt lat="44.1667006" lon="11.962929"><ele>188.4</ele><time>2026-04-04T11:03:40.008Z</time></trkpt><trkpt lat="44.1666141" lon="11.9629413"><ele>190.0</ele><time>2026-04-04T11:03:41.009Z</time></trkpt><trkpt lat="44.1665379" lon="11.9629639"><ele>190.2</ele><time>2026-04-04T11:03:42.007Z</time></trkpt><trkpt lat="44.1664747" lon="11.9629956"><ele>190.4</ele><time>2026-04-04T11:03:43.009Z</time></trkpt><trkpt lat="44.1664768" lon="11.9631943"><ele>190.60000000000002</ele><time>2026-04-04T11:03:45.009Z</time></trkpt><trkpt lat="44.1665086" lon="11.9633283"><ele>190.8</ele><time>2026-04-04T11:03:46.008Z</time></trkpt><trkpt lat="44.1665556" lon="11.9634796"><ele>191.0</ele><time>2026-04-04T11:03:47.008Z</time></trkpt><trkpt lat="44.1666049" lon="11.9636385"><ele>191.0</ele><time>2026-04-04T11:03:48.007Z</time></trkpt><trkpt lat="44.1666519" lon="11.9638117"><ele>191.0</ele><time>2026-04-04T11:03:49.007Z</time></trkpt><trkpt lat="44.1666959" lon="11.9640009"><ele>191.0</ele><time>2026-04-04T11:03:50.009Z</time></trkpt><trkpt lat="44.1667281" lon="11.9642072"><ele>191.0</ele><time>2026-04-04T11:03:51.008Z</time></trkpt><trkpt lat="44.1667489" lon="11.9644343"><ele>192.33333333333331</ele><time>2026-04-04T11:03:52.008Z</time></trkpt><trkpt lat="44.1667647" lon="11.9646787"><ele>193.66666666666666</ele><time>2026-04-04T11:03:53.006Z</time></trkpt><trkpt lat="44.1667743" lon="11.9649362"><ele>195.0</ele><time>2026-04-04T11:03:54.009Z</time></trkpt><trkpt lat="44.1667827" lon="11.9651883"><ele>196.25</ele><time>2026-04-04T11:03:55.009Z</time></trkpt><trkpt lat="44.1667919" lon="11.9654154"><ele>197.5</ele><time>2026-04-04T11:03:56.008Z</time></trkpt><trkpt lat="44.1667981" lon="11.9656112"><ele>198.75</ele><time>2026-04-04T11:03:57.007Z</time></trkpt><trkpt lat="44.1667984" lon="11.9657807"><ele>200.0</ele><time>2026-04-04T11:03:58.008Z</time></trkpt><trkpt lat="44.1667866" lon="11.9659285"><ele>203.0</ele><time>2026-04-04T11:03:59.008Z</time></trkpt><trkpt lat="44.1667612" lon="11.9660734"><ele>206.0</ele><time>2026-04-04T11:04:00.007Z</time></trkpt><trkpt lat="44.1667231" lon="11.9662182"><ele>209.0</ele><time>2026-04-04T11:04:01.011Z</time></trkpt><trkpt lat="44.1666756" lon="11.9663616"><ele>212.0</ele><time>2026-04-04T11:04:02.008Z</time></trkpt><trkpt lat="44.1666244" lon="11.9665128"><ele>212.0</ele><time>2026-04-04T11:04:03.008Z</time></trkpt><trkpt lat="44.1665704" lon="11.9666704"><ele>212.0</ele><time>2026-04-04T11:04:04.008Z</time></trkpt><trkpt lat="44.1665101" lon="11.9668346"><ele>212.0</ele><time>2026-04-04T11:04:05.01Z</time></trkpt><trkpt lat="44.1664516" lon="11.9670063"><ele>212.0</ele><time>2026-04-04T11:04:06.008Z</time></trkpt><trkpt lat="44.166407" lon="11.9671916"><ele>213.33333333333334</ele><time>2026-04-04T11:04:07.007Z</time></trkpt><trkpt lat="44.1663721" lon="11.9673966"><ele>214.66666666666669</ele><time>2026-04-04T11:04:08.008Z</time></trkpt><trkpt lat="44.1663342" lon="11.967608"><ele>216.0</ele><time>2026-04-04T11:04:09.009Z</time></trkpt><trkpt lat="44.1662764" lon="11.9678122"><ele>216.0</ele><time>2026-04-04T11:04:10.011Z</time></trkpt><trkpt lat="44.1661999" lon="11.9679982"><ele>216.0</ele><time>2026-04-04T11:04:11.008Z</time></trkpt><trkpt lat="44.1661179" lon="11.9681629"><ele>216.0</ele><time>2026-04-04T11:04:12.007Z</time></trkpt><trkpt lat="44.1660403" lon="11.9683209"><ele>216.0</ele><time>2026-04-04T11:04:13.007Z</time></trkpt><trkpt lat="44.1659789" lon="11.9684895"><ele>216.66666666666669</ele><time>2026-04-04T11:04:14.01Z</time></trkpt><trkpt lat="44.1659309" lon="11.9686835"><ele>217.33333333333334</ele><time>2026-04-04T11:04:15.008Z</time></trkpt><trkpt lat="44.1658876" lon="11.9689018"><ele>218.0</ele><time>2026-04-04T11:04:16.007Z</time></trkpt><trkpt lat="44.1658462" lon="11.9691409"><ele>215.33333333333334</ele><time>2026-04-04T11:04:17.007Z</time></trkpt><trkpt lat="44.1658051" lon="11.9693892"><ele>212.66666666666669</ele><time>2026-04-04T11:04:18.007Z</time></trkpt><trkpt lat="44.1657652" lon="11.9696318"><ele>210.0</ele><time>2026-04-04T11:04:19.008Z</time></trkpt><trkpt lat="44.1657256" lon="11.969864"><ele>204.66666666666669</ele><time>2026-04-04T11:04:20.008Z</time></trkpt><trkpt lat="44.1656861" lon="11.9700917"><ele>199.33333333333334</ele><time>2026-04-04T11:04:21.009Z</time></trkpt><trkpt lat="44.1656522" lon="11.970317"><ele>194.0</ele><time>2026-04-04T11:04:22.009Z</time></trkpt><trkpt lat="44.1656307" lon="11.9705518"><ele>194.0</ele><time>2026-04-04T11:04:23.007Z</time></trkpt><trkpt lat="44.1656271" lon="11.9707815"><ele>194.0</ele><time>2026-04-04T11:04:24.008Z</time></trkpt><trkpt lat="44.1656468" lon="11.9710043"><ele>194.0</ele><time>2026-04-04T11:04:25.009Z</time></trkpt><trkpt lat="44.1656917" lon="11.9712295"><ele>195.66666666666669</ele><time>2026-04-04T11:04:26.008Z</time></trkpt><trkpt lat="44.1657587" lon="11.9714536"><ele>197.33333333333331</ele><time>2026-04-04T11:04:27.007Z</time></trkpt><trkpt lat="44.1658381" lon="11.9716855"><ele>199.0</ele><time>2026-04-04T11:04:28.007Z</time></trkpt><trkpt lat="44.1659246" lon="11.9719263"><ele>199.0</ele><time>2026-04-04T11:04:29.005Z</time></trkpt><trkpt lat="44.1660145" lon="11.9721738"><ele>199.0</ele><time>2026-04-04T11:04:30.008Z</time></trkpt><trkpt lat="44.1661044" lon="11.9724225"><ele>199.0</ele><time>2026-04-04T11:04:31.006Z</time></trkpt><trkpt lat="44.1661922" lon="11.972669"><ele>200.0</ele><time>2026-04-04T11:04:32.007Z</time></trkpt><trkpt lat="44.1662799" lon="11.9729067"><ele>201.0</ele><time>2026-04-04T11:04:33.007Z</time></trkpt><trkpt lat="44.1663587" lon="11.9731262"><ele>202.0</ele><time>2026-04-04T11:04:34.006Z</time></trkpt><trkpt lat="44.1664298" lon="11.9733325"><ele>205.0</ele><time>2026-04-04T11:04:35.006Z</time></trkpt><trkpt lat="44.1664929" lon="11.9735282"><ele>208.0</ele><time>2026-04-04T11:04:36.007Z</time></trkpt><trkpt lat="44.1665427" lon="11.9737192"><ele>211.0</ele><time>2026-04-04T11:04:37.006Z</time></trkpt><trkpt lat="44.166578" lon="11.9738974"><ele>214.0</ele><time>2026-04-04T11:04:38.006Z</time></trkpt><trkpt lat="44.1665993" lon="11.9740581"><ele>214.0</ele><time>2026-04-04T11:04:39.007Z</time></trkpt><trkpt lat="44.1666037" lon="11.9742001"><ele>213.99999999999997</ele><time>2026-04-04T11:04:40.006Z</time></trkpt><trkpt lat="44.1665764" lon="11.9743209"><ele>213.99999999999997</ele><time>2026-04-04T11:04:41.007Z</time></trkpt><trkpt lat="44.1665259" lon="11.9744255"><ele>214.0</ele><time>2026-04-04T11:04:42.007Z</time></trkpt><trkpt lat="44.1664459" lon="11.9745079"><ele>214.0</ele><time>2026-04-04T11:04:43.008Z</time></trkpt><trkpt lat="44.1663189" lon="11.9745726"><ele>215.0</ele><time>2026-04-04T11:04:44.009Z</time></trkpt><trkpt lat="44.1661803" lon="11.9746439"><ele>216.0</ele><time>2026-04-04T11:04:45.006Z</time></trkpt><trkpt lat="44.1660256" lon="11.974728"><ele>217.0</ele><time>2026-04-04T11:04:46.006Z</time></trkpt><trkpt lat="44.1658588" lon="11.9748094"><ele>217.0</ele><time>2026-04-04T11:04:47.007Z</time></trkpt><trkpt lat="44.1656967" lon="11.9748909"><ele>217.0</ele><time>2026-04-04T11:04:48.007Z</time></trkpt><trkpt lat="44.1655389" lon="11.9749612"><ele>217.0</ele><time>2026-04-04T11:04:49.008Z</time></trkpt><trkpt lat="44.1653871" lon="11.9750095"><ele>216.25</ele><time>2026-04-04T11:04:50.006Z</time></trkpt><trkpt lat="44.1652422" lon="11.975037"><ele>215.5</ele><time>2026-04-04T11:04:51.01Z</time></trkpt><trkpt lat="44.1651095" lon="11.9750436"><ele>214.75</ele><time>2026-04-04T11:04:52.009Z</time></trkpt><trkpt lat="44.1649864" lon="11.9750323"><ele>214.0</ele><time>2026-04-04T11:04:53.006Z</time></trkpt><trkpt lat="44.1648706" lon="11.9750121"><ele>213.0</ele><time>2026-04-04T11:04:54.009Z</time></trkpt><trkpt lat="44.164753" lon="11.9749914"><ele>212.0</ele><time>2026-04-04T11:04:55.008Z</time></trkpt><trkpt lat="44.164629" lon="11.9749741"><ele>211.0</ele><time>2026-04-04T11:04:56.007Z</time></trkpt><trkpt lat="44.1645069" lon="11.974961"><ele>210.0</ele><time>2026-04-04T11:04:57.008Z</time></trkpt><trkpt lat="44.1643884" lon="11.974953"><ele>210.0</ele><time>2026-04-04T11:04:58.007Z</time></trkpt><trkpt lat="44.1642757" lon="11.9749537"><ele>210.0</ele><time>2026-04-04T11:04:59.008Z</time></trkpt><trkpt lat="44.1641616" lon="11.9749681"><ele>210.0</ele><time>2026-04-04T11:05:00.007Z</time></trkpt><trkpt lat="44.1640454" lon="11.9750209"><ele>210.0</ele><time>2026-04-04T11:05:01.008Z</time></trkpt><trkpt lat="44.1639289" lon="11.9751015"><ele>206.66666666666669</ele><time>2026-04-04T11:05:02.007Z</time></trkpt><trkpt lat="44.163813" lon="11.9752291"><ele>203.33333333333334</ele><time>2026-04-04T11:05:03.007Z</time></trkpt><trkpt lat="44.1637052" lon="11.975405"><ele>200.0</ele><time>2026-04-04T11:05:04.006Z</time></trkpt><trkpt lat="44.1636088" lon="11.9756329"><ele>199.66666666666669</ele><time>2026-04-04T11:05:05.005Z</time></trkpt><trkpt lat="44.1635093" lon="11.9758822"><ele>199.33333333333331</ele><time>2026-04-04T11:05:06.008Z</time></trkpt><trkpt lat="44.1634195" lon="11.9761422"><ele>199.0</ele><time>2026-04-04T11:05:07.008Z</time></trkpt><trkpt lat="44.1633452" lon="11.9764291"><ele>197.5</ele><time>2026-04-04T11:05:08.007Z</time></trkpt><trkpt lat="44.1633014" lon="11.9767596"><ele>196.0</ele><time>2026-04-04T11:05:09.01Z</time></trkpt><trkpt lat="44.1632624" lon="11.9771104"><ele>196.0</ele><time>2026-04-04T11:05:10.006Z</time></trkpt><trkpt lat="44.1632267" lon="11.9774494"><ele>196.0</ele><time>2026-04-04T11:05:11.006Z</time></trkpt><trkpt lat="44.1631945" lon="11.9777651"><ele>192.0</ele><time>2026-04-04T11:05:12.007Z</time></trkpt><trkpt lat="44.1631656" lon="11.9780505"><ele>188.0</ele><time>2026-04-04T11:05:13.008Z</time></trkpt><trkpt lat="44.163136" lon="11.9783094"><ele>184.0</ele><time>2026-04-04T11:05:14.008Z</time></trkpt><trkpt lat="44.1631021" lon="11.9785458"><ele>182.66666666666669</ele><time>2026-04-04T11:05:15.007Z</time></trkpt><trkpt lat="44.1630651" lon="11.9787705"><ele>181.33333333333334</ele><time>2026-04-04T11:05:16.008Z</time></trkpt><trkpt lat="44.1630279" lon="11.9789922"><ele>180.0</ele><time>2026-04-04T11:05:17.007Z</time></trkpt><trkpt lat="44.1629958" lon="11.9792172"><ele>179.0</ele><time>2026-04-04T11:05:18.006Z</time></trkpt><trkpt lat="44.1629599" lon="11.9794462"><ele>178.0</ele><time>2026-04-04T11:05:19.006Z</time></trkpt><trkpt lat="44.1629199" lon="11.9796734"><ele>177.0</ele><time>2026-04-04T11:05:20.008Z</time></trkpt><trkpt lat="44.1628802" lon="11.9798945"><ele>174.33333333333334</ele><time>2026-04-04T11:05:21.007Z</time></trkpt><trkpt lat="44.1628508" lon="11.9801112"><ele>171.66666666666669</ele><time>2026-04-04T11:05:22.008Z</time></trkpt><trkpt lat="44.1628204" lon="11.9803226"><ele>169.0</ele><time>2026-04-04T11:05:23.007Z</time></trkpt><trkpt lat="44.1627872" lon="11.9805317"><ele>169.0</ele><time>2026-04-04T11:05:24.007Z</time></trkpt><trkpt lat="44.1627605" lon="11.9807396"><ele>169.0</ele><time>2026-04-04T11:05:25.007Z</time></trkpt><trkpt lat="44.1627379" lon="11.9809454"><ele>169.0</ele><time>2026-04-04T11:05:26.007Z</time></trkpt><trkpt lat="44.1627105" lon="11.9811472"><ele>169.0</ele><time>2026-04-04T11:05:27.007Z</time></trkpt><trkpt lat="44.1626864" lon="11.9813436"><ele>167.75</ele><time>2026-04-04T11:05:28.006Z</time></trkpt><trkpt lat="44.1626676" lon="11.9815368"><ele>166.5</ele><time>2026-04-04T11:05:29.006Z</time></trkpt><trkpt lat="44.1626491" lon="11.9817337"><ele>165.25</ele><time>2026-04-04T11:05:30.01Z</time></trkpt><trkpt lat="44.162628" lon="11.9819373"><ele>164.0</ele><time>2026-04-04T11:05:31.007Z</time></trkpt><trkpt lat="44.1626067" lon="11.9821478"><ele>163.0</ele><time>2026-04-04T11:05:32.008Z</time></trkpt><trkpt lat="44.1625862" lon="11.9823608"><ele>162.0</ele><time>2026-04-04T11:05:33.008Z</time></trkpt><trkpt lat="44.1625596" lon="11.9825757"><ele>161.0</ele><time>2026-04-04T11:05:34.007Z</time></trkpt><trkpt lat="44.1625415" lon="11.9827943"><ele>158.33333333333331</ele><time>2026-04-04T11:05:35.008Z</time></trkpt><trkpt lat="44.1625333" lon="11.9830146"><ele>155.66666666666666</ele><time>2026-04-04T11:05:36.008Z</time></trkpt><trkpt lat="44.1625262" lon="11.9832424"><ele>153.0</ele><time>2026-04-04T11:05:37.007Z</time></trkpt><trkpt lat="44.1625253" lon="11.9834753"><ele>151.0</ele><time>2026-04-04T11:05:38.007Z</time></trkpt><trkpt lat="44.1625208" lon="11.9837096"><ele>149.0</ele><time>2026-04-04T11:05:39.008Z</time></trkpt><trkpt lat="44.1625201" lon="11.983942"><ele>147.0</ele><time>2026-04-04T11:05:40.009Z</time></trkpt><trkpt lat="44.1625201" lon="11.9841667"><ele>145.33333333333334</ele><time>2026-04-04T11:05:41.009Z</time></trkpt><trkpt lat="44.1625207" lon="11.9843856"><ele>143.66666666666669</ele><time>2026-04-04T11:05:42.01Z</time></trkpt><trkpt lat="44.1625212" lon="11.9846004"><ele>142.0</ele><time>2026-04-04T11:05:43.007Z</time></trkpt><trkpt lat="44.1625244" lon="11.9848147"><ele>139.75</ele><time>2026-04-04T11:05:44.008Z</time></trkpt><trkpt lat="44.1625317" lon="11.9850242"><ele>137.5</ele><time>2026-04-04T11:05:45.008Z</time></trkpt><trkpt lat="44.162553" lon="11.9852275"><ele>135.25</ele><time>2026-04-04T11:05:46.011Z</time></trkpt><trkpt lat="44.1626019" lon="11.9854117"><ele>133.0</ele><time>2026-04-04T11:05:47.006Z</time></trkpt><trkpt lat="44.1626808" lon="11.9855699"><ele>133.0</ele><time>2026-04-04T11:05:48.007Z</time></trkpt><trkpt lat="44.1627829" lon="11.9857099"><ele>133.0</ele><time>2026-04-04T11:05:49.006Z</time></trkpt><trkpt lat="44.1628899" lon="11.9858457"><ele>133.0</ele><time>2026-04-04T11:05:50.007Z</time></trkpt><trkpt lat="44.1629868" lon="11.9859883"><ele>133.0</ele><time>2026-04-04T11:05:51.01Z</time></trkpt><trkpt lat="44.1630551" lon="11.9861469"><ele>131.25</ele><time>2026-04-04T11:05:52.007Z</time></trkpt><trkpt lat="44.1630894" lon="11.986314"><ele>129.5</ele><time>2026-04-04T11:05:53.007Z</time></trkpt><trkpt lat="44.1630976" lon="11.9864862"><ele>127.75</ele><time>2026-04-04T11:05:54.006Z</time></trkpt><trkpt lat="44.1630991" lon="11.9866632"><ele>126.0</ele><time>2026-04-04T11:05:55.006Z</time></trkpt><trkpt lat="44.1631031" lon="11.9868506"><ele>124.0</ele><time>2026-04-04T11:05:56.01Z</time></trkpt><trkpt lat="44.1631044" lon="11.9870495"><ele>122.0</ele><time>2026-04-04T11:05:57.006Z</time></trkpt><trkpt lat="44.1631029" lon="11.9872621"><ele>120.0</ele><time>2026-04-04T11:05:58.007Z</time></trkpt><trkpt lat="44.1631016" lon="11.987481"><ele>119.0</ele><time>2026-04-04T11:05:59.007Z</time></trkpt><trkpt lat="44.1630978" lon="11.9877054"><ele>118.0</ele><time>2026-04-04T11:06:00.007Z</time></trkpt><trkpt lat="44.1630991" lon="11.9879346"><ele>117.0</ele><time>2026-04-04T11:06:01.011Z</time></trkpt><trkpt lat="44.163097" lon="11.9881677"><ele>117.0</ele><time>2026-04-04T11:06:02.006Z</time></trkpt><trkpt lat="44.1630985" lon="11.9884049"><ele>117.0</ele><time>2026-04-04T11:06:03.007Z</time></trkpt><trkpt lat="44.1631026" lon="11.9886421"><ele>117.0</ele><time>2026-04-04T11:06:04.007Z</time></trkpt><trkpt lat="44.1631054" lon="11.9888736"><ele>117.0</ele><time>2026-04-04T11:06:05.007Z</time></trkpt><trkpt lat="44.1631112" lon="11.9890895"><ele>117.0</ele><time>2026-04-04T11:06:06.01Z</time></trkpt><trkpt lat="44.1631119" lon="11.9892771"><ele>117.0</ele><time>2026-04-04T11:06:07.006Z</time></trkpt><trkpt lat="44.1631" lon="11.9894347"><ele>117.0</ele><time>2026-04-04T11:06:08.008Z</time></trkpt><trkpt lat="44.1630644" lon="11.9895558"><ele>117.19999999999999</ele><time>2026-04-04T11:06:09.007Z</time></trkpt><trkpt lat="44.163008" lon="11.9896521"><ele>117.39999999999999</ele><time>2026-04-04T11:06:10.006Z</time></trkpt><trkpt lat="44.1629317" lon="11.9897157"><ele>117.60000000000001</ele><time>2026-04-04T11:06:11.007Z</time></trkpt><trkpt lat="44.1628292" lon="11.9897399"><ele>117.80000000000001</ele><time>2026-04-04T11:06:12.008Z</time></trkpt><trkpt lat="44.1627069" lon="11.9897441"><ele>118.0</ele><time>2026-04-04T11:06:13.011Z</time></trkpt><trkpt lat="44.1625746" lon="11.9897459"><ele>118.0</ele><time>2026-04-04T11:06:14.008Z</time></trkpt><trkpt lat="44.1624479" lon="11.9897473"><ele>118.00000000000001</ele><time>2026-04-04T11:06:15.008Z</time></trkpt><trkpt lat="44.1623319" lon="11.9897526"><ele>118.00000000000001</ele><time>2026-04-04T11:06:16.007Z</time></trkpt><trkpt lat="44.1622306" lon="11.989769"><ele>118.0</ele><time>2026-04-04T11:06:17.008Z</time></trkpt><trkpt lat="44.162158" lon="11.9898206"><ele>118.0</ele><time>2026-04-04T11:06:18.007Z</time></trkpt><trkpt lat="44.1621111" lon="11.989903"><ele>112.5</ele><time>2026-04-04T11:06:19.007Z</time></trkpt><trkpt lat="44.1621014" lon="11.9900113"><ele>107.0</ele><time>2026-04-04T11:06:20.005Z</time></trkpt><trkpt lat="44.1621444" lon="11.9901601"><ele>101.5</ele><time>2026-04-04T11:06:21.008Z</time></trkpt><trkpt lat="44.1622148" lon="11.990334"><ele>96.0</ele><time>2026-04-04T11:06:22.008Z</time></trkpt><trkpt lat="44.162311" lon="11.9905228"><ele>97.33333333333334</ele><time>2026-04-04T11:06:23.008Z</time></trkpt><trkpt lat="44.1624106" lon="11.9907207"><ele>98.66666666666667</ele><time>2026-04-04T11:06:24.01Z</time></trkpt><trkpt lat="44.1624975" lon="11.9909111"><ele>100.0</ele><time>2026-04-04T11:06:25.008Z</time></trkpt><trkpt lat="44.162573" lon="11.9910932"><ele>100.0</ele><time>2026-04-04T11:06:26.008Z</time></trkpt><trkpt lat="44.1626446" lon="11.9912601"><ele>100.0</ele><time>2026-04-04T11:06:27.008Z</time></trkpt><trkpt lat="44.1627037" lon="11.9914251"><ele>100.0</ele><time>2026-04-04T11:06:28.008Z</time></trkpt><trkpt lat="44.1627471" lon="11.9915863"><ele>100.0</ele><time>2026-04-04T11:06:29.008Z</time></trkpt><trkpt lat="44.16278" lon="11.9917477"><ele>98.75</ele><time>2026-04-04T11:06:30.01Z</time></trkpt><trkpt lat="44.1627943" lon="11.9919225"><ele>97.5</ele><time>2026-04-04T11:06:31.007Z</time></trkpt><trkpt lat="44.1627886" lon="11.9921046"><ele>96.25</ele><time>2026-04-04T11:06:32.009Z</time></trkpt><trkpt lat="44.1627762" lon="11.9922922"><ele>95.0</ele><time>2026-04-04T11:06:33.008Z</time></trkpt><trkpt lat="44.1627414" lon="11.9924823"><ele>93.75</ele><time>2026-04-04T11:06:34.008Z</time></trkpt><trkpt lat="44.1626747" lon="11.9926568"><ele>92.5</ele><time>2026-04-04T11:06:35.008Z</time></trkpt><trkpt lat="44.1625804" lon="11.9927953"><ele>91.25</ele><time>2026-04-04T11:06:36.007Z</time></trkpt><trkpt lat="44.1624675" lon="11.9929072"><ele>90.0</ele><time>2026-04-04T11:06:37.008Z</time></trkpt><trkpt lat="44.162348" lon="11.9930076"><ele>89.5</ele><time>2026-04-04T11:06:38.009Z</time></trkpt><trkpt lat="44.1622202" lon="11.9930895"><ele>89.0</ele><time>2026-04-04T11:06:39.01Z</time></trkpt><trkpt lat="44.1620857" lon="11.9931584"><ele>88.5</ele><time>2026-04-04T11:06:40.01Z</time></trkpt><trkpt lat="44.1619573" lon="11.9932222"><ele>88.0</ele><time>2026-04-04T11:06:41.009Z</time></trkpt><trkpt lat="44.1618375" lon="11.9932847"><ele>88.0</ele><time>2026-04-04T11:06:42.008Z</time></trkpt><trkpt lat="44.1617237" lon="11.993348"><ele>88.0</ele><time>2026-04-04T11:06:43.008Z</time></trkpt><trkpt lat="44.1616151" lon="11.9934132"><ele>88.0</ele><time>2026-04-04T11:06:44.005Z</time></trkpt><trkpt lat="44.161509" lon="11.9934808"><ele>88.0</ele><time>2026-04-04T11:06:45.007Z</time></trkpt><trkpt lat="44.1614083" lon="11.9935626"><ele>87.5</ele><time>2026-04-04T11:06:46.008Z</time></trkpt><trkpt lat="44.1613234" lon="11.9936728"><ele>87.0</ele><time>2026-04-04T11:06:47.009Z</time></trkpt><trkpt lat="44.1612603" lon="11.9937982"><ele>86.5</ele><time>2026-04-04T11:06:48.005Z</time></trkpt><trkpt lat="44.1612239" lon="11.9939435"><ele>86.0</ele><time>2026-04-04T11:06:49.007Z</time></trkpt><trkpt lat="44.1612084" lon="11.9941016"><ele>85.75</ele><time>2026-04-04T11:06:50.006Z</time></trkpt><trkpt lat="44.1611977" lon="11.9942631"><ele>85.5</ele><time>2026-04-04T11:06:51.007Z</time></trkpt><trkpt lat="44.1611925" lon="11.9944311"><ele>85.25</ele><time>2026-04-04T11:06:52.006Z</time></trkpt><trkpt lat="44.161196" lon="11.9946043"><ele>85.0</ele><time>2026-04-04T11:06:53.005Z</time></trkpt><trkpt lat="44.1612012" lon="11.9947797"><ele>85.0</ele><time>2026-04-04T11:06:54.009Z</time></trkpt><trkpt lat="44.1611998" lon="11.9949552"><ele>85.0</ele><time>2026-04-04T11:06:55.006Z</time></trkpt><trkpt lat="44.161195" lon="11.9951286"><ele>85.0</ele><time>2026-04-04T11:06:56.006Z</time></trkpt><trkpt lat="44.1611702" lon="11.9952987"><ele>85.0</ele><time>2026-04-04T11:06:57.007Z</time></trkpt><trkpt lat="44.1611219" lon="11.9954614"><ele>84.5</ele><time>2026-04-04T11:06:58.004Z</time></trkpt><trkpt lat="44.1610564" lon="11.9956224"><ele>84.0</ele><time>2026-04-04T11:06:59.004Z</time></trkpt><trkpt lat="44.1609856" lon="11.995781"><ele>83.5</ele><time>2026-04-04T11:07:00.006Z</time></trkpt><trkpt lat="44.1609158" lon="11.9959407"><ele>83.0</ele><time>2026-04-04T11:07:01.007Z</time></trkpt><trkpt lat="44.1608496" lon="11.9961034"><ele>82.75</ele><time>2026-04-04T11:07:02.009Z</time></trkpt><trkpt lat="44.1607846" lon="11.9962686"><ele>82.5</ele><time>2026-04-04T11:07:03.007Z</time></trkpt><trkpt lat="44.1607182" lon="11.9964397"><ele>82.25</ele><time>2026-04-04T11:07:04.007Z</time></trkpt><trkpt lat="44.1606542" lon="11.996614"><ele>82.0</ele><time>2026-04-04T11:07:05.007Z</time></trkpt><trkpt lat="44.16059" lon="11.9967882"><ele>80.5</ele><time>2026-04-04T11:07:06.008Z</time></trkpt><trkpt lat="44.1605199" lon="11.9969633"><ele>79.0</ele><time>2026-04-04T11:07:07.007Z</time></trkpt><trkpt lat="44.160452" lon="11.997141"><ele>77.5</ele><time>2026-04-04T11:07:08.008Z</time></trkpt><trkpt lat="44.1603848" lon="11.9973207"><ele>76.0</ele><time>2026-04-04T11:07:09.008Z</time></trkpt><trkpt lat="44.1603178" lon="11.9975009"><ele>75.75</ele><time>2026-04-04T11:07:10.008Z</time></trkpt><trkpt lat="44.1602508" lon="11.9976813"><ele>75.5</ele><time>2026-04-04T11:07:11.007Z</time></trkpt><trkpt lat="44.1601798" lon="11.9978618"><ele>75.25</ele><time>2026-04-04T11:07:12.008Z</time></trkpt><trkpt lat="44.1601107" lon="11.998049"><ele>75.0</ele><time>2026-04-04T11:07:13.008Z</time></trkpt><trkpt lat="44.1600326" lon="11.9982562"><ele>74.66666666666667</ele><time>2026-04-04T11:07:14.007Z</time></trkpt><trkpt lat="44.1599455" lon="11.9984957"><ele>74.33333333333334</ele><time>2026-04-04T11:07:15.007Z</time></trkpt><trkpt lat="44.1598388" lon="11.9987575"><ele>74.0</ele><time>2026-04-04T11:07:16.006Z</time></trkpt><trkpt lat="44.1597212" lon="11.9990373"><ele>73.0</ele><time>2026-04-04T11:07:17.006Z</time></trkpt><trkpt lat="44.1595805" lon="11.999331"><ele>72.0</ele><time>2026-04-04T11:07:18.011Z</time></trkpt><trkpt lat="44.1594072" lon="11.9996161"><ele>72.0</ele><time>2026-04-04T11:07:19.007Z</time></trkpt><trkpt lat="44.159217" lon="11.9998823"><ele>72.0</ele><time>2026-04-04T11:07:20.007Z</time></trkpt><trkpt lat="44.1590383" lon="12.000124"><ele>70.66666666666667</ele><time>2026-04-04T11:07:21.009Z</time></trkpt><trkpt lat="44.1588743" lon="12.0003432"><ele>69.33333333333334</ele><time>2026-04-04T11:07:22.008Z</time></trkpt><trkpt lat="44.1587261" lon="12.0005483"><ele>68.0</ele><time>2026-04-04T11:07:23.008Z</time></trkpt><trkpt lat="44.1585897" lon="12.0007432"><ele>68.66666666666667</ele><time>2026-04-04T11:07:24.007Z</time></trkpt><trkpt lat="44.1584649" lon="12.0009251"><ele>69.33333333333333</ele><time>2026-04-04T11:07:25.008Z</time></trkpt><trkpt lat="44.1583496" lon="12.0010924"><ele>70.0</ele><time>2026-04-04T11:07:26.008Z</time></trkpt><trkpt lat="44.1582408" lon="12.0012547"><ele>69.75</ele><time>2026-04-04T11:07:27.009Z</time></trkpt><trkpt lat="44.1581392" lon="12.0014032"><ele>69.5</ele><time>2026-04-04T11:07:28.007Z</time></trkpt><trkpt lat="44.1580422" lon="12.0015379"><ele>69.25</ele><time>2026-04-04T11:07:29.009Z</time></trkpt><trkpt lat="44.1579581" lon="12.0016528"><ele>69.0</ele><time>2026-04-04T11:07:30.008Z</time></trkpt><trkpt lat="44.1578929" lon="12.0017368"><ele>69.0</ele><time>2026-04-04T11:07:31.006Z</time></trkpt><trkpt lat="44.1578374" lon="12.0018054"><ele>69.0</ele><time>2026-04-04T11:07:32.008Z</time></trkpt><trkpt lat="44.1577681" lon="12.0018857"><ele>69.0</ele><time>2026-04-04T11:07:34.007Z</time></trkpt><trkpt lat="44.1576799" lon="12.0017955"><ele>69.0</ele><time>2026-04-04T11:07:37.007Z</time></trkpt><trkpt lat="44.1576412" lon="12.0017108"><ele>69.0</ele><time>2026-04-04T11:07:38.008Z</time></trkpt><trkpt lat="44.1575907" lon="12.0015957"><ele>69.0</ele><time>2026-04-04T11:07:39.007Z</time></trkpt><trkpt lat="44.1575288" lon="12.0014662"><ele>68.83333333333333</ele><time>2026-04-04T11:07:40.007Z</time></trkpt><trkpt lat="44.1574644" lon="12.0013452"><ele>68.66666666666667</ele><time>2026-04-04T11:07:41.007Z</time></trkpt><trkpt lat="44.1574102" lon="12.0012437"><ele>68.5</ele><time>2026-04-04T11:07:42.006Z</time></trkpt><trkpt lat="44.1573597" lon="12.0011566"><ele>68.33333333333334</ele><time>2026-04-04T11:07:43.007Z</time></trkpt><trkpt lat="44.1573141" lon="12.0010683"><ele>68.16666666666667</ele><time>2026-04-04T11:07:44.007Z</time></trkpt><trkpt lat="44.157267" lon="12.0009858"><ele>68.0</ele><time>2026-04-04T11:07:45.007Z</time></trkpt><trkpt lat="44.1572219" lon="12.0009153"><ele>68.2</ele><time>2026-04-04T11:07:46.007Z</time></trkpt><trkpt lat="44.1571343" lon="12.00081"><ele>68.4</ele><time>2026-04-04T11:07:48.009Z</time></trkpt><trkpt lat="44.157049" lon="12.0007068"><ele>68.60000000000001</ele><time>2026-04-04T11:07:50.007Z</time></trkpt><trkpt lat="44.1569643" lon="12.0005949"><ele>68.8</ele><time>2026-04-04T11:07:52.007Z</time></trkpt><trkpt lat="44.156889" lon="12.000505"><ele>69.0</ele><time>2026-04-04T11:07:53.008Z</time></trkpt><trkpt lat="44.1567835" lon="12.000374"><ele>69.0</ele><time>2026-04-04T11:07:54.007Z</time></trkpt><trkpt lat="44.1566679" lon="12.0002373"><ele>69.0</ele><time>2026-04-04T11:07:55.007Z</time></trkpt><trkpt lat="44.1565745" lon="12.0001225"><ele>69.0</ele><time>2026-04-04T11:07:56.008Z</time></trkpt><trkpt lat="44.1565105" lon="12.0000279"><ele>69.0</ele><time>2026-04-04T11:07:57.007Z</time></trkpt><trkpt lat="44.1564755" lon="11.9999456"><ele>69.0</ele><time>2026-04-04T11:07:58.008Z</time></trkpt><trkpt lat="44.1564264" lon="11.999855"><ele>69.0</ele><time>2026-04-04T11:08:00.009Z</time></trkpt><trkpt lat="44.1564457" lon="12.0000452"><ele>69.0</ele><time>2026-04-04T11:08:11.007Z</time></trkpt><trkpt lat="44.1565363" lon="12.0001806"><ele>69.0</ele><time>2026-04-04T11:08:12.008Z</time></trkpt><trkpt lat="44.1569102" lon="12.0006487"><ele>67.0</ele><time>2026-04-04T11:08:14.007Z</time></trkpt><trkpt lat="44.1570984" lon="12.0009026"><ele>65.0</ele><time>2026-04-04T11:08:15.007Z</time></trkpt><trkpt lat="44.1572518" lon="12.0011297"><ele>66.0</ele><time>2026-04-04T11:08:16.009Z</time></trkpt><trkpt lat="44.1573833" lon="12.0013378"><ele>67.0</ele><time>2026-04-04T11:08:17.008Z</time></trkpt><trkpt lat="44.1574914" lon="12.001537"><ele>68.0</ele><time>2026-04-04T11:08:18.007Z</time></trkpt><trkpt lat="44.15758" lon="12.0017143"><ele>68.2</ele><time>2026-04-04T11:08:19.007Z</time></trkpt><trkpt lat="44.1576475" lon="12.0018491"><ele>68.4</ele><time>2026-04-04T11:08:20.007Z</time></trkpt><trkpt lat="44.1576949" lon="12.0019352"><ele>68.60000000000001</ele><time>2026-04-04T11:08:21.009Z</time></trkpt><trkpt lat="44.1577646" lon="12.0020358"><ele>68.8</ele><time>2026-04-04T11:08:23.008Z</time></trkpt><trkpt lat="44.1578222" lon="12.0019386"><ele>69.0</ele><time>2026-04-04T11:08:31.007Z</time></trkpt><trkpt lat="44.1577797" lon="12.0018705"><ele>69.0</ele><time>2026-04-04T11:08:34.007Z</time></trkpt><trkpt lat="44.1577017" lon="12.001775"><ele>69.0</ele><time>2026-04-04T11:11:00.007Z</time></trkpt><trkpt lat="44.1576533" lon="12.0016883"><ele>69.0</ele><time>2026-04-04T11:11:02.006Z</time></trkpt><trkpt lat="44.1576133" lon="12.00161"><ele>69.0</ele><time>2026-04-04T11:11:05.006Z</time></trkpt><trkpt lat="44.157505" lon="12.0014317"><ele>69.0</ele><time>2026-04-04T11:11:31.008Z</time></trkpt><trkpt lat="44.15743" lon="12.0013083"><ele>69.0</ele><time>2026-04-04T11:11:32.007Z</time></trkpt><trkpt lat="44.1573417" lon="12.001175"><ele>69.0</ele><time>2026-04-04T11:11:33.016Z</time></trkpt><trkpt lat="44.1572467" lon="12.0010383"><ele>69.0</ele><time>2026-04-04T11:11:34.006Z</time></trkpt><trkpt lat="44.1571467" lon="12.0009"><ele>69.0</ele><time>2026-04-04T11:11:35.007Z</time></trkpt><trkpt lat="44.1570483" lon="12.0007617"><ele>69.0</ele><time>2026-04-04T11:11:36.006Z</time></trkpt><trkpt lat="44.1569398" lon="12.000626"><ele>69.0</ele><time>2026-04-04T11:11:37.006Z</time></trkpt><trkpt lat="44.1568277" lon="12.000495"><ele>69.0</ele><time>2026-04-04T11:11:38.007Z</time></trkpt><trkpt lat="44.156714" lon="12.0003597"><ele>69.0</ele><time>2026-04-04T11:11:39.013Z</time></trkpt><trkpt lat="44.1565986" lon="12.0002218"><ele>69.66666666666667</ele><time>2026-04-04T11:11:40.006Z</time></trkpt><trkpt lat="44.1564813" lon="12.0000794"><ele>70.33333333333334</ele><time>2026-04-04T11:11:41.007Z</time></trkpt><trkpt lat="44.1563621" lon="11.9999274"><ele>71.0</ele><time>2026-04-04T11:11:42.006Z</time></trkpt><trkpt lat="44.1562386" lon="11.9997707"><ele>71.0</ele><time>2026-04-04T11:11:43.007Z</time></trkpt><trkpt lat="44.1561133" lon="11.9996173"><ele>71.0</ele><time>2026-04-04T11:11:44.009Z</time></trkpt><trkpt lat="44.1559869" lon="11.9994585"><ele>71.0</ele><time>2026-04-04T11:11:45.009Z</time></trkpt><trkpt lat="44.1558545" lon="11.9992996"><ele>71.0</ele><time>2026-04-04T11:11:46.005Z</time></trkpt><trkpt lat="44.1557244" lon="11.9991391"><ele>71.0</ele><time>2026-04-04T11:11:47.007Z</time></trkpt><trkpt lat="44.1555926" lon="11.9989797"><ele>71.0</ele><time>2026-04-04T11:11:48.007Z</time></trkpt><trkpt lat="44.1554633" lon="11.9988172"><ele>71.0</ele><time>2026-04-04T11:11:49.008Z</time></trkpt><trkpt lat="44.1553335" lon="11.9986508"><ele>71.0</ele><time>2026-04-04T11:11:50.007Z</time></trkpt><trkpt lat="44.1552034" lon="11.9984816"><ele>71.0</ele><time>2026-04-04T11:11:51.008Z</time></trkpt><trkpt lat="44.1550718" lon="11.998313"><ele>72.0</ele><time>2026-04-04T11:11:52.01Z</time></trkpt><trkpt lat="44.1549415" lon="11.998149"><ele>73.0</ele><time>2026-04-04T11:11:53.007Z</time></trkpt><trkpt lat="44.1548079" lon="11.9979871"><ele>74.0</ele><time>2026-04-04T11:11:54.008Z</time></trkpt><trkpt lat="44.1546731" lon="11.9978252"><ele>74.66666666666667</ele><time>2026-04-04T11:11:55.006Z</time></trkpt><trkpt lat="44.154537" lon="11.9976645"><ele>75.33333333333333</ele><time>2026-04-04T11:11:56.007Z</time></trkpt><trkpt lat="44.1544008" lon="11.9975003"><ele>76.0</ele><time>2026-04-04T11:11:57.007Z</time></trkpt><trkpt lat="44.1542691" lon="11.9973376"><ele>76.0</ele><time>2026-04-04T11:11:58.006Z</time></trkpt><trkpt lat="44.1541407" lon="11.9971708"><ele>76.0</ele><time>2026-04-04T11:11:59.007Z</time></trkpt><trkpt lat="44.1540114" lon="11.9970095"><ele>76.0</ele><time>2026-04-04T11:12:00.009Z</time></trkpt><trkpt lat="44.1538769" lon="11.9968544"><ele>76.0</ele><time>2026-04-04T11:12:01.008Z</time></trkpt><trkpt lat="44.1537402" lon="11.9967009"><ele>76.0</ele><time>2026-04-04T11:12:02.007Z</time></trkpt><trkpt lat="44.1536097" lon="11.9965481"><ele>76.0</ele><time>2026-04-04T11:12:03.007Z</time></trkpt><trkpt lat="44.1534872" lon="11.9964051"><ele>76.0</ele><time>2026-04-04T11:12:04.008Z</time></trkpt><trkpt lat="44.1533797" lon="11.9962719"><ele>76.0</ele><time>2026-04-04T11:12:05.006Z</time></trkpt><trkpt lat="44.1532762" lon="11.9961618"><ele>76.0</ele><time>2026-04-04T11:12:06.005Z</time></trkpt><trkpt lat="44.1531637" lon="11.9960688"><ele>76.0</ele><time>2026-04-04T11:12:07.007Z</time></trkpt><trkpt lat="44.1530506" lon="11.995988"><ele>76.5</ele><time>2026-04-04T11:12:08.007Z</time></trkpt><trkpt lat="44.1529308" lon="11.9959162"><ele>77.0</ele><time>2026-04-04T11:12:09.008Z</time></trkpt><trkpt lat="44.1528125" lon="11.9958495"><ele>77.5</ele><time>2026-04-04T11:12:10.007Z</time></trkpt><trkpt lat="44.1526908" lon="11.9957914"><ele>78.0</ele><time>2026-04-04T11:12:11.009Z</time></trkpt><trkpt lat="44.1525693" lon="11.9957322"><ele>78.0</ele><time>2026-04-04T11:12:12.009Z</time></trkpt><trkpt lat="44.1524433" lon="11.9956762"><ele>78.0</ele><time>2026-04-04T11:12:13.008Z</time></trkpt><trkpt lat="44.1523165" lon="11.9956183"><ele>78.0</ele><time>2026-04-04T11:12:14.008Z</time></trkpt><trkpt lat="44.1521919" lon="11.9955599"><ele>78.0</ele><time>2026-04-04T11:12:15.006Z</time></trkpt><trkpt lat="44.152067" lon="11.9955012"><ele>77.5</ele><time>2026-04-04T11:12:16.007Z</time></trkpt><trkpt lat="44.1519447" lon="11.9954362"><ele>77.0</ele><time>2026-04-04T11:12:17.007Z</time></trkpt><trkpt lat="44.1518223" lon="11.9953697"><ele>76.5</ele><time>2026-04-04T11:12:18.005Z</time></trkpt><trkpt lat="44.1517012" lon="11.9953"><ele>76.0</ele><time>2026-04-04T11:12:19.007Z</time></trkpt><trkpt lat="44.1515798" lon="11.9952241"><ele>76.0</ele><time>2026-04-04T11:12:20.008Z</time></trkpt><trkpt lat="44.1514577" lon="11.9951404"><ele>76.0</ele><time>2026-04-04T11:12:21.009Z</time></trkpt><trkpt lat="44.1513345" lon="11.9950472"><ele>76.0</ele><time>2026-04-04T11:12:22.006Z</time></trkpt><trkpt lat="44.1512115" lon="11.9949481"><ele>76.0</ele><time>2026-04-04T11:12:23.006Z</time></trkpt><trkpt lat="44.151088" lon="11.9948393"><ele>76.66666666666666</ele><time>2026-04-04T11:12:24.007Z</time></trkpt><trkpt lat="44.1509672" lon="11.9947174"><ele>77.33333333333333</ele><time>2026-04-04T11:12:25.009Z</time></trkpt><trkpt lat="44.1508498" lon="11.9945822"><ele>78.0</ele><time>2026-04-04T11:12:26.007Z</time></trkpt><trkpt lat="44.1507372" lon="11.9944354"><ele>77.33333333333333</ele><time>2026-04-04T11:12:27.01Z</time></trkpt><trkpt lat="44.1506299" lon="11.9942835"><ele>76.66666666666666</ele><time>2026-04-04T11:12:28.009Z</time></trkpt><trkpt lat="44.1505267" lon="11.9941251"><ele>76.0</ele><time>2026-04-04T11:12:29.006Z</time></trkpt><trkpt lat="44.1504303" lon="11.9939563"><ele>76.0</ele><time>2026-04-04T11:12:30.008Z</time></trkpt><trkpt lat="44.1503443" lon="11.9937741"><ele>76.0</ele><time>2026-04-04T11:12:31.009Z</time></trkpt><trkpt lat="44.1502561" lon="11.9935878"><ele>76.0</ele><time>2026-04-04T11:12:32.008Z</time></trkpt><trkpt lat="44.1501714" lon="11.9933999"><ele>77.33333333333333</ele><time>2026-04-04T11:12:33.009Z</time></trkpt><trkpt lat="44.1500949" lon="11.9932057"><ele>78.66666666666667</ele><time>2026-04-04T11:12:34.01Z</time></trkpt><trkpt lat="44.1500249" lon="11.9930065"><ele>80.0</ele><time>2026-04-04T11:12:35.006Z</time></trkpt><trkpt lat="44.1499579" lon="11.9927997"><ele>80.0</ele><time>2026-04-04T11:12:36.008Z</time></trkpt><trkpt lat="44.1498935" lon="11.992586"><ele>80.0</ele><time>2026-04-04T11:12:37.007Z</time></trkpt><trkpt lat="44.1498277" lon="11.992365"><ele>80.0</ele><time>2026-04-04T11:12:38.007Z</time></trkpt><trkpt lat="44.1497651" lon="11.9921285"><ele>80.0</ele><time>2026-04-04T11:12:39.007Z</time></trkpt><trkpt lat="44.1497047" lon="11.9918889"><ele>80.0</ele><time>2026-04-04T11:12:40.009Z</time></trkpt><trkpt lat="44.149642" lon="11.9916506"><ele>80.0</ele><time>2026-04-04T11:12:41.008Z</time></trkpt><trkpt lat="44.1495773" lon="11.9914139"><ele>80.33333333333334</ele><time>2026-04-04T11:12:42.007Z</time></trkpt><trkpt lat="44.1495128" lon="11.9911727"><ele>80.66666666666667</ele><time>2026-04-04T11:12:43.008Z</time></trkpt><trkpt lat="44.1494469" lon="11.9909305"><ele>81.0</ele><time>2026-04-04T11:12:44.006Z</time></trkpt><trkpt lat="44.1493799" lon="11.9906898"><ele>81.33333333333333</ele><time>2026-04-04T11:12:45.01Z</time></trkpt><trkpt lat="44.1493123" lon="11.990447"><ele>81.66666666666666</ele><time>2026-04-04T11:12:46.009Z</time></trkpt><trkpt lat="44.1492472" lon="11.9902005"><ele>82.0</ele><time>2026-04-04T11:12:47.01Z</time></trkpt><trkpt lat="44.1491818" lon="11.9899545"><ele>82.0</ele><time>2026-04-04T11:12:48.007Z</time></trkpt><trkpt lat="44.1491134" lon="11.9897101"><ele>82.0</ele><time>2026-04-04T11:12:49.009Z</time></trkpt><trkpt lat="44.1490465" lon="11.9894633"><ele>82.0</ele><time>2026-04-04T11:12:50.008Z</time></trkpt><trkpt lat="44.1489802" lon="11.9892167"><ele>83.33333333333333</ele><time>2026-04-04T11:12:51.008Z</time></trkpt><trkpt lat="44.1489128" lon="11.9889721"><ele>84.66666666666667</ele><time>2026-04-04T11:12:52.008Z</time></trkpt><trkpt lat="44.1488442" lon="11.9887291"><ele>86.0</ele><time>2026-04-04T11:12:53.006Z</time></trkpt><trkpt lat="44.1487729" lon="11.9884885"><ele>86.0</ele><time>2026-04-04T11:12:54.01Z</time></trkpt><trkpt lat="44.1486953" lon="11.9882461"><ele>86.0</ele><time>2026-04-04T11:12:55.01Z</time></trkpt><trkpt lat="44.1486115" lon="11.9880071"><ele>86.0</ele><time>2026-04-04T11:12:56.009Z</time></trkpt><trkpt lat="44.1485173" lon="11.9877736"><ele>86.0</ele><time>2026-04-04T11:12:57.009Z</time></trkpt><trkpt lat="44.1484159" lon="11.9875385"><ele>86.0</ele><time>2026-04-04T11:12:58.011Z</time></trkpt><trkpt lat="44.148307" lon="11.9873066"><ele>86.0</ele><time>2026-04-04T11:12:59.007Z</time></trkpt><trkpt lat="44.1481917" lon="11.9870744"><ele>85.66666666666667</ele><time>2026-04-04T11:13:00.008Z</time></trkpt><trkpt lat="44.1480718" lon="11.9868452"><ele>85.33333333333333</ele><time>2026-04-04T11:13:01.007Z</time></trkpt><trkpt lat="44.1479434" lon="11.9866215"><ele>85.0</ele><time>2026-04-04T11:13:02.007Z</time></trkpt><trkpt lat="44.1478064" lon="11.9864047"><ele>86.66666666666666</ele><time>2026-04-04T11:13:03.006Z</time></trkpt><trkpt lat="44.1476642" lon="11.986191"><ele>88.33333333333333</ele><time>2026-04-04T11:13:04.007Z</time></trkpt><trkpt lat="44.1475191" lon="11.9859858"><ele>90.0</ele><time>2026-04-04T11:13:05.008Z</time></trkpt><trkpt lat="44.1473699" lon="11.9857852"><ele>90.33333333333333</ele><time>2026-04-04T11:13:06.008Z</time></trkpt><trkpt lat="44.1472088" lon="11.985587"><ele>90.66666666666666</ele><time>2026-04-04T11:13:07.007Z</time></trkpt><trkpt lat="44.1470372" lon="11.9853961"><ele>91.0</ele><time>2026-04-04T11:13:08.007Z</time></trkpt><trkpt lat="44.1468566" lon="11.9852205"><ele>91.0</ele><time>2026-04-04T11:13:09.01Z</time></trkpt><trkpt lat="44.1466731" lon="11.9850551"><ele>91.0</ele><time>2026-04-04T11:13:10.009Z</time></trkpt><trkpt lat="44.1464891" lon="11.9848952"><ele>91.0</ele><time>2026-04-04T11:13:11.008Z</time></trkpt><trkpt lat="44.1463051" lon="11.9847396"><ele>91.33333333333333</ele><time>2026-04-04T11:13:12.008Z</time></trkpt><trkpt lat="44.1461214" lon="11.9845892"><ele>91.66666666666667</ele><time>2026-04-04T11:13:13.006Z</time></trkpt><trkpt lat="44.1459365" lon="11.9844416"><ele>92.0</ele><time>2026-04-04T11:13:14.008Z</time></trkpt><trkpt lat="44.1457521" lon="11.9842928"><ele>93.33333333333334</ele><time>2026-04-04T11:13:15.007Z</time></trkpt><trkpt lat="44.1455709" lon="11.9841403"><ele>94.66666666666667</ele><time>2026-04-04T11:13:16.007Z</time></trkpt><trkpt lat="44.1453898" lon="11.9839894"><ele>96.0</ele><time>2026-04-04T11:13:17.008Z</time></trkpt><trkpt lat="44.1452069" lon="11.9838416"><ele>96.0</ele><time>2026-04-04T11:13:18.008Z</time></trkpt><trkpt lat="44.1450229" lon="11.9836952"><ele>96.0</ele><time>2026-04-04T11:13:19.009Z</time></trkpt><trkpt lat="44.144839" lon="11.9835524"><ele>96.0</ele><time>2026-04-04T11:13:20.007Z</time></trkpt><trkpt lat="44.1446537" lon="11.9834098"><ele>97.33333333333334</ele><time>2026-04-04T11:13:21.007Z</time></trkpt><trkpt lat="44.1444679" lon="11.9832645"><ele>98.66666666666667</ele><time>2026-04-04T11:13:22.009Z</time></trkpt><trkpt lat="44.1442842" lon="11.9831187"><ele>100.0</ele><time>2026-04-04T11:13:23.01Z</time></trkpt><trkpt lat="44.1440998" lon="11.982973"><ele>99.33333333333334</ele><time>2026-04-04T11:13:24.007Z</time></trkpt><trkpt lat="44.1439151" lon="11.9828322"><ele>98.66666666666666</ele><time>2026-04-04T11:13:25.008Z</time></trkpt><trkpt lat="44.1437294" lon="11.9826923"><ele>98.0</ele><time>2026-04-04T11:13:26.009Z</time></trkpt><trkpt lat="44.1435412" lon="11.9825577"><ele>98.0</ele><time>2026-04-04T11:13:27.009Z</time></trkpt><trkpt lat="44.1433489" lon="11.982438"><ele>98.0</ele><time>2026-04-04T11:13:28.009Z</time></trkpt><trkpt lat="44.1431506" lon="11.9823342"><ele>98.0</ele><time>2026-04-04T11:13:29.006Z</time></trkpt><trkpt lat="44.1429466" lon="11.9822465"><ele>98.0</ele><time>2026-04-04T11:13:30.006Z</time></trkpt><trkpt lat="44.1427345" lon="11.9821639"><ele>98.0</ele><time>2026-04-04T11:13:31.009Z</time></trkpt><trkpt lat="44.1425215" lon="11.9820857"><ele>98.0</ele><time>2026-04-04T11:13:32.009Z</time></trkpt><trkpt lat="44.1423048" lon="11.9820125"><ele>97.0</ele><time>2026-04-04T11:13:33.01Z</time></trkpt><trkpt lat="44.1420863" lon="11.9819518"><ele>96.0</ele><time>2026-04-04T11:13:34.007Z</time></trkpt><trkpt lat="44.1418654" lon="11.9819077"><ele>95.0</ele><time>2026-04-04T11:13:35.008Z</time></trkpt><trkpt lat="44.1416452" lon="11.9818758"><ele>94.33333333333334</ele><time>2026-04-04T11:13:36.007Z</time></trkpt><trkpt lat="44.1414248" lon="11.9818547"><ele>93.66666666666667</ele><time>2026-04-04T11:13:37.008Z</time></trkpt><trkpt lat="44.1412051" lon="11.9818399"><ele>93.0</ele><time>2026-04-04T11:13:38.007Z</time></trkpt><trkpt lat="44.1409851" lon="11.9818285"><ele>93.0</ele><time>2026-04-04T11:13:39.007Z</time></trkpt><trkpt lat="44.1407659" lon="11.9818121"><ele>93.0</ele><time>2026-04-04T11:13:40.006Z</time></trkpt><trkpt lat="44.1405466" lon="11.9817893"><ele>93.0</ele><time>2026-04-04T11:13:41.005Z</time></trkpt><trkpt lat="44.1403287" lon="11.9817652"><ele>92.66666666666667</ele><time>2026-04-04T11:13:42.007Z</time></trkpt><trkpt lat="44.1401118" lon="11.9817455"><ele>92.33333333333334</ele><time>2026-04-04T11:13:43.007Z</time></trkpt><trkpt lat="44.1398962" lon="11.9817302"><ele>92.0</ele><time>2026-04-04T11:13:44.006Z</time></trkpt><trkpt lat="44.1396835" lon="11.9817147"><ele>92.0</ele><time>2026-04-04T11:13:45.008Z</time></trkpt><trkpt lat="44.1394719" lon="11.9816969"><ele>92.0</ele><time>2026-04-04T11:13:46.009Z</time></trkpt><trkpt lat="44.1392623" lon="11.9816774"><ele>92.0</ele><time>2026-04-04T11:13:47.005Z</time></trkpt><trkpt lat="44.139055" lon="11.9816489"><ele>93.0</ele><time>2026-04-04T11:13:48.007Z</time></trkpt><trkpt lat="44.1388497" lon="11.9816147"><ele>94.0</ele><time>2026-04-04T11:13:49.009Z</time></trkpt><trkpt lat="44.1386464" lon="11.9815746"><ele>95.0</ele><time>2026-04-04T11:13:50.01Z</time></trkpt><trkpt lat="44.138445" lon="11.9815183"><ele>95.0</ele><time>2026-04-04T11:13:51.008Z</time></trkpt><trkpt lat="44.13825" lon="11.98145"><ele>95.0</ele><time>2026-04-04T11:13:52.005Z</time></trkpt><trkpt lat="44.13806" lon="11.981365"><ele>95.0</ele><time>2026-04-04T11:13:53.006Z</time></trkpt><trkpt lat="44.1378683" lon="11.98128"><ele>94.33333333333334</ele><time>2026-04-04T11:13:54.005Z</time></trkpt><trkpt lat="44.1376817" lon="11.981205"><ele>93.66666666666667</ele><time>2026-04-04T11:13:55.006Z</time></trkpt><trkpt lat="44.1374983" lon="11.981125"><ele>93.0</ele><time>2026-04-04T11:13:56.005Z</time></trkpt><trkpt lat="44.1373233" lon="11.9810417"><ele>93.0</ele><time>2026-04-04T11:13:57.007Z</time></trkpt><trkpt lat="44.1371517" lon="11.98096"><ele>93.0</ele><time>2026-04-04T11:13:58.008Z</time></trkpt><trkpt lat="44.1369817" lon="11.9808717"><ele>93.0</ele><time>2026-04-04T11:13:59.007Z</time></trkpt><trkpt lat="44.136815" lon="11.9807733"><ele>92.0</ele><time>2026-04-04T11:14:00.006Z</time></trkpt><trkpt lat="44.1366533" lon="11.9806583"><ele>91.0</ele><time>2026-04-04T11:14:01.006Z</time></trkpt><trkpt lat="44.1364967" lon="11.98053"><ele>90.0</ele><time>2026-04-04T11:14:02.005Z</time></trkpt><trkpt lat="44.13634" lon="11.9804"><ele>90.0</ele><time>2026-04-04T11:14:03.007Z</time></trkpt><trkpt lat="44.1361767" lon="11.9802633"><ele>90.0</ele><time>2026-04-04T11:14:04.007Z</time></trkpt><trkpt lat="44.136015" lon="11.9801267"><ele>90.0</ele><time>2026-04-04T11:14:05.005Z</time></trkpt><trkpt lat="44.135855" lon="11.979985"><ele>90.0</ele><time>2026-04-04T11:14:06.005Z</time></trkpt><trkpt lat="44.1357017" lon="11.9798467"><ele>90.0</ele><time>2026-04-04T11:14:07.008Z</time></trkpt><trkpt lat="44.1355517" lon="11.97971"><ele>90.0</ele><time>2026-04-04T11:14:08.005Z</time></trkpt><trkpt lat="44.1354083" lon="11.9795617"><ele>90.0</ele><time>2026-04-04T11:14:09.007Z</time></trkpt><trkpt lat="44.1352767" lon="11.9794017"><ele>90.0</ele><time>2026-04-04T11:14:10.01Z</time></trkpt><trkpt lat="44.1351483" lon="11.97923"><ele>90.0</ele><time>2026-04-04T11:14:11.007Z</time></trkpt><trkpt lat="44.1350233" lon="11.9790533"><ele>89.33333333333333</ele><time>2026-04-04T11:14:12.007Z</time></trkpt><trkpt lat="44.1348967" lon="11.9788767"><ele>88.66666666666666</ele><time>2026-04-04T11:14:13.008Z</time></trkpt><trkpt lat="44.13477" lon="11.978695"><ele>88.0</ele><time>2026-04-04T11:14:14.008Z</time></trkpt><trkpt lat="44.1346367" lon="11.9785183"><ele>89.33333333333333</ele><time>2026-04-04T11:14:15.005Z</time></trkpt><trkpt lat="44.1344983" lon="11.9783467"><ele>90.66666666666667</ele><time>2026-04-04T11:14:16.007Z</time></trkpt><trkpt lat="44.1343533" lon="11.97818"><ele>92.0</ele><time>2026-04-04T11:14:17.005Z</time></trkpt><trkpt lat="44.1342183" lon="11.9780217"><ele>92.0</ele><time>2026-04-04T11:14:18.009Z</time></trkpt><trkpt lat="44.1340833" lon="11.9778683"><ele>92.0</ele><time>2026-04-04T11:14:19.008Z</time></trkpt><trkpt lat="44.1339483" lon="11.9777217"><ele>92.0</ele><time>2026-04-04T11:14:20.01Z</time></trkpt><trkpt lat="44.1338067" lon="11.97759"><ele>93.66666666666667</ele><time>2026-04-04T11:14:21.007Z</time></trkpt><trkpt lat="44.1336517" lon="11.9774817"><ele>95.33333333333334</ele><time>2026-04-04T11:14:22.006Z</time></trkpt><trkpt lat="44.1334933" lon="11.9773917"><ele>97.0</ele><time>2026-04-04T11:14:23.006Z</time></trkpt><trkpt lat="44.1333267" lon="11.9773117"><ele>96.0</ele><time>2026-04-04T11:14:24.006Z</time></trkpt><trkpt lat="44.1331583" lon="11.9772383"><ele>95.0</ele><time>2026-04-04T11:14:25.008Z</time></trkpt><trkpt lat="44.1329883" lon="11.9771633"><ele>94.0</ele><time>2026-04-04T11:14:26.007Z</time></trkpt><trkpt lat="44.1328067" lon="11.9770867"><ele>94.0</ele><time>2026-04-04T11:14:27.008Z</time></trkpt><trkpt lat="44.1326117" lon="11.9769917"><ele>94.0</ele><time>2026-04-04T11:14:28.006Z</time></trkpt><trkpt lat="44.1324033" lon="11.9768967"><ele>94.0</ele><time>2026-04-04T11:14:29.006Z</time></trkpt><trkpt lat="44.1321867" lon="11.976795"><ele>92.5</ele><time>2026-04-04T11:14:30.006Z</time></trkpt><trkpt lat="44.1319667" lon="11.976695"><ele>91.0</ele><time>2026-04-04T11:14:31.007Z</time></trkpt><trkpt lat="44.1317367" lon="11.97658"><ele>94.5</ele><time>2026-04-04T11:14:32.007Z</time></trkpt><trkpt lat="44.1314933" lon="11.9764633"><ele>98.0</ele><time>2026-04-04T11:14:33.006Z</time></trkpt><trkpt lat="44.131255" lon="11.9763483"><ele>98.0</ele><time>2026-04-04T11:14:34.006Z</time></trkpt><trkpt lat="44.1310267" lon="11.9762417"><ele>98.0</ele><time>2026-04-04T11:14:35.007Z</time></trkpt><trkpt lat="44.1308183" lon="11.9761267"><ele>98.66666666666666</ele><time>2026-04-04T11:14:36.007Z</time></trkpt><trkpt lat="44.130625" lon="11.9759917"><ele>99.33333333333334</ele><time>2026-04-04T11:14:37.01Z</time></trkpt><trkpt lat="44.1304417" lon="11.9758567"><ele>100.0</ele><time>2026-04-04T11:14:38.007Z</time></trkpt><trkpt lat="44.1302617" lon="11.9757283"><ele>100.0</ele><time>2026-04-04T11:14:39.007Z</time></trkpt><trkpt lat="44.1300783" lon="11.9756283"><ele>100.0</ele><time>2026-04-04T11:14:40.006Z</time></trkpt><trkpt lat="44.1298883" lon="11.9755583"><ele>100.0</ele><time>2026-04-04T11:14:41.006Z</time></trkpt><trkpt lat="44.1296833" lon="11.9755283"><ele>99.5</ele><time>2026-04-04T11:14:42.006Z</time></trkpt><trkpt lat="44.12946" lon="11.975535"><ele>99.0</ele><time>2026-04-04T11:14:43.006Z</time></trkpt><trkpt lat="44.129225" lon="11.9755567"><ele>98.5</ele><time>2026-04-04T11:14:44.006Z</time></trkpt><trkpt lat="44.1289883" lon="11.975575"><ele>98.0</ele><time>2026-04-04T11:14:45.007Z</time></trkpt><trkpt lat="44.1287533" lon="11.975575"><ele>98.0</ele><time>2026-04-04T11:14:46.006Z</time></trkpt><trkpt lat="44.128525" lon="11.97556"><ele>98.0</ele><time>2026-04-04T11:14:47.006Z</time></trkpt><trkpt lat="44.1283" lon="11.9755333"><ele>97.0</ele><time>2026-04-04T11:14:48.008Z</time></trkpt><trkpt lat="44.1280817" lon="11.9754917"><ele>96.0</ele><time>2026-04-04T11:14:49.007Z</time></trkpt><trkpt lat="44.12787" lon="11.9754383"><ele>95.0</ele><time>2026-04-04T11:14:50.005Z</time></trkpt><trkpt lat="44.1276567" lon="11.97539"><ele>95.0</ele><time>2026-04-04T11:14:51.006Z</time></trkpt><trkpt lat="44.12744" lon="11.97534"><ele>95.0</ele><time>2026-04-04T11:14:52.009Z</time></trkpt><trkpt lat="44.1272283" lon="11.975295"><ele>95.0</ele><time>2026-04-04T11:14:53.008Z</time></trkpt><trkpt lat="44.1270167" lon="11.9752467"><ele>94.66666666666667</ele><time>2026-04-04T11:14:54.01Z</time></trkpt><trkpt lat="44.1268033" lon="11.9751983"><ele>94.33333333333333</ele><time>2026-04-04T11:14:55.006Z</time></trkpt><trkpt lat="44.1265967" lon="11.9751533"><ele>94.0</ele><time>2026-04-04T11:14:56.006Z</time></trkpt><trkpt lat="44.126395" lon="11.97511"><ele>95.0</ele><time>2026-04-04T11:14:57.007Z</time></trkpt><trkpt lat="44.126195" lon="11.9750617"><ele>96.0</ele><time>2026-04-04T11:14:58.005Z</time></trkpt><trkpt lat="44.1259983" lon="11.9750183"><ele>97.0</ele><time>2026-04-04T11:14:59.007Z</time></trkpt><trkpt lat="44.1258052" lon="11.9749706"><ele>100.33333333333334</ele><time>2026-04-04T11:15:00.005Z</time></trkpt><trkpt lat="44.1256149" lon="11.9749214"><ele>103.66666666666666</ele><time>2026-04-04T11:15:01.006Z</time></trkpt><trkpt lat="44.1254238" lon="11.9748763"><ele>107.0</ele><time>2026-04-04T11:15:02.007Z</time></trkpt><trkpt lat="44.1252309" lon="11.9748288"><ele>107.0</ele><time>2026-04-04T11:15:03.007Z</time></trkpt><trkpt lat="44.1250403" lon="11.9747808"><ele>107.0</ele><time>2026-04-04T11:15:04.006Z</time></trkpt><trkpt lat="44.124868" lon="11.974734"><ele>107.0</ele><time>2026-04-04T11:15:05.008Z</time></trkpt><trkpt lat="44.1247151" lon="11.9746824"><ele>107.75</ele><time>2026-04-04T11:15:06.007Z</time></trkpt><trkpt lat="44.1245779" lon="11.9746316"><ele>108.5</ele><time>2026-04-04T11:15:07.005Z</time></trkpt><trkpt lat="44.1244541" lon="11.9745854"><ele>109.25</ele><time>2026-04-04T11:15:08.008Z</time></trkpt><trkpt lat="44.1243401" lon="11.9745504"><ele>110.0</ele><time>2026-04-04T11:15:09.007Z</time></trkpt><trkpt lat="44.1242329" lon="11.9745235"><ele>110.0</ele><time>2026-04-04T11:15:10.007Z</time></trkpt><trkpt lat="44.1241292" lon="11.9745064"><ele>110.0</ele><time>2026-04-04T11:15:11.008Z</time></trkpt><trkpt lat="44.1240258" lon="11.9745003"><ele>110.0</ele><time>2026-04-04T11:15:12.005Z</time></trkpt><trkpt lat="44.1239184" lon="11.9745007"><ele>110.0</ele><time>2026-04-04T11:15:13.007Z</time></trkpt><trkpt lat="44.1238061" lon="11.9745053"><ele>110.0</ele><time>2026-04-04T11:15:14.008Z</time></trkpt><trkpt lat="44.12369" lon="11.9745119"><ele>108.25</ele><time>2026-04-04T11:15:15.008Z</time></trkpt><trkpt lat="44.1235637" lon="11.9745235"><ele>106.5</ele><time>2026-04-04T11:15:16.007Z</time></trkpt><trkpt lat="44.123425" lon="11.9745354"><ele>104.75</ele><time>2026-04-04T11:15:17.007Z</time></trkpt><trkpt lat="44.1232778" lon="11.974547"><ele>103.0</ele><time>2026-04-04T11:15:18.007Z</time></trkpt><trkpt lat="44.1231222" lon="11.9745609"><ele>103.0</ele><time>2026-04-04T11:15:19.007Z</time></trkpt><trkpt lat="44.1229574" lon="11.9745726"><ele>103.0</ele><time>2026-04-04T11:15:20.006Z</time></trkpt><trkpt lat="44.1227842" lon="11.9745716"><ele>103.0</ele><time>2026-04-04T11:15:21.007Z</time></trkpt><trkpt lat="44.1226026" lon="11.9745472"><ele>103.0</ele><time>2026-04-04T11:15:22.007Z</time></trkpt><trkpt lat="44.1224051" lon="11.9744987"><ele>103.0</ele><time>2026-04-04T11:15:23.006Z</time></trkpt><trkpt lat="44.1221877" lon="11.9744309"><ele>103.0</ele><time>2026-04-04T11:15:24.005Z</time></trkpt><trkpt lat="44.1219517" lon="11.9743648"><ele>103.5</ele><time>2026-04-04T11:15:25.005Z</time></trkpt><trkpt lat="44.1217072" lon="11.9743136"><ele>104.0</ele><time>2026-04-04T11:15:26.008Z</time></trkpt><trkpt lat="44.1214662" lon="11.9742782"><ele>104.33333333333333</ele><time>2026-04-04T11:15:27.005Z</time></trkpt><trkpt lat="44.1212356" lon="11.9742596"><ele>104.66666666666666</ele><time>2026-04-04T11:15:28.006Z</time></trkpt><trkpt lat="44.1210177" lon="11.974258"><ele>105.0</ele><time>2026-04-04T11:15:29.006Z</time></trkpt><trkpt lat="44.1208096" lon="11.9742821"><ele>105.0</ele><time>2026-04-04T11:15:30.007Z</time></trkpt><trkpt lat="44.1206183" lon="11.9743394"><ele>105.0</ele><time>2026-04-04T11:15:31.007Z</time></trkpt><trkpt lat="44.1204441" lon="11.9744294"><ele>105.0</ele><time>2026-04-04T11:15:32.01Z</time></trkpt><trkpt lat="44.1202884" lon="11.974545"><ele>105.0</ele><time>2026-04-04T11:15:33.006Z</time></trkpt><trkpt lat="44.1201509" lon="11.9746827"><ele>105.0</ele><time>2026-04-04T11:15:34.007Z</time></trkpt><trkpt lat="44.1200243" lon="11.9748433"><ele>105.0</ele><time>2026-04-04T11:15:35.005Z</time></trkpt><trkpt lat="44.1198921" lon="11.9750172"><ele>107.0</ele><time>2026-04-04T11:15:36.006Z</time></trkpt><trkpt lat="44.1197573" lon="11.9751921"><ele>109.0</ele><time>2026-04-04T11:15:37.006Z</time></trkpt><trkpt lat="44.1196282" lon="11.9753573"><ele>111.0</ele><time>2026-04-04T11:15:38.006Z</time></trkpt><trkpt lat="44.1195143" lon="11.9755141"><ele>111.0</ele><time>2026-04-04T11:15:39.009Z</time></trkpt><trkpt lat="44.1194207" lon="11.9756716"><ele>111.0</ele><time>2026-04-04T11:15:40.006Z</time></trkpt><trkpt lat="44.1193515" lon="11.9758412"><ele>111.0</ele><time>2026-04-04T11:15:41.006Z</time></trkpt><trkpt lat="44.1192913" lon="11.9760226"><ele>111.0</ele><time>2026-04-04T11:15:42.009Z</time></trkpt><trkpt lat="44.1192277" lon="11.9761989"><ele>110.25</ele><time>2026-04-04T11:15:43.007Z</time></trkpt><trkpt lat="44.1191489" lon="11.976359"><ele>109.5</ele><time>2026-04-04T11:15:44.006Z</time></trkpt><trkpt lat="44.1190453" lon="11.9764895"><ele>108.75</ele><time>2026-04-04T11:15:45.007Z</time></trkpt><trkpt lat="44.1189172" lon="11.9765763"><ele>108.0</ele><time>2026-04-04T11:15:46.007Z</time></trkpt><trkpt lat="44.1187761" lon="11.9766104"><ele>108.0</ele><time>2026-04-04T11:15:47.007Z</time></trkpt><trkpt lat="44.1186295" lon="11.9765957"><ele>108.0</ele><time>2026-04-04T11:15:48.008Z</time></trkpt><trkpt lat="44.1184789" lon="11.976553"><ele>108.0</ele><time>2026-04-04T11:15:49.007Z</time></trkpt><trkpt lat="44.1183275" lon="11.9765024"><ele>107.66666666666666</ele><time>2026-04-04T11:15:50.007Z</time></trkpt><trkpt lat="44.1181738" lon="11.9764501"><ele>107.33333333333333</ele><time>2026-04-04T11:15:51.007Z</time></trkpt><trkpt lat="44.1180186" lon="11.9763959"><ele>107.0</ele><time>2026-04-04T11:15:52.006Z</time></trkpt><trkpt lat="44.1178593" lon="11.9763441"><ele>107.0</ele><time>2026-04-04T11:15:53.006Z</time></trkpt><trkpt lat="44.1177" lon="11.9762924"><ele>107.0</ele><time>2026-04-04T11:15:54.007Z</time></trkpt><trkpt lat="44.1175342" lon="11.9762447"><ele>107.0</ele><time>2026-04-04T11:15:55.008Z</time></trkpt><trkpt lat="44.1173657" lon="11.9761994"><ele>106.0</ele><time>2026-04-04T11:15:56.006Z</time></trkpt><trkpt lat="44.117194" lon="11.9761534"><ele>105.0</ele><time>2026-04-04T11:15:57.007Z</time></trkpt><trkpt lat="44.1170204" lon="11.9761043"><ele>104.0</ele><time>2026-04-04T11:15:58.006Z</time></trkpt><trkpt lat="44.1168456" lon="11.9760543"><ele>104.0</ele><time>2026-04-04T11:15:59.006Z</time></trkpt><trkpt lat="44.1166681" lon="11.9760086"><ele>104.0</ele><time>2026-04-04T11:16:00.008Z</time></trkpt><trkpt lat="44.1164831" lon="11.9759831"><ele>104.0</ele><time>2026-04-04T11:16:01.008Z</time></trkpt><trkpt lat="44.1162957" lon="11.9759875"><ele>104.0</ele><time>2026-04-04T11:16:02.007Z</time></trkpt><trkpt lat="44.1161153" lon="11.9760279"><ele>104.0</ele><time>2026-04-04T11:16:03.009Z</time></trkpt><trkpt lat="44.115947" lon="11.9760995"><ele>104.0</ele><time>2026-04-04T11:16:04.006Z</time></trkpt><trkpt lat="44.1157989" lon="11.9761878"><ele>109.0</ele><time>2026-04-04T11:16:05.006Z</time></trkpt><trkpt lat="44.1156649" lon="11.9762913"><ele>114.0</ele><time>2026-04-04T11:16:06.009Z</time></trkpt><trkpt lat="44.1155449" lon="11.9764134"><ele>119.0</ele><time>2026-04-04T11:16:07.007Z</time></trkpt><trkpt lat="44.1154345" lon="11.9765527"><ele>119.0</ele><time>2026-04-04T11:16:08.007Z</time></trkpt><trkpt lat="44.115337" lon="11.9767152"><ele>119.0</ele><time>2026-04-04T11:16:09.007Z</time></trkpt><trkpt lat="44.1152472" lon="11.9768951"><ele>119.0</ele><time>2026-04-04T11:16:10.007Z</time></trkpt><trkpt lat="44.1151681" lon="11.9770884"><ele>119.0</ele><time>2026-04-04T11:16:11.007Z</time></trkpt><trkpt lat="44.1151063" lon="11.977294"><ele>119.0</ele><time>2026-04-04T11:16:12.007Z</time></trkpt><trkpt lat="44.1150635" lon="11.9775124"><ele>119.0</ele><time>2026-04-04T11:16:13.007Z</time></trkpt><trkpt lat="44.1150342" lon="11.9777371"><ele>119.0</ele><time>2026-04-04T11:16:14.007Z</time></trkpt><trkpt lat="44.1150104" lon="11.9779708"><ele>119.0</ele><time>2026-04-04T11:16:15.007Z</time></trkpt><trkpt lat="44.1149949" lon="11.978203"><ele>119.0</ele><time>2026-04-04T11:16:16.006Z</time></trkpt><trkpt lat="44.1149776" lon="11.9784293"><ele>118.66666666666666</ele><time>2026-04-04T11:16:17.006Z</time></trkpt><trkpt lat="44.1149121" lon="11.9786488"><ele>118.33333333333334</ele><time>2026-04-04T11:16:18.007Z</time></trkpt><trkpt lat="44.1148472" lon="11.9788485"><ele>118.0</ele><time>2026-04-04T11:16:19.005Z</time></trkpt><trkpt lat="44.1147664" lon="11.979035"><ele>116.33333333333334</ele><time>2026-04-04T11:16:20.009Z</time></trkpt><trkpt lat="44.1146629" lon="11.9791859"><ele>114.66666666666666</ele><time>2026-04-04T11:16:21.007Z</time></trkpt><trkpt lat="44.1145362" lon="11.9793078"><ele>113.0</ele><time>2026-04-04T11:16:22.007Z</time></trkpt><trkpt lat="44.1143914" lon="11.9793951"><ele>113.0</ele><time>2026-04-04T11:16:23.008Z</time></trkpt><trkpt lat="44.1142368" lon="11.9794385"><ele>113.0</ele><time>2026-04-04T11:16:24.007Z</time></trkpt><trkpt lat="44.1140726" lon="11.9794397"><ele>113.0</ele><time>2026-04-04T11:16:25.008Z</time></trkpt><trkpt lat="44.113901" lon="11.9794062"><ele>113.0</ele><time>2026-04-04T11:16:26.007Z</time></trkpt><trkpt lat="44.1137257" lon="11.9793501"><ele>113.0</ele><time>2026-04-04T11:16:27.009Z</time></trkpt><trkpt lat="44.1135489" lon="11.979287"><ele>113.0</ele><time>2026-04-04T11:16:28.007Z</time></trkpt><trkpt lat="44.1133725" lon="11.9792237"><ele>114.0</ele><time>2026-04-04T11:16:29.006Z</time></trkpt><trkpt lat="44.1131945" lon="11.9791624"><ele>115.0</ele><time>2026-04-04T11:16:30.006Z</time></trkpt><trkpt lat="44.1130214" lon="11.9791023"><ele>116.0</ele><time>2026-04-04T11:16:31.005Z</time></trkpt><trkpt lat="44.1128579" lon="11.9790461"><ele>116.0</ele><time>2026-04-04T11:16:32.005Z</time></trkpt><trkpt lat="44.1127006" lon="11.9789885"><ele>116.0</ele><time>2026-04-04T11:16:33.008Z</time></trkpt><trkpt lat="44.1125504" lon="11.9789375"><ele>116.0</ele><time>2026-04-04T11:16:34.01Z</time></trkpt><trkpt lat="44.1123986" lon="11.9788914"><ele>115.0</ele><time>2026-04-04T11:16:35.007Z</time></trkpt><trkpt lat="44.1120826" lon="11.9788533"><ele>114.0</ele><time>2026-04-04T11:16:37.009Z</time></trkpt><trkpt lat="44.1119234" lon="11.9788712"><ele>114.0</ele><time>2026-04-04T11:16:38.007Z</time></trkpt><trkpt lat="44.1117632" lon="11.978899"><ele>114.0</ele><time>2026-04-04T11:16:39.008Z</time></trkpt><trkpt lat="44.111604" lon="11.9789298"><ele>114.0</ele><time>2026-04-04T11:16:40.01Z</time></trkpt><trkpt lat="44.1114468" lon="11.9789567"><ele>115.0</ele><time>2026-04-04T11:16:41.008Z</time></trkpt><trkpt lat="44.1112923" lon="11.978985"><ele>116.0</ele><time>2026-04-04T11:16:42.009Z</time></trkpt><trkpt lat="44.1111455" lon="11.9790295"><ele>117.0</ele><time>2026-04-04T11:16:43.007Z</time></trkpt><trkpt lat="44.1110114" lon="11.979101"><ele>116.75</ele><time>2026-04-04T11:16:44.009Z</time></trkpt><trkpt lat="44.1108906" lon="11.9792023"><ele>116.5</ele><time>2026-04-04T11:16:45.008Z</time></trkpt><trkpt lat="44.1107778" lon="11.979329"><ele>116.25</ele><time>2026-04-04T11:16:46.009Z</time></trkpt><trkpt lat="44.1106727" lon="11.9794716"><ele>116.0</ele><time>2026-04-04T11:16:47.009Z</time></trkpt><trkpt lat="44.1105679" lon="11.9796249"><ele>117.33333333333333</ele><time>2026-04-04T11:16:48.008Z</time></trkpt><trkpt lat="44.1104659" lon="11.9797839"><ele>118.66666666666666</ele><time>2026-04-04T11:16:49.008Z</time></trkpt><trkpt lat="44.1103647" lon="11.9799442"><ele>120.0</ele><time>2026-04-04T11:16:50.009Z</time></trkpt><trkpt lat="44.1102601" lon="11.9801011"><ele>120.0</ele><time>2026-04-04T11:16:51.009Z</time></trkpt><trkpt lat="44.11016" lon="11.9802495"><ele>120.0</ele><time>2026-04-04T11:16:52.009Z</time></trkpt><trkpt lat="44.1100664" lon="11.9803852"><ele>120.0</ele><time>2026-04-04T11:16:53.008Z</time></trkpt><trkpt lat="44.1099776" lon="11.9805021"><ele>120.0</ele><time>2026-04-04T11:16:54.009Z</time></trkpt><trkpt lat="44.1098747" lon="11.9805953"><ele>121.75</ele><time>2026-04-04T11:16:55.009Z</time></trkpt><trkpt lat="44.1097594" lon="11.9806677"><ele>123.5</ele><time>2026-04-04T11:16:56.007Z</time></trkpt><trkpt lat="44.1096392" lon="11.9807189"><ele>125.25</ele><time>2026-04-04T11:16:57.008Z</time></trkpt><trkpt lat="44.1095201" lon="11.9807558"><ele>127.0</ele><time>2026-04-04T11:16:58.007Z</time></trkpt><trkpt lat="44.1094071" lon="11.9807826"><ele>127.0</ele><time>2026-04-04T11:16:59.008Z</time></trkpt><trkpt lat="44.1092993" lon="11.9808061"><ele>126.99999999999999</ele><time>2026-04-04T11:17:00.008Z</time></trkpt><trkpt lat="44.1091913" lon="11.9808339"><ele>126.99999999999999</ele><time>2026-04-04T11:17:01.009Z</time></trkpt><trkpt lat="44.1090807" lon="11.9808676"><ele>127.0</ele><time>2026-04-04T11:17:02.006Z</time></trkpt><trkpt lat="44.1089727" lon="11.9809056"><ele>127.0</ele><time>2026-04-04T11:17:03.011Z</time></trkpt><trkpt lat="44.1088662" lon="11.9809409"><ele>126.75</ele><time>2026-04-04T11:17:04.009Z</time></trkpt><trkpt lat="44.1087595" lon="11.9809764"><ele>126.5</ele><time>2026-04-04T11:17:05.008Z</time></trkpt><trkpt lat="44.1086491" lon="11.9810042"><ele>126.25</ele><time>2026-04-04T11:17:06.008Z</time></trkpt><trkpt lat="44.1085374" lon="11.9810355"><ele>126.0</ele><time>2026-04-04T11:17:07.009Z</time></trkpt><trkpt lat="44.1084182" lon="11.9810772"><ele>126.0</ele><time>2026-04-04T11:17:08.007Z</time></trkpt><trkpt lat="44.1082647" lon="11.9811074"><ele>126.0</ele><time>2026-04-04T11:17:09.01Z</time></trkpt><trkpt lat="44.1080938" lon="11.9811425"><ele>126.0</ele><time>2026-04-04T11:17:10.008Z</time></trkpt><trkpt lat="44.1079262" lon="11.9811795"><ele>126.5</ele><time>2026-04-04T11:17:11.007Z</time></trkpt><trkpt lat="44.1077715" lon="11.9812168"><ele>127.0</ele><time>2026-04-04T11:17:12.009Z</time></trkpt><trkpt lat="44.1076264" lon="11.9812544"><ele>127.5</ele><time>2026-04-04T11:17:13.008Z</time></trkpt><trkpt lat="44.1074942" lon="11.9812885"><ele>128.0</ele><time>2026-04-04T11:17:14.007Z</time></trkpt><trkpt lat="44.1073723" lon="11.9813192"><ele>128.20000000000002</ele><time>2026-04-04T11:17:15.011Z</time></trkpt><trkpt lat="44.1072609" lon="11.98135"><ele>128.4</ele><time>2026-04-04T11:17:16.007Z</time></trkpt><trkpt lat="44.107159" lon="11.9813859"><ele>128.60000000000002</ele><time>2026-04-04T11:17:17.008Z</time></trkpt><trkpt lat="44.1070682" lon="11.9814122"><ele>128.8</ele><time>2026-04-04T11:17:18.009Z</time></trkpt><trkpt lat="44.10699" lon="11.9814348"><ele>129.0</ele><time>2026-04-04T11:17:19.008Z</time></trkpt><trkpt lat="44.1069134" lon="11.9814607"><ele>129.0</ele><time>2026-04-04T11:17:20.009Z</time></trkpt><trkpt lat="44.1068321" lon="11.9814815"><ele>129.0</ele><time>2026-04-04T11:17:21.009Z</time></trkpt><trkpt lat="44.1067465" lon="11.9815029"><ele>129.0</ele><time>2026-04-04T11:17:22.007Z</time></trkpt><trkpt lat="44.1066633" lon="11.9815368"><ele>129.0</ele><time>2026-04-04T11:17:23.009Z</time></trkpt><trkpt lat="44.1065831" lon="11.9815635"><ele>129.0</ele><time>2026-04-04T11:17:24.007Z</time></trkpt><trkpt lat="44.106508" lon="11.9815819"><ele>129.0</ele><time>2026-04-04T11:17:25.008Z</time></trkpt><trkpt lat="44.1064362" lon="11.9815979"><ele>129.0</ele><time>2026-04-04T11:17:26.007Z</time></trkpt><trkpt lat="44.1063597" lon="11.9816058"><ele>129.0</ele><time>2026-04-04T11:17:27.008Z</time></trkpt><trkpt lat="44.1062784" lon="11.9816216"><ele>129.0</ele><time>2026-04-04T11:17:28.009Z</time></trkpt><trkpt lat="44.1061922" lon="11.9816348"><ele>129.0</ele><time>2026-04-04T11:17:29.008Z</time></trkpt><trkpt lat="44.1061076" lon="11.9816417"><ele>129.0</ele><time>2026-04-04T11:17:30.008Z</time></trkpt><trkpt lat="44.1060261" lon="11.9816407"><ele>129.0</ele><time>2026-04-04T11:17:31.012Z</time></trkpt><trkpt lat="44.1059448" lon="11.9816357"><ele>129.0</ele><time>2026-04-04T11:17:32.01Z</time></trkpt><trkpt lat="44.1058591" lon="11.9816249"><ele>129.0</ele><time>2026-04-04T11:17:33.008Z</time></trkpt><trkpt lat="44.1057743" lon="11.9816128"><ele>129.0</ele><time>2026-04-04T11:17:34.008Z</time></trkpt><trkpt lat="44.1056953" lon="11.9816074"><ele>129.0</ele><time>2026-04-04T11:17:35.009Z</time></trkpt><trkpt lat="44.1056179" lon="11.9816113"><ele>129.0</ele><time>2026-04-04T11:17:36.01Z</time></trkpt><trkpt lat="44.1055384" lon="11.9816126"><ele>129.0</ele><time>2026-04-04T11:17:37.008Z</time></trkpt><trkpt lat="44.1054542" lon="11.9816093"><ele>129.0</ele><time>2026-04-04T11:17:38.008Z</time></trkpt><trkpt lat="44.105366" lon="11.9816"><ele>129.0</ele><time>2026-04-04T11:17:39.008Z</time></trkpt><trkpt lat="44.105277" lon="11.9815872"><ele>129.0</ele><time>2026-04-04T11:17:40.007Z</time></trkpt><trkpt lat="44.1051856" lon="11.9815861"><ele>129.0</ele><time>2026-04-04T11:17:41.009Z</time></trkpt><trkpt lat="44.1050938" lon="11.9815845"><ele>129.0</ele><time>2026-04-04T11:17:42.008Z</time></trkpt><trkpt lat="44.1050019" lon="11.9815792"><ele>129.4</ele><time>2026-04-04T11:17:43.006Z</time></trkpt><trkpt lat="44.1049104" lon="11.9815763"><ele>129.8</ele><time>2026-04-04T11:17:44.006Z</time></trkpt><trkpt lat="44.1048189" lon="11.981566"><ele>130.2</ele><time>2026-04-04T11:17:45.006Z</time></trkpt><trkpt lat="44.1047284" lon="11.9815512"><ele>130.6</ele><time>2026-04-04T11:17:46.008Z</time></trkpt><trkpt lat="44.1046383" lon="11.9815361"><ele>131.0</ele><time>2026-04-04T11:17:47.006Z</time></trkpt><trkpt lat="44.1045457" lon="11.9815358"><ele>131.0</ele><time>2026-04-04T11:17:48.008Z</time></trkpt><trkpt lat="44.1044504" lon="11.9815429"><ele>131.0</ele><time>2026-04-04T11:17:49.008Z</time></trkpt><trkpt lat="44.1043454" lon="11.981553"><ele>131.0</ele><time>2026-04-04T11:17:50.006Z</time></trkpt><trkpt lat="44.1042362" lon="11.9815481"><ele>131.0</ele><time>2026-04-04T11:17:51.008Z</time></trkpt><trkpt lat="44.1041217" lon="11.9815414"><ele>131.0</ele><time>2026-04-04T11:17:52.009Z</time></trkpt><trkpt lat="44.1040018" lon="11.9815336"><ele>131.25</ele><time>2026-04-04T11:17:53.005Z</time></trkpt><trkpt lat="44.1038784" lon="11.9815311"><ele>131.5</ele><time>2026-04-04T11:17:54.006Z</time></trkpt><trkpt lat="44.1037571" lon="11.9815306"><ele>131.75</ele><time>2026-04-04T11:17:55.006Z</time></trkpt><trkpt lat="44.1036354" lon="11.9815316"><ele>132.0</ele><time>2026-04-04T11:17:56.009Z</time></trkpt><trkpt lat="44.1035139" lon="11.9815329"><ele>132.0</ele><time>2026-04-04T11:17:57.007Z</time></trkpt><trkpt lat="44.103395" lon="11.9815334"><ele>132.0</ele><time>2026-04-04T11:17:58.005Z</time></trkpt><trkpt lat="44.1032732" lon="11.9815318"><ele>132.0</ele><time>2026-04-04T11:17:59.005Z</time></trkpt><trkpt lat="44.103149" lon="11.9815301"><ele>132.0</ele><time>2026-04-04T11:18:00.008Z</time></trkpt><trkpt lat="44.1030344" lon="11.981529"><ele>132.0</ele><time>2026-04-04T11:18:01.006Z</time></trkpt><trkpt lat="44.1029236" lon="11.9815299"><ele>132.0</ele><time>2026-04-04T11:18:02.006Z</time></trkpt><trkpt lat="44.1028193" lon="11.9815305"><ele>132.0</ele><time>2026-04-04T11:18:03.01Z</time></trkpt><trkpt lat="44.1027195" lon="11.9815187"><ele>132.0</ele><time>2026-04-04T11:18:04.006Z</time></trkpt><trkpt lat="44.1026213" lon="11.98151"><ele>132.0</ele><time>2026-04-04T11:18:05.005Z</time></trkpt><trkpt lat="44.1025218" lon="11.9814964"><ele>132.0</ele><time>2026-04-04T11:18:06.005Z</time></trkpt><trkpt lat="44.1024232" lon="11.9814839"><ele>132.0</ele><time>2026-04-04T11:18:07.005Z</time></trkpt><trkpt lat="44.1023237" lon="11.9814731"><ele>132.0</ele><time>2026-04-04T11:18:08.006Z</time></trkpt><trkpt lat="44.1022223" lon="11.9814609"><ele>132.0</ele><time>2026-04-04T11:18:09.009Z</time></trkpt><trkpt lat="44.1021176" lon="11.9814397"><ele>132.0</ele><time>2026-04-04T11:18:10.006Z</time></trkpt><trkpt lat="44.1020094" lon="11.9814083"><ele>133.0</ele><time>2026-04-04T11:18:11.005Z</time></trkpt><trkpt lat="44.1018979" lon="11.9813732"><ele>134.0</ele><time>2026-04-04T11:18:12.007Z</time></trkpt><trkpt lat="44.1017826" lon="11.9813364"><ele>135.0</ele><time>2026-04-04T11:18:13.014Z</time></trkpt><trkpt lat="44.1016635" lon="11.9813035"><ele>136.0</ele><time>2026-04-04T11:18:14.009Z</time></trkpt><trkpt lat="44.1015413" lon="11.9812731"><ele>136.5</ele><time>2026-04-04T11:18:15.007Z</time></trkpt><trkpt lat="44.1014162" lon="11.9812424"><ele>137.0</ele><time>2026-04-04T11:18:16.006Z</time></trkpt><trkpt lat="44.1012868" lon="11.9812137"><ele>137.5</ele><time>2026-04-04T11:18:17.005Z</time></trkpt><trkpt lat="44.101153" lon="11.9811785"><ele>138.0</ele><time>2026-04-04T11:18:18.006Z</time></trkpt><trkpt lat="44.1010146" lon="11.9811428"><ele>138.0</ele><time>2026-04-04T11:18:19.007Z</time></trkpt><trkpt lat="44.1008778" lon="11.9811012"><ele>138.0</ele><time>2026-04-04T11:18:20.007Z</time></trkpt><trkpt lat="44.1007369" lon="11.9810558"><ele>138.0</ele><time>2026-04-04T11:18:21.008Z</time></trkpt><trkpt lat="44.1005975" lon="11.9810085"><ele>138.0</ele><time>2026-04-04T11:18:22.01Z</time></trkpt><trkpt lat="44.1004538" lon="11.9809691"><ele>137.66666666666666</ele><time>2026-04-04T11:18:23.008Z</time></trkpt><trkpt lat="44.100305" lon="11.9809662"><ele>137.33333333333331</ele><time>2026-04-04T11:18:24.006Z</time></trkpt><trkpt lat="44.1001425" lon="11.9809891"><ele>137.0</ele><time>2026-04-04T11:18:25.008Z</time></trkpt><trkpt lat="44.0999664" lon="11.981022"><ele>138.66666666666666</ele><time>2026-04-04T11:18:26.007Z</time></trkpt><trkpt lat="44.0997688" lon="11.9810527"><ele>140.33333333333334</ele><time>2026-04-04T11:18:27.008Z</time></trkpt><trkpt lat="44.0995615" lon="11.9810856"><ele>142.0</ele><time>2026-04-04T11:18:28.009Z</time></trkpt><trkpt lat="44.099345" lon="11.9811243"><ele>142.0</ele><time>2026-04-04T11:18:29.006Z</time></trkpt><trkpt lat="44.0991235" lon="11.9811636"><ele>142.0</ele><time>2026-04-04T11:18:30.007Z</time></trkpt><trkpt lat="44.0989005" lon="11.9812041"><ele>142.0</ele><time>2026-04-04T11:18:31.008Z</time></trkpt><trkpt lat="44.0986901" lon="11.9812408"><ele>142.0</ele><time>2026-04-04T11:18:32.009Z</time></trkpt><trkpt lat="44.0984937" lon="11.9812758"><ele>142.0</ele><time>2026-04-04T11:18:33.007Z</time></trkpt><trkpt lat="44.0983023" lon="11.9813112"><ele>142.0</ele><time>2026-04-04T11:18:34.01Z</time></trkpt><trkpt lat="44.0981183" lon="11.9813426"><ele>142.33333333333334</ele><time>2026-04-04T11:18:35.007Z</time></trkpt><trkpt lat="44.0979383" lon="11.9813756"><ele>142.66666666666666</ele><time>2026-04-04T11:18:36.008Z</time></trkpt><trkpt lat="44.0977603" lon="11.9814125"><ele>143.0</ele><time>2026-04-04T11:18:37.006Z</time></trkpt><trkpt lat="44.0975836" lon="11.9814457"><ele>143.66666666666666</ele><time>2026-04-04T11:18:38.007Z</time></trkpt><trkpt lat="44.0974096" lon="11.981461"><ele>144.33333333333334</ele><time>2026-04-04T11:18:39.01Z</time></trkpt><trkpt lat="44.0972345" lon="11.9814647"><ele>145.0</ele><time>2026-04-04T11:18:40.006Z</time></trkpt><trkpt lat="44.097062" lon="11.9814511"><ele>145.0</ele><time>2026-04-04T11:18:41.005Z</time></trkpt><trkpt lat="44.0968905" lon="11.9814245"><ele>145.0</ele><time>2026-04-04T11:18:42.007Z</time></trkpt><trkpt lat="44.0967203" lon="11.9813779"><ele>145.0</ele><time>2026-04-04T11:18:43.013Z</time></trkpt><trkpt lat="44.0965513" lon="11.9813148"><ele>145.33333333333334</ele><time>2026-04-04T11:18:44.007Z</time></trkpt><trkpt lat="44.0963847" lon="11.9812268"><ele>145.66666666666666</ele><time>2026-04-04T11:18:45.007Z</time></trkpt><trkpt lat="44.0962183" lon="11.9811256"><ele>146.0</ele><time>2026-04-04T11:18:46.008Z</time></trkpt><trkpt lat="44.0960509" lon="11.9810064"><ele>146.0</ele><time>2026-04-04T11:18:47.007Z</time></trkpt><trkpt lat="44.0958815" lon="11.9808888"><ele>146.0</ele><time>2026-04-04T11:18:48.008Z</time></trkpt><trkpt lat="44.095714" lon="11.9807716"><ele>146.0</ele><time>2026-04-04T11:18:49.007Z</time></trkpt><trkpt lat="44.0955488" lon="11.9806512"><ele>146.66666666666666</ele><time>2026-04-04T11:18:50.007Z</time></trkpt><trkpt lat="44.0953875" lon="11.9805266"><ele>147.33333333333334</ele><time>2026-04-04T11:18:51.009Z</time></trkpt><trkpt lat="44.0952274" lon="11.9804032"><ele>148.0</ele><time>2026-04-04T11:18:52.006Z</time></trkpt><trkpt lat="44.0950661" lon="11.9802756"><ele>148.0</ele><time>2026-04-04T11:18:53.006Z</time></trkpt><trkpt lat="44.0948995" lon="11.9801504"><ele>148.0</ele><time>2026-04-04T11:18:54.007Z</time></trkpt><trkpt lat="44.0947283" lon="11.980014"><ele>148.0</ele><time>2026-04-04T11:18:55.007Z</time></trkpt><trkpt lat="44.0945535" lon="11.9798831"><ele>148.0</ele><time>2026-04-04T11:18:56.006Z</time></trkpt><trkpt lat="44.0943815" lon="11.9797599"><ele>148.0</ele><time>2026-04-04T11:18:57.011Z</time></trkpt><trkpt lat="44.0942236" lon="11.979642"><ele>148.0</ele><time>2026-04-04T11:18:58.006Z</time></trkpt><trkpt lat="44.0940743" lon="11.9795383"><ele>148.0</ele><time>2026-04-04T11:18:59.007Z</time></trkpt><trkpt lat="44.0939263" lon="11.9794479"><ele>148.0</ele><time>2026-04-04T11:19:00.007Z</time></trkpt><trkpt lat="44.0937663" lon="11.9793798"><ele>148.0</ele><time>2026-04-04T11:19:01.008Z</time></trkpt><trkpt lat="44.0935892" lon="11.9793576"><ele>148.0</ele><time>2026-04-04T11:19:02.007Z</time></trkpt><trkpt lat="44.0933995" lon="11.979385"><ele>148.0</ele><time>2026-04-04T11:19:03.009Z</time></trkpt><trkpt lat="44.0932041" lon="11.9794405"><ele>148.0</ele><time>2026-04-04T11:19:04.006Z</time></trkpt><trkpt lat="44.0930034" lon="11.9795044"><ele>149.66666666666669</ele><time>2026-04-04T11:19:05.006Z</time></trkpt><trkpt lat="44.0927976" lon="11.9795699"><ele>151.33333333333334</ele><time>2026-04-04T11:19:06.007Z</time></trkpt><trkpt lat="44.092587" lon="11.979641"><ele>153.0</ele><time>2026-04-04T11:19:07.009Z</time></trkpt><trkpt lat="44.0923691" lon="11.9797185"><ele>153.0</ele><time>2026-04-04T11:19:08.01Z</time></trkpt><trkpt lat="44.0921474" lon="11.9797932"><ele>153.0</ele><time>2026-04-04T11:19:09.007Z</time></trkpt><trkpt lat="44.0919233" lon="11.9798662"><ele>153.0</ele><time>2026-04-04T11:19:10.008Z</time></trkpt><trkpt lat="44.0917033" lon="11.9799315"><ele>153.0</ele><time>2026-04-04T11:19:11.008Z</time></trkpt><trkpt lat="44.0914872" lon="11.9799885"><ele>153.0</ele><time>2026-04-04T11:19:12.008Z</time></trkpt><trkpt lat="44.0912746" lon="11.9800407"><ele>150.33333333333334</ele><time>2026-04-04T11:19:13.006Z</time></trkpt><trkpt lat="44.0910657" lon="11.9800771"><ele>147.66666666666669</ele><time>2026-04-04T11:19:14.007Z</time></trkpt><trkpt lat="44.0908614" lon="11.980083"><ele>145.0</ele><time>2026-04-04T11:19:15.008Z</time></trkpt><trkpt lat="44.0906622" lon="11.9800532"><ele>147.0</ele><time>2026-04-04T11:19:16.006Z</time></trkpt><trkpt lat="44.090464" lon="11.9799906"><ele>149.0</ele><time>2026-04-04T11:19:17.007Z</time></trkpt><trkpt lat="44.0902632" lon="11.979902"><ele>151.0</ele><time>2026-04-04T11:19:18.006Z</time></trkpt><trkpt lat="44.0900627" lon="11.979802"><ele>150.0</ele><time>2026-04-04T11:19:19.006Z</time></trkpt><trkpt lat="44.0898666" lon="11.979699"><ele>149.0</ele><time>2026-04-04T11:19:20.008Z</time></trkpt><trkpt lat="44.0896785" lon="11.9796015"><ele>148.0</ele><time>2026-04-04T11:19:21.008Z</time></trkpt><trkpt lat="44.0895003" lon="11.9795116"><ele>148.0</ele><time>2026-04-04T11:19:22.01Z</time></trkpt><trkpt lat="44.08933" lon="11.9794222"><ele>148.0</ele><time>2026-04-04T11:19:23.007Z</time></trkpt><trkpt lat="44.0891637" lon="11.9793339"><ele>148.0</ele><time>2026-04-04T11:19:24.007Z</time></trkpt><trkpt lat="44.0890007" lon="11.9792494"><ele>150.66666666666669</ele><time>2026-04-04T11:19:25.007Z</time></trkpt><trkpt lat="44.0888408" lon="11.9791611"><ele>153.33333333333334</ele><time>2026-04-04T11:19:26.005Z</time></trkpt><trkpt lat="44.0886824" lon="11.979069"><ele>156.0</ele><time>2026-04-04T11:19:27.01Z</time></trkpt><trkpt lat="44.0885249" lon="11.9789761"><ele>156.0</ele><time>2026-04-04T11:19:28.01Z</time></trkpt><trkpt lat="44.0883698" lon="11.9788797"><ele>156.0</ele><time>2026-04-04T11:19:29.007Z</time></trkpt><trkpt lat="44.0882134" lon="11.9787842"><ele>156.0</ele><time>2026-04-04T11:19:30.009Z</time></trkpt><trkpt lat="44.0880597" lon="11.9786878"><ele>155.0</ele><time>2026-04-04T11:19:31.009Z</time></trkpt><trkpt lat="44.0879068" lon="11.9785917"><ele>154.0</ele><time>2026-04-04T11:19:32.012Z</time></trkpt><trkpt lat="44.0877554" lon="11.9784939"><ele>153.0</ele><time>2026-04-04T11:19:33.008Z</time></trkpt><trkpt lat="44.0876062" lon="11.9784007"><ele>153.33333333333334</ele><time>2026-04-04T11:19:34.007Z</time></trkpt><trkpt lat="44.0874582" lon="11.9783152"><ele>153.66666666666669</ele><time>2026-04-04T11:19:35.006Z</time></trkpt><trkpt lat="44.0873156" lon="11.9782318"><ele>154.0</ele><time>2026-04-04T11:19:36.008Z</time></trkpt><trkpt lat="44.0871803" lon="11.9781491"><ele>154.0</ele><time>2026-04-04T11:19:37.009Z</time></trkpt><trkpt lat="44.0870465" lon="11.9780722"><ele>154.0</ele><time>2026-04-04T11:19:38.008Z</time></trkpt><trkpt lat="44.0869119" lon="11.9779933"><ele>154.0</ele><time>2026-04-04T11:19:39.009Z</time></trkpt><trkpt lat="44.0867727" lon="11.9779127"><ele>154.0</ele><time>2026-04-04T11:19:40.01Z</time></trkpt><trkpt lat="44.0866364" lon="11.9778282"><ele>153.25</ele><time>2026-04-04T11:19:41.012Z</time></trkpt><trkpt lat="44.0865082" lon="11.9777463"><ele>152.5</ele><time>2026-04-04T11:19:42.011Z</time></trkpt><trkpt lat="44.0863868" lon="11.9776614"><ele>151.75</ele><time>2026-04-04T11:19:43.009Z</time></trkpt><trkpt lat="44.0862745" lon="11.9775614"><ele>151.0</ele><time>2026-04-04T11:19:44.006Z</time></trkpt><trkpt lat="44.0861775" lon="11.9774292"><ele>151.0</ele><time>2026-04-04T11:19:45.008Z</time></trkpt><trkpt lat="44.086089" lon="11.9772801"><ele>151.0</ele><time>2026-04-04T11:19:46.007Z</time></trkpt><trkpt lat="44.0860153" lon="11.9771154"><ele>151.0</ele><time>2026-04-04T11:19:47.007Z</time></trkpt><trkpt lat="44.0859607" lon="11.9769336"><ele>151.0</ele><time>2026-04-04T11:19:48.007Z</time></trkpt><trkpt lat="44.0859196" lon="11.9767432"><ele>151.25</ele><time>2026-04-04T11:19:49.009Z</time></trkpt><trkpt lat="44.0858848" lon="11.9765523"><ele>151.5</ele><time>2026-04-04T11:19:50.008Z</time></trkpt><trkpt lat="44.0858543" lon="11.9763671"><ele>151.75</ele><time>2026-04-04T11:19:51.009Z</time></trkpt><trkpt lat="44.0858239" lon="11.9761985"><ele>152.0</ele><time>2026-04-04T11:19:52.008Z</time></trkpt><trkpt lat="44.0857911" lon="11.9760506"><ele>152.0</ele><time>2026-04-04T11:19:53.007Z</time></trkpt><trkpt lat="44.0857514" lon="11.9759108"><ele>152.0</ele><time>2026-04-04T11:19:54.007Z</time></trkpt><trkpt lat="44.0856911" lon="11.9757939"><ele>152.0</ele><time>2026-04-04T11:19:55.009Z</time></trkpt><trkpt lat="44.0856096" lon="11.9756988"><ele>152.0</ele><time>2026-04-04T11:19:56.008Z</time></trkpt><trkpt lat="44.0855065" lon="11.9756228"><ele>152.0</ele><time>2026-04-04T11:19:57.008Z</time></trkpt><trkpt lat="44.0853916" lon="11.9755616"><ele>152.0</ele><time>2026-04-04T11:19:58.01Z</time></trkpt><trkpt lat="44.0852719" lon="11.9755133"><ele>152.0</ele><time>2026-04-04T11:19:59.006Z</time></trkpt><trkpt lat="44.0851429" lon="11.9754928"><ele>152.0</ele><time>2026-04-04T11:20:00.008Z</time></trkpt><trkpt lat="44.0850032" lon="11.9755116"><ele>152.0</ele><time>2026-04-04T11:20:01.007Z</time></trkpt><trkpt lat="44.0848605" lon="11.9755594"><ele>152.33333333333331</ele><time>2026-04-04T11:20:02.007Z</time></trkpt><trkpt lat="44.0847129" lon="11.9756266"><ele>152.66666666666666</ele><time>2026-04-04T11:20:03.008Z</time></trkpt><trkpt lat="44.0845548" lon="11.9756911"><ele>153.0</ele><time>2026-04-04T11:20:04.01Z</time></trkpt><trkpt lat="44.0843762" lon="11.975753"><ele>153.0</ele><time>2026-04-04T11:20:05.007Z</time></trkpt><trkpt lat="44.0841781" lon="11.9758277"><ele>153.0</ele><time>2026-04-04T11:20:06.007Z</time></trkpt><trkpt lat="44.0839579" lon="11.9758827"><ele>153.0</ele><time>2026-04-04T11:20:07.008Z</time></trkpt><trkpt lat="44.0837199" lon="11.9759135"><ele>153.0</ele><time>2026-04-04T11:20:08.015Z</time></trkpt><trkpt lat="44.0834708" lon="11.9759154"><ele>153.0</ele><time>2026-04-04T11:20:09.007Z</time></trkpt><trkpt lat="44.0832159" lon="11.9758941"><ele>154.5</ele><time>2026-04-04T11:20:10.009Z</time></trkpt><trkpt lat="44.0829664" lon="11.9758324"><ele>156.0</ele><time>2026-04-04T11:20:11.007Z</time></trkpt><trkpt lat="44.082733" lon="11.9757566"><ele>156.0</ele><time>2026-04-04T11:20:12.01Z</time></trkpt><trkpt lat="44.0825078" lon="11.9756683"><ele>156.0</ele><time>2026-04-04T11:20:13.008Z</time></trkpt><trkpt lat="44.0822937" lon="11.9755772"><ele>156.66666666666666</ele><time>2026-04-04T11:20:14.007Z</time></trkpt><trkpt lat="44.082097" lon="11.9754948"><ele>157.33333333333331</ele><time>2026-04-04T11:20:15.012Z</time></trkpt><trkpt lat="44.0819132" lon="11.9754101"><ele>158.0</ele><time>2026-04-04T11:20:16.007Z</time></trkpt><trkpt lat="44.0817296" lon="11.975332"><ele>159.0</ele><time>2026-04-04T11:20:17.008Z</time></trkpt><trkpt lat="44.0815398" lon="11.9752466"><ele>160.0</ele><time>2026-04-04T11:20:18.009Z</time></trkpt><trkpt lat="44.0813367" lon="11.9751644"><ele>161.0</ele><time>2026-04-04T11:20:19.008Z</time></trkpt><trkpt lat="44.081123" lon="11.9750766"><ele>161.5</ele><time>2026-04-04T11:20:20.008Z</time></trkpt><trkpt lat="44.0809081" lon="11.9749686"><ele>162.0</ele><time>2026-04-04T11:20:21.01Z</time></trkpt><trkpt lat="44.0806898" lon="11.9748606"><ele>162.0</ele><time>2026-04-04T11:20:22.01Z</time></trkpt><trkpt lat="44.0804733" lon="11.9747519"><ele>162.0</ele><time>2026-04-04T11:20:23.008Z</time></trkpt><trkpt lat="44.0802545" lon="11.974644"><ele>162.0</ele><time>2026-04-04T11:20:24.009Z</time></trkpt><trkpt lat="44.0800427" lon="11.9745192"><ele>162.0</ele><time>2026-04-04T11:20:25.01Z</time></trkpt><trkpt lat="44.0798379" lon="11.9743919"><ele>161.0</ele><time>2026-04-04T11:20:26.008Z</time></trkpt><trkpt lat="44.0796315" lon="11.9742677"><ele>160.0</ele><time>2026-04-04T11:20:27.008Z</time></trkpt><trkpt lat="44.0794138" lon="11.9741356"><ele>162.5</ele><time>2026-04-04T11:20:28.009Z</time></trkpt><trkpt lat="44.0791951" lon="11.9740044"><ele>165.0</ele><time>2026-04-04T11:20:29.008Z</time></trkpt><trkpt lat="44.0789824" lon="11.9738893"><ele>165.0</ele><time>2026-04-04T11:20:30.009Z</time></trkpt><trkpt lat="44.0787701" lon="11.9737777"><ele>165.0</ele><time>2026-04-04T11:20:31.01Z</time></trkpt><trkpt lat="44.0785536" lon="11.9736586"><ele>165.0</ele><time>2026-04-04T11:20:32.008Z</time></trkpt><trkpt lat="44.0783343" lon="11.97354"><ele>165.0</ele><time>2026-04-04T11:20:33.009Z</time></trkpt><trkpt lat="44.07812" lon="11.9734233"><ele>166.33333333333334</ele><time>2026-04-04T11:20:34.009Z</time></trkpt><trkpt lat="44.0779139" lon="11.9733133"><ele>167.66666666666669</ele><time>2026-04-04T11:20:35.009Z</time></trkpt><trkpt lat="44.0777004" lon="11.9732305"><ele>169.0</ele><time>2026-04-04T11:20:36.008Z</time></trkpt><trkpt lat="44.0774682" lon="11.9731809"><ele>168.0</ele><time>2026-04-04T11:20:37.009Z</time></trkpt><trkpt lat="44.0772162" lon="11.9731643"><ele>167.0</ele><time>2026-04-04T11:20:38.009Z</time></trkpt><trkpt lat="44.0769522" lon="11.973172"><ele>167.0</ele><time>2026-04-04T11:20:39.009Z</time></trkpt><trkpt lat="44.0766828" lon="11.9731887"><ele>167.0</ele><time>2026-04-04T11:20:40.009Z</time></trkpt><trkpt lat="44.0764145" lon="11.9732062"><ele>167.5</ele><time>2026-04-04T11:20:41.008Z</time></trkpt><trkpt lat="44.0761607" lon="11.9732272"><ele>168.0</ele><time>2026-04-04T11:20:42.01Z</time></trkpt><trkpt lat="44.0759279" lon="11.9732441"><ele>170.66666666666666</ele><time>2026-04-04T11:20:43.009Z</time></trkpt><trkpt lat="44.0757124" lon="11.9732594"><ele>173.33333333333331</ele><time>2026-04-04T11:20:44.01Z</time></trkpt><trkpt lat="44.075513" lon="11.9732818"><ele>176.0</ele><time>2026-04-04T11:20:45.009Z</time></trkpt><trkpt lat="44.0753287" lon="11.9732962"><ele>176.0</ele><time>2026-04-04T11:20:46.008Z</time></trkpt><trkpt lat="44.0751543" lon="11.9732942"><ele>176.0</ele><time>2026-04-04T11:20:47.007Z</time></trkpt><trkpt lat="44.0749857" lon="11.97327"><ele>176.0</ele><time>2026-04-04T11:20:48.007Z</time></trkpt><trkpt lat="44.0748174" lon="11.9732285"><ele>175.66666666666666</ele><time>2026-04-04T11:20:49.008Z</time></trkpt><trkpt lat="44.0746497" lon="11.9731826"><ele>175.33333333333334</ele><time>2026-04-04T11:20:50.007Z</time></trkpt><trkpt lat="44.0744739" lon="11.9731407"><ele>175.0</ele><time>2026-04-04T11:20:51.007Z</time></trkpt><trkpt lat="44.0742927" lon="11.9730923"><ele>175.0</ele><time>2026-04-04T11:20:52.008Z</time></trkpt><trkpt lat="44.0741078" lon="11.973046"><ele>175.0</ele><time>2026-04-04T11:20:53.007Z</time></trkpt><trkpt lat="44.0739191" lon="11.9729898"><ele>175.0</ele><time>2026-04-04T11:20:54.009Z</time></trkpt><trkpt lat="44.0737236" lon="11.9729413"><ele>174.0</ele><time>2026-04-04T11:20:55.006Z</time></trkpt><trkpt lat="44.0735244" lon="11.972892"><ele>173.0</ele><time>2026-04-04T11:20:56.008Z</time></trkpt><trkpt lat="44.0733207" lon="11.9728418"><ele>172.0</ele><time>2026-04-04T11:20:57.009Z</time></trkpt><trkpt lat="44.0731096" lon="11.9727885"><ele>169.66666666666669</ele><time>2026-04-04T11:20:58.007Z</time></trkpt><trkpt lat="44.0728971" lon="11.9727313"><ele>167.33333333333334</ele><time>2026-04-04T11:20:59.008Z</time></trkpt><trkpt lat="44.0726881" lon="11.9726787"><ele>165.0</ele><time>2026-04-04T11:21:00.007Z</time></trkpt><trkpt lat="44.0725003" lon="11.9726321"><ele>165.0</ele><time>2026-04-04T11:21:01.007Z</time></trkpt><trkpt lat="44.072342" lon="11.9725884"><ele>165.0</ele><time>2026-04-04T11:21:02.009Z</time></trkpt><trkpt lat="44.072213" lon="11.972546"><ele>165.0</ele><time>2026-04-04T11:21:03.008Z</time></trkpt><trkpt lat="44.0721048" lon="11.9725102"><ele>165.0</ele><time>2026-04-04T11:21:04.007Z</time></trkpt><trkpt lat="44.072005" lon="11.9724845"><ele>165.4</ele><time>2026-04-04T11:21:05.008Z</time></trkpt><trkpt lat="44.0719023" lon="11.9724579"><ele>165.8</ele><time>2026-04-04T11:21:06.009Z</time></trkpt><trkpt lat="44.0717948" lon="11.972436"><ele>166.2</ele><time>2026-04-04T11:21:07.009Z</time></trkpt><trkpt lat="44.0716828" lon="11.9724131"><ele>166.6</ele><time>2026-04-04T11:21:08.005Z</time></trkpt><trkpt lat="44.0715668" lon="11.9723882"><ele>167.0</ele><time>2026-04-04T11:21:09.008Z</time></trkpt><trkpt lat="44.071446" lon="11.9723581"><ele>167.25</ele><time>2026-04-04T11:21:10.006Z</time></trkpt><trkpt lat="44.0713214" lon="11.9723211"><ele>167.5</ele><time>2026-04-04T11:21:11.007Z</time></trkpt><trkpt lat="44.0711945" lon="11.9722852"><ele>167.75</ele><time>2026-04-04T11:21:12.009Z</time></trkpt><trkpt lat="44.0710719" lon="11.9722507"><ele>168.0</ele><time>2026-04-04T11:21:13.006Z</time></trkpt><trkpt lat="44.0709557" lon="11.9722233"><ele>168.0</ele><time>2026-04-04T11:21:14.005Z</time></trkpt><trkpt lat="44.0708448" lon="11.9721846"><ele>168.0</ele><time>2026-04-04T11:21:15.007Z</time></trkpt><trkpt lat="44.0707354" lon="11.9721593"><ele>168.0</ele><time>2026-04-04T11:21:16.006Z</time></trkpt><trkpt lat="44.0706272" lon="11.9721253"><ele>168.0</ele><time>2026-04-04T11:21:17.006Z</time></trkpt><trkpt lat="44.0705204" lon="11.9720897"><ele>168.0</ele><time>2026-04-04T11:21:18.006Z</time></trkpt><trkpt lat="44.0704139" lon="11.9720599"><ele>168.25</ele><time>2026-04-04T11:21:19.004Z</time></trkpt><trkpt lat="44.0703046" lon="11.9720299"><ele>168.5</ele><time>2026-04-04T11:21:20.008Z</time></trkpt><trkpt lat="44.070192" lon="11.9719987"><ele>168.75</ele><time>2026-04-04T11:21:21.008Z</time></trkpt><trkpt lat="44.0700717" lon="11.9719689"><ele>169.0</ele><time>2026-04-04T11:21:22.005Z</time></trkpt><trkpt lat="44.069944" lon="11.9719396"><ele>171.5</ele><time>2026-04-04T11:21:23.006Z</time></trkpt><trkpt lat="44.0698106" lon="11.9719078"><ele>174.0</ele><time>2026-04-04T11:21:24.006Z</time></trkpt><trkpt lat="44.0696697" lon="11.9718729"><ele>176.5</ele><time>2026-04-04T11:21:25.007Z</time></trkpt><trkpt lat="44.0695242" lon="11.9718309"><ele>179.0</ele><time>2026-04-04T11:21:26.006Z</time></trkpt><trkpt lat="44.0693688" lon="11.9717907"><ele>179.0</ele><time>2026-04-04T11:21:27.007Z</time></trkpt><trkpt lat="44.0692058" lon="11.9717403"><ele>179.0</ele><time>2026-04-04T11:21:28.006Z</time></trkpt><trkpt lat="44.0690403" lon="11.9716649"><ele>179.0</ele><time>2026-04-04T11:21:29.006Z</time></trkpt><trkpt lat="44.0688771" lon="11.9715526"><ele>181.0</ele><time>2026-04-04T11:21:30.009Z</time></trkpt><trkpt lat="44.0687201" lon="11.9714062"><ele>183.0</ele><time>2026-04-04T11:21:31.007Z</time></trkpt><trkpt lat="44.0685627" lon="11.9712537"><ele>185.0</ele><time>2026-04-04T11:21:32.006Z</time></trkpt><trkpt lat="44.0683985" lon="11.9711168"><ele>185.66666666666666</ele><time>2026-04-04T11:21:33.005Z</time></trkpt><trkpt lat="44.0682188" lon="11.9710039"><ele>186.33333333333334</ele><time>2026-04-04T11:21:34.006Z</time></trkpt><trkpt lat="44.0680321" lon="11.970904"><ele>187.0</ele><time>2026-04-04T11:21:35.007Z</time></trkpt><trkpt lat="44.067841" lon="11.9708063"><ele>187.0</ele><time>2026-04-04T11:21:36.005Z</time></trkpt><trkpt lat="44.0676441" lon="11.970709"><ele>187.0</ele><time>2026-04-04T11:21:37.008Z</time></trkpt><trkpt lat="44.0674412" lon="11.9706111"><ele>187.0</ele><time>2026-04-04T11:21:38.006Z</time></trkpt><trkpt lat="44.0672365" lon="11.9705081"><ele>191.0</ele><time>2026-04-04T11:21:39.005Z</time></trkpt><trkpt lat="44.0670327" lon="11.9704034"><ele>195.0</ele><time>2026-04-04T11:21:40.006Z</time></trkpt><trkpt lat="44.0668434" lon="11.9703061"><ele>199.0</ele><time>2026-04-04T11:21:41.007Z</time></trkpt><trkpt lat="44.0666743" lon="11.9702105"><ele>198.0</ele><time>2026-04-04T11:21:42.006Z</time></trkpt><trkpt lat="44.0665271" lon="11.9701033"><ele>197.0</ele><time>2026-04-04T11:21:43.005Z</time></trkpt><trkpt lat="44.0664069" lon="11.9699503"><ele>196.0</ele><time>2026-04-04T11:21:44.006Z</time></trkpt><trkpt lat="44.0663036" lon="11.9697673"><ele>196.0</ele><time>2026-04-04T11:21:45.007Z</time></trkpt><trkpt lat="44.0662203" lon="11.9695648"><ele>196.0</ele><time>2026-04-04T11:21:46.006Z</time></trkpt><trkpt lat="44.066148" lon="11.9693629"><ele>196.0</ele><time>2026-04-04T11:21:47.006Z</time></trkpt><trkpt lat="44.0660817" lon="11.9691636"><ele>193.66666666666666</ele><time>2026-04-04T11:21:48.009Z</time></trkpt><trkpt lat="44.066017" lon="11.968963"><ele>191.33333333333331</ele><time>2026-04-04T11:21:49.005Z</time></trkpt><trkpt lat="44.065953" lon="11.9687568"><ele>189.0</ele><time>2026-04-04T11:21:50.008Z</time></trkpt><trkpt lat="44.0658871" lon="11.9685489"><ele>187.33333333333334</ele><time>2026-04-04T11:21:51.007Z</time></trkpt><trkpt lat="44.0658222" lon="11.9683281"><ele>185.66666666666669</ele><time>2026-04-04T11:21:52.006Z</time></trkpt><trkpt lat="44.0657531" lon="11.968103"><ele>184.0</ele><time>2026-04-04T11:21:53.005Z</time></trkpt><trkpt lat="44.0656781" lon="11.967872"><ele>184.0</ele><time>2026-04-04T11:21:54.007Z</time></trkpt><trkpt lat="44.0656059" lon="11.9676387"><ele>184.0</ele><time>2026-04-04T11:21:55.01Z</time></trkpt><trkpt lat="44.0655382" lon="11.9674078"><ele>184.0</ele><time>2026-04-04T11:21:56.007Z</time></trkpt><trkpt lat="44.0654806" lon="11.9671836"><ele>182.75</ele><time>2026-04-04T11:21:57.01Z</time></trkpt><trkpt lat="44.0654315" lon="11.9669758"><ele>181.5</ele><time>2026-04-04T11:21:58.006Z</time></trkpt><trkpt lat="44.0653791" lon="11.9667882"><ele>180.25</ele><time>2026-04-04T11:21:59.006Z</time></trkpt><trkpt lat="44.0653031" lon="11.9666407"><ele>179.0</ele><time>2026-04-04T11:22:00.009Z</time></trkpt><trkpt lat="44.0651974" lon="11.9665584"><ele>179.0</ele><time>2026-04-04T11:22:01.011Z</time></trkpt><trkpt lat="44.0650674" lon="11.9665154"><ele>179.0</ele><time>2026-04-04T11:22:02.006Z</time></trkpt><trkpt lat="44.0649124" lon="11.9664828"><ele>179.0</ele><time>2026-04-04T11:22:03.008Z</time></trkpt><trkpt lat="44.064744" lon="11.9664451"><ele>179.0</ele><time>2026-04-04T11:22:04.006Z</time></trkpt><trkpt lat="44.0645643" lon="11.9663993"><ele>179.0</ele><time>2026-04-04T11:22:05.005Z</time></trkpt><trkpt lat="44.0643776" lon="11.9663458"><ele>179.0</ele><time>2026-04-04T11:22:06.011Z</time></trkpt><trkpt lat="44.0641958" lon="11.9663002"><ele>180.0</ele><time>2026-04-04T11:22:07.006Z</time></trkpt><trkpt lat="44.0640263" lon="11.9662525"><ele>181.0</ele><time>2026-04-04T11:22:08.008Z</time></trkpt><trkpt lat="44.0638648" lon="11.9662089"><ele>182.0</ele><time>2026-04-04T11:22:09.007Z</time></trkpt><trkpt lat="44.0637165" lon="11.9661409"><ele>182.0</ele><time>2026-04-04T11:22:10.005Z</time></trkpt><trkpt lat="44.0635919" lon="11.9660325"><ele>182.0</ele><time>2026-04-04T11:22:11.006Z</time></trkpt><trkpt lat="44.0634957" lon="11.9659074"><ele>182.0</ele><time>2026-04-04T11:22:12.008Z</time></trkpt><trkpt lat="44.0634344" lon="11.9657753"><ele>182.0</ele><time>2026-04-04T11:22:13.007Z</time></trkpt><trkpt lat="44.0634172" lon="11.9656392"><ele>182.8</ele><time>2026-04-04T11:22:14.007Z</time></trkpt><trkpt lat="44.063443" lon="11.9654975"><ele>183.6</ele><time>2026-04-04T11:22:15.008Z</time></trkpt><trkpt lat="44.0635003" lon="11.96537"><ele>184.4</ele><time>2026-04-04T11:22:16.006Z</time></trkpt><trkpt lat="44.0635839" lon="11.965272"><ele>185.20000000000002</ele><time>2026-04-04T11:22:17.008Z</time></trkpt><trkpt lat="44.0636906" lon="11.9652278"><ele>186.0</ele><time>2026-04-04T11:22:18.008Z</time></trkpt><trkpt lat="44.0638124" lon="11.9652442"><ele>186.0</ele><time>2026-04-04T11:22:19.007Z</time></trkpt><trkpt lat="44.0639277" lon="11.9653151"><ele>186.0</ele><time>2026-04-04T11:22:20.007Z</time></trkpt><trkpt lat="44.0640366" lon="11.9654059"><ele>186.0</ele><time>2026-04-04T11:22:21.007Z</time></trkpt><trkpt lat="44.0641374" lon="11.9654918"><ele>186.0</ele><time>2026-04-04T11:22:22.008Z</time></trkpt><trkpt lat="44.0642376" lon="11.9654924"><ele>186.20000000000002</ele><time>2026-04-04T11:22:23.005Z</time></trkpt><trkpt lat="44.064322" lon="11.9654383"><ele>186.4</ele><time>2026-04-04T11:22:24.008Z</time></trkpt><trkpt lat="44.0643715" lon="11.9653347"><ele>186.6</ele><time>2026-04-04T11:22:25.007Z</time></trkpt><trkpt lat="44.0643791" lon="11.9651805"><ele>186.8</ele><time>2026-04-04T11:22:26.008Z</time></trkpt><trkpt lat="44.0643522" lon="11.9650204"><ele>187.0</ele><time>2026-04-04T11:22:27.006Z</time></trkpt><trkpt lat="44.0643023" lon="11.9648281"><ele>191.0</ele><time>2026-04-04T11:22:28.007Z</time></trkpt><trkpt lat="44.0642203" lon="11.964624"><ele>195.0</ele><time>2026-04-04T11:22:29.006Z</time></trkpt><trkpt lat="44.0641529" lon="11.9643965"><ele>199.0</ele><time>2026-04-04T11:22:30.005Z</time></trkpt><trkpt lat="44.0640557" lon="11.9641338"><ele>199.0</ele><time>2026-04-04T11:22:31.007Z</time></trkpt><trkpt lat="44.0639118" lon="11.963828"><ele>199.0</ele><time>2026-04-04T11:22:32.006Z</time></trkpt><trkpt lat="44.0637445" lon="11.9635191"><ele>202.0</ele><time>2026-04-04T11:22:33.009Z</time></trkpt><trkpt lat="44.0635614" lon="11.9632452"><ele>205.0</ele><time>2026-04-04T11:22:34.007Z</time></trkpt><trkpt lat="44.0633761" lon="11.9630087"><ele>205.0</ele><time>2026-04-04T11:22:35.005Z</time></trkpt><trkpt lat="44.0632059" lon="11.9628035"><ele>205.0</ele><time>2026-04-04T11:22:36.007Z</time></trkpt><trkpt lat="44.0630423" lon="11.9626293"><ele>205.0</ele><time>2026-04-04T11:22:37.005Z</time></trkpt><trkpt lat="44.0628922" lon="11.9624706"><ele>205.0</ele><time>2026-04-04T11:22:38.007Z</time></trkpt><trkpt lat="44.0627834" lon="11.9622999"><ele>205.0</ele><time>2026-04-04T11:22:39.008Z</time></trkpt><trkpt lat="44.062716" lon="11.9621155"><ele>205.0</ele><time>2026-04-04T11:22:40.006Z</time></trkpt><trkpt lat="44.0626937" lon="11.9619224"><ele>205.0</ele><time>2026-04-04T11:22:41.006Z</time></trkpt><trkpt lat="44.0627037" lon="11.9617353"><ele>205.0</ele><time>2026-04-04T11:22:42.009Z</time></trkpt><trkpt lat="44.0627489" lon="11.9615612"><ele>205.0</ele><time>2026-04-04T11:22:43.007Z</time></trkpt><trkpt lat="44.0628259" lon="11.9613959"><ele>205.0</ele><time>2026-04-04T11:22:44.005Z</time></trkpt><trkpt lat="44.0629115" lon="11.9612302"><ele>205.25</ele><time>2026-04-04T11:22:45.007Z</time></trkpt><trkpt lat="44.0629707" lon="11.9610511"><ele>205.5</ele><time>2026-04-04T11:22:46.006Z</time></trkpt><trkpt lat="44.0629927" lon="11.9608547"><ele>205.75</ele><time>2026-04-04T11:22:47.007Z</time></trkpt><trkpt lat="44.0629712" lon="11.9606422"><ele>206.0</ele><time>2026-04-04T11:22:48.007Z</time></trkpt><trkpt lat="44.0629092" lon="11.9604124"><ele>205.33333333333334</ele><time>2026-04-04T11:22:49.007Z</time></trkpt><trkpt lat="44.0628246" lon="11.9601633"><ele>204.66666666666669</ele><time>2026-04-04T11:22:50.005Z</time></trkpt><trkpt lat="44.0627344" lon="11.9598965"><ele>204.0</ele><time>2026-04-04T11:22:51.006Z</time></trkpt><trkpt lat="44.0626472" lon="11.95962"><ele>202.0</ele><time>2026-04-04T11:22:52.007Z</time></trkpt><trkpt lat="44.0625626" lon="11.9593485"><ele>200.0</ele><time>2026-04-04T11:22:53.006Z</time></trkpt><trkpt lat="44.0624742" lon="11.9590892"><ele>198.0</ele><time>2026-04-04T11:22:54.007Z</time></trkpt><trkpt lat="44.0623624" lon="11.9588368"><ele>198.0</ele><time>2026-04-04T11:22:55.006Z</time></trkpt><trkpt lat="44.0622229" lon="11.9586008"><ele>198.0</ele><time>2026-04-04T11:22:56.008Z</time></trkpt><trkpt lat="44.0620912" lon="11.9583559"><ele>198.0</ele><time>2026-04-04T11:22:57.007Z</time></trkpt><trkpt lat="44.0619204" lon="11.9581158"><ele>195.0</ele><time>2026-04-04T11:22:58.009Z</time></trkpt><trkpt lat="44.0617369" lon="11.9578632"><ele>192.0</ele><time>2026-04-04T11:22:59.006Z</time></trkpt><trkpt lat="44.0615621" lon="11.9575951"><ele>194.0</ele><time>2026-04-04T11:23:00.007Z</time></trkpt><trkpt lat="44.0614002" lon="11.957321"><ele>196.0</ele><time>2026-04-04T11:23:01.007Z</time></trkpt><trkpt lat="44.0612464" lon="11.9570519"><ele>196.0</ele><time>2026-04-04T11:23:02.007Z</time></trkpt><trkpt lat="44.0610903" lon="11.9567941"><ele>196.0</ele><time>2026-04-04T11:23:03.01Z</time></trkpt><trkpt lat="44.0609208" lon="11.9565605"><ele>195.0</ele><time>2026-04-04T11:23:04.008Z</time></trkpt><trkpt lat="44.0607475" lon="11.9563551"><ele>194.0</ele><time>2026-04-04T11:23:05.006Z</time></trkpt><trkpt lat="44.0605723" lon="11.9561726"><ele>193.0</ele><time>2026-04-04T11:23:06.007Z</time></trkpt><trkpt lat="44.0603972" lon="11.9559966"><ele>192.66666666666666</ele><time>2026-04-04T11:23:07.008Z</time></trkpt><trkpt lat="44.0602245" lon="11.9558325"><ele>192.33333333333331</ele><time>2026-04-04T11:23:08.008Z</time></trkpt><trkpt lat="44.0600603" lon="11.9556817"><ele>192.0</ele><time>2026-04-04T11:23:09.006Z</time></trkpt><trkpt lat="44.059907" lon="11.9555392"><ele>192.0</ele><time>2026-04-04T11:23:10.006Z</time></trkpt><trkpt lat="44.0597695" lon="11.9553969"><ele>192.0</ele><time>2026-04-04T11:23:11.006Z</time></trkpt><trkpt lat="44.0596587" lon="11.9552422"><ele>192.0</ele><time>2026-04-04T11:23:12.007Z</time></trkpt><trkpt lat="44.0595862" lon="11.955054"><ele>193.0</ele><time>2026-04-04T11:23:13.007Z</time></trkpt><trkpt lat="44.0595441" lon="11.9548289"><ele>194.0</ele><time>2026-04-04T11:23:14.008Z</time></trkpt><trkpt lat="44.0595201" lon="11.9545649"><ele>195.0</ele><time>2026-04-04T11:23:15.008Z</time></trkpt><trkpt lat="44.0594936" lon="11.9542711"><ele>196.0</ele><time>2026-04-04T11:23:16.009Z</time></trkpt><trkpt lat="44.059449" lon="11.9539553"><ele>197.0</ele><time>2026-04-04T11:23:17.007Z</time></trkpt><trkpt lat="44.0593777" lon="11.9536293"><ele>200.0</ele><time>2026-04-04T11:23:18.006Z</time></trkpt><trkpt lat="44.0592821" lon="11.9533191"><ele>203.0</ele><time>2026-04-04T11:23:19.008Z</time></trkpt><trkpt lat="44.059175" lon="11.9530401"><ele>202.0</ele><time>2026-04-04T11:23:20.006Z</time></trkpt><trkpt lat="44.0590549" lon="11.9527898"><ele>201.0</ele><time>2026-04-04T11:23:21.01Z</time></trkpt><trkpt lat="44.0589068" lon="11.9525702"><ele>200.0</ele><time>2026-04-04T11:23:22.007Z</time></trkpt><trkpt lat="44.0587332" lon="11.9523718"><ele>200.0</ele><time>2026-04-04T11:23:23.005Z</time></trkpt><trkpt lat="44.0585498" lon="11.9521886"><ele>200.0</ele><time>2026-04-04T11:23:24.008Z</time></trkpt><trkpt lat="44.0583772" lon="11.9520206"><ele>200.0</ele><time>2026-04-04T11:23:25.006Z</time></trkpt><trkpt lat="44.0582272" lon="11.9518741"><ele>199.33333333333334</ele><time>2026-04-04T11:23:26.008Z</time></trkpt><trkpt lat="44.0580983" lon="11.9517355"><ele>198.66666666666669</ele><time>2026-04-04T11:23:27.007Z</time></trkpt><trkpt lat="44.0579894" lon="11.9516007"><ele>198.0</ele><time>2026-04-04T11:23:28.006Z</time></trkpt><trkpt lat="44.0579177" lon="11.9514318"><ele>198.0</ele><time>2026-04-04T11:23:29.006Z</time></trkpt><trkpt lat="44.0578668" lon="11.9512422"><ele>198.0</ele><time>2026-04-04T11:23:30.008Z</time></trkpt><trkpt lat="44.0578301" lon="11.9510329"><ele>198.0</ele><time>2026-04-04T11:23:31.007Z</time></trkpt><trkpt lat="44.057797" lon="11.9508117"><ele>198.33333333333331</ele><time>2026-04-04T11:23:32.008Z</time></trkpt><trkpt lat="44.0577586" lon="11.9505942"><ele>198.66666666666666</ele><time>2026-04-04T11:23:33.007Z</time></trkpt><trkpt lat="44.0577181" lon="11.9503708"><ele>199.0</ele><time>2026-04-04T11:23:34.007Z</time></trkpt><trkpt lat="44.05768" lon="11.9501463"><ele>199.33333333333331</ele><time>2026-04-04T11:23:35.007Z</time></trkpt><trkpt lat="44.0576474" lon="11.9499157"><ele>199.66666666666669</ele><time>2026-04-04T11:23:36.007Z</time></trkpt><trkpt lat="44.0576108" lon="11.9496865"><ele>200.0</ele><time>2026-04-04T11:23:37.009Z</time></trkpt><trkpt lat="44.0575715" lon="11.9494608"><ele>200.0</ele><time>2026-04-04T11:23:38.008Z</time></trkpt><trkpt lat="44.057534" lon="11.9492355"><ele>200.0</ele><time>2026-04-04T11:23:39.008Z</time></trkpt><trkpt lat="44.057496" lon="11.949013"><ele>200.0</ele><time>2026-04-04T11:23:40.006Z</time></trkpt><trkpt lat="44.0574579" lon="11.9487934"><ele>199.5</ele><time>2026-04-04T11:23:41.007Z</time></trkpt><trkpt lat="44.0574275" lon="11.9485758"><ele>199.0</ele><time>2026-04-04T11:23:42.007Z</time></trkpt><trkpt lat="44.0574223" lon="11.9483688"><ele>198.5</ele><time>2026-04-04T11:23:43.006Z</time></trkpt><trkpt lat="44.0574277" lon="11.9481819"><ele>198.0</ele><time>2026-04-04T11:23:44.007Z</time></trkpt><trkpt lat="44.0574347" lon="11.9480136"><ele>198.0</ele><time>2026-04-04T11:23:45.006Z</time></trkpt><trkpt lat="44.0574406" lon="11.9478552"><ele>198.0</ele><time>2026-04-04T11:23:46.009Z</time></trkpt><trkpt lat="44.05744" lon="11.9477092"><ele>198.0</ele><time>2026-04-04T11:23:47.006Z</time></trkpt><trkpt lat="44.0574426" lon="11.9475738"><ele>198.0</ele><time>2026-04-04T11:23:48.007Z</time></trkpt><trkpt lat="44.0574431" lon="11.9474395"><ele>198.0</ele><time>2026-04-04T11:23:49.006Z</time></trkpt><trkpt lat="44.0574416" lon="11.9473001"><ele>198.0</ele><time>2026-04-04T11:23:50.007Z</time></trkpt><trkpt lat="44.0574422" lon="11.9471511"><ele>198.0</ele><time>2026-04-04T11:23:51.007Z</time></trkpt><trkpt lat="44.0574433" lon="11.9469954"><ele>198.0</ele><time>2026-04-04T11:23:52.008Z</time></trkpt><trkpt lat="44.0574452" lon="11.9468342"><ele>198.0</ele><time>2026-04-04T11:23:53.007Z</time></trkpt><trkpt lat="44.0574546" lon="11.9466648"><ele>199.25</ele><time>2026-04-04T11:23:54.006Z</time></trkpt><trkpt lat="44.0574599" lon="11.9464844"><ele>200.5</ele><time>2026-04-04T11:23:55.008Z</time></trkpt><trkpt lat="44.0574689" lon="11.9462949"><ele>201.75</ele><time>2026-04-04T11:23:56.01Z</time></trkpt><trkpt lat="44.0574775" lon="11.9460956"><ele>203.0</ele><time>2026-04-04T11:23:57.007Z</time></trkpt><trkpt lat="44.057487" lon="11.945882"><ele>203.75</ele><time>2026-04-04T11:23:58.01Z</time></trkpt><trkpt lat="44.0574918" lon="11.9456667"><ele>204.5</ele><time>2026-04-04T11:23:59.008Z</time></trkpt><trkpt lat="44.057495" lon="11.9454533"><ele>205.25</ele><time>2026-04-04T11:24:00.006Z</time></trkpt><trkpt lat="44.0574917" lon="11.9452567"><ele>206.0</ele><time>2026-04-04T11:24:01.006Z</time></trkpt><trkpt lat="44.0574833" lon="11.9450733"><ele>204.5</ele><time>2026-04-04T11:24:02.006Z</time></trkpt><trkpt lat="44.05745" lon="11.9449"><ele>203.0</ele><time>2026-04-04T11:24:03.008Z</time></trkpt><trkpt lat="44.0573733" lon="11.9447383"><ele>201.5</ele><time>2026-04-04T11:24:04.009Z</time></trkpt><trkpt lat="44.0572767" lon="11.944585"><ele>200.0</ele><time>2026-04-04T11:24:05.007Z</time></trkpt><trkpt lat="44.0571633" lon="11.9444517"><ele>200.0</ele><time>2026-04-04T11:24:06.006Z</time></trkpt><trkpt lat="44.0570733" lon="11.9443083"><ele>200.0</ele><time>2026-04-04T11:24:07.006Z</time></trkpt><trkpt lat="44.0570083" lon="11.9441383"><ele>200.0</ele><time>2026-04-04T11:24:08.008Z</time></trkpt><trkpt lat="44.0569667" lon="11.9439433"><ele>200.0</ele><time>2026-04-04T11:24:09.011Z</time></trkpt><trkpt lat="44.05695" lon="11.9437283"><ele>200.66666666666669</ele><time>2026-04-04T11:24:10.008Z</time></trkpt><trkpt lat="44.056935" lon="11.9435083"><ele>201.33333333333331</ele><time>2026-04-04T11:24:11.007Z</time></trkpt><trkpt lat="44.0569267" lon="11.943295"><ele>202.0</ele><time>2026-04-04T11:24:12.008Z</time></trkpt><trkpt lat="44.0569117" lon="11.9430783"><ele>202.0</ele><time>2026-04-04T11:24:13.006Z</time></trkpt><trkpt lat="44.0569067" lon="11.9428567"><ele>202.0</ele><time>2026-04-04T11:24:14.007Z</time></trkpt><trkpt lat="44.0569083" lon="11.9426417"><ele>202.0</ele><time>2026-04-04T11:24:15.006Z</time></trkpt><trkpt lat="44.0569367" lon="11.94243"><ele>202.33333333333331</ele><time>2026-04-04T11:24:16.01Z</time></trkpt><trkpt lat="44.057005" lon="11.942235"><ele>202.66666666666669</ele><time>2026-04-04T11:24:17.007Z</time></trkpt><trkpt lat="44.0571017" lon="11.9420467"><ele>203.0</ele><time>2026-04-04T11:24:18.006Z</time></trkpt><trkpt lat="44.0572133" lon="11.9418583"><ele>203.33333333333334</ele><time>2026-04-04T11:24:19.007Z</time></trkpt><trkpt lat="44.0573317" lon="11.9416583"><ele>203.66666666666669</ele><time>2026-04-04T11:24:20.006Z</time></trkpt><trkpt lat="44.0574517" lon="11.94145"><ele>204.0</ele><time>2026-04-04T11:24:21.008Z</time></trkpt><trkpt lat="44.0575683" lon="11.94125"><ele>205.66666666666669</ele><time>2026-04-04T11:24:22.007Z</time></trkpt><trkpt lat="44.0576667" lon="11.9410567"><ele>207.33333333333334</ele><time>2026-04-04T11:24:23.006Z</time></trkpt><trkpt lat="44.0577517" lon="11.9408667"><ele>209.0</ele><time>2026-04-04T11:24:24.391Z</time></trkpt><trkpt lat="44.0578817" lon="11.9404567"><ele>209.0</ele><time>2026-04-04T11:24:26.007Z</time></trkpt><trkpt lat="44.057915" lon="11.9402283"><ele>209.0</ele><time>2026-04-04T11:24:27.009Z</time></trkpt><trkpt lat="44.0579417" lon="11.9399933"><ele>209.0</ele><time>2026-04-04T11:24:28.011Z</time></trkpt><trkpt lat="44.0579667" lon="11.93976"><ele>208.66666666666669</ele><time>2026-04-04T11:24:29.005Z</time></trkpt><trkpt lat="44.0579917" lon="11.9395233"><ele>208.33333333333331</ele><time>2026-04-04T11:24:30.008Z</time></trkpt><trkpt lat="44.0580183" lon="11.93928"><ele>208.0</ele><time>2026-04-04T11:24:31.006Z</time></trkpt><trkpt lat="44.0580467" lon="11.9390317"><ele>207.66666666666666</ele><time>2026-04-04T11:24:32.006Z</time></trkpt><trkpt lat="44.05807" lon="11.93878"><ele>207.33333333333331</ele><time>2026-04-04T11:24:33.008Z</time></trkpt><trkpt lat="44.0580967" lon="11.9385267"><ele>207.0</ele><time>2026-04-04T11:24:34.008Z</time></trkpt><trkpt lat="44.05813" lon="11.9382667"><ele>206.0</ele><time>2026-04-04T11:24:35.005Z</time></trkpt><trkpt lat="44.0581617" lon="11.9380067"><ele>205.0</ele><time>2026-04-04T11:24:36.007Z</time></trkpt><trkpt lat="44.0581833" lon="11.9377433"><ele>204.0</ele><time>2026-04-04T11:24:37.006Z</time></trkpt><trkpt lat="44.0581967" lon="11.9374783"><ele>204.0</ele><time>2026-04-04T11:24:38.009Z</time></trkpt><trkpt lat="44.05819" lon="11.9372167"><ele>204.0</ele><time>2026-04-04T11:24:39.008Z</time></trkpt><trkpt lat="44.0581683" lon="11.9369567"><ele>204.0</ele><time>2026-04-04T11:24:40.007Z</time></trkpt><trkpt lat="44.05812" lon="11.9367017"><ele>205.0</ele><time>2026-04-04T11:24:41.007Z</time></trkpt><trkpt lat="44.05806" lon="11.9364433"><ele>206.0</ele><time>2026-04-04T11:24:42.009Z</time></trkpt><trkpt lat="44.058" lon="11.936185"><ele>207.0</ele><time>2026-04-04T11:24:43.006Z</time></trkpt><trkpt lat="44.0579367" lon="11.9359283"><ele>208.0</ele><time>2026-04-04T11:24:44.009Z</time></trkpt><trkpt lat="44.0578783" lon="11.93567"><ele>209.0</ele><time>2026-04-04T11:24:45.007Z</time></trkpt><trkpt lat="44.05782" lon="11.93542"><ele>210.0</ele><time>2026-04-04T11:24:46.007Z</time></trkpt><trkpt lat="44.05777" lon="11.9351733"><ele>211.0</ele><time>2026-04-04T11:24:47.006Z</time></trkpt><trkpt lat="44.057725" lon="11.9349417"><ele>212.0</ele><time>2026-04-04T11:24:48.007Z</time></trkpt><trkpt lat="44.0576867" lon="11.93473"><ele>213.0</ele><time>2026-04-04T11:24:49.007Z</time></trkpt><trkpt lat="44.0576783" lon="11.93451"><ele>213.0</ele><time>2026-04-04T11:24:50.011Z</time></trkpt><trkpt lat="44.0576917" lon="11.934295"><ele>213.0</ele><time>2026-04-04T11:24:51.01Z</time></trkpt><trkpt lat="44.057725" lon="11.9340683"><ele>213.0</ele><time>2026-04-04T11:24:52.007Z</time></trkpt><trkpt lat="44.0577633" lon="11.9338367"><ele>213.33333333333331</ele><time>2026-04-04T11:24:53.008Z</time></trkpt><trkpt lat="44.057805" lon="11.9335983"><ele>213.66666666666666</ele><time>2026-04-04T11:24:54.009Z</time></trkpt><trkpt lat="44.0578483" lon="11.9333617"><ele>214.0</ele><time>2026-04-04T11:24:55.009Z</time></trkpt><trkpt lat="44.0578833" lon="11.9331217"><ele>214.33333333333331</ele><time>2026-04-04T11:24:56.007Z</time></trkpt><trkpt lat="44.0579" lon="11.9328733"><ele>214.66666666666669</ele><time>2026-04-04T11:24:57.007Z</time></trkpt><trkpt lat="44.0578933" lon="11.9326183"><ele>215.0</ele><time>2026-04-04T11:24:58.007Z</time></trkpt><trkpt lat="44.0578667" lon="11.93236"><ele>215.0</ele><time>2026-04-04T11:24:59.008Z</time></trkpt><trkpt lat="44.0578183" lon="11.9320983"><ele>215.0</ele><time>2026-04-04T11:25:00.007Z</time></trkpt><trkpt lat="44.0577517" lon="11.9318417"><ele>215.0</ele><time>2026-04-04T11:25:01.007Z</time></trkpt><trkpt lat="44.0576683" lon="11.9315883"><ele>215.33333333333334</ele><time>2026-04-04T11:25:02.006Z</time></trkpt><trkpt lat="44.0575667" lon="11.931345"><ele>215.66666666666669</ele><time>2026-04-04T11:25:03.006Z</time></trkpt><trkpt lat="44.0574483" lon="11.9311083"><ele>216.0</ele><time>2026-04-04T11:25:04.009Z</time></trkpt><trkpt lat="44.057325" lon="11.9308767"><ele>216.0</ele><time>2026-04-04T11:25:05.006Z</time></trkpt><trkpt lat="44.0572017" lon="11.9306467"><ele>216.0</ele><time>2026-04-04T11:25:06.008Z</time></trkpt><trkpt lat="44.0570867" lon="11.9304133"><ele>216.0</ele><time>2026-04-04T11:25:07.009Z</time></trkpt><trkpt lat="44.0569667" lon="11.930205"><ele>218.33333333333331</ele><time>2026-04-04T11:25:08.006Z</time></trkpt><trkpt lat="44.0568633" lon="11.93"><ele>220.66666666666666</ele><time>2026-04-04T11:25:09.01Z</time></trkpt><trkpt lat="44.0567867" lon="11.929795"><ele>223.0</ele><time>2026-04-04T11:25:10.007Z</time></trkpt><trkpt lat="44.0567433" lon="11.9295717"><ele>223.0</ele><time>2026-04-04T11:25:11.005Z</time></trkpt><trkpt lat="44.0567233" lon="11.9293417"><ele>223.0</ele><time>2026-04-04T11:25:12.009Z</time></trkpt><trkpt lat="44.0567283" lon="11.9291017"><ele>223.0</ele><time>2026-04-04T11:25:13.012Z</time></trkpt><trkpt lat="44.0567633" lon="11.92886"><ele>223.0</ele><time>2026-04-04T11:25:14.009Z</time></trkpt><trkpt lat="44.0568133" lon="11.9286117"><ele>223.0</ele><time>2026-04-04T11:25:15.009Z</time></trkpt><trkpt lat="44.0568683" lon="11.9283567"><ele>223.0</ele><time>2026-04-04T11:25:16.007Z</time></trkpt><trkpt lat="44.05692" lon="11.9280983"><ele>223.0</ele><time>2026-04-04T11:25:17.006Z</time></trkpt><trkpt lat="44.056975" lon="11.9278283"><ele>223.0</ele><time>2026-04-04T11:25:18.008Z</time></trkpt><trkpt lat="44.05703" lon="11.9275567"><ele>223.0</ele><time>2026-04-04T11:25:19.007Z</time></trkpt><trkpt lat="44.0570783" lon="11.927295"><ele>222.33333333333331</ele><time>2026-04-04T11:25:20.006Z</time></trkpt><trkpt lat="44.05712" lon="11.9270483"><ele>221.66666666666669</ele><time>2026-04-04T11:25:21.008Z</time></trkpt><trkpt lat="44.0571533" lon="11.9268233"><ele>221.0</ele><time>2026-04-04T11:25:22.007Z</time></trkpt><trkpt lat="44.0571633" lon="11.9266217"><ele>220.33333333333334</ele><time>2026-04-04T11:25:23.008Z</time></trkpt><trkpt lat="44.0571167" lon="11.9264317"><ele>219.66666666666669</ele><time>2026-04-04T11:25:24.007Z</time></trkpt><trkpt lat="44.0570283" lon="11.9262283"><ele>219.0</ele><time>2026-04-04T11:25:25.007Z</time></trkpt><trkpt lat="44.0569167" lon="11.926005"><ele>218.33333333333331</ele><time>2026-04-04T11:25:26.008Z</time></trkpt><trkpt lat="44.0567917" lon="11.9257683"><ele>217.66666666666666</ele><time>2026-04-04T11:25:27.01Z</time></trkpt><trkpt lat="44.0566483" lon="11.9255133"><ele>217.0</ele><time>2026-04-04T11:25:28.007Z</time></trkpt><trkpt lat="44.0564917" lon="11.92524"><ele>219.0</ele><time>2026-04-04T11:25:29.009Z</time></trkpt><trkpt lat="44.0563333" lon="11.92495"><ele>221.0</ele><time>2026-04-04T11:25:30.007Z</time></trkpt><trkpt lat="44.056185" lon="11.9246533"><ele>221.0</ele><time>2026-04-04T11:25:31.007Z</time></trkpt><trkpt lat="44.0560517" lon="11.9243683"><ele>221.0</ele><time>2026-04-04T11:25:32.008Z</time></trkpt><trkpt lat="44.055935" lon="11.924095"><ele>221.66666666666669</ele><time>2026-04-04T11:25:33.009Z</time></trkpt><trkpt lat="44.0558283" lon="11.9238233"><ele>222.33333333333331</ele><time>2026-04-04T11:25:34.011Z</time></trkpt><trkpt lat="44.0557417" lon="11.9235433"><ele>223.0</ele><time>2026-04-04T11:25:35.007Z</time></trkpt><trkpt lat="44.05567" lon="11.92326"><ele>222.0</ele><time>2026-04-04T11:25:36.009Z</time></trkpt><trkpt lat="44.0556017" lon="11.9229817"><ele>221.0</ele><time>2026-04-04T11:25:37.007Z</time></trkpt><trkpt lat="44.0555483" lon="11.9226983"><ele>220.0</ele><time>2026-04-04T11:25:38.007Z</time></trkpt><trkpt lat="44.0554867" lon="11.9224217"><ele>220.0</ele><time>2026-04-04T11:25:39.01Z</time></trkpt><trkpt lat="44.0554317" lon="11.9221433"><ele>220.0</ele><time>2026-04-04T11:25:40.007Z</time></trkpt><trkpt lat="44.05538" lon="11.9218633"><ele>220.0</ele><time>2026-04-04T11:25:41.005Z</time></trkpt><trkpt lat="44.055325" lon="11.9215967"><ele>220.66666666666666</ele><time>2026-04-04T11:25:42.009Z</time></trkpt><trkpt lat="44.0552667" lon="11.92134"><ele>221.33333333333331</ele><time>2026-04-04T11:25:43.01Z</time></trkpt><trkpt lat="44.055215" lon="11.9210967"><ele>222.0</ele><time>2026-04-04T11:25:44.009Z</time></trkpt><trkpt lat="44.0551517" lon="11.9208567"><ele>221.0</ele><time>2026-04-04T11:25:45.009Z</time></trkpt><trkpt lat="44.0550483" lon="11.9206367"><ele>220.0</ele><time>2026-04-04T11:25:46.007Z</time></trkpt><trkpt lat="44.0549217" lon="11.9204233"><ele>219.0</ele><time>2026-04-04T11:25:47.008Z</time></trkpt><trkpt lat="44.0547817" lon="11.9202083"><ele>220.33333333333331</ele><time>2026-04-04T11:25:48.009Z</time></trkpt><trkpt lat="44.05465" lon="11.9199767"><ele>221.66666666666666</ele><time>2026-04-04T11:25:49.007Z</time></trkpt><trkpt lat="44.0545183" lon="11.9197317"><ele>223.0</ele><time>2026-04-04T11:25:50.011Z</time></trkpt><trkpt lat="44.0543833" lon="11.9194883"><ele>223.0</ele><time>2026-04-04T11:25:51.007Z</time></trkpt><trkpt lat="44.0542483" lon="11.9192517"><ele>223.0</ele><time>2026-04-04T11:25:52.009Z</time></trkpt><trkpt lat="44.0540983" lon="11.9190517"><ele>223.0</ele><time>2026-04-04T11:25:53.009Z</time></trkpt><trkpt lat="44.053945" lon="11.9188817"><ele>224.0</ele><time>2026-04-04T11:25:54.007Z</time></trkpt><trkpt lat="44.053795" lon="11.91874"><ele>225.0</ele><time>2026-04-04T11:25:55.006Z</time></trkpt><trkpt lat="44.05366" lon="11.9186233"><ele>226.0</ele><time>2026-04-04T11:25:56.007Z</time></trkpt><trkpt lat="44.0535483" lon="11.91852"><ele>226.0</ele><time>2026-04-04T11:25:57.007Z</time></trkpt><trkpt lat="44.0534517" lon="11.9184233"><ele>226.0</ele><time>2026-04-04T11:25:58.008Z</time></trkpt><trkpt lat="44.0533683" lon="11.918315"><ele>226.0</ele><time>2026-04-04T11:25:59.007Z</time></trkpt><trkpt lat="44.0532933" lon="11.9182033"><ele>226.0</ele><time>2026-04-04T11:26:00.006Z</time></trkpt><trkpt lat="44.0532217" lon="11.9180833"><ele>227.0</ele><time>2026-04-04T11:26:01.006Z</time></trkpt><trkpt lat="44.05315" lon="11.9179583"><ele>228.0</ele><time>2026-04-04T11:26:02.006Z</time></trkpt><trkpt lat="44.053085" lon="11.91782"><ele>229.0</ele><time>2026-04-04T11:26:03.01Z</time></trkpt><trkpt lat="44.0530183" lon="11.917675"><ele>230.0</ele><time>2026-04-04T11:26:04.008Z</time></trkpt><trkpt lat="44.05295" lon="11.9175183"><ele>230.75</ele><time>2026-04-04T11:26:05.008Z</time></trkpt><trkpt lat="44.0528767" lon="11.9173483"><ele>231.5</ele><time>2026-04-04T11:26:06.009Z</time></trkpt><trkpt lat="44.0527967" lon="11.917185"><ele>232.25</ele><time>2026-04-04T11:26:07.009Z</time></trkpt><trkpt lat="44.0527133" lon="11.917015"><ele>233.0</ele><time>2026-04-04T11:26:08.005Z</time></trkpt><trkpt lat="44.0526267" lon="11.9168417"><ele>234.33333333333334</ele><time>2026-04-04T11:26:09.009Z</time></trkpt><trkpt lat="44.05254" lon="11.9166633"><ele>235.66666666666669</ele><time>2026-04-04T11:26:10.007Z</time></trkpt><trkpt lat="44.0524533" lon="11.9164733"><ele>237.0</ele><time>2026-04-04T11:26:11.006Z</time></trkpt><trkpt lat="44.052365" lon="11.91628"><ele>235.33333333333331</ele><time>2026-04-04T11:26:12.007Z</time></trkpt><trkpt lat="44.052275" lon="11.916085"><ele>233.66666666666666</ele><time>2026-04-04T11:26:13.009Z</time></trkpt><trkpt lat="44.0521833" lon="11.91588"><ele>232.0</ele><time>2026-04-04T11:26:14.008Z</time></trkpt><trkpt lat="44.0520867" lon="11.9156733"><ele>232.0</ele><time>2026-04-04T11:26:15.008Z</time></trkpt><trkpt lat="44.0519859" lon="11.9154522"><ele>232.0</ele><time>2026-04-04T11:26:16.009Z</time></trkpt><trkpt lat="44.0518724" lon="11.9152133"><ele>232.0</ele><time>2026-04-04T11:26:17.009Z</time></trkpt><trkpt lat="44.0517497" lon="11.9149496"><ele>235.0</ele><time>2026-04-04T11:26:18.006Z</time></trkpt><trkpt lat="44.0516397" lon="11.9146583"><ele>238.0</ele><time>2026-04-04T11:26:19.008Z</time></trkpt><trkpt lat="44.0515645" lon="11.9143419"><ele>233.5</ele><time>2026-04-04T11:26:20.007Z</time></trkpt><trkpt lat="44.0514938" lon="11.9140267"><ele>229.0</ele><time>2026-04-04T11:26:21.008Z</time></trkpt><trkpt lat="44.0514054" lon="11.91374"><ele>229.0</ele><time>2026-04-04T11:26:22.009Z</time></trkpt><trkpt lat="44.05129" lon="11.9134751"><ele>229.0</ele><time>2026-04-04T11:26:23.007Z</time></trkpt><trkpt lat="44.0511393" lon="11.9132305"><ele>229.5</ele><time>2026-04-04T11:26:24.006Z</time></trkpt><trkpt lat="44.0509599" lon="11.9129933"><ele>230.0</ele><time>2026-04-04T11:26:25.007Z</time></trkpt><trkpt lat="44.0507579" lon="11.9127609"><ele>234.5</ele><time>2026-04-04T11:26:26.009Z</time></trkpt><trkpt lat="44.0505421" lon="11.9125296"><ele>239.0</ele><time>2026-04-04T11:26:27.007Z</time></trkpt><trkpt lat="44.0503269" lon="11.9123014"><ele>239.0</ele><time>2026-04-04T11:26:28.01Z</time></trkpt><trkpt lat="44.050121" lon="11.9120797"><ele>239.0</ele><time>2026-04-04T11:26:29.007Z</time></trkpt><trkpt lat="44.0499355" lon="11.9118737"><ele>240.0</ele><time>2026-04-04T11:26:30.007Z</time></trkpt><trkpt lat="44.0497638" lon="11.9116815"><ele>241.0</ele><time>2026-04-04T11:26:31.008Z</time></trkpt><trkpt lat="44.0496037" lon="11.9115078"><ele>242.0</ele><time>2026-04-04T11:26:32.008Z</time></trkpt><trkpt lat="44.0494542" lon="11.9113483"><ele>242.0</ele><time>2026-04-04T11:26:33.007Z</time></trkpt><trkpt lat="44.0493239" lon="11.9111964"><ele>242.0</ele><time>2026-04-04T11:26:34.007Z</time></trkpt><trkpt lat="44.0492064" lon="11.9110559"><ele>242.0</ele><time>2026-04-04T11:26:35.011Z</time></trkpt><trkpt lat="44.049116" lon="11.9109073"><ele>240.5</ele><time>2026-04-04T11:26:36.008Z</time></trkpt><trkpt lat="44.0490628" lon="11.9107319"><ele>239.0</ele><time>2026-04-04T11:26:37.012Z</time></trkpt><trkpt lat="44.0490345" lon="11.9105354"><ele>237.5</ele><time>2026-04-04T11:26:38.007Z</time></trkpt><trkpt lat="44.0490142" lon="11.9103272"><ele>236.0</ele><time>2026-04-04T11:26:39.006Z</time></trkpt><trkpt lat="44.0489747" lon="11.9101186"><ele>237.33333333333334</ele><time>2026-04-04T11:26:40.009Z</time></trkpt><trkpt lat="44.0489032" lon="11.9099163"><ele>238.66666666666669</ele><time>2026-04-04T11:26:41.007Z</time></trkpt><trkpt lat="44.0488108" lon="11.909711"><ele>240.0</ele><time>2026-04-04T11:26:42.006Z</time></trkpt><trkpt lat="44.0487048" lon="11.9094945"><ele>240.0</ele><time>2026-04-04T11:26:43.008Z</time></trkpt><trkpt lat="44.0485971" lon="11.9092764"><ele>240.0</ele><time>2026-04-04T11:26:44.005Z</time></trkpt><trkpt lat="44.0484914" lon="11.9090716"><ele>240.0</ele><time>2026-04-04T11:26:45.008Z</time></trkpt><trkpt lat="44.0483894" lon="11.9088819"><ele>241.0</ele><time>2026-04-04T11:26:46.007Z</time></trkpt><trkpt lat="44.0482661" lon="11.9087191"><ele>242.0</ele><time>2026-04-04T11:26:47.007Z</time></trkpt><trkpt lat="44.0481199" lon="11.9085793"><ele>243.0</ele><time>2026-04-04T11:26:48.008Z</time></trkpt><trkpt lat="44.0479696" lon="11.9084541"><ele>246.5</ele><time>2026-04-04T11:26:49.008Z</time></trkpt><trkpt lat="44.0478357" lon="11.908327"><ele>250.0</ele><time>2026-04-04T11:26:50.009Z</time></trkpt><trkpt lat="44.0477204" lon="11.9081998"><ele>253.5</ele><time>2026-04-04T11:26:51.007Z</time></trkpt><trkpt lat="44.0476179" lon="11.9080696"><ele>257.0</ele><time>2026-04-04T11:26:52.007Z</time></trkpt><trkpt lat="44.0475091" lon="11.9079408"><ele>257.33333333333337</ele><time>2026-04-04T11:26:53.007Z</time></trkpt><trkpt lat="44.0473948" lon="11.907806"><ele>257.6666666666667</ele><time>2026-04-04T11:26:54.007Z</time></trkpt><trkpt lat="44.0472725" lon="11.9076669"><ele>258.0</ele><time>2026-04-04T11:26:55.007Z</time></trkpt><trkpt lat="44.0471354" lon="11.9075496"><ele>258.0</ele><time>2026-04-04T11:26:56.008Z</time></trkpt><trkpt lat="44.0469857" lon="11.9074709"><ele>258.0</ele><time>2026-04-04T11:26:57.007Z</time></trkpt><trkpt lat="44.0468407" lon="11.9074144"><ele>258.0</ele><time>2026-04-04T11:26:58.007Z</time></trkpt><trkpt lat="44.0467025" lon="11.9073373"><ele>253.0</ele><time>2026-04-04T11:26:59.008Z</time></trkpt><trkpt lat="44.0465699" lon="11.9072148"><ele>248.0</ele><time>2026-04-04T11:27:00.006Z</time></trkpt><trkpt lat="44.0464376" lon="11.9070539"><ele>243.0</ele><time>2026-04-04T11:27:01.008Z</time></trkpt><trkpt lat="44.0463053" lon="11.906866"><ele>247.33333333333331</ele><time>2026-04-04T11:27:02.01Z</time></trkpt><trkpt lat="44.0461629" lon="11.9066885"><ele>251.66666666666666</ele><time>2026-04-04T11:27:03.009Z</time></trkpt><trkpt lat="44.0460058" lon="11.9065411"><ele>256.0</ele><time>2026-04-04T11:27:04.011Z</time></trkpt><trkpt lat="44.045848" lon="11.9064188"><ele>254.0</ele><time>2026-04-04T11:27:05.007Z</time></trkpt><trkpt lat="44.0457004" lon="11.9063018"><ele>252.0</ele><time>2026-04-04T11:27:06.007Z</time></trkpt><trkpt lat="44.045567" lon="11.9061848"><ele>250.0</ele><time>2026-04-04T11:27:07.007Z</time></trkpt><trkpt lat="44.0454349" lon="11.9060816"><ele>250.0</ele><time>2026-04-04T11:27:08.009Z</time></trkpt><trkpt lat="44.0452961" lon="11.9060268"><ele>250.0</ele><time>2026-04-04T11:27:09.007Z</time></trkpt><trkpt lat="44.0451488" lon="11.9059846"><ele>250.0</ele><time>2026-04-04T11:27:10.006Z</time></trkpt><trkpt lat="44.0449919" lon="11.905916"><ele>250.66666666666666</ele><time>2026-04-04T11:27:11.008Z</time></trkpt><trkpt lat="44.0448274" lon="11.9058024"><ele>251.33333333333331</ele><time>2026-04-04T11:27:12.009Z</time></trkpt><trkpt lat="44.0446601" lon="11.9056572"><ele>252.0</ele><time>2026-04-04T11:27:13.007Z</time></trkpt><trkpt lat="44.0444911" lon="11.9055087"><ele>252.0</ele><time>2026-04-04T11:27:14.008Z</time></trkpt><trkpt lat="44.0443273" lon="11.9053662"><ele>252.0</ele><time>2026-04-04T11:27:15.007Z</time></trkpt><trkpt lat="44.044172" lon="11.9052359"><ele>252.0</ele><time>2026-04-04T11:27:16.008Z</time></trkpt><trkpt lat="44.0440292" lon="11.9051136"><ele>251.0</ele><time>2026-04-04T11:27:17.007Z</time></trkpt><trkpt lat="44.0439" lon="11.9050004"><ele>250.0</ele><time>2026-04-04T11:27:18.008Z</time></trkpt><trkpt lat="44.0437941" lon="11.9048761"><ele>249.0</ele><time>2026-04-04T11:27:19.008Z</time></trkpt><trkpt lat="44.043726" lon="11.9047349"><ele>248.0</ele><time>2026-04-04T11:27:20.008Z</time></trkpt><trkpt lat="44.0437127" lon="11.9045741"><ele>248.0</ele><time>2026-04-04T11:27:21.01Z</time></trkpt><trkpt lat="44.0437393" lon="11.9044012"><ele>248.0</ele><time>2026-04-04T11:27:22.007Z</time></trkpt><trkpt lat="44.0437803" lon="11.9042181"><ele>248.0</ele><time>2026-04-04T11:27:23.009Z</time></trkpt><trkpt lat="44.0437978" lon="11.9040271"><ele>248.0</ele><time>2026-04-04T11:27:24.006Z</time></trkpt><trkpt lat="44.04377" lon="11.9038336"><ele>249.0</ele><time>2026-04-04T11:27:25.008Z</time></trkpt><trkpt lat="44.0436958" lon="11.9036345"><ele>250.0</ele><time>2026-04-04T11:27:26.007Z</time></trkpt><trkpt lat="44.0435969" lon="11.903431"><ele>251.0</ele><time>2026-04-04T11:27:27.007Z</time></trkpt><trkpt lat="44.0435039" lon="11.9032212"><ele>253.33333333333334</ele><time>2026-04-04T11:27:28.006Z</time></trkpt><trkpt lat="44.0434273" lon="11.9030014"><ele>255.66666666666669</ele><time>2026-04-04T11:27:29.007Z</time></trkpt><trkpt lat="44.0433791" lon="11.90278"><ele>258.0</ele><time>2026-04-04T11:27:30.007Z</time></trkpt><trkpt lat="44.043352" lon="11.9025827"><ele>257.0</ele><time>2026-04-04T11:27:31.006Z</time></trkpt><trkpt lat="44.043319" lon="11.9024148"><ele>256.0</ele><time>2026-04-04T11:27:32.007Z</time></trkpt><trkpt lat="44.0432535" lon="11.9022781"><ele>255.0</ele><time>2026-04-04T11:27:33.009Z</time></trkpt><trkpt lat="44.0431464" lon="11.9021762"><ele>254.0</ele><time>2026-04-04T11:27:34.008Z</time></trkpt><trkpt lat="44.0430111" lon="11.9021099"><ele>254.0</ele><time>2026-04-04T11:27:35.007Z</time></trkpt><trkpt lat="44.0428692" lon="11.9020902"><ele>254.0</ele><time>2026-04-04T11:27:36.007Z</time></trkpt><trkpt lat="44.0427239" lon="11.9021222"><ele>254.0</ele><time>2026-04-04T11:27:37.009Z</time></trkpt><trkpt lat="44.0425809" lon="11.9021538"><ele>254.0</ele><time>2026-04-04T11:27:38.006Z</time></trkpt><trkpt lat="44.0424394" lon="11.9021398"><ele>252.0</ele><time>2026-04-04T11:27:39.008Z</time></trkpt><trkpt lat="44.042301" lon="11.9020662"><ele>250.0</ele><time>2026-04-04T11:27:40.009Z</time></trkpt><trkpt lat="44.0421658" lon="11.9019288"><ele>248.0</ele><time>2026-04-04T11:27:41.007Z</time></trkpt><trkpt lat="44.0420276" lon="11.9017524"><ele>248.33333333333334</ele><time>2026-04-04T11:27:42.008Z</time></trkpt><trkpt lat="44.0418769" lon="11.9015719"><ele>248.66666666666669</ele><time>2026-04-04T11:27:43.007Z</time></trkpt><trkpt lat="44.0417002" lon="11.9014063"><ele>249.0</ele><time>2026-04-04T11:27:44.006Z</time></trkpt><trkpt lat="44.0415004" lon="11.9012725"><ele>249.0</ele><time>2026-04-04T11:27:45.009Z</time></trkpt><trkpt lat="44.0412957" lon="11.9011602"><ele>249.0</ele><time>2026-04-04T11:27:46.01Z</time></trkpt><trkpt lat="44.0410987" lon="11.9010452"><ele>249.0</ele><time>2026-04-04T11:27:47.008Z</time></trkpt><trkpt lat="44.0409135" lon="11.9009043"><ele>248.5</ele><time>2026-04-04T11:27:48.006Z</time></trkpt><trkpt lat="44.0407346" lon="11.9007163"><ele>248.0</ele><time>2026-04-04T11:27:49.008Z</time></trkpt><trkpt lat="44.0405589" lon="11.9004965"><ele>248.0</ele><time>2026-04-04T11:27:50.007Z</time></trkpt><trkpt lat="44.0403814" lon="11.9002773"><ele>248.0</ele><time>2026-04-04T11:27:51.008Z</time></trkpt><trkpt lat="44.0402046" lon="11.9000693"><ele>248.5</ele><time>2026-04-04T11:27:52.008Z</time></trkpt><trkpt lat="44.0400186" lon="11.8998829"><ele>249.0</ele><time>2026-04-04T11:27:53.007Z</time></trkpt><trkpt lat="44.039818" lon="11.8997393"><ele>249.0</ele><time>2026-04-04T11:27:54.006Z</time></trkpt><trkpt lat="44.0396138" lon="11.8996533"><ele>249.0</ele><time>2026-04-04T11:27:55.009Z</time></trkpt><trkpt lat="44.0394184" lon="11.8995815"><ele>249.0</ele><time>2026-04-04T11:27:56.008Z</time></trkpt><trkpt lat="44.0392255" lon="11.8994885"><ele>249.0</ele><time>2026-04-04T11:27:57.008Z</time></trkpt><trkpt lat="44.0390342" lon="11.8993463"><ele>249.0</ele><time>2026-04-04T11:27:58.008Z</time></trkpt><trkpt lat="44.0388496" lon="11.8991587"><ele>249.0</ele><time>2026-04-04T11:27:59.007Z</time></trkpt><trkpt lat="44.0386654" lon="11.8989656"><ele>248.5</ele><time>2026-04-04T11:28:00.007Z</time></trkpt><trkpt lat="44.0384728" lon="11.89879"><ele>248.0</ele><time>2026-04-04T11:28:01.008Z</time></trkpt><trkpt lat="44.038272" lon="11.8986376"><ele>248.0</ele><time>2026-04-04T11:28:02.007Z</time></trkpt><trkpt lat="44.0380659" lon="11.8984984"><ele>248.0</ele><time>2026-04-04T11:28:03.012Z</time></trkpt><trkpt lat="44.0378647" lon="11.8983567"><ele>249.0</ele><time>2026-04-04T11:28:04.006Z</time></trkpt><trkpt lat="44.0376668" lon="11.8982166"><ele>250.0</ele><time>2026-04-04T11:28:05.007Z</time></trkpt><trkpt lat="44.0374718" lon="11.8980775"><ele>251.0</ele><time>2026-04-04T11:28:06.008Z</time></trkpt><trkpt lat="44.0372747" lon="11.8979471"><ele>251.0</ele><time>2026-04-04T11:28:07.007Z</time></trkpt><trkpt lat="44.0370782" lon="11.8978163"><ele>251.0</ele><time>2026-04-04T11:28:08.007Z</time></trkpt><trkpt lat="44.0368866" lon="11.897683"><ele>251.0</ele><time>2026-04-04T11:28:09.01Z</time></trkpt><trkpt lat="44.0366949" lon="11.8975609"><ele>253.33333333333334</ele><time>2026-04-04T11:28:10.008Z</time></trkpt><trkpt lat="44.0365105" lon="11.8974458"><ele>255.66666666666669</ele><time>2026-04-04T11:28:11.008Z</time></trkpt><trkpt lat="44.0363357" lon="11.8973205"><ele>258.0</ele><time>2026-04-04T11:28:12.007Z</time></trkpt><trkpt lat="44.0361684" lon="11.8971882"><ele>258.0</ele><time>2026-04-04T11:28:13.011Z</time></trkpt><trkpt lat="44.0360126" lon="11.8970375"><ele>258.0</ele><time>2026-04-04T11:28:14.007Z</time></trkpt><trkpt lat="44.0358625" lon="11.8968617"><ele>258.0</ele><time>2026-04-04T11:28:15.012Z</time></trkpt><trkpt lat="44.0357229" lon="11.896658"><ele>257.0</ele><time>2026-04-04T11:28:16.008Z</time></trkpt><trkpt lat="44.0355924" lon="11.8964421"><ele>256.0</ele><time>2026-04-04T11:28:17.006Z</time></trkpt><trkpt lat="44.0354469" lon="11.8962356"><ele>255.0</ele><time>2026-04-04T11:28:18.007Z</time></trkpt><trkpt lat="44.0352741" lon="11.8960652"><ele>255.0</ele><time>2026-04-04T11:28:19.006Z</time></trkpt><trkpt lat="44.0350741" lon="11.8959293"><ele>255.0</ele><time>2026-04-04T11:28:20.006Z</time></trkpt><trkpt lat="44.0348605" lon="11.8958061"><ele>256.5</ele><time>2026-04-04T11:28:21.008Z</time></trkpt><trkpt lat="44.0346438" lon="11.8956813"><ele>258.0</ele><time>2026-04-04T11:28:22.007Z</time></trkpt><trkpt lat="44.0344248" lon="11.8955517"><ele>258.0</ele><time>2026-04-04T11:28:23.007Z</time></trkpt><trkpt lat="44.0342011" lon="11.8954221"><ele>258.0</ele><time>2026-04-04T11:28:24.009Z</time></trkpt><trkpt lat="44.0339757" lon="11.8952862"><ele>256.0</ele><time>2026-04-04T11:28:25.007Z</time></trkpt><trkpt lat="44.0337486" lon="11.8951515"><ele>254.0</ele><time>2026-04-04T11:28:26.006Z</time></trkpt><trkpt lat="44.0335251" lon="11.8950255"><ele>256.0</ele><time>2026-04-04T11:28:27.007Z</time></trkpt><trkpt lat="44.0333165" lon="11.8948998"><ele>258.0</ele><time>2026-04-04T11:28:28.007Z</time></trkpt><trkpt lat="44.0331265" lon="11.8947841"><ele>260.0</ele><time>2026-04-04T11:28:29.006Z</time></trkpt><trkpt lat="44.0329445" lon="11.8946831"><ele>260.0</ele><time>2026-04-04T11:28:30.01Z</time></trkpt><trkpt lat="44.0327672" lon="11.8945981"><ele>260.0</ele><time>2026-04-04T11:28:31.006Z</time></trkpt><trkpt lat="44.0325846" lon="11.8945624"><ele>260.0</ele><time>2026-04-04T11:28:32.008Z</time></trkpt><trkpt lat="44.0323949" lon="11.8945788"><ele>259.33333333333337</ele><time>2026-04-04T11:28:33.007Z</time></trkpt><trkpt lat="44.0322023" lon="11.8946083"><ele>258.6666666666667</ele><time>2026-04-04T11:28:34.009Z</time></trkpt><trkpt lat="44.0320064" lon="11.8946194"><ele>258.0</ele><time>2026-04-04T11:28:35.005Z</time></trkpt><trkpt lat="44.0318117" lon="11.8945926"><ele>257.6666666666667</ele><time>2026-04-04T11:28:36.005Z</time></trkpt><trkpt lat="44.0316196" lon="11.8945261"><ele>257.33333333333337</ele><time>2026-04-04T11:28:37.008Z</time></trkpt><trkpt lat="44.031428" lon="11.894418"><ele>257.0</ele><time>2026-04-04T11:28:38.006Z</time></trkpt><trkpt lat="44.0312405" lon="11.8942643"><ele>258.33333333333337</ele><time>2026-04-04T11:28:39.008Z</time></trkpt><trkpt lat="44.0310566" lon="11.8940955"><ele>259.6666666666667</ele><time>2026-04-04T11:28:40.007Z</time></trkpt><trkpt lat="44.0308707" lon="11.8939395"><ele>261.0</ele><time>2026-04-04T11:28:41.006Z</time></trkpt><trkpt lat="44.0306695" lon="11.8938148"><ele>261.0</ele><time>2026-04-04T11:28:42.007Z</time></trkpt><trkpt lat="44.0304479" lon="11.893722"><ele>261.0</ele><time>2026-04-04T11:28:43.01Z</time></trkpt><trkpt lat="44.0302141" lon="11.8936591"><ele>261.0</ele><time>2026-04-04T11:28:44.006Z</time></trkpt><trkpt lat="44.0299812" lon="11.8936198"><ele>261.0</ele><time>2026-04-04T11:28:45.006Z</time></trkpt><trkpt lat="44.0297643" lon="11.8936029"><ele>260.3333333333333</ele><time>2026-04-04T11:28:46.006Z</time></trkpt><trkpt lat="44.0295614" lon="11.8936145"><ele>259.66666666666663</ele><time>2026-04-04T11:28:47.007Z</time></trkpt><trkpt lat="44.0293754" lon="11.8936558"><ele>259.0</ele><time>2026-04-04T11:28:48.007Z</time></trkpt><trkpt lat="44.0292051" lon="11.8937149"><ele>258.66666666666663</ele><time>2026-04-04T11:28:49.006Z</time></trkpt><trkpt lat="44.0290447" lon="11.8937784"><ele>258.3333333333333</ele><time>2026-04-04T11:28:50.007Z</time></trkpt><trkpt lat="44.0288881" lon="11.8938064"><ele>258.0</ele><time>2026-04-04T11:28:51.007Z</time></trkpt><trkpt lat="44.0287305" lon="11.8937848"><ele>258.0</ele><time>2026-04-04T11:28:52.005Z</time></trkpt><trkpt lat="44.0285676" lon="11.8937109"><ele>258.0</ele><time>2026-04-04T11:28:53.005Z</time></trkpt><trkpt lat="44.0283972" lon="11.893591"><ele>258.0</ele><time>2026-04-04T11:28:54.006Z</time></trkpt><trkpt lat="44.028216" lon="11.8934541"><ele>261.0</ele><time>2026-04-04T11:28:55.006Z</time></trkpt><trkpt lat="44.0280157" lon="11.8933328"><ele>264.0</ele><time>2026-04-04T11:28:56.008Z</time></trkpt><trkpt lat="44.0278004" lon="11.8932251"><ele>267.0</ele><time>2026-04-04T11:28:57.01Z</time></trkpt><trkpt lat="44.0275804" lon="11.8931229"><ele>265.0</ele><time>2026-04-04T11:28:58.008Z</time></trkpt><trkpt lat="44.0273627" lon="11.8930212"><ele>263.0</ele><time>2026-04-04T11:28:59.008Z</time></trkpt><trkpt lat="44.0271503" lon="11.8929266"><ele>263.0</ele><time>2026-04-04T11:29:00.006Z</time></trkpt><trkpt lat="44.0269492" lon="11.8928266"><ele>263.0</ele><time>2026-04-04T11:29:01.006Z</time></trkpt><trkpt lat="44.0267526" lon="11.8927398"><ele>263.0</ele><time>2026-04-04T11:29:02.007Z</time></trkpt><trkpt lat="44.026558" lon="11.8926442"><ele>265.33333333333337</ele><time>2026-04-04T11:29:03.009Z</time></trkpt><trkpt lat="44.0263664" lon="11.8925113"><ele>267.6666666666667</ele><time>2026-04-04T11:29:04.006Z</time></trkpt><trkpt lat="44.0261781" lon="11.8923405"><ele>270.0</ele><time>2026-04-04T11:29:05.007Z</time></trkpt><trkpt lat="44.0259842" lon="11.8921733"><ele>266.5</ele><time>2026-04-04T11:29:06.009Z</time></trkpt><trkpt lat="44.0257857" lon="11.8920156"><ele>263.0</ele><time>2026-04-04T11:29:07.007Z</time></trkpt><trkpt lat="44.025585" lon="11.8918696"><ele>265.6666666666667</ele><time>2026-04-04T11:29:08.008Z</time></trkpt><trkpt lat="44.0253935" lon="11.8917255"><ele>268.3333333333333</ele><time>2026-04-04T11:29:09.007Z</time></trkpt><trkpt lat="44.0252194" lon="11.8915777"><ele>271.0</ele><time>2026-04-04T11:29:10.008Z</time></trkpt><trkpt lat="44.0250627" lon="11.8914379"><ele>269.66666666666663</ele><time>2026-04-04T11:29:11.007Z</time></trkpt><trkpt lat="44.024923" lon="11.8912957"><ele>268.3333333333333</ele><time>2026-04-04T11:29:12.005Z</time></trkpt><trkpt lat="44.0248018" lon="11.8911285"><ele>267.0</ele><time>2026-04-04T11:29:13.007Z</time></trkpt><trkpt lat="44.0247015" lon="11.8909074"><ele>267.0</ele><time>2026-04-04T11:29:14.009Z</time></trkpt><trkpt lat="44.0246154" lon="11.8906392"><ele>267.0</ele><time>2026-04-04T11:29:15.009Z</time></trkpt><trkpt lat="44.0245401" lon="11.8903285"><ele>267.0</ele><time>2026-04-04T11:29:16.005Z</time></trkpt><trkpt lat="44.024465" lon="11.8899922"><ele>268.5</ele><time>2026-04-04T11:29:17.006Z</time></trkpt><trkpt lat="44.0243883" lon="11.889654"><ele>270.0</ele><time>2026-04-04T11:29:18.007Z</time></trkpt><trkpt lat="44.0243126" lon="11.8893343"><ele>271.0</ele><time>2026-04-04T11:29:19.007Z</time></trkpt><trkpt lat="44.02424" lon="11.889037"><ele>272.0</ele><time>2026-04-04T11:29:20.012Z</time></trkpt><trkpt lat="44.0241744" lon="11.8887578"><ele>273.0</ele><time>2026-04-04T11:29:21.009Z</time></trkpt><trkpt lat="44.0241113" lon="11.8884865"><ele>271.0</ele><time>2026-04-04T11:29:22.006Z</time></trkpt><trkpt lat="44.0240498" lon="11.8882226"><ele>269.0</ele><time>2026-04-04T11:29:23.006Z</time></trkpt><trkpt lat="44.0239873" lon="11.8879593"><ele>267.0</ele><time>2026-04-04T11:29:24.006Z</time></trkpt><trkpt lat="44.0239174" lon="11.8876993"><ele>268.3333333333333</ele><time>2026-04-04T11:29:25.007Z</time></trkpt><trkpt lat="44.0238348" lon="11.8874482"><ele>269.66666666666663</ele><time>2026-04-04T11:29:26.007Z</time></trkpt><trkpt lat="44.0237395" lon="11.8872026"><ele>271.0</ele><time>2026-04-04T11:29:27.009Z</time></trkpt><trkpt lat="44.0236327" lon="11.8869635"><ele>274.3333333333333</ele><time>2026-04-04T11:29:28.006Z</time></trkpt><trkpt lat="44.0235241" lon="11.886725"><ele>277.6666666666667</ele><time>2026-04-04T11:29:29.005Z</time></trkpt><trkpt lat="44.0234267" lon="11.8864796"><ele>281.0</ele><time>2026-04-04T11:29:30.006Z</time></trkpt><trkpt lat="44.0233558" lon="11.8862143"><ele>277.0</ele><time>2026-04-04T11:29:31.006Z</time></trkpt><trkpt lat="44.0233058" lon="11.8859353"><ele>273.0</ele><time>2026-04-04T11:29:32.007Z</time></trkpt><trkpt lat="44.0232717" lon="11.8856486"><ele>269.0</ele><time>2026-04-04T11:29:33.006Z</time></trkpt><trkpt lat="44.0232569" lon="11.8853543"><ele>269.33333333333337</ele><time>2026-04-04T11:29:34.006Z</time></trkpt><trkpt lat="44.0232587" lon="11.8850549"><ele>269.6666666666667</ele><time>2026-04-04T11:29:35.009Z</time></trkpt><trkpt lat="44.023263" lon="11.884753"><ele>270.0</ele><time>2026-04-04T11:29:36.006Z</time></trkpt><trkpt lat="44.023264" lon="11.8844488"><ele>271.3333333333333</ele><time>2026-04-04T11:29:37.006Z</time></trkpt><trkpt lat="44.0232643" lon="11.8841437"><ele>272.66666666666663</ele><time>2026-04-04T11:29:38.006Z</time></trkpt><trkpt lat="44.0232603" lon="11.8838387"><ele>274.0</ele><time>2026-04-04T11:29:39.006Z</time></trkpt><trkpt lat="44.0232553" lon="11.883539"><ele>274.66666666666663</ele><time>2026-04-04T11:29:40.006Z</time></trkpt><trkpt lat="44.0232528" lon="11.883245"><ele>275.3333333333333</ele><time>2026-04-04T11:29:41.005Z</time></trkpt><trkpt lat="44.0232474" lon="11.8829617"><ele>276.0</ele><time>2026-04-04T11:29:42.007Z</time></trkpt><trkpt lat="44.0232459" lon="11.8826929"><ele>275.6666666666667</ele><time>2026-04-04T11:29:43.007Z</time></trkpt><trkpt lat="44.0232462" lon="11.88244"><ele>275.33333333333337</ele><time>2026-04-04T11:29:44.011Z</time></trkpt><trkpt lat="44.0232483" lon="11.8822002"><ele>275.0</ele><time>2026-04-04T11:29:45.006Z</time></trkpt><trkpt lat="44.0232452" lon="11.881973"><ele>275.33333333333337</ele><time>2026-04-04T11:29:46.006Z</time></trkpt><trkpt lat="44.0232383" lon="11.8817553"><ele>275.6666666666667</ele><time>2026-04-04T11:29:47.006Z</time></trkpt><trkpt lat="44.0232133" lon="11.881546"><ele>276.0</ele><time>2026-04-04T11:29:48.006Z</time></trkpt><trkpt lat="44.0231733" lon="11.8813432"><ele>276.0</ele><time>2026-04-04T11:29:49.009Z</time></trkpt><trkpt lat="44.0231146" lon="11.8811545"><ele>276.0</ele><time>2026-04-04T11:29:50.005Z</time></trkpt><trkpt lat="44.0230391" lon="11.8809767"><ele>276.0</ele><time>2026-04-04T11:29:51.007Z</time></trkpt><trkpt lat="44.0229587" lon="11.880801"><ele>276.0</ele><time>2026-04-04T11:29:52.007Z</time></trkpt><trkpt lat="44.0228766" lon="11.8806222"><ele>277.6666666666667</ele><time>2026-04-04T11:29:53.005Z</time></trkpt><trkpt lat="44.0227944" lon="11.880442"><ele>279.33333333333337</ele><time>2026-04-04T11:29:54.009Z</time></trkpt><trkpt lat="44.0227149" lon="11.8802633"><ele>281.0</ele><time>2026-04-04T11:29:55.006Z</time></trkpt><trkpt lat="44.0226361" lon="11.8800859"><ele>280.5</ele><time>2026-04-04T11:29:56.005Z</time></trkpt><trkpt lat="44.0225631" lon="11.8799198"><ele>280.0</ele><time>2026-04-04T11:29:57.007Z</time></trkpt><trkpt lat="44.0224989" lon="11.8797696"><ele>279.5</ele><time>2026-04-04T11:29:58.007Z</time></trkpt><trkpt lat="44.0224437" lon="11.8796299"><ele>279.0</ele><time>2026-04-04T11:29:59.008Z</time></trkpt><trkpt lat="44.0223943" lon="11.8795033"><ele>279.0</ele><time>2026-04-04T11:30:00.008Z</time></trkpt><trkpt lat="44.0223549" lon="11.8793917"><ele>279.0</ele><time>2026-04-04T11:30:01.007Z</time></trkpt><trkpt lat="44.0223176" lon="11.8793016"><ele>279.0</ele><time>2026-04-04T11:30:02.007Z</time></trkpt><trkpt lat="44.0222299" lon="11.8792218"><ele>279.0</ele><time>2026-04-04T11:30:04.005Z</time></trkpt><trkpt lat="44.0221014" lon="11.8793025"><ele>279.0</ele><time>2026-04-04T11:30:06.007Z</time></trkpt><trkpt lat="44.0220092" lon="11.8793989"><ele>279.0</ele><time>2026-04-04T11:30:07.009Z</time></trkpt><trkpt lat="44.0218655" lon="11.8795476"><ele>279.0</ele><time>2026-04-04T11:30:08.01Z</time></trkpt><trkpt lat="44.0217025" lon="11.8796964"><ele>279.0</ele><time>2026-04-04T11:30:09.008Z</time></trkpt><trkpt lat="44.0215222" lon="11.8798439"><ele>279.6666666666667</ele><time>2026-04-04T11:30:10.006Z</time></trkpt><trkpt lat="44.0213372" lon="11.8799797"><ele>280.33333333333337</ele><time>2026-04-04T11:30:11.005Z</time></trkpt><trkpt lat="44.0211671" lon="11.8800955"><ele>281.0</ele><time>2026-04-04T11:30:12.007Z</time></trkpt><trkpt lat="44.0210254" lon="11.8801936"><ele>282.0</ele><time>2026-04-04T11:30:13.007Z</time></trkpt><trkpt lat="44.0209148" lon="11.8802744"><ele>283.0</ele><time>2026-04-04T11:30:14.006Z</time></trkpt><trkpt lat="44.0208503" lon="11.8803659"><ele>284.0</ele><time>2026-04-04T11:30:15.007Z</time></trkpt><trkpt lat="44.0208193" lon="11.8804738"><ele>285.0</ele><time>2026-04-04T11:30:16.007Z</time></trkpt><trkpt lat="44.0208013" lon="11.880597"><ele>286.0</ele><time>2026-04-04T11:30:17.007Z</time></trkpt><trkpt lat="44.020807" lon="11.8807456"><ele>287.0</ele><time>2026-04-04T11:30:18.006Z</time></trkpt><trkpt lat="44.0208306" lon="11.880948"><ele>288.0</ele><time>2026-04-04T11:30:19.01Z</time></trkpt><trkpt lat="44.0208454" lon="11.881187"><ele>289.0</ele><time>2026-04-04T11:30:20.009Z</time></trkpt><trkpt lat="44.0208469" lon="11.8814264"><ele>289.0</ele><time>2026-04-04T11:30:21.006Z</time></trkpt><trkpt lat="44.0208365" lon="11.8816391"><ele>289.0</ele><time>2026-04-04T11:30:22.006Z</time></trkpt><trkpt lat="44.0208151" lon="11.8818163"><ele>289.0</ele><time>2026-04-04T11:30:23.005Z</time></trkpt><trkpt lat="44.0207795" lon="11.8819669"><ele>289.0</ele><time>2026-04-04T11:30:24.007Z</time></trkpt><trkpt lat="44.0207287" lon="11.8821053"><ele>291.25</ele><time>2026-04-04T11:30:25.009Z</time></trkpt><trkpt lat="44.0206677" lon="11.8822382"><ele>293.5</ele><time>2026-04-04T11:30:26.007Z</time></trkpt><trkpt lat="44.0206053" lon="11.8823743"><ele>295.75</ele><time>2026-04-04T11:30:27.01Z</time></trkpt><trkpt lat="44.0205455" lon="11.8825132"><ele>298.0</ele><time>2026-04-04T11:30:28.005Z</time></trkpt><trkpt lat="44.0204772" lon="11.8826593"><ele>298.25</ele><time>2026-04-04T11:30:29.009Z</time></trkpt><trkpt lat="44.0204141" lon="11.882806"><ele>298.5</ele><time>2026-04-04T11:30:30.008Z</time></trkpt><trkpt lat="44.0203488" lon="11.8829562"><ele>298.75</ele><time>2026-04-04T11:30:31.006Z</time></trkpt><trkpt lat="44.0202811" lon="11.8831152"><ele>299.0</ele><time>2026-04-04T11:30:32.006Z</time></trkpt><trkpt lat="44.0201995" lon="11.8832946"><ele>298.6666666666667</ele><time>2026-04-04T11:30:33.006Z</time></trkpt><trkpt lat="44.0201094" lon="11.8834843"><ele>298.3333333333333</ele><time>2026-04-04T11:30:34.006Z</time></trkpt><trkpt lat="44.0200116" lon="11.8836819"><ele>298.0</ele><time>2026-04-04T11:30:35.005Z</time></trkpt><trkpt lat="44.0199095" lon="11.8838822"><ele>301.0</ele><time>2026-04-04T11:30:36.006Z</time></trkpt><trkpt lat="44.0198098" lon="11.8840774"><ele>304.0</ele><time>2026-04-04T11:30:37.006Z</time></trkpt><trkpt lat="44.0197217" lon="11.8842582"><ele>307.0</ele><time>2026-04-04T11:30:38.006Z</time></trkpt><trkpt lat="44.0196428" lon="11.8844277"><ele>307.5</ele><time>2026-04-04T11:30:39.008Z</time></trkpt><trkpt lat="44.0195615" lon="11.8845973"><ele>308.0</ele><time>2026-04-04T11:30:40.012Z</time></trkpt><trkpt lat="44.0194825" lon="11.8847664"><ele>308.5</ele><time>2026-04-04T11:30:41.007Z</time></trkpt><trkpt lat="44.0194112" lon="11.8849401"><ele>309.0</ele><time>2026-04-04T11:30:42.007Z</time></trkpt><trkpt lat="44.0193482" lon="11.8851078"><ele>309.0</ele><time>2026-04-04T11:30:43.007Z</time></trkpt><trkpt lat="44.0192819" lon="11.8852591"><ele>309.0</ele><time>2026-04-04T11:30:44.007Z</time></trkpt><trkpt lat="44.0191984" lon="11.8853939"><ele>309.0</ele><time>2026-04-04T11:30:45.007Z</time></trkpt><trkpt lat="44.0190833" lon="11.88552"><ele>309.0</ele><time>2026-04-04T11:30:46.006Z</time></trkpt><trkpt lat="44.0189533" lon="11.8856517"><ele>310.6666666666667</ele><time>2026-04-04T11:30:47.006Z</time></trkpt><trkpt lat="44.018805" lon="11.885775"><ele>312.33333333333337</ele><time>2026-04-04T11:30:48.006Z</time></trkpt><trkpt lat="44.018645" lon="11.8859"><ele>314.0</ele><time>2026-04-04T11:30:49.007Z</time></trkpt><trkpt lat="44.018485" lon="11.88603"><ele>314.33333333333337</ele><time>2026-04-04T11:30:50.005Z</time></trkpt><trkpt lat="44.01834" lon="11.8861517"><ele>314.6666666666667</ele><time>2026-04-04T11:30:51.006Z</time></trkpt><trkpt lat="44.0182067" lon="11.8862883"><ele>315.0</ele><time>2026-04-04T11:30:52.005Z</time></trkpt><trkpt lat="44.018105" lon="11.88643"><ele>317.0</ele><time>2026-04-04T11:30:53.006Z</time></trkpt><trkpt lat="44.0180233" lon="11.8865317"><ele>319.0</ele><time>2026-04-04T11:30:54.006Z</time></trkpt><trkpt lat="44.017985" lon="11.8866333"><ele>321.0</ele><time>2026-04-04T11:30:55.007Z</time></trkpt><trkpt lat="44.0179717" lon="11.886765"><ele>323.0</ele><time>2026-04-04T11:30:56.009Z</time></trkpt><trkpt lat="44.0179733" lon="11.886895"><ele>325.0</ele><time>2026-04-04T11:30:57.007Z</time></trkpt><trkpt lat="44.0180183" lon="11.8870117"><ele>325.0</ele><time>2026-04-04T11:30:58.006Z</time></trkpt><trkpt lat="44.0181" lon="11.887105"><ele>325.0</ele><time>2026-04-04T11:30:59.009Z</time></trkpt><trkpt lat="44.0182517" lon="11.8871367"><ele>325.0</ele><time>2026-04-04T11:31:00.007Z</time></trkpt><trkpt lat="44.01842" lon="11.8871333"><ele>325.0</ele><time>2026-04-04T11:31:01.007Z</time></trkpt><trkpt lat="44.0185367" lon="11.88719"><ele>326.5</ele><time>2026-04-04T11:31:02.008Z</time></trkpt><trkpt lat="44.0186317" lon="11.8872883"><ele>328.0</ele><time>2026-04-04T11:31:03.009Z</time></trkpt><trkpt lat="44.0187033" lon="11.8874267"><ele>329.5</ele><time>2026-04-04T11:31:04.007Z</time></trkpt><trkpt lat="44.0187583" lon="11.8876133"><ele>331.0</ele><time>2026-04-04T11:31:05.009Z</time></trkpt><trkpt lat="44.0188033" lon="11.887825"><ele>338.66666666666663</ele><time>2026-04-04T11:31:06.006Z</time></trkpt><trkpt lat="44.018845" lon="11.88807"><ele>346.3333333333333</ele><time>2026-04-04T11:31:07.007Z</time></trkpt><trkpt lat="44.018895" lon="11.88832"><ele>354.0</ele><time>2026-04-04T11:31:08.006Z</time></trkpt><trkpt lat="44.018945" lon="11.8885567"><ele>358.6666666666667</ele><time>2026-04-04T11:31:09.007Z</time></trkpt><trkpt lat="44.0189883" lon="11.8887717"><ele>363.33333333333337</ele><time>2026-04-04T11:31:10.007Z</time></trkpt><trkpt lat="44.0190083" lon="11.8889717"><ele>368.0</ele><time>2026-04-04T11:31:11.006Z</time></trkpt><trkpt lat="44.0190017" lon="11.889175"><ele>367.6666666666667</ele><time>2026-04-04T11:31:12.005Z</time></trkpt><trkpt lat="44.01894" lon="11.8893883"><ele>367.3333333333333</ele><time>2026-04-04T11:31:13.007Z</time></trkpt><trkpt lat="44.0188617" lon="11.8895767"><ele>367.0</ele><time>2026-04-04T11:31:14.008Z</time></trkpt><trkpt lat="44.01881" lon="11.889745"><ele>367.0</ele><time>2026-04-04T11:31:15.006Z</time></trkpt><trkpt lat="44.0188017" lon="11.8898833"><ele>367.0</ele><time>2026-04-04T11:31:16.006Z</time></trkpt><trkpt lat="44.0188133" lon="11.89001"><ele>367.0</ele><time>2026-04-04T11:31:17.006Z</time></trkpt><trkpt lat="44.0188583" lon="11.890115"><ele>367.0</ele><time>2026-04-04T11:31:18.006Z</time></trkpt><trkpt lat="44.018985" lon="11.890185"><ele>367.0</ele><time>2026-04-04T11:31:19.007Z</time></trkpt><trkpt lat="44.0191067" lon="11.8902967"><ele>365.0</ele><time>2026-04-04T11:31:20.008Z</time></trkpt><trkpt lat="44.01922" lon="11.8904311"><ele>363.0</ele><time>2026-04-04T11:31:21.017Z</time></trkpt><trkpt lat="44.0193195" lon="11.8906073"><ele>361.0</ele><time>2026-04-04T11:31:22.006Z</time></trkpt><trkpt lat="44.0194042" lon="11.8908361"><ele>370.66666666666663</ele><time>2026-04-04T11:31:23.006Z</time></trkpt><trkpt lat="44.0194818" lon="11.8911059"><ele>380.3333333333333</ele><time>2026-04-04T11:31:24.008Z</time></trkpt><trkpt lat="44.0195778" lon="11.8913936"><ele>390.0</ele><time>2026-04-04T11:31:25.007Z</time></trkpt><trkpt lat="44.0196837" lon="11.8916656"><ele>394.0</ele><time>2026-04-04T11:31:26.007Z</time></trkpt><trkpt lat="44.0197879" lon="11.8918974"><ele>398.0</ele><time>2026-04-04T11:31:27.008Z</time></trkpt><trkpt lat="44.0198814" lon="11.8920911"><ele>402.0</ele><time>2026-04-04T11:31:28.007Z</time></trkpt><trkpt lat="44.0199483" lon="11.8922638"><ele>402.0</ele><time>2026-04-04T11:31:29.008Z</time></trkpt><trkpt lat="44.0199785" lon="11.8924271"><ele>402.0</ele><time>2026-04-04T11:31:30.008Z</time></trkpt><trkpt lat="44.0199581" lon="11.8925918"><ele>402.0</ele><time>2026-04-04T11:31:31.005Z</time></trkpt><trkpt lat="44.0198968" lon="11.8927731"><ele>402.0</ele><time>2026-04-04T11:31:32.007Z</time></trkpt><trkpt lat="44.019807" lon="11.8929727"><ele>396.66666666666663</ele><time>2026-04-04T11:31:33.007Z</time></trkpt><trkpt lat="44.0196886" lon="11.893181"><ele>391.3333333333333</ele><time>2026-04-04T11:31:34.007Z</time></trkpt><trkpt lat="44.0195606" lon="11.8933726"><ele>386.0</ele><time>2026-04-04T11:31:35.006Z</time></trkpt><trkpt lat="44.0194364" lon="11.8935408"><ele>384.5</ele><time>2026-04-04T11:31:36.006Z</time></trkpt><trkpt lat="44.0193269" lon="11.89368"><ele>383.0</ele><time>2026-04-04T11:31:37.006Z</time></trkpt><trkpt lat="44.0192141" lon="11.8937891"><ele>381.5</ele><time>2026-04-04T11:31:38.005Z</time></trkpt><trkpt lat="44.0190737" lon="11.8938646"><ele>380.0</ele><time>2026-04-04T11:31:39.005Z</time></trkpt><trkpt lat="44.018905" lon="11.8939155"><ele>380.0</ele><time>2026-04-04T11:31:40.006Z</time></trkpt><trkpt lat="44.0187173" lon="11.8939691"><ele>380.0</ele><time>2026-04-04T11:31:41.005Z</time></trkpt><trkpt lat="44.0185136" lon="11.8940495"><ele>380.0</ele><time>2026-04-04T11:31:42.007Z</time></trkpt><trkpt lat="44.0182955" lon="11.8941332"><ele>381.0</ele><time>2026-04-04T11:31:43.008Z</time></trkpt><trkpt lat="44.0180836" lon="11.8942098"><ele>382.0</ele><time>2026-04-04T11:31:44.007Z</time></trkpt><trkpt lat="44.0178885" lon="11.8942898"><ele>383.0</ele><time>2026-04-04T11:31:45.007Z</time></trkpt><trkpt lat="44.0177219" lon="11.8943805"><ele>383.0</ele><time>2026-04-04T11:31:46.007Z</time></trkpt><trkpt lat="44.0175852" lon="11.8944645"><ele>383.0</ele><time>2026-04-04T11:31:47.008Z</time></trkpt><trkpt lat="44.0174686" lon="11.8945394"><ele>383.0</ele><time>2026-04-04T11:31:48.005Z</time></trkpt><trkpt lat="44.0173718" lon="11.8946436"><ele>383.0</ele><time>2026-04-04T11:31:49.006Z</time></trkpt><trkpt lat="44.0172966" lon="11.8947843"><ele>386.0</ele><time>2026-04-04T11:31:50.006Z</time></trkpt><trkpt lat="44.0172341" lon="11.8949211"><ele>389.0</ele><time>2026-04-04T11:31:51.008Z</time></trkpt><trkpt lat="44.0171629" lon="11.89503"><ele>392.0</ele><time>2026-04-04T11:31:52.008Z</time></trkpt><trkpt lat="44.0170645" lon="11.895104"><ele>395.0</ele><time>2026-04-04T11:31:53.007Z</time></trkpt><trkpt lat="44.0169387" lon="11.8951523"><ele>395.0</ele><time>2026-04-04T11:31:54.005Z</time></trkpt><trkpt lat="44.016781" lon="11.8951914"><ele>395.0</ele><time>2026-04-04T11:31:55.006Z</time></trkpt><trkpt lat="44.0166137" lon="11.8952374"><ele>395.0</ele><time>2026-04-04T11:31:56.008Z</time></trkpt><trkpt lat="44.0164593" lon="11.8952999"><ele>403.5</ele><time>2026-04-04T11:31:57.006Z</time></trkpt><trkpt lat="44.0163379" lon="11.8953869"><ele>412.0</ele><time>2026-04-04T11:31:58.009Z</time></trkpt><trkpt lat="44.0162416" lon="11.8955098"><ele>420.5</ele><time>2026-04-04T11:31:59.008Z</time></trkpt><trkpt lat="44.0161771" lon="11.8956612"><ele>429.0</ele><time>2026-04-04T11:32:00.006Z</time></trkpt><trkpt lat="44.0161681" lon="11.8958271"><ele>432.25</ele><time>2026-04-04T11:32:01.007Z</time></trkpt><trkpt lat="44.016191" lon="11.8959901"><ele>435.5</ele><time>2026-04-04T11:32:02.007Z</time></trkpt><trkpt lat="44.0162515" lon="11.8961359"><ele>438.75</ele><time>2026-04-04T11:32:03.009Z</time></trkpt><trkpt lat="44.0163424" lon="11.8962542"><ele>442.0</ele><time>2026-04-04T11:32:04.007Z</time></trkpt><trkpt lat="44.0164569" lon="11.8963457"><ele>442.0</ele><time>2026-04-04T11:32:05.007Z</time></trkpt><trkpt lat="44.0165726" lon="11.8964352"><ele>442.0</ele><time>2026-04-04T11:32:06.011Z</time></trkpt><trkpt lat="44.0166732" lon="11.8965388"><ele>442.0</ele><time>2026-04-04T11:32:07.007Z</time></trkpt><trkpt lat="44.0167391" lon="11.8966632"><ele>442.0</ele><time>2026-04-04T11:32:08.009Z</time></trkpt><trkpt lat="44.0167552" lon="11.8968021"><ele>439.0</ele><time>2026-04-04T11:32:09.01Z</time></trkpt><trkpt lat="44.01673" lon="11.8969432"><ele>436.0</ele><time>2026-04-04T11:32:10.005Z</time></trkpt><trkpt lat="44.0166745" lon="11.8970804"><ele>433.0</ele><time>2026-04-04T11:32:11.005Z</time></trkpt><trkpt lat="44.0165777" lon="11.897214"><ele>430.0</ele><time>2026-04-04T11:32:12.005Z</time></trkpt><trkpt lat="44.0164573" lon="11.897345"><ele>430.0</ele><time>2026-04-04T11:32:13.01Z</time></trkpt><trkpt lat="44.0163405" lon="11.8974896"><ele>430.0</ele><time>2026-04-04T11:32:14.006Z</time></trkpt><trkpt lat="44.01623" lon="11.8976362"><ele>430.0</ele><time>2026-04-04T11:32:15.005Z</time></trkpt><trkpt lat="44.0161144" lon="11.8977604"><ele>427.5</ele><time>2026-04-04T11:32:16.007Z</time></trkpt><trkpt lat="44.0159959" lon="11.8978656"><ele>425.0</ele><time>2026-04-04T11:32:17.01Z</time></trkpt><trkpt lat="44.0158751" lon="11.8979516"><ele>422.5</ele><time>2026-04-04T11:32:18.008Z</time></trkpt><trkpt lat="44.0157333" lon="11.898002"><ele>420.0</ele><time>2026-04-04T11:32:19.009Z</time></trkpt><trkpt lat="44.0155697" lon="11.8980301"><ele>420.0</ele><time>2026-04-04T11:32:20.008Z</time></trkpt><trkpt lat="44.0153891" lon="11.8980417"><ele>420.0</ele><time>2026-04-04T11:32:21.006Z</time></trkpt><trkpt lat="44.0151926" lon="11.8980444"><ele>420.0</ele><time>2026-04-04T11:32:22.006Z</time></trkpt><trkpt lat="44.0149831" lon="11.8980187"><ele>426.66666666666663</ele><time>2026-04-04T11:32:23.006Z</time></trkpt><trkpt lat="44.0147791" lon="11.8979631"><ele>433.3333333333333</ele><time>2026-04-04T11:32:24.007Z</time></trkpt><trkpt lat="44.0146017" lon="11.8979014"><ele>440.0</ele><time>2026-04-04T11:32:25.007Z</time></trkpt><trkpt lat="44.014458" lon="11.8978328"><ele>440.0</ele><time>2026-04-04T11:32:26.006Z</time></trkpt><trkpt lat="44.0143449" lon="11.8977758"><ele>440.0</ele><time>2026-04-04T11:32:27.007Z</time></trkpt><trkpt lat="44.0142474" lon="11.8977812"><ele>440.0</ele><time>2026-04-04T11:32:28.005Z</time></trkpt><trkpt lat="44.0141519" lon="11.8978482"><ele>440.0</ele><time>2026-04-04T11:32:29.009Z</time></trkpt><trkpt lat="44.0140743" lon="11.8979332"><ele>440.0</ele><time>2026-04-04T11:32:30.005Z</time></trkpt><trkpt lat="44.0140286" lon="11.8980511"><ele>444.3333333333333</ele><time>2026-04-04T11:32:31.008Z</time></trkpt><trkpt lat="44.0140201" lon="11.8982078"><ele>448.66666666666663</ele><time>2026-04-04T11:32:32.007Z</time></trkpt><trkpt lat="44.0141118" lon="11.8984328"><ele>453.0</ele><time>2026-04-04T11:32:33.005Z</time></trkpt><trkpt lat="44.014207" lon="11.8986543"><ele>453.0</ele><time>2026-04-04T11:32:34.008Z</time></trkpt><trkpt lat="44.0142847" lon="11.8988499"><ele>453.0</ele><time>2026-04-04T11:32:35.004Z</time></trkpt><trkpt lat="44.0143667" lon="11.8990009"><ele>453.0</ele><time>2026-04-04T11:32:36.006Z</time></trkpt><trkpt lat="44.0144703" lon="11.899097"><ele>453.0</ele><time>2026-04-04T11:32:37.007Z</time></trkpt><trkpt lat="44.014598" lon="11.8991434"><ele>453.0</ele><time>2026-04-04T11:32:38.006Z</time></trkpt><trkpt lat="44.0147561" lon="11.8991691"><ele>453.0</ele><time>2026-04-04T11:32:39.007Z</time></trkpt><trkpt lat="44.0149098" lon="11.8992374"><ele>453.0</ele><time>2026-04-04T11:32:40.007Z</time></trkpt><trkpt lat="44.0150513" lon="11.8993296"><ele>453.75</ele><time>2026-04-04T11:32:41.006Z</time></trkpt><trkpt lat="44.0151835" lon="11.8994339"><ele>454.5</ele><time>2026-04-04T11:32:42.006Z</time></trkpt><trkpt lat="44.0152962" lon="11.8995719"><ele>455.25</ele><time>2026-04-04T11:32:43.006Z</time></trkpt><trkpt lat="44.0153867" lon="11.8997248"><ele>456.0</ele><time>2026-04-04T11:32:44.007Z</time></trkpt><trkpt lat="44.0154635" lon="11.8998739"><ele>456.0</ele><time>2026-04-04T11:32:45.008Z</time></trkpt><trkpt lat="44.0155162" lon="11.9000529"><ele>456.0</ele><time>2026-04-04T11:32:46.005Z</time></trkpt><trkpt lat="44.0155521" lon="11.9002564"><ele>456.0</ele><time>2026-04-04T11:32:47.007Z</time></trkpt><trkpt lat="44.0155755" lon="11.9004627"><ele>456.0</ele><time>2026-04-04T11:32:48.006Z</time></trkpt><trkpt lat="44.0155801" lon="11.9006488"><ele>455.20000000000005</ele><time>2026-04-04T11:32:49.009Z</time></trkpt><trkpt lat="44.0155556" lon="11.9008016"><ele>454.40000000000003</ele><time>2026-04-04T11:32:50.007Z</time></trkpt><trkpt lat="44.0154957" lon="11.9009067"><ele>453.6</ele><time>2026-04-04T11:32:51.006Z</time></trkpt><trkpt lat="44.0153935" lon="11.9009633"><ele>452.8</ele><time>2026-04-04T11:32:52.005Z</time></trkpt><trkpt lat="44.0152781" lon="11.9010022"><ele>452.0</ele><time>2026-04-04T11:32:53.008Z</time></trkpt><trkpt lat="44.0151399" lon="11.9010428"><ele>444.25</ele><time>2026-04-04T11:32:54.006Z</time></trkpt><trkpt lat="44.0150009" lon="11.9010746"><ele>436.5</ele><time>2026-04-04T11:32:55.006Z</time></trkpt><trkpt lat="44.0148673" lon="11.9010933"><ele>428.75</ele><time>2026-04-04T11:32:56.008Z</time></trkpt><trkpt lat="44.0147298" lon="11.9010547"><ele>421.0</ele><time>2026-04-04T11:32:57.007Z</time></trkpt><trkpt lat="44.0145851" lon="11.9009545"><ele>427.6666666666667</ele><time>2026-04-04T11:32:58.009Z</time></trkpt><trkpt lat="44.0144234" lon="11.9008384"><ele>434.33333333333337</ele><time>2026-04-04T11:32:59.009Z</time></trkpt><trkpt lat="44.0142302" lon="11.9007625"><ele>441.0</ele><time>2026-04-04T11:33:00.006Z</time></trkpt><trkpt lat="44.0140282" lon="11.9007257"><ele>441.0</ele><time>2026-04-04T11:33:01.007Z</time></trkpt><trkpt lat="44.0138354" lon="11.9006982"><ele>441.0</ele><time>2026-04-04T11:33:02.006Z</time></trkpt><trkpt lat="44.01364" lon="11.9007143"><ele>441.0</ele><time>2026-04-04T11:33:03.008Z</time></trkpt><trkpt lat="44.0134597" lon="11.9007735"><ele>436.0</ele><time>2026-04-04T11:33:04.006Z</time></trkpt><trkpt lat="44.0132957" lon="11.9008502"><ele>431.0</ele><time>2026-04-04T11:33:05.007Z</time></trkpt><trkpt lat="44.0131458" lon="11.9009354"><ele>426.0</ele><time>2026-04-04T11:33:06.005Z</time></trkpt><trkpt lat="44.0130074" lon="11.9010136"><ele>426.0</ele><time>2026-04-04T11:33:07.007Z</time></trkpt><trkpt lat="44.0128872" lon="11.9011142"><ele>426.0</ele><time>2026-04-04T11:33:08.007Z</time></trkpt><trkpt lat="44.0127752" lon="11.901255"><ele>426.0</ele><time>2026-04-04T11:33:09.005Z</time></trkpt><trkpt lat="44.0126623" lon="11.9014211"><ele>426.0</ele><time>2026-04-04T11:33:10.007Z</time></trkpt><trkpt lat="44.0125414" lon="11.9015755"><ele>426.0</ele><time>2026-04-04T11:33:11.009Z</time></trkpt><trkpt lat="44.0124037" lon="11.9017027"><ele>426.0</ele><time>2026-04-04T11:33:12.007Z</time></trkpt><trkpt lat="44.0122638" lon="11.901795"><ele>424.6</ele><time>2026-04-04T11:33:13.007Z</time></trkpt><trkpt lat="44.0121286" lon="11.9018552"><ele>423.20000000000005</ele><time>2026-04-04T11:33:14.007Z</time></trkpt><trkpt lat="44.0120132" lon="11.9019126"><ele>421.79999999999995</ele><time>2026-04-04T11:33:15.006Z</time></trkpt><trkpt lat="44.0119367" lon="11.9019863"><ele>420.4</ele><time>2026-04-04T11:33:16.005Z</time></trkpt><trkpt lat="44.0118996" lon="11.9020973"><ele>419.0</ele><time>2026-04-04T11:33:17.007Z</time></trkpt><trkpt lat="44.0118858" lon="11.9022423"><ele>419.0</ele><time>2026-04-04T11:33:18.005Z</time></trkpt><trkpt lat="44.0118779" lon="11.9024126"><ele>419.0</ele><time>2026-04-04T11:33:19.009Z</time></trkpt><trkpt lat="44.011854" lon="11.9025947"><ele>419.0</ele><time>2026-04-04T11:33:20.005Z</time></trkpt><trkpt lat="44.0117959" lon="11.9027729"><ele>419.0</ele><time>2026-04-04T11:33:21.008Z</time></trkpt><trkpt lat="44.0116972" lon="11.902924"><ele>412.66666666666663</ele><time>2026-04-04T11:33:22.008Z</time></trkpt><trkpt lat="44.0115788" lon="11.9030578"><ele>406.33333333333337</ele><time>2026-04-04T11:33:23.005Z</time></trkpt><trkpt lat="44.011468" lon="11.9032"><ele>400.0</ele><time>2026-04-04T11:33:24.01Z</time></trkpt><trkpt lat="44.0113861" lon="11.9033725"><ele>400.75</ele><time>2026-04-04T11:33:25.008Z</time></trkpt><trkpt lat="44.0113293" lon="11.9035546"><ele>401.5</ele><time>2026-04-04T11:33:26.007Z</time></trkpt><trkpt lat="44.0112735" lon="11.9037088"><ele>402.25</ele><time>2026-04-04T11:33:27.007Z</time></trkpt><trkpt lat="44.0111911" lon="11.9038198"><ele>403.0</ele><time>2026-04-04T11:33:28.007Z</time></trkpt><trkpt lat="44.0110939" lon="11.9038917"><ele>403.0</ele><time>2026-04-04T11:33:29.007Z</time></trkpt><trkpt lat="44.0109998" lon="11.9039434"><ele>403.0</ele><time>2026-04-04T11:33:30.006Z</time></trkpt><trkpt lat="44.0109248" lon="11.9040007"><ele>403.0</ele><time>2026-04-04T11:33:31.007Z</time></trkpt><trkpt lat="44.0108724" lon="11.9040715"><ele>403.0</ele><time>2026-04-04T11:33:32.006Z</time></trkpt><trkpt lat="44.0109392" lon="11.9042081"><ele>403.0</ele><time>2026-04-04T11:33:34.006Z</time></trkpt><trkpt lat="44.0110303" lon="11.9042661"><ele>397.75</ele><time>2026-04-04T11:33:35.006Z</time></trkpt><trkpt lat="44.0111547" lon="11.904315"><ele>392.5</ele><time>2026-04-04T11:33:36.007Z</time></trkpt><trkpt lat="44.011299" lon="11.9043952"><ele>387.25</ele><time>2026-04-04T11:33:37.008Z</time></trkpt><trkpt lat="44.0114326" lon="11.9045136"><ele>382.0</ele><time>2026-04-04T11:33:38.006Z</time></trkpt><trkpt lat="44.0115377" lon="11.9046758"><ele>382.0</ele><time>2026-04-04T11:33:39.006Z</time></trkpt><trkpt lat="44.0116002" lon="11.9048786"><ele>382.0</ele><time>2026-04-04T11:33:40.008Z</time></trkpt><trkpt lat="44.0116283" lon="11.9050951"><ele>382.0</ele><time>2026-04-04T11:33:41.006Z</time></trkpt><trkpt lat="44.0116267" lon="11.9053028"><ele>379.5</ele><time>2026-04-04T11:33:42.007Z</time></trkpt><trkpt lat="44.0116" lon="11.905492"><ele>377.0</ele><time>2026-04-04T11:33:43.007Z</time></trkpt><trkpt lat="44.0115585" lon="11.905658"><ele>374.5</ele><time>2026-04-04T11:33:44.006Z</time></trkpt><trkpt lat="44.011521" lon="11.9057976"><ele>372.0</ele><time>2026-04-04T11:33:45.007Z</time></trkpt><trkpt lat="44.0114775" lon="11.9059007"><ele>372.0</ele><time>2026-04-04T11:33:46.005Z</time></trkpt><trkpt lat="44.0114233" lon="11.9059535"><ele>372.0</ele><time>2026-04-04T11:33:47.011Z</time></trkpt><trkpt lat="44.0113277" lon="11.9058837"><ele>372.0</ele><time>2026-04-04T11:33:49.007Z</time></trkpt><trkpt lat="44.0113201" lon="11.9057897"><ele>372.0</ele><time>2026-04-04T11:33:50.007Z</time></trkpt><trkpt lat="44.0113197" lon="11.9057008"><ele>372.0</ele><time>2026-04-04T11:33:51.008Z</time></trkpt><trkpt lat="44.0113589" lon="11.9055727"><ele>372.0</ele><time>2026-04-04T11:33:52.007Z</time></trkpt><trkpt lat="44.011409" lon="11.9054099"><ele>372.0</ele><time>2026-04-04T11:33:53.007Z</time></trkpt><trkpt lat="44.011429" lon="11.9052399"><ele>372.0</ele><time>2026-04-04T11:33:54.005Z</time></trkpt><trkpt lat="44.0114189" lon="11.9050723"><ele>372.0</ele><time>2026-04-04T11:33:55.007Z</time></trkpt><trkpt lat="44.01138" lon="11.9049214"><ele>372.0</ele><time>2026-04-04T11:33:56.006Z</time></trkpt><trkpt lat="44.0112971" lon="11.9047972"><ele>374.0</ele><time>2026-04-04T11:33:57.008Z</time></trkpt><trkpt lat="44.0111753" lon="11.9046874"><ele>376.0</ele><time>2026-04-04T11:33:58.009Z</time></trkpt><trkpt lat="44.0109996" lon="11.9046135"><ele>378.0</ele><time>2026-04-04T11:33:59.008Z</time></trkpt><trkpt lat="44.0107979" lon="11.9045857"><ele>378.0</ele><time>2026-04-04T11:34:00.008Z</time></trkpt><trkpt lat="44.0105939" lon="11.9046053"><ele>378.0</ele><time>2026-04-04T11:34:01.009Z</time></trkpt><trkpt lat="44.0104012" lon="11.9046539"><ele>378.0</ele><time>2026-04-04T11:34:02.005Z</time></trkpt><trkpt lat="44.0102083" lon="11.904732"><ele>378.0</ele><time>2026-04-04T11:34:03.007Z</time></trkpt><trkpt lat="44.0100194" lon="11.9048441"><ele>378.0</ele><time>2026-04-04T11:34:04.007Z</time></trkpt><trkpt lat="44.0098371" lon="11.9049584"><ele>378.0</ele><time>2026-04-04T11:34:05.009Z</time></trkpt><trkpt lat="44.0096672" lon="11.9050652"><ele>373.3333333333333</ele><time>2026-04-04T11:34:06.006Z</time></trkpt><trkpt lat="44.0095049" lon="11.9051744"><ele>368.66666666666663</ele><time>2026-04-04T11:34:07.007Z</time></trkpt><trkpt lat="44.009351" lon="11.9052739"><ele>364.0</ele><time>2026-04-04T11:34:08.006Z</time></trkpt><trkpt lat="44.0092083" lon="11.9053681"><ele>363.66666666666663</ele><time>2026-04-04T11:34:09.007Z</time></trkpt><trkpt lat="44.0090737" lon="11.9054759"><ele>363.3333333333333</ele><time>2026-04-04T11:34:10.009Z</time></trkpt><trkpt lat="44.0089417" lon="11.9055712"><ele>363.0</ele><time>2026-04-04T11:34:11.009Z</time></trkpt><trkpt lat="44.0088027" lon="11.9056469"><ele>363.0</ele><time>2026-04-04T11:34:12.006Z</time></trkpt><trkpt lat="44.0086585" lon="11.9057085"><ele>363.0</ele><time>2026-04-04T11:34:13.007Z</time></trkpt><trkpt lat="44.0085133" lon="11.9057637"><ele>363.0</ele><time>2026-04-04T11:34:14.007Z</time></trkpt><trkpt lat="44.0083663" lon="11.9058237"><ele>359.3333333333333</ele><time>2026-04-04T11:34:15.008Z</time></trkpt><trkpt lat="44.008218" lon="11.9058918"><ele>355.66666666666663</ele><time>2026-04-04T11:34:16.008Z</time></trkpt><trkpt lat="44.0080721" lon="11.9059638"><ele>352.0</ele><time>2026-04-04T11:34:17.006Z</time></trkpt><trkpt lat="44.0079341" lon="11.9060351"><ele>352.0</ele><time>2026-04-04T11:34:18.006Z</time></trkpt><trkpt lat="44.0078138" lon="11.9061136"><ele>352.0</ele><time>2026-04-04T11:34:19.006Z</time></trkpt><trkpt lat="44.0077193" lon="11.906191"><ele>352.0</ele><time>2026-04-04T11:34:20.007Z</time></trkpt><trkpt lat="44.0076572" lon="11.9062875"><ele>352.0</ele><time>2026-04-04T11:34:21.009Z</time></trkpt><trkpt lat="44.0076395" lon="11.9064059"><ele>352.0</ele><time>2026-04-04T11:34:22.007Z</time></trkpt><trkpt lat="44.0076454" lon="11.9065331"><ele>352.0</ele><time>2026-04-04T11:34:23.009Z</time></trkpt><trkpt lat="44.0077078" lon="11.9066602"><ele>352.0</ele><time>2026-04-04T11:34:24.013Z</time></trkpt><trkpt lat="44.0077783" lon="11.9067808"><ele>352.0</ele><time>2026-04-04T11:34:25.007Z</time></trkpt><trkpt lat="44.0078371" lon="11.9068955"><ele>352.0</ele><time>2026-04-04T11:34:26.009Z</time></trkpt><trkpt lat="44.0078766" lon="11.9070023"><ele>352.0</ele><time>2026-04-04T11:34:27.006Z</time></trkpt><trkpt lat="44.0078916" lon="11.9071388"><ele>352.0</ele><time>2026-04-04T11:34:29.007Z</time></trkpt><trkpt lat="44.0077939" lon="11.9070275"><ele>352.0</ele><time>2026-04-04T11:34:31.012Z</time></trkpt><trkpt lat="44.00775" lon="11.906831"><ele>352.0</ele><time>2026-04-04T11:34:32.007Z</time></trkpt><trkpt lat="44.0076732" lon="11.9066805"><ele>352.0</ele><time>2026-04-04T11:34:33.008Z</time></trkpt><trkpt lat="44.007569" lon="11.906571"><ele>347.75</ele><time>2026-04-04T11:34:34.009Z</time></trkpt><trkpt lat="44.0074549" lon="11.9064892"><ele>343.5</ele><time>2026-04-04T11:34:35.007Z</time></trkpt><trkpt lat="44.0073439" lon="11.9064126"><ele>339.25</ele><time>2026-04-04T11:34:36.007Z</time></trkpt><trkpt lat="44.0072144" lon="11.9063733"><ele>335.0</ele><time>2026-04-04T11:34:37.009Z</time></trkpt><trkpt lat="44.0070721" lon="11.9063704"><ele>335.0</ele><time>2026-04-04T11:34:38.01Z</time></trkpt><trkpt lat="44.006937" lon="11.9063811"><ele>335.0</ele><time>2026-04-04T11:34:39.007Z</time></trkpt><trkpt lat="44.006819" lon="11.9063989"><ele>335.0</ele><time>2026-04-04T11:34:40.006Z</time></trkpt><trkpt lat="44.006726" lon="11.9064251"><ele>335.0</ele><time>2026-04-04T11:34:41.007Z</time></trkpt><trkpt lat="44.0066605" lon="11.9064857"><ele>335.0</ele><time>2026-04-04T11:34:42.007Z</time></trkpt><trkpt lat="44.0066308" lon="11.9065661"><ele>335.0</ele><time>2026-04-04T11:34:43.009Z</time></trkpt><trkpt lat="44.0066633" lon="11.9066419"><ele>335.0</ele><time>2026-04-04T11:34:44.008Z</time></trkpt><trkpt lat="44.0067241" lon="11.906709"><ele>335.0</ele><time>2026-04-04T11:34:45.008Z</time></trkpt><trkpt lat="44.006794" lon="11.9067756"><ele>335.0</ele><time>2026-04-04T11:34:46.008Z</time></trkpt><trkpt lat="44.0068931" lon="11.9068347"><ele>335.0</ele><time>2026-04-04T11:34:47.006Z</time></trkpt><trkpt lat="44.0070259" lon="11.9069205"><ele>331.75</ele><time>2026-04-04T11:34:48.008Z</time></trkpt><trkpt lat="44.0071482" lon="11.9070329"><ele>328.5</ele><time>2026-04-04T11:34:49.008Z</time></trkpt><trkpt lat="44.0072543" lon="11.9071623"><ele>325.25</ele><time>2026-04-04T11:34:50.006Z</time></trkpt><trkpt lat="44.0073259" lon="11.907317"><ele>322.0</ele><time>2026-04-04T11:34:51.015Z</time></trkpt><trkpt lat="44.0073749" lon="11.9074841"><ele>319.3333333333333</ele><time>2026-04-04T11:34:52.007Z</time></trkpt><trkpt lat="44.0074032" lon="11.9076355"><ele>316.66666666666663</ele><time>2026-04-04T11:34:53.008Z</time></trkpt><trkpt lat="44.0074199" lon="11.9077617"><ele>314.0</ele><time>2026-04-04T11:34:54.007Z</time></trkpt><trkpt lat="44.0074302" lon="11.9078592"><ele>311.3333333333333</ele><time>2026-04-04T11:34:55.008Z</time></trkpt><trkpt lat="44.0073997" lon="11.9079532"><ele>308.6666666666667</ele><time>2026-04-04T11:34:57.006Z</time></trkpt><trkpt lat="44.0073241" lon="11.9078706"><ele>306.0</ele><time>2026-04-04T11:34:59.01Z</time></trkpt><trkpt lat="44.0073094" lon="11.9077476"><ele>306.0</ele><time>2026-04-04T11:35:00.009Z</time></trkpt><trkpt lat="44.007295" lon="11.9076354"><ele>306.0</ele><time>2026-04-04T11:35:01.009Z</time></trkpt><trkpt lat="44.0072614" lon="11.9075237"><ele>306.0</ele><time>2026-04-04T11:35:02.007Z</time></trkpt><trkpt lat="44.0072041" lon="11.9074075"><ele>306.0</ele><time>2026-04-04T11:35:03.008Z</time></trkpt><trkpt lat="44.007104" lon="11.9073022"><ele>306.0</ele><time>2026-04-04T11:35:04.008Z</time></trkpt><trkpt lat="44.006985" lon="11.9072377"><ele>307.0</ele><time>2026-04-04T11:35:05.007Z</time></trkpt><trkpt lat="44.0068494" lon="11.90722"><ele>308.0</ele><time>2026-04-04T11:35:06.008Z</time></trkpt><trkpt lat="44.0067069" lon="11.9072545"><ele>309.0</ele><time>2026-04-04T11:35:07.007Z</time></trkpt><trkpt lat="44.006575" lon="11.907297"><ele>310.0</ele><time>2026-04-04T11:35:08.006Z</time></trkpt><trkpt lat="44.0064437" lon="11.9073095"><ele>310.0</ele><time>2026-04-04T11:35:09.008Z</time></trkpt><trkpt lat="44.0063033" lon="11.9072728"><ele>310.0</ele><time>2026-04-04T11:35:10.007Z</time></trkpt><trkpt lat="44.006153" lon="11.9072134"><ele>310.0</ele><time>2026-04-04T11:35:11.008Z</time></trkpt><trkpt lat="44.006003" lon="11.9071531"><ele>310.0</ele><time>2026-04-04T11:35:12.007Z</time></trkpt><trkpt lat="44.0058599" lon="11.9071012"><ele>310.0</ele><time>2026-04-04T11:35:13.006Z</time></trkpt><trkpt lat="44.0057285" lon="11.9070386"><ele>310.0</ele><time>2026-04-04T11:35:14.008Z</time></trkpt><trkpt lat="44.005615" lon="11.9069511"><ele>310.0</ele><time>2026-04-04T11:35:15.007Z</time></trkpt><trkpt lat="44.005517" lon="11.9068585"><ele>309.6</ele><time>2026-04-04T11:35:16.008Z</time></trkpt><trkpt lat="44.0054293" lon="11.9067821"><ele>309.2</ele><time>2026-04-04T11:35:17.006Z</time></trkpt><trkpt lat="44.0053556" lon="11.9067141"><ele>308.8</ele><time>2026-04-04T11:35:18.013Z</time></trkpt><trkpt lat="44.0052936" lon="11.9066674"><ele>308.4</ele><time>2026-04-04T11:35:19.006Z</time></trkpt><trkpt lat="44.0051981" lon="11.9066883"><ele>308.0</ele><time>2026-04-04T11:35:21.006Z</time></trkpt><trkpt lat="44.0052081" lon="11.9068306"><ele>305.0</ele><time>2026-04-04T11:35:23.005Z</time></trkpt><trkpt lat="44.005295" lon="11.9069241"><ele>302.0</ele><time>2026-04-04T11:35:24.01Z</time></trkpt><trkpt lat="44.0054013" lon="11.9070306"><ele>299.0</ele><time>2026-04-04T11:35:25.007Z</time></trkpt><trkpt lat="44.0055148" lon="11.907164"><ele>296.0</ele><time>2026-04-04T11:35:26.007Z</time></trkpt><trkpt lat="44.0056467" lon="11.907302"><ele>296.0</ele><time>2026-04-04T11:35:27.008Z</time></trkpt><trkpt lat="44.0057815" lon="11.9074249"><ele>296.0</ele><time>2026-04-04T11:35:28.007Z</time></trkpt><trkpt lat="44.005916" lon="11.9075055"><ele>296.0</ele><time>2026-04-04T11:35:29.007Z</time></trkpt><trkpt lat="44.0060334" lon="11.9075507"><ele>296.0</ele><time>2026-04-04T11:35:30.008Z</time></trkpt><trkpt lat="44.0061205" lon="11.9075894"><ele>294.5</ele><time>2026-04-04T11:35:31.007Z</time></trkpt><trkpt lat="44.0061774" lon="11.9076485"><ele>293.0</ele><time>2026-04-04T11:35:32.006Z</time></trkpt><trkpt lat="44.0062049" lon="11.9077797"><ele>291.5</ele><time>2026-04-04T11:35:34.007Z</time></trkpt><trkpt lat="44.0060539" lon="11.907776"><ele>290.0</ele><time>2026-04-04T11:35:36.009Z</time></trkpt><trkpt lat="44.0059258" lon="11.9076928"><ele>292.0</ele><time>2026-04-04T11:35:37.009Z</time></trkpt><trkpt lat="44.0057728" lon="11.9076263"><ele>294.0</ele><time>2026-04-04T11:35:38.008Z</time></trkpt><trkpt lat="44.0055862" lon="11.9075678"><ele>296.0</ele><time>2026-04-04T11:35:39.007Z</time></trkpt><trkpt lat="44.0053836" lon="11.9075032"><ele>296.0</ele><time>2026-04-04T11:35:40.006Z</time></trkpt><trkpt lat="44.0051817" lon="11.9074395"><ele>296.0</ele><time>2026-04-04T11:35:41.007Z</time></trkpt><trkpt lat="44.0049884" lon="11.9073964"><ele>296.0</ele><time>2026-04-04T11:35:42.011Z</time></trkpt><trkpt lat="44.0048072" lon="11.9073621"><ele>292.5</ele><time>2026-04-04T11:35:43.009Z</time></trkpt><trkpt lat="44.004643" lon="11.9073306"><ele>289.0</ele><time>2026-04-04T11:35:44.008Z</time></trkpt><trkpt lat="44.0045053" lon="11.907301"><ele>285.5</ele><time>2026-04-04T11:35:45.008Z</time></trkpt><trkpt lat="44.0043951" lon="11.9072573"><ele>282.0</ele><time>2026-04-04T11:35:46.007Z</time></trkpt><trkpt lat="44.00431" lon="11.9071819"><ele>282.0</ele><time>2026-04-04T11:35:47.011Z</time></trkpt><trkpt lat="44.0042522" lon="11.9070688"><ele>282.0</ele><time>2026-04-04T11:35:48.007Z</time></trkpt><trkpt lat="44.0041921" lon="11.9069937"><ele>282.0</ele><time>2026-04-04T11:35:49.006Z</time></trkpt><trkpt lat="44.004122" lon="11.9069812"><ele>282.0</ele><time>2026-04-04T11:35:50.007Z</time></trkpt><trkpt lat="44.0040614" lon="11.9070154"><ele>282.0</ele><time>2026-04-04T11:35:51.007Z</time></trkpt><trkpt lat="44.0040236" lon="11.907157"><ele>282.0</ele><time>2026-04-04T11:35:52.009Z</time></trkpt><trkpt lat="44.0039887" lon="11.9073539"><ele>277.0</ele><time>2026-04-04T11:35:53.005Z</time></trkpt><trkpt lat="44.0039411" lon="11.9075921"><ele>272.0</ele><time>2026-04-04T11:35:54.006Z</time></trkpt><trkpt lat="44.0039102" lon="11.9078806"><ele>267.0</ele><time>2026-04-04T11:35:55.007Z</time></trkpt><trkpt lat="44.0038863" lon="11.9081755"><ele>266.6666666666667</ele><time>2026-04-04T11:35:56.006Z</time></trkpt><trkpt lat="44.0038763" lon="11.9084588"><ele>266.33333333333337</ele><time>2026-04-04T11:35:57.007Z</time></trkpt><trkpt lat="44.0038709" lon="11.9087203"><ele>266.0</ele><time>2026-04-04T11:35:58.007Z</time></trkpt><trkpt lat="44.0038704" lon="11.9089556"><ele>266.0</ele><time>2026-04-04T11:35:59.006Z</time></trkpt><trkpt lat="44.0038739" lon="11.9091596"><ele>266.0</ele><time>2026-04-04T11:36:00.006Z</time></trkpt><trkpt lat="44.0038724" lon="11.9093318"><ele>266.0</ele><time>2026-04-04T11:36:01.006Z</time></trkpt><trkpt lat="44.0038495" lon="11.9094729"><ele>266.0</ele><time>2026-04-04T11:36:02.01Z</time></trkpt><trkpt lat="44.0037938" lon="11.9095865"><ele>262.75</ele><time>2026-04-04T11:36:03.008Z</time></trkpt><trkpt lat="44.003708" lon="11.9096756"><ele>259.5</ele><time>2026-04-04T11:36:04.006Z</time></trkpt><trkpt lat="44.0035987" lon="11.9097489"><ele>256.25</ele><time>2026-04-04T11:36:05.006Z</time></trkpt><trkpt lat="44.0034702" lon="11.9098196"><ele>253.0</ele><time>2026-04-04T11:36:06.006Z</time></trkpt><trkpt lat="44.0033246" lon="11.9098859"><ele>252.33333333333331</ele><time>2026-04-04T11:36:07.006Z</time></trkpt><trkpt lat="44.0031749" lon="11.9099472"><ele>251.66666666666669</ele><time>2026-04-04T11:36:08.006Z</time></trkpt><trkpt lat="44.0030256" lon="11.909995"><ele>251.0</ele><time>2026-04-04T11:36:09.008Z</time></trkpt><trkpt lat="44.0028827" lon="11.9100383"><ele>251.0</ele><time>2026-04-04T11:36:10.007Z</time></trkpt><trkpt lat="44.002746" lon="11.9100717"><ele>251.0</ele><time>2026-04-04T11:36:11.007Z</time></trkpt><trkpt lat="44.002617" lon="11.9101055"><ele>251.0</ele><time>2026-04-04T11:36:12.006Z</time></trkpt><trkpt lat="44.0024961" lon="11.910159"><ele>251.0</ele><time>2026-04-04T11:36:13.006Z</time></trkpt><trkpt lat="44.0023803" lon="11.9102439"><ele>248.0</ele><time>2026-04-04T11:36:14.007Z</time></trkpt><trkpt lat="44.0022733" lon="11.9103571"><ele>245.0</ele><time>2026-04-04T11:36:15.007Z</time></trkpt><trkpt lat="44.002169" lon="11.9104774"><ele>242.0</ele><time>2026-04-04T11:36:16.006Z</time></trkpt><trkpt lat="44.0020686" lon="11.9105978"><ele>239.0</ele><time>2026-04-04T11:36:17.006Z</time></trkpt><trkpt lat="44.0019741" lon="11.9107119"><ele>239.0</ele><time>2026-04-04T11:36:18.006Z</time></trkpt><trkpt lat="44.0018798" lon="11.9108233"><ele>239.0</ele><time>2026-04-04T11:36:19.011Z</time></trkpt><trkpt lat="44.0018032" lon="11.9109472"><ele>239.0</ele><time>2026-04-04T11:36:20.006Z</time></trkpt><trkpt lat="44.0017563" lon="11.9110846"><ele>239.0</ele><time>2026-04-04T11:36:21.006Z</time></trkpt><trkpt lat="44.0017262" lon="11.9112252"><ele>238.16666666666669</ele><time>2026-04-04T11:36:22.005Z</time></trkpt><trkpt lat="44.0016941" lon="11.9113573"><ele>237.33333333333334</ele><time>2026-04-04T11:36:23.003Z</time></trkpt><trkpt lat="44.0016648" lon="11.9114735"><ele>236.5</ele><time>2026-04-04T11:36:24.007Z</time></trkpt><trkpt lat="44.0016307" lon="11.911567"><ele>235.66666666666669</ele><time>2026-04-04T11:36:25.006Z</time></trkpt><trkpt lat="44.0015832" lon="11.9116385"><ele>234.83333333333334</ele><time>2026-04-04T11:36:26.011Z</time></trkpt><trkpt lat="44.0015228" lon="11.9116892"><ele>234.0</ele><time>2026-04-04T11:36:27.007Z</time></trkpt><trkpt lat="44.0014442" lon="11.9117183"><ele>234.0</ele><time>2026-04-04T11:36:28.006Z</time></trkpt><trkpt lat="44.0013536" lon="11.9117298"><ele>234.0</ele><time>2026-04-04T11:36:29.005Z</time></trkpt><trkpt lat="44.001242" lon="11.9117355"><ele>234.0</ele><time>2026-04-04T11:36:30.005Z</time></trkpt><trkpt lat="44.0011147" lon="11.9117407"><ele>234.0</ele><time>2026-04-04T11:36:31.008Z</time></trkpt><trkpt lat="44.0009795" lon="11.9117381"><ele>233.25</ele><time>2026-04-04T11:36:32.007Z</time></trkpt><trkpt lat="44.000841" lon="11.9117461"><ele>232.5</ele><time>2026-04-04T11:36:33.008Z</time></trkpt><trkpt lat="44.0006902" lon="11.9117549"><ele>231.75</ele><time>2026-04-04T11:36:34.005Z</time></trkpt><trkpt lat="44.0005307" lon="11.9117629"><ele>231.0</ele><time>2026-04-04T11:36:35.006Z</time></trkpt><trkpt lat="44.0003678" lon="11.9117759"><ele>231.0</ele><time>2026-04-04T11:36:36.006Z</time></trkpt><trkpt lat="44.000203" lon="11.9117948"><ele>231.0</ele><time>2026-04-04T11:36:37.005Z</time></trkpt><trkpt lat="44.0000439" lon="11.9118083"><ele>231.0</ele><time>2026-04-04T11:36:38.006Z</time></trkpt><trkpt lat="43.9998965" lon="11.9118214"><ele>231.0</ele><time>2026-04-04T11:36:39.006Z</time></trkpt><trkpt lat="43.9997623" lon="11.9118319"><ele>231.0</ele><time>2026-04-04T11:36:40.011Z</time></trkpt><trkpt lat="43.9996376" lon="11.9118425"><ele>231.0</ele><time>2026-04-04T11:36:41.005Z</time></trkpt><trkpt lat="43.9995231" lon="11.9118489"><ele>231.0</ele><time>2026-04-04T11:36:42.006Z</time></trkpt><trkpt lat="43.9994162" lon="11.9118593"><ele>231.0</ele><time>2026-04-04T11:36:43.005Z</time></trkpt><trkpt lat="43.9993152" lon="11.9118644"><ele>231.00000000000003</ele><time>2026-04-04T11:36:44.005Z</time></trkpt><trkpt lat="43.9992244" lon="11.9118655"><ele>231.00000000000003</ele><time>2026-04-04T11:36:45.006Z</time></trkpt><trkpt lat="43.9991373" lon="11.9118644"><ele>231.0</ele><time>2026-04-04T11:36:46.005Z</time></trkpt><trkpt lat="43.9990511" lon="11.9118682"><ele>231.0</ele><time>2026-04-04T11:36:47.007Z</time></trkpt><trkpt lat="43.9989567" lon="11.9118777"><ele>230.60000000000002</ele><time>2026-04-04T11:36:48.009Z</time></trkpt><trkpt lat="43.9988548" lon="11.9118892"><ele>230.20000000000002</ele><time>2026-04-04T11:36:49.007Z</time></trkpt><trkpt lat="43.9987493" lon="11.9119052"><ele>229.79999999999998</ele><time>2026-04-04T11:36:50.007Z</time></trkpt><trkpt lat="43.9986401" lon="11.9119254"><ele>229.39999999999998</ele><time>2026-04-04T11:36:51.008Z</time></trkpt><trkpt lat="43.9985382" lon="11.9119379"><ele>229.0</ele><time>2026-04-04T11:36:52.009Z</time></trkpt><trkpt lat="43.9984439" lon="11.9119466"><ele>229.0</ele><time>2026-04-04T11:36:53.008Z</time></trkpt><trkpt lat="43.9983592" lon="11.9119493"><ele>228.99999999999997</ele><time>2026-04-04T11:36:54.01Z</time></trkpt><trkpt lat="43.9982862" lon="11.9119601"><ele>228.99999999999997</ele><time>2026-04-04T11:36:55.006Z</time></trkpt><trkpt lat="43.9981842" lon="11.91196"><ele>229.0</ele><time>2026-04-04T11:36:57.007Z</time></trkpt><trkpt lat="43.9981441" lon="11.9118814"><ele>229.0</ele><time>2026-04-04T11:36:59.007Z</time></trkpt><trkpt lat="43.9981367" lon="11.9117126"><ele>229.79999999999998</ele><time>2026-04-04T11:37:01.007Z</time></trkpt><trkpt lat="43.9981415" lon="11.9115898"><ele>230.59999999999997</ele><time>2026-04-04T11:37:02.006Z</time></trkpt><trkpt lat="43.9981451" lon="11.9114327"><ele>231.4</ele><time>2026-04-04T11:37:03.009Z</time></trkpt><trkpt lat="43.9981473" lon="11.9112746"><ele>232.2</ele><time>2026-04-04T11:37:04.008Z</time></trkpt><trkpt lat="43.9981567" lon="11.911133"><ele>233.0</ele><time>2026-04-04T11:37:05.015Z</time></trkpt><trkpt lat="43.9981684" lon="11.9110161"><ele>233.00000000000003</ele><time>2026-04-04T11:37:06.005Z</time></trkpt><trkpt lat="43.9981703" lon="11.9109205"><ele>233.0</ele><time>2026-04-04T11:37:07.006Z</time></trkpt><trkpt lat="43.9981045" lon="11.9107977"><ele>233.0</ele><time>2026-04-04T11:37:09.007Z</time></trkpt><trkpt lat="43.9980484" lon="11.9107497"><ele>233.0</ele><time>2026-04-04T11:37:10.005Z</time></trkpt><trkpt lat="43.9979709" lon="11.9106997"><ele>233.00000000000003</ele><time>2026-04-04T11:37:11.008Z</time></trkpt><trkpt lat="43.9978717" lon="11.9106417"><ele>233.0</ele><time>2026-04-04T11:37:12.007Z</time></trkpt><trkpt lat="43.9977663" lon="11.9105905"><ele>233.33333333333334</ele><time>2026-04-04T11:37:13.012Z</time></trkpt><trkpt lat="43.9976723" lon="11.9105467"><ele>233.66666666666669</ele><time>2026-04-04T11:37:14.006Z</time></trkpt><trkpt lat="43.9975873" lon="11.9105472"><ele>234.0</ele><time>2026-04-04T11:37:15.005Z</time></trkpt><trkpt lat="43.9975142" lon="11.9105836"><ele>234.33333333333331</ele><time>2026-04-04T11:37:16.006Z</time></trkpt><trkpt lat="43.9974517" lon="11.9106544"><ele>234.66666666666666</ele><time>2026-04-04T11:37:17.01Z</time></trkpt><trkpt lat="43.9973893" lon="11.9107349"><ele>235.0</ele><time>2026-04-04T11:37:18.006Z</time></trkpt><trkpt lat="43.9973205" lon="11.9107787"><ele>234.99999999999997</ele><time>2026-04-04T11:37:19.006Z</time></trkpt><trkpt lat="43.9972418" lon="11.9107889"><ele>235.0</ele><time>2026-04-04T11:37:20.007Z</time></trkpt><trkpt lat="43.9971556" lon="11.9107858"><ele>235.0</ele><time>2026-04-04T11:37:21.007Z</time></trkpt><trkpt lat="43.997066" lon="11.9107719"><ele>235.0</ele><time>2026-04-04T11:37:22.007Z</time></trkpt><trkpt lat="43.9969885" lon="11.910718"><ele>234.99999999999997</ele><time>2026-04-04T11:37:23.006Z</time></trkpt><trkpt lat="43.9969243" lon="11.9106689"><ele>235.0</ele><time>2026-04-04T11:37:24.005Z</time></trkpt><trkpt lat="43.9968646" lon="11.910551"><ele>234.99999999999997</ele><time>2026-04-04T11:37:26.006Z</time></trkpt><trkpt lat="43.9968031" lon="11.9104699"><ele>235.0</ele><time>2026-04-04T11:37:28.006Z</time></trkpt><trkpt lat="43.9967486" lon="11.9104205"><ele>235.0</ele><time>2026-04-04T11:37:29.006Z</time></trkpt><trkpt lat="43.9966816" lon="11.9103546"><ele>235.0</ele><time>2026-04-04T11:37:30.007Z</time></trkpt><trkpt lat="43.9965968" lon="11.9102792"><ele>234.99999999999997</ele><time>2026-04-04T11:37:31.007Z</time></trkpt><trkpt lat="43.9965021" lon="11.910196"><ele>235.0</ele><time>2026-04-04T11:37:32.007Z</time></trkpt><trkpt lat="43.9964034" lon="11.9101085"><ele>235.75</ele><time>2026-04-04T11:37:33.007Z</time></trkpt><trkpt lat="43.996302" lon="11.9100196"><ele>236.5</ele><time>2026-04-04T11:37:34.006Z</time></trkpt><trkpt lat="43.9961943" lon="11.9099272"><ele>237.25</ele><time>2026-04-04T11:37:35.006Z</time></trkpt><trkpt lat="43.9960836" lon="11.909829"><ele>238.0</ele><time>2026-04-04T11:37:36.006Z</time></trkpt><trkpt lat="43.9959671" lon="11.9097229"><ele>238.0</ele><time>2026-04-04T11:37:37.008Z</time></trkpt><trkpt lat="43.9958455" lon="11.9096136"><ele>238.0</ele><time>2026-04-04T11:37:38.008Z</time></trkpt><trkpt lat="43.9957189" lon="11.9094999"><ele>238.0</ele><time>2026-04-04T11:37:39.01Z</time></trkpt><trkpt lat="43.9955905" lon="11.9093864"><ele>238.0</ele><time>2026-04-04T11:37:40.007Z</time></trkpt><trkpt lat="43.9954557" lon="11.9092743"><ele>238.66666666666666</ele><time>2026-04-04T11:37:41.006Z</time></trkpt><trkpt lat="43.9953162" lon="11.909156"><ele>239.33333333333331</ele><time>2026-04-04T11:37:42.004Z</time></trkpt><trkpt lat="43.9951748" lon="11.9090298"><ele>240.0</ele><time>2026-04-04T11:37:43.007Z</time></trkpt><trkpt lat="43.9950337" lon="11.9088976"><ele>239.66666666666669</ele><time>2026-04-04T11:37:44.005Z</time></trkpt><trkpt lat="43.9948925" lon="11.9087654"><ele>239.33333333333334</ele><time>2026-04-04T11:37:45.008Z</time></trkpt><trkpt lat="43.9947465" lon="11.9086392"><ele>239.0</ele><time>2026-04-04T11:37:46.006Z</time></trkpt><trkpt lat="43.9945967" lon="11.908514"><ele>239.66666666666669</ele><time>2026-04-04T11:37:47.01Z</time></trkpt><trkpt lat="43.9944413" lon="11.9083974"><ele>240.33333333333331</ele><time>2026-04-04T11:37:48.005Z</time></trkpt><trkpt lat="43.9942814" lon="11.9082857"><ele>241.0</ele><time>2026-04-04T11:37:49.006Z</time></trkpt><trkpt lat="43.9941126" lon="11.9081866"><ele>241.33333333333331</ele><time>2026-04-04T11:37:50.008Z</time></trkpt><trkpt lat="43.9939427" lon="11.9080883"><ele>241.66666666666669</ele><time>2026-04-04T11:37:51.007Z</time></trkpt><trkpt lat="43.9937743" lon="11.9079908"><ele>242.0</ele><time>2026-04-04T11:37:52.011Z</time></trkpt><trkpt lat="43.9936069" lon="11.9078981"><ele>242.0</ele><time>2026-04-04T11:37:53.006Z</time></trkpt><trkpt lat="43.9934398" lon="11.9078103"><ele>242.0</ele><time>2026-04-04T11:37:54.007Z</time></trkpt><trkpt lat="43.9932688" lon="11.9077191"><ele>242.0</ele><time>2026-04-04T11:37:55.005Z</time></trkpt><trkpt lat="43.9930883" lon="11.9076227"><ele>244.66666666666669</ele><time>2026-04-04T11:37:56.007Z</time></trkpt><trkpt lat="43.9929026" lon="11.9075229"><ele>247.33333333333331</ele><time>2026-04-04T11:37:57.01Z</time></trkpt><trkpt lat="43.992713" lon="11.9074247"><ele>250.0</ele><time>2026-04-04T11:37:58.007Z</time></trkpt><trkpt lat="43.9925153" lon="11.9073222"><ele>249.33333333333331</ele><time>2026-04-04T11:37:59.009Z</time></trkpt><trkpt lat="43.992313" lon="11.907224"><ele>248.66666666666669</ele><time>2026-04-04T11:38:00.007Z</time></trkpt><trkpt lat="43.9921116" lon="11.9071202"><ele>248.0</ele><time>2026-04-04T11:38:01.008Z</time></trkpt><trkpt lat="43.9919065" lon="11.9070202"><ele>248.0</ele><time>2026-04-04T11:38:02.007Z</time></trkpt><trkpt lat="43.9916957" lon="11.9069371"><ele>248.0</ele><time>2026-04-04T11:38:03.005Z</time></trkpt><trkpt lat="43.9914738" lon="11.9068829"><ele>248.0</ele><time>2026-04-04T11:38:04.008Z</time></trkpt><trkpt lat="43.9912439" lon="11.9068638"><ele>247.0</ele><time>2026-04-04T11:38:05.006Z</time></trkpt><trkpt lat="43.9910199" lon="11.906868"><ele>246.0</ele><time>2026-04-04T11:38:06.005Z</time></trkpt><trkpt lat="43.9908096" lon="11.9068705"><ele>245.0</ele><time>2026-04-04T11:38:07.006Z</time></trkpt><trkpt lat="43.9906144" lon="11.906877"><ele>247.0</ele><time>2026-04-04T11:38:08.006Z</time></trkpt><trkpt lat="43.9904303" lon="11.9068688"><ele>249.0</ele><time>2026-04-04T11:38:09.009Z</time></trkpt><trkpt lat="43.9902529" lon="11.906862"><ele>251.0</ele><time>2026-04-04T11:38:10.008Z</time></trkpt><trkpt lat="43.9900779" lon="11.9068659"><ele>252.33333333333334</ele><time>2026-04-04T11:38:11.006Z</time></trkpt><trkpt lat="43.989902" lon="11.9068623"><ele>253.66666666666669</ele><time>2026-04-04T11:38:12.011Z</time></trkpt><trkpt lat="43.9897191" lon="11.9068569"><ele>255.0</ele><time>2026-04-04T11:38:13.005Z</time></trkpt><trkpt lat="43.9895242" lon="11.906858"><ele>255.0</ele><time>2026-04-04T11:38:14.006Z</time></trkpt><trkpt lat="43.9893196" lon="11.9068524"><ele>255.0</ele><time>2026-04-04T11:38:15.008Z</time></trkpt><trkpt lat="43.9891079" lon="11.9068338"><ele>255.0</ele><time>2026-04-04T11:38:16.006Z</time></trkpt><trkpt lat="43.9888998" lon="11.9067932"><ele>254.33333333333331</ele><time>2026-04-04T11:38:17.006Z</time></trkpt><trkpt lat="43.9887038" lon="11.9067475"><ele>253.66666666666666</ele><time>2026-04-04T11:38:18.007Z</time></trkpt><trkpt lat="43.9885238" lon="11.9067149"><ele>253.0</ele><time>2026-04-04T11:38:19.007Z</time></trkpt><trkpt lat="43.988361" lon="11.9066859"><ele>255.0</ele><time>2026-04-04T11:38:20.007Z</time></trkpt><trkpt lat="43.9882111" lon="11.9066623"><ele>257.0</ele><time>2026-04-04T11:38:21.009Z</time></trkpt><trkpt lat="43.9880728" lon="11.906649"><ele>259.0</ele><time>2026-04-04T11:38:22.007Z</time></trkpt><trkpt lat="43.9879421" lon="11.906658"><ele>261.0</ele><time>2026-04-04T11:38:23.007Z</time></trkpt><trkpt lat="43.9878204" lon="11.9066921"><ele>261.0</ele><time>2026-04-04T11:38:24.008Z</time></trkpt><trkpt lat="43.9877099" lon="11.9067153"><ele>261.0</ele><time>2026-04-04T11:38:25.007Z</time></trkpt><trkpt lat="43.9876102" lon="11.9067171"><ele>261.0</ele><time>2026-04-04T11:38:26.007Z</time></trkpt><trkpt lat="43.9875163" lon="11.9066961"><ele>261.0</ele><time>2026-04-04T11:38:27.005Z</time></trkpt><trkpt lat="43.98742" lon="11.9066864"><ele>261.0</ele><time>2026-04-04T11:38:28.005Z</time></trkpt><trkpt lat="43.9873256" lon="11.9067105"><ele>261.0</ele><time>2026-04-04T11:38:29.007Z</time></trkpt><trkpt lat="43.9872379" lon="11.9067488"><ele>261.0</ele><time>2026-04-04T11:38:30.007Z</time></trkpt><trkpt lat="43.9871543" lon="11.9067784"><ele>261.0</ele><time>2026-04-04T11:38:31.008Z</time></trkpt><trkpt lat="43.9870754" lon="11.9067792"><ele>261.0</ele><time>2026-04-04T11:38:32.008Z</time></trkpt><trkpt lat="43.9869966" lon="11.9067385"><ele>261.0</ele><time>2026-04-04T11:38:33.007Z</time></trkpt><trkpt lat="43.986916" lon="11.9066764"><ele>261.0</ele><time>2026-04-04T11:38:34.006Z</time></trkpt><trkpt lat="43.98683" lon="11.9066094"><ele>261.0</ele><time>2026-04-04T11:38:35.006Z</time></trkpt><trkpt lat="43.9867229" lon="11.9065614"><ele>261.0</ele><time>2026-04-04T11:38:36.008Z</time></trkpt><trkpt lat="43.9865919" lon="11.9065399"><ele>261.0</ele><time>2026-04-04T11:38:37.007Z</time></trkpt><trkpt lat="43.9864405" lon="11.9065296"><ele>261.0</ele><time>2026-04-04T11:38:38.007Z</time></trkpt><trkpt lat="43.9862741" lon="11.9065048"><ele>260.6666666666667</ele><time>2026-04-04T11:38:39.006Z</time></trkpt><trkpt lat="43.9860962" lon="11.9064675"><ele>260.33333333333337</ele><time>2026-04-04T11:38:40.007Z</time></trkpt><trkpt lat="43.9859063" lon="11.9064348"><ele>260.0</ele><time>2026-04-04T11:38:41.006Z</time></trkpt><trkpt lat="43.9857042" lon="11.9063969"><ele>261.0</ele><time>2026-04-04T11:38:42.006Z</time></trkpt><trkpt lat="43.9854966" lon="11.9063533"><ele>262.0</ele><time>2026-04-04T11:38:43.006Z</time></trkpt><trkpt lat="43.9852896" lon="11.9063148"><ele>263.0</ele><time>2026-04-04T11:38:44.008Z</time></trkpt><trkpt lat="43.9850792" lon="11.9062719"><ele>262.0</ele><time>2026-04-04T11:38:45.008Z</time></trkpt><trkpt lat="43.9848613" lon="11.9062202"><ele>261.0</ele><time>2026-04-04T11:38:46.006Z</time></trkpt><trkpt lat="43.9846353" lon="11.9061736"><ele>261.0</ele><time>2026-04-04T11:38:47.006Z</time></trkpt><trkpt lat="43.9844185" lon="11.9061224"><ele>261.0</ele><time>2026-04-04T11:38:48.007Z</time></trkpt><trkpt lat="43.9842151" lon="11.9060817"><ele>261.0</ele><time>2026-04-04T11:38:49.007Z</time></trkpt><trkpt lat="43.9840299" lon="11.906034"><ele>260.6666666666667</ele><time>2026-04-04T11:38:50.007Z</time></trkpt><trkpt lat="43.9838553" lon="11.905967"><ele>260.33333333333337</ele><time>2026-04-04T11:38:51.007Z</time></trkpt><trkpt lat="43.9836888" lon="11.9058541"><ele>260.0</ele><time>2026-04-04T11:38:52.005Z</time></trkpt><trkpt lat="43.9835309" lon="11.9056957"><ele>260.0</ele><time>2026-04-04T11:38:53.006Z</time></trkpt><trkpt lat="43.9833808" lon="11.9054964"><ele>260.0</ele><time>2026-04-04T11:38:54.007Z</time></trkpt><trkpt lat="43.983226" lon="11.9052817"><ele>260.0</ele><time>2026-04-04T11:38:55.007Z</time></trkpt><trkpt lat="43.9830511" lon="11.9050814"><ele>281.5</ele><time>2026-04-04T11:38:56.007Z</time></trkpt><trkpt lat="43.9828552" lon="11.9049007"><ele>303.0</ele><time>2026-04-04T11:38:57.006Z</time></trkpt><trkpt lat="43.9826452" lon="11.9047328"><ele>286.0</ele><time>2026-04-04T11:38:58.006Z</time></trkpt><trkpt lat="43.9824289" lon="11.9045702"><ele>269.0</ele><time>2026-04-04T11:38:59.008Z</time></trkpt><trkpt lat="43.9822132" lon="11.9044079"><ele>269.0</ele><time>2026-04-04T11:39:00.01Z</time></trkpt><trkpt lat="43.9820093" lon="11.9042503"><ele>269.0</ele><time>2026-04-04T11:39:01.011Z</time></trkpt><trkpt lat="43.9818185" lon="11.904115"><ele>269.0</ele><time>2026-04-04T11:39:02.006Z</time></trkpt><trkpt lat="43.9816312" lon="11.9040044"><ele>272.33333333333337</ele><time>2026-04-04T11:39:03.007Z</time></trkpt><trkpt lat="43.9814551" lon="11.9039042"><ele>275.6666666666667</ele><time>2026-04-04T11:39:04.007Z</time></trkpt><trkpt lat="43.9812859" lon="11.9038342"><ele>279.0</ele><time>2026-04-04T11:39:05.005Z</time></trkpt><trkpt lat="43.9811231" lon="11.903789"><ele>279.0</ele><time>2026-04-04T11:39:06.007Z</time></trkpt><trkpt lat="43.9809619" lon="11.9037811"><ele>279.0</ele><time>2026-04-04T11:39:07.009Z</time></trkpt><trkpt lat="43.9808072" lon="11.9038125"><ele>279.0</ele><time>2026-04-04T11:39:08.008Z</time></trkpt><trkpt lat="43.9806525" lon="11.903893"><ele>278.0</ele><time>2026-04-04T11:39:09.008Z</time></trkpt><trkpt lat="43.9805087" lon="11.904002"><ele>277.0</ele><time>2026-04-04T11:39:10.007Z</time></trkpt><trkpt lat="43.9803708" lon="11.9041128"><ele>276.0</ele><time>2026-04-04T11:39:11.008Z</time></trkpt><trkpt lat="43.9802272" lon="11.9042097"><ele>269.3333333333333</ele><time>2026-04-04T11:39:12.007Z</time></trkpt><trkpt lat="43.9800663" lon="11.904262"><ele>262.66666666666663</ele><time>2026-04-04T11:39:13.007Z</time></trkpt><trkpt lat="43.9798863" lon="11.9042689"><ele>256.0</ele><time>2026-04-04T11:39:14.006Z</time></trkpt><trkpt lat="43.979693" lon="11.9042487"><ele>261.66666666666663</ele><time>2026-04-04T11:39:15.008Z</time></trkpt><trkpt lat="43.979498" lon="11.9042082"><ele>267.3333333333333</ele><time>2026-04-04T11:39:16.006Z</time></trkpt><trkpt lat="43.9793049" lon="11.9041399"><ele>273.0</ele><time>2026-04-04T11:39:17.005Z</time></trkpt><trkpt lat="43.9791091" lon="11.9040318"><ele>273.0</ele><time>2026-04-04T11:39:18.008Z</time></trkpt><trkpt lat="43.9789164" lon="11.9039124"><ele>273.0</ele><time>2026-04-04T11:39:19.008Z</time></trkpt><trkpt lat="43.9787333" lon="11.9037966"><ele>273.0</ele><time>2026-04-04T11:39:20.008Z</time></trkpt><trkpt lat="43.9785555" lon="11.9037076"><ele>273.0</ele><time>2026-04-04T11:39:21.007Z</time></trkpt><trkpt lat="43.9783784" lon="11.9036657"><ele>273.0</ele><time>2026-04-04T11:39:22.008Z</time></trkpt><trkpt lat="43.9781889" lon="11.9036721"><ele>273.0</ele><time>2026-04-04T11:39:23.006Z</time></trkpt><trkpt lat="43.9779843" lon="11.9037154"><ele>270.5</ele><time>2026-04-04T11:39:24.009Z</time></trkpt><trkpt lat="43.9777656" lon="11.9037765"><ele>268.0</ele><time>2026-04-04T11:39:25.007Z</time></trkpt><trkpt lat="43.9775331" lon="11.9038436"><ele>267.5</ele><time>2026-04-04T11:39:26.005Z</time></trkpt><trkpt lat="43.9772934" lon="11.9039096"><ele>267.0</ele><time>2026-04-04T11:39:27.005Z</time></trkpt><trkpt lat="43.9770563" lon="11.9039751"><ele>267.0</ele><time>2026-04-04T11:39:28.008Z</time></trkpt><trkpt lat="43.9768316" lon="11.9040366"><ele>267.0</ele><time>2026-04-04T11:39:29.007Z</time></trkpt><trkpt lat="43.976614" lon="11.9040943"><ele>267.3333333333333</ele><time>2026-04-04T11:39:30.007Z</time></trkpt><trkpt lat="43.9764017" lon="11.9041509"><ele>267.66666666666663</ele><time>2026-04-04T11:39:31.008Z</time></trkpt><trkpt lat="43.9761937" lon="11.9042088"><ele>268.0</ele><time>2026-04-04T11:39:32.006Z</time></trkpt><trkpt lat="43.9759915" lon="11.9042727"><ele>265.66666666666663</ele><time>2026-04-04T11:39:33.007Z</time></trkpt><trkpt lat="43.9757933" lon="11.9043344"><ele>263.3333333333333</ele><time>2026-04-04T11:39:34.007Z</time></trkpt><trkpt lat="43.9755985" lon="11.9043872"><ele>261.0</ele><time>2026-04-04T11:39:35.005Z</time></trkpt><trkpt lat="43.9754043" lon="11.9044354"><ele>261.0</ele><time>2026-04-04T11:39:36.004Z</time></trkpt><trkpt lat="43.9752125" lon="11.9044901"><ele>261.0</ele><time>2026-04-04T11:39:37.007Z</time></trkpt><trkpt lat="43.9750258" lon="11.9045527"><ele>261.0</ele><time>2026-04-04T11:39:38.007Z</time></trkpt><trkpt lat="43.9748422" lon="11.9046263"><ele>261.6666666666667</ele><time>2026-04-04T11:39:39.008Z</time></trkpt><trkpt lat="43.9746612" lon="11.9047081"><ele>262.33333333333337</ele><time>2026-04-04T11:39:40.007Z</time></trkpt><trkpt lat="43.9744854" lon="11.9048018"><ele>263.0</ele><time>2026-04-04T11:39:41.007Z</time></trkpt><trkpt lat="43.9743132" lon="11.904899"><ele>263.33333333333337</ele><time>2026-04-04T11:39:42.006Z</time></trkpt><trkpt lat="43.9741408" lon="11.9049931"><ele>263.6666666666667</ele><time>2026-04-04T11:39:43.006Z</time></trkpt><trkpt lat="43.9739709" lon="11.9050912"><ele>264.0</ele><time>2026-04-04T11:39:44.007Z</time></trkpt><trkpt lat="43.9738027" lon="11.9051998"><ele>261.3333333333333</ele><time>2026-04-04T11:39:45.007Z</time></trkpt><trkpt lat="43.9736347" lon="11.9053143"><ele>258.66666666666663</ele><time>2026-04-04T11:39:46.007Z</time></trkpt><trkpt lat="43.9734639" lon="11.9054279"><ele>256.0</ele><time>2026-04-04T11:39:47.007Z</time></trkpt><trkpt lat="43.9732914" lon="11.9055389"><ele>256.0</ele><time>2026-04-04T11:39:48.007Z</time></trkpt><trkpt lat="43.9731199" lon="11.905656"><ele>256.0</ele><time>2026-04-04T11:39:49.007Z</time></trkpt><trkpt lat="43.9729628" lon="11.9058009"><ele>256.0</ele><time>2026-04-04T11:39:50.007Z</time></trkpt><trkpt lat="43.9728108" lon="11.905965"><ele>256.0</ele><time>2026-04-04T11:39:51.008Z</time></trkpt><trkpt lat="43.9726625" lon="11.9061298"><ele>256.0</ele><time>2026-04-04T11:39:52.008Z</time></trkpt><trkpt lat="43.972511" lon="11.906291"><ele>256.0</ele><time>2026-04-04T11:39:53.007Z</time></trkpt><trkpt lat="43.9723593" lon="11.9064476"><ele>256.0</ele><time>2026-04-04T11:39:54.006Z</time></trkpt><trkpt lat="43.9722061" lon="11.9065949"><ele>256.0</ele><time>2026-04-04T11:39:55.007Z</time></trkpt><trkpt lat="43.972058" lon="11.9067339"><ele>256.0</ele><time>2026-04-04T11:39:56.007Z</time></trkpt><trkpt lat="43.9719109" lon="11.906857"><ele>253.66666666666666</ele><time>2026-04-04T11:39:57.006Z</time></trkpt><trkpt lat="43.9717503" lon="11.9069572"><ele>251.33333333333331</ele><time>2026-04-04T11:39:58.007Z</time></trkpt><trkpt lat="43.9715699" lon="11.9070224"><ele>249.0</ele><time>2026-04-04T11:39:59.006Z</time></trkpt><trkpt lat="43.9713735" lon="11.9070514"><ele>249.0</ele><time>2026-04-04T11:40:00.006Z</time></trkpt><trkpt lat="43.9711645" lon="11.907048"><ele>249.0</ele><time>2026-04-04T11:40:01.007Z</time></trkpt><trkpt lat="43.9709466" lon="11.9070383"><ele>249.0</ele><time>2026-04-04T11:40:02.007Z</time></trkpt><trkpt lat="43.9707239" lon="11.907045"><ele>251.5</ele><time>2026-04-04T11:40:03.006Z</time></trkpt><trkpt lat="43.9704997" lon="11.9070863"><ele>254.0</ele><time>2026-04-04T11:40:04.006Z</time></trkpt><trkpt lat="43.9702801" lon="11.9071635"><ele>254.0</ele><time>2026-04-04T11:40:05.008Z</time></trkpt><trkpt lat="43.9700675" lon="11.9072713"><ele>254.0</ele><time>2026-04-04T11:40:06.011Z</time></trkpt><trkpt lat="43.9698636" lon="11.9073976"><ele>256.0</ele><time>2026-04-04T11:40:07.006Z</time></trkpt><trkpt lat="43.9696661" lon="11.9075305"><ele>258.0</ele><time>2026-04-04T11:40:08.005Z</time></trkpt><trkpt lat="43.9694653" lon="11.907649"><ele>260.0</ele><time>2026-04-04T11:40:09.007Z</time></trkpt><trkpt lat="43.9692548" lon="11.9077429"><ele>259.6666666666667</ele><time>2026-04-04T11:40:10.007Z</time></trkpt><trkpt lat="43.9690423" lon="11.9078291"><ele>259.3333333333333</ele><time>2026-04-04T11:40:11.006Z</time></trkpt><trkpt lat="43.9688363" lon="11.9079093"><ele>259.0</ele><time>2026-04-04T11:40:12.006Z</time></trkpt><trkpt lat="43.9686427" lon="11.9079885"><ele>259.0</ele><time>2026-04-04T11:40:13.008Z</time></trkpt><trkpt lat="43.9684535" lon="11.9080539"><ele>259.0</ele><time>2026-04-04T11:40:14.006Z</time></trkpt><trkpt lat="43.9682668" lon="11.9080899"><ele>259.0</ele><time>2026-04-04T11:40:15.008Z</time></trkpt><trkpt lat="43.968081" lon="11.9080978"><ele>261.3333333333333</ele><time>2026-04-04T11:40:16.007Z</time></trkpt><trkpt lat="43.9678953" lon="11.9081144"><ele>263.6666666666667</ele><time>2026-04-04T11:40:17.007Z</time></trkpt><trkpt lat="43.967716" lon="11.9081758"><ele>266.0</ele><time>2026-04-04T11:40:18.009Z</time></trkpt><trkpt lat="43.9675428" lon="11.9082874"><ele>263.6666666666667</ele><time>2026-04-04T11:40:19.007Z</time></trkpt><trkpt lat="43.9673739" lon="11.9084312"><ele>261.3333333333333</ele><time>2026-04-04T11:40:20.006Z</time></trkpt><trkpt lat="43.9671978" lon="11.9085921"><ele>259.0</ele><time>2026-04-04T11:40:21.007Z</time></trkpt><trkpt lat="43.9670187" lon="11.9087527"><ele>259.0</ele><time>2026-04-04T11:40:22.01Z</time></trkpt><trkpt lat="43.9668449" lon="11.9089063"><ele>259.0</ele><time>2026-04-04T11:40:23.007Z</time></trkpt><trkpt lat="43.966683" lon="11.9090455"><ele>259.0</ele><time>2026-04-04T11:40:24.007Z</time></trkpt><trkpt lat="43.9665381" lon="11.9091711"><ele>259.0</ele><time>2026-04-04T11:40:25.007Z</time></trkpt><trkpt lat="43.9663989" lon="11.909278"><ele>259.0</ele><time>2026-04-04T11:40:26.007Z</time></trkpt><trkpt lat="43.9662628" lon="11.9093583"><ele>259.0</ele><time>2026-04-04T11:40:27.007Z</time></trkpt><trkpt lat="43.9661148" lon="11.9094009"><ele>259.0</ele><time>2026-04-04T11:40:28.007Z</time></trkpt><trkpt lat="43.9659458" lon="11.9093942"><ele>259.0</ele><time>2026-04-04T11:40:29.008Z</time></trkpt><trkpt lat="43.9657588" lon="11.9093561"><ele>259.0</ele><time>2026-04-04T11:40:30.007Z</time></trkpt><trkpt lat="43.9655585" lon="11.9093007"><ele>259.3333333333333</ele><time>2026-04-04T11:40:31.008Z</time></trkpt><trkpt lat="43.9653443" lon="11.9092334"><ele>259.6666666666667</ele><time>2026-04-04T11:40:32.007Z</time></trkpt><trkpt lat="43.9651226" lon="11.9091607"><ele>260.0</ele><time>2026-04-04T11:40:33.007Z</time></trkpt><trkpt lat="43.9649034" lon="11.9090897"><ele>260.0</ele><time>2026-04-04T11:40:34.006Z</time></trkpt><trkpt lat="43.9646887" lon="11.9090291"><ele>260.0</ele><time>2026-04-04T11:40:35.007Z</time></trkpt><trkpt lat="43.9644832" lon="11.9089795"><ele>260.0</ele><time>2026-04-04T11:40:36.007Z</time></trkpt><trkpt lat="43.9642809" lon="11.9089646"><ele>259.33333333333337</ele><time>2026-04-04T11:40:37.006Z</time></trkpt><trkpt lat="43.9640775" lon="11.9089948"><ele>258.6666666666667</ele><time>2026-04-04T11:40:38.008Z</time></trkpt><trkpt lat="43.9638733" lon="11.9089942"><ele>258.0</ele><time>2026-04-04T11:40:39.008Z</time></trkpt><trkpt lat="43.9636606" lon="11.9089598"><ele>258.0</ele><time>2026-04-04T11:40:40.007Z</time></trkpt><trkpt lat="43.9634462" lon="11.9088992"><ele>258.0</ele><time>2026-04-04T11:40:41.008Z</time></trkpt><trkpt lat="43.9632474" lon="11.9088219"><ele>258.0</ele><time>2026-04-04T11:40:42.008Z</time></trkpt><trkpt lat="43.9630602" lon="11.9087482"><ele>258.6666666666667</ele><time>2026-04-04T11:40:43.006Z</time></trkpt><trkpt lat="43.9628757" lon="11.9087066"><ele>259.33333333333337</ele><time>2026-04-04T11:40:44.007Z</time></trkpt><trkpt lat="43.9626863" lon="11.9087171"><ele>260.0</ele><time>2026-04-04T11:40:45.007Z</time></trkpt><trkpt lat="43.9624935" lon="11.9087726"><ele>261.6666666666667</ele><time>2026-04-04T11:40:46.008Z</time></trkpt><trkpt lat="43.9622949" lon="11.9088735"><ele>263.3333333333333</ele><time>2026-04-04T11:40:47.006Z</time></trkpt><trkpt lat="43.9620904" lon="11.9090154"><ele>265.0</ele><time>2026-04-04T11:40:48.01Z</time></trkpt><trkpt lat="43.9618824" lon="11.9092029"><ele>262.5</ele><time>2026-04-04T11:40:49.007Z</time></trkpt><trkpt lat="43.9616736" lon="11.909435"><ele>260.0</ele><time>2026-04-04T11:40:50.007Z</time></trkpt><trkpt lat="43.9614687" lon="11.9097018"><ele>260.0</ele><time>2026-04-04T11:40:51.011Z</time></trkpt><trkpt lat="43.9612726" lon="11.9099702"><ele>260.0</ele><time>2026-04-04T11:40:52.006Z</time></trkpt><trkpt lat="43.961082" lon="11.9102213"><ele>260.0</ele><time>2026-04-04T11:40:53.005Z</time></trkpt><trkpt lat="43.960896" lon="11.9104443"><ele>260.0</ele><time>2026-04-04T11:40:54.005Z</time></trkpt><trkpt lat="43.9607217" lon="11.9106473"><ele>260.0</ele><time>2026-04-04T11:40:55.007Z</time></trkpt><trkpt lat="43.9605617" lon="11.9108382"><ele>260.0</ele><time>2026-04-04T11:40:56.009Z</time></trkpt><trkpt lat="43.9604114" lon="11.9110112"><ele>260.0</ele><time>2026-04-04T11:40:57.008Z</time></trkpt><trkpt lat="43.9602706" lon="11.9111647"><ele>259.33333333333337</ele><time>2026-04-04T11:40:58.007Z</time></trkpt><trkpt lat="43.9601369" lon="11.9112958"><ele>258.6666666666667</ele><time>2026-04-04T11:40:59.006Z</time></trkpt><trkpt lat="43.9600003" lon="11.9113885"><ele>258.0</ele><time>2026-04-04T11:41:00.007Z</time></trkpt><trkpt lat="43.9598564" lon="11.9114324"><ele>258.0</ele><time>2026-04-04T11:41:01.01Z</time></trkpt><trkpt lat="43.9597024" lon="11.911446"><ele>258.0</ele><time>2026-04-04T11:41:02.007Z</time></trkpt><trkpt lat="43.9595396" lon="11.9114365"><ele>258.0</ele><time>2026-04-04T11:41:03.007Z</time></trkpt><trkpt lat="43.9593673" lon="11.9114072"><ele>259.0</ele><time>2026-04-04T11:41:04.006Z</time></trkpt><trkpt lat="43.9591891" lon="11.9113765"><ele>260.0</ele><time>2026-04-04T11:41:05.005Z</time></trkpt><trkpt lat="43.9590091" lon="11.911357"><ele>261.0</ele><time>2026-04-04T11:41:06.006Z</time></trkpt><trkpt lat="43.9588248" lon="11.9113532"><ele>261.0</ele><time>2026-04-04T11:41:07.007Z</time></trkpt><trkpt lat="43.9586461" lon="11.9113669"><ele>261.0</ele><time>2026-04-04T11:41:08.007Z</time></trkpt><trkpt lat="43.9584825" lon="11.911409"><ele>261.0</ele><time>2026-04-04T11:41:09.008Z</time></trkpt><trkpt lat="43.9583369" lon="11.9114692"><ele>262.25</ele><time>2026-04-04T11:41:10.013Z</time></trkpt><trkpt lat="43.9582082" lon="11.911529"><ele>263.5</ele><time>2026-04-04T11:41:11.007Z</time></trkpt><trkpt lat="43.9580794" lon="11.9115787"><ele>264.75</ele><time>2026-04-04T11:41:12.008Z</time></trkpt><trkpt lat="43.9579421" lon="11.9116151"><ele>266.0</ele><time>2026-04-04T11:41:13.007Z</time></trkpt><trkpt lat="43.9577979" lon="11.9116305"><ele>266.0</ele><time>2026-04-04T11:41:14.008Z</time></trkpt><trkpt lat="43.9576499" lon="11.9116281"><ele>266.0</ele><time>2026-04-04T11:41:15.009Z</time></trkpt><trkpt lat="43.9575036" lon="11.911612"><ele>266.0</ele><time>2026-04-04T11:41:16.007Z</time></trkpt><trkpt lat="43.9573626" lon="11.9115856"><ele>266.0</ele><time>2026-04-04T11:41:17.009Z</time></trkpt><trkpt lat="43.9572233" lon="11.911552"><ele>266.0</ele><time>2026-04-04T11:41:18.008Z</time></trkpt><trkpt lat="43.957085" lon="11.9115205"><ele>266.0</ele><time>2026-04-04T11:41:19.007Z</time></trkpt><trkpt lat="43.9569468" lon="11.9114889"><ele>266.0</ele><time>2026-04-04T11:41:20.007Z</time></trkpt><trkpt lat="43.956807" lon="11.9114583"><ele>266.0</ele><time>2026-04-04T11:41:21.007Z</time></trkpt><trkpt lat="43.9566639" lon="11.9114256"><ele>266.0</ele><time>2026-04-04T11:41:22.01Z</time></trkpt><trkpt lat="43.9565206" lon="11.9113925"><ele>266.0</ele><time>2026-04-04T11:41:23.008Z</time></trkpt><trkpt lat="43.9563755" lon="11.9113567"><ele>266.0</ele><time>2026-04-04T11:41:24.007Z</time></trkpt><trkpt lat="43.9562316" lon="11.911317"><ele>266.0</ele><time>2026-04-04T11:41:25.008Z</time></trkpt><trkpt lat="43.9560881" lon="11.9112737"><ele>266.0</ele><time>2026-04-04T11:41:26.006Z</time></trkpt><trkpt lat="43.9559432" lon="11.911227"><ele>266.0</ele><time>2026-04-04T11:41:27.008Z</time></trkpt><trkpt lat="43.9557967" lon="11.9111756"><ele>266.0</ele><time>2026-04-04T11:41:28.006Z</time></trkpt><trkpt lat="43.9556481" lon="11.9111179"><ele>265.6666666666667</ele><time>2026-04-04T11:41:29.01Z</time></trkpt><trkpt lat="43.9554955" lon="11.9110708"><ele>265.3333333333333</ele><time>2026-04-04T11:41:30.007Z</time></trkpt><trkpt lat="43.9553375" lon="11.9110239"><ele>265.0</ele><time>2026-04-04T11:41:31.006Z</time></trkpt><trkpt lat="43.9551756" lon="11.9109735"><ele>264.66666666666663</ele><time>2026-04-04T11:41:32.007Z</time></trkpt><trkpt lat="43.9550077" lon="11.9109311"><ele>264.3333333333333</ele><time>2026-04-04T11:41:33.008Z</time></trkpt><trkpt lat="43.9548356" lon="11.9108885"><ele>264.0</ele><time>2026-04-04T11:41:34.007Z</time></trkpt><trkpt lat="43.9546604" lon="11.9108429"><ele>266.0</ele><time>2026-04-04T11:41:35.007Z</time></trkpt><trkpt lat="43.9544849" lon="11.9107983"><ele>268.0</ele><time>2026-04-04T11:41:36.01Z</time></trkpt><trkpt lat="43.9543101" lon="11.9107574"><ele>270.0</ele><time>2026-04-04T11:41:37.006Z</time></trkpt><trkpt lat="43.9541367" lon="11.9107127"><ele>271.0</ele><time>2026-04-04T11:41:38.007Z</time></trkpt><trkpt lat="43.9539629" lon="11.910662"><ele>272.0</ele><time>2026-04-04T11:41:39.009Z</time></trkpt><trkpt lat="43.9537923" lon="11.9106131"><ele>273.0</ele><time>2026-04-04T11:41:40.005Z</time></trkpt><trkpt lat="43.9536195" lon="11.9105737"><ele>273.0</ele><time>2026-04-04T11:41:41.008Z</time></trkpt><trkpt lat="43.9534437" lon="11.9105383"><ele>273.0</ele><time>2026-04-04T11:41:42.005Z</time></trkpt><trkpt lat="43.9532696" lon="11.9104962"><ele>273.0</ele><time>2026-04-04T11:41:43.006Z</time></trkpt><trkpt lat="43.9531063" lon="11.9104538"><ele>273.25</ele><time>2026-04-04T11:41:44.011Z</time></trkpt><trkpt lat="43.952957" lon="11.9104141"><ele>273.5</ele><time>2026-04-04T11:41:45.01Z</time></trkpt><trkpt lat="43.9528218" lon="11.9103806"><ele>273.75</ele><time>2026-04-04T11:41:46.006Z</time></trkpt><trkpt lat="43.9527014" lon="11.910346"><ele>274.0</ele><time>2026-04-04T11:41:47.007Z</time></trkpt><trkpt lat="43.9526017" lon="11.9102953"><ele>274.0</ele><time>2026-04-04T11:41:48.009Z</time></trkpt><trkpt lat="43.9525239" lon="11.9102192"><ele>274.0</ele><time>2026-04-04T11:41:49.009Z</time></trkpt><trkpt lat="43.9524586" lon="11.9101448"><ele>274.0</ele><time>2026-04-04T11:41:50.007Z</time></trkpt><trkpt lat="43.9523954" lon="11.9100974"><ele>274.0</ele><time>2026-04-04T11:41:51.008Z</time></trkpt><trkpt lat="43.9523221" lon="11.9100856"><ele>274.0</ele><time>2026-04-04T11:41:52.006Z</time></trkpt><trkpt lat="43.9522345" lon="11.9101055"><ele>274.0</ele><time>2026-04-04T11:41:53.007Z</time></trkpt><trkpt lat="43.9521363" lon="11.9101335"><ele>274.0</ele><time>2026-04-04T11:41:54.006Z</time></trkpt><trkpt lat="43.9520054" lon="11.9101282"><ele>274.0</ele><time>2026-04-04T11:41:55.008Z</time></trkpt><trkpt lat="43.9518588" lon="11.9101002"><ele>274.0</ele><time>2026-04-04T11:41:56.007Z</time></trkpt><trkpt lat="43.9517062" lon="11.9100635"><ele>274.0</ele><time>2026-04-04T11:41:57.007Z</time></trkpt><trkpt lat="43.9515477" lon="11.910027"><ele>275.0</ele><time>2026-04-04T11:41:58.007Z</time></trkpt><trkpt lat="43.9513779" lon="11.9099857"><ele>276.0</ele><time>2026-04-04T11:41:59.008Z</time></trkpt><trkpt lat="43.9511976" lon="11.9099387"><ele>277.0</ele><time>2026-04-04T11:42:00.009Z</time></trkpt><trkpt lat="43.951015" lon="11.9098949"><ele>277.3333333333333</ele><time>2026-04-04T11:42:01.006Z</time></trkpt><trkpt lat="43.9508331" lon="11.9098487"><ele>277.6666666666667</ele><time>2026-04-04T11:42:02.008Z</time></trkpt><trkpt lat="43.9506519" lon="11.9098013"><ele>278.0</ele><time>2026-04-04T11:42:03.007Z</time></trkpt><trkpt lat="43.9504668" lon="11.9097574"><ele>278.0</ele><time>2026-04-04T11:42:04.007Z</time></trkpt><trkpt lat="43.9502874" lon="11.9097094"><ele>278.0</ele><time>2026-04-04T11:42:05.008Z</time></trkpt><trkpt lat="43.9501193" lon="11.9096699"><ele>278.0</ele><time>2026-04-04T11:42:06.008Z</time></trkpt><trkpt lat="43.9499644" lon="11.9096454"><ele>278.25</ele><time>2026-04-04T11:42:07.01Z</time></trkpt><trkpt lat="43.9498211" lon="11.9095924"><ele>278.5</ele><time>2026-04-04T11:42:08.006Z</time></trkpt><trkpt lat="43.9496878" lon="11.9095004"><ele>278.75</ele><time>2026-04-04T11:42:09.006Z</time></trkpt><trkpt lat="43.9495638" lon="11.9093786"><ele>279.0</ele><time>2026-04-04T11:42:10.007Z</time></trkpt><trkpt lat="43.949454" lon="11.9092404"><ele>280.25</ele><time>2026-04-04T11:42:11.007Z</time></trkpt><trkpt lat="43.9493605" lon="11.9090971"><ele>281.5</ele><time>2026-04-04T11:42:12.008Z</time></trkpt><trkpt lat="43.9492848" lon="11.9089439"><ele>282.75</ele><time>2026-04-04T11:42:13.008Z</time></trkpt><trkpt lat="43.9492372" lon="11.9087679"><ele>284.0</ele><time>2026-04-04T11:42:14.007Z</time></trkpt><trkpt lat="43.9492047" lon="11.9085648"><ele>281.6666666666667</ele><time>2026-04-04T11:42:15.008Z</time></trkpt><trkpt lat="43.9491672" lon="11.9083463"><ele>279.3333333333333</ele><time>2026-04-04T11:42:16.01Z</time></trkpt><trkpt lat="43.9491134" lon="11.908132"><ele>277.0</ele><time>2026-04-04T11:42:17.005Z</time></trkpt><trkpt lat="43.9490383" lon="11.9079276"><ele>277.0</ele><time>2026-04-04T11:42:18.008Z</time></trkpt><trkpt lat="43.9489375" lon="11.9077449"><ele>277.0</ele><time>2026-04-04T11:42:19.008Z</time></trkpt><trkpt lat="43.9488232" lon="11.9075801"><ele>277.0</ele><time>2026-04-04T11:42:20.006Z</time></trkpt><trkpt lat="43.9486948" lon="11.9074394"><ele>275.0</ele><time>2026-04-04T11:42:21.007Z</time></trkpt><trkpt lat="43.9485619" lon="11.9073206"><ele>273.0</ele><time>2026-04-04T11:42:22.007Z</time></trkpt><trkpt lat="43.9484329" lon="11.9072168"><ele>271.0</ele><time>2026-04-04T11:42:23.009Z</time></trkpt><trkpt lat="43.9483115" lon="11.9071394"><ele>269.0</ele><time>2026-04-04T11:42:24.008Z</time></trkpt><trkpt lat="43.9482003" lon="11.9070821"><ele>269.0</ele><time>2026-04-04T11:42:25.007Z</time></trkpt><trkpt lat="43.9480899" lon="11.9070556"><ele>269.0</ele><time>2026-04-04T11:42:26.011Z</time></trkpt><trkpt lat="43.9479834" lon="11.9070606"><ele>269.0</ele><time>2026-04-04T11:42:27.007Z</time></trkpt><trkpt lat="43.9478843" lon="11.9070993"><ele>269.0</ele><time>2026-04-04T11:42:28.007Z</time></trkpt><trkpt lat="43.9477996" lon="11.9071722"><ele>269.0</ele><time>2026-04-04T11:42:29.007Z</time></trkpt><trkpt lat="43.9477398" lon="11.9072793"><ele>269.0</ele><time>2026-04-04T11:42:30.007Z</time></trkpt><trkpt lat="43.9476964" lon="11.9074026"><ele>269.0</ele><time>2026-04-04T11:42:31.013Z</time></trkpt><trkpt lat="43.9476564" lon="11.9075335"><ele>269.0</ele><time>2026-04-04T11:42:32.008Z</time></trkpt><trkpt lat="43.9476153" lon="11.907668"><ele>269.0</ele><time>2026-04-04T11:42:33.007Z</time></trkpt><trkpt lat="43.9475697" lon="11.9078033"><ele>269.0</ele><time>2026-04-04T11:42:34.009Z</time></trkpt><trkpt lat="43.947524" lon="11.9079287"><ele>266.59999999999997</ele><time>2026-04-04T11:42:35.006Z</time></trkpt><trkpt lat="43.9474757" lon="11.9080517"><ele>264.2</ele><time>2026-04-04T11:42:36.009Z</time></trkpt><trkpt lat="43.9474283" lon="11.9081811"><ele>261.79999999999995</ele><time>2026-04-04T11:42:37.008Z</time></trkpt><trkpt lat="43.947386" lon="11.90831"><ele>259.4</ele><time>2026-04-04T11:42:38.007Z</time></trkpt><trkpt lat="43.947335" lon="11.9084375"><ele>257.0</ele><time>2026-04-04T11:42:39.006Z</time></trkpt><trkpt lat="43.9472777" lon="11.9085613"><ele>256.2</ele><time>2026-04-04T11:42:40.005Z</time></trkpt><trkpt lat="43.9472168" lon="11.9086872"><ele>255.39999999999998</ele><time>2026-04-04T11:42:41.008Z</time></trkpt><trkpt lat="43.9471647" lon="11.9088117"><ele>254.60000000000002</ele><time>2026-04-04T11:42:42.004Z</time></trkpt><trkpt lat="43.9471033" lon="11.9089309"><ele>253.8</ele><time>2026-04-04T11:42:43.006Z</time></trkpt><trkpt lat="43.9470362" lon="11.9090455"><ele>253.0</ele><time>2026-04-04T11:42:44.007Z</time></trkpt><trkpt lat="43.9469734" lon="11.9091648"><ele>253.33333333333331</ele><time>2026-04-04T11:42:45.007Z</time></trkpt><trkpt lat="43.9469179" lon="11.9092804"><ele>253.66666666666666</ele><time>2026-04-04T11:42:46.007Z</time></trkpt><trkpt lat="43.9468659" lon="11.9093836"><ele>254.0</ele><time>2026-04-04T11:42:47.006Z</time></trkpt><trkpt lat="43.9468162" lon="11.9094745"><ele>254.33333333333331</ele><time>2026-04-04T11:42:48.007Z</time></trkpt><trkpt lat="43.9467732" lon="11.9095547"><ele>254.66666666666666</ele><time>2026-04-04T11:42:49.007Z</time></trkpt><trkpt lat="43.9467374" lon="11.9096281"><ele>255.0</ele><time>2026-04-04T11:42:50.009Z</time></trkpt><trkpt lat="43.946726" lon="11.9097939"><ele>255.0</ele><time>2026-04-04T11:42:52.005Z</time></trkpt><trkpt lat="43.9467323" lon="11.9098847"><ele>255.0</ele><time>2026-04-04T11:42:53.007Z</time></trkpt><trkpt lat="43.946734" lon="11.9099861"><ele>255.0</ele><time>2026-04-04T11:42:54.007Z</time></trkpt><trkpt lat="43.9467178" lon="11.9100939"><ele>255.0</ele><time>2026-04-04T11:42:55.006Z</time></trkpt><trkpt lat="43.9466919" lon="11.9102146"><ele>255.0</ele><time>2026-04-04T11:42:56.005Z</time></trkpt><trkpt lat="43.9466548" lon="11.9103536"><ele>255.0</ele><time>2026-04-04T11:42:57.009Z</time></trkpt><trkpt lat="43.9466097" lon="11.9105096"><ele>257.75</ele><time>2026-04-04T11:42:58.006Z</time></trkpt><trkpt lat="43.9465507" lon="11.9106695"><ele>260.5</ele><time>2026-04-04T11:42:59.006Z</time></trkpt><trkpt lat="43.9464894" lon="11.910819"><ele>263.25</ele><time>2026-04-04T11:43:00.007Z</time></trkpt><trkpt lat="43.9464241" lon="11.9109568"><ele>266.0</ele><time>2026-04-04T11:43:01.005Z</time></trkpt><trkpt lat="43.9463416" lon="11.9110808"><ele>266.0</ele><time>2026-04-04T11:43:02.008Z</time></trkpt><trkpt lat="43.9462511" lon="11.911202"><ele>266.0</ele><time>2026-04-04T11:43:03.007Z</time></trkpt><trkpt lat="43.9461614" lon="11.9113278"><ele>266.0</ele><time>2026-04-04T11:43:04.006Z</time></trkpt><trkpt lat="43.9460698" lon="11.9114475"><ele>266.0</ele><time>2026-04-04T11:43:05.007Z</time></trkpt><trkpt lat="43.9459776" lon="11.9115476"><ele>266.0</ele><time>2026-04-04T11:43:06.007Z</time></trkpt><trkpt lat="43.9458917" lon="11.9116227"><ele>266.0</ele><time>2026-04-04T11:43:07.007Z</time></trkpt><trkpt lat="43.945816" lon="11.9116683"><ele>266.0</ele><time>2026-04-04T11:43:08.005Z</time></trkpt><trkpt lat="43.9457364" lon="11.9116894"><ele>266.0</ele><time>2026-04-04T11:43:09.01Z</time></trkpt><trkpt lat="43.9456528" lon="11.9116994"><ele>266.0</ele><time>2026-04-04T11:43:10.006Z</time></trkpt><trkpt lat="43.9455596" lon="11.9116847"><ele>266.0</ele><time>2026-04-04T11:43:11.006Z</time></trkpt><trkpt lat="43.9454557" lon="11.9116918"><ele>266.40000000000003</ele><time>2026-04-04T11:43:12.006Z</time></trkpt><trkpt lat="43.9453437" lon="11.9116977"><ele>266.8</ele><time>2026-04-04T11:43:13.007Z</time></trkpt><trkpt lat="43.945236" lon="11.9117069"><ele>267.20000000000005</ele><time>2026-04-04T11:43:14.004Z</time></trkpt><trkpt lat="43.9451417" lon="11.911722"><ele>267.6</ele><time>2026-04-04T11:43:15.006Z</time></trkpt><trkpt lat="43.9450629" lon="11.9117599"><ele>268.0</ele><time>2026-04-04T11:43:16.005Z</time></trkpt><trkpt lat="43.9449922" lon="11.9118236"><ele>269.5</ele><time>2026-04-04T11:43:17.009Z</time></trkpt><trkpt lat="43.9449272" lon="11.9119334"><ele>271.0</ele><time>2026-04-04T11:43:18.006Z</time></trkpt><trkpt lat="43.9448595" lon="11.9120741"><ele>272.5</ele><time>2026-04-04T11:43:19.006Z</time></trkpt><trkpt lat="43.9447857" lon="11.9122122"><ele>274.0</ele><time>2026-04-04T11:43:20.006Z</time></trkpt><trkpt lat="43.9447094" lon="11.9123544"><ele>274.0</ele><time>2026-04-04T11:43:21.006Z</time></trkpt><trkpt lat="43.9446271" lon="11.9124839"><ele>274.0</ele><time>2026-04-04T11:43:22.006Z</time></trkpt><trkpt lat="43.9445274" lon="11.9125856"><ele>274.0</ele><time>2026-04-04T11:43:23.009Z</time></trkpt><trkpt lat="43.9444061" lon="11.9126572"><ele>274.0</ele><time>2026-04-04T11:43:24.006Z</time></trkpt><trkpt lat="43.9442592" lon="11.9126941"><ele>273.0</ele><time>2026-04-04T11:43:25.005Z</time></trkpt><trkpt lat="43.9440962" lon="11.9127259"><ele>272.0</ele><time>2026-04-04T11:43:26.005Z</time></trkpt><trkpt lat="43.9439335" lon="11.9127682"><ele>271.0</ele><time>2026-04-04T11:43:27.008Z</time></trkpt><trkpt lat="43.9437859" lon="11.9128212"><ele>271.0</ele><time>2026-04-04T11:43:28.004Z</time></trkpt><trkpt lat="43.9436602" lon="11.9128848"><ele>271.0</ele><time>2026-04-04T11:43:29.006Z</time></trkpt><trkpt lat="43.9435564" lon="11.9129518"><ele>271.0</ele><time>2026-04-04T11:43:30.005Z</time></trkpt><trkpt lat="43.9434706" lon="11.9130253"><ele>271.0</ele><time>2026-04-04T11:43:31.008Z</time></trkpt><trkpt lat="43.9434014" lon="11.9130996"><ele>271.0</ele><time>2026-04-04T11:43:32.005Z</time></trkpt><trkpt lat="43.9433375" lon="11.9131643"><ele>272.0</ele><time>2026-04-04T11:43:33.009Z</time></trkpt><trkpt lat="43.9432731" lon="11.9132342"><ele>273.0</ele><time>2026-04-04T11:43:34.007Z</time></trkpt><trkpt lat="43.9432066" lon="11.9133096"><ele>274.0</ele><time>2026-04-04T11:43:35.006Z</time></trkpt><trkpt lat="43.9431419" lon="11.9133974"><ele>275.0</ele><time>2026-04-04T11:43:36.005Z</time></trkpt><trkpt lat="43.9430845" lon="11.9135107"><ele>276.0</ele><time>2026-04-04T11:43:37.008Z</time></trkpt><trkpt lat="43.943042" lon="11.9136556"><ele>276.0</ele><time>2026-04-04T11:43:38.007Z</time></trkpt><trkpt lat="43.9430013" lon="11.9138315"><ele>276.0</ele><time>2026-04-04T11:43:39.007Z</time></trkpt><trkpt lat="43.9429611" lon="11.9140382"><ele>276.0</ele><time>2026-04-04T11:43:40.006Z</time></trkpt><trkpt lat="43.9429196" lon="11.9142631"><ele>279.0</ele><time>2026-04-04T11:43:41.007Z</time></trkpt><trkpt lat="43.942858" lon="11.9144802"><ele>282.0</ele><time>2026-04-04T11:43:42.005Z</time></trkpt><trkpt lat="43.9427881" lon="11.9146778"><ele>285.0</ele><time>2026-04-04T11:43:43.006Z</time></trkpt><trkpt lat="43.9427191" lon="11.9148628"><ele>285.0</ele><time>2026-04-04T11:43:44.006Z</time></trkpt><trkpt lat="43.9426407" lon="11.9150446"><ele>285.0</ele><time>2026-04-04T11:43:45.008Z</time></trkpt><trkpt lat="43.9425523" lon="11.9152414"><ele>285.0</ele><time>2026-04-04T11:43:46.006Z</time></trkpt><trkpt lat="43.9424436" lon="11.9154555"><ele>284.6666666666667</ele><time>2026-04-04T11:43:47.006Z</time></trkpt><trkpt lat="43.9423111" lon="11.9156834"><ele>284.33333333333337</ele><time>2026-04-04T11:43:48.007Z</time></trkpt><trkpt lat="43.9421871" lon="11.915928"><ele>284.0</ele><time>2026-04-04T11:43:49.006Z</time></trkpt><trkpt lat="43.9420764" lon="11.9161728"><ele>287.0</ele><time>2026-04-04T11:43:50.005Z</time></trkpt><trkpt lat="43.9419842" lon="11.9164052"><ele>290.0</ele><time>2026-04-04T11:43:51.006Z</time></trkpt><trkpt lat="43.9419085" lon="11.9166246"><ele>293.0</ele><time>2026-04-04T11:43:52.005Z</time></trkpt><trkpt lat="43.9418372" lon="11.9168299"><ele>291.6666666666667</ele><time>2026-04-04T11:43:53.009Z</time></trkpt><trkpt lat="43.9417738" lon="11.917039"><ele>290.3333333333333</ele><time>2026-04-04T11:43:54.004Z</time></trkpt><trkpt lat="43.9417189" lon="11.9172619"><ele>289.0</ele><time>2026-04-04T11:43:55.004Z</time></trkpt><trkpt lat="43.9416432" lon="11.9174835"><ele>289.3333333333333</ele><time>2026-04-04T11:43:56.006Z</time></trkpt><trkpt lat="43.941575" lon="11.9177081"><ele>289.6666666666667</ele><time>2026-04-04T11:43:57.007Z</time></trkpt><trkpt lat="43.9415192" lon="11.9179395"><ele>290.0</ele><time>2026-04-04T11:43:58.005Z</time></trkpt><trkpt lat="43.9414552" lon="11.9181708"><ele>289.6666666666667</ele><time>2026-04-04T11:43:59.009Z</time></trkpt><trkpt lat="43.9413853" lon="11.9184026"><ele>289.3333333333333</ele><time>2026-04-04T11:44:00.007Z</time></trkpt><trkpt lat="43.9413177" lon="11.9186333"><ele>289.0</ele><time>2026-04-04T11:44:01.006Z</time></trkpt><trkpt lat="43.9412573" lon="11.9188575"><ele>289.0</ele><time>2026-04-04T11:44:02.006Z</time></trkpt><trkpt lat="43.9411994" lon="11.9190681"><ele>289.0</ele><time>2026-04-04T11:44:03.007Z</time></trkpt><trkpt lat="43.9411522" lon="11.9192637"><ele>289.0</ele><time>2026-04-04T11:44:04.009Z</time></trkpt><trkpt lat="43.9411162" lon="11.9194473"><ele>289.0</ele><time>2026-04-04T11:44:05.007Z</time></trkpt><trkpt lat="43.9410925" lon="11.9196219"><ele>289.2</ele><time>2026-04-04T11:44:06.005Z</time></trkpt><trkpt lat="43.9410828" lon="11.9197852"><ele>289.4</ele><time>2026-04-04T11:44:07.007Z</time></trkpt><trkpt lat="43.941085" lon="11.9199369"><ele>289.6</ele><time>2026-04-04T11:44:08.006Z</time></trkpt><trkpt lat="43.9411203" lon="11.9200709"><ele>289.8</ele><time>2026-04-04T11:44:09.008Z</time></trkpt><trkpt lat="43.9411804" lon="11.9201775"><ele>290.0</ele><time>2026-04-04T11:44:10.006Z</time></trkpt><trkpt lat="43.9412639" lon="11.9202466"><ele>292.5</ele><time>2026-04-04T11:44:11.005Z</time></trkpt><trkpt lat="43.9413667" lon="11.9202708"><ele>295.0</ele><time>2026-04-04T11:44:12.007Z</time></trkpt><trkpt lat="43.9414865" lon="11.9202503"><ele>297.5</ele><time>2026-04-04T11:44:13.006Z</time></trkpt><trkpt lat="43.9416154" lon="11.9201979"><ele>300.0</ele><time>2026-04-04T11:44:14.008Z</time></trkpt><trkpt lat="43.9417454" lon="11.9201253"><ele>300.25</ele><time>2026-04-04T11:44:15.006Z</time></trkpt><trkpt lat="43.941872" lon="11.9200857"><ele>300.5</ele><time>2026-04-04T11:44:16.006Z</time></trkpt><trkpt lat="43.9420003" lon="11.92009"><ele>300.75</ele><time>2026-04-04T11:44:17.007Z</time></trkpt><trkpt lat="43.9421193" lon="11.9201302"><ele>301.0</ele><time>2026-04-04T11:44:18.005Z</time></trkpt><trkpt lat="43.9422221" lon="11.9202232"><ele>301.0</ele><time>2026-04-04T11:44:19.006Z</time></trkpt><trkpt lat="43.9423049" lon="11.9203441"><ele>301.0</ele><time>2026-04-04T11:44:20.006Z</time></trkpt><trkpt lat="43.9423579" lon="11.9205046"><ele>301.0</ele><time>2026-04-04T11:44:21.006Z</time></trkpt><trkpt lat="43.9423867" lon="11.9206973"><ele>301.0</ele><time>2026-04-04T11:44:22.007Z</time></trkpt><trkpt lat="43.9424123" lon="11.9209045"><ele>300.66666666666663</ele><time>2026-04-04T11:44:23.007Z</time></trkpt><trkpt lat="43.9424373" lon="11.9211313"><ele>300.3333333333333</ele><time>2026-04-04T11:44:24.008Z</time></trkpt><trkpt lat="43.9424797" lon="11.9213728"><ele>300.0</ele><time>2026-04-04T11:44:25.006Z</time></trkpt><trkpt lat="43.9425349" lon="11.9216181"><ele>308.3333333333333</ele><time>2026-04-04T11:44:26.006Z</time></trkpt><trkpt lat="43.9426067" lon="11.921883"><ele>316.66666666666663</ele><time>2026-04-04T11:44:27.006Z</time></trkpt><trkpt lat="43.9426887" lon="11.9221559"><ele>325.0</ele><time>2026-04-04T11:44:28.007Z</time></trkpt><trkpt lat="43.9427766" lon="11.9224352"><ele>328.3333333333333</ele><time>2026-04-04T11:44:29.007Z</time></trkpt><trkpt lat="43.9428584" lon="11.9227217"><ele>331.6666666666667</ele><time>2026-04-04T11:44:30.006Z</time></trkpt><trkpt lat="43.9429266" lon="11.9230009"><ele>335.0</ele><time>2026-04-04T11:44:31.008Z</time></trkpt><trkpt lat="43.9429821" lon="11.9232582"><ele>337.6666666666667</ele><time>2026-04-04T11:44:32.005Z</time></trkpt><trkpt lat="43.9429911" lon="11.9235149"><ele>340.3333333333333</ele><time>2026-04-04T11:44:33.01Z</time></trkpt><trkpt lat="43.9429634" lon="11.9237714"><ele>343.0</ele><time>2026-04-04T11:44:34.006Z</time></trkpt><trkpt lat="43.942906" lon="11.9240274"><ele>344.0</ele><time>2026-04-04T11:44:35.006Z</time></trkpt><trkpt lat="43.9428341" lon="11.9242857"><ele>345.0</ele><time>2026-04-04T11:44:36.008Z</time></trkpt><trkpt lat="43.9427763" lon="11.9245552"><ele>346.0</ele><time>2026-04-04T11:44:37.005Z</time></trkpt><trkpt lat="43.9427485" lon="11.9248347"><ele>346.3333333333333</ele><time>2026-04-04T11:44:38.008Z</time></trkpt><trkpt lat="43.9427464" lon="11.9251086"><ele>346.6666666666667</ele><time>2026-04-04T11:44:39.005Z</time></trkpt><trkpt lat="43.9427548" lon="11.9253687"><ele>347.0</ele><time>2026-04-04T11:44:40.006Z</time></trkpt><trkpt lat="43.9427565" lon="11.9256053"><ele>347.0</ele><time>2026-04-04T11:44:41.008Z</time></trkpt><trkpt lat="43.9427428" lon="11.9258124"><ele>347.0</ele><time>2026-04-04T11:44:42.006Z</time></trkpt><trkpt lat="43.9427029" lon="11.9259882"><ele>347.0</ele><time>2026-04-04T11:44:43.006Z</time></trkpt><trkpt lat="43.9426368" lon="11.9261279"><ele>347.0</ele><time>2026-04-04T11:44:44.007Z</time></trkpt><trkpt lat="43.9425457" lon="11.9262282"><ele>343.5</ele><time>2026-04-04T11:44:45.007Z</time></trkpt><trkpt lat="43.9424308" lon="11.9262981"><ele>340.0</ele><time>2026-04-04T11:44:46.006Z</time></trkpt><trkpt lat="43.9423017" lon="11.9263463"><ele>336.5</ele><time>2026-04-04T11:44:47.007Z</time></trkpt><trkpt lat="43.9421521" lon="11.926396"><ele>333.0</ele><time>2026-04-04T11:44:48.007Z</time></trkpt><trkpt lat="43.9419887" lon="11.9264479"><ele>333.0</ele><time>2026-04-04T11:44:49.007Z</time></trkpt><trkpt lat="43.9418258" lon="11.9265033"><ele>333.0</ele><time>2026-04-04T11:44:50.006Z</time></trkpt><trkpt lat="43.9416772" lon="11.9265833"><ele>333.0</ele><time>2026-04-04T11:44:51.005Z</time></trkpt><trkpt lat="43.9415544" lon="11.9267057"><ele>331.5</ele><time>2026-04-04T11:44:52.006Z</time></trkpt><trkpt lat="43.9414558" lon="11.9268487"><ele>330.0</ele><time>2026-04-04T11:44:53.007Z</time></trkpt><trkpt lat="43.9413865" lon="11.927017"><ele>328.5</ele><time>2026-04-04T11:44:54.006Z</time></trkpt><trkpt lat="43.9413446" lon="11.9272065"><ele>327.0</ele><time>2026-04-04T11:44:55.008Z</time></trkpt><trkpt lat="43.9413322" lon="11.9274123"><ele>329.0</ele><time>2026-04-04T11:44:56.006Z</time></trkpt><trkpt lat="43.9413476" lon="11.9276309"><ele>331.0</ele><time>2026-04-04T11:44:57.01Z</time></trkpt><trkpt lat="43.9413859" lon="11.9278536"><ele>333.0</ele><time>2026-04-04T11:44:58.007Z</time></trkpt><trkpt lat="43.9414355" lon="11.9280703"><ele>333.0</ele><time>2026-04-04T11:44:59.006Z</time></trkpt><trkpt lat="43.9414884" lon="11.9282636"><ele>333.0</ele><time>2026-04-04T11:45:00.006Z</time></trkpt><trkpt lat="43.9415325" lon="11.9284332"><ele>333.0</ele><time>2026-04-04T11:45:01.006Z</time></trkpt><trkpt lat="43.9415672" lon="11.9285834"><ele>333.0</ele><time>2026-04-04T11:45:02.007Z</time></trkpt><trkpt lat="43.9415888" lon="11.9287152"><ele>333.4</ele><time>2026-04-04T11:45:03.007Z</time></trkpt><trkpt lat="43.9415952" lon="11.9288366"><ele>333.79999999999995</ele><time>2026-04-04T11:45:04.005Z</time></trkpt><trkpt lat="43.9415747" lon="11.9289455"><ele>334.2</ele><time>2026-04-04T11:45:05.007Z</time></trkpt><trkpt lat="43.9415396" lon="11.9290217"><ele>334.6</ele><time>2026-04-04T11:45:06.006Z</time></trkpt><trkpt lat="43.9414012" lon="11.9289955"><ele>335.0</ele><time>2026-04-04T11:45:08.008Z</time></trkpt><trkpt lat="43.941334" lon="11.9288655"><ele>335.0</ele><time>2026-04-04T11:45:09.008Z</time></trkpt><trkpt lat="43.9412811" lon="11.9286907"><ele>335.0</ele><time>2026-04-04T11:45:10.005Z</time></trkpt><trkpt lat="43.9412441" lon="11.928482"><ele>335.0</ele><time>2026-04-04T11:45:11.006Z</time></trkpt><trkpt lat="43.9411857" lon="11.9282539"><ele>334.33333333333337</ele><time>2026-04-04T11:45:12.007Z</time></trkpt><trkpt lat="43.9411256" lon="11.9280007"><ele>333.6666666666667</ele><time>2026-04-04T11:45:13.006Z</time></trkpt><trkpt lat="43.94106" lon="11.9277349"><ele>333.0</ele><time>2026-04-04T11:45:14.006Z</time></trkpt><trkpt lat="43.9409928" lon="11.9274677"><ele>331.0</ele><time>2026-04-04T11:45:15.008Z</time></trkpt><trkpt lat="43.9409328" lon="11.9272062"><ele>329.0</ele><time>2026-04-04T11:45:16.007Z</time></trkpt><trkpt lat="43.9408756" lon="11.9269651"><ele>327.0</ele><time>2026-04-04T11:45:17.007Z</time></trkpt><trkpt lat="43.9408391" lon="11.9267353"><ele>327.3333333333333</ele><time>2026-04-04T11:45:18.005Z</time></trkpt><trkpt lat="43.9408243" lon="11.9265138"><ele>327.66666666666663</ele><time>2026-04-04T11:45:19.006Z</time></trkpt><trkpt lat="43.9408463" lon="11.9262865"><ele>328.0</ele><time>2026-04-04T11:45:20.008Z</time></trkpt><trkpt lat="43.9409047" lon="11.926049"><ele>331.66666666666663</ele><time>2026-04-04T11:45:21.011Z</time></trkpt><trkpt lat="43.9409822" lon="11.9258115"><ele>335.3333333333333</ele><time>2026-04-04T11:45:22.009Z</time></trkpt><trkpt lat="43.9410621" lon="11.9255862"><ele>339.0</ele><time>2026-04-04T11:45:23.005Z</time></trkpt><trkpt lat="43.9411352" lon="11.9253853"><ele>339.0</ele><time>2026-04-04T11:45:24.006Z</time></trkpt><trkpt lat="43.9411957" lon="11.9252077"><ele>339.0</ele><time>2026-04-04T11:45:25.006Z</time></trkpt><trkpt lat="43.9412382" lon="11.9250487"><ele>339.0</ele><time>2026-04-04T11:45:26.007Z</time></trkpt><trkpt lat="43.9412371" lon="11.9249094"><ele>339.0</ele><time>2026-04-04T11:45:27.011Z</time></trkpt><trkpt lat="43.9412071" lon="11.924795"><ele>340.4</ele><time>2026-04-04T11:45:28.007Z</time></trkpt><trkpt lat="43.9411603" lon="11.9247075"><ele>341.79999999999995</ele><time>2026-04-04T11:45:29.007Z</time></trkpt><trkpt lat="43.9410775" lon="11.9247056"><ele>343.20000000000005</ele><time>2026-04-04T11:45:30.006Z</time></trkpt><trkpt lat="43.9409943" lon="11.9247666"><ele>344.6</ele><time>2026-04-04T11:45:31.007Z</time></trkpt><trkpt lat="43.9409181" lon="11.9248676"><ele>346.0</ele><time>2026-04-04T11:45:32.007Z</time></trkpt><trkpt lat="43.9408438" lon="11.9250329"><ele>352.0</ele><time>2026-04-04T11:45:33.007Z</time></trkpt><trkpt lat="43.9407675" lon="11.9252467"><ele>358.0</ele><time>2026-04-04T11:45:34.005Z</time></trkpt><trkpt lat="43.9406758" lon="11.9254741"><ele>364.0</ele><time>2026-04-04T11:45:35.006Z</time></trkpt><trkpt lat="43.9405642" lon="11.9257151"><ele>358.5</ele><time>2026-04-04T11:45:36.007Z</time></trkpt><trkpt lat="43.9404385" lon="11.9259684"><ele>353.0</ele><time>2026-04-04T11:45:37.007Z</time></trkpt><trkpt lat="43.9402936" lon="11.9262237"><ele>353.0</ele><time>2026-04-04T11:45:38.007Z</time></trkpt><trkpt lat="43.9401287" lon="11.9264781"><ele>353.0</ele><time>2026-04-04T11:45:39.007Z</time></trkpt><trkpt lat="43.9399532" lon="11.9267208"><ele>362.0</ele><time>2026-04-04T11:45:40.01Z</time></trkpt><trkpt lat="43.9397896" lon="11.9269479"><ele>371.0</ele><time>2026-04-04T11:45:41.006Z</time></trkpt><trkpt lat="43.9396301" lon="11.9271432"><ele>380.0</ele><time>2026-04-04T11:45:42.007Z</time></trkpt><trkpt lat="43.9394876" lon="11.9273094"><ele>380.0</ele><time>2026-04-04T11:45:43.006Z</time></trkpt><trkpt lat="43.9393622" lon="11.9274473"><ele>380.0</ele><time>2026-04-04T11:45:44.006Z</time></trkpt><trkpt lat="43.9392406" lon="11.9275324"><ele>380.0</ele><time>2026-04-04T11:45:45.009Z</time></trkpt><trkpt lat="43.9391064" lon="11.9275447"><ele>380.0</ele><time>2026-04-04T11:45:46.006Z</time></trkpt><trkpt lat="43.9389571" lon="11.9275064"><ele>381.0</ele><time>2026-04-04T11:45:47.007Z</time></trkpt><trkpt lat="43.9387889" lon="11.9274433"><ele>382.0</ele><time>2026-04-04T11:45:48.012Z</time></trkpt><trkpt lat="43.9385998" lon="11.9273686"><ele>383.0</ele><time>2026-04-04T11:45:49.006Z</time></trkpt><trkpt lat="43.938409" lon="11.9272842"><ele>386.0</ele><time>2026-04-04T11:45:50.009Z</time></trkpt><trkpt lat="43.9382334" lon="11.9271964"><ele>389.0</ele><time>2026-04-04T11:45:51.006Z</time></trkpt><trkpt lat="43.9380846" lon="11.9271195"><ele>392.0</ele><time>2026-04-04T11:45:52.008Z</time></trkpt><trkpt lat="43.9379572" lon="11.9270777"><ele>392.0</ele><time>2026-04-04T11:45:53.006Z</time></trkpt><trkpt lat="43.937827" lon="11.927116"><ele>392.0</ele><time>2026-04-04T11:45:54.005Z</time></trkpt><trkpt lat="43.9376922" lon="11.9271925"><ele>392.0</ele><time>2026-04-04T11:45:55.009Z</time></trkpt><trkpt lat="43.9375498" lon="11.9272924"><ele>392.0</ele><time>2026-04-04T11:45:56.006Z</time></trkpt><trkpt lat="43.9373906" lon="11.927383"><ele>396.0</ele><time>2026-04-04T11:45:57.009Z</time></trkpt><trkpt lat="43.9372148" lon="11.9274365"><ele>400.0</ele><time>2026-04-04T11:45:58.006Z</time></trkpt><trkpt lat="43.937025" lon="11.9274615"><ele>404.0</ele><time>2026-04-04T11:45:59.009Z</time></trkpt><trkpt lat="43.9368285" lon="11.9274813"><ele>405.66666666666663</ele><time>2026-04-04T11:46:00.007Z</time></trkpt><trkpt lat="43.9366272" lon="11.9275032"><ele>407.33333333333337</ele><time>2026-04-04T11:46:01.008Z</time></trkpt><trkpt lat="43.9364218" lon="11.9275338"><ele>409.0</ele><time>2026-04-04T11:46:02.007Z</time></trkpt><trkpt lat="43.936217" lon="11.9275853"><ele>409.0</ele><time>2026-04-04T11:46:03.007Z</time></trkpt><trkpt lat="43.9360099" lon="11.9276154"><ele>409.0</ele><time>2026-04-04T11:46:04.006Z</time></trkpt><trkpt lat="43.9358117" lon="11.9276152"><ele>409.0</ele><time>2026-04-04T11:46:05.005Z</time></trkpt><trkpt lat="43.935635" lon="11.9276005"><ele>411.25</ele><time>2026-04-04T11:46:06.006Z</time></trkpt><trkpt lat="43.9354872" lon="11.927591"><ele>413.5</ele><time>2026-04-04T11:46:07.011Z</time></trkpt><trkpt lat="43.9353629" lon="11.9276"><ele>415.75</ele><time>2026-04-04T11:46:08.007Z</time></trkpt><trkpt lat="43.9352677" lon="11.9276565"><ele>418.0</ele><time>2026-04-04T11:46:09.008Z</time></trkpt><trkpt lat="43.9352007" lon="11.9277599"><ele>418.0</ele><time>2026-04-04T11:46:10.007Z</time></trkpt><trkpt lat="43.9351518" lon="11.9278984"><ele>418.0</ele><time>2026-04-04T11:46:11.007Z</time></trkpt><trkpt lat="43.9351215" lon="11.9280802"><ele>418.0</ele><time>2026-04-04T11:46:12.007Z</time></trkpt><trkpt lat="43.9350974" lon="11.9282879"><ele>418.0</ele><time>2026-04-04T11:46:13.006Z</time></trkpt><trkpt lat="43.935049" lon="11.9284993"><ele>419.33333333333337</ele><time>2026-04-04T11:46:14.007Z</time></trkpt><trkpt lat="43.9349669" lon="11.9287034"><ele>420.66666666666663</ele><time>2026-04-04T11:46:15.009Z</time></trkpt><trkpt lat="43.9348511" lon="11.9288906"><ele>422.0</ele><time>2026-04-04T11:46:16.007Z</time></trkpt><trkpt lat="43.9347167" lon="11.9290555"><ele>422.0</ele><time>2026-04-04T11:46:17.005Z</time></trkpt><trkpt lat="43.9345773" lon="11.9291788"><ele>422.0</ele><time>2026-04-04T11:46:18.006Z</time></trkpt><trkpt lat="43.9344201" lon="11.9292634"><ele>422.0</ele><time>2026-04-04T11:46:19.008Z</time></trkpt><trkpt lat="43.9342578" lon="11.9293061"><ele>424.75</ele><time>2026-04-04T11:46:20.006Z</time></trkpt><trkpt lat="43.9341089" lon="11.9293208"><ele>427.5</ele><time>2026-04-04T11:46:21.008Z</time></trkpt><trkpt lat="43.9339859" lon="11.9293392"><ele>430.25</ele><time>2026-04-04T11:46:22.006Z</time></trkpt><trkpt lat="43.933892" lon="11.9293855"><ele>433.0</ele><time>2026-04-04T11:46:23.006Z</time></trkpt><trkpt lat="43.9338233" lon="11.9294732"><ele>433.0</ele><time>2026-04-04T11:46:24.007Z</time></trkpt><trkpt lat="43.9337596" lon="11.9295949"><ele>433.0</ele><time>2026-04-04T11:46:25.007Z</time></trkpt><trkpt lat="43.9336751" lon="11.9297399"><ele>433.0</ele><time>2026-04-04T11:46:26.01Z</time></trkpt><trkpt lat="43.9335712" lon="11.9299084"><ele>433.0</ele><time>2026-04-04T11:46:27.006Z</time></trkpt><trkpt lat="43.9334681" lon="11.9300865"><ele>435.6666666666667</ele><time>2026-04-04T11:46:28.007Z</time></trkpt><trkpt lat="43.9333718" lon="11.9302607"><ele>438.33333333333337</ele><time>2026-04-04T11:46:29.007Z</time></trkpt><trkpt lat="43.9332896" lon="11.930434"><ele>441.0</ele><time>2026-04-04T11:46:30.006Z</time></trkpt><trkpt lat="43.9332288" lon="11.9306138"><ele>441.0</ele><time>2026-04-04T11:46:31.007Z</time></trkpt><trkpt lat="43.9331891" lon="11.9307969"><ele>441.0</ele><time>2026-04-04T11:46:32.007Z</time></trkpt><trkpt lat="43.9331658" lon="11.9309937"><ele>441.0</ele><time>2026-04-04T11:46:33.007Z</time></trkpt><trkpt lat="43.9331476" lon="11.9311947"><ele>441.0</ele><time>2026-04-04T11:46:34.011Z</time></trkpt><trkpt lat="43.9331248" lon="11.9313852"><ele>438.75</ele><time>2026-04-04T11:46:35.007Z</time></trkpt><trkpt lat="43.9330866" lon="11.9315625"><ele>436.5</ele><time>2026-04-04T11:46:36.008Z</time></trkpt><trkpt lat="43.9330305" lon="11.9317384"><ele>434.25</ele><time>2026-04-04T11:46:37.006Z</time></trkpt><trkpt lat="43.9329702" lon="11.9319302"><ele>432.0</ele><time>2026-04-04T11:46:38.007Z</time></trkpt><trkpt lat="43.9329146" lon="11.9321481"><ele>428.66666666666663</ele><time>2026-04-04T11:46:39.009Z</time></trkpt><trkpt lat="43.9328701" lon="11.9323962"><ele>425.3333333333333</ele><time>2026-04-04T11:46:40.008Z</time></trkpt><trkpt lat="43.9328367" lon="11.9326624"><ele>422.0</ele><time>2026-04-04T11:46:41.006Z</time></trkpt><trkpt lat="43.9327893" lon="11.93292"><ele>421.66666666666663</ele><time>2026-04-04T11:46:42.011Z</time></trkpt><trkpt lat="43.9327358" lon="11.9331589"><ele>421.33333333333337</ele><time>2026-04-04T11:46:43.006Z</time></trkpt><trkpt lat="43.9326882" lon="11.9333757"><ele>421.0</ele><time>2026-04-04T11:46:44.008Z</time></trkpt><trkpt lat="43.932652" lon="11.9335667"><ele>421.75</ele><time>2026-04-04T11:46:45.007Z</time></trkpt><trkpt lat="43.9326448" lon="11.9337511"><ele>422.5</ele><time>2026-04-04T11:46:46.006Z</time></trkpt><trkpt lat="43.9326751" lon="11.9339354"><ele>423.25</ele><time>2026-04-04T11:46:47.006Z</time></trkpt><trkpt lat="43.9327454" lon="11.9341302"><ele>424.0</ele><time>2026-04-04T11:46:48.008Z</time></trkpt><trkpt lat="43.9328458" lon="11.9343284"><ele>425.33333333333337</ele><time>2026-04-04T11:46:49.006Z</time></trkpt><trkpt lat="43.9329618" lon="11.934533"><ele>426.66666666666663</ele><time>2026-04-04T11:46:50.011Z</time></trkpt><trkpt lat="43.9330809" lon="11.934748"><ele>428.0</ele><time>2026-04-04T11:46:51.007Z</time></trkpt><trkpt lat="43.9331923" lon="11.9349705"><ele>427.0</ele><time>2026-04-04T11:46:52.009Z</time></trkpt><trkpt lat="43.9332832" lon="11.9351911"><ele>426.0</ele><time>2026-04-04T11:46:53.007Z</time></trkpt><trkpt lat="43.9333525" lon="11.9354054"><ele>425.0</ele><time>2026-04-04T11:46:54.009Z</time></trkpt><trkpt lat="43.9333979" lon="11.9356241"><ele>425.0</ele><time>2026-04-04T11:46:55.008Z</time></trkpt><trkpt lat="43.9334185" lon="11.9358469"><ele>425.0</ele><time>2026-04-04T11:46:56.008Z</time></trkpt><trkpt lat="43.9334101" lon="11.9360747"><ele>425.0</ele><time>2026-04-04T11:46:57.008Z</time></trkpt><trkpt lat="43.9333766" lon="11.9362921"><ele>429.66666666666663</ele><time>2026-04-04T11:46:58.005Z</time></trkpt><trkpt lat="43.9333185" lon="11.9364943"><ele>434.33333333333337</ele><time>2026-04-04T11:46:59.008Z</time></trkpt><trkpt lat="43.9332311" lon="11.9366765"><ele>439.0</ele><time>2026-04-04T11:47:00.01Z</time></trkpt><trkpt lat="43.9331189" lon="11.9368467"><ele>439.33333333333337</ele><time>2026-04-04T11:47:01.007Z</time></trkpt><trkpt lat="43.9329908" lon="11.9370132"><ele>439.66666666666663</ele><time>2026-04-04T11:47:02.007Z</time></trkpt><trkpt lat="43.9328539" lon="11.9371832"><ele>440.0</ele><time>2026-04-04T11:47:03.009Z</time></trkpt><trkpt lat="43.9327114" lon="11.937364"><ele>440.0</ele><time>2026-04-04T11:47:04.008Z</time></trkpt><trkpt lat="43.9325621" lon="11.9375498"><ele>440.0</ele><time>2026-04-04T11:47:05.009Z</time></trkpt><trkpt lat="43.9324043" lon="11.937734"><ele>440.0</ele><time>2026-04-04T11:47:06.009Z</time></trkpt><trkpt lat="43.9322315" lon="11.9379121"><ele>444.66666666666663</ele><time>2026-04-04T11:47:07.009Z</time></trkpt><trkpt lat="43.9320518" lon="11.9380819"><ele>449.33333333333337</ele><time>2026-04-04T11:47:08.007Z</time></trkpt><trkpt lat="43.9318678" lon="11.9382346"><ele>454.0</ele><time>2026-04-04T11:47:09.007Z</time></trkpt><trkpt lat="43.9316992" lon="11.9383706"><ele>457.75</ele><time>2026-04-04T11:47:10.008Z</time></trkpt><trkpt lat="43.9315525" lon="11.9384841"><ele>461.5</ele><time>2026-04-04T11:47:11.007Z</time></trkpt><trkpt lat="43.9314341" lon="11.9385883"><ele>465.25</ele><time>2026-04-04T11:47:12.008Z</time></trkpt><trkpt lat="43.9313528" lon="11.9387113"><ele>469.0</ele><time>2026-04-04T11:47:13.009Z</time></trkpt><trkpt lat="43.9313127" lon="11.9388774"><ele>469.0</ele><time>2026-04-04T11:47:14.007Z</time></trkpt><trkpt lat="43.931302" lon="11.9390814"><ele>469.0</ele><time>2026-04-04T11:47:15.008Z</time></trkpt><trkpt lat="43.9313043" lon="11.9393146"><ele>469.0</ele><time>2026-04-04T11:47:16.008Z</time></trkpt><trkpt lat="43.9313074" lon="11.9395578"><ele>469.33333333333337</ele><time>2026-04-04T11:47:17.008Z</time></trkpt><trkpt lat="43.9313054" lon="11.9397906"><ele>469.66666666666663</ele><time>2026-04-04T11:47:18.008Z</time></trkpt><trkpt lat="43.931297" lon="11.9400002"><ele>470.0</ele><time>2026-04-04T11:47:19.007Z</time></trkpt><trkpt lat="43.9312801" lon="11.9401957"><ele>470.66666666666663</ele><time>2026-04-04T11:47:20.01Z</time></trkpt><trkpt lat="43.9312436" lon="11.9403951"><ele>471.33333333333337</ele><time>2026-04-04T11:47:21.01Z</time></trkpt><trkpt lat="43.9311679" lon="11.9405918"><ele>472.0</ele><time>2026-04-04T11:47:22.006Z</time></trkpt><trkpt lat="43.9310697" lon="11.9407868"><ele>473.0</ele><time>2026-04-04T11:47:23.007Z</time></trkpt><trkpt lat="43.9309455" lon="11.9409772"><ele>474.0</ele><time>2026-04-04T11:47:24.009Z</time></trkpt><trkpt lat="43.9307988" lon="11.9411723"><ele>475.0</ele><time>2026-04-04T11:47:25.008Z</time></trkpt><trkpt lat="43.9306372" lon="11.9413763"><ele>481.5</ele><time>2026-04-04T11:47:26.008Z</time></trkpt><trkpt lat="43.9304644" lon="11.9415872"><ele>488.0</ele><time>2026-04-04T11:47:27.008Z</time></trkpt><trkpt lat="43.9302845" lon="11.9418085"><ele>488.0</ele><time>2026-04-04T11:47:28.01Z</time></trkpt><trkpt lat="43.9300956" lon="11.9420371"><ele>488.0</ele><time>2026-04-04T11:47:29.007Z</time></trkpt><trkpt lat="43.9299052" lon="11.9422711"><ele>493.0</ele><time>2026-04-04T11:47:30.007Z</time></trkpt><trkpt lat="43.9297267" lon="11.9424963"><ele>498.0</ele><time>2026-04-04T11:47:31.007Z</time></trkpt><trkpt lat="43.929566" lon="11.9427064"><ele>498.0</ele><time>2026-04-04T11:47:32.008Z</time></trkpt><trkpt lat="43.9294109" lon="11.9429021"><ele>498.0</ele><time>2026-04-04T11:47:33.009Z</time></trkpt><trkpt lat="43.9292654" lon="11.9431052"><ele>498.0</ele><time>2026-04-04T11:47:34.01Z</time></trkpt><trkpt lat="43.9291339" lon="11.9433121"><ele>501.66666666666663</ele><time>2026-04-04T11:47:35.008Z</time></trkpt><trkpt lat="43.9290074" lon="11.9435002"><ele>505.3333333333333</ele><time>2026-04-04T11:47:36.007Z</time></trkpt><trkpt lat="43.9288726" lon="11.9436575"><ele>509.0</ele><time>2026-04-04T11:47:37.008Z</time></trkpt><trkpt lat="43.9287239" lon="11.9437934"><ele>509.0</ele><time>2026-04-04T11:47:38.007Z</time></trkpt><trkpt lat="43.9285568" lon="11.9439076"><ele>509.0</ele><time>2026-04-04T11:47:39.009Z</time></trkpt><trkpt lat="43.9283767" lon="11.9440051"><ele>509.0</ele><time>2026-04-04T11:47:40.008Z</time></trkpt><trkpt lat="43.9281838" lon="11.9440856"><ele>510.66666666666663</ele><time>2026-04-04T11:47:41.009Z</time></trkpt><trkpt lat="43.9279858" lon="11.9441663"><ele>512.3333333333334</ele><time>2026-04-04T11:47:42.007Z</time></trkpt><trkpt lat="43.9277881" lon="11.944261"><ele>514.0</ele><time>2026-04-04T11:47:43.01Z</time></trkpt><trkpt lat="43.9275905" lon="11.944375"><ele>516.6666666666667</ele><time>2026-04-04T11:47:44.007Z</time></trkpt><trkpt lat="43.9274007" lon="11.9445195"><ele>519.3333333333334</ele><time>2026-04-04T11:47:45.006Z</time></trkpt><trkpt lat="43.9272088" lon="11.9446593"><ele>522.0</ele><time>2026-04-04T11:47:46.01Z</time></trkpt><trkpt lat="43.9270178" lon="11.944805"><ele>522.0</ele><time>2026-04-04T11:47:47.006Z</time></trkpt><trkpt lat="43.9268283" lon="11.9449527"><ele>522.0</ele><time>2026-04-04T11:47:48.01Z</time></trkpt><trkpt lat="43.9266454" lon="11.945104"><ele>522.0</ele><time>2026-04-04T11:47:49.007Z</time></trkpt><trkpt lat="43.9264692" lon="11.9452491"><ele>526.3333333333334</ele><time>2026-04-04T11:47:50.007Z</time></trkpt><trkpt lat="43.9263059" lon="11.9453822"><ele>530.6666666666667</ele><time>2026-04-04T11:47:51.007Z</time></trkpt><trkpt lat="43.9261552" lon="11.9455022"><ele>535.0</ele><time>2026-04-04T11:47:52.012Z</time></trkpt><trkpt lat="43.9260043" lon="11.9456133"><ele>536.6666666666667</ele><time>2026-04-04T11:47:53.005Z</time></trkpt><trkpt lat="43.925857" lon="11.9457417"><ele>538.3333333333334</ele><time>2026-04-04T11:47:54.009Z</time></trkpt><trkpt lat="43.9257159" lon="11.945899"><ele>540.0</ele><time>2026-04-04T11:47:55.007Z</time></trkpt><trkpt lat="43.9255923" lon="11.9460924"><ele>540.0</ele><time>2026-04-04T11:47:56.007Z</time></trkpt><trkpt lat="43.9254808" lon="11.9462759"><ele>540.0</ele><time>2026-04-04T11:47:57.008Z</time></trkpt><trkpt lat="43.925372" lon="11.9464512"><ele>540.0</ele><time>2026-04-04T11:47:58.013Z</time></trkpt><trkpt lat="43.9252547" lon="11.9466201"><ele>543.3333333333334</ele><time>2026-04-04T11:47:59.008Z</time></trkpt><trkpt lat="43.925117" lon="11.9467795"><ele>546.6666666666667</ele><time>2026-04-04T11:48:00.007Z</time></trkpt><trkpt lat="43.9249507" lon="11.9469186"><ele>550.0</ele><time>2026-04-04T11:48:01.007Z</time></trkpt><trkpt lat="43.9247793" lon="11.9470422"><ele>550.0</ele><time>2026-04-04T11:48:02.006Z</time></trkpt><trkpt lat="43.9246169" lon="11.947164"><ele>550.0</ele><time>2026-04-04T11:48:03.01Z</time></trkpt><trkpt lat="43.924455" lon="11.9472939"><ele>550.0</ele><time>2026-04-04T11:48:04.007Z</time></trkpt><trkpt lat="43.9242886" lon="11.9474299"><ele>553.3333333333334</ele><time>2026-04-04T11:48:05.006Z</time></trkpt><trkpt lat="43.924118" lon="11.9475847"><ele>556.6666666666666</ele><time>2026-04-04T11:48:06.006Z</time></trkpt><trkpt lat="43.9239414" lon="11.9477655"><ele>560.0</ele><time>2026-04-04T11:48:07.009Z</time></trkpt><trkpt lat="43.9237609" lon="11.9479644"><ele>560.0</ele><time>2026-04-04T11:48:08.008Z</time></trkpt><trkpt lat="43.923573" lon="11.9481661"><ele>560.0</ele><time>2026-04-04T11:48:09.008Z</time></trkpt><trkpt lat="43.9233766" lon="11.9483617"><ele>565.0</ele><time>2026-04-04T11:48:10.006Z</time></trkpt><trkpt lat="43.9231795" lon="11.9485616"><ele>570.0</ele><time>2026-04-04T11:48:11.01Z</time></trkpt><trkpt lat="43.922995" lon="11.9487516"><ele>570.0</ele><time>2026-04-04T11:48:12.01Z</time></trkpt><trkpt lat="43.9228208" lon="11.9489211"><ele>570.0</ele><time>2026-04-04T11:48:13.008Z</time></trkpt><trkpt lat="43.922665" lon="11.9490775"><ele>570.0</ele><time>2026-04-04T11:48:14.009Z</time></trkpt><trkpt lat="43.9225455" lon="11.9492338"><ele>572.75</ele><time>2026-04-04T11:48:15.008Z</time></trkpt><trkpt lat="43.9224588" lon="11.949393"><ele>575.5</ele><time>2026-04-04T11:48:16.007Z</time></trkpt><trkpt lat="43.9223927" lon="11.9495579"><ele>578.25</ele><time>2026-04-04T11:48:17.006Z</time></trkpt><trkpt lat="43.9223545" lon="11.9497405"><ele>581.0</ele><time>2026-04-04T11:48:18.006Z</time></trkpt><trkpt lat="43.922345" lon="11.9499455"><ele>582.3333333333333</ele><time>2026-04-04T11:48:19.007Z</time></trkpt><trkpt lat="43.9223628" lon="11.9501719"><ele>583.6666666666666</ele><time>2026-04-04T11:48:20.006Z</time></trkpt><trkpt lat="43.9224148" lon="11.9504128"><ele>585.0</ele><time>2026-04-04T11:48:21.01Z</time></trkpt><trkpt lat="43.9224842" lon="11.9506714"><ele>585.6666666666666</ele><time>2026-04-04T11:48:22.008Z</time></trkpt><trkpt lat="43.9225636" lon="11.9509447"><ele>586.3333333333333</ele><time>2026-04-04T11:48:23.01Z</time></trkpt><trkpt lat="43.9226347" lon="11.9512074"><ele>587.0</ele><time>2026-04-04T11:48:24.006Z</time></trkpt><trkpt lat="43.9228286" lon="11.9514135"><ele>592.3333333333333</ele><time>2026-04-04T11:48:25.181Z</time></trkpt><trkpt lat="43.9227927" lon="11.9517233"><ele>597.6666666666666</ele><time>2026-04-04T11:48:26.862Z</time></trkpt><trkpt lat="43.9227719" lon="11.9520299"><ele>603.0</ele><time>2026-04-04T11:48:28.008Z</time></trkpt><trkpt lat="43.9227547" lon="11.9522733"><ele>603.0</ele><time>2026-04-04T11:48:29.006Z</time></trkpt><trkpt lat="43.922693" lon="11.9525014"><ele>603.0</ele><time>2026-04-04T11:48:30.007Z</time></trkpt><trkpt lat="43.9226521" lon="11.9526917"><ele>603.0</ele><time>2026-04-04T11:48:31.007Z</time></trkpt><trkpt lat="43.9226218" lon="11.9528508"><ele>603.0</ele><time>2026-04-04T11:48:32.007Z</time></trkpt><trkpt lat="43.9226056" lon="11.9529943"><ele>605.5</ele><time>2026-04-04T11:48:33.008Z</time></trkpt><trkpt lat="43.9226404" lon="11.9530974"><ele>608.0</ele><time>2026-04-04T11:48:34.007Z</time></trkpt><trkpt lat="43.9226869" lon="11.9531821"><ele>610.5</ele><time>2026-04-04T11:48:35.006Z</time></trkpt><trkpt lat="43.9227635" lon="11.9532027"><ele>613.0</ele><time>2026-04-04T11:48:36.013Z</time></trkpt><trkpt lat="43.9228538" lon="11.9531796"><ele>615.5</ele><time>2026-04-04T11:48:37.008Z</time></trkpt><trkpt lat="43.9229539" lon="11.9530872"><ele>618.0</ele><time>2026-04-04T11:48:38.006Z</time></trkpt><trkpt lat="43.9230561" lon="11.9529536"><ele>618.0</ele><time>2026-04-04T11:48:39.006Z</time></trkpt><trkpt lat="43.9231649" lon="11.9528349"><ele>618.0</ele><time>2026-04-04T11:48:40.009Z</time></trkpt><trkpt lat="43.9232727" lon="11.9527629"><ele>618.0</ele><time>2026-04-04T11:48:41.007Z</time></trkpt><trkpt lat="43.9233717" lon="11.9527366"><ele>618.0</ele><time>2026-04-04T11:48:42.009Z</time></trkpt><trkpt lat="43.9234569" lon="11.9527551"><ele>618.0</ele><time>2026-04-04T11:48:43.007Z</time></trkpt><trkpt lat="43.9235266" lon="11.9528078"><ele>620.1999999999999</ele><time>2026-04-04T11:48:44.006Z</time></trkpt><trkpt lat="43.9235744" lon="11.9528913"><ele>622.4</ele><time>2026-04-04T11:48:45.007Z</time></trkpt><trkpt lat="43.9236063" lon="11.9530013"><ele>624.5999999999999</ele><time>2026-04-04T11:48:46.007Z</time></trkpt><trkpt lat="43.9236193" lon="11.9531424"><ele>626.8</ele><time>2026-04-04T11:48:47.006Z</time></trkpt><trkpt lat="43.9235985" lon="11.95333"><ele>629.0</ele><time>2026-04-04T11:48:48.011Z</time></trkpt><trkpt lat="43.9235361" lon="11.9535707"><ele>628.6666666666666</ele><time>2026-04-04T11:48:49.007Z</time></trkpt><trkpt lat="43.923457" lon="11.9538452"><ele>628.3333333333334</ele><time>2026-04-04T11:48:50.006Z</time></trkpt><trkpt lat="43.9233921" lon="11.9540949"><ele>628.0</ele><time>2026-04-04T11:48:51.007Z</time></trkpt><trkpt lat="43.9233296" lon="11.9543095"><ele>634.0</ele><time>2026-04-04T11:48:52.007Z</time></trkpt><trkpt lat="43.92325" lon="11.9544895"><ele>640.0</ele><time>2026-04-04T11:48:53.007Z</time></trkpt><trkpt lat="43.9231305" lon="11.9546445"><ele>646.0</ele><time>2026-04-04T11:48:54.007Z</time></trkpt><trkpt lat="43.9229874" lon="11.9547821"><ele>646.0</ele><time>2026-04-04T11:48:55.01Z</time></trkpt><trkpt lat="43.9228464" lon="11.954915"><ele>646.0</ele><time>2026-04-04T11:48:56.006Z</time></trkpt><trkpt lat="43.9227184" lon="11.9550338"><ele>646.0</ele><time>2026-04-04T11:48:57.01Z</time></trkpt><trkpt lat="43.9226155" lon="11.9551499"><ele>646.1999999999999</ele><time>2026-04-04T11:48:58.006Z</time></trkpt><trkpt lat="43.9225413" lon="11.9552635"><ele>646.4</ele><time>2026-04-04T11:48:59.007Z</time></trkpt><trkpt lat="43.9225035" lon="11.955382"><ele>646.6</ele><time>2026-04-04T11:49:00.009Z</time></trkpt><trkpt lat="43.9224773" lon="11.9554899"><ele>646.8</ele><time>2026-04-04T11:49:01.006Z</time></trkpt><trkpt lat="43.9225029" lon="11.9556037"><ele>647.0</ele><time>2026-04-04T11:49:02.009Z</time></trkpt><trkpt lat="43.9225469" lon="11.9557073"><ele>651.25</ele><time>2026-04-04T11:49:03.008Z</time></trkpt><trkpt lat="43.9226096" lon="11.9557868"><ele>655.5</ele><time>2026-04-04T11:49:04.007Z</time></trkpt><trkpt lat="43.9226896" lon="11.955829"><ele>659.75</ele><time>2026-04-04T11:49:05.006Z</time></trkpt><trkpt lat="43.9228253" lon="11.9557688"><ele>664.0</ele><time>2026-04-04T11:49:06.006Z</time></trkpt><trkpt lat="43.9229705" lon="11.9556899"><ele>664.0</ele><time>2026-04-04T11:49:07.008Z</time></trkpt><trkpt lat="43.9231279" lon="11.9556228"><ele>664.0</ele><time>2026-04-04T11:49:08.006Z</time></trkpt><trkpt lat="43.9233005" lon="11.9555824"><ele>664.0</ele><time>2026-04-04T11:49:09.008Z</time></trkpt><trkpt lat="43.9234895" lon="11.9555522"><ele>670.0</ele><time>2026-04-04T11:49:10.008Z</time></trkpt><trkpt lat="43.9236906" lon="11.9555228"><ele>676.0</ele><time>2026-04-04T11:49:11.007Z</time></trkpt><trkpt lat="43.9238977" lon="11.955486"><ele>682.0</ele><time>2026-04-04T11:49:12.007Z</time></trkpt><trkpt lat="43.9241034" lon="11.9554304"><ele>687.0</ele><time>2026-04-04T11:49:13.006Z</time></trkpt><trkpt lat="43.9242951" lon="11.9553615"><ele>692.0</ele><time>2026-04-04T11:49:14.007Z</time></trkpt><trkpt lat="43.9244581" lon="11.9552537"><ele>697.0</ele><time>2026-04-04T11:49:15.009Z</time></trkpt><trkpt lat="43.9245955" lon="11.9551581"><ele>697.0</ele><time>2026-04-04T11:49:16.007Z</time></trkpt><trkpt lat="43.9247131" lon="11.9550716"><ele>697.0</ele><time>2026-04-04T11:49:17.009Z</time></trkpt><trkpt lat="43.9248169" lon="11.9550065"><ele>697.0</ele><time>2026-04-04T11:49:18.006Z</time></trkpt><trkpt lat="43.9249216" lon="11.9549872"><ele>697.0</ele><time>2026-04-04T11:49:19.008Z</time></trkpt><trkpt lat="43.9250283" lon="11.9550127"><ele>697.25</ele><time>2026-04-04T11:49:20.007Z</time></trkpt><trkpt lat="43.9251274" lon="11.9550701"><ele>697.5</ele><time>2026-04-04T11:49:21.007Z</time></trkpt><trkpt lat="43.9252192" lon="11.9551765"><ele>697.75</ele><time>2026-04-04T11:49:22.006Z</time></trkpt><trkpt lat="43.9253169" lon="11.9553249"><ele>698.0</ele><time>2026-04-04T11:49:23.007Z</time></trkpt><trkpt lat="43.9254272" lon="11.9554944"><ele>698.0</ele><time>2026-04-04T11:49:24.006Z</time></trkpt><trkpt lat="43.9255597" lon="11.9556521"><ele>698.0</ele><time>2026-04-04T11:49:25.006Z</time></trkpt><trkpt lat="43.9257035" lon="11.9557708"><ele>698.0</ele><time>2026-04-04T11:49:26.007Z</time></trkpt><trkpt lat="43.9258409" lon="11.9558599"><ele>705.2</ele><time>2026-04-04T11:49:27.008Z</time></trkpt><trkpt lat="43.9259626" lon="11.9559346"><ele>712.4</ele><time>2026-04-04T11:49:28.007Z</time></trkpt><trkpt lat="43.9260538" lon="11.9560179"><ele>719.6</ele><time>2026-04-04T11:49:29.006Z</time></trkpt><trkpt lat="43.9261061" lon="11.9561112"><ele>726.8000000000001</ele><time>2026-04-04T11:49:30.007Z</time></trkpt><trkpt lat="43.9261365" lon="11.9562018"><ele>734.0</ele><time>2026-04-04T11:49:31.006Z</time></trkpt><trkpt lat="43.9261162" lon="11.9562873"><ele>734.0</ele><time>2026-04-04T11:49:32.006Z</time></trkpt><trkpt lat="43.9260736" lon="11.9563588"><ele>734.0</ele><time>2026-04-04T11:49:33.007Z</time></trkpt><trkpt lat="43.9259889" lon="11.9563947"><ele>734.0</ele><time>2026-04-04T11:49:34.006Z</time></trkpt><trkpt lat="43.9258902" lon="11.9563992"><ele>734.0</ele><time>2026-04-04T11:49:35.005Z</time></trkpt><trkpt lat="43.9257678" lon="11.9563893"><ele>734.0</ele><time>2026-04-04T11:49:36.007Z</time></trkpt><trkpt lat="43.9256305" lon="11.9563894"><ele>730.5</ele><time>2026-04-04T11:49:37.006Z</time></trkpt><trkpt lat="43.9254974" lon="11.9564001"><ele>727.0</ele><time>2026-04-04T11:49:38.009Z</time></trkpt><trkpt lat="43.9253677" lon="11.9564449"><ele>723.5</ele><time>2026-04-04T11:49:39.007Z</time></trkpt><trkpt lat="43.9252554" lon="11.9565445"><ele>720.0</ele><time>2026-04-04T11:49:40.006Z</time></trkpt><trkpt lat="43.9251626" lon="11.956681"><ele>723.0</ele><time>2026-04-04T11:49:41.006Z</time></trkpt><trkpt lat="43.9250858" lon="11.9568596"><ele>726.0</ele><time>2026-04-04T11:49:42.006Z</time></trkpt><trkpt lat="43.9250159" lon="11.9570694"><ele>729.0</ele><time>2026-04-04T11:49:43.007Z</time></trkpt><trkpt lat="43.9249296" lon="11.9573045"><ele>733.3333333333334</ele><time>2026-04-04T11:49:44.008Z</time></trkpt><trkpt lat="43.9248421" lon="11.9575584"><ele>737.6666666666667</ele><time>2026-04-04T11:49:45.006Z</time></trkpt><trkpt lat="43.9247551" lon="11.9578058"><ele>742.0</ele><time>2026-04-04T11:49:46.009Z</time></trkpt><trkpt lat="43.924675" lon="11.9580287"><ele>742.0</ele><time>2026-04-04T11:49:47.006Z</time></trkpt><trkpt lat="43.9245955" lon="11.9582302"><ele>742.0</ele><time>2026-04-04T11:49:48.006Z</time></trkpt><trkpt lat="43.9245275" lon="11.9584149"><ele>742.0</ele><time>2026-04-04T11:49:49.007Z</time></trkpt><trkpt lat="43.9244675" lon="11.9585887"><ele>743.0</ele><time>2026-04-04T11:49:50.008Z</time></trkpt><trkpt lat="43.9244096" lon="11.9587474"><ele>744.0</ele><time>2026-04-04T11:49:51.005Z</time></trkpt><trkpt lat="43.9243548" lon="11.9588974"><ele>745.0</ele><time>2026-04-04T11:49:52.009Z</time></trkpt><trkpt lat="43.924301" lon="11.9590414"><ele>746.0</ele><time>2026-04-04T11:49:53.006Z</time></trkpt><trkpt lat="43.924246" lon="11.959187"><ele>742.0</ele><time>2026-04-04T11:49:54.006Z</time></trkpt><trkpt lat="43.924188" lon="11.9593343"><ele>738.0</ele><time>2026-04-04T11:49:55.005Z</time></trkpt><trkpt lat="43.9241209" lon="11.9594806"><ele>734.0</ele><time>2026-04-04T11:49:56.008Z</time></trkpt><trkpt lat="43.9240445" lon="11.9596218"><ele>730.0</ele><time>2026-04-04T11:49:57.006Z</time></trkpt><trkpt lat="43.9239571" lon="11.9597548"><ele>730.0</ele><time>2026-04-04T11:49:58.007Z</time></trkpt><trkpt lat="43.9238636" lon="11.959885"><ele>730.0</ele><time>2026-04-04T11:49:59.012Z</time></trkpt><trkpt lat="43.9237642" lon="11.9600182"><ele>730.0</ele><time>2026-04-04T11:50:00.006Z</time></trkpt><trkpt lat="43.9236647" lon="11.9601499"><ele>730.0</ele><time>2026-04-04T11:50:01.006Z</time></trkpt><trkpt lat="43.9235581" lon="11.9602729"><ele>728.5</ele><time>2026-04-04T11:50:02.006Z</time></trkpt><trkpt lat="43.9234437" lon="11.9603926"><ele>727.0</ele><time>2026-04-04T11:50:03.006Z</time></trkpt><trkpt lat="43.9233276" lon="11.9605118"><ele>725.5</ele><time>2026-04-04T11:50:04.008Z</time></trkpt><trkpt lat="43.9232154" lon="11.9606225"><ele>724.0</ele><time>2026-04-04T11:50:05.007Z</time></trkpt><trkpt lat="43.9231057" lon="11.9607229"><ele>724.0</ele><time>2026-04-04T11:50:06.007Z</time></trkpt><trkpt lat="43.9229989" lon="11.9608205"><ele>724.0</ele><time>2026-04-04T11:50:07.006Z</time></trkpt><trkpt lat="43.9228967" lon="11.9609141"><ele>724.0</ele><time>2026-04-04T11:50:08.005Z</time></trkpt><trkpt lat="43.9227944" lon="11.9610071"><ele>724.0</ele><time>2026-04-04T11:50:09.008Z</time></trkpt><trkpt lat="43.9226982" lon="11.9611011"><ele>722.5</ele><time>2026-04-04T11:50:10.006Z</time></trkpt><trkpt lat="43.9226028" lon="11.961186"><ele>721.0</ele><time>2026-04-04T11:50:11.006Z</time></trkpt><trkpt lat="43.9225067" lon="11.9612697"><ele>719.5</ele><time>2026-04-04T11:50:12.007Z</time></trkpt><trkpt lat="43.922408" lon="11.9613531"><ele>718.0</ele><time>2026-04-04T11:50:13.007Z</time></trkpt><trkpt lat="43.9222986" lon="11.9614493"><ele>718.0</ele><time>2026-04-04T11:50:14.005Z</time></trkpt><trkpt lat="43.9221728" lon="11.9615686"><ele>718.0</ele><time>2026-04-04T11:50:15.011Z</time></trkpt><trkpt lat="43.9220332" lon="11.9617102"><ele>718.0</ele><time>2026-04-04T11:50:16.005Z</time></trkpt><trkpt lat="43.9218803" lon="11.96187"><ele>714.3333333333334</ele><time>2026-04-04T11:50:17.005Z</time></trkpt><trkpt lat="43.921721" lon="11.962046"><ele>710.6666666666666</ele><time>2026-04-04T11:50:18.009Z</time></trkpt><trkpt lat="43.9215675" lon="11.9622404"><ele>707.0</ele><time>2026-04-04T11:50:19.009Z</time></trkpt><trkpt lat="43.9214212" lon="11.9624397"><ele>709.6666666666666</ele><time>2026-04-04T11:50:20.007Z</time></trkpt><trkpt lat="43.9212808" lon="11.9626348"><ele>712.3333333333334</ele><time>2026-04-04T11:50:21.006Z</time></trkpt><trkpt lat="43.9211408" lon="11.9628177"><ele>715.0</ele><time>2026-04-04T11:50:22.006Z</time></trkpt><trkpt lat="43.921012" lon="11.9629899"><ele>711.0</ele><time>2026-04-04T11:50:23.006Z</time></trkpt><trkpt lat="43.9208934" lon="11.9631441"><ele>707.0</ele><time>2026-04-04T11:50:24.006Z</time></trkpt><trkpt lat="43.920786" lon="11.9632755"><ele>703.0</ele><time>2026-04-04T11:50:25.007Z</time></trkpt><trkpt lat="43.9206862" lon="11.9633791"><ele>699.0</ele><time>2026-04-04T11:50:26.009Z</time></trkpt><trkpt lat="43.9205815" lon="11.9634335"><ele>699.0</ele><time>2026-04-04T11:50:27.008Z</time></trkpt><trkpt lat="43.9204756" lon="11.9634335"><ele>699.0</ele><time>2026-04-04T11:50:28.007Z</time></trkpt><trkpt lat="43.9203826" lon="11.9633974"><ele>699.0</ele><time>2026-04-04T11:50:29.007Z</time></trkpt><trkpt lat="43.9203007" lon="11.9633289"><ele>699.0</ele><time>2026-04-04T11:50:30.006Z</time></trkpt><trkpt lat="43.9202276" lon="11.963228"><ele>699.0</ele><time>2026-04-04T11:50:31.008Z</time></trkpt><trkpt lat="43.9201497" lon="11.9631019"><ele>700.0</ele><time>2026-04-04T11:50:32.007Z</time></trkpt><trkpt lat="43.9200619" lon="11.9629574"><ele>701.0</ele><time>2026-04-04T11:50:33.006Z</time></trkpt><trkpt lat="43.9199658" lon="11.9628011"><ele>702.0</ele><time>2026-04-04T11:50:34.005Z</time></trkpt><trkpt lat="43.9198635" lon="11.9626292"><ele>703.0</ele><time>2026-04-04T11:50:35.007Z</time></trkpt><trkpt lat="43.9197485" lon="11.9624433"><ele>703.0</ele><time>2026-04-04T11:50:36.006Z</time></trkpt><trkpt lat="43.9196248" lon="11.9622492"><ele>703.0</ele><time>2026-04-04T11:50:37.006Z</time></trkpt><trkpt lat="43.9194909" lon="11.9620445"><ele>703.0</ele><time>2026-04-04T11:50:38.006Z</time></trkpt><trkpt lat="43.9193464" lon="11.9618224"><ele>705.3333333333334</ele><time>2026-04-04T11:50:39.01Z</time></trkpt><trkpt lat="43.9192064" lon="11.9616042"><ele>707.6666666666666</ele><time>2026-04-04T11:50:40.006Z</time></trkpt><trkpt lat="43.9190767" lon="11.9614086"><ele>710.0</ele><time>2026-04-04T11:50:41.006Z</time></trkpt><trkpt lat="43.9189657" lon="11.9612293"><ele>710.0</ele><time>2026-04-04T11:50:42.006Z</time></trkpt><trkpt lat="43.9188643" lon="11.9610744"><ele>710.0</ele><time>2026-04-04T11:50:43.006Z</time></trkpt><trkpt lat="43.9187654" lon="11.9609465"><ele>710.0</ele><time>2026-04-04T11:50:44.009Z</time></trkpt><trkpt lat="43.9186654" lon="11.9608622"><ele>710.0</ele><time>2026-04-04T11:50:45.008Z</time></trkpt><trkpt lat="43.9185591" lon="11.9608273"><ele>710.5</ele><time>2026-04-04T11:50:46.007Z</time></trkpt><trkpt lat="43.9184413" lon="11.9608314"><ele>711.0</ele><time>2026-04-04T11:50:47.007Z</time></trkpt><trkpt lat="43.9183084" lon="11.9608642"><ele>711.5</ele><time>2026-04-04T11:50:48.006Z</time></trkpt><trkpt lat="43.9181608" lon="11.9609104"><ele>712.0</ele><time>2026-04-04T11:50:49.011Z</time></trkpt><trkpt lat="43.9180031" lon="11.9609628"><ele>712.6666666666667</ele><time>2026-04-04T11:50:50.008Z</time></trkpt><trkpt lat="43.9178442" lon="11.9610214"><ele>713.3333333333334</ele><time>2026-04-04T11:50:51.008Z</time></trkpt><trkpt lat="43.9176896" lon="11.9610873"><ele>714.0</ele><time>2026-04-04T11:50:52.01Z</time></trkpt><trkpt lat="43.9175438" lon="11.9611745"><ele>716.25</ele><time>2026-04-04T11:50:53.005Z</time></trkpt><trkpt lat="43.9174164" lon="11.9612759"><ele>718.5</ele><time>2026-04-04T11:50:54.011Z</time></trkpt><trkpt lat="43.9173087" lon="11.9613973"><ele>720.75</ele><time>2026-04-04T11:50:55.007Z</time></trkpt><trkpt lat="43.9172089" lon="11.9615232"><ele>723.0</ele><time>2026-04-04T11:50:56.006Z</time></trkpt><trkpt lat="43.9171146" lon="11.9616477"><ele>725.0</ele><time>2026-04-04T11:50:57.006Z</time></trkpt><trkpt lat="43.9170235" lon="11.9617724"><ele>727.0</ele><time>2026-04-04T11:50:58.009Z</time></trkpt><trkpt lat="43.9169343" lon="11.9618977"><ele>729.0</ele><time>2026-04-04T11:50:59.007Z</time></trkpt><trkpt lat="43.9168464" lon="11.9620162"><ele>731.0</ele><time>2026-04-04T11:51:00.007Z</time></trkpt><trkpt lat="43.9167578" lon="11.9621262"><ele>731.25</ele><time>2026-04-04T11:51:01.007Z</time></trkpt><trkpt lat="43.9166629" lon="11.9622312"><ele>731.5</ele><time>2026-04-04T11:51:02.004Z</time></trkpt><trkpt lat="43.9165622" lon="11.9623356"><ele>731.75</ele><time>2026-04-04T11:51:03.007Z</time></trkpt><trkpt lat="43.916462" lon="11.9624459"><ele>732.0</ele><time>2026-04-04T11:51:04.007Z</time></trkpt><trkpt lat="43.9163706" lon="11.9625739"><ele>732.0</ele><time>2026-04-04T11:51:05.009Z</time></trkpt><trkpt lat="43.9162775" lon="11.9626962"><ele>732.0</ele><time>2026-04-04T11:51:06.007Z</time></trkpt><trkpt lat="43.9161845" lon="11.962799"><ele>732.0</ele><time>2026-04-04T11:51:07.007Z</time></trkpt><trkpt lat="43.9160898" lon="11.9628809"><ele>732.0</ele><time>2026-04-04T11:51:08.008Z</time></trkpt><trkpt lat="43.9159817" lon="11.9629405"><ele>731.5</ele><time>2026-04-04T11:51:09.01Z</time></trkpt><trkpt lat="43.9158562" lon="11.9629849"><ele>731.0</ele><time>2026-04-04T11:51:10.007Z</time></trkpt><trkpt lat="43.915714" lon="11.963013"><ele>730.5</ele><time>2026-04-04T11:51:11.007Z</time></trkpt><trkpt lat="43.9155621" lon="11.9630256"><ele>730.0</ele><time>2026-04-04T11:51:12.008Z</time></trkpt><trkpt lat="43.9154023" lon="11.9630217"><ele>730.0</ele><time>2026-04-04T11:51:13.007Z</time></trkpt><trkpt lat="43.9152266" lon="11.9629974"><ele>730.0</ele><time>2026-04-04T11:51:14.01Z</time></trkpt><trkpt lat="43.9150424" lon="11.9629598"><ele>730.0</ele><time>2026-04-04T11:51:15.008Z</time></trkpt><trkpt lat="43.9148637" lon="11.9629168"><ele>730.3333333333334</ele><time>2026-04-04T11:51:16.008Z</time></trkpt><trkpt lat="43.9147003" lon="11.9628779"><ele>730.6666666666666</ele><time>2026-04-04T11:51:17.007Z</time></trkpt><trkpt lat="43.9145529" lon="11.9628285"><ele>731.0</ele><time>2026-04-04T11:51:18.009Z</time></trkpt><trkpt lat="43.9144219" lon="11.9627571"><ele>731.0</ele><time>2026-04-04T11:51:19.007Z</time></trkpt><trkpt lat="43.914306" lon="11.9626538"><ele>731.0</ele><time>2026-04-04T11:51:20.008Z</time></trkpt><trkpt lat="43.9142015" lon="11.9625247"><ele>731.0</ele><time>2026-04-04T11:51:21.008Z</time></trkpt><trkpt lat="43.9141064" lon="11.962378"><ele>731.0</ele><time>2026-04-04T11:51:22.008Z</time></trkpt><trkpt lat="43.9140198" lon="11.9622263"><ele>732.0</ele><time>2026-04-04T11:51:23.007Z</time></trkpt><trkpt lat="43.9139337" lon="11.9620737"><ele>733.0</ele><time>2026-04-04T11:51:24.006Z</time></trkpt><trkpt lat="43.9138503" lon="11.9619243"><ele>734.0</ele><time>2026-04-04T11:51:25.007Z</time></trkpt><trkpt lat="43.913766" lon="11.9617851"><ele>735.0</ele><time>2026-04-04T11:51:26.009Z</time></trkpt><trkpt lat="43.913691" lon="11.9616458"><ele>735.0</ele><time>2026-04-04T11:51:27.007Z</time></trkpt><trkpt lat="43.9136223" lon="11.9615014"><ele>735.0</ele><time>2026-04-04T11:51:28.008Z</time></trkpt><trkpt lat="43.9135727" lon="11.9613423"><ele>735.0</ele><time>2026-04-04T11:51:29.008Z</time></trkpt><trkpt lat="43.9135535" lon="11.9611722"><ele>735.0</ele><time>2026-04-04T11:51:30.008Z</time></trkpt><trkpt lat="43.9135554" lon="11.9609996"><ele>735.2</ele><time>2026-04-04T11:51:31.01Z</time></trkpt><trkpt lat="43.9135698" lon="11.9608326"><ele>735.4</ele><time>2026-04-04T11:51:32.007Z</time></trkpt><trkpt lat="43.9135873" lon="11.9606716"><ele>735.5999999999999</ele><time>2026-04-04T11:51:33.007Z</time></trkpt><trkpt lat="43.9136027" lon="11.9605246"><ele>735.8</ele><time>2026-04-04T11:51:34.007Z</time></trkpt><trkpt lat="43.9136025" lon="11.9603905"><ele>736.0</ele><time>2026-04-04T11:51:35.007Z</time></trkpt><trkpt lat="43.9135987" lon="11.9602679"><ele>736.0</ele><time>2026-04-04T11:51:36.006Z</time></trkpt><trkpt lat="43.9135929" lon="11.9601488"><ele>736.0</ele><time>2026-04-04T11:51:37.007Z</time></trkpt><trkpt lat="43.9135772" lon="11.9600489"><ele>736.0</ele><time>2026-04-04T11:51:38.008Z</time></trkpt><trkpt lat="43.913539" lon="11.959971"><ele>736.0</ele><time>2026-04-04T11:51:39.008Z</time></trkpt><trkpt lat="43.9134455" lon="11.9599417"><ele>736.0</ele><time>2026-04-04T11:51:40.007Z</time></trkpt><trkpt lat="43.9133262" lon="11.9599477"><ele>736.0</ele><time>2026-04-04T11:51:41.006Z</time></trkpt><trkpt lat="43.9131972" lon="11.9599444"><ele>741.3333333333334</ele><time>2026-04-04T11:51:42.006Z</time></trkpt><trkpt lat="43.9130538" lon="11.9599425"><ele>746.6666666666666</ele><time>2026-04-04T11:51:43.007Z</time></trkpt><trkpt lat="43.9128984" lon="11.9599636"><ele>752.0</ele><time>2026-04-04T11:51:44.007Z</time></trkpt><trkpt lat="43.9127411" lon="11.9599822"><ele>752.0</ele><time>2026-04-04T11:51:45.007Z</time></trkpt><trkpt lat="43.9125821" lon="11.9600016"><ele>752.0</ele><time>2026-04-04T11:51:46.007Z</time></trkpt><trkpt lat="43.9124095" lon="11.960017"><ele>752.0</ele><time>2026-04-04T11:51:47.007Z</time></trkpt><trkpt lat="43.9122213" lon="11.9600317"><ele>752.0</ele><time>2026-04-04T11:51:48.008Z</time></trkpt><trkpt lat="43.9120263" lon="11.9600451"><ele>752.0</ele><time>2026-04-04T11:51:49.005Z</time></trkpt><trkpt lat="43.9118399" lon="11.9600526"><ele>752.0</ele><time>2026-04-04T11:51:50.006Z</time></trkpt><trkpt lat="43.9116663" lon="11.9600569"><ele>752.0</ele><time>2026-04-04T11:51:51.011Z</time></trkpt><trkpt lat="43.9115086" lon="11.9600529"><ele>752.0</ele><time>2026-04-04T11:51:52.008Z</time></trkpt><trkpt lat="43.9113647" lon="11.960021"><ele>752.0</ele><time>2026-04-04T11:51:53.006Z</time></trkpt><trkpt lat="43.9112358" lon="11.9599579"><ele>752.0</ele><time>2026-04-04T11:51:54.006Z</time></trkpt><trkpt lat="43.9111135" lon="11.9598503"><ele>752.6666666666666</ele><time>2026-04-04T11:51:55.006Z</time></trkpt><trkpt lat="43.91098" lon="11.9597145"><ele>753.3333333333334</ele><time>2026-04-04T11:51:56.006Z</time></trkpt><trkpt lat="43.9108322" lon="11.9595565"><ele>754.0</ele><time>2026-04-04T11:51:57.006Z</time></trkpt><trkpt lat="43.9106825" lon="11.9593904"><ele>754.0</ele><time>2026-04-04T11:51:58.007Z</time></trkpt><trkpt lat="43.9105412" lon="11.9592319"><ele>754.0</ele><time>2026-04-04T11:51:59.008Z</time></trkpt><trkpt lat="43.9104097" lon="11.9590813"><ele>754.0</ele><time>2026-04-04T11:52:00.009Z</time></trkpt><trkpt lat="43.9102752" lon="11.958946"><ele>754.5</ele><time>2026-04-04T11:52:01.005Z</time></trkpt><trkpt lat="43.9101453" lon="11.9588199"><ele>755.0</ele><time>2026-04-04T11:52:02.006Z</time></trkpt><trkpt lat="43.9100207" lon="11.958712"><ele>755.5</ele><time>2026-04-04T11:52:03.008Z</time></trkpt><trkpt lat="43.9099104" lon="11.9586208"><ele>756.0</ele><time>2026-04-04T11:52:04.009Z</time></trkpt><trkpt lat="43.9098106" lon="11.9585561"><ele>756.0</ele><time>2026-04-04T11:52:05.008Z</time></trkpt><trkpt lat="43.9097144" lon="11.9585126"><ele>756.0</ele><time>2026-04-04T11:52:06.009Z</time></trkpt><trkpt lat="43.9096274" lon="11.9584883"><ele>756.0</ele><time>2026-04-04T11:52:07.008Z</time></trkpt><trkpt lat="43.9095467" lon="11.958493"><ele>756.0</ele><time>2026-04-04T11:52:08.007Z</time></trkpt><trkpt lat="43.9094749" lon="11.9585258"><ele>756.0</ele><time>2026-04-04T11:52:09.008Z</time></trkpt><trkpt lat="43.9094097" lon="11.9585783"><ele>756.0</ele><time>2026-04-04T11:52:10.007Z</time></trkpt><trkpt lat="43.9093592" lon="11.9587102"><ele>756.0</ele><time>2026-04-04T11:52:11.007Z</time></trkpt><trkpt lat="43.9093186" lon="11.9588894"><ele>756.0</ele><time>2026-04-04T11:52:12.008Z</time></trkpt><trkpt lat="43.9092856" lon="11.9590999"><ele>756.0</ele><time>2026-04-04T11:52:13.007Z</time></trkpt><trkpt lat="43.9092495" lon="11.9593343"><ele>754.6666666666666</ele><time>2026-04-04T11:52:14.007Z</time></trkpt><trkpt lat="43.9092027" lon="11.9595798"><ele>753.3333333333333</ele><time>2026-04-04T11:52:15.007Z</time></trkpt><trkpt lat="43.9091496" lon="11.959819"><ele>752.0</ele><time>2026-04-04T11:52:16.006Z</time></trkpt><trkpt lat="43.9090842" lon="11.9600405"><ele>752.0</ele><time>2026-04-04T11:52:17.007Z</time></trkpt><trkpt lat="43.908989" lon="11.9602358"><ele>752.0</ele><time>2026-04-04T11:52:18.006Z</time></trkpt><trkpt lat="43.9088851" lon="11.9604158"><ele>752.0</ele><time>2026-04-04T11:52:19.005Z</time></trkpt><trkpt lat="43.9087739" lon="11.9605846"><ele>752.0</ele><time>2026-04-04T11:52:20.005Z</time></trkpt><trkpt lat="43.9086687" lon="11.9607436"><ele>752.0</ele><time>2026-04-04T11:52:21.006Z</time></trkpt><trkpt lat="43.9085735" lon="11.9608951"><ele>752.0</ele><time>2026-04-04T11:52:22.007Z</time></trkpt><trkpt lat="43.9084797" lon="11.9610366"><ele>752.0</ele><time>2026-04-04T11:52:23.008Z</time></trkpt><trkpt lat="43.9083812" lon="11.9611642"><ele>752.5</ele><time>2026-04-04T11:52:24.007Z</time></trkpt><trkpt lat="43.9082717" lon="11.9612733"><ele>753.0</ele><time>2026-04-04T11:52:25.009Z</time></trkpt><trkpt lat="43.9081565" lon="11.9613678"><ele>753.5</ele><time>2026-04-04T11:52:26.006Z</time></trkpt><trkpt lat="43.9080373" lon="11.9614544"><ele>754.0</ele><time>2026-04-04T11:52:27.007Z</time></trkpt><trkpt lat="43.9079151" lon="11.9615366"><ele>754.0</ele><time>2026-04-04T11:52:28.006Z</time></trkpt><trkpt lat="43.9077943" lon="11.9616143"><ele>754.0</ele><time>2026-04-04T11:52:29.006Z</time></trkpt><trkpt lat="43.9076791" lon="11.9616958"><ele>754.0</ele><time>2026-04-04T11:52:30.005Z</time></trkpt><trkpt lat="43.9075695" lon="11.9617781"><ele>754.0</ele><time>2026-04-04T11:52:31.007Z</time></trkpt><trkpt lat="43.9074654" lon="11.9618765"><ele>753.75</ele><time>2026-04-04T11:52:32.008Z</time></trkpt><trkpt lat="43.9073619" lon="11.961983"><ele>753.5</ele><time>2026-04-04T11:52:33.009Z</time></trkpt><trkpt lat="43.9072736" lon="11.9621128"><ele>753.25</ele><time>2026-04-04T11:52:34.007Z</time></trkpt><trkpt lat="43.907207" lon="11.9622654"><ele>753.0</ele><time>2026-04-04T11:52:35.01Z</time></trkpt><trkpt lat="43.9071684" lon="11.9624287"><ele>754.75</ele><time>2026-04-04T11:52:36.006Z</time></trkpt><trkpt lat="43.9071567" lon="11.9626039"><ele>756.5</ele><time>2026-04-04T11:52:37.009Z</time></trkpt><trkpt lat="43.9071559" lon="11.9627784"><ele>758.25</ele><time>2026-04-04T11:52:38.008Z</time></trkpt><trkpt lat="43.9071393" lon="11.9629514"><ele>760.0</ele><time>2026-04-04T11:52:39.006Z</time></trkpt><trkpt lat="43.9071029" lon="11.9631295"><ele>760.0</ele><time>2026-04-04T11:52:40.007Z</time></trkpt><trkpt lat="43.9070432" lon="11.9633124"><ele>760.0</ele><time>2026-04-04T11:52:41.006Z</time></trkpt><trkpt lat="43.9069592" lon="11.9635177"><ele>760.0</ele><time>2026-04-04T11:52:42.009Z</time></trkpt><trkpt lat="43.9068667" lon="11.963739"><ele>762.0</ele><time>2026-04-04T11:52:43.006Z</time></trkpt><trkpt lat="43.9067816" lon="11.9639758"><ele>764.0</ele><time>2026-04-04T11:52:44.007Z</time></trkpt><trkpt lat="43.9067036" lon="11.9642113"><ele>766.0</ele><time>2026-04-04T11:52:45.006Z</time></trkpt><trkpt lat="43.9066309" lon="11.9644209"><ele>769.75</ele><time>2026-04-04T11:52:46.007Z</time></trkpt><trkpt lat="43.9065667" lon="11.9646069"><ele>773.5</ele><time>2026-04-04T11:52:47.007Z</time></trkpt><trkpt lat="43.9065043" lon="11.9647675"><ele>777.25</ele><time>2026-04-04T11:52:48.007Z</time></trkpt><trkpt lat="43.9064302" lon="11.9648932"><ele>781.0</ele><time>2026-04-04T11:52:49.012Z</time></trkpt><trkpt lat="43.906345" lon="11.9649781"><ele>781.0</ele><time>2026-04-04T11:52:50.006Z</time></trkpt><trkpt lat="43.9062404" lon="11.9650172"><ele>781.0</ele><time>2026-04-04T11:52:51.007Z</time></trkpt><trkpt lat="43.9061295" lon="11.9650476"><ele>781.0</ele><time>2026-04-04T11:52:52.007Z</time></trkpt><trkpt lat="43.9060168" lon="11.9650845"><ele>781.0</ele><time>2026-04-04T11:52:53.007Z</time></trkpt><trkpt lat="43.9059043" lon="11.9651302"><ele>782.5</ele><time>2026-04-04T11:52:54.005Z</time></trkpt><trkpt lat="43.905791" lon="11.9651855"><ele>784.0</ele><time>2026-04-04T11:52:55.007Z</time></trkpt><trkpt lat="43.9056736" lon="11.9652379"><ele>785.5</ele><time>2026-04-04T11:52:56.008Z</time></trkpt><trkpt lat="43.9055583" lon="11.9652941"><ele>787.0</ele><time>2026-04-04T11:52:57.007Z</time></trkpt><trkpt lat="43.9054425" lon="11.9653559"><ele>787.0</ele><time>2026-04-04T11:52:58.008Z</time></trkpt><trkpt lat="43.905326" lon="11.9654194"><ele>787.0</ele><time>2026-04-04T11:52:59.006Z</time></trkpt><trkpt lat="43.9052077" lon="11.9654859"><ele>787.0</ele><time>2026-04-04T11:53:00.008Z</time></trkpt><trkpt lat="43.9050867" lon="11.9655557"><ele>787.0</ele><time>2026-04-04T11:53:01.007Z</time></trkpt><trkpt lat="43.9049614" lon="11.965612"><ele>788.0</ele><time>2026-04-04T11:53:02.009Z</time></trkpt><trkpt lat="43.9048255" lon="11.9656344"><ele>789.0</ele><time>2026-04-04T11:53:03.006Z</time></trkpt><trkpt lat="43.9046804" lon="11.9656144"><ele>790.0</ele><time>2026-04-04T11:53:04.007Z</time></trkpt><trkpt lat="43.9045265" lon="11.9655628"><ele>791.0</ele><time>2026-04-04T11:53:05.007Z</time></trkpt><trkpt lat="43.9043697" lon="11.9655026"><ele>795.0</ele><time>2026-04-04T11:53:06.006Z</time></trkpt><trkpt lat="43.9042087" lon="11.965443"><ele>799.0</ele><time>2026-04-04T11:53:07.007Z</time></trkpt><trkpt lat="43.9040411" lon="11.9653893"><ele>803.0</ele><time>2026-04-04T11:53:08.007Z</time></trkpt><trkpt lat="43.9038624" lon="11.9653532"><ele>803.0</ele><time>2026-04-04T11:53:09.008Z</time></trkpt><trkpt lat="43.9036669" lon="11.9653316"><ele>803.0</ele><time>2026-04-04T11:53:10.008Z</time></trkpt><trkpt lat="43.9034573" lon="11.9653193"><ele>803.0</ele><time>2026-04-04T11:53:11.005Z</time></trkpt><trkpt lat="43.9032438" lon="11.9653212"><ele>804.0</ele><time>2026-04-04T11:53:12.009Z</time></trkpt><trkpt lat="43.9030391" lon="11.9653052"><ele>805.0</ele><time>2026-04-04T11:53:13.008Z</time></trkpt><trkpt lat="43.9028461" lon="11.9652902"><ele>806.0</ele><time>2026-04-04T11:53:14.008Z</time></trkpt><trkpt lat="43.9026637" lon="11.9652575"><ele>807.0</ele><time>2026-04-04T11:53:15.006Z</time></trkpt><trkpt lat="43.9024878" lon="11.9652151"><ele>808.0</ele><time>2026-04-04T11:53:16.007Z</time></trkpt><trkpt lat="43.902316" lon="11.9651709"><ele>809.0</ele><time>2026-04-04T11:53:17.006Z</time></trkpt><trkpt lat="43.9021509" lon="11.965122"><ele>809.0</ele><time>2026-04-04T11:53:18.008Z</time></trkpt><trkpt lat="43.901987" lon="11.9650801"><ele>809.0</ele><time>2026-04-04T11:53:19.008Z</time></trkpt><trkpt lat="43.9018266" lon="11.9650321"><ele>809.0</ele><time>2026-04-04T11:53:20.007Z</time></trkpt><trkpt lat="43.901667" lon="11.9649836"><ele>804.3333333333334</ele><time>2026-04-04T11:53:21.006Z</time></trkpt><trkpt lat="43.9015079" lon="11.9649349"><ele>799.6666666666667</ele><time>2026-04-04T11:53:22.008Z</time></trkpt><trkpt lat="43.9013471" lon="11.9648914"><ele>795.0</ele><time>2026-04-04T11:53:23.006Z</time></trkpt><trkpt lat="43.9011889" lon="11.9648521"><ele>795.0</ele><time>2026-04-04T11:53:24.011Z</time></trkpt><trkpt lat="43.9010353" lon="11.964784"><ele>795.0</ele><time>2026-04-04T11:53:25.007Z</time></trkpt><trkpt lat="43.9008889" lon="11.9646729"><ele>795.0</ele><time>2026-04-04T11:53:26.008Z</time></trkpt><trkpt lat="43.9007485" lon="11.9645407"><ele>793.6666666666667</ele><time>2026-04-04T11:53:27.008Z</time></trkpt><trkpt lat="43.9006083" lon="11.9644068"><ele>792.3333333333334</ele><time>2026-04-04T11:53:28.008Z</time></trkpt><trkpt lat="43.9004633" lon="11.9642811"><ele>791.0</ele><time>2026-04-04T11:53:29.007Z</time></trkpt><trkpt lat="43.9003115" lon="11.9641599"><ele>791.0</ele><time>2026-04-04T11:53:30.009Z</time></trkpt><trkpt lat="43.9001583" lon="11.964041"><ele>791.0</ele><time>2026-04-04T11:53:31.007Z</time></trkpt><trkpt lat="43.9000044" lon="11.963917"><ele>791.0</ele><time>2026-04-04T11:53:32.006Z</time></trkpt><trkpt lat="43.8998511" lon="11.9637925"><ele>793.0</ele><time>2026-04-04T11:53:33.01Z</time></trkpt><trkpt lat="43.8997075" lon="11.9636474"><ele>795.0</ele><time>2026-04-04T11:53:34.007Z</time></trkpt><trkpt lat="43.8995683" lon="11.9634966"><ele>797.0</ele><time>2026-04-04T11:53:35.009Z</time></trkpt><trkpt lat="43.8994493" lon="11.9633263"><ele>797.0</ele><time>2026-04-04T11:53:36.008Z</time></trkpt><trkpt lat="43.8993425" lon="11.9631531"><ele>797.0</ele><time>2026-04-04T11:53:37.007Z</time></trkpt><trkpt lat="43.8992499" lon="11.962981"><ele>797.0</ele><time>2026-04-04T11:53:38.007Z</time></trkpt><trkpt lat="43.8991602" lon="11.9628174"><ele>799.75</ele><time>2026-04-04T11:53:39.007Z</time></trkpt><trkpt lat="43.8990574" lon="11.9626808"><ele>802.5</ele><time>2026-04-04T11:53:40.011Z</time></trkpt><trkpt lat="43.8989425" lon="11.9625653"><ele>805.25</ele><time>2026-04-04T11:53:41.008Z</time></trkpt><trkpt lat="43.8988225" lon="11.962475"><ele>808.0</ele><time>2026-04-04T11:53:42.008Z</time></trkpt><trkpt lat="43.8987048" lon="11.9623984"><ele>808.0</ele><time>2026-04-04T11:53:43.006Z</time></trkpt><trkpt lat="43.8985907" lon="11.9623236"><ele>808.0</ele><time>2026-04-04T11:53:44.007Z</time></trkpt><trkpt lat="43.8984787" lon="11.9622331"><ele>808.0</ele><time>2026-04-04T11:53:45.011Z</time></trkpt><trkpt lat="43.898367" lon="11.9621217"><ele>808.0</ele><time>2026-04-04T11:53:46.006Z</time></trkpt><trkpt lat="43.8982617" lon="11.9619763"><ele>806.6666666666666</ele><time>2026-04-04T11:53:47.005Z</time></trkpt><trkpt lat="43.898167" lon="11.9617982"><ele>805.3333333333333</ele><time>2026-04-04T11:53:48.006Z</time></trkpt><trkpt lat="43.8980727" lon="11.9615961"><ele>804.0</ele><time>2026-04-04T11:53:49.007Z</time></trkpt><trkpt lat="43.8979659" lon="11.9613887"><ele>804.0</ele><time>2026-04-04T11:53:50.011Z</time></trkpt><trkpt lat="43.8978508" lon="11.9611776"><ele>804.0</ele><time>2026-04-04T11:53:51.006Z</time></trkpt><trkpt lat="43.8977408" lon="11.9609573"><ele>804.0</ele><time>2026-04-04T11:53:52.006Z</time></trkpt><trkpt lat="43.8976459" lon="11.9607353"><ele>806.3333333333333</ele><time>2026-04-04T11:53:53.007Z</time></trkpt><trkpt lat="43.8975625" lon="11.960522"><ele>808.6666666666666</ele><time>2026-04-04T11:53:54.006Z</time></trkpt><trkpt lat="43.897481" lon="11.960323"><ele>811.0</ele><time>2026-04-04T11:53:55.007Z</time></trkpt><trkpt lat="43.8974023" lon="11.9601474"><ele>807.8</ele><time>2026-04-04T11:53:56.006Z</time></trkpt><trkpt lat="43.8973346" lon="11.960003"><ele>804.5999999999999</ele><time>2026-04-04T11:53:57.007Z</time></trkpt><trkpt lat="43.8972873" lon="11.9598732"><ele>801.4</ele><time>2026-04-04T11:53:58.009Z</time></trkpt><trkpt lat="43.8972719" lon="11.9597425"><ele>798.2</ele><time>2026-04-04T11:53:59.006Z</time></trkpt><trkpt lat="43.8972964" lon="11.959616"><ele>795.0</ele><time>2026-04-04T11:54:00.009Z</time></trkpt><trkpt lat="43.8973534" lon="11.9594921"><ele>795.0</ele><time>2026-04-04T11:54:01.006Z</time></trkpt><trkpt lat="43.8974338" lon="11.9593594"><ele>795.0</ele><time>2026-04-04T11:54:02.013Z</time></trkpt><trkpt lat="43.8975149" lon="11.9592139"><ele>795.0</ele><time>2026-04-04T11:54:03.007Z</time></trkpt><trkpt lat="43.8975817" lon="11.9590446"><ele>795.0</ele><time>2026-04-04T11:54:04.007Z</time></trkpt><trkpt lat="43.8976274" lon="11.9588584"><ele>792.5</ele><time>2026-04-04T11:54:05.009Z</time></trkpt><trkpt lat="43.8976512" lon="11.9586732"><ele>790.0</ele><time>2026-04-04T11:54:06.006Z</time></trkpt><trkpt lat="43.8976549" lon="11.9585015"><ele>787.5</ele><time>2026-04-04T11:54:07.011Z</time></trkpt><trkpt lat="43.8976352" lon="11.9583568"><ele>785.0</ele><time>2026-04-04T11:54:08.005Z</time></trkpt><trkpt lat="43.8975955" lon="11.9582303"><ele>784.2</ele><time>2026-04-04T11:54:09.007Z</time></trkpt><trkpt lat="43.8975349" lon="11.9581308"><ele>783.4</ele><time>2026-04-04T11:54:10.006Z</time></trkpt><trkpt lat="43.8974438" lon="11.9580564"><ele>782.5999999999999</ele><time>2026-04-04T11:54:11.007Z</time></trkpt><trkpt lat="43.8973428" lon="11.9579948"><ele>781.8</ele><time>2026-04-04T11:54:12.011Z</time></trkpt><trkpt lat="43.8972515" lon="11.9579214"><ele>781.0</ele><time>2026-04-04T11:54:13.007Z</time></trkpt><trkpt lat="43.8971756" lon="11.9578248"><ele>781.0</ele><time>2026-04-04T11:54:14.005Z</time></trkpt><trkpt lat="43.8971127" lon="11.9577084"><ele>781.0</ele><time>2026-04-04T11:54:15.006Z</time></trkpt><trkpt lat="43.8970586" lon="11.9575832"><ele>781.0</ele><time>2026-04-04T11:54:16.007Z</time></trkpt><trkpt lat="43.8970174" lon="11.9574466"><ele>781.0</ele><time>2026-04-04T11:54:17.008Z</time></trkpt><trkpt lat="43.8969812" lon="11.9573056"><ele>781.0</ele><time>2026-04-04T11:54:18.007Z</time></trkpt><trkpt lat="43.8969408" lon="11.9571605"><ele>778.4</ele><time>2026-04-04T11:54:19.008Z</time></trkpt><trkpt lat="43.8968945" lon="11.9570177"><ele>775.8</ele><time>2026-04-04T11:54:20.007Z</time></trkpt><trkpt lat="43.8968452" lon="11.9568776"><ele>773.1999999999999</ele><time>2026-04-04T11:54:21.008Z</time></trkpt><trkpt lat="43.8967891" lon="11.9567556"><ele>770.5999999999999</ele><time>2026-04-04T11:54:22.006Z</time></trkpt><trkpt lat="43.8967192" lon="11.9566565"><ele>768.0</ele><time>2026-04-04T11:54:23.007Z</time></trkpt><trkpt lat="43.8966361" lon="11.9565914"><ele>767.4</ele><time>2026-04-04T11:54:24.007Z</time></trkpt><trkpt lat="43.8965451" lon="11.9565455"><ele>766.8</ele><time>2026-04-04T11:54:25.007Z</time></trkpt><trkpt lat="43.8964532" lon="11.9565039"><ele>766.2</ele><time>2026-04-04T11:54:26.011Z</time></trkpt><trkpt lat="43.8963548" lon="11.9564806"><ele>765.6</ele><time>2026-04-04T11:54:27.007Z</time></trkpt><trkpt lat="43.8962506" lon="11.9564762"><ele>765.0</ele><time>2026-04-04T11:54:28.005Z</time></trkpt><trkpt lat="43.8961306" lon="11.9564977"><ele>765.0</ele><time>2026-04-04T11:54:29.007Z</time></trkpt><trkpt lat="43.8959863" lon="11.9565525"><ele>765.0</ele><time>2026-04-04T11:54:30.006Z</time></trkpt><trkpt lat="43.8958328" lon="11.9566357"><ele>765.0</ele><time>2026-04-04T11:54:31.006Z</time></trkpt><trkpt lat="43.8956857" lon="11.956708"><ele>772.5</ele><time>2026-04-04T11:54:32.006Z</time></trkpt><trkpt lat="43.8955515" lon="11.9567756"><ele>780.0</ele><time>2026-04-04T11:54:33.006Z</time></trkpt><trkpt lat="43.8954312" lon="11.9568415"><ele>787.5</ele><time>2026-04-04T11:54:34.007Z</time></trkpt><trkpt lat="43.8953226" lon="11.9568998"><ele>795.0</ele><time>2026-04-04T11:54:35.007Z</time></trkpt><trkpt lat="43.8952314" lon="11.9569247"><ele>795.0</ele><time>2026-04-04T11:54:36.006Z</time></trkpt><trkpt lat="43.8951671" lon="11.9569075"><ele>795.0</ele><time>2026-04-04T11:54:37.008Z</time></trkpt><trkpt lat="43.8950785" lon="11.9568116"><ele>795.0</ele><time>2026-04-04T11:54:39.01Z</time></trkpt><trkpt lat="43.8950723" lon="11.9566892"><ele>795.0</ele><time>2026-04-04T11:54:41.005Z</time></trkpt><trkpt lat="43.8951585" lon="11.9565951"><ele>795.0</ele><time>2026-04-04T11:54:43.005Z</time></trkpt><trkpt lat="43.89531" lon="11.956536"><ele>764.0</ele><time>2026-04-04T11:54:45.006Z</time></trkpt><trkpt lat="43.8954107" lon="11.9565228"><ele>764.0</ele><time>2026-04-04T11:54:46.006Z</time></trkpt><trkpt lat="43.8954965" lon="11.9565175"><ele>764.0</ele><time>2026-04-04T11:54:47.007Z</time></trkpt><trkpt lat="43.8956049" lon="11.9565335"><ele>764.0</ele><time>2026-04-04T11:54:49.006Z</time></trkpt></trkseg><trkseg><trkpt lat="43.8957083" lon="11.9565283"><ele>764.0</ele><time>2026-04-04T13:35:11.006Z</time></trkpt><trkpt lat="43.89577" lon="11.9564933"><ele>764.0</ele><time>2026-04-04T13:35:12.006Z</time></trkpt><trkpt lat="43.8958783" lon="11.9564517"><ele>764.0</ele><time>2026-04-04T13:35:13.008Z</time></trkpt><trkpt lat="43.8960133" lon="11.9564"><ele>764.0</ele><time>2026-04-04T13:35:14.005Z</time></trkpt><trkpt lat="43.8961867" lon="11.95634"><ele>764.3333333333333</ele><time>2026-04-04T13:35:15.01Z</time></trkpt><trkpt lat="43.8963567" lon="11.9563017"><ele>764.6666666666666</ele><time>2026-04-04T13:35:16.006Z</time></trkpt><trkpt lat="43.8965183" lon="11.9562767"><ele>765.0</ele><time>2026-04-04T13:35:17.007Z</time></trkpt><trkpt lat="43.8966717" lon="11.9562667"><ele>762.25</ele><time>2026-04-04T13:35:18.012Z</time></trkpt><trkpt lat="43.8968" lon="11.9562467"><ele>759.5</ele><time>2026-04-04T13:35:19.008Z</time></trkpt><trkpt lat="43.8969167" lon="11.9562717"><ele>756.75</ele><time>2026-04-04T13:35:20.006Z</time></trkpt><trkpt lat="43.8970217" lon="11.9563167"><ele>754.0</ele><time>2026-04-04T13:35:21.013Z</time></trkpt><trkpt lat="43.89711" lon="11.9563733"><ele>754.0</ele><time>2026-04-04T13:35:22.006Z</time></trkpt><trkpt lat="43.8971933" lon="11.9564483"><ele>754.0</ele><time>2026-04-04T13:35:23.005Z</time></trkpt><trkpt lat="43.8972733" lon="11.9565317"><ele>754.0</ele><time>2026-04-04T13:35:24.008Z</time></trkpt><trkpt lat="43.8973483" lon="11.9566167"><ele>754.0</ele><time>2026-04-04T13:35:25.01Z</time></trkpt><trkpt lat="43.8974167" lon="11.9567"><ele>754.0</ele><time>2026-04-04T13:35:26.01Z</time></trkpt><trkpt lat="43.8974767" lon="11.9567733"><ele>755.5</ele><time>2026-04-04T13:35:27.009Z</time></trkpt><trkpt lat="43.8975333" lon="11.9568383"><ele>757.0</ele><time>2026-04-04T13:35:28.007Z</time></trkpt><trkpt lat="43.89758" lon="11.9569"><ele>758.5</ele><time>2026-04-04T13:35:29.006Z</time></trkpt><trkpt lat="43.89766" lon="11.9570067"><ele>760.0</ele><time>2026-04-04T13:35:31.007Z</time></trkpt><trkpt lat="43.8977233" lon="11.9570433"><ele>761.5</ele><time>2026-04-04T13:35:33.01Z</time></trkpt><trkpt lat="43.8977983" lon="11.957025"><ele>763.0</ele><time>2026-04-04T13:35:35.009Z</time></trkpt><trkpt lat="43.8978704" lon="11.9569731"><ele>763.0</ele><time>2026-04-04T13:35:37.011Z</time></trkpt><trkpt lat="43.8979444" lon="11.956911"><ele>763.0</ele><time>2026-04-04T13:35:39.01Z</time></trkpt><trkpt lat="43.8980087" lon="11.9568234"><ele>763.0</ele><time>2026-04-04T13:35:41.006Z</time></trkpt><trkpt lat="43.8980772" lon="11.9566804"><ele>763.0</ele><time>2026-04-04T13:35:43.009Z</time></trkpt><trkpt lat="43.8981205" lon="11.9566009"><ele>763.0</ele><time>2026-04-04T13:35:44.005Z</time></trkpt><trkpt lat="43.8981669" lon="11.9565351"><ele>763.0</ele><time>2026-04-04T13:35:45.009Z</time></trkpt><trkpt lat="43.8982608" lon="11.9564368"><ele>760.6666666666667</ele><time>2026-04-04T13:35:47.008Z</time></trkpt><trkpt lat="43.8983705" lon="11.9563986"><ele>758.3333333333334</ele><time>2026-04-04T13:35:49.007Z</time></trkpt><trkpt lat="43.898434" lon="11.9563988"><ele>756.0</ele><time>2026-04-04T13:35:50.006Z</time></trkpt><trkpt lat="43.8985009" lon="11.9564107"><ele>753.6666666666666</ele><time>2026-04-04T13:35:51.01Z</time></trkpt><trkpt lat="43.8985656" lon="11.95644"><ele>751.3333333333333</ele><time>2026-04-04T13:35:52.008Z</time></trkpt><trkpt lat="43.8986291" lon="11.9564814"><ele>749.0</ele><time>2026-04-04T13:35:53.014Z</time></trkpt><trkpt lat="43.8986896" lon="11.9565346"><ele>748.0</ele><time>2026-04-04T13:35:54.009Z</time></trkpt><trkpt lat="43.8987507" lon="11.956595"><ele>747.0</ele><time>2026-04-04T13:35:55.008Z</time></trkpt><trkpt lat="43.8988156" lon="11.9566497"><ele>746.0</ele><time>2026-04-04T13:35:56.01Z</time></trkpt><trkpt lat="43.8988841" lon="11.9566909"><ele>745.0</ele><time>2026-04-04T13:35:57.008Z</time></trkpt><trkpt lat="43.8989548" lon="11.9567223"><ele>744.0</ele><time>2026-04-04T13:35:58.007Z</time></trkpt><trkpt lat="43.899024" lon="11.9567445"><ele>743.0</ele><time>2026-04-04T13:35:59.006Z</time></trkpt><trkpt lat="43.8990948" lon="11.9567541"><ele>742.0</ele><time>2026-04-04T13:36:00.009Z</time></trkpt><trkpt lat="43.8991638" lon="11.9567507"><ele>741.7142857142857</ele><time>2026-04-04T13:36:01.007Z</time></trkpt><trkpt lat="43.8992335" lon="11.9567334"><ele>741.4285714285714</ele><time>2026-04-04T13:36:02.006Z</time></trkpt><trkpt lat="43.8993033" lon="11.9567076"><ele>741.1428571428571</ele><time>2026-04-04T13:36:03.008Z</time></trkpt><trkpt lat="43.8993717" lon="11.9566772"><ele>740.8571428571429</ele><time>2026-04-04T13:36:04.005Z</time></trkpt><trkpt lat="43.8994398" lon="11.9566443"><ele>740.5714285714286</ele><time>2026-04-04T13:36:05.005Z</time></trkpt><trkpt lat="43.8995079" lon="11.9566106"><ele>740.2857142857142</ele><time>2026-04-04T13:36:06.013Z</time></trkpt><trkpt lat="43.8995685" lon="11.9565686"><ele>740.0</ele><time>2026-04-04T13:36:07.009Z</time></trkpt><trkpt lat="43.8996319" lon="11.9565311"><ele>739.9999999999999</ele><time>2026-04-04T13:36:08.012Z</time></trkpt><trkpt lat="43.8996962" lon="11.9564953"><ele>740.0</ele><time>2026-04-04T13:36:09.007Z</time></trkpt><trkpt lat="43.899759" lon="11.9564602"><ele>740.0</ele><time>2026-04-04T13:36:10.011Z</time></trkpt><trkpt lat="43.8998231" lon="11.9564292"><ele>740.0</ele><time>2026-04-04T13:36:11.009Z</time></trkpt><trkpt lat="43.8998893" lon="11.9564061"><ele>740.0</ele><time>2026-04-04T13:36:12.006Z</time></trkpt><trkpt lat="43.8999574" lon="11.9563898"><ele>739.9999999999999</ele><time>2026-04-04T13:36:13.016Z</time></trkpt><trkpt lat="43.9000258" lon="11.9563785"><ele>740.0</ele><time>2026-04-04T13:36:14.008Z</time></trkpt><trkpt lat="43.9000909" lon="11.9563698"><ele>736.8571428571428</ele><time>2026-04-04T13:36:15.011Z</time></trkpt><trkpt lat="43.9001556" lon="11.9563656"><ele>733.7142857142857</ele><time>2026-04-04T13:36:16.01Z</time></trkpt><trkpt lat="43.9002217" lon="11.9563698"><ele>730.5714285714286</ele><time>2026-04-04T13:36:17.012Z</time></trkpt><trkpt lat="43.9002871" lon="11.95638"><ele>727.4285714285713</ele><time>2026-04-04T13:36:18.011Z</time></trkpt><trkpt lat="43.9003532" lon="11.9564005"><ele>724.2857142857143</ele><time>2026-04-04T13:36:19.006Z</time></trkpt><trkpt lat="43.9004187" lon="11.9564352"><ele>721.1428571428571</ele><time>2026-04-04T13:36:20.013Z</time></trkpt><trkpt lat="43.9004857" lon="11.9564883"><ele>718.0</ele><time>2026-04-04T13:36:21.009Z</time></trkpt><trkpt lat="43.9005552" lon="11.9565576"><ele>718.0</ele><time>2026-04-04T13:36:22.011Z</time></trkpt><trkpt lat="43.9006283" lon="11.9566828"><ele>718.0</ele><time>2026-04-04T13:36:23.007Z</time></trkpt><trkpt lat="43.900693" lon="11.9568285"><ele>718.0</ele><time>2026-04-04T13:36:24.006Z</time></trkpt><trkpt lat="43.9007401" lon="11.956959"><ele>718.0</ele><time>2026-04-04T13:36:25.007Z</time></trkpt><trkpt lat="43.9007752" lon="11.957066"><ele>718.0</ele><time>2026-04-04T13:36:26.008Z</time></trkpt><trkpt lat="43.9008053" lon="11.9571507"><ele>718.0</ele><time>2026-04-04T13:36:27.01Z</time></trkpt><trkpt lat="43.9008544" lon="11.9572401"><ele>718.0</ele><time>2026-04-04T13:36:29.006Z</time></trkpt><trkpt lat="43.9008519" lon="11.9571229"><ele>718.0</ele><time>2026-04-04T13:36:34.007Z</time></trkpt><trkpt lat="43.9007635" lon="11.9569665"><ele>718.0</ele><time>2026-04-04T13:36:36.093Z</time></trkpt><trkpt lat="43.9006972" lon="11.9568276"><ele>718.0</ele><time>2026-04-04T13:36:37.012Z</time></trkpt><trkpt lat="43.9006182" lon="11.9566702"><ele>718.0</ele><time>2026-04-04T13:36:38.014Z</time></trkpt><trkpt lat="43.9005279" lon="11.956538"><ele>718.0</ele><time>2026-04-04T13:36:39.009Z</time></trkpt><trkpt lat="43.9004238" lon="11.956436"><ele>718.0</ele><time>2026-04-04T13:36:40.009Z</time></trkpt><trkpt lat="43.9002861" lon="11.9563673"><ele>718.0</ele><time>2026-04-04T13:36:41.007Z</time></trkpt><trkpt lat="43.9001247" lon="11.9563431"><ele>725.3333333333334</ele><time>2026-04-04T13:36:42.009Z</time></trkpt><trkpt lat="43.8999439" lon="11.9563673"><ele>732.6666666666666</ele><time>2026-04-04T13:36:43.007Z</time></trkpt><trkpt lat="43.8997458" lon="11.956449"><ele>740.0</ele><time>2026-04-04T13:36:44.009Z</time></trkpt><trkpt lat="43.8995454" lon="11.9565526"><ele>740.0</ele><time>2026-04-04T13:36:45.008Z</time></trkpt><trkpt lat="43.8993614" lon="11.9566427"><ele>740.0</ele><time>2026-04-04T13:36:46.008Z</time></trkpt><trkpt lat="43.8991971" lon="11.9566968"><ele>740.0</ele><time>2026-04-04T13:36:47.008Z</time></trkpt><trkpt lat="43.8990488" lon="11.9567045"><ele>740.5</ele><time>2026-04-04T13:36:48.006Z</time></trkpt><trkpt lat="43.8989047" lon="11.9566694"><ele>741.0</ele><time>2026-04-04T13:36:49.011Z</time></trkpt><trkpt lat="43.8987628" lon="11.9565822"><ele>741.5</ele><time>2026-04-04T13:36:50.007Z</time></trkpt><trkpt lat="43.8986355" lon="11.9564797"><ele>742.0</ele><time>2026-04-04T13:36:51.007Z</time></trkpt><trkpt lat="43.8985198" lon="11.9564108"><ele>743.75</ele><time>2026-04-04T13:36:52.012Z</time></trkpt><trkpt lat="43.898409" lon="11.9563888"><ele>745.5</ele><time>2026-04-04T13:36:53.01Z</time></trkpt><trkpt lat="43.8982977" lon="11.956415"><ele>747.25</ele><time>2026-04-04T13:36:54.011Z</time></trkpt><trkpt lat="43.8982014" lon="11.9564903"><ele>749.0</ele><time>2026-04-04T13:36:55.009Z</time></trkpt><trkpt lat="43.8981132" lon="11.9566176"><ele>751.8000000000001</ele><time>2026-04-04T13:36:56.008Z</time></trkpt><trkpt lat="43.8980301" lon="11.9567571"><ele>754.6</ele><time>2026-04-04T13:36:57.008Z</time></trkpt><trkpt lat="43.8979545" lon="11.9568662"><ele>757.4</ele><time>2026-04-04T13:36:58.011Z</time></trkpt><trkpt lat="43.897887" lon="11.9569384"><ele>760.2</ele><time>2026-04-04T13:36:59.009Z</time></trkpt><trkpt lat="43.8978225" lon="11.9569766"><ele>763.0</ele><time>2026-04-04T13:37:00.009Z</time></trkpt><trkpt lat="43.8977218" lon="11.9569932"><ele>763.0</ele><time>2026-04-04T13:37:02.007Z</time></trkpt><trkpt lat="43.8977899" lon="11.95699"><ele>763.0</ele><time>2026-04-04T13:37:07.008Z</time></trkpt><trkpt lat="43.8978755" lon="11.9569028"><ele>763.0</ele><time>2026-04-04T13:37:08.012Z</time></trkpt><trkpt lat="43.8980011" lon="11.9567459"><ele>763.0</ele><time>2026-04-04T13:37:09.007Z</time></trkpt><trkpt lat="43.8981282" lon="11.9565885"><ele>759.5</ele><time>2026-04-04T13:37:10.009Z</time></trkpt><trkpt lat="43.8982424" lon="11.9564649"><ele>756.0</ele><time>2026-04-04T13:37:11.009Z</time></trkpt><trkpt lat="43.8983519" lon="11.9563999"><ele>752.5</ele><time>2026-04-04T13:37:12.006Z</time></trkpt><trkpt lat="43.8984684" lon="11.9564023"><ele>749.0</ele><time>2026-04-04T13:37:13.009Z</time></trkpt><trkpt lat="43.8985929" lon="11.9564618"><ele>746.6666666666666</ele><time>2026-04-04T13:37:14.007Z</time></trkpt><trkpt lat="43.8987291" lon="11.9565717"><ele>744.3333333333334</ele><time>2026-04-04T13:37:15.009Z</time></trkpt><trkpt lat="43.8988739" lon="11.9566725"><ele>742.0</ele><time>2026-04-04T13:37:16.007Z</time></trkpt><trkpt lat="43.899022" lon="11.9567204"><ele>741.3333333333334</ele><time>2026-04-04T13:37:17.007Z</time></trkpt><trkpt lat="43.8991837" lon="11.9567186"><ele>740.6666666666666</ele><time>2026-04-04T13:37:18.01Z</time></trkpt><trkpt lat="43.8993577" lon="11.9566669"><ele>740.0</ele><time>2026-04-04T13:37:19.009Z</time></trkpt><trkpt lat="43.8995417" lon="11.9565711"><ele>740.0</ele><time>2026-04-04T13:37:20.008Z</time></trkpt><trkpt lat="43.899725" lon="11.9564668"><ele>740.0</ele><time>2026-04-04T13:37:21.009Z</time></trkpt><trkpt lat="43.8999084" lon="11.9563926"><ele>740.0</ele><time>2026-04-04T13:37:22.006Z</time></trkpt><trkpt lat="43.9000856" lon="11.956357"><ele>732.6666666666666</ele><time>2026-04-04T13:37:23.01Z</time></trkpt><trkpt lat="43.9002561" lon="11.9563724"><ele>725.3333333333334</ele><time>2026-04-04T13:37:24.009Z</time></trkpt><trkpt lat="43.9004117" lon="11.95643"><ele>718.0</ele><time>2026-04-04T13:37:25.008Z</time></trkpt><trkpt lat="43.9005411" lon="11.9565259"><ele>718.0</ele><time>2026-04-04T13:37:26.007Z</time></trkpt><trkpt lat="43.9006423" lon="11.9566559"><ele>718.0</ele><time>2026-04-04T13:37:27.009Z</time></trkpt><trkpt lat="43.9007192" lon="11.956804"><ele>718.0</ele><time>2026-04-04T13:37:28.006Z</time></trkpt><trkpt lat="43.9007785" lon="11.9569708"><ele>718.0</ele><time>2026-04-04T13:37:29.012Z</time></trkpt><trkpt lat="43.9008324" lon="11.9571459"><ele>720.5</ele><time>2026-04-04T13:37:30.009Z</time></trkpt><trkpt lat="43.9008911" lon="11.9573141"><ele>723.0</ele><time>2026-04-04T13:37:31.008Z</time></trkpt><trkpt lat="43.9009574" lon="11.9574521"><ele>725.5</ele><time>2026-04-04T13:37:32.008Z</time></trkpt><trkpt lat="43.9010362" lon="11.9575456"><ele>728.0</ele><time>2026-04-04T13:37:33.011Z</time></trkpt><trkpt lat="43.9011253" lon="11.9575806"><ele>728.0</ele><time>2026-04-04T13:37:34.007Z</time></trkpt><trkpt lat="43.9012143" lon="11.9575636"><ele>728.0</ele><time>2026-04-04T13:37:35.007Z</time></trkpt><trkpt lat="43.9012904" lon="11.9574919"><ele>728.0</ele><time>2026-04-04T13:37:36.01Z</time></trkpt><trkpt lat="43.9013518" lon="11.9573743"><ele>728.0</ele><time>2026-04-04T13:37:37.007Z</time></trkpt><trkpt lat="43.9013955" lon="11.9572133"><ele>728.0</ele><time>2026-04-04T13:37:38.01Z</time></trkpt><trkpt lat="43.9014156" lon="11.9570104"><ele>728.0</ele><time>2026-04-04T13:37:39.008Z</time></trkpt><trkpt lat="43.9014215" lon="11.9567984"><ele>728.0</ele><time>2026-04-04T13:37:40.007Z</time></trkpt><trkpt lat="43.9014244" lon="11.9566083"><ele>728.0</ele><time>2026-04-04T13:37:41.007Z</time></trkpt><trkpt lat="43.9014323" lon="11.9564533"><ele>728.0</ele><time>2026-04-04T13:37:42.007Z</time></trkpt><trkpt lat="43.901459" lon="11.956338"><ele>723.8</ele><time>2026-04-04T13:37:43.006Z</time></trkpt><trkpt lat="43.9014998" lon="11.9562529"><ele>719.5999999999999</ele><time>2026-04-04T13:37:44.011Z</time></trkpt><trkpt lat="43.9016073" lon="11.9561671"><ele>715.4000000000001</ele><time>2026-04-04T13:37:46.008Z</time></trkpt><trkpt lat="43.9016883" lon="11.9562552"><ele>711.2</ele><time>2026-04-04T13:37:47.011Z</time></trkpt><trkpt lat="43.9017609" lon="11.9563719"><ele>707.0</ele><time>2026-04-04T13:37:48.006Z</time></trkpt><trkpt lat="43.9018394" lon="11.9565148"><ele>704.75</ele><time>2026-04-04T13:37:49.007Z</time></trkpt><trkpt lat="43.9019382" lon="11.9566348"><ele>702.5</ele><time>2026-04-04T13:37:50.009Z</time></trkpt><trkpt lat="43.9020539" lon="11.9567152"><ele>700.25</ele><time>2026-04-04T13:37:51.008Z</time></trkpt><trkpt lat="43.90219" lon="11.9567682"><ele>698.0</ele><time>2026-04-04T13:37:52.008Z</time></trkpt><trkpt lat="43.9023532" lon="11.9567826"><ele>696.0</ele><time>2026-04-04T13:37:53.01Z</time></trkpt><trkpt lat="43.9025384" lon="11.9567631"><ele>694.0</ele><time>2026-04-04T13:37:54.008Z</time></trkpt><trkpt lat="43.9027571" lon="11.9567076"><ele>692.0</ele><time>2026-04-04T13:37:55.008Z</time></trkpt><trkpt lat="43.9029489" lon="11.95665"><ele>692.0</ele><time>2026-04-04T13:37:56.006Z</time></trkpt><trkpt lat="43.9031241" lon="11.9566023"><ele>692.0</ele><time>2026-04-04T13:37:57.009Z</time></trkpt><trkpt lat="43.903304" lon="11.9565857"><ele>692.0</ele><time>2026-04-04T13:37:58.011Z</time></trkpt><trkpt lat="43.9034905" lon="11.956598"><ele>689.3333333333333</ele><time>2026-04-04T13:37:59.007Z</time></trkpt><trkpt lat="43.903667" lon="11.956624"><ele>686.6666666666666</ele><time>2026-04-04T13:38:00.005Z</time></trkpt><trkpt lat="43.9038251" lon="11.9566341"><ele>684.0</ele><time>2026-04-04T13:38:01.006Z</time></trkpt><trkpt lat="43.9039665" lon="11.9566021"><ele>684.0</ele><time>2026-04-04T13:38:02.007Z</time></trkpt><trkpt lat="43.9040895" lon="11.9565214"><ele>684.0</ele><time>2026-04-04T13:38:03.011Z</time></trkpt><trkpt lat="43.9041941" lon="11.9564014"><ele>684.0</ele><time>2026-04-04T13:38:04.008Z</time></trkpt><trkpt lat="43.904269" lon="11.956244"><ele>684.0</ele><time>2026-04-04T13:38:05.006Z</time></trkpt><trkpt lat="43.9043127" lon="11.9560558"><ele>682.6666666666666</ele><time>2026-04-04T13:38:06.006Z</time></trkpt><trkpt lat="43.9043229" lon="11.9558304"><ele>681.3333333333333</ele><time>2026-04-04T13:38:07.007Z</time></trkpt><trkpt lat="43.904313" lon="11.9555627"><ele>680.0</ele><time>2026-04-04T13:38:08.01Z</time></trkpt><trkpt lat="43.9043083" lon="11.9552663"><ele>677.6666666666666</ele><time>2026-04-04T13:38:09.014Z</time></trkpt><trkpt lat="43.9043255" lon="11.9549784"><ele>675.3333333333334</ele><time>2026-04-04T13:38:10.009Z</time></trkpt><trkpt lat="43.9043746" lon="11.9547066"><ele>673.0</ele><time>2026-04-04T13:38:11.008Z</time></trkpt><trkpt lat="43.9044563" lon="11.9544415"><ele>671.3333333333334</ele><time>2026-04-04T13:38:12.008Z</time></trkpt><trkpt lat="43.9045627" lon="11.9541819"><ele>669.6666666666666</ele><time>2026-04-04T13:38:13.007Z</time></trkpt><trkpt lat="43.9046663" lon="11.9539108"><ele>668.0</ele><time>2026-04-04T13:38:14.009Z</time></trkpt><trkpt lat="43.9047547" lon="11.9536207"><ele>669.0</ele><time>2026-04-04T13:38:15.007Z</time></trkpt><trkpt lat="43.9048132" lon="11.9532974"><ele>670.0</ele><time>2026-04-04T13:38:16.008Z</time></trkpt><trkpt lat="43.9048521" lon="11.9529431"><ele>670.0</ele><time>2026-04-04T13:38:17.01Z</time></trkpt><trkpt lat="43.9048846" lon="11.9525694"><ele>670.0</ele><time>2026-04-04T13:38:18.012Z</time></trkpt><trkpt lat="43.9049244" lon="11.9522045"><ele>670.5</ele><time>2026-04-04T13:38:19.006Z</time></trkpt><trkpt lat="43.9049641" lon="11.9518643"><ele>671.0</ele><time>2026-04-04T13:38:20.008Z</time></trkpt><trkpt lat="43.905005" lon="11.9515543"><ele>668.6666666666666</ele><time>2026-04-04T13:38:21.008Z</time></trkpt><trkpt lat="43.9050438" lon="11.9512767"><ele>666.3333333333334</ele><time>2026-04-04T13:38:22.009Z</time></trkpt><trkpt lat="43.9050847" lon="11.9510319"><ele>664.0</ele><time>2026-04-04T13:38:23.011Z</time></trkpt><trkpt lat="43.9051272" lon="11.9508165"><ele>669.6666666666667</ele><time>2026-04-04T13:38:24.007Z</time></trkpt><trkpt lat="43.9051989" lon="11.9506212"><ele>675.3333333333334</ele><time>2026-04-04T13:38:25.011Z</time></trkpt><trkpt lat="43.905307" lon="11.9504491"><ele>681.0</ele><time>2026-04-04T13:38:26.008Z</time></trkpt><trkpt lat="43.9054438" lon="11.9502775"><ele>681.0</ele><time>2026-04-04T13:38:27.008Z</time></trkpt><trkpt lat="43.9055976" lon="11.9500928"><ele>681.0</ele><time>2026-04-04T13:38:28.008Z</time></trkpt><trkpt lat="43.9057565" lon="11.9498925"><ele>681.0</ele><time>2026-04-04T13:38:29.008Z</time></trkpt><trkpt lat="43.9059115" lon="11.9496867"><ele>683.6666666666666</ele><time>2026-04-04T13:38:30.009Z</time></trkpt><trkpt lat="43.9060456" lon="11.9494626"><ele>686.3333333333333</ele><time>2026-04-04T13:38:31.007Z</time></trkpt><trkpt lat="43.906171" lon="11.9492049"><ele>689.0</ele><time>2026-04-04T13:38:32.008Z</time></trkpt><trkpt lat="43.9062851" lon="11.9489136"><ele>689.0</ele><time>2026-04-04T13:38:33.007Z</time></trkpt><trkpt lat="43.9063936" lon="11.948591"><ele>689.0</ele><time>2026-04-04T13:38:34.009Z</time></trkpt><trkpt lat="43.9065075" lon="11.948248"><ele>686.5</ele><time>2026-04-04T13:38:35.008Z</time></trkpt><trkpt lat="43.9066253" lon="11.9478989"><ele>684.0</ele><time>2026-04-04T13:38:36.01Z</time></trkpt><trkpt lat="43.9067405" lon="11.9475629"><ele>693.5</ele><time>2026-04-04T13:38:37.009Z</time></trkpt><trkpt lat="43.9068522" lon="11.947238"><ele>703.0</ele><time>2026-04-04T13:38:38.008Z</time></trkpt><trkpt lat="43.9069531" lon="11.9469209"><ele>698.0</ele><time>2026-04-04T13:38:39.008Z</time></trkpt><trkpt lat="43.907046" lon="11.9466033"><ele>693.0</ele><time>2026-04-04T13:38:40.008Z</time></trkpt><trkpt lat="43.9071289" lon="11.946303"><ele>693.0</ele><time>2026-04-04T13:38:41.008Z</time></trkpt><trkpt lat="43.9072023" lon="11.9460377"><ele>693.0</ele><time>2026-04-04T13:38:42.008Z</time></trkpt><trkpt lat="43.9072713" lon="11.9458022"><ele>693.0</ele><time>2026-04-04T13:38:43.009Z</time></trkpt><trkpt lat="43.9073511" lon="11.9455976"><ele>693.3333333333334</ele><time>2026-04-04T13:38:44.007Z</time></trkpt><trkpt lat="43.9074599" lon="11.9454227"><ele>693.6666666666667</ele><time>2026-04-04T13:38:45.008Z</time></trkpt><trkpt lat="43.9075954" lon="11.9452746"><ele>694.0</ele><time>2026-04-04T13:38:46.008Z</time></trkpt><trkpt lat="43.9077557" lon="11.9451551"><ele>694.0</ele><time>2026-04-04T13:38:47.006Z</time></trkpt><trkpt lat="43.9079414" lon="11.9450657"><ele>694.0</ele><time>2026-04-04T13:38:48.009Z</time></trkpt><trkpt lat="43.9081487" lon="11.9450104"><ele>694.0</ele><time>2026-04-04T13:38:49.01Z</time></trkpt><trkpt lat="43.9083716" lon="11.9449741"><ele>683.5</ele><time>2026-04-04T13:38:50.008Z</time></trkpt><trkpt lat="43.9086056" lon="11.9449271"><ele>673.0</ele><time>2026-04-04T13:38:51.009Z</time></trkpt><trkpt lat="43.9088479" lon="11.9448403"><ele>673.0</ele><time>2026-04-04T13:38:52.008Z</time></trkpt><trkpt lat="43.9090984" lon="11.9447155"><ele>673.0</ele><time>2026-04-04T13:38:53.007Z</time></trkpt><trkpt lat="43.9093599" lon="11.9445621"><ele>675.0</ele><time>2026-04-04T13:38:54.01Z</time></trkpt><trkpt lat="43.9096438" lon="11.9443989"><ele>677.0</ele><time>2026-04-04T13:38:55.012Z</time></trkpt><trkpt lat="43.9099376" lon="11.944237"><ele>670.0</ele><time>2026-04-04T13:38:56.011Z</time></trkpt><trkpt lat="43.91022" lon="11.9440755"><ele>663.0</ele><time>2026-04-04T13:38:57.008Z</time></trkpt><trkpt lat="43.9104849" lon="11.9439255"><ele>663.0</ele><time>2026-04-04T13:38:58.009Z</time></trkpt><trkpt lat="43.9107311" lon="11.9437861"><ele>663.0</ele><time>2026-04-04T13:38:59.007Z</time></trkpt><trkpt lat="43.9109558" lon="11.9436592"><ele>660.6666666666666</ele><time>2026-04-04T13:39:00.011Z</time></trkpt><trkpt lat="43.9111614" lon="11.9435438"><ele>658.3333333333333</ele><time>2026-04-04T13:39:01.006Z</time></trkpt><trkpt lat="43.9113488" lon="11.9434308"><ele>656.0</ele><time>2026-04-04T13:39:02.007Z</time></trkpt><trkpt lat="43.9115176" lon="11.9433163"><ele>656.0</ele><time>2026-04-04T13:39:03.008Z</time></trkpt><trkpt lat="43.9116624" lon="11.9431904"><ele>656.0</ele><time>2026-04-04T13:39:04.011Z</time></trkpt><trkpt lat="43.9117841" lon="11.9430442"><ele>656.0</ele><time>2026-04-04T13:39:05.008Z</time></trkpt><trkpt lat="43.9118865" lon="11.942868"><ele>658.0</ele><time>2026-04-04T13:39:06.01Z</time></trkpt><trkpt lat="43.9119733" lon="11.9426695"><ele>660.0</ele><time>2026-04-04T13:39:07.009Z</time></trkpt><trkpt lat="43.9120478" lon="11.9424538"><ele>662.0</ele><time>2026-04-04T13:39:08.008Z</time></trkpt><trkpt lat="43.912109" lon="11.942228"><ele>662.0</ele><time>2026-04-04T13:39:09.008Z</time></trkpt><trkpt lat="43.9121641" lon="11.9420068"><ele>662.0</ele><time>2026-04-04T13:39:10.009Z</time></trkpt><trkpt lat="43.9122163" lon="11.9417998"><ele>662.0</ele><time>2026-04-04T13:39:11.007Z</time></trkpt><trkpt lat="43.9122787" lon="11.9416134"><ele>660.0</ele><time>2026-04-04T13:39:12.01Z</time></trkpt><trkpt lat="43.9123564" lon="11.9414513"><ele>658.0</ele><time>2026-04-04T13:39:13.011Z</time></trkpt><trkpt lat="43.9124497" lon="11.9413038"><ele>656.0</ele><time>2026-04-04T13:39:14.012Z</time></trkpt><trkpt lat="43.9125607" lon="11.9411722"><ele>654.0</ele><time>2026-04-04T13:39:15.008Z</time></trkpt><trkpt lat="43.9126969" lon="11.9410654"><ele>654.0</ele><time>2026-04-04T13:39:16.009Z</time></trkpt><trkpt lat="43.9128613" lon="11.9409808"><ele>654.0</ele><time>2026-04-04T13:39:17.009Z</time></trkpt><trkpt lat="43.9130478" lon="11.9409096"><ele>654.0</ele><time>2026-04-04T13:39:18.01Z</time></trkpt><trkpt lat="43.9132343" lon="11.9408399"><ele>651.3333333333334</ele><time>2026-04-04T13:39:19.01Z</time></trkpt><trkpt lat="43.9134136" lon="11.9407608"><ele>648.6666666666667</ele><time>2026-04-04T13:39:20.009Z</time></trkpt><trkpt lat="43.9135822" lon="11.9406675"><ele>646.0</ele><time>2026-04-04T13:39:21.01Z</time></trkpt><trkpt lat="43.9137386" lon="11.9405565"><ele>646.0</ele><time>2026-04-04T13:39:22.009Z</time></trkpt><trkpt lat="43.9138883" lon="11.9404216"><ele>646.0</ele><time>2026-04-04T13:39:23.011Z</time></trkpt><trkpt lat="43.9140292" lon="11.9402593"><ele>646.0</ele><time>2026-04-04T13:39:24.009Z</time></trkpt><trkpt lat="43.9141569" lon="11.940075"><ele>645.6666666666667</ele><time>2026-04-04T13:39:25.009Z</time></trkpt><trkpt lat="43.9142726" lon="11.9398838"><ele>645.3333333333334</ele><time>2026-04-04T13:39:26.009Z</time></trkpt><trkpt lat="43.9143767" lon="11.9397003"><ele>645.0</ele><time>2026-04-04T13:39:27.009Z</time></trkpt><trkpt lat="43.9144757" lon="11.9395286"><ele>645.0</ele><time>2026-04-04T13:39:28.009Z</time></trkpt><trkpt lat="43.9145789" lon="11.9393656"><ele>645.0</ele><time>2026-04-04T13:39:29.008Z</time></trkpt><trkpt lat="43.9146935" lon="11.9392182"><ele>645.0</ele><time>2026-04-04T13:39:30.007Z</time></trkpt><trkpt lat="43.9148214" lon="11.9390917"><ele>642.3333333333334</ele><time>2026-04-04T13:39:31.006Z</time></trkpt><trkpt lat="43.9149612" lon="11.9389869"><ele>639.6666666666667</ele><time>2026-04-04T13:39:32.006Z</time></trkpt><trkpt lat="43.9151076" lon="11.9388992"><ele>637.0</ele><time>2026-04-04T13:39:33.011Z</time></trkpt><trkpt lat="43.9152482" lon="11.9388177"><ele>637.0</ele><time>2026-04-04T13:39:34.009Z</time></trkpt><trkpt lat="43.9153838" lon="11.9387423"><ele>637.0</ele><time>2026-04-04T13:39:35.009Z</time></trkpt><trkpt lat="43.9155099" lon="11.9386719"><ele>637.0</ele><time>2026-04-04T13:39:36.009Z</time></trkpt><trkpt lat="43.9156241" lon="11.9385976"><ele>637.0</ele><time>2026-04-04T13:39:37.009Z</time></trkpt><trkpt lat="43.915721" lon="11.9385072"><ele>637.0</ele><time>2026-04-04T13:39:38.009Z</time></trkpt><trkpt lat="43.915792" lon="11.9383928"><ele>637.0</ele><time>2026-04-04T13:39:39.008Z</time></trkpt><trkpt lat="43.9158327" lon="11.9382527"><ele>637.0</ele><time>2026-04-04T13:39:40.009Z</time></trkpt><trkpt lat="43.915839" lon="11.9380903"><ele>637.0</ele><time>2026-04-04T13:39:41.009Z</time></trkpt><trkpt lat="43.9158074" lon="11.9379153"><ele>633.6666666666667</ele><time>2026-04-04T13:39:42.01Z</time></trkpt><trkpt lat="43.9157323" lon="11.9377368"><ele>630.3333333333334</ele><time>2026-04-04T13:39:43.009Z</time></trkpt><trkpt lat="43.9156193" lon="11.9375515"><ele>627.0</ele><time>2026-04-04T13:39:44.008Z</time></trkpt><trkpt lat="43.9154688" lon="11.9373512"><ele>625.3333333333334</ele><time>2026-04-04T13:39:45.01Z</time></trkpt><trkpt lat="43.9153027" lon="11.9371449"><ele>623.6666666666667</ele><time>2026-04-04T13:39:46.008Z</time></trkpt><trkpt lat="43.9151404" lon="11.9369292"><ele>622.0</ele><time>2026-04-04T13:39:47.008Z</time></trkpt><trkpt lat="43.9149948" lon="11.9367053"><ele>619.3333333333334</ele><time>2026-04-04T13:39:48.009Z</time></trkpt><trkpt lat="43.9148712" lon="11.9364742"><ele>616.6666666666666</ele><time>2026-04-04T13:39:49.008Z</time></trkpt><trkpt lat="43.9147706" lon="11.9362392"><ele>614.0</ele><time>2026-04-04T13:39:50.014Z</time></trkpt><trkpt lat="43.9147015" lon="11.9359922"><ele>612.6666666666666</ele><time>2026-04-04T13:39:51.009Z</time></trkpt><trkpt lat="43.9146712" lon="11.9357301"><ele>611.3333333333334</ele><time>2026-04-04T13:39:52.009Z</time></trkpt><trkpt lat="43.9146727" lon="11.9354678"><ele>610.0</ele><time>2026-04-04T13:39:53.009Z</time></trkpt><trkpt lat="43.9147086" lon="11.9351887"><ele>606.0</ele><time>2026-04-04T13:39:54.008Z</time></trkpt><trkpt lat="43.9147827" lon="11.9348961"><ele>602.0</ele><time>2026-04-04T13:39:55.008Z</time></trkpt><trkpt lat="43.914886" lon="11.9346096"><ele>602.0</ele><time>2026-04-04T13:39:56.01Z</time></trkpt><trkpt lat="43.9149908" lon="11.9343365"><ele>602.0</ele><time>2026-04-04T13:39:57.009Z</time></trkpt><trkpt lat="43.9150863" lon="11.9340557"><ele>602.0</ele><time>2026-04-04T13:39:58.008Z</time></trkpt><trkpt lat="43.9151573" lon="11.9337664"><ele>599.3333333333333</ele><time>2026-04-04T13:39:59.009Z</time></trkpt><trkpt lat="43.9152049" lon="11.9334861"><ele>596.6666666666666</ele><time>2026-04-04T13:40:00.009Z</time></trkpt><trkpt lat="43.9152374" lon="11.9332178"><ele>594.0</ele><time>2026-04-04T13:40:01.009Z</time></trkpt><trkpt lat="43.9152565" lon="11.9329647"><ele>593.3333333333334</ele><time>2026-04-04T13:40:02.011Z</time></trkpt><trkpt lat="43.9152548" lon="11.9327225"><ele>592.6666666666667</ele><time>2026-04-04T13:40:03.009Z</time></trkpt><trkpt lat="43.9152205" lon="11.9324805"><ele>592.0</ele><time>2026-04-04T13:40:04.009Z</time></trkpt><trkpt lat="43.9151496" lon="11.9322297"><ele>588.5</ele><time>2026-04-04T13:40:05.01Z</time></trkpt><trkpt lat="43.9150355" lon="11.9319612"><ele>585.0</ele><time>2026-04-04T13:40:06.009Z</time></trkpt><trkpt lat="43.9148633" lon="11.93166"><ele>582.5</ele><time>2026-04-04T13:40:07.013Z</time></trkpt><trkpt lat="43.9146767" lon="11.9313383"><ele>580.0</ele><time>2026-04-04T13:40:08.01Z</time></trkpt><trkpt lat="43.914495" lon="11.9310183"><ele>575.5</ele><time>2026-04-04T13:40:09.01Z</time></trkpt><trkpt lat="43.9143283" lon="11.9307133"><ele>571.0</ele><time>2026-04-04T13:40:10.008Z</time></trkpt><trkpt lat="43.9141817" lon="11.9304183"><ele>571.0</ele><time>2026-04-04T13:40:11.007Z</time></trkpt><trkpt lat="43.9140533" lon="11.930135"><ele>571.0</ele><time>2026-04-04T13:40:12.008Z</time></trkpt><trkpt lat="43.913945" lon="11.9298467"><ele>570.0</ele><time>2026-04-04T13:40:13.009Z</time></trkpt><trkpt lat="43.9138617" lon="11.929545"><ele>569.0</ele><time>2026-04-04T13:40:14.009Z</time></trkpt><trkpt lat="43.9137867" lon="11.9292267"><ele>566.5</ele><time>2026-04-04T13:40:15.007Z</time></trkpt><trkpt lat="43.91372" lon="11.928895"><ele>564.0</ele><time>2026-04-04T13:40:16.013Z</time></trkpt><trkpt lat="43.91366" lon="11.9285717"><ele>562.0</ele><time>2026-04-04T13:40:17.009Z</time></trkpt><trkpt lat="43.9135917" lon="11.92827"><ele>560.0</ele><time>2026-04-04T13:40:18.009Z</time></trkpt><trkpt lat="43.9135367" lon="11.927985"><ele>558.0</ele><time>2026-04-04T13:40:19.009Z</time></trkpt><trkpt lat="43.91349" lon="11.92772"><ele>555.6666666666666</ele><time>2026-04-04T13:40:20.01Z</time></trkpt><trkpt lat="43.9134617" lon="11.9274683"><ele>553.3333333333333</ele><time>2026-04-04T13:40:21.01Z</time></trkpt><trkpt lat="43.9134567" lon="11.9272233"><ele>551.0</ele><time>2026-04-04T13:40:22.01Z</time></trkpt><trkpt lat="43.9134667" lon="11.9269767"><ele>551.0</ele><time>2026-04-04T13:40:23.008Z</time></trkpt><trkpt lat="43.9134917" lon="11.9267283"><ele>551.0</ele><time>2026-04-04T13:40:24.008Z</time></trkpt><trkpt lat="43.9135333" lon="11.9264783"><ele>551.0</ele><time>2026-04-04T13:40:25.008Z</time></trkpt><trkpt lat="43.913585" lon="11.9262167"><ele>550.0</ele><time>2026-04-04T13:40:26.012Z</time></trkpt><trkpt lat="43.9136583" lon="11.925925"><ele>549.0</ele><time>2026-04-04T13:40:27.009Z</time></trkpt><trkpt lat="43.9137483" lon="11.9256117"><ele>551.0</ele><time>2026-04-04T13:40:28.009Z</time></trkpt><trkpt lat="43.9138617" lon="11.9253067"><ele>553.0</ele><time>2026-04-04T13:40:29.008Z</time></trkpt><trkpt lat="43.913975" lon="11.9250283"><ele>551.3333333333334</ele><time>2026-04-04T13:40:30.009Z</time></trkpt><trkpt lat="43.9140833" lon="11.9247683"><ele>549.6666666666666</ele><time>2026-04-04T13:40:31.011Z</time></trkpt><trkpt lat="43.9141833" lon="11.9245267"><ele>548.0</ele><time>2026-04-04T13:40:32.009Z</time></trkpt><trkpt lat="43.9142683" lon="11.9243"><ele>551.3333333333333</ele><time>2026-04-04T13:40:33.01Z</time></trkpt><trkpt lat="43.914365" lon="11.9241033"><ele>554.6666666666666</ele><time>2026-04-04T13:40:34.01Z</time></trkpt><trkpt lat="43.9144717" lon="11.92393"><ele>558.0</ele><time>2026-04-04T13:40:35.007Z</time></trkpt><trkpt lat="43.9146217" lon="11.9237833"><ele>558.0</ele><time>2026-04-04T13:40:36.013Z</time></trkpt><trkpt lat="43.9148067" lon="11.9236767"><ele>558.0</ele><time>2026-04-04T13:40:37.008Z</time></trkpt><trkpt lat="43.9149883" lon="11.9235833"><ele>558.0</ele><time>2026-04-04T13:40:38.01Z</time></trkpt><trkpt lat="43.9151717" lon="11.9234767"><ele>558.5</ele><time>2026-04-04T13:40:39.008Z</time></trkpt><trkpt lat="43.9153667" lon="11.923325"><ele>559.0</ele><time>2026-04-04T13:40:40.01Z</time></trkpt><trkpt lat="43.9155617" lon="11.9231217"><ele>559.0</ele><time>2026-04-04T13:40:41.008Z</time></trkpt><trkpt lat="43.9157585" lon="11.9228815"><ele>559.0</ele><time>2026-04-04T13:40:42.009Z</time></trkpt><trkpt lat="43.91594" lon="11.9226375"><ele>557.0</ele><time>2026-04-04T13:40:43.009Z</time></trkpt><trkpt lat="43.9161021" lon="11.9224144"><ele>555.0</ele><time>2026-04-04T13:40:44.008Z</time></trkpt><trkpt lat="43.9162484" lon="11.9222042"><ele>553.0</ele><time>2026-04-04T13:40:45.011Z</time></trkpt><trkpt lat="43.9163854" lon="11.9219808"><ele>559.5</ele><time>2026-04-04T13:40:46.008Z</time></trkpt><trkpt lat="43.91652" lon="11.9217174"><ele>566.0</ele><time>2026-04-04T13:40:47.008Z</time></trkpt><trkpt lat="43.9166434" lon="11.9214264"><ele>558.0</ele><time>2026-04-04T13:40:48.01Z</time></trkpt><trkpt lat="43.9167579" lon="11.921138"><ele>550.0</ele><time>2026-04-04T13:40:49.013Z</time></trkpt><trkpt lat="43.9168849" lon="11.9208596"><ele>550.0</ele><time>2026-04-04T13:40:50.008Z</time></trkpt><trkpt lat="43.9170414" lon="11.920586"><ele>550.0</ele><time>2026-04-04T13:40:51.009Z</time></trkpt><trkpt lat="43.9172114" lon="11.9203251"><ele>550.0</ele><time>2026-04-04T13:40:52.011Z</time></trkpt><trkpt lat="43.9173982" lon="11.9200778"><ele>550.0</ele><time>2026-04-04T13:40:53.009Z</time></trkpt><trkpt lat="43.9175936" lon="11.9198517"><ele>547.0</ele><time>2026-04-04T13:40:54.007Z</time></trkpt><trkpt lat="43.9177924" lon="11.9196547"><ele>544.0</ele><time>2026-04-04T13:40:55.01Z</time></trkpt><trkpt lat="43.9179805" lon="11.9194804"><ele>544.0</ele><time>2026-04-04T13:40:56.009Z</time></trkpt><trkpt lat="43.9181639" lon="11.9193298"><ele>544.0</ele><time>2026-04-04T13:40:57.009Z</time></trkpt><trkpt lat="43.9183551" lon="11.9192019"><ele>544.0</ele><time>2026-04-04T13:40:58.009Z</time></trkpt><trkpt lat="43.9185615" lon="11.9190982"><ele>546.3333333333334</ele><time>2026-04-04T13:40:59.007Z</time></trkpt><trkpt lat="43.9187709" lon="11.9190213"><ele>548.6666666666666</ele><time>2026-04-04T13:41:00.009Z</time></trkpt><trkpt lat="43.9189681" lon="11.9189502"><ele>551.0</ele><time>2026-04-04T13:41:01.009Z</time></trkpt><trkpt lat="43.9191365" lon="11.9188566"><ele>552.6666666666666</ele><time>2026-04-04T13:41:02.015Z</time></trkpt><trkpt lat="43.9192798" lon="11.9187338"><ele>554.3333333333334</ele><time>2026-04-04T13:41:03.008Z</time></trkpt><trkpt lat="43.9194087" lon="11.918559"><ele>556.0</ele><time>2026-04-04T13:41:04.009Z</time></trkpt><trkpt lat="43.919517" lon="11.9183535"><ele>556.0</ele><time>2026-04-04T13:41:05.008Z</time></trkpt><trkpt lat="43.9196102" lon="11.918153"><ele>556.0</ele><time>2026-04-04T13:41:06.008Z</time></trkpt><trkpt lat="43.9197103" lon="11.9179815"><ele>556.0</ele><time>2026-04-04T13:41:07.009Z</time></trkpt><trkpt lat="43.9198315" lon="11.9178332"><ele>556.0</ele><time>2026-04-04T13:41:08.009Z</time></trkpt><trkpt lat="43.919984" lon="11.9177053"><ele>556.0</ele><time>2026-04-04T13:41:09.009Z</time></trkpt><trkpt lat="43.9201746" lon="11.917599"><ele>556.0</ele><time>2026-04-04T13:41:10.007Z</time></trkpt><trkpt lat="43.9204011" lon="11.9175069"><ele>554.0</ele><time>2026-04-04T13:41:11.009Z</time></trkpt><trkpt lat="43.9206525" lon="11.9174142"><ele>552.0</ele><time>2026-04-04T13:41:12.01Z</time></trkpt><trkpt lat="43.9209078" lon="11.9173162"><ele>547.5</ele><time>2026-04-04T13:41:13.007Z</time></trkpt><trkpt lat="43.9211525" lon="11.9172148"><ele>543.0</ele><time>2026-04-04T13:41:14.008Z</time></trkpt><trkpt lat="43.9213804" lon="11.9171097"><ele>543.0</ele><time>2026-04-04T13:41:15.006Z</time></trkpt><trkpt lat="43.9215948" lon="11.9169944"><ele>543.0</ele><time>2026-04-04T13:41:16.006Z</time></trkpt><trkpt lat="43.9218013" lon="11.9168835"><ele>543.6666666666666</ele><time>2026-04-04T13:41:17.007Z</time></trkpt><trkpt lat="43.921992" lon="11.9167875"><ele>544.3333333333333</ele><time>2026-04-04T13:41:18.009Z</time></trkpt><trkpt lat="43.9221707" lon="11.9167326"><ele>545.0</ele><time>2026-04-04T13:41:19.006Z</time></trkpt><trkpt lat="43.9223373" lon="11.916722"><ele>545.0</ele><time>2026-04-04T13:41:20.007Z</time></trkpt><trkpt lat="43.9224881" lon="11.916734"><ele>545.0</ele><time>2026-04-04T13:41:21.007Z</time></trkpt><trkpt lat="43.9226274" lon="11.9167343"><ele>545.0</ele><time>2026-04-04T13:41:22.006Z</time></trkpt><trkpt lat="43.9227541" lon="11.9166874"><ele>545.0</ele><time>2026-04-04T13:41:23.006Z</time></trkpt><trkpt lat="43.9228677" lon="11.9165894"><ele>538.3333333333333</ele><time>2026-04-04T13:41:24.006Z</time></trkpt><trkpt lat="43.9229691" lon="11.9164409"><ele>531.6666666666666</ele><time>2026-04-04T13:41:25.01Z</time></trkpt><trkpt lat="43.9230605" lon="11.9162377"><ele>525.0</ele><time>2026-04-04T13:41:26.007Z</time></trkpt><trkpt lat="43.9231247" lon="11.915992"><ele>527.3333333333334</ele><time>2026-04-04T13:41:27.008Z</time></trkpt><trkpt lat="43.9231825" lon="11.9157496"><ele>529.6666666666667</ele><time>2026-04-04T13:41:28.008Z</time></trkpt><trkpt lat="43.9232581" lon="11.9155393"><ele>532.0</ele><time>2026-04-04T13:41:29.006Z</time></trkpt><trkpt lat="43.9233486" lon="11.9153701"><ele>529.0</ele><time>2026-04-04T13:41:30.008Z</time></trkpt><trkpt lat="43.9234601" lon="11.9152532"><ele>526.0</ele><time>2026-04-04T13:41:31.008Z</time></trkpt><trkpt lat="43.9235868" lon="11.9151941"><ele>523.0</ele><time>2026-04-04T13:41:32.008Z</time></trkpt><trkpt lat="43.9237268" lon="11.9151764"><ele>520.0</ele><time>2026-04-04T13:41:33.008Z</time></trkpt><trkpt lat="43.9238726" lon="11.9151671"><ele>520.0</ele><time>2026-04-04T13:41:34.007Z</time></trkpt><trkpt lat="43.9240109" lon="11.9151326"><ele>520.0</ele><time>2026-04-04T13:41:35.007Z</time></trkpt><trkpt lat="43.9241304" lon="11.9150572"><ele>520.0</ele><time>2026-04-04T13:41:36.009Z</time></trkpt><trkpt lat="43.9242454" lon="11.9149235"><ele>520.0</ele><time>2026-04-04T13:41:37.008Z</time></trkpt><trkpt lat="43.9243551" lon="11.9147624"><ele>522.6666666666667</ele><time>2026-04-04T13:41:38.007Z</time></trkpt><trkpt lat="43.9244616" lon="11.9146138"><ele>525.3333333333334</ele><time>2026-04-04T13:41:39.009Z</time></trkpt><trkpt lat="43.9245839" lon="11.9144975"><ele>528.0</ele><time>2026-04-04T13:41:40.009Z</time></trkpt><trkpt lat="43.9247299" lon="11.9144304"><ele>528.0</ele><time>2026-04-04T13:41:41.009Z</time></trkpt><trkpt lat="43.9248995" lon="11.914417"><ele>528.0</ele><time>2026-04-04T13:41:42.008Z</time></trkpt><trkpt lat="43.9250777" lon="11.914417"><ele>528.0</ele><time>2026-04-04T13:41:43.008Z</time></trkpt><trkpt lat="43.925269" lon="11.9143943"><ele>527.3333333333334</ele><time>2026-04-04T13:41:44.011Z</time></trkpt><trkpt lat="43.9254735" lon="11.9143367"><ele>526.6666666666667</ele><time>2026-04-04T13:41:45.008Z</time></trkpt><trkpt lat="43.9256713" lon="11.9142618"><ele>526.0</ele><time>2026-04-04T13:41:46.007Z</time></trkpt><trkpt lat="43.9258527" lon="11.9141864"><ele>529.0</ele><time>2026-04-04T13:41:47.007Z</time></trkpt><trkpt lat="43.9260122" lon="11.9141169"><ele>532.0</ele><time>2026-04-04T13:41:48.01Z</time></trkpt><trkpt lat="43.9261596" lon="11.9140204"><ele>535.0</ele><time>2026-04-04T13:41:49.007Z</time></trkpt><trkpt lat="43.9263037" lon="11.9138602"><ele>535.0</ele><time>2026-04-04T13:41:50.008Z</time></trkpt><trkpt lat="43.9264404" lon="11.913647"><ele>535.0</ele><time>2026-04-04T13:41:51.006Z</time></trkpt><trkpt lat="43.9265772" lon="11.9134059"><ele>535.0</ele><time>2026-04-04T13:41:52.008Z</time></trkpt><trkpt lat="43.9267127" lon="11.91317"><ele>534.6666666666667</ele><time>2026-04-04T13:41:53.009Z</time></trkpt><trkpt lat="43.9268442" lon="11.9129755"><ele>534.3333333333334</ele><time>2026-04-04T13:41:54.006Z</time></trkpt><trkpt lat="43.926988" lon="11.9128331"><ele>534.0</ele><time>2026-04-04T13:41:55.008Z</time></trkpt><trkpt lat="43.9271499" lon="11.9127247"><ele>534.0</ele><time>2026-04-04T13:41:56.006Z</time></trkpt><trkpt lat="43.9273269" lon="11.9126171"><ele>534.0</ele><time>2026-04-04T13:41:57.01Z</time></trkpt><trkpt lat="43.9275039" lon="11.9125084"><ele>534.0</ele><time>2026-04-04T13:41:58.007Z</time></trkpt><trkpt lat="43.927687" lon="11.9124152"><ele>535.0</ele><time>2026-04-04T13:41:59.006Z</time></trkpt><trkpt lat="43.9278865" lon="11.9123497"><ele>536.0</ele><time>2026-04-04T13:42:00.016Z</time></trkpt><trkpt lat="43.9280936" lon="11.9123149"><ele>537.0</ele><time>2026-04-04T13:42:01.006Z</time></trkpt><trkpt lat="43.9282939" lon="11.912293"><ele>533.3333333333334</ele><time>2026-04-04T13:42:02.006Z</time></trkpt><trkpt lat="43.928483" lon="11.9122669"><ele>529.6666666666667</ele><time>2026-04-04T13:42:03.008Z</time></trkpt><trkpt lat="43.9286593" lon="11.9122424"><ele>526.0</ele><time>2026-04-04T13:42:04.008Z</time></trkpt><trkpt lat="43.9288192" lon="11.9122212"><ele>526.0</ele><time>2026-04-04T13:42:05.006Z</time></trkpt><trkpt lat="43.9289651" lon="11.9121875"><ele>526.0</ele><time>2026-04-04T13:42:06.006Z</time></trkpt><trkpt lat="43.9291057" lon="11.9121278"><ele>526.0</ele><time>2026-04-04T13:42:07.01Z</time></trkpt><trkpt lat="43.9292495" lon="11.912015"><ele>524.6666666666667</ele><time>2026-04-04T13:42:08.008Z</time></trkpt><trkpt lat="43.9293956" lon="11.9118485"><ele>523.3333333333334</ele><time>2026-04-04T13:42:09.009Z</time></trkpt><trkpt lat="43.9295284" lon="11.9116625"><ele>522.0</ele><time>2026-04-04T13:42:10.006Z</time></trkpt><trkpt lat="43.9296556" lon="11.9114897"><ele>522.0</ele><time>2026-04-04T13:42:11.006Z</time></trkpt><trkpt lat="43.929797" lon="11.9113464"><ele>522.0</ele><time>2026-04-04T13:42:12.008Z</time></trkpt><trkpt lat="43.9299685" lon="11.9112336"><ele>522.0</ele><time>2026-04-04T13:42:13.006Z</time></trkpt><trkpt lat="43.9301787" lon="11.9111489"><ele>514.5</ele><time>2026-04-04T13:42:14.005Z</time></trkpt><trkpt lat="43.9304115" lon="11.9110874"><ele>507.0</ele><time>2026-04-04T13:42:15.006Z</time></trkpt><trkpt lat="43.9306431" lon="11.9110425"><ele>507.0</ele><time>2026-04-04T13:42:16.007Z</time></trkpt><trkpt lat="43.9308585" lon="11.9109937"><ele>507.0</ele><time>2026-04-04T13:42:17.009Z</time></trkpt><trkpt lat="43.9310506" lon="11.9109391"><ele>507.0</ele><time>2026-04-04T13:42:18.006Z</time></trkpt><trkpt lat="43.9312234" lon="11.9108827"><ele>508.25</ele><time>2026-04-04T13:42:19.007Z</time></trkpt><trkpt lat="43.9313776" lon="11.9108233"><ele>509.5</ele><time>2026-04-04T13:42:20.006Z</time></trkpt><trkpt lat="43.931509" lon="11.9107599"><ele>510.75</ele><time>2026-04-04T13:42:21.007Z</time></trkpt><trkpt lat="43.931623" lon="11.9107073"><ele>512.0</ele><time>2026-04-04T13:42:22.006Z</time></trkpt><trkpt lat="43.9317237" lon="11.9106891"><ele>512.3333333333333</ele><time>2026-04-04T13:42:23.006Z</time></trkpt><trkpt lat="43.9318051" lon="11.9107083"><ele>512.6666666666666</ele><time>2026-04-04T13:42:24.006Z</time></trkpt><trkpt lat="43.9318735" lon="11.9107511"><ele>513.0</ele><time>2026-04-04T13:42:25.007Z</time></trkpt><trkpt lat="43.9319239" lon="11.9108106"><ele>513.3333333333334</ele><time>2026-04-04T13:42:26.007Z</time></trkpt><trkpt lat="43.931894" lon="11.9109188"><ele>513.6666666666667</ele><time>2026-04-04T13:42:27.005Z</time></trkpt><trkpt lat="43.9318445" lon="11.9110265"><ele>514.0</ele><time>2026-04-04T13:42:28.005Z</time></trkpt><trkpt lat="43.9316997" lon="11.9111382"><ele>509.33333333333337</ele><time>2026-04-04T13:42:29.009Z</time></trkpt><trkpt lat="43.9315189" lon="11.9112547"><ele>504.66666666666663</ele><time>2026-04-04T13:42:30.007Z</time></trkpt><trkpt lat="43.9313244" lon="11.9113753"><ele>500.0</ele><time>2026-04-04T13:42:31.007Z</time></trkpt><trkpt lat="43.9311345" lon="11.9114943"><ele>500.0</ele><time>2026-04-04T13:42:32.009Z</time></trkpt><trkpt lat="43.9309642" lon="11.9116023"><ele>500.0</ele><time>2026-04-04T13:42:33.008Z</time></trkpt><trkpt lat="43.930827" lon="11.9117102"><ele>500.0</ele><time>2026-04-04T13:42:34.006Z</time></trkpt><trkpt lat="43.9307154" lon="11.9118374"><ele>499.0</ele><time>2026-04-04T13:42:35.012Z</time></trkpt><trkpt lat="43.9306243" lon="11.9120012"><ele>498.0</ele><time>2026-04-04T13:42:36.009Z</time></trkpt><trkpt lat="43.9305539" lon="11.9122089"><ele>497.0</ele><time>2026-04-04T13:42:37.011Z</time></trkpt><trkpt lat="43.9304971" lon="11.9124326"><ele>495.0</ele><time>2026-04-04T13:42:38.008Z</time></trkpt><trkpt lat="43.930455" lon="11.9126396"><ele>493.0</ele><time>2026-04-04T13:42:39.013Z</time></trkpt><trkpt lat="43.9304199" lon="11.9128177"><ele>491.0</ele><time>2026-04-04T13:42:40.007Z</time></trkpt><trkpt lat="43.9303896" lon="11.9129649"><ele>489.0</ele><time>2026-04-04T13:42:41.007Z</time></trkpt><trkpt lat="43.930382" lon="11.9130852"><ele>489.0</ele><time>2026-04-04T13:42:42.008Z</time></trkpt><trkpt lat="43.9303929" lon="11.913194"><ele>489.0</ele><time>2026-04-04T13:42:43.01Z</time></trkpt><trkpt lat="43.9304193" lon="11.9132863"><ele>489.0</ele><time>2026-04-04T13:42:44.008Z</time></trkpt><trkpt lat="43.9304507" lon="11.9133633"><ele>489.0</ele><time>2026-04-04T13:42:45.009Z</time></trkpt><trkpt lat="43.9305885" lon="11.9133466"><ele>489.0</ele><time>2026-04-04T13:42:47.006Z</time></trkpt><trkpt lat="43.9306637" lon="11.9132057"><ele>489.0</ele><time>2026-04-04T13:42:48.009Z</time></trkpt><trkpt lat="43.9307347" lon="11.9130211"><ele>489.0</ele><time>2026-04-04T13:42:49.008Z</time></trkpt><trkpt lat="43.9308398" lon="11.9127693"><ele>489.0</ele><time>2026-04-04T13:42:50.008Z</time></trkpt><trkpt lat="43.9309464" lon="11.9125828"><ele>488.0</ele><time>2026-04-04T13:42:51.009Z</time></trkpt><trkpt lat="43.9310702" lon="11.9124595"><ele>487.0</ele><time>2026-04-04T13:42:52.008Z</time></trkpt><trkpt lat="43.931217" lon="11.9123842"><ele>486.0</ele><time>2026-04-04T13:42:53.008Z</time></trkpt><trkpt lat="43.9313909" lon="11.91235"><ele>486.0</ele><time>2026-04-04T13:42:54.008Z</time></trkpt><trkpt lat="43.9315633" lon="11.9123418"><ele>486.0</ele><time>2026-04-04T13:42:55.009Z</time></trkpt><trkpt lat="43.9317223" lon="11.9123599"><ele>486.0</ele><time>2026-04-04T13:42:56.009Z</time></trkpt><trkpt lat="43.9318804" lon="11.912428"><ele>487.33333333333337</ele><time>2026-04-04T13:42:57.008Z</time></trkpt><trkpt lat="43.9320392" lon="11.9125517"><ele>488.6666666666667</ele><time>2026-04-04T13:42:58.008Z</time></trkpt><trkpt lat="43.9321931" lon="11.9127187"><ele>490.0</ele><time>2026-04-04T13:42:59.008Z</time></trkpt><trkpt lat="43.9323264" lon="11.912909"><ele>486.0</ele><time>2026-04-04T13:43:00.007Z</time></trkpt><trkpt lat="43.9324372" lon="11.913113"><ele>482.0</ele><time>2026-04-04T13:43:01.011Z</time></trkpt><trkpt lat="43.9325289" lon="11.913326"><ele>478.0</ele><time>2026-04-04T13:43:02.007Z</time></trkpt><trkpt lat="43.9326107" lon="11.9135232"><ele>475.33333333333337</ele><time>2026-04-04T13:43:03.008Z</time></trkpt><trkpt lat="43.9326965" lon="11.9136941"><ele>472.66666666666663</ele><time>2026-04-04T13:43:04.005Z</time></trkpt><trkpt lat="43.9328139" lon="11.9138424"><ele>470.0</ele><time>2026-04-04T13:43:05.007Z</time></trkpt><trkpt lat="43.9329698" lon="11.91398"><ele>470.0</ele><time>2026-04-04T13:43:06.011Z</time></trkpt><trkpt lat="43.9331489" lon="11.9141082"><ele>470.0</ele><time>2026-04-04T13:43:07.006Z</time></trkpt><trkpt lat="43.9333173" lon="11.914225"><ele>470.0</ele><time>2026-04-04T13:43:08.005Z</time></trkpt><trkpt lat="43.9334627" lon="11.9143253"><ele>464.0</ele><time>2026-04-04T13:43:09.008Z</time></trkpt><trkpt lat="43.9335944" lon="11.9144122"><ele>458.0</ele><time>2026-04-04T13:43:10.006Z</time></trkpt><trkpt lat="43.9337178" lon="11.9144789"><ele>452.0</ele><time>2026-04-04T13:43:11.011Z</time></trkpt><trkpt lat="43.9338314" lon="11.9144989"><ele>446.0</ele><time>2026-04-04T13:43:12.01Z</time></trkpt><trkpt lat="43.9339352" lon="11.914471"><ele>446.0</ele><time>2026-04-04T13:43:13.007Z</time></trkpt><trkpt lat="43.9340346" lon="11.9143785"><ele>446.0</ele><time>2026-04-04T13:43:14.007Z</time></trkpt><trkpt lat="43.9341279" lon="11.9142065"><ele>446.0</ele><time>2026-04-04T13:43:15.007Z</time></trkpt><trkpt lat="43.9342247" lon="11.9140211"><ele>446.0</ele><time>2026-04-04T13:43:16.007Z</time></trkpt><trkpt lat="43.9343409" lon="11.9138536"><ele>446.3333333333333</ele><time>2026-04-04T13:43:17.007Z</time></trkpt><trkpt lat="43.9344859" lon="11.9137173"><ele>446.66666666666663</ele><time>2026-04-04T13:43:18.005Z</time></trkpt><trkpt lat="43.9346683" lon="11.913611"><ele>447.0</ele><time>2026-04-04T13:43:19.005Z</time></trkpt><trkpt lat="43.9348581" lon="11.9135238"><ele>447.0</ele><time>2026-04-04T13:43:20.007Z</time></trkpt><trkpt lat="43.9350353" lon="11.9134578"><ele>447.0</ele><time>2026-04-04T13:43:21.008Z</time></trkpt><trkpt lat="43.9351945" lon="11.9134239"><ele>447.0</ele><time>2026-04-04T13:43:22.008Z</time></trkpt><trkpt lat="43.9353527" lon="11.913438"><ele>445.33333333333337</ele><time>2026-04-04T13:43:23.007Z</time></trkpt><trkpt lat="43.9355238" lon="11.9134668"><ele>443.6666666666667</ele><time>2026-04-04T13:43:24.006Z</time></trkpt><trkpt lat="43.9357134" lon="11.913476"><ele>442.0</ele><time>2026-04-04T13:43:25.008Z</time></trkpt><trkpt lat="43.9359036" lon="11.9134698"><ele>441.33333333333337</ele><time>2026-04-04T13:43:26.009Z</time></trkpt><trkpt lat="43.9360901" lon="11.9134709"><ele>440.66666666666663</ele><time>2026-04-04T13:43:27.006Z</time></trkpt><trkpt lat="43.9362826" lon="11.9135105"><ele>440.0</ele><time>2026-04-04T13:43:28.006Z</time></trkpt><trkpt lat="43.9364696" lon="11.9135931"><ele>440.0</ele><time>2026-04-04T13:43:29.006Z</time></trkpt><trkpt lat="43.9366428" lon="11.9136897"><ele>440.0</ele><time>2026-04-04T13:43:30.007Z</time></trkpt><trkpt lat="43.9368125" lon="11.9137663"><ele>440.0</ele><time>2026-04-04T13:43:31.007Z</time></trkpt><trkpt lat="43.9369855" lon="11.9138077"><ele>438.66666666666663</ele><time>2026-04-04T13:43:32.009Z</time></trkpt><trkpt lat="43.937172" lon="11.913809"><ele>437.33333333333337</ele><time>2026-04-04T13:43:33.006Z</time></trkpt><trkpt lat="43.9373648" lon="11.9137756"><ele>436.0</ele><time>2026-04-04T13:43:34.006Z</time></trkpt><trkpt lat="43.9375477" lon="11.9137333"><ele>436.0</ele><time>2026-04-04T13:43:35.007Z</time></trkpt><trkpt lat="43.9377101" lon="11.9136943"><ele>436.0</ele><time>2026-04-04T13:43:36.009Z</time></trkpt><trkpt lat="43.9378514" lon="11.9136622"><ele>436.0</ele><time>2026-04-04T13:43:37.008Z</time></trkpt><trkpt lat="43.9379712" lon="11.9136243"><ele>436.0</ele><time>2026-04-04T13:43:38.007Z</time></trkpt><trkpt lat="43.9380672" lon="11.9135762"><ele>436.0</ele><time>2026-04-04T13:43:39.008Z</time></trkpt><trkpt lat="43.9381297" lon="11.9134947"><ele>436.0</ele><time>2026-04-04T13:43:40.007Z</time></trkpt><trkpt lat="43.938178" lon="11.9133941"><ele>436.0</ele><time>2026-04-04T13:43:41.011Z</time></trkpt><trkpt lat="43.9381967" lon="11.9132537"><ele>436.0</ele><time>2026-04-04T13:43:42.009Z</time></trkpt><trkpt lat="43.938183" lon="11.9130766"><ele>436.0</ele><time>2026-04-04T13:43:43.009Z</time></trkpt><trkpt lat="43.9381254" lon="11.9128442"><ele>435.6666666666667</ele><time>2026-04-04T13:43:44.008Z</time></trkpt><trkpt lat="43.9380408" lon="11.9125967"><ele>435.33333333333337</ele><time>2026-04-04T13:43:45.008Z</time></trkpt><trkpt lat="43.9379619" lon="11.9123558"><ele>435.0</ele><time>2026-04-04T13:43:46.008Z</time></trkpt><trkpt lat="43.9378997" lon="11.9121362"><ele>435.0</ele><time>2026-04-04T13:43:47.008Z</time></trkpt><trkpt lat="43.9378654" lon="11.9119491"><ele>435.0</ele><time>2026-04-04T13:43:48.008Z</time></trkpt><trkpt lat="43.9378469" lon="11.9117975"><ele>435.0</ele><time>2026-04-04T13:43:49.007Z</time></trkpt><trkpt lat="43.9378124" lon="11.9116827"><ele>435.0</ele><time>2026-04-04T13:43:50.009Z</time></trkpt><trkpt lat="43.9377736" lon="11.9115925"><ele>435.0</ele><time>2026-04-04T13:43:51.007Z</time></trkpt><trkpt lat="43.9377246" lon="11.9115225"><ele>434.66666666666663</ele><time>2026-04-04T13:43:52.006Z</time></trkpt><trkpt lat="43.9376008" lon="11.9115091"><ele>434.3333333333333</ele><time>2026-04-04T13:43:53.007Z</time></trkpt><trkpt lat="43.9374521" lon="11.9114954"><ele>434.0</ele><time>2026-04-04T13:43:54.008Z</time></trkpt><trkpt lat="43.9372671" lon="11.9114631"><ele>434.0</ele><time>2026-04-04T13:43:55.008Z</time></trkpt><trkpt lat="43.9370607" lon="11.9114004"><ele>434.0</ele><time>2026-04-04T13:43:56.007Z</time></trkpt><trkpt lat="43.9368481" lon="11.9112888"><ele>434.0</ele><time>2026-04-04T13:43:57.009Z</time></trkpt><trkpt lat="43.9366579" lon="11.9111418"><ele>439.0</ele><time>2026-04-04T13:43:58.009Z</time></trkpt><trkpt lat="43.9364779" lon="11.9109901"><ele>444.0</ele><time>2026-04-04T13:43:59.009Z</time></trkpt><trkpt lat="43.9363081" lon="11.9108543"><ele>449.0</ele><time>2026-04-04T13:44:00.006Z</time></trkpt><trkpt lat="43.9361629" lon="11.9107436"><ele>446.4</ele><time>2026-04-04T13:44:01.006Z</time></trkpt><trkpt lat="43.9360398" lon="11.9106585"><ele>443.79999999999995</ele><time>2026-04-04T13:44:02.008Z</time></trkpt><trkpt lat="43.9359421" lon="11.9105843"><ele>441.20000000000005</ele><time>2026-04-04T13:44:03.006Z</time></trkpt><trkpt lat="43.9358779" lon="11.9105096"><ele>438.6</ele><time>2026-04-04T13:44:04.006Z</time></trkpt><trkpt lat="43.9358361" lon="11.9104396"><ele>436.0</ele><time>2026-04-04T13:44:05.008Z</time></trkpt><trkpt lat="43.9358863" lon="11.9103719"><ele>431.75</ele><time>2026-04-04T13:44:07.008Z</time></trkpt><trkpt lat="43.9360556" lon="11.9103597"><ele>427.5</ele><time>2026-04-04T13:44:09.008Z</time></trkpt><trkpt lat="43.9361762" lon="11.9103624"><ele>423.25</ele><time>2026-04-04T13:44:10.011Z</time></trkpt><trkpt lat="43.9363087" lon="11.9103054"><ele>419.0</ele><time>2026-04-04T13:44:11.008Z</time></trkpt><trkpt lat="43.9364277" lon="11.9102343"><ele>419.0</ele><time>2026-04-04T13:44:12.01Z</time></trkpt><trkpt lat="43.9365328" lon="11.9101921"><ele>419.0</ele><time>2026-04-04T13:44:13.01Z</time></trkpt><trkpt lat="43.9366323" lon="11.9101953"><ele>419.0</ele><time>2026-04-04T13:44:14.007Z</time></trkpt><trkpt lat="43.9367374" lon="11.9102634"><ele>419.0</ele><time>2026-04-04T13:44:15.008Z</time></trkpt><trkpt lat="43.9368319" lon="11.9103536"><ele>419.0</ele><time>2026-04-04T13:44:16.009Z</time></trkpt><trkpt lat="43.9369167" lon="11.9104206"><ele>416.2</ele><time>2026-04-04T13:44:17.009Z</time></trkpt><trkpt lat="43.936995" lon="11.9104633"><ele>413.4</ele><time>2026-04-04T13:44:18.008Z</time></trkpt><trkpt lat="43.9370604" lon="11.9104716"><ele>410.6</ele><time>2026-04-04T13:44:19.01Z</time></trkpt><trkpt lat="43.9370785" lon="11.9102991"><ele>407.8</ele><time>2026-04-04T13:44:21.008Z</time></trkpt><trkpt lat="43.9370577" lon="11.910186"><ele>405.0</ele><time>2026-04-04T13:44:22.008Z</time></trkpt><trkpt lat="43.9369934" lon="11.9100111"><ele>403.66666666666663</ele><time>2026-04-04T13:44:23.008Z</time></trkpt><trkpt lat="43.9368972" lon="11.9097762"><ele>402.3333333333333</ele><time>2026-04-04T13:44:24.009Z</time></trkpt><trkpt lat="43.9368075" lon="11.9095326"><ele>401.0</ele><time>2026-04-04T13:44:25.01Z</time></trkpt><trkpt lat="43.9367151" lon="11.9093108"><ele>397.25</ele><time>2026-04-04T13:44:26.009Z</time></trkpt><trkpt lat="43.9366274" lon="11.9091322"><ele>393.5</ele><time>2026-04-04T13:44:27.01Z</time></trkpt><trkpt lat="43.9365172" lon="11.9090164"><ele>389.75</ele><time>2026-04-04T13:44:28.008Z</time></trkpt><trkpt lat="43.9363856" lon="11.9089456"><ele>386.0</ele><time>2026-04-04T13:44:29.009Z</time></trkpt><trkpt lat="43.936227" lon="11.9088963"><ele>386.0</ele><time>2026-04-04T13:44:30.009Z</time></trkpt><trkpt lat="43.9360422" lon="11.9088503"><ele>386.0</ele><time>2026-04-04T13:44:31.01Z</time></trkpt><trkpt lat="43.9358563" lon="11.9088004"><ele>386.0</ele><time>2026-04-04T13:44:32.008Z</time></trkpt><trkpt lat="43.935682" lon="11.9087469"><ele>385.75</ele><time>2026-04-04T13:44:33.008Z</time></trkpt><trkpt lat="43.935526" lon="11.908689"><ele>385.5</ele><time>2026-04-04T13:44:34.009Z</time></trkpt><trkpt lat="43.9353944" lon="11.9086084"><ele>385.25</ele><time>2026-04-04T13:44:35.008Z</time></trkpt><trkpt lat="43.9352839" lon="11.9084832"><ele>385.0</ele><time>2026-04-04T13:44:36.008Z</time></trkpt><trkpt lat="43.9351903" lon="11.9082994"><ele>378.6666666666667</ele><time>2026-04-04T13:44:37.008Z</time></trkpt><trkpt lat="43.9351276" lon="11.9080567"><ele>372.33333333333337</ele><time>2026-04-04T13:44:38.009Z</time></trkpt><trkpt lat="43.9350828" lon="11.9078108"><ele>366.0</ele><time>2026-04-04T13:44:39.008Z</time></trkpt><trkpt lat="43.9350545" lon="11.9075826"><ele>368.5</ele><time>2026-04-04T13:44:40.009Z</time></trkpt><trkpt lat="43.9350345" lon="11.9073835"><ele>371.0</ele><time>2026-04-04T13:44:41.008Z</time></trkpt><trkpt lat="43.9350178" lon="11.9072075"><ele>373.5</ele><time>2026-04-04T13:44:42.008Z</time></trkpt><trkpt lat="43.9350012" lon="11.9070532"><ele>376.0</ele><time>2026-04-04T13:44:43.007Z</time></trkpt><trkpt lat="43.934995" lon="11.9069242"><ele>376.0</ele><time>2026-04-04T13:44:44.01Z</time></trkpt><trkpt lat="43.9349939" lon="11.9068165"><ele>376.0</ele><time>2026-04-04T13:44:45.008Z</time></trkpt><trkpt lat="43.9350375" lon="11.9066981"><ele>376.0</ele><time>2026-04-04T13:44:47.007Z</time></trkpt><trkpt lat="43.9351484" lon="11.9067693"><ele>376.0</ele><time>2026-04-04T13:44:49.007Z</time></trkpt><trkpt lat="43.9351936" lon="11.9068777"><ele>376.0</ele><time>2026-04-04T13:44:50.01Z</time></trkpt><trkpt lat="43.9352447" lon="11.9070013"><ele>371.0</ele><time>2026-04-04T13:44:51.008Z</time></trkpt><trkpt lat="43.9352899" lon="11.9071165"><ele>366.0</ele><time>2026-04-04T13:44:52.007Z</time></trkpt><trkpt lat="43.9353333" lon="11.9072157"><ele>361.0</ele><time>2026-04-04T13:44:53.01Z</time></trkpt><trkpt lat="43.9353886" lon="11.90729"><ele>356.0</ele><time>2026-04-04T13:44:54.008Z</time></trkpt><trkpt lat="43.9355491" lon="11.9073106"><ele>351.0</ele><time>2026-04-04T13:44:56.008Z</time></trkpt><trkpt lat="43.9356695" lon="11.9072574"><ele>351.0</ele><time>2026-04-04T13:44:57.01Z</time></trkpt><trkpt lat="43.9357902" lon="11.9072257"><ele>351.0</ele><time>2026-04-04T13:44:58.007Z</time></trkpt><trkpt lat="43.9359114" lon="11.9072334"><ele>351.0</ele><time>2026-04-04T13:44:59.008Z</time></trkpt><trkpt lat="43.9360393" lon="11.9072882"><ele>351.0</ele><time>2026-04-04T13:45:00.009Z</time></trkpt><trkpt lat="43.9361797" lon="11.9073924"><ele>355.0</ele><time>2026-04-04T13:45:01.009Z</time></trkpt><trkpt lat="43.9363542" lon="11.9075456"><ele>359.0</ele><time>2026-04-04T13:45:02.007Z</time></trkpt><trkpt lat="43.9365284" lon="11.9077236"><ele>363.0</ele><time>2026-04-04T13:45:03.009Z</time></trkpt><trkpt lat="43.9366878" lon="11.9078928"><ele>355.75</ele><time>2026-04-04T13:45:04.006Z</time></trkpt><trkpt lat="43.9368285" lon="11.9080412"><ele>348.5</ele><time>2026-04-04T13:45:05.006Z</time></trkpt><trkpt lat="43.9369359" lon="11.9081653"><ele>341.25</ele><time>2026-04-04T13:45:06.006Z</time></trkpt><trkpt lat="43.9370183" lon="11.9082567"><ele>334.0</ele><time>2026-04-04T13:45:07.008Z</time></trkpt><trkpt lat="43.9370893" lon="11.9083025"><ele>334.0</ele><time>2026-04-04T13:45:08.007Z</time></trkpt><trkpt lat="43.9371819" lon="11.9082663"><ele>334.0</ele><time>2026-04-04T13:45:10.009Z</time></trkpt><trkpt lat="43.9370863" lon="11.9080773"><ele>334.0</ele><time>2026-04-04T13:45:12.007Z</time></trkpt><trkpt lat="43.9369946" lon="11.9079293"><ele>334.0</ele><time>2026-04-04T13:45:13.006Z</time></trkpt><trkpt lat="43.9369013" lon="11.9077641"><ele>334.0</ele><time>2026-04-04T13:45:14.007Z</time></trkpt><trkpt lat="43.9367832" lon="11.9075874"><ele>334.0</ele><time>2026-04-04T13:45:15.008Z</time></trkpt><trkpt lat="43.936678" lon="11.9074274"><ele>334.0</ele><time>2026-04-04T13:45:16.007Z</time></trkpt><trkpt lat="43.9365959" lon="11.9072888"><ele>334.79999999999995</ele><time>2026-04-04T13:45:17.006Z</time></trkpt><trkpt lat="43.9365369" lon="11.907171"><ele>335.59999999999997</ele><time>2026-04-04T13:45:18.008Z</time></trkpt><trkpt lat="43.9365103" lon="11.907078"><ele>336.4</ele><time>2026-04-04T13:45:19.008Z</time></trkpt><trkpt lat="43.9365191" lon="11.9069668"><ele>337.2</ele><time>2026-04-04T13:45:21.007Z</time></trkpt><trkpt lat="43.9366381" lon="11.9071044"><ele>338.0</ele><time>2026-04-04T13:45:23.008Z</time></trkpt><trkpt lat="43.9367885" lon="11.9072983"><ele>336.0</ele><time>2026-04-04T13:45:24.007Z</time></trkpt><trkpt lat="43.9369895" lon="11.9074924"><ele>334.0</ele><time>2026-04-04T13:45:25.006Z</time></trkpt><trkpt lat="43.9372027" lon="11.9076709"><ele>334.0</ele><time>2026-04-04T13:45:26.007Z</time></trkpt><trkpt lat="43.937438" lon="11.907841"><ele>334.0</ele><time>2026-04-04T13:45:27.007Z</time></trkpt><trkpt lat="43.937671" lon="11.9080099"><ele>325.5</ele><time>2026-04-04T13:45:28.007Z</time></trkpt><trkpt lat="43.937893" lon="11.9081772"><ele>317.0</ele><time>2026-04-04T13:45:29.005Z</time></trkpt><trkpt lat="43.9380953" lon="11.9083425"><ele>316.0</ele><time>2026-04-04T13:45:30.011Z</time></trkpt><trkpt lat="43.9382862" lon="11.9085027"><ele>315.0</ele><time>2026-04-04T13:45:31.007Z</time></trkpt><trkpt lat="43.9384665" lon="11.9086553"><ele>314.0</ele><time>2026-04-04T13:45:32.007Z</time></trkpt><trkpt lat="43.9386362" lon="11.9087973"><ele>314.0</ele><time>2026-04-04T13:45:33.007Z</time></trkpt><trkpt lat="43.9388029" lon="11.9089211"><ele>314.0</ele><time>2026-04-04T13:45:34.007Z</time></trkpt><trkpt lat="43.9389944" lon="11.9090321"><ele>314.0</ele><time>2026-04-04T13:45:35.012Z</time></trkpt><trkpt lat="43.9391984" lon="11.9091234"><ele>314.33333333333337</ele><time>2026-04-04T13:45:36.007Z</time></trkpt><trkpt lat="43.9394019" lon="11.9092013"><ele>314.6666666666667</ele><time>2026-04-04T13:45:37.006Z</time></trkpt><trkpt lat="43.9395938" lon="11.9092628"><ele>315.0</ele><time>2026-04-04T13:45:38.007Z</time></trkpt><trkpt lat="43.939773" lon="11.9093116"><ele>315.0</ele><time>2026-04-04T13:45:39.006Z</time></trkpt><trkpt lat="43.9399503" lon="11.9093538"><ele>315.0</ele><time>2026-04-04T13:45:40.007Z</time></trkpt><trkpt lat="43.9401215" lon="11.9093991"><ele>315.0</ele><time>2026-04-04T13:45:41.006Z</time></trkpt><trkpt lat="43.9402791" lon="11.9094484"><ele>310.75</ele><time>2026-04-04T13:45:42.007Z</time></trkpt><trkpt lat="43.9404258" lon="11.909493"><ele>306.5</ele><time>2026-04-04T13:45:43.008Z</time></trkpt><trkpt lat="43.9405585" lon="11.9095287"><ele>302.25</ele><time>2026-04-04T13:45:44.007Z</time></trkpt><trkpt lat="43.9406708" lon="11.9095556"><ele>298.0</ele><time>2026-04-04T13:45:45.01Z</time></trkpt><trkpt lat="43.9407718" lon="11.9095704"><ele>298.0</ele><time>2026-04-04T13:45:46.005Z</time></trkpt><trkpt lat="43.9408705" lon="11.9095691"><ele>298.0</ele><time>2026-04-04T13:45:47.008Z</time></trkpt><trkpt lat="43.9409596" lon="11.9095414"><ele>298.0</ele><time>2026-04-04T13:45:48.007Z</time></trkpt><trkpt lat="43.9410419" lon="11.9094838"><ele>298.0</ele><time>2026-04-04T13:45:49.007Z</time></trkpt><trkpt lat="43.9411212" lon="11.9094053"><ele>298.0</ele><time>2026-04-04T13:45:50.009Z</time></trkpt><trkpt lat="43.9412016" lon="11.9093161"><ele>294.5</ele><time>2026-04-04T13:45:51.009Z</time></trkpt><trkpt lat="43.9412855" lon="11.9092195"><ele>291.0</ele><time>2026-04-04T13:45:52.009Z</time></trkpt><trkpt lat="43.9413732" lon="11.9091132"><ele>287.5</ele><time>2026-04-04T13:45:53.009Z</time></trkpt><trkpt lat="43.9414636" lon="11.9090088"><ele>284.0</ele><time>2026-04-04T13:45:54.011Z</time></trkpt><trkpt lat="43.9415566" lon="11.908912"><ele>284.0</ele><time>2026-04-04T13:45:55.009Z</time></trkpt><trkpt lat="43.9416465" lon="11.908822"><ele>284.0</ele><time>2026-04-04T13:45:56.008Z</time></trkpt><trkpt lat="43.9417325" lon="11.9087341"><ele>284.0</ele><time>2026-04-04T13:45:57.014Z</time></trkpt><trkpt lat="43.9418144" lon="11.908645"><ele>284.0</ele><time>2026-04-04T13:45:58.008Z</time></trkpt><trkpt lat="43.9418956" lon="11.9085521"><ele>284.0</ele><time>2026-04-04T13:45:59.01Z</time></trkpt><trkpt lat="43.9419822" lon="11.9084596"><ele>282.59999999999997</ele><time>2026-04-04T13:46:00.009Z</time></trkpt><trkpt lat="43.9420747" lon="11.9083786"><ele>281.2</ele><time>2026-04-04T13:46:01.008Z</time></trkpt><trkpt lat="43.9421735" lon="11.9083221"><ele>279.79999999999995</ele><time>2026-04-04T13:46:02.008Z</time></trkpt><trkpt lat="43.9422711" lon="11.9083011"><ele>278.4</ele><time>2026-04-04T13:46:03.01Z</time></trkpt><trkpt lat="43.942375" lon="11.9083355"><ele>277.0</ele><time>2026-04-04T13:46:04.012Z</time></trkpt><trkpt lat="43.9424791" lon="11.9084158"><ele>275.75</ele><time>2026-04-04T13:46:05.008Z</time></trkpt><trkpt lat="43.9425791" lon="11.9085132"><ele>274.5</ele><time>2026-04-04T13:46:06.009Z</time></trkpt><trkpt lat="43.9426841" lon="11.9086175"><ele>273.25</ele><time>2026-04-04T13:46:07.011Z</time></trkpt><trkpt lat="43.9427936" lon="11.9087285"><ele>272.0</ele><time>2026-04-04T13:46:08.009Z</time></trkpt><trkpt lat="43.9429085" lon="11.9088398"><ele>272.0</ele><time>2026-04-04T13:46:09.013Z</time></trkpt><trkpt lat="43.9430424" lon="11.9089548"><ele>272.0</ele><time>2026-04-04T13:46:10.008Z</time></trkpt><trkpt lat="43.9431906" lon="11.9090876"><ele>272.0</ele><time>2026-04-04T13:46:11.009Z</time></trkpt><trkpt lat="43.94334" lon="11.9092373"><ele>271.0</ele><time>2026-04-04T13:46:12.008Z</time></trkpt><trkpt lat="43.9434819" lon="11.9093803"><ele>270.0</ele><time>2026-04-04T13:46:13.009Z</time></trkpt><trkpt lat="43.9436162" lon="11.9095086"><ele>269.0</ele><time>2026-04-04T13:46:14.008Z</time></trkpt><trkpt lat="43.9437385" lon="11.9096259"><ele>269.0</ele><time>2026-04-04T13:46:15.009Z</time></trkpt><trkpt lat="43.943849" lon="11.9097371"><ele>269.0</ele><time>2026-04-04T13:46:16.008Z</time></trkpt><trkpt lat="43.9439529" lon="11.9098395"><ele>269.0</ele><time>2026-04-04T13:46:17.01Z</time></trkpt><trkpt lat="43.9440484" lon="11.909933"><ele>269.0</ele><time>2026-04-04T13:46:18.01Z</time></trkpt><trkpt lat="43.9441353" lon="11.9100237"><ele>269.0</ele><time>2026-04-04T13:46:19.009Z</time></trkpt><trkpt lat="43.9442199" lon="11.9101117"><ele>269.0</ele><time>2026-04-04T13:46:20.009Z</time></trkpt><trkpt lat="43.9443085" lon="11.9101873"><ele>269.0</ele><time>2026-04-04T13:46:21.01Z</time></trkpt><trkpt lat="43.9444103" lon="11.9102396"><ele>269.0</ele><time>2026-04-04T13:46:22.007Z</time></trkpt><trkpt lat="43.9445265" lon="11.9102813"><ele>269.0</ele><time>2026-04-04T13:46:23.01Z</time></trkpt><trkpt lat="43.9446554" lon="11.9103111"><ele>269.0</ele><time>2026-04-04T13:46:24.007Z</time></trkpt><trkpt lat="43.9447932" lon="11.9103352"><ele>269.0</ele><time>2026-04-04T13:46:25.009Z</time></trkpt><trkpt lat="43.9449431" lon="11.9103579"><ele>269.0</ele><time>2026-04-04T13:46:26.01Z</time></trkpt><trkpt lat="43.9451012" lon="11.9103851"><ele>269.0</ele><time>2026-04-04T13:46:27.009Z</time></trkpt><trkpt lat="43.9452688" lon="11.9104214"><ele>268.0</ele><time>2026-04-04T13:46:28.008Z</time></trkpt><trkpt lat="43.9454234" lon="11.9104532"><ele>267.0</ele><time>2026-04-04T13:46:29.007Z</time></trkpt><trkpt lat="43.945561" lon="11.9104794"><ele>266.0</ele><time>2026-04-04T13:46:30.007Z</time></trkpt><trkpt lat="43.9456871" lon="11.9105015"><ele>265.0</ele><time>2026-04-04T13:46:31.009Z</time></trkpt><trkpt lat="43.9458013" lon="11.9105099"><ele>265.16666666666663</ele><time>2026-04-04T13:46:32.008Z</time></trkpt><trkpt lat="43.9459024" lon="11.9104866"><ele>265.3333333333333</ele><time>2026-04-04T13:46:33.008Z</time></trkpt><trkpt lat="43.9459896" lon="11.9104374"><ele>265.5</ele><time>2026-04-04T13:46:34.006Z</time></trkpt><trkpt lat="43.9460609" lon="11.9103793"><ele>265.6666666666667</ele><time>2026-04-04T13:46:35.008Z</time></trkpt><trkpt lat="43.9461222" lon="11.9103214"><ele>265.83333333333337</ele><time>2026-04-04T13:46:36.006Z</time></trkpt><trkpt lat="43.9461831" lon="11.9102749"><ele>266.0</ele><time>2026-04-04T13:46:37.007Z</time></trkpt><trkpt lat="43.9462394" lon="11.9102273"><ele>266.0</ele><time>2026-04-04T13:46:38.007Z</time></trkpt><trkpt lat="43.9463264" lon="11.9101549"><ele>266.0</ele><time>2026-04-04T13:46:40.007Z</time></trkpt><trkpt lat="43.9463719" lon="11.9100915"><ele>266.0</ele><time>2026-04-04T13:46:42.01Z</time></trkpt><trkpt lat="43.9464536" lon="11.9100025"><ele>266.0</ele><time>2026-04-04T13:46:44.007Z</time></trkpt><trkpt lat="43.9465509" lon="11.9099167"><ele>266.0</ele><time>2026-04-04T13:46:46.007Z</time></trkpt><trkpt lat="43.9466565" lon="11.9098155"><ele>265.2857142857143</ele><time>2026-04-04T13:46:48.005Z</time></trkpt><trkpt lat="43.9467067" lon="11.9097494"><ele>264.57142857142856</ele><time>2026-04-04T13:46:49.006Z</time></trkpt><trkpt lat="43.9467496" lon="11.909676"><ele>263.8571428571429</ele><time>2026-04-04T13:46:50.008Z</time></trkpt><trkpt lat="43.9467936" lon="11.9096003"><ele>263.1428571428571</ele><time>2026-04-04T13:46:51.007Z</time></trkpt><trkpt lat="43.9468371" lon="11.9095192"><ele>262.42857142857144</ele><time>2026-04-04T13:46:52.006Z</time></trkpt><trkpt lat="43.9468851" lon="11.9094309"><ele>261.7142857142857</ele><time>2026-04-04T13:46:53.005Z</time></trkpt><trkpt lat="43.9469386" lon="11.9093325"><ele>261.0</ele><time>2026-04-04T13:46:54.006Z</time></trkpt><trkpt lat="43.9469904" lon="11.9092374"><ele>259.6666666666667</ele><time>2026-04-04T13:46:55.012Z</time></trkpt><trkpt lat="43.9470363" lon="11.9091519"><ele>258.3333333333333</ele><time>2026-04-04T13:46:56.005Z</time></trkpt><trkpt lat="43.9470847" lon="11.9090575"><ele>257.0</ele><time>2026-04-04T13:46:57.007Z</time></trkpt><trkpt lat="43.9471391" lon="11.9089478"><ele>255.66666666666666</ele><time>2026-04-04T13:46:58.006Z</time></trkpt><trkpt lat="43.9471925" lon="11.9088414"><ele>254.33333333333331</ele><time>2026-04-04T13:46:59.006Z</time></trkpt><trkpt lat="43.9472409" lon="11.9087511"><ele>253.0</ele><time>2026-04-04T13:47:00.007Z</time></trkpt><trkpt lat="43.9472768" lon="11.9086695"><ele>253.0</ele><time>2026-04-04T13:47:01.007Z</time></trkpt><trkpt lat="43.9473197" lon="11.9085269"><ele>253.0</ele><time>2026-04-04T13:47:03.011Z</time></trkpt><trkpt lat="43.9472953" lon="11.9084462"><ele>253.0</ele><time>2026-04-04T13:47:06.008Z</time></trkpt></trkseg><trkseg><trkpt lat="43.947185" lon="11.9084067"><ele>257.0</ele><time>2026-04-04T14:21:01.006Z</time></trkpt><trkpt lat="43.9472216" lon="11.9084959"><ele>257.0</ele><time>2026-04-04T14:21:49.004Z</time></trkpt><trkpt lat="43.9473335" lon="11.9084581"><ele>257.0</ele><time>2026-04-04T14:22:10.006Z</time></trkpt><trkpt lat="43.9473994" lon="11.9083498"><ele>257.0</ele><time>2026-04-04T14:22:11.006Z</time></trkpt><trkpt lat="43.9474795" lon="11.9082572"><ele>257.0</ele><time>2026-04-04T14:22:12.005Z</time></trkpt><trkpt lat="43.947542" lon="11.9081368"><ele>257.83333333333337</ele><time>2026-04-04T14:22:13.006Z</time></trkpt><trkpt lat="43.9475851" lon="11.9080223"><ele>258.6666666666667</ele><time>2026-04-04T14:22:14.007Z</time></trkpt><trkpt lat="43.9476285" lon="11.9079169"><ele>259.5</ele><time>2026-04-04T14:22:15.008Z</time></trkpt><trkpt lat="43.9476687" lon="11.9078143"><ele>260.3333333333333</ele><time>2026-04-04T14:22:16.01Z</time></trkpt><trkpt lat="43.9477113" lon="11.9077211"><ele>261.16666666666663</ele><time>2026-04-04T14:22:17.005Z</time></trkpt><trkpt lat="43.9477466" lon="11.9076266"><ele>262.0</ele><time>2026-04-04T14:22:18.006Z</time></trkpt><trkpt lat="43.9477878" lon="11.9075388"><ele>263.16666666666663</ele><time>2026-04-04T14:22:19.007Z</time></trkpt><trkpt lat="43.9478267" lon="11.9074469"><ele>264.3333333333333</ele><time>2026-04-04T14:22:20.004Z</time></trkpt><trkpt lat="43.9478698" lon="11.9073573"><ele>265.5</ele><time>2026-04-04T14:22:21.008Z</time></trkpt><trkpt lat="43.9479141" lon="11.9072818"><ele>266.6666666666667</ele><time>2026-04-04T14:22:22.007Z</time></trkpt><trkpt lat="43.9479685" lon="11.9072254"><ele>267.83333333333337</ele><time>2026-04-04T14:22:23.006Z</time></trkpt><trkpt lat="43.9480493" lon="11.907204"><ele>269.0</ele><time>2026-04-04T14:22:24.006Z</time></trkpt><trkpt lat="43.9481269" lon="11.9072051"><ele>269.0</ele><time>2026-04-04T14:22:25.006Z</time></trkpt><trkpt lat="43.9482092" lon="11.9072028"><ele>269.0</ele><time>2026-04-04T14:22:26.005Z</time></trkpt><trkpt lat="43.9483133" lon="11.9072141"><ele>269.0</ele><time>2026-04-04T14:22:27.007Z</time></trkpt><trkpt lat="43.948487" lon="11.9073551"><ele>269.0</ele><time>2026-04-04T14:22:28.006Z</time></trkpt><trkpt lat="43.9486479" lon="11.9075375"><ele>271.6666666666667</ele><time>2026-04-04T14:22:29.006Z</time></trkpt><trkpt lat="43.9488245" lon="11.9077272"><ele>274.3333333333333</ele><time>2026-04-04T14:22:30.006Z</time></trkpt><trkpt lat="43.9489757" lon="11.9079224"><ele>277.0</ele><time>2026-04-04T14:22:31.006Z</time></trkpt><trkpt lat="43.9490867" lon="11.9081341"><ele>277.0</ele><time>2026-04-04T14:22:32.005Z</time></trkpt><trkpt lat="43.9491533" lon="11.9083758"><ele>277.0</ele><time>2026-04-04T14:22:33.008Z</time></trkpt><trkpt lat="43.9492005" lon="11.9086008"><ele>277.0</ele><time>2026-04-04T14:22:34.009Z</time></trkpt><trkpt lat="43.9492237" lon="11.9088134"><ele>277.66666666666663</ele><time>2026-04-04T14:22:35.006Z</time></trkpt><trkpt lat="43.9492833" lon="11.9089895"><ele>278.3333333333333</ele><time>2026-04-04T14:22:36.006Z</time></trkpt><trkpt lat="43.9493679" lon="11.909175"><ele>279.0</ele><time>2026-04-04T14:22:37.007Z</time></trkpt><trkpt lat="43.9494719" lon="11.9093452"><ele>279.0</ele><time>2026-04-04T14:22:38.007Z</time></trkpt><trkpt lat="43.9495766" lon="11.9094795"><ele>279.0</ele><time>2026-04-04T14:22:39.006Z</time></trkpt><trkpt lat="43.9496819" lon="11.9095809"><ele>279.0</ele><time>2026-04-04T14:22:40.007Z</time></trkpt><trkpt lat="43.949793" lon="11.9096571"><ele>279.0</ele><time>2026-04-04T14:22:41.01Z</time></trkpt><trkpt lat="43.9499154" lon="11.909717"><ele>278.75</ele><time>2026-04-04T14:22:42.006Z</time></trkpt><trkpt lat="43.9500447" lon="11.9097608"><ele>278.5</ele><time>2026-04-04T14:22:43.01Z</time></trkpt><trkpt lat="43.9501842" lon="11.9098016"><ele>278.25</ele><time>2026-04-04T14:22:44.004Z</time></trkpt><trkpt lat="43.9503492" lon="11.9098431"><ele>278.0</ele><time>2026-04-04T14:22:45.005Z</time></trkpt><trkpt lat="43.95053" lon="11.909885"><ele>278.0</ele><time>2026-04-04T14:22:46.005Z</time></trkpt><trkpt lat="43.9506983" lon="11.9099233"><ele>278.0</ele><time>2026-04-04T14:22:47.005Z</time></trkpt><trkpt lat="43.950855" lon="11.90996"><ele>278.0</ele><time>2026-04-04T14:22:48.01Z</time></trkpt><trkpt lat="43.9509983" lon="11.9099983"><ele>277.75</ele><time>2026-04-04T14:22:49.006Z</time></trkpt><trkpt lat="43.9511333" lon="11.910035"><ele>277.5</ele><time>2026-04-04T14:22:50.005Z</time></trkpt><trkpt lat="43.9512517" lon="11.9100733"><ele>277.25</ele><time>2026-04-04T14:22:51.007Z</time></trkpt><trkpt lat="43.9513733" lon="11.9101083"><ele>277.0</ele><time>2026-04-04T14:22:52.009Z</time></trkpt><trkpt lat="43.9515133" lon="11.910145"><ele>276.25</ele><time>2026-04-04T14:22:53.007Z</time></trkpt><trkpt lat="43.9516583" lon="11.9101767"><ele>275.5</ele><time>2026-04-04T14:22:54.007Z</time></trkpt><trkpt lat="43.9517883" lon="11.91021"><ele>274.75</ele><time>2026-04-04T14:22:55.011Z</time></trkpt><trkpt lat="43.951895" lon="11.9102317"><ele>274.0</ele><time>2026-04-04T14:22:56.007Z</time></trkpt><trkpt lat="43.951965" lon="11.9102433"><ele>274.0</ele><time>2026-04-04T14:22:57.009Z</time></trkpt><trkpt lat="43.9520517" lon="11.9102733"><ele>274.0</ele><time>2026-04-04T14:22:59.005Z</time></trkpt><trkpt lat="43.9521233" lon="11.9103017"><ele>274.0</ele><time>2026-04-04T14:23:01.007Z</time></trkpt><trkpt lat="43.9522117" lon="11.91036"><ele>274.0</ele><time>2026-04-04T14:23:03.007Z</time></trkpt><trkpt lat="43.9523133" lon="11.9104217"><ele>274.0</ele><time>2026-04-04T14:23:05.008Z</time></trkpt><trkpt lat="43.952445" lon="11.9104183"><ele>274.0</ele><time>2026-04-04T14:23:07.007Z</time></trkpt><trkpt lat="43.95252" lon="11.9104183"><ele>274.0</ele><time>2026-04-04T14:23:08.007Z</time></trkpt><trkpt lat="43.95261" lon="11.9104183"><ele>274.0</ele><time>2026-04-04T14:23:09.008Z</time></trkpt><trkpt lat="43.95273" lon="11.9104333"><ele>274.0</ele><time>2026-04-04T14:23:10.007Z</time></trkpt><trkpt lat="43.9528933" lon="11.910465"><ele>274.0</ele><time>2026-04-04T14:23:11.006Z</time></trkpt><trkpt lat="43.9530833" lon="11.91051"><ele>274.0</ele><time>2026-04-04T14:23:12.005Z</time></trkpt><trkpt lat="43.9533117" lon="11.910575"><ele>274.0</ele><time>2026-04-04T14:23:13.007Z</time></trkpt><trkpt lat="43.953555" lon="11.9106583"><ele>273.5</ele><time>2026-04-04T14:23:14.008Z</time></trkpt><trkpt lat="43.953795" lon="11.91074"><ele>273.0</ele><time>2026-04-04T14:23:15.008Z</time></trkpt><trkpt lat="43.954025" lon="11.9108083"><ele>272.0</ele><time>2026-04-04T14:23:16.007Z</time></trkpt><trkpt lat="43.9542367" lon="11.9108683"><ele>271.0</ele><time>2026-04-04T14:23:17.007Z</time></trkpt><trkpt lat="43.95444" lon="11.9109217"><ele>270.0</ele><time>2026-04-04T14:23:18.008Z</time></trkpt><trkpt lat="43.954635" lon="11.91097"><ele>268.3333333333333</ele><time>2026-04-04T14:23:19.007Z</time></trkpt><trkpt lat="43.9548233" lon="11.9110183"><ele>266.66666666666663</ele><time>2026-04-04T14:23:20.008Z</time></trkpt><trkpt lat="43.9550117" lon="11.911065"><ele>265.0</ele><time>2026-04-04T14:23:21.008Z</time></trkpt><trkpt lat="43.9551983" lon="11.9111117"><ele>265.0</ele><time>2026-04-04T14:23:22.009Z</time></trkpt><trkpt lat="43.9553883" lon="11.9111617"><ele>265.0</ele><time>2026-04-04T14:23:23.007Z</time></trkpt><trkpt lat="43.955585" lon="11.9112083"><ele>265.0</ele><time>2026-04-04T14:23:24.011Z</time></trkpt><trkpt lat="43.9557933" lon="11.91126"><ele>265.5</ele><time>2026-04-04T14:23:25.009Z</time></trkpt><trkpt lat="43.9560133" lon="11.9113183"><ele>266.0</ele><time>2026-04-04T14:23:26.008Z</time></trkpt><trkpt lat="43.9562517" lon="11.911385"><ele>266.0</ele><time>2026-04-04T14:23:27.009Z</time></trkpt><trkpt lat="43.9565067" lon="11.9114567"><ele>266.0</ele><time>2026-04-04T14:23:28.008Z</time></trkpt><trkpt lat="43.95677" lon="11.91153"><ele>266.5</ele><time>2026-04-04T14:23:29.011Z</time></trkpt><trkpt lat="43.9570233" lon="11.9116017"><ele>267.0</ele><time>2026-04-04T14:23:30.008Z</time></trkpt><trkpt lat="43.9572633" lon="11.9116617"><ele>267.0</ele><time>2026-04-04T14:23:31.007Z</time></trkpt><trkpt lat="43.9574917" lon="11.911695"><ele>267.0</ele><time>2026-04-04T14:23:32.009Z</time></trkpt><trkpt lat="43.95771" lon="11.9116983"><ele>267.0</ele><time>2026-04-04T14:23:33.009Z</time></trkpt><trkpt lat="43.9579233" lon="11.9116683"><ele>266.6666666666667</ele><time>2026-04-04T14:23:34.009Z</time></trkpt><trkpt lat="43.9581333" lon="11.9115967"><ele>266.33333333333337</ele><time>2026-04-04T14:23:35.008Z</time></trkpt><trkpt lat="43.9583467" lon="11.911505"><ele>266.0</ele><time>2026-04-04T14:23:36.008Z</time></trkpt><trkpt lat="43.9585783" lon="11.91143"><ele>263.5</ele><time>2026-04-04T14:23:37.009Z</time></trkpt><trkpt lat="43.95882" lon="11.9113933"><ele>261.0</ele><time>2026-04-04T14:23:38.008Z</time></trkpt><trkpt lat="43.9590617" lon="11.9114033"><ele>260.0</ele><time>2026-04-04T14:23:39.008Z</time></trkpt><trkpt lat="43.9592867" lon="11.9114317"><ele>259.0</ele><time>2026-04-04T14:23:40.008Z</time></trkpt><trkpt lat="43.9594967" lon="11.9114567"><ele>258.0</ele><time>2026-04-04T14:23:41.008Z</time></trkpt><trkpt lat="43.959695" lon="11.91146"><ele>258.0</ele><time>2026-04-04T14:23:42.006Z</time></trkpt><trkpt lat="43.95989" lon="11.9114317"><ele>258.0</ele><time>2026-04-04T14:23:43.008Z</time></trkpt><trkpt lat="43.9600683" lon="11.9113633"><ele>258.0</ele><time>2026-04-04T14:23:44.007Z</time></trkpt><trkpt lat="43.9602383" lon="11.9112233"><ele>259.0</ele><time>2026-04-04T14:23:45.009Z</time></trkpt><trkpt lat="43.9604117" lon="11.911045"><ele>260.0</ele><time>2026-04-04T14:23:46.007Z</time></trkpt><trkpt lat="43.960595" lon="11.9108283"><ele>260.0</ele><time>2026-04-04T14:23:47.007Z</time></trkpt><trkpt lat="43.9608017" lon="11.9105883"><ele>260.0</ele><time>2026-04-04T14:23:48.006Z</time></trkpt><trkpt lat="43.9610167" lon="11.9103233"><ele>260.0</ele><time>2026-04-04T14:23:49.007Z</time></trkpt><trkpt lat="43.9612333" lon="11.9100367"><ele>260.0</ele><time>2026-04-04T14:23:50.008Z</time></trkpt><trkpt lat="43.9614533" lon="11.9097517"><ele>260.0</ele><time>2026-04-04T14:23:51.005Z</time></trkpt><trkpt lat="43.9616683" lon="11.9094917"><ele>260.0</ele><time>2026-04-04T14:23:52.007Z</time></trkpt><trkpt lat="43.96188" lon="11.90927"><ele>261.6666666666667</ele><time>2026-04-04T14:23:53.006Z</time></trkpt><trkpt lat="43.9620867" lon="11.9090967"><ele>263.3333333333333</ele><time>2026-04-04T14:23:54.007Z</time></trkpt><trkpt lat="43.9622683" lon="11.90896"><ele>265.0</ele><time>2026-04-04T14:23:55.006Z</time></trkpt><trkpt lat="43.9624417" lon="11.9088583"><ele>263.3333333333333</ele><time>2026-04-04T14:23:56.009Z</time></trkpt><trkpt lat="43.9626117" lon="11.9088017"><ele>261.6666666666667</ele><time>2026-04-04T14:23:57.006Z</time></trkpt><trkpt lat="43.9627667" lon="11.9087683"><ele>260.0</ele><time>2026-04-04T14:23:58.009Z</time></trkpt><trkpt lat="43.962915" lon="11.9087783"><ele>260.0</ele><time>2026-04-04T14:23:59.006Z</time></trkpt><trkpt lat="43.9630617" lon="11.9088183"><ele>260.0</ele><time>2026-04-04T14:24:00.007Z</time></trkpt><trkpt lat="43.9632" lon="11.9088717"><ele>260.0</ele><time>2026-04-04T14:24:01.008Z</time></trkpt><trkpt lat="43.9633283" lon="11.908925"><ele>260.0</ele><time>2026-04-04T14:24:02.006Z</time></trkpt><trkpt lat="43.96345" lon="11.90897"><ele>259.5</ele><time>2026-04-04T14:24:03.006Z</time></trkpt><trkpt lat="43.9635667" lon="11.9090083"><ele>259.0</ele><time>2026-04-04T14:24:04.009Z</time></trkpt><trkpt lat="43.9636917" lon="11.9090367"><ele>258.5</ele><time>2026-04-04T14:24:05.012Z</time></trkpt><trkpt lat="43.963825" lon="11.90906"><ele>258.0</ele><time>2026-04-04T14:24:06.006Z</time></trkpt><trkpt lat="43.9639667" lon="11.909065"><ele>258.0</ele><time>2026-04-04T14:24:07.007Z</time></trkpt><trkpt lat="43.96411" lon="11.9090583"><ele>258.0</ele><time>2026-04-04T14:24:08.007Z</time></trkpt><trkpt lat="43.9642583" lon="11.9090467"><ele>258.0</ele><time>2026-04-04T14:24:09.007Z</time></trkpt><trkpt lat="43.9644233" lon="11.9090417"><ele>258.6666666666667</ele><time>2026-04-04T14:24:10.008Z</time></trkpt><trkpt lat="43.9646133" lon="11.9090617"><ele>259.33333333333337</ele><time>2026-04-04T14:24:11.005Z</time></trkpt><trkpt lat="43.9648233" lon="11.90912"><ele>260.0</ele><time>2026-04-04T14:24:12.006Z</time></trkpt><trkpt lat="43.9650533" lon="11.9091933"><ele>256.0</ele><time>2026-04-04T14:24:13.006Z</time></trkpt><trkpt lat="43.9652881" lon="11.9092659"><ele>252.0</ele><time>2026-04-04T14:24:14.005Z</time></trkpt><trkpt lat="43.9655072" lon="11.9093251"><ele>252.0</ele><time>2026-04-04T14:24:15.007Z</time></trkpt><trkpt lat="43.9657045" lon="11.9093756"><ele>252.0</ele><time>2026-04-04T14:24:16.007Z</time></trkpt><trkpt lat="43.9658812" lon="11.9094172"><ele>252.0</ele><time>2026-04-04T14:24:17.009Z</time></trkpt><trkpt lat="43.9660414" lon="11.9094388"><ele>254.33333333333331</ele><time>2026-04-04T14:24:18.007Z</time></trkpt><trkpt lat="43.9661929" lon="11.9094209"><ele>256.66666666666663</ele><time>2026-04-04T14:24:19.007Z</time></trkpt><trkpt lat="43.9663523" lon="11.9093504"><ele>259.0</ele><time>2026-04-04T14:24:20.007Z</time></trkpt><trkpt lat="43.9665344" lon="11.9092228"><ele>259.0</ele><time>2026-04-04T14:24:21.009Z</time></trkpt><trkpt lat="43.9667397" lon="11.9090479"><ele>259.0</ele><time>2026-04-04T14:24:22.01Z</time></trkpt><trkpt lat="43.9669559" lon="11.9088473"><ele>259.0</ele><time>2026-04-04T14:24:23.007Z</time></trkpt><trkpt lat="43.9671693" lon="11.9086504"><ele>259.0</ele><time>2026-04-04T14:24:24.008Z</time></trkpt><trkpt lat="43.9673686" lon="11.9084773"><ele>261.3333333333333</ele><time>2026-04-04T14:24:25.008Z</time></trkpt><trkpt lat="43.967552" lon="11.9083319"><ele>263.6666666666667</ele><time>2026-04-04T14:24:26.007Z</time></trkpt><trkpt lat="43.967717" lon="11.9082171"><ele>266.0</ele><time>2026-04-04T14:24:27.007Z</time></trkpt><trkpt lat="43.9678796" lon="11.9081438"><ele>266.0</ele><time>2026-04-04T14:24:28.007Z</time></trkpt><trkpt lat="43.9680598" lon="11.9081179"><ele>266.0</ele><time>2026-04-04T14:24:29.007Z</time></trkpt><trkpt lat="43.9682644" lon="11.9081057"><ele>266.0</ele><time>2026-04-04T14:24:30.007Z</time></trkpt><trkpt lat="43.9684955" lon="11.9080608"><ele>262.5</ele><time>2026-04-04T14:24:31.009Z</time></trkpt><trkpt lat="43.9687488" lon="11.9079787"><ele>259.0</ele><time>2026-04-04T14:24:32.006Z</time></trkpt><trkpt lat="43.9690065" lon="11.9078796"><ele>253.5</ele><time>2026-04-04T14:24:33.008Z</time></trkpt><trkpt lat="43.969258" lon="11.9077718"><ele>248.0</ele><time>2026-04-04T14:24:34.008Z</time></trkpt><trkpt lat="43.9695183" lon="11.9076356"><ele>251.0</ele><time>2026-04-04T14:24:35.006Z</time></trkpt><trkpt lat="43.9697867" lon="11.9074701"><ele>254.0</ele><time>2026-04-04T14:24:36.005Z</time></trkpt><trkpt lat="43.9700618" lon="11.9073112"><ele>254.0</ele><time>2026-04-04T14:24:37.008Z</time></trkpt><trkpt lat="43.9703347" lon="11.9071913"><ele>254.0</ele><time>2026-04-04T14:24:38.006Z</time></trkpt><trkpt lat="43.9706023" lon="11.9071156"><ele>254.0</ele><time>2026-04-04T14:24:39.007Z</time></trkpt><trkpt lat="43.9708523" lon="11.9070769"><ele>254.0</ele><time>2026-04-04T14:24:40.007Z</time></trkpt><trkpt lat="43.9710768" lon="11.9070722"><ele>252.33333333333334</ele><time>2026-04-04T14:24:41.008Z</time></trkpt><trkpt lat="43.9712678" lon="11.9070841"><ele>250.66666666666669</ele><time>2026-04-04T14:24:42.006Z</time></trkpt><trkpt lat="43.9714454" lon="11.907085"><ele>249.0</ele><time>2026-04-04T14:24:43.005Z</time></trkpt><trkpt lat="43.9716218" lon="11.907057"><ele>247.33333333333331</ele><time>2026-04-04T14:24:44.007Z</time></trkpt><trkpt lat="43.9718077" lon="11.9069784"><ele>245.66666666666666</ele><time>2026-04-04T14:24:45.006Z</time></trkpt><trkpt lat="43.9720053" lon="11.9068493"><ele>244.0</ele><time>2026-04-04T14:24:46.008Z</time></trkpt><trkpt lat="43.9722171" lon="11.9066542"><ele>244.5</ele><time>2026-04-04T14:24:47.007Z</time></trkpt><trkpt lat="43.972446" lon="11.9064152"><ele>245.0</ele><time>2026-04-04T14:24:48.007Z</time></trkpt><trkpt lat="43.9726811" lon="11.9061658"><ele>245.0</ele><time>2026-04-04T14:24:49.005Z</time></trkpt><trkpt lat="43.9729108" lon="11.9059316"><ele>245.0</ele><time>2026-04-04T14:24:50.009Z</time></trkpt><trkpt lat="43.9731455" lon="11.9057248"><ele>249.0</ele><time>2026-04-04T14:24:51.007Z</time></trkpt><trkpt lat="43.9734004" lon="11.9055326"><ele>253.0</ele><time>2026-04-04T14:24:52.007Z</time></trkpt><trkpt lat="43.9736728" lon="11.9053541"><ele>253.0</ele><time>2026-04-04T14:24:53.006Z</time></trkpt><trkpt lat="43.9739365" lon="11.9051883"><ele>253.0</ele><time>2026-04-04T14:24:54.006Z</time></trkpt><trkpt lat="43.9741789" lon="11.9050359"><ele>258.0</ele><time>2026-04-04T14:24:55.006Z</time></trkpt><trkpt lat="43.9744148" lon="11.9048943"><ele>263.0</ele><time>2026-04-04T14:24:56.007Z</time></trkpt><trkpt lat="43.9746603" lon="11.9047631"><ele>263.0</ele><time>2026-04-04T14:24:57.006Z</time></trkpt><trkpt lat="43.9749256" lon="11.9046545"><ele>263.0</ele><time>2026-04-04T14:24:58.006Z</time></trkpt><trkpt lat="43.9752056" lon="11.9045555"><ele>262.0</ele><time>2026-04-04T14:24:59.005Z</time></trkpt><trkpt lat="43.9755059" lon="11.9044671"><ele>261.0</ele><time>2026-04-04T14:25:00.009Z</time></trkpt><trkpt lat="43.9758208" lon="11.9043782"><ele>261.0</ele><time>2026-04-04T14:25:01.006Z</time></trkpt><trkpt lat="43.9761519" lon="11.9042846"><ele>261.0</ele><time>2026-04-04T14:25:02.006Z</time></trkpt><trkpt lat="43.9764811" lon="11.9041889"><ele>264.0</ele><time>2026-04-04T14:25:03.007Z</time></trkpt><trkpt lat="43.9767939" lon="11.9041005"><ele>267.0</ele><time>2026-04-04T14:25:04.006Z</time></trkpt><trkpt lat="43.9770821" lon="11.9040212"><ele>267.0</ele><time>2026-04-04T14:25:05.007Z</time></trkpt><trkpt lat="43.9773454" lon="11.9039496"><ele>267.0</ele><time>2026-04-04T14:25:06.007Z</time></trkpt><trkpt lat="43.9775843" lon="11.9038823"><ele>267.3333333333333</ele><time>2026-04-04T14:25:07.007Z</time></trkpt><trkpt lat="43.9778025" lon="11.9038181"><ele>267.66666666666663</ele><time>2026-04-04T14:25:08.007Z</time></trkpt><trkpt lat="43.9780077" lon="11.90376"><ele>268.0</ele><time>2026-04-04T14:25:09.008Z</time></trkpt><trkpt lat="43.9782011" lon="11.9037245"><ele>269.66666666666663</ele><time>2026-04-04T14:25:10.005Z</time></trkpt><trkpt lat="43.9783938" lon="11.9037247"><ele>271.3333333333333</ele><time>2026-04-04T14:25:11.009Z</time></trkpt><trkpt lat="43.9785915" lon="11.9037659"><ele>273.0</ele><time>2026-04-04T14:25:12.006Z</time></trkpt><trkpt lat="43.9787981" lon="11.9038584"><ele>273.0</ele><time>2026-04-04T14:25:13.006Z</time></trkpt><trkpt lat="43.9789954" lon="11.9039856"><ele>273.0</ele><time>2026-04-04T14:25:14.007Z</time></trkpt><trkpt lat="43.9791749" lon="11.9041061"><ele>273.0</ele><time>2026-04-04T14:25:15.007Z</time></trkpt><trkpt lat="43.9793484" lon="11.904203"><ele>267.3333333333333</ele><time>2026-04-04T14:25:16.006Z</time></trkpt><trkpt lat="43.9795369" lon="11.9042665"><ele>261.66666666666663</ele><time>2026-04-04T14:25:17.007Z</time></trkpt><trkpt lat="43.9797399" lon="11.9043056"><ele>256.0</ele><time>2026-04-04T14:25:18.006Z</time></trkpt><trkpt lat="43.9799369" lon="11.9043227"><ele>253.33333333333331</ele><time>2026-04-04T14:25:19.005Z</time></trkpt><trkpt lat="43.9801122" lon="11.9043102"><ele>250.66666666666669</ele><time>2026-04-04T14:25:20.006Z</time></trkpt><trkpt lat="43.9802718" lon="11.9042653"><ele>248.0</ele><time>2026-04-04T14:25:21.007Z</time></trkpt><trkpt lat="43.980426" lon="11.9041742"><ele>257.33333333333337</ele><time>2026-04-04T14:25:22.006Z</time></trkpt><trkpt lat="43.9805761" lon="11.9040537"><ele>266.6666666666667</ele><time>2026-04-04T14:25:23.009Z</time></trkpt><trkpt lat="43.9807102" lon="11.903946"><ele>276.0</ele><time>2026-04-04T14:25:24.006Z</time></trkpt><trkpt lat="43.9808396" lon="11.9038796"><ele>276.75</ele><time>2026-04-04T14:25:25.006Z</time></trkpt><trkpt lat="43.9809684" lon="11.903853"><ele>277.5</ele><time>2026-04-04T14:25:26.006Z</time></trkpt><trkpt lat="43.9811034" lon="11.9038616"><ele>278.25</ele><time>2026-04-04T14:25:27.006Z</time></trkpt><trkpt lat="43.9812469" lon="11.9038965"><ele>279.0</ele><time>2026-04-04T14:25:28.005Z</time></trkpt><trkpt lat="43.9814019" lon="11.9039532"><ele>279.0</ele><time>2026-04-04T14:25:29.008Z</time></trkpt><trkpt lat="43.9815675" lon="11.9040238"><ele>279.0</ele><time>2026-04-04T14:25:30.007Z</time></trkpt><trkpt lat="43.9817532" lon="11.9041294"><ele>279.0</ele><time>2026-04-04T14:25:31.006Z</time></trkpt><trkpt lat="43.9819621" lon="11.9042727"><ele>274.0</ele><time>2026-04-04T14:25:32.007Z</time></trkpt><trkpt lat="43.9821796" lon="11.9044418"><ele>269.0</ele><time>2026-04-04T14:25:33.006Z</time></trkpt><trkpt lat="43.9823888" lon="11.9046173"><ele>286.0</ele><time>2026-04-04T14:25:34.008Z</time></trkpt><trkpt lat="43.9825841" lon="11.9047854"><ele>303.0</ele><time>2026-04-04T14:25:35.008Z</time></trkpt><trkpt lat="43.9827802" lon="11.9049537"><ele>281.5</ele><time>2026-04-04T14:25:36.007Z</time></trkpt><trkpt lat="43.9829785" lon="11.9051402"><ele>260.0</ele><time>2026-04-04T14:25:37.007Z</time></trkpt><trkpt lat="43.9831656" lon="11.9053478"><ele>260.0</ele><time>2026-04-04T14:25:38.007Z</time></trkpt><trkpt lat="43.9833296" lon="11.9055526"><ele>260.0</ele><time>2026-04-04T14:25:39.008Z</time></trkpt><trkpt lat="43.9834787" lon="11.9057405"><ele>260.0</ele><time>2026-04-04T14:25:40.007Z</time></trkpt><trkpt lat="43.9836324" lon="11.9059028"><ele>260.0</ele><time>2026-04-04T14:25:41.008Z</time></trkpt><trkpt lat="43.983807" lon="11.9060416"><ele>260.0</ele><time>2026-04-04T14:25:42.007Z</time></trkpt><trkpt lat="43.984014" lon="11.9061498"><ele>260.0</ele><time>2026-04-04T14:25:43.011Z</time></trkpt><trkpt lat="43.9842558" lon="11.9062241"><ele>260.5</ele><time>2026-04-04T14:25:44.008Z</time></trkpt><trkpt lat="43.9845367" lon="11.906281"><ele>261.0</ele><time>2026-04-04T14:25:45.007Z</time></trkpt><trkpt lat="43.9848347" lon="11.9063399"><ele>262.0</ele><time>2026-04-04T14:25:46.007Z</time></trkpt><trkpt lat="43.9851338" lon="11.9063886"><ele>263.0</ele><time>2026-04-04T14:25:47.008Z</time></trkpt><trkpt lat="43.9854129" lon="11.9064339"><ele>263.0</ele><time>2026-04-04T14:25:48.009Z</time></trkpt><trkpt lat="43.9856687" lon="11.9064732"><ele>263.0</ele><time>2026-04-04T14:25:49.008Z</time></trkpt><trkpt lat="43.9859085" lon="11.9065079"><ele>262.0</ele><time>2026-04-04T14:25:50.007Z</time></trkpt><trkpt lat="43.9861296" lon="11.906547"><ele>261.0</ele><time>2026-04-04T14:25:51.008Z</time></trkpt><trkpt lat="43.9863266" lon="11.9065808"><ele>260.0</ele><time>2026-04-04T14:25:52.007Z</time></trkpt><trkpt lat="43.9864919" lon="11.9066108"><ele>260.0</ele><time>2026-04-04T14:25:53.007Z</time></trkpt><trkpt lat="43.9866331" lon="11.9066425"><ele>260.0</ele><time>2026-04-04T14:25:54.008Z</time></trkpt><trkpt lat="43.9867687" lon="11.9066864"><ele>260.0</ele><time>2026-04-04T14:25:55.007Z</time></trkpt><trkpt lat="43.9868996" lon="11.906751"><ele>260.0</ele><time>2026-04-04T14:25:56.008Z</time></trkpt><trkpt lat="43.987021" lon="11.9068257"><ele>259.0</ele><time>2026-04-04T14:25:57.006Z</time></trkpt><trkpt lat="43.9871294" lon="11.9068965"><ele>258.0</ele><time>2026-04-04T14:25:58.006Z</time></trkpt><trkpt lat="43.9872261" lon="11.906968"><ele>257.0</ele><time>2026-04-04T14:25:59.006Z</time></trkpt><trkpt lat="43.9873116" lon="11.9070275"><ele>256.0</ele><time>2026-04-04T14:26:00.007Z</time></trkpt><trkpt lat="43.9873935" lon="11.9070552"><ele>255.0</ele><time>2026-04-04T14:26:01.007Z</time></trkpt><trkpt lat="43.9874818" lon="11.9070602"><ele>255.0</ele><time>2026-04-04T14:26:02.007Z</time></trkpt><trkpt lat="43.9875802" lon="11.9070134"><ele>255.0</ele><time>2026-04-04T14:26:03.006Z</time></trkpt><trkpt lat="43.9877085" lon="11.906932"><ele>255.0</ele><time>2026-04-04T14:26:04.006Z</time></trkpt><trkpt lat="43.9878666" lon="11.9068551"><ele>255.0</ele><time>2026-04-04T14:26:05.006Z</time></trkpt><trkpt lat="43.98806" lon="11.9068133"><ele>255.0</ele><time>2026-04-04T14:26:06.008Z</time></trkpt><trkpt lat="43.9882889" lon="11.906809"><ele>255.0</ele><time>2026-04-04T14:26:07.008Z</time></trkpt><trkpt lat="43.9885599" lon="11.9068333"><ele>254.0</ele><time>2026-04-04T14:26:08.006Z</time></trkpt><trkpt lat="43.988857" lon="11.9068741"><ele>253.0</ele><time>2026-04-04T14:26:09.009Z</time></trkpt><trkpt lat="43.9891733" lon="11.9069123"><ele>254.0</ele><time>2026-04-04T14:26:10.007Z</time></trkpt><trkpt lat="43.989506" lon="11.90694"><ele>255.0</ele><time>2026-04-04T14:26:11.006Z</time></trkpt><trkpt lat="43.9898451" lon="11.9069555"><ele>253.0</ele><time>2026-04-04T14:26:12.006Z</time></trkpt><trkpt lat="43.9901787" lon="11.9069604"><ele>251.0</ele><time>2026-04-04T14:26:13.008Z</time></trkpt><trkpt lat="43.990495" lon="11.9069619"><ele>251.0</ele><time>2026-04-04T14:26:14.007Z</time></trkpt><trkpt lat="43.990787" lon="11.9069615"><ele>251.0</ele><time>2026-04-04T14:26:15.01Z</time></trkpt><trkpt lat="43.9910597" lon="11.9069633"><ele>248.0</ele><time>2026-04-04T14:26:16.006Z</time></trkpt><trkpt lat="43.9913139" lon="11.9069702"><ele>245.0</ele><time>2026-04-04T14:26:17.007Z</time></trkpt><trkpt lat="43.9915551" lon="11.9069983"><ele>246.5</ele><time>2026-04-04T14:26:18.008Z</time></trkpt><trkpt lat="43.9917933" lon="11.9070589"><ele>248.0</ele><time>2026-04-04T14:26:19.007Z</time></trkpt><trkpt lat="43.9920319" lon="11.9071515"><ele>248.0</ele><time>2026-04-04T14:26:20.01Z</time></trkpt><trkpt lat="43.9922631" lon="11.9072625"><ele>248.0</ele><time>2026-04-04T14:26:21.008Z</time></trkpt><trkpt lat="43.9924871" lon="11.9073801"><ele>249.0</ele><time>2026-04-04T14:26:22.008Z</time></trkpt><trkpt lat="43.9927083" lon="11.9074995"><ele>250.0</ele><time>2026-04-04T14:26:23.007Z</time></trkpt><trkpt lat="43.9929362" lon="11.9076224"><ele>246.0</ele><time>2026-04-04T14:26:24.008Z</time></trkpt><trkpt lat="43.9931757" lon="11.9077467"><ele>242.0</ele><time>2026-04-04T14:26:25.007Z</time></trkpt><trkpt lat="43.9934269" lon="11.9078756"><ele>242.0</ele><time>2026-04-04T14:26:26.011Z</time></trkpt><trkpt lat="43.9936611" lon="11.9079996"><ele>242.0</ele><time>2026-04-04T14:26:27.006Z</time></trkpt><trkpt lat="43.99385" lon="11.90811"><ele>242.0</ele><time>2026-04-04T14:26:28.008Z</time></trkpt><trkpt lat="43.9940167" lon="11.9082133"><ele>242.0</ele><time>2026-04-04T14:26:29.007Z</time></trkpt><trkpt lat="43.9941833" lon="11.9083117"><ele>242.0</ele><time>2026-04-04T14:26:30.008Z</time></trkpt><trkpt lat="43.994345" lon="11.9084117"><ele>241.0</ele><time>2026-04-04T14:26:31.008Z</time></trkpt><trkpt lat="43.9945133" lon="11.90852"><ele>240.0</ele><time>2026-04-04T14:26:32.007Z</time></trkpt><trkpt lat="43.9946933" lon="11.9086617"><ele>239.0</ele><time>2026-04-04T14:26:33.01Z</time></trkpt><trkpt lat="43.994885" lon="11.9088333"><ele>239.5</ele><time>2026-04-04T14:26:34.01Z</time></trkpt><trkpt lat="43.9950883" lon="11.9090283"><ele>240.0</ele><time>2026-04-04T14:26:35.006Z</time></trkpt><trkpt lat="43.9952983" lon="11.9092183"><ele>238.5</ele><time>2026-04-04T14:26:36.007Z</time></trkpt><trkpt lat="43.9954967" lon="11.9094033"><ele>237.0</ele><time>2026-04-04T14:26:37.007Z</time></trkpt><trkpt lat="43.9956817" lon="11.9095867"><ele>237.33333333333331</ele><time>2026-04-04T14:26:38.008Z</time></trkpt><trkpt lat="43.9958617" lon="11.9097517"><ele>237.66666666666666</ele><time>2026-04-04T14:26:39.007Z</time></trkpt><trkpt lat="43.9960283" lon="11.9099017"><ele>238.0</ele><time>2026-04-04T14:26:40.009Z</time></trkpt><trkpt lat="43.9961883" lon="11.910045"><ele>237.33333333333331</ele><time>2026-04-04T14:26:41.006Z</time></trkpt><trkpt lat="43.99634" lon="11.9101817"><ele>236.66666666666669</ele><time>2026-04-04T14:26:42.005Z</time></trkpt><trkpt lat="43.9964767" lon="11.910315"><ele>236.0</ele><time>2026-04-04T14:26:43.008Z</time></trkpt><trkpt lat="43.996585" lon="11.91043"><ele>235.8</ele><time>2026-04-04T14:26:44.009Z</time></trkpt><trkpt lat="43.99667" lon="11.9105383"><ele>235.60000000000002</ele><time>2026-04-04T14:26:45.009Z</time></trkpt><trkpt lat="43.9967133" lon="11.9106583"><ele>235.4</ele><time>2026-04-04T14:26:46.008Z</time></trkpt><trkpt lat="43.9967317" lon="11.9108033"><ele>235.2</ele><time>2026-04-04T14:26:47.007Z</time></trkpt><trkpt lat="43.9967267" lon="11.9109617"><ele>235.0</ele><time>2026-04-04T14:26:48.007Z</time></trkpt><trkpt lat="43.9967183" lon="11.9111133"><ele>235.0</ele><time>2026-04-04T14:26:49.006Z</time></trkpt><trkpt lat="43.996695" lon="11.91127"><ele>235.0</ele><time>2026-04-04T14:26:50.01Z</time></trkpt><trkpt lat="43.9966767" lon="11.9114083"><ele>235.0</ele><time>2026-04-04T14:26:51.008Z</time></trkpt><trkpt lat="43.9966583" lon="11.91153"><ele>235.0</ele><time>2026-04-04T14:26:52.008Z</time></trkpt><trkpt lat="43.9966383" lon="11.911645"><ele>235.0</ele><time>2026-04-04T14:26:53.006Z</time></trkpt><trkpt lat="43.9966167" lon="11.9117417"><ele>234.5</ele><time>2026-04-04T14:26:54.007Z</time></trkpt><trkpt lat="43.996585" lon="11.911915"><ele>234.0</ele><time>2026-04-04T14:26:56.007Z</time></trkpt><trkpt lat="43.9965717" lon="11.9120633"><ele>233.5</ele><time>2026-04-04T14:26:57.008Z</time></trkpt><trkpt lat="43.9965433" lon="11.9122717"><ele>233.0</ele><time>2026-04-04T14:26:58.006Z</time></trkpt><trkpt lat="43.9965367" lon="11.91249"><ele>231.75</ele><time>2026-04-04T14:26:59.006Z</time></trkpt><trkpt lat="43.99653" lon="11.912685"><ele>230.5</ele><time>2026-04-04T14:27:00.008Z</time></trkpt><trkpt lat="43.9965383" lon="11.9128517"><ele>229.25</ele><time>2026-04-04T14:27:01.008Z</time></trkpt><trkpt lat="43.9965717" lon="11.9129883"><ele>228.0</ele><time>2026-04-04T14:27:02.006Z</time></trkpt><trkpt lat="43.99662" lon="11.913095"><ele>228.0</ele><time>2026-04-04T14:27:03.007Z</time></trkpt><trkpt lat="43.996685" lon="11.91318"><ele>228.0</ele><time>2026-04-04T14:27:04.006Z</time></trkpt><trkpt lat="43.9967817" lon="11.913245"><ele>228.0</ele><time>2026-04-04T14:27:05.006Z</time></trkpt><trkpt lat="43.9969233" lon="11.9132733"><ele>228.0</ele><time>2026-04-04T14:27:06.005Z</time></trkpt><trkpt lat="43.997085" lon="11.9132983"><ele>228.0</ele><time>2026-04-04T14:27:07.007Z</time></trkpt><trkpt lat="43.99727" lon="11.91333"><ele>228.0</ele><time>2026-04-04T14:27:08.005Z</time></trkpt><trkpt lat="43.997485" lon="11.9133783"><ele>228.0</ele><time>2026-04-04T14:27:09.007Z</time></trkpt><trkpt lat="43.9977283" lon="11.9134267"><ele>224.0</ele><time>2026-04-04T14:27:10.007Z</time></trkpt><trkpt lat="43.997985" lon="11.9134833"><ele>220.0</ele><time>2026-04-04T14:27:11.007Z</time></trkpt><trkpt lat="43.9982283" lon="11.9135417"><ele>218.5</ele><time>2026-04-04T14:27:12.007Z</time></trkpt><trkpt lat="43.99846" lon="11.9135933"><ele>217.0</ele><time>2026-04-04T14:27:13.007Z</time></trkpt><trkpt lat="43.9986733" lon="11.9136383"><ele>217.0</ele><time>2026-04-04T14:27:14.007Z</time></trkpt><trkpt lat="43.9988683" lon="11.9136817"><ele>217.0</ele><time>2026-04-04T14:27:15.009Z</time></trkpt><trkpt lat="43.9990517" lon="11.91372"><ele>217.0</ele><time>2026-04-04T14:27:16.006Z</time></trkpt><trkpt lat="43.9992533" lon="11.913755"><ele>215.33333333333331</ele><time>2026-04-04T14:27:17.006Z</time></trkpt><trkpt lat="43.99947" lon="11.9138"><ele>213.66666666666669</ele><time>2026-04-04T14:27:18.005Z</time></trkpt><trkpt lat="43.99969" lon="11.9138517"><ele>212.0</ele><time>2026-04-04T14:27:19.009Z</time></trkpt><trkpt lat="43.9998967" lon="11.9138967"><ele>212.0</ele><time>2026-04-04T14:27:20.007Z</time></trkpt><trkpt lat="44.00009" lon="11.9139383"><ele>212.0</ele><time>2026-04-04T14:27:21.008Z</time></trkpt><trkpt lat="44.0002833" lon="11.91399"><ele>212.0</ele><time>2026-04-04T14:27:22.007Z</time></trkpt><trkpt lat="44.0004833" lon="11.914075"><ele>212.0</ele><time>2026-04-04T14:27:23.007Z</time></trkpt><trkpt lat="44.0006933" lon="11.9142117"><ele>212.0</ele><time>2026-04-04T14:27:24.01Z</time></trkpt><trkpt lat="44.0009067" lon="11.9143817"><ele>206.0</ele><time>2026-04-04T14:27:25.008Z</time></trkpt><trkpt lat="44.00111" lon="11.914565"><ele>200.0</ele><time>2026-04-04T14:27:26.008Z</time></trkpt><trkpt lat="44.0012983" lon="11.9147483"><ele>200.0</ele><time>2026-04-04T14:27:27.008Z</time></trkpt><trkpt lat="44.001475" lon="11.914935"><ele>200.0</ele><time>2026-04-04T14:27:28.007Z</time></trkpt><trkpt lat="44.00165" lon="11.915145"><ele>204.0</ele><time>2026-04-04T14:27:29.009Z</time></trkpt><trkpt lat="44.001825" lon="11.9153883"><ele>208.0</ele><time>2026-04-04T14:27:30.007Z</time></trkpt><trkpt lat="44.0019917" lon="11.9156633"><ele>211.5</ele><time>2026-04-04T14:27:31.008Z</time></trkpt><trkpt lat="44.0021383" lon="11.9159683"><ele>215.0</ele><time>2026-04-04T14:27:32.007Z</time></trkpt><trkpt lat="44.0022617" lon="11.9163067"><ele>215.0</ele><time>2026-04-04T14:27:33.009Z</time></trkpt><trkpt lat="44.0023617" lon="11.916675"><ele>215.0</ele><time>2026-04-04T14:27:34.009Z</time></trkpt><trkpt lat="44.00246" lon="11.9170667"><ele>215.5</ele><time>2026-04-04T14:27:35.009Z</time></trkpt><trkpt lat="44.0025633" lon="11.917475"><ele>216.0</ele><time>2026-04-04T14:27:36.008Z</time></trkpt><trkpt lat="44.0026846" lon="11.917899"><ele>218.0</ele><time>2026-04-04T14:27:37.008Z</time></trkpt><trkpt lat="44.0028147" lon="11.9183326"><ele>220.0</ele><time>2026-04-04T14:27:38.008Z</time></trkpt><trkpt lat="44.0029581" lon="11.9187757"><ele>228.0</ele><time>2026-04-04T14:27:39.009Z</time></trkpt><trkpt lat="44.0031091" lon="11.9192294"><ele>236.0</ele><time>2026-04-04T14:27:40.007Z</time></trkpt><trkpt lat="44.0032669" lon="11.919694"><ele>236.5</ele><time>2026-04-04T14:27:41.009Z</time></trkpt><trkpt lat="44.0034247" lon="11.9201509"><ele>237.0</ele><time>2026-04-04T14:27:42.007Z</time></trkpt><trkpt lat="44.0035761" lon="11.920575"><ele>246.5</ele><time>2026-04-04T14:27:43.006Z</time></trkpt><trkpt lat="44.0037211" lon="11.9209657"><ele>256.0</ele><time>2026-04-04T14:27:44.006Z</time></trkpt><trkpt lat="44.0038489" lon="11.9213239"><ele>256.0</ele><time>2026-04-04T14:27:45.008Z</time></trkpt><trkpt lat="44.0039704" lon="11.921654"><ele>256.0</ele><time>2026-04-04T14:27:46.01Z</time></trkpt><trkpt lat="44.004088" lon="11.9219634"><ele>245.5</ele><time>2026-04-04T14:27:47.006Z</time></trkpt><trkpt lat="44.0041961" lon="11.9222574"><ele>235.0</ele><time>2026-04-04T14:27:48.011Z</time></trkpt><trkpt lat="44.004298" lon="11.9225441"><ele>235.5</ele><time>2026-04-04T14:27:49.008Z</time></trkpt><trkpt lat="44.0043903" lon="11.9228348"><ele>236.0</ele><time>2026-04-04T14:27:50.007Z</time></trkpt><trkpt lat="44.0044716" lon="11.9231345"><ele>237.0</ele><time>2026-04-04T14:27:51.009Z</time></trkpt><trkpt lat="44.0045456" lon="11.9234372"><ele>238.0</ele><time>2026-04-04T14:27:52.006Z</time></trkpt><trkpt lat="44.004611" lon="11.9237383"><ele>238.0</ele><time>2026-04-04T14:27:53.006Z</time></trkpt><trkpt lat="44.0046746" lon="11.9240288"><ele>238.0</ele><time>2026-04-04T14:27:54.007Z</time></trkpt><trkpt lat="44.0047379" lon="11.9243155"><ele>238.0</ele><time>2026-04-04T14:27:55.008Z</time></trkpt><trkpt lat="44.004798" lon="11.924599"><ele>238.66666666666666</ele><time>2026-04-04T14:27:56.007Z</time></trkpt><trkpt lat="44.0048553" lon="11.9248801"><ele>239.33333333333331</ele><time>2026-04-04T14:27:57.007Z</time></trkpt><trkpt lat="44.0049159" lon="11.9251592"><ele>240.0</ele><time>2026-04-04T14:27:58.007Z</time></trkpt><trkpt lat="44.0049792" lon="11.9254423"><ele>239.33333333333331</ele><time>2026-04-04T14:27:59.007Z</time></trkpt><trkpt lat="44.0050449" lon="11.9257307"><ele>238.66666666666666</ele><time>2026-04-04T14:28:00.008Z</time></trkpt><trkpt lat="44.0051134" lon="11.9260211"><ele>238.0</ele><time>2026-04-04T14:28:01.007Z</time></trkpt><trkpt lat="44.0051841" lon="11.9263096"><ele>238.0</ele><time>2026-04-04T14:28:02.008Z</time></trkpt><trkpt lat="44.0052453" lon="11.9265973"><ele>238.0</ele><time>2026-04-04T14:28:03.006Z</time></trkpt><trkpt lat="44.0052943" lon="11.9268991"><ele>238.0</ele><time>2026-04-04T14:28:04.006Z</time></trkpt><trkpt lat="44.0053278" lon="11.9272101"><ele>238.5</ele><time>2026-04-04T14:28:05.006Z</time></trkpt><trkpt lat="44.0053447" lon="11.9275247"><ele>239.0</ele><time>2026-04-04T14:28:06.009Z</time></trkpt><trkpt lat="44.0053382" lon="11.9278632"><ele>237.5</ele><time>2026-04-04T14:28:07.007Z</time></trkpt><trkpt lat="44.0053112" lon="11.9282179"><ele>236.0</ele><time>2026-04-04T14:28:08.008Z</time></trkpt><trkpt lat="44.0052736" lon="11.9285587"><ele>235.0</ele><time>2026-04-04T14:28:09.008Z</time></trkpt><trkpt lat="44.0052335" lon="11.9288723"><ele>234.0</ele><time>2026-04-04T14:28:10.008Z</time></trkpt><trkpt lat="44.0052103" lon="11.929182"><ele>233.5</ele><time>2026-04-04T14:28:11.007Z</time></trkpt><trkpt lat="44.005212" lon="11.9295065"><ele>233.0</ele><time>2026-04-04T14:28:12.007Z</time></trkpt><trkpt lat="44.0052401" lon="11.929843"><ele>230.0</ele><time>2026-04-04T14:28:13.006Z</time></trkpt><trkpt lat="44.0052962" lon="11.9301854"><ele>227.0</ele><time>2026-04-04T14:28:14.007Z</time></trkpt><trkpt lat="44.005386" lon="11.930531"><ele>227.0</ele><time>2026-04-04T14:28:15.008Z</time></trkpt><trkpt lat="44.0055048" lon="11.930881"><ele>227.0</ele><time>2026-04-04T14:28:16.008Z</time></trkpt><trkpt lat="44.0056479" lon="11.9312452"><ele>223.0</ele><time>2026-04-04T14:28:17.006Z</time></trkpt><trkpt lat="44.0058035" lon="11.9316181"><ele>219.0</ele><time>2026-04-04T14:28:18.006Z</time></trkpt><trkpt lat="44.0059513" lon="11.931975"><ele>216.0</ele><time>2026-04-04T14:28:19.009Z</time></trkpt><trkpt lat="44.0060882" lon="11.9323003"><ele>213.0</ele><time>2026-04-04T14:28:20.008Z</time></trkpt><trkpt lat="44.0062141" lon="11.9325954"><ele>213.0</ele><time>2026-04-04T14:28:21.01Z</time></trkpt><trkpt lat="44.0063342" lon="11.9328636"><ele>213.0</ele><time>2026-04-04T14:28:22.009Z</time></trkpt><trkpt lat="44.0064471" lon="11.9331154"><ele>213.0</ele><time>2026-04-04T14:28:23.007Z</time></trkpt><trkpt lat="44.0065464" lon="11.9333529"><ele>215.0</ele><time>2026-04-04T14:28:24.008Z</time></trkpt><trkpt lat="44.0066333" lon="11.9335817"><ele>217.0</ele><time>2026-04-04T14:28:25.008Z</time></trkpt><trkpt lat="44.0067085" lon="11.9338027"><ele>219.0</ele><time>2026-04-04T14:28:26.008Z</time></trkpt><trkpt lat="44.0067707" lon="11.9340151"><ele>219.0</ele><time>2026-04-04T14:28:27.009Z</time></trkpt><trkpt lat="44.006818" lon="11.9342167"><ele>219.0</ele><time>2026-04-04T14:28:28.009Z</time></trkpt><trkpt lat="44.006854" lon="11.9344069"><ele>219.0</ele><time>2026-04-04T14:28:29.009Z</time></trkpt><trkpt lat="44.0068817" lon="11.9345853"><ele>219.0</ele><time>2026-04-04T14:28:30.009Z</time></trkpt><trkpt lat="44.0068986" lon="11.9347536"><ele>219.0</ele><time>2026-04-04T14:28:31.008Z</time></trkpt><trkpt lat="44.0069091" lon="11.9349124"><ele>218.99999999999997</ele><time>2026-04-04T14:28:32.009Z</time></trkpt><trkpt lat="44.0069155" lon="11.9350661"><ele>218.99999999999997</ele><time>2026-04-04T14:28:33.008Z</time></trkpt><trkpt lat="44.0069244" lon="11.9352155"><ele>219.0</ele><time>2026-04-04T14:28:34.007Z</time></trkpt><trkpt lat="44.0069317" lon="11.9353634"><ele>219.0</ele><time>2026-04-04T14:28:35.008Z</time></trkpt><trkpt lat="44.0069369" lon="11.9355138"><ele>219.0</ele><time>2026-04-04T14:28:36.009Z</time></trkpt><trkpt lat="44.0069438" lon="11.9356628"><ele>218.99999999999997</ele><time>2026-04-04T14:28:37.007Z</time></trkpt><trkpt lat="44.0069545" lon="11.9358119"><ele>218.99999999999997</ele><time>2026-04-04T14:28:38.008Z</time></trkpt><trkpt lat="44.006964" lon="11.9359681"><ele>219.0</ele><time>2026-04-04T14:28:39.009Z</time></trkpt><trkpt lat="44.0069748" lon="11.9361281"><ele>219.0</ele><time>2026-04-04T14:28:40.008Z</time></trkpt><trkpt lat="44.0069851" lon="11.9362959"><ele>219.0</ele><time>2026-04-04T14:28:41.009Z</time></trkpt><trkpt lat="44.0069967" lon="11.9364707"><ele>219.0</ele><time>2026-04-04T14:28:42.008Z</time></trkpt><trkpt lat="44.0070079" lon="11.936651"><ele>219.0</ele><time>2026-04-04T14:28:43.009Z</time></trkpt><trkpt lat="44.0070193" lon="11.9368326"><ele>219.0</ele><time>2026-04-04T14:28:44.007Z</time></trkpt><trkpt lat="44.0070321" lon="11.9370149"><ele>219.0</ele><time>2026-04-04T14:28:45.009Z</time></trkpt><trkpt lat="44.0070468" lon="11.937201"><ele>219.0</ele><time>2026-04-04T14:28:46.008Z</time></trkpt><trkpt lat="44.0070577" lon="11.9373892"><ele>219.0</ele><time>2026-04-04T14:28:47.006Z</time></trkpt><trkpt lat="44.0070703" lon="11.937581"><ele>219.0</ele><time>2026-04-04T14:28:48.009Z</time></trkpt><trkpt lat="44.007085" lon="11.9377854"><ele>219.0</ele><time>2026-04-04T14:28:49.008Z</time></trkpt><trkpt lat="44.0071001" lon="11.938018"><ele>219.0</ele><time>2026-04-04T14:28:50.009Z</time></trkpt><trkpt lat="44.0071151" lon="11.9382654"><ele>219.0</ele><time>2026-04-04T14:28:51.008Z</time></trkpt><trkpt lat="44.00713" lon="11.9385018"><ele>219.0</ele><time>2026-04-04T14:28:52.008Z</time></trkpt><trkpt lat="44.0071426" lon="11.9387165"><ele>219.0</ele><time>2026-04-04T14:28:53.01Z</time></trkpt><trkpt lat="44.0071566" lon="11.9389104"><ele>219.0</ele><time>2026-04-04T14:28:54.006Z</time></trkpt><trkpt lat="44.0071686" lon="11.939087"><ele>219.0</ele><time>2026-04-04T14:28:55.009Z</time></trkpt><trkpt lat="44.0071802" lon="11.9392444"><ele>219.6</ele><time>2026-04-04T14:28:56.008Z</time></trkpt><trkpt lat="44.0071904" lon="11.9393901"><ele>220.2</ele><time>2026-04-04T14:28:57.008Z</time></trkpt><trkpt lat="44.0071988" lon="11.9395279"><ele>220.79999999999998</ele><time>2026-04-04T14:28:58.008Z</time></trkpt><trkpt lat="44.0072059" lon="11.939667"><ele>221.39999999999998</ele><time>2026-04-04T14:28:59.006Z</time></trkpt><trkpt lat="44.0072142" lon="11.9398079"><ele>222.0</ele><time>2026-04-04T14:29:00.007Z</time></trkpt><trkpt lat="44.0072214" lon="11.9399561"><ele>221.5</ele><time>2026-04-04T14:29:01.009Z</time></trkpt><trkpt lat="44.0072279" lon="11.9401087"><ele>221.0</ele><time>2026-04-04T14:29:02.007Z</time></trkpt><trkpt lat="44.0072346" lon="11.9402671"><ele>220.5</ele><time>2026-04-04T14:29:03.011Z</time></trkpt><trkpt lat="44.007241" lon="11.9404385"><ele>220.0</ele><time>2026-04-04T14:29:04.007Z</time></trkpt><trkpt lat="44.0072369" lon="11.9406166"><ele>220.0</ele><time>2026-04-04T14:29:05.006Z</time></trkpt><trkpt lat="44.0072202" lon="11.9407861"><ele>220.0</ele><time>2026-04-04T14:29:06.007Z</time></trkpt><trkpt lat="44.0071907" lon="11.9409379"><ele>220.0</ele><time>2026-04-04T14:29:07.008Z</time></trkpt><trkpt lat="44.0071453" lon="11.9410769"><ele>220.0</ele><time>2026-04-04T14:29:08.005Z</time></trkpt><trkpt lat="44.0070813" lon="11.9412139"><ele>219.33333333333331</ele><time>2026-04-04T14:29:09.009Z</time></trkpt><trkpt lat="44.0069877" lon="11.9413672"><ele>218.66666666666669</ele><time>2026-04-04T14:29:10.007Z</time></trkpt><trkpt lat="44.0068729" lon="11.9415361"><ele>218.0</ele><time>2026-04-04T14:29:11.008Z</time></trkpt><trkpt lat="44.0067584" lon="11.9417004"><ele>219.5</ele><time>2026-04-04T14:29:12.007Z</time></trkpt><trkpt lat="44.0066493" lon="11.9418499"><ele>221.0</ele><time>2026-04-04T14:29:13.009Z</time></trkpt><trkpt lat="44.0065523" lon="11.9419909"><ele>222.5</ele><time>2026-04-04T14:29:14.008Z</time></trkpt><trkpt lat="44.0064876" lon="11.9421547"><ele>224.0</ele><time>2026-04-04T14:29:15.007Z</time></trkpt><trkpt lat="44.0064427" lon="11.9423472"><ele>223.66666666666669</ele><time>2026-04-04T14:29:16.008Z</time></trkpt><trkpt lat="44.0064003" lon="11.9425719"><ele>223.33333333333331</ele><time>2026-04-04T14:29:17.007Z</time></trkpt><trkpt lat="44.0063605" lon="11.9428061"><ele>223.0</ele><time>2026-04-04T14:29:18.007Z</time></trkpt><trkpt lat="44.0063258" lon="11.9430281"><ele>223.0</ele><time>2026-04-04T14:29:19.007Z</time></trkpt><trkpt lat="44.0063024" lon="11.9432373"><ele>223.0</ele><time>2026-04-04T14:29:20.006Z</time></trkpt><trkpt lat="44.0063106" lon="11.9434533"><ele>223.0</ele><time>2026-04-04T14:29:21.007Z</time></trkpt><trkpt lat="44.006351" lon="11.9436836"><ele>223.66666666666666</ele><time>2026-04-04T14:29:22.007Z</time></trkpt><trkpt lat="44.0064147" lon="11.9439043"><ele>224.33333333333331</ele><time>2026-04-04T14:29:23.008Z</time></trkpt><trkpt lat="44.006496" lon="11.9441024"><ele>225.0</ele><time>2026-04-04T14:29:24.008Z</time></trkpt><trkpt lat="44.006607" lon="11.9442726"><ele>222.66666666666669</ele><time>2026-04-04T14:29:25.011Z</time></trkpt><trkpt lat="44.0067398" lon="11.9444218"><ele>220.33333333333334</ele><time>2026-04-04T14:29:26.007Z</time></trkpt><trkpt lat="44.0068932" lon="11.9445533"><ele>218.0</ele><time>2026-04-04T14:29:27.007Z</time></trkpt><trkpt lat="44.007064" lon="11.9446723"><ele>218.0</ele><time>2026-04-04T14:29:28.006Z</time></trkpt><trkpt lat="44.0072374" lon="11.9447884"><ele>218.0</ele><time>2026-04-04T14:29:29.006Z</time></trkpt><trkpt lat="44.0074075" lon="11.9449007"><ele>218.0</ele><time>2026-04-04T14:29:30.007Z</time></trkpt><trkpt lat="44.0075704" lon="11.945006"><ele>218.0</ele><time>2026-04-04T14:29:31.006Z</time></trkpt><trkpt lat="44.0077224" lon="11.9451221"><ele>218.0</ele><time>2026-04-04T14:29:32.008Z</time></trkpt><trkpt lat="44.0078741" lon="11.9452408"><ele>218.0</ele><time>2026-04-04T14:29:33.008Z</time></trkpt><trkpt lat="44.0080205" lon="11.9453637"><ele>218.0</ele><time>2026-04-04T14:29:34.01Z</time></trkpt><trkpt lat="44.0081688" lon="11.9454837"><ele>218.0</ele><time>2026-04-04T14:29:35.006Z</time></trkpt><trkpt lat="44.0083307" lon="11.9456059"><ele>218.0</ele><time>2026-04-04T14:29:36.006Z</time></trkpt><trkpt lat="44.0084984" lon="11.9457389"><ele>214.66666666666669</ele><time>2026-04-04T14:29:37.006Z</time></trkpt><trkpt lat="44.008665" lon="11.9459002"><ele>211.33333333333331</ele><time>2026-04-04T14:29:38.007Z</time></trkpt><trkpt lat="44.0088168" lon="11.9460899"><ele>208.0</ele><time>2026-04-04T14:29:39.006Z</time></trkpt><trkpt lat="44.0089446" lon="11.9462976"><ele>208.0</ele><time>2026-04-04T14:29:40.005Z</time></trkpt><trkpt lat="44.0090538" lon="11.9465082"><ele>208.0</ele><time>2026-04-04T14:29:41.007Z</time></trkpt><trkpt lat="44.0091538" lon="11.9467142"><ele>208.0</ele><time>2026-04-04T14:29:42.006Z</time></trkpt><trkpt lat="44.0092545" lon="11.9469143"><ele>207.0</ele><time>2026-04-04T14:29:43.006Z</time></trkpt><trkpt lat="44.0093591" lon="11.9471285"><ele>206.0</ele><time>2026-04-04T14:29:44.005Z</time></trkpt><trkpt lat="44.0094786" lon="11.9473716"><ele>205.0</ele><time>2026-04-04T14:29:45.007Z</time></trkpt><trkpt lat="44.0096166" lon="11.947647"><ele>205.0</ele><time>2026-04-04T14:29:46.006Z</time></trkpt><trkpt lat="44.009766" lon="11.9479331"><ele>205.0</ele><time>2026-04-04T14:29:47.006Z</time></trkpt><trkpt lat="44.0099126" lon="11.9482174"><ele>203.0</ele><time>2026-04-04T14:29:48.007Z</time></trkpt><trkpt lat="44.0100575" lon="11.9485089"><ele>201.0</ele><time>2026-04-04T14:29:49.008Z</time></trkpt><trkpt lat="44.0102025" lon="11.9488253"><ele>201.0</ele><time>2026-04-04T14:29:50.01Z</time></trkpt><trkpt lat="44.0103295" lon="11.949178"><ele>201.0</ele><time>2026-04-04T14:29:51.008Z</time></trkpt><trkpt lat="44.010447" lon="11.9495556"><ele>202.5</ele><time>2026-04-04T14:29:52.008Z</time></trkpt><trkpt lat="44.0105595" lon="11.9499623"><ele>204.0</ele><time>2026-04-04T14:29:53.006Z</time></trkpt><trkpt lat="44.0106874" lon="11.9503855"><ele>206.0</ele><time>2026-04-04T14:29:54.006Z</time></trkpt><trkpt lat="44.0108206" lon="11.9508257"><ele>208.0</ele><time>2026-04-04T14:29:55.005Z</time></trkpt><trkpt lat="44.0109489" lon="11.9512717"><ele>202.5</ele><time>2026-04-04T14:29:56.006Z</time></trkpt><trkpt lat="44.0110762" lon="11.9516927"><ele>197.0</ele><time>2026-04-04T14:29:57.007Z</time></trkpt><trkpt lat="44.011203" lon="11.9520802"><ele>197.0</ele><time>2026-04-04T14:29:58.006Z</time></trkpt><trkpt lat="44.0113174" lon="11.9524412"><ele>197.0</ele><time>2026-04-04T14:29:59.004Z</time></trkpt><trkpt lat="44.0114324" lon="11.9527775"><ele>198.0</ele><time>2026-04-04T14:30:00.009Z</time></trkpt><trkpt lat="44.01155" lon="11.9530989"><ele>199.0</ele><time>2026-04-04T14:30:01.007Z</time></trkpt><trkpt lat="44.0116602" lon="11.9534155"><ele>194.5</ele><time>2026-04-04T14:30:02.005Z</time></trkpt><trkpt lat="44.0117764" lon="11.9537343"><ele>190.0</ele><time>2026-04-04T14:30:03.006Z</time></trkpt><trkpt lat="44.0118876" lon="11.9540661"><ele>191.5</ele><time>2026-04-04T14:30:04.006Z</time></trkpt><trkpt lat="44.0119926" lon="11.9544145"><ele>193.0</ele><time>2026-04-04T14:30:05.007Z</time></trkpt><trkpt lat="44.0120826" lon="11.9547833"><ele>193.0</ele><time>2026-04-04T14:30:06.006Z</time></trkpt><trkpt lat="44.0121633" lon="11.9551674"><ele>193.0</ele><time>2026-04-04T14:30:07.007Z</time></trkpt><trkpt lat="44.0122303" lon="11.9555785"><ele>193.5</ele><time>2026-04-04T14:30:08.006Z</time></trkpt><trkpt lat="44.0123069" lon="11.9560076"><ele>194.0</ele><time>2026-04-04T14:30:09.005Z</time></trkpt><trkpt lat="44.0123829" lon="11.9564597"><ele>195.0</ele><time>2026-04-04T14:30:10.006Z</time></trkpt><trkpt lat="44.0124606" lon="11.9569332"><ele>196.0</ele><time>2026-04-04T14:30:11.006Z</time></trkpt><trkpt lat="44.0125366" lon="11.9574251"><ele>192.0</ele><time>2026-04-04T14:30:12.007Z</time></trkpt><trkpt lat="44.0126106" lon="11.9579147"><ele>188.0</ele><time>2026-04-04T14:30:13.008Z</time></trkpt><trkpt lat="44.0126807" lon="11.9583771"><ele>188.0</ele><time>2026-04-04T14:30:14.007Z</time></trkpt><trkpt lat="44.0127375" lon="11.95881"><ele>188.0</ele><time>2026-04-04T14:30:15.005Z</time></trkpt><trkpt lat="44.0127971" lon="11.9592081"><ele>190.5</ele><time>2026-04-04T14:30:16.008Z</time></trkpt><trkpt lat="44.0128459" lon="11.9595751"><ele>193.0</ele><time>2026-04-04T14:30:17.006Z</time></trkpt><trkpt lat="44.0128975" lon="11.9599183"><ele>197.5</ele><time>2026-04-04T14:30:18.007Z</time></trkpt><trkpt lat="44.0129507" lon="11.9602495"><ele>202.0</ele><time>2026-04-04T14:30:19.006Z</time></trkpt><trkpt lat="44.0130027" lon="11.9605796"><ele>205.0</ele><time>2026-04-04T14:30:20.009Z</time></trkpt><trkpt lat="44.0130673" lon="11.9609075"><ele>208.0</ele><time>2026-04-04T14:30:21.008Z</time></trkpt><trkpt lat="44.0131592" lon="11.9612297"><ele>208.0</ele><time>2026-04-04T14:30:22.009Z</time></trkpt><trkpt lat="44.0132793" lon="11.9615486"><ele>208.0</ele><time>2026-04-04T14:30:23.007Z</time></trkpt><trkpt lat="44.0134364" lon="11.9618655"><ele>202.0</ele><time>2026-04-04T14:30:24.007Z</time></trkpt><trkpt lat="44.013613" lon="11.962193"><ele>196.0</ele><time>2026-04-04T14:30:25.008Z</time></trkpt><trkpt lat="44.0138021" lon="11.9625312"><ele>192.0</ele><time>2026-04-04T14:30:26.008Z</time></trkpt><trkpt lat="44.0140019" lon="11.9628701"><ele>188.0</ele><time>2026-04-04T14:30:27.007Z</time></trkpt><trkpt lat="44.0142237" lon="11.9632018"><ele>192.5</ele><time>2026-04-04T14:30:28.009Z</time></trkpt><trkpt lat="44.0144729" lon="11.963512"><ele>197.0</ele><time>2026-04-04T14:30:29.006Z</time></trkpt><trkpt lat="44.0147337" lon="11.9637935"><ele>197.0</ele><time>2026-04-04T14:30:30.008Z</time></trkpt><trkpt lat="44.0149827" lon="11.9640544"><ele>197.0</ele><time>2026-04-04T14:30:31.006Z</time></trkpt><trkpt lat="44.0152042" lon="11.9643116"><ele>191.0</ele><time>2026-04-04T14:30:32.006Z</time></trkpt><trkpt lat="44.0154024" lon="11.9645573"><ele>185.0</ele><time>2026-04-04T14:30:33.008Z</time></trkpt><trkpt lat="44.015589" lon="11.9647832"><ele>185.0</ele><time>2026-04-04T14:30:34.007Z</time></trkpt><trkpt lat="44.0157661" lon="11.9649984"><ele>185.0</ele><time>2026-04-04T14:30:35.007Z</time></trkpt><trkpt lat="44.0159344" lon="11.965204"><ele>182.66666666666666</ele><time>2026-04-04T14:30:36.006Z</time></trkpt><trkpt lat="44.016088" lon="11.9654037"><ele>180.33333333333334</ele><time>2026-04-04T14:30:37.006Z</time></trkpt><trkpt lat="44.0162338" lon="11.9656039"><ele>178.0</ele><time>2026-04-04T14:30:38.007Z</time></trkpt><trkpt lat="44.0163732" lon="11.9658179"><ele>179.66666666666669</ele><time>2026-04-04T14:30:39.006Z</time></trkpt><trkpt lat="44.0165026" lon="11.9660444"><ele>181.33333333333334</ele><time>2026-04-04T14:30:40.006Z</time></trkpt><trkpt lat="44.0166118" lon="11.966287"><ele>183.0</ele><time>2026-04-04T14:30:41.005Z</time></trkpt><trkpt lat="44.0167018" lon="11.9665352"><ele>185.66666666666666</ele><time>2026-04-04T14:30:42.006Z</time></trkpt><trkpt lat="44.0167759" lon="11.9667794"><ele>188.33333333333331</ele><time>2026-04-04T14:30:43.011Z</time></trkpt><trkpt lat="44.0168409" lon="11.9670215"><ele>191.0</ele><time>2026-04-04T14:30:44.006Z</time></trkpt><trkpt lat="44.0169055" lon="11.9672668"><ele>191.0</ele><time>2026-04-04T14:30:45.009Z</time></trkpt><trkpt lat="44.0169691" lon="11.9674991"><ele>191.0</ele><time>2026-04-04T14:30:46.006Z</time></trkpt><trkpt lat="44.017032" lon="11.967714"><ele>191.0</ele><time>2026-04-04T14:30:47.009Z</time></trkpt><trkpt lat="44.0170986" lon="11.9679262"><ele>193.33333333333331</ele><time>2026-04-04T14:30:48.008Z</time></trkpt><trkpt lat="44.0171784" lon="11.9681452"><ele>195.66666666666666</ele><time>2026-04-04T14:30:49.01Z</time></trkpt><trkpt lat="44.0172809" lon="11.9683828"><ele>198.0</ele><time>2026-04-04T14:30:50.008Z</time></trkpt><trkpt lat="44.0174127" lon="11.968636"><ele>199.0</ele><time>2026-04-04T14:30:51.007Z</time></trkpt><trkpt lat="44.0175719" lon="11.9688974"><ele>200.0</ele><time>2026-04-04T14:30:52.009Z</time></trkpt><trkpt lat="44.0177681" lon="11.9691655"><ele>208.5</ele><time>2026-04-04T14:30:53.009Z</time></trkpt><trkpt lat="44.0179856" lon="11.969426"><ele>217.0</ele><time>2026-04-04T14:30:54.006Z</time></trkpt><trkpt lat="44.0182138" lon="11.9696748"><ele>214.0</ele><time>2026-04-04T14:30:55.006Z</time></trkpt><trkpt lat="44.0184473" lon="11.9699039"><ele>211.0</ele><time>2026-04-04T14:30:56.006Z</time></trkpt><trkpt lat="44.0186888" lon="11.9701108"><ele>211.0</ele><time>2026-04-04T14:30:57.006Z</time></trkpt><trkpt lat="44.0189358" lon="11.970325"><ele>211.0</ele><time>2026-04-04T14:30:58.007Z</time></trkpt><trkpt lat="44.0191881" lon="11.9705579"><ele>208.0</ele><time>2026-04-04T14:30:59.006Z</time></trkpt><trkpt lat="44.0194632" lon="11.970794"><ele>205.0</ele><time>2026-04-04T14:31:00.01Z</time></trkpt><trkpt lat="44.0197491" lon="11.9710566"><ele>198.5</ele><time>2026-04-04T14:31:01.007Z</time></trkpt><trkpt lat="44.0200366" lon="11.9713283"><ele>192.0</ele><time>2026-04-04T14:31:02.005Z</time></trkpt><trkpt lat="44.0203034" lon="11.9715832"><ele>196.5</ele><time>2026-04-04T14:31:03.006Z</time></trkpt><trkpt lat="44.0205347" lon="11.9718028"><ele>201.0</ele><time>2026-04-04T14:31:04.006Z</time></trkpt><trkpt lat="44.020739" lon="11.9719981"><ele>197.66666666666666</ele><time>2026-04-04T14:31:05.008Z</time></trkpt><trkpt lat="44.0209237" lon="11.9721764"><ele>194.33333333333331</ele><time>2026-04-04T14:31:06.005Z</time></trkpt><trkpt lat="44.0210978" lon="11.972341"><ele>191.0</ele><time>2026-04-04T14:31:07.006Z</time></trkpt><trkpt lat="44.0212693" lon="11.972498"><ele>191.33333333333331</ele><time>2026-04-04T14:31:08.007Z</time></trkpt><trkpt lat="44.021443" lon="11.9726624"><ele>191.66666666666666</ele><time>2026-04-04T14:31:09.007Z</time></trkpt><trkpt lat="44.021633" lon="11.9728369"><ele>192.0</ele><time>2026-04-04T14:31:10.006Z</time></trkpt><trkpt lat="44.0218355" lon="11.9730161"><ele>192.0</ele><time>2026-04-04T14:31:11.005Z</time></trkpt><trkpt lat="44.0220415" lon="11.9731985"><ele>192.0</ele><time>2026-04-04T14:31:12.007Z</time></trkpt><trkpt lat="44.0222396" lon="11.973379"><ele>193.0</ele><time>2026-04-04T14:31:13.009Z</time></trkpt><trkpt lat="44.022423" lon="11.9735506"><ele>194.0</ele><time>2026-04-04T14:31:14.007Z</time></trkpt><trkpt lat="44.0225976" lon="11.9737167"><ele>195.0</ele><time>2026-04-04T14:31:15.008Z</time></trkpt><trkpt lat="44.0227812" lon="11.9738855"><ele>195.0</ele><time>2026-04-04T14:31:16.008Z</time></trkpt><trkpt lat="44.0229772" lon="11.9740696"><ele>195.0</ele><time>2026-04-04T14:31:17.01Z</time></trkpt><trkpt lat="44.02317" lon="11.9742483"><ele>195.66666666666669</ele><time>2026-04-04T14:31:18.006Z</time></trkpt><trkpt lat="44.0233422" lon="11.9744072"><ele>196.33333333333334</ele><time>2026-04-04T14:31:19.006Z</time></trkpt><trkpt lat="44.0234879" lon="11.9745447"><ele>197.0</ele><time>2026-04-04T14:31:20.006Z</time></trkpt><trkpt lat="44.0236182" lon="11.9746776"><ele>197.0</ele><time>2026-04-04T14:31:21.008Z</time></trkpt><trkpt lat="44.0237389" lon="11.9748052"><ele>197.0</ele><time>2026-04-04T14:31:22.007Z</time></trkpt><trkpt lat="44.0238571" lon="11.974923"><ele>197.0</ele><time>2026-04-04T14:31:23.006Z</time></trkpt><trkpt lat="44.0239746" lon="11.975038"><ele>197.0</ele><time>2026-04-04T14:31:24.007Z</time></trkpt><trkpt lat="44.0240933" lon="11.9751507"><ele>195.5</ele><time>2026-04-04T14:31:25.008Z</time></trkpt><trkpt lat="44.0242075" lon="11.975258"><ele>194.0</ele><time>2026-04-04T14:31:26.006Z</time></trkpt><trkpt lat="44.0243167" lon="11.975356"><ele>192.5</ele><time>2026-04-04T14:31:27.008Z</time></trkpt><trkpt lat="44.0244182" lon="11.9754477"><ele>191.0</ele><time>2026-04-04T14:31:28.007Z</time></trkpt><trkpt lat="44.0245158" lon="11.9755404"><ele>191.0</ele><time>2026-04-04T14:31:29.006Z</time></trkpt><trkpt lat="44.0246171" lon="11.9756341"><ele>191.0</ele><time>2026-04-04T14:31:30.005Z</time></trkpt><trkpt lat="44.024723" lon="11.9757384"><ele>191.0</ele><time>2026-04-04T14:31:31.008Z</time></trkpt><trkpt lat="44.0248447" lon="11.97586"><ele>191.0</ele><time>2026-04-04T14:31:32.006Z</time></trkpt><trkpt lat="44.0249848" lon="11.9760228"><ele>188.33333333333331</ele><time>2026-04-04T14:31:33.008Z</time></trkpt><trkpt lat="44.0251358" lon="11.9762305"><ele>185.66666666666666</ele><time>2026-04-04T14:31:34.008Z</time></trkpt><trkpt lat="44.0252726" lon="11.9764969"><ele>183.0</ele><time>2026-04-04T14:31:35.008Z</time></trkpt><trkpt lat="44.0254258" lon="11.9768023"><ele>183.0</ele><time>2026-04-04T14:31:36.008Z</time></trkpt><trkpt lat="44.0255777" lon="11.9771324"><ele>183.0</ele><time>2026-04-04T14:31:37.007Z</time></trkpt><trkpt lat="44.0257173" lon="11.9774494"><ele>182.0</ele><time>2026-04-04T14:31:38.007Z</time></trkpt><trkpt lat="44.0258443" lon="11.9777431"><ele>181.0</ele><time>2026-04-04T14:31:39.009Z</time></trkpt><trkpt lat="44.0259666" lon="11.9780037"><ele>181.0</ele><time>2026-04-04T14:31:40.006Z</time></trkpt><trkpt lat="44.026085" lon="11.9782395"><ele>181.0</ele><time>2026-04-04T14:31:41.011Z</time></trkpt><trkpt lat="44.0261944" lon="11.978456"><ele>181.0</ele><time>2026-04-04T14:31:42.008Z</time></trkpt><trkpt lat="44.0263096" lon="11.9786693"><ele>181.0</ele><time>2026-04-04T14:31:43.008Z</time></trkpt><trkpt lat="44.0264567" lon="11.9788782"><ele>181.0</ele><time>2026-04-04T14:31:44.01Z</time></trkpt><trkpt lat="44.0266233" lon="11.9791069"><ele>181.0</ele><time>2026-04-04T14:31:45.008Z</time></trkpt><trkpt lat="44.0267981" lon="11.9793309"><ele>181.0</ele><time>2026-04-04T14:31:46.007Z</time></trkpt><trkpt lat="44.0269594" lon="11.9795367"><ele>181.0</ele><time>2026-04-04T14:31:47.007Z</time></trkpt><trkpt lat="44.0271122" lon="11.9797465"><ele>181.0</ele><time>2026-04-04T14:31:48.005Z</time></trkpt><trkpt lat="44.0272633" lon="11.9800004"><ele>181.0</ele><time>2026-04-04T14:31:49.006Z</time></trkpt><trkpt lat="44.0273908" lon="11.9802976"><ele>181.0</ele><time>2026-04-04T14:31:50.007Z</time></trkpt><trkpt lat="44.0275036" lon="11.9806064"><ele>177.5</ele><time>2026-04-04T14:31:51.009Z</time></trkpt><trkpt lat="44.027626" lon="11.9809035"><ele>174.0</ele><time>2026-04-04T14:31:52.008Z</time></trkpt><trkpt lat="44.0277841" lon="11.9811937"><ele>174.0</ele><time>2026-04-04T14:31:53.007Z</time></trkpt><trkpt lat="44.0279811" lon="11.9814905"><ele>174.0</ele><time>2026-04-04T14:31:54.009Z</time></trkpt><trkpt lat="44.0282082" lon="11.9817892"><ele>170.0</ele><time>2026-04-04T14:31:55.007Z</time></trkpt><trkpt lat="44.0284548" lon="11.9820852"><ele>166.0</ele><time>2026-04-04T14:31:56.007Z</time></trkpt><trkpt lat="44.0287182" lon="11.9823903"><ele>167.5</ele><time>2026-04-04T14:31:57.008Z</time></trkpt><trkpt lat="44.0289905" lon="11.9827083"><ele>169.0</ele><time>2026-04-04T14:31:58.007Z</time></trkpt><trkpt lat="44.0292773" lon="11.9830339"><ele>165.5</ele><time>2026-04-04T14:31:59.006Z</time></trkpt><trkpt lat="44.0295773" lon="11.9833634"><ele>162.0</ele><time>2026-04-04T14:32:00.007Z</time></trkpt><trkpt lat="44.0298913" lon="11.983686"><ele>161.0</ele><time>2026-04-04T14:32:01.007Z</time></trkpt><trkpt lat="44.0302115" lon="11.9840165"><ele>160.0</ele><time>2026-04-04T14:32:02.007Z</time></trkpt><trkpt lat="44.0305363" lon="11.9843557"><ele>159.5</ele><time>2026-04-04T14:32:03.009Z</time></trkpt><trkpt lat="44.0308514" lon="11.9846944"><ele>159.0</ele><time>2026-04-04T14:32:04.008Z</time></trkpt><trkpt lat="44.031148" lon="11.9850131"><ele>159.0</ele><time>2026-04-04T14:32:05.008Z</time></trkpt><trkpt lat="44.0314218" lon="11.985337"><ele>159.0</ele><time>2026-04-04T14:32:06.009Z</time></trkpt><trkpt lat="44.0317074" lon="11.9856525"><ele>160.0</ele><time>2026-04-04T14:32:07.008Z</time></trkpt><trkpt lat="44.0319996" lon="11.9859731"><ele>161.0</ele><time>2026-04-04T14:32:08.01Z</time></trkpt><trkpt lat="44.0322866" lon="11.9862853"><ele>161.5</ele><time>2026-04-04T14:32:09.008Z</time></trkpt><trkpt lat="44.0325584" lon="11.9865809"><ele>162.0</ele><time>2026-04-04T14:32:10.006Z</time></trkpt><trkpt lat="44.0328036" lon="11.9868686"><ele>162.0</ele><time>2026-04-04T14:32:11.007Z</time></trkpt><trkpt lat="44.033032" lon="11.9871331"><ele>162.0</ele><time>2026-04-04T14:32:12.006Z</time></trkpt><trkpt lat="44.0332399" lon="11.9873809"><ele>160.5</ele><time>2026-04-04T14:32:13.006Z</time></trkpt><trkpt lat="44.0334194" lon="11.9876335"><ele>159.0</ele><time>2026-04-04T14:32:14.006Z</time></trkpt><trkpt lat="44.0335911" lon="11.987891"><ele>159.0</ele><time>2026-04-04T14:32:15.008Z</time></trkpt><trkpt lat="44.0337585" lon="11.9881532"><ele>159.0</ele><time>2026-04-04T14:32:16.008Z</time></trkpt><trkpt lat="44.033922" lon="11.9884217"><ele>159.0</ele><time>2026-04-04T14:32:17.006Z</time></trkpt><trkpt lat="44.0340871" lon="11.9886934"><ele>159.0</ele><time>2026-04-04T14:32:18.006Z</time></trkpt><trkpt lat="44.0342593" lon="11.988962"><ele>156.0</ele><time>2026-04-04T14:32:19.007Z</time></trkpt><trkpt lat="44.0344323" lon="11.9892373"><ele>153.0</ele><time>2026-04-04T14:32:20.005Z</time></trkpt><trkpt lat="44.0346108" lon="11.9895279"><ele>153.0</ele><time>2026-04-04T14:32:21.006Z</time></trkpt><trkpt lat="44.0347978" lon="11.9898362"><ele>153.0</ele><time>2026-04-04T14:32:22.007Z</time></trkpt><trkpt lat="44.0350031" lon="11.9901514"><ele>150.0</ele><time>2026-04-04T14:32:23.008Z</time></trkpt><trkpt lat="44.0352076" lon="11.9904645"><ele>147.0</ele><time>2026-04-04T14:32:24.007Z</time></trkpt><trkpt lat="44.035401" lon="11.9907631"><ele>151.0</ele><time>2026-04-04T14:32:25.008Z</time></trkpt><trkpt lat="44.0355789" lon="11.9910423"><ele>155.0</ele><time>2026-04-04T14:32:26.006Z</time></trkpt><trkpt lat="44.0357451" lon="11.9913002"><ele>152.0</ele><time>2026-04-04T14:32:27.008Z</time></trkpt><trkpt lat="44.0359032" lon="11.9915458"><ele>149.0</ele><time>2026-04-04T14:32:28.008Z</time></trkpt><trkpt lat="44.0360573" lon="11.9917913"><ele>149.0</ele><time>2026-04-04T14:32:29.007Z</time></trkpt><trkpt lat="44.0362098" lon="11.9920306"><ele>149.0</ele><time>2026-04-04T14:32:30.007Z</time></trkpt><trkpt lat="44.0363619" lon="11.9922715"><ele>149.0</ele><time>2026-04-04T14:32:31.007Z</time></trkpt><trkpt lat="44.0365381" lon="11.9925209"><ele>149.0</ele><time>2026-04-04T14:32:32.007Z</time></trkpt><trkpt lat="44.0367556" lon="11.9927539"><ele>149.0</ele><time>2026-04-04T14:32:33.006Z</time></trkpt><trkpt lat="44.0370053" lon="11.9929688"><ele>149.0</ele><time>2026-04-04T14:32:34.007Z</time></trkpt><trkpt lat="44.0372592" lon="11.9931717"><ele>147.5</ele><time>2026-04-04T14:32:35.01Z</time></trkpt><trkpt lat="44.0374965" lon="11.9933656"><ele>146.0</ele><time>2026-04-04T14:32:36.007Z</time></trkpt><trkpt lat="44.0377065" lon="11.9935496"><ele>146.0</ele><time>2026-04-04T14:32:37.006Z</time></trkpt><trkpt lat="44.0378872" lon="11.9937222"><ele>146.0</ele><time>2026-04-04T14:32:38.008Z</time></trkpt><trkpt lat="44.0380533" lon="11.993875"><ele>146.0</ele><time>2026-04-04T14:32:39.007Z</time></trkpt><trkpt lat="44.0382108" lon="11.9940235"><ele>144.0</ele><time>2026-04-04T14:32:40.007Z</time></trkpt><trkpt lat="44.0383489" lon="11.9941942"><ele>142.0</ele><time>2026-04-04T14:32:41.007Z</time></trkpt><trkpt lat="44.038464" lon="11.994397"><ele>140.0</ele><time>2026-04-04T14:32:42.006Z</time></trkpt><trkpt lat="44.038556" lon="11.9946425"><ele>140.0</ele><time>2026-04-04T14:32:43.008Z</time></trkpt><trkpt lat="44.0386148" lon="11.9949391"><ele>140.0</ele><time>2026-04-04T14:32:44.007Z</time></trkpt><trkpt lat="44.0386506" lon="11.9952633"><ele>141.5</ele><time>2026-04-04T14:32:45.006Z</time></trkpt><trkpt lat="44.0386656" lon="11.9955851"><ele>143.0</ele><time>2026-04-04T14:32:46.005Z</time></trkpt><trkpt lat="44.0386826" lon="11.9958984"><ele>140.33333333333331</ele><time>2026-04-04T14:32:47.006Z</time></trkpt><trkpt lat="44.0387103" lon="11.9961996"><ele>137.66666666666666</ele><time>2026-04-04T14:32:48.006Z</time></trkpt><trkpt lat="44.0387628" lon="11.9964856"><ele>135.0</ele><time>2026-04-04T14:32:49.005Z</time></trkpt><trkpt lat="44.0388453" lon="11.9967633"><ele>129.0</ele><time>2026-04-04T14:32:50.007Z</time></trkpt><trkpt lat="44.0389668" lon="11.9970353"><ele>123.0</ele><time>2026-04-04T14:32:51.007Z</time></trkpt><trkpt lat="44.0391229" lon="11.9973121"><ele>122.0</ele><time>2026-04-04T14:32:52.008Z</time></trkpt><trkpt lat="44.0393049" lon="11.9976054"><ele>121.0</ele><time>2026-04-04T14:32:53.006Z</time></trkpt><trkpt lat="44.0395034" lon="11.9979215"><ele>121.0</ele><time>2026-04-04T14:32:54.007Z</time></trkpt><trkpt lat="44.0397072" lon="11.9982465"><ele>121.0</ele><time>2026-04-04T14:32:55.009Z</time></trkpt><trkpt lat="44.0399096" lon="11.9985562"><ele>121.0</ele><time>2026-04-04T14:32:56.01Z</time></trkpt><trkpt lat="44.040087" lon="11.9988519"><ele>121.0</ele><time>2026-04-04T14:32:57.009Z</time></trkpt><trkpt lat="44.0402575" lon="11.9991177"><ele>120.0</ele><time>2026-04-04T14:32:58.008Z</time></trkpt><trkpt lat="44.0404097" lon="11.9993718"><ele>119.0</ele><time>2026-04-04T14:32:59.007Z</time></trkpt><trkpt lat="44.0405488" lon="11.9996126"><ele>119.0</ele><time>2026-04-04T14:33:00.006Z</time></trkpt><trkpt lat="44.0406789" lon="11.9998529"><ele>119.0</ele><time>2026-04-04T14:33:01.008Z</time></trkpt><trkpt lat="44.0408007" lon="12.0000959"><ele>119.0</ele><time>2026-04-04T14:33:02.007Z</time></trkpt><trkpt lat="44.0409106" lon="12.0003394"><ele>119.0</ele><time>2026-04-04T14:33:03.008Z</time></trkpt><trkpt lat="44.0410149" lon="12.0005753"><ele>119.0</ele><time>2026-04-04T14:33:04.007Z</time></trkpt><trkpt lat="44.0411164" lon="12.0007965"><ele>119.0</ele><time>2026-04-04T14:33:05.008Z</time></trkpt><trkpt lat="44.0412111" lon="12.0010039"><ele>119.0</ele><time>2026-04-04T14:33:06.009Z</time></trkpt><trkpt lat="44.0413003" lon="12.0011925"><ele>119.0</ele><time>2026-04-04T14:33:07.007Z</time></trkpt><trkpt lat="44.0413857" lon="12.001365"><ele>119.0</ele><time>2026-04-04T14:33:08.007Z</time></trkpt><trkpt lat="44.0414651" lon="12.0015266"><ele>118.75</ele><time>2026-04-04T14:33:09.008Z</time></trkpt><trkpt lat="44.0415344" lon="12.0016787"><ele>118.5</ele><time>2026-04-04T14:33:10.008Z</time></trkpt><trkpt lat="44.0415959" lon="12.0018201"><ele>118.25</ele><time>2026-04-04T14:33:11.008Z</time></trkpt><trkpt lat="44.0416563" lon="12.0019454"><ele>118.0</ele><time>2026-04-04T14:33:12.006Z</time></trkpt><trkpt lat="44.0417154" lon="12.0020668"><ele>118.0</ele><time>2026-04-04T14:33:13.006Z</time></trkpt><trkpt lat="44.041776" lon="12.0021902"><ele>118.0</ele><time>2026-04-04T14:33:14.006Z</time></trkpt><trkpt lat="44.0418398" lon="12.0023268"><ele>118.0</ele><time>2026-04-04T14:33:15.008Z</time></trkpt><trkpt lat="44.0419065" lon="12.0024789"><ele>118.0</ele><time>2026-04-04T14:33:16.007Z</time></trkpt><trkpt lat="44.0419817" lon="12.0026417"><ele>118.0</ele><time>2026-04-04T14:33:17.005Z</time></trkpt><trkpt lat="44.0420672" lon="12.0028312"><ele>118.0</ele><time>2026-04-04T14:33:18.007Z</time></trkpt><trkpt lat="44.0421649" lon="12.0030564"><ele>118.0</ele><time>2026-04-04T14:33:19.011Z</time></trkpt><trkpt lat="44.0422774" lon="12.0032974"><ele>118.0</ele><time>2026-04-04T14:33:20.006Z</time></trkpt><trkpt lat="44.0423903" lon="12.0035328"><ele>118.0</ele><time>2026-04-04T14:33:21.007Z</time></trkpt><trkpt lat="44.0424906" lon="12.0037553"><ele>118.0</ele><time>2026-04-04T14:33:22.007Z</time></trkpt><trkpt lat="44.0425751" lon="12.0039701"><ele>117.66666666666667</ele><time>2026-04-04T14:33:23.006Z</time></trkpt><trkpt lat="44.0426359" lon="12.0042158"><ele>117.33333333333334</ele><time>2026-04-04T14:33:24.007Z</time></trkpt><trkpt lat="44.0426772" lon="12.0044772"><ele>117.0</ele><time>2026-04-04T14:33:25.007Z</time></trkpt><trkpt lat="44.0427042" lon="12.0047235"><ele>117.0</ele><time>2026-04-04T14:33:26.007Z</time></trkpt><trkpt lat="44.0427264" lon="12.0049464"><ele>117.0</ele><time>2026-04-04T14:33:27.006Z</time></trkpt><trkpt lat="44.0427496" lon="12.0051447"><ele>117.0</ele><time>2026-04-04T14:33:28.007Z</time></trkpt><trkpt lat="44.0427791" lon="12.0053239"><ele>117.0</ele><time>2026-04-04T14:33:29.007Z</time></trkpt><trkpt lat="44.042828" lon="12.0054808"><ele>117.0</ele><time>2026-04-04T14:33:30.008Z</time></trkpt><trkpt lat="44.0428979" lon="12.0056208"><ele>117.0</ele><time>2026-04-04T14:33:31.007Z</time></trkpt><trkpt lat="44.0429887" lon="12.0057501"><ele>117.0</ele><time>2026-04-04T14:33:32.008Z</time></trkpt><trkpt lat="44.0431088" lon="12.0058605"><ele>117.0</ele><time>2026-04-04T14:33:33.008Z</time></trkpt><trkpt lat="44.0432639" lon="12.0059383"><ele>117.66666666666666</ele><time>2026-04-04T14:33:34.008Z</time></trkpt><trkpt lat="44.0434571" lon="12.0059895"><ele>118.33333333333333</ele><time>2026-04-04T14:33:35.008Z</time></trkpt><trkpt lat="44.0436668" lon="12.0060238"><ele>119.0</ele><time>2026-04-04T14:33:36.008Z</time></trkpt><trkpt lat="44.0438679" lon="12.0060489"><ele>119.0</ele><time>2026-04-04T14:33:37.008Z</time></trkpt><trkpt lat="44.0440461" lon="12.0060752"><ele>119.0</ele><time>2026-04-04T14:33:38.006Z</time></trkpt><trkpt lat="44.0441975" lon="12.0061071"><ele>119.0</ele><time>2026-04-04T14:33:39.006Z</time></trkpt><trkpt lat="44.0443175" lon="12.0061436"><ele>118.4</ele><time>2026-04-04T14:33:40.008Z</time></trkpt><trkpt lat="44.0444147" lon="12.0061841"><ele>117.80000000000001</ele><time>2026-04-04T14:33:41.009Z</time></trkpt><trkpt lat="44.044493" lon="12.0062255"><ele>117.19999999999999</ele><time>2026-04-04T14:33:42.008Z</time></trkpt><trkpt lat="44.0445488" lon="12.0062829"><ele>116.6</ele><time>2026-04-04T14:33:43.008Z</time></trkpt><trkpt lat="44.0446145" lon="12.0064406"><ele>116.0</ele><time>2026-04-04T14:33:45.008Z</time></trkpt><trkpt lat="44.044641" lon="12.0065453"><ele>117.19999999999999</ele><time>2026-04-04T14:33:46.007Z</time></trkpt><trkpt lat="44.0446686" lon="12.0066706"><ele>118.39999999999999</ele><time>2026-04-04T14:33:47.007Z</time></trkpt><trkpt lat="44.0446941" lon="12.0068072"><ele>119.6</ele><time>2026-04-04T14:33:48.007Z</time></trkpt><trkpt lat="44.0447184" lon="12.0069535"><ele>120.8</ele><time>2026-04-04T14:33:49.008Z</time></trkpt><trkpt lat="44.0447464" lon="12.0071"><ele>122.0</ele><time>2026-04-04T14:33:50.007Z</time></trkpt><trkpt lat="44.0447702" lon="12.0072452"><ele>122.0</ele><time>2026-04-04T14:33:51.005Z</time></trkpt><trkpt lat="44.0447977" lon="12.0073945"><ele>122.0</ele><time>2026-04-04T14:33:52.007Z</time></trkpt><trkpt lat="44.0448318" lon="12.0075508"><ele>122.0</ele><time>2026-04-04T14:33:53.007Z</time></trkpt><trkpt lat="44.0448684" lon="12.00771"><ele>122.0</ele><time>2026-04-04T14:33:54.004Z</time></trkpt><trkpt lat="44.0448997" lon="12.0078689"><ele>122.19999999999999</ele><time>2026-04-04T14:33:55.006Z</time></trkpt><trkpt lat="44.0449287" lon="12.0080199"><ele>122.39999999999999</ele><time>2026-04-04T14:33:56.006Z</time></trkpt><trkpt lat="44.0449602" lon="12.0081585"><ele>122.60000000000001</ele><time>2026-04-04T14:33:57.008Z</time></trkpt><trkpt lat="44.0449861" lon="12.0082936"><ele>122.80000000000001</ele><time>2026-04-04T14:33:58.008Z</time></trkpt><trkpt lat="44.0450195" lon="12.0084242"><ele>123.0</ele><time>2026-04-04T14:33:59.008Z</time></trkpt><trkpt lat="44.0450562" lon="12.0085574"><ele>121.4</ele><time>2026-04-04T14:34:00.008Z</time></trkpt><trkpt lat="44.0450899" lon="12.0086959"><ele>119.80000000000001</ele><time>2026-04-04T14:34:01.006Z</time></trkpt><trkpt lat="44.0451285" lon="12.0088414"><ele>118.2</ele><time>2026-04-04T14:34:02.009Z</time></trkpt><trkpt lat="44.0451675" lon="12.0089875"><ele>116.6</ele><time>2026-04-04T14:34:03.007Z</time></trkpt><trkpt lat="44.045207" lon="12.0091333"><ele>115.0</ele><time>2026-04-04T14:34:04.008Z</time></trkpt><trkpt lat="44.0452456" lon="12.0092782"><ele>115.0</ele><time>2026-04-04T14:34:05.006Z</time></trkpt><trkpt lat="44.0452828" lon="12.009416"><ele>115.0</ele><time>2026-04-04T14:34:06.008Z</time></trkpt><trkpt lat="44.0453235" lon="12.0095394"><ele>115.0</ele><time>2026-04-04T14:34:07.006Z</time></trkpt><trkpt lat="44.045364" lon="12.0096555"><ele>115.0</ele><time>2026-04-04T14:34:08.006Z</time></trkpt><trkpt lat="44.0454068" lon="12.0097764"><ele>115.0</ele><time>2026-04-04T14:34:09.007Z</time></trkpt><trkpt lat="44.045458" lon="12.009914"><ele>115.66666666666667</ele><time>2026-04-04T14:34:10.006Z</time></trkpt><trkpt lat="44.0455221" lon="12.0100844"><ele>116.33333333333334</ele><time>2026-04-04T14:34:11.006Z</time></trkpt><trkpt lat="44.0456086" lon="12.0102923"><ele>117.0</ele><time>2026-04-04T14:34:12.008Z</time></trkpt><trkpt lat="44.0457017" lon="12.0105067"><ele>117.0</ele><time>2026-04-04T14:34:13.008Z</time></trkpt><trkpt lat="44.0457915" lon="12.0106974"><ele>117.0</ele><time>2026-04-04T14:34:14.007Z</time></trkpt><trkpt lat="44.0458678" lon="12.0108543"><ele>117.0</ele><time>2026-04-04T14:34:15.011Z</time></trkpt><trkpt lat="44.0459363" lon="12.0109845"><ele>117.0</ele><time>2026-04-04T14:34:16.006Z</time></trkpt><trkpt lat="44.0460064" lon="12.0110971"><ele>116.8</ele><time>2026-04-04T14:34:17.008Z</time></trkpt><trkpt lat="44.0460757" lon="12.0111973"><ele>116.6</ele><time>2026-04-04T14:34:18.006Z</time></trkpt><trkpt lat="44.0461413" lon="12.0113021"><ele>116.39999999999999</ele><time>2026-04-04T14:34:19.007Z</time></trkpt><trkpt lat="44.0462116" lon="12.0114173"><ele>116.19999999999999</ele><time>2026-04-04T14:34:20.011Z</time></trkpt><trkpt lat="44.0462847" lon="12.0115407"><ele>116.0</ele><time>2026-04-04T14:34:21.006Z</time></trkpt><trkpt lat="44.0463658" lon="12.0116641"><ele>116.0</ele><time>2026-04-04T14:34:22.008Z</time></trkpt><trkpt lat="44.0464543" lon="12.0117739"><ele>116.0</ele><time>2026-04-04T14:34:23.007Z</time></trkpt><trkpt lat="44.0465427" lon="12.0118735"><ele>116.0</ele><time>2026-04-04T14:34:24.007Z</time></trkpt><trkpt lat="44.0466349" lon="12.0119752"><ele>116.0</ele><time>2026-04-04T14:34:25.008Z</time></trkpt><trkpt lat="44.0467305" lon="12.012079"><ele>115.25</ele><time>2026-04-04T14:34:26.007Z</time></trkpt><trkpt lat="44.0468307" lon="12.0121839"><ele>114.5</ele><time>2026-04-04T14:34:27.009Z</time></trkpt><trkpt lat="44.046941" lon="12.0122925"><ele>113.75</ele><time>2026-04-04T14:34:28.009Z</time></trkpt><trkpt lat="44.0470774" lon="12.0124133"><ele>113.0</ele><time>2026-04-04T14:34:29.01Z</time></trkpt><trkpt lat="44.0472402" lon="12.0125609"><ele>113.0</ele><time>2026-04-04T14:34:30.007Z</time></trkpt><trkpt lat="44.0474496" lon="12.0127265"><ele>113.0</ele><time>2026-04-04T14:34:31.01Z</time></trkpt><trkpt lat="44.0476975" lon="12.0128849"><ele>112.0</ele><time>2026-04-04T14:34:32.007Z</time></trkpt><trkpt lat="44.047977" lon="12.0130457"><ele>111.0</ele><time>2026-04-04T14:34:33.009Z</time></trkpt><trkpt lat="44.0482765" lon="12.0132246"><ele>110.5</ele><time>2026-04-04T14:34:34.009Z</time></trkpt><trkpt lat="44.0485884" lon="12.0134127"><ele>110.0</ele><time>2026-04-04T14:34:35.009Z</time></trkpt><trkpt lat="44.0489087" lon="12.0136186"><ele>109.5</ele><time>2026-04-04T14:34:36.007Z</time></trkpt><trkpt lat="44.0492326" lon="12.0138282"><ele>109.0</ele><time>2026-04-04T14:34:37.008Z</time></trkpt><trkpt lat="44.0495478" lon="12.0140353"><ele>109.0</ele><time>2026-04-04T14:34:38.007Z</time></trkpt><trkpt lat="44.0498436" lon="12.0142268"><ele>109.0</ele><time>2026-04-04T14:34:39.01Z</time></trkpt><trkpt lat="44.0501139" lon="12.0144066"><ele>109.0</ele><time>2026-04-04T14:34:40.008Z</time></trkpt><trkpt lat="44.0503689" lon="12.014568"><ele>109.0</ele><time>2026-04-04T14:34:41.007Z</time></trkpt><trkpt lat="44.050614" lon="12.0147168"><ele>108.5</ele><time>2026-04-04T14:34:42.008Z</time></trkpt><trkpt lat="44.0508587" lon="12.0148616"><ele>108.0</ele><time>2026-04-04T14:34:43.008Z</time></trkpt><trkpt lat="44.051109" lon="12.0150286"><ele>108.0</ele><time>2026-04-04T14:34:44.009Z</time></trkpt><trkpt lat="44.0513744" lon="12.0152088"><ele>108.0</ele><time>2026-04-04T14:34:45.009Z</time></trkpt><trkpt lat="44.051652" lon="12.0153957"><ele>108.0</ele><time>2026-04-04T14:34:46.007Z</time></trkpt><trkpt lat="44.0519132" lon="12.0156428"><ele>108.0</ele><time>2026-04-04T14:34:47.008Z</time></trkpt><trkpt lat="44.0521904" lon="12.0158663"><ele>108.0</ele><time>2026-04-04T14:34:48.006Z</time></trkpt><trkpt lat="44.052448" lon="12.0161565"><ele>108.0</ele><time>2026-04-04T14:34:49.01Z</time></trkpt><trkpt lat="44.0527026" lon="12.0164812"><ele>110.0</ele><time>2026-04-04T14:34:50.007Z</time></trkpt><trkpt lat="44.0529504" lon="12.0168346"><ele>112.0</ele><time>2026-04-04T14:34:51.008Z</time></trkpt><trkpt lat="44.0531824" lon="12.0171835"><ele>111.5</ele><time>2026-04-04T14:34:52.009Z</time></trkpt><trkpt lat="44.0533954" lon="12.0175052"><ele>111.0</ele><time>2026-04-04T14:34:53.01Z</time></trkpt><trkpt lat="44.0535946" lon="12.0177986"><ele>111.0</ele><time>2026-04-04T14:34:54.008Z</time></trkpt><trkpt lat="44.0537862" lon="12.0180771"><ele>111.0</ele><time>2026-04-04T14:34:55.009Z</time></trkpt><trkpt lat="44.0539794" lon="12.0183459"><ele>110.0</ele><time>2026-04-04T14:34:56.009Z</time></trkpt><trkpt lat="44.0541826" lon="12.0186012"><ele>109.0</ele><time>2026-04-04T14:34:57.008Z</time></trkpt><trkpt lat="44.0543998" lon="12.0188353"><ele>109.0</ele><time>2026-04-04T14:34:58.006Z</time></trkpt><trkpt lat="44.0546215" lon="12.0190579"><ele>109.0</ele><time>2026-04-04T14:34:59.01Z</time></trkpt><trkpt lat="44.0548447" lon="12.0192747"><ele>107.5</ele><time>2026-04-04T14:35:00.006Z</time></trkpt><trkpt lat="44.0550501" lon="12.0195136"><ele>106.0</ele><time>2026-04-04T14:35:01.008Z</time></trkpt><trkpt lat="44.0552438" lon="12.0197781"><ele>108.5</ele><time>2026-04-04T14:35:02.006Z</time></trkpt><trkpt lat="44.0554454" lon="12.0200585"><ele>111.0</ele><time>2026-04-04T14:35:03.008Z</time></trkpt><trkpt lat="44.0556369" lon="12.0203797"><ele>110.0</ele><time>2026-04-04T14:35:04.009Z</time></trkpt><trkpt lat="44.0558376" lon="12.0207196"><ele>109.0</ele><time>2026-04-04T14:35:05.005Z</time></trkpt><trkpt lat="44.0560326" lon="12.0210768"><ele>109.0</ele><time>2026-04-04T14:35:06.007Z</time></trkpt><trkpt lat="44.0562196" lon="12.0214248"><ele>109.0</ele><time>2026-04-04T14:35:07.007Z</time></trkpt><trkpt lat="44.0563936" lon="12.0217498"><ele>111.0</ele><time>2026-04-04T14:35:08.01Z</time></trkpt><trkpt lat="44.0565546" lon="12.0220484"><ele>113.0</ele><time>2026-04-04T14:35:09.006Z</time></trkpt><trkpt lat="44.0567121" lon="12.0223156"><ele>111.0</ele><time>2026-04-04T14:35:10.008Z</time></trkpt><trkpt lat="44.0568686" lon="12.0225596"><ele>109.0</ele><time>2026-04-04T14:35:11.007Z</time></trkpt><trkpt lat="44.0570286" lon="12.0227726"><ele>109.0</ele><time>2026-04-04T14:35:12.007Z</time></trkpt><trkpt lat="44.0572014" lon="12.0229586"><ele>109.0</ele><time>2026-04-04T14:35:13.008Z</time></trkpt><trkpt lat="44.0574004" lon="12.0231108"><ele>109.0</ele><time>2026-04-04T14:35:14.008Z</time></trkpt><trkpt lat="44.0576278" lon="12.0232295"><ele>108.5</ele><time>2026-04-04T14:35:15.007Z</time></trkpt><trkpt lat="44.0578737" lon="12.0233249"><ele>108.0</ele><time>2026-04-04T14:35:16.007Z</time></trkpt><trkpt lat="44.0581294" lon="12.0234197"><ele>107.5</ele><time>2026-04-04T14:35:17.01Z</time></trkpt><trkpt lat="44.0583928" lon="12.0235316"><ele>107.0</ele><time>2026-04-04T14:35:18.007Z</time></trkpt><trkpt lat="44.0586649" lon="12.0236636"><ele>107.0</ele><time>2026-04-04T14:35:19.007Z</time></trkpt><trkpt lat="44.058949" lon="12.0238204"><ele>107.0</ele><time>2026-04-04T14:35:20.008Z</time></trkpt><trkpt lat="44.0592457" lon="12.0239902"><ele>109.5</ele><time>2026-04-04T14:35:21.009Z</time></trkpt><trkpt lat="44.0595501" lon="12.0241738"><ele>112.0</ele><time>2026-04-04T14:35:22.009Z</time></trkpt><trkpt lat="44.0598641" lon="12.0243658"><ele>109.0</ele><time>2026-04-04T14:35:23.007Z</time></trkpt><trkpt lat="44.0601801" lon="12.0245669"><ele>106.0</ele><time>2026-04-04T14:35:24.008Z</time></trkpt><trkpt lat="44.0604933" lon="12.0247765"><ele>108.5</ele><time>2026-04-04T14:35:25.008Z</time></trkpt><trkpt lat="44.06081" lon="12.0249904"><ele>111.0</ele><time>2026-04-04T14:35:26.009Z</time></trkpt><trkpt lat="44.0611286" lon="12.025199"><ele>111.0</ele><time>2026-04-04T14:35:27.01Z</time></trkpt><trkpt lat="44.061449" lon="12.0253994"><ele>111.0</ele><time>2026-04-04T14:35:28.007Z</time></trkpt><trkpt lat="44.0617671" lon="12.0255979"><ele>110.0</ele><time>2026-04-04T14:35:29.007Z</time></trkpt><trkpt lat="44.062081" lon="12.0257936"><ele>109.0</ele><time>2026-04-04T14:35:30.009Z</time></trkpt><trkpt lat="44.0623911" lon="12.025994"><ele>111.0</ele><time>2026-04-04T14:35:31.008Z</time></trkpt><trkpt lat="44.0626963" lon="12.0261912"><ele>113.0</ele><time>2026-04-04T14:35:32.009Z</time></trkpt><trkpt lat="44.0629966" lon="12.0263785"><ele>114.0</ele><time>2026-04-04T14:35:33.006Z</time></trkpt><trkpt lat="44.0632884" lon="12.0265683"><ele>115.0</ele><time>2026-04-04T14:35:34.008Z</time></trkpt><trkpt lat="44.063581" lon="12.026734"><ele>115.0</ele><time>2026-04-04T14:35:35.005Z</time></trkpt><trkpt lat="44.0638646" lon="12.0269052"><ele>115.0</ele><time>2026-04-04T14:35:36.007Z</time></trkpt><trkpt lat="44.0641334" lon="12.0270601"><ele>114.5</ele><time>2026-04-04T14:35:37.008Z</time></trkpt><trkpt lat="44.0643926" lon="12.0271993"><ele>114.0</ele><time>2026-04-04T14:35:38.007Z</time></trkpt><trkpt lat="44.0646495" lon="12.0273285"><ele>114.0</ele><time>2026-04-04T14:35:39.009Z</time></trkpt><trkpt lat="44.0649034" lon="12.0274643"><ele>114.0</ele><time>2026-04-04T14:35:40.007Z</time></trkpt><trkpt lat="44.0651529" lon="12.0275933"><ele>114.0</ele><time>2026-04-04T14:35:41.007Z</time></trkpt><trkpt lat="44.0653964" lon="12.0277194"><ele>114.0</ele><time>2026-04-04T14:35:42.007Z</time></trkpt><trkpt lat="44.0656336" lon="12.0278443"><ele>113.0</ele><time>2026-04-04T14:35:43.008Z</time></trkpt><trkpt lat="44.0658738" lon="12.0279733"><ele>112.0</ele><time>2026-04-04T14:35:44.007Z</time></trkpt><trkpt lat="44.0661231" lon="12.0281061"><ele>112.0</ele><time>2026-04-04T14:35:45.01Z</time></trkpt><trkpt lat="44.066387" lon="12.0282496"><ele>112.0</ele><time>2026-04-04T14:35:46.007Z</time></trkpt><trkpt lat="44.0666607" lon="12.0284178"><ele>113.0</ele><time>2026-04-04T14:35:47.007Z</time></trkpt><trkpt lat="44.0669419" lon="12.0286089"><ele>114.0</ele><time>2026-04-04T14:35:48.007Z</time></trkpt><trkpt lat="44.0672346" lon="12.028818"><ele>114.5</ele><time>2026-04-04T14:35:49.008Z</time></trkpt><trkpt lat="44.0675355" lon="12.0290392"><ele>115.0</ele><time>2026-04-04T14:35:50.009Z</time></trkpt><trkpt lat="44.0678525" lon="12.0292638"><ele>115.0</ele><time>2026-04-04T14:35:51.012Z</time></trkpt><trkpt lat="44.0681677" lon="12.0295005"><ele>115.0</ele><time>2026-04-04T14:35:52.007Z</time></trkpt><trkpt lat="44.0684766" lon="12.0297171"><ele>115.5</ele><time>2026-04-04T14:35:53.006Z</time></trkpt><trkpt lat="44.0687584" lon="12.0299257"><ele>116.0</ele><time>2026-04-04T14:35:54.008Z</time></trkpt><trkpt lat="44.0690244" lon="12.0301208"><ele>115.5</ele><time>2026-04-04T14:35:55.009Z</time></trkpt><trkpt lat="44.0692952" lon="12.0303008"><ele>115.0</ele><time>2026-04-04T14:35:56.011Z</time></trkpt><trkpt lat="44.0695632" lon="12.030489"><ele>115.0</ele><time>2026-04-04T14:35:57.007Z</time></trkpt><trkpt lat="44.0698169" lon="12.0306655"><ele>115.0</ele><time>2026-04-04T14:35:58.007Z</time></trkpt><trkpt lat="44.0700577" lon="12.0308264"><ele>115.0</ele><time>2026-04-04T14:35:59.007Z</time></trkpt><trkpt lat="44.0702884" lon="12.0309866"><ele>115.0</ele><time>2026-04-04T14:36:00.006Z</time></trkpt><trkpt lat="44.070516" lon="12.0311361"><ele>115.0</ele><time>2026-04-04T14:36:01.007Z</time></trkpt><trkpt lat="44.0707401" lon="12.0312725"><ele>115.0</ele><time>2026-04-04T14:36:02.006Z</time></trkpt><trkpt lat="44.0709542" lon="12.0313999"><ele>113.5</ele><time>2026-04-04T14:36:03.007Z</time></trkpt><trkpt lat="44.0711766" lon="12.0315078"><ele>112.0</ele><time>2026-04-04T14:36:04.007Z</time></trkpt><trkpt lat="44.0713953" lon="12.031632"><ele>112.5</ele><time>2026-04-04T14:36:05.006Z</time></trkpt><trkpt lat="44.0716322" lon="12.0317363"><ele>113.0</ele><time>2026-04-04T14:36:06.006Z</time></trkpt><trkpt lat="44.0718818" lon="12.0318379"><ele>113.0</ele><time>2026-04-04T14:36:07.012Z</time></trkpt><trkpt lat="44.072143" lon="12.0319416"><ele>113.0</ele><time>2026-04-04T14:36:08.006Z</time></trkpt><trkpt lat="44.0724176" lon="12.0320594"><ele>109.0</ele><time>2026-04-04T14:36:09.007Z</time></trkpt><trkpt lat="44.0727057" lon="12.0321745"><ele>105.0</ele><time>2026-04-04T14:36:10.006Z</time></trkpt><trkpt lat="44.0729906" lon="12.0322873"><ele>99.0</ele><time>2026-04-04T14:36:11.007Z</time></trkpt><trkpt lat="44.0732768" lon="12.0323745"><ele>93.0</ele><time>2026-04-04T14:36:12.011Z</time></trkpt><trkpt lat="44.0735582" lon="12.0324337"><ele>93.0</ele><time>2026-04-04T14:36:13.006Z</time></trkpt><trkpt lat="44.0738322" lon="12.0324793"><ele>93.0</ele><time>2026-04-04T14:36:14.006Z</time></trkpt><trkpt lat="44.0741154" lon="12.0325109"><ele>93.0</ele><time>2026-04-04T14:36:15.007Z</time></trkpt><trkpt lat="44.0744085" lon="12.0325362"><ele>93.0</ele><time>2026-04-04T14:36:16.007Z</time></trkpt><trkpt lat="44.0747142" lon="12.0325756"><ele>96.5</ele><time>2026-04-04T14:36:17.007Z</time></trkpt><trkpt lat="44.0750295" lon="12.0326255"><ele>100.0</ele><time>2026-04-04T14:36:18.007Z</time></trkpt><trkpt lat="44.0753565" lon="12.0326854"><ele>100.0</ele><time>2026-04-04T14:36:19.007Z</time></trkpt><trkpt lat="44.0756953" lon="12.0327341"><ele>100.0</ele><time>2026-04-04T14:36:20.007Z</time></trkpt><trkpt lat="44.0760353" lon="12.0327793"><ele>100.0</ele><time>2026-04-04T14:36:21.008Z</time></trkpt><trkpt lat="44.0763712" lon="12.0328417"><ele>100.0</ele><time>2026-04-04T14:36:22.007Z</time></trkpt><trkpt lat="44.0766883" lon="12.0328997"><ele>101.0</ele><time>2026-04-04T14:36:23.007Z</time></trkpt><trkpt lat="44.076984" lon="12.032973"><ele>102.0</ele><time>2026-04-04T14:36:24.008Z</time></trkpt><trkpt lat="44.0772648" lon="12.0330694"><ele>103.0</ele><time>2026-04-04T14:36:25.009Z</time></trkpt><trkpt lat="44.0775391" lon="12.0331896"><ele>104.0</ele><time>2026-04-04T14:36:26.006Z</time></trkpt><trkpt lat="44.0778096" lon="12.0333265"><ele>103.5</ele><time>2026-04-04T14:36:27.009Z</time></trkpt><trkpt lat="44.078081" lon="12.0334832"><ele>103.0</ele><time>2026-04-04T14:36:28.007Z</time></trkpt><trkpt lat="44.0783639" lon="12.033651"><ele>103.0</ele><time>2026-04-04T14:36:29.007Z</time></trkpt><trkpt lat="44.0786505" lon="12.0338548"><ele>103.0</ele><time>2026-04-04T14:36:30.008Z</time></trkpt><trkpt lat="44.0789427" lon="12.0340956"><ele>104.0</ele><time>2026-04-04T14:36:31.008Z</time></trkpt><trkpt lat="44.0792345" lon="12.0343786"><ele>105.0</ele><time>2026-04-04T14:36:32.007Z</time></trkpt><trkpt lat="44.0795367" lon="12.034672"><ele>104.5</ele><time>2026-04-04T14:36:33.007Z</time></trkpt><trkpt lat="44.0798377" lon="12.0349908"><ele>104.0</ele><time>2026-04-04T14:36:34.006Z</time></trkpt><trkpt lat="44.0801289" lon="12.0353396"><ele>103.5</ele><time>2026-04-04T14:36:35.007Z</time></trkpt><trkpt lat="44.0804207" lon="12.0356705"><ele>103.0</ele><time>2026-04-04T14:36:36.006Z</time></trkpt><trkpt lat="44.0806922" lon="12.035988"><ele>102.0</ele><time>2026-04-04T14:36:37.01Z</time></trkpt><trkpt lat="44.0809467" lon="12.0362746"><ele>101.0</ele><time>2026-04-04T14:36:38.005Z</time></trkpt><trkpt lat="44.0811836" lon="12.0365711"><ele>101.0</ele><time>2026-04-04T14:36:39.007Z</time></trkpt><trkpt lat="44.0814243" lon="12.0368344"><ele>101.0</ele><time>2026-04-04T14:36:40.005Z</time></trkpt><trkpt lat="44.0816536" lon="12.0370943"><ele>100.0</ele><time>2026-04-04T14:36:41.006Z</time></trkpt><trkpt lat="44.0818783" lon="12.0373477"><ele>99.0</ele><time>2026-04-04T14:36:42.006Z</time></trkpt><trkpt lat="44.0820986" lon="12.0375853"><ele>99.0</ele><time>2026-04-04T14:36:43.008Z</time></trkpt><trkpt lat="44.0823152" lon="12.0378233"><ele>99.0</ele><time>2026-04-04T14:36:44.007Z</time></trkpt><trkpt lat="44.082533" lon="12.0380525"><ele>100.0</ele><time>2026-04-04T14:36:45.009Z</time></trkpt><trkpt lat="44.0827519" lon="12.0382751"><ele>101.0</ele><time>2026-04-04T14:36:46.006Z</time></trkpt><trkpt lat="44.0829691" lon="12.0385055"><ele>101.0</ele><time>2026-04-04T14:36:47.006Z</time></trkpt><trkpt lat="44.083188" lon="12.0387353"><ele>101.0</ele><time>2026-04-04T14:36:48.008Z</time></trkpt><trkpt lat="44.0834041" lon="12.0389728"><ele>97.0</ele><time>2026-04-04T14:36:49.008Z</time></trkpt><trkpt lat="44.0836254" lon="12.039201"><ele>93.0</ele><time>2026-04-04T14:36:50.007Z</time></trkpt><trkpt lat="44.0838462" lon="12.0394264"><ele>93.0</ele><time>2026-04-04T14:36:51.007Z</time></trkpt><trkpt lat="44.0840729" lon="12.0396473"><ele>93.0</ele><time>2026-04-04T14:36:52.007Z</time></trkpt><trkpt lat="44.0842952" lon="12.0398655"><ele>90.5</ele><time>2026-04-04T14:36:53.008Z</time></trkpt><trkpt lat="44.0845141" lon="12.0400736"><ele>88.0</ele><time>2026-04-04T14:36:54.007Z</time></trkpt><trkpt lat="44.0847283" lon="12.0402806"><ele>90.0</ele><time>2026-04-04T14:36:55.01Z</time></trkpt><trkpt lat="44.0849385" lon="12.0404893"><ele>92.0</ele><time>2026-04-04T14:36:56.008Z</time></trkpt><trkpt lat="44.0851534" lon="12.0406873"><ele>91.5</ele><time>2026-04-04T14:36:57.007Z</time></trkpt><trkpt lat="44.0853691" lon="12.0408831"><ele>91.0</ele><time>2026-04-04T14:36:58.008Z</time></trkpt><trkpt lat="44.0855978" lon="12.0410815"><ele>94.5</ele><time>2026-04-04T14:36:59.007Z</time></trkpt><trkpt lat="44.0858389" lon="12.0412906"><ele>98.0</ele><time>2026-04-04T14:37:00.008Z</time></trkpt><trkpt lat="44.0860974" lon="12.0415049"><ele>96.5</ele><time>2026-04-04T14:37:01.011Z</time></trkpt><trkpt lat="44.0863739" lon="12.0417287"><ele>95.0</ele><time>2026-04-04T14:37:02.009Z</time></trkpt><trkpt lat="44.0866629" lon="12.0419633"><ele>98.0</ele><time>2026-04-04T14:37:03.008Z</time></trkpt><trkpt lat="44.0869528" lon="12.0422032"><ele>101.0</ele><time>2026-04-04T14:37:04.007Z</time></trkpt><trkpt lat="44.0872283" lon="12.0424353"><ele>100.0</ele><time>2026-04-04T14:37:05.006Z</time></trkpt><trkpt lat="44.087484" lon="12.0426514"><ele>99.0</ele><time>2026-04-04T14:37:06.008Z</time></trkpt><trkpt lat="44.0877231" lon="12.0428538"><ele>99.0</ele><time>2026-04-04T14:37:07.008Z</time></trkpt><trkpt lat="44.0879591" lon="12.0430506"><ele>99.0</ele><time>2026-04-04T14:37:08.008Z</time></trkpt><trkpt lat="44.0882028" lon="12.0432488"><ele>99.0</ele><time>2026-04-04T14:37:09.008Z</time></trkpt><trkpt lat="44.088452" lon="12.043454"><ele>99.0</ele><time>2026-04-04T14:37:10.006Z</time></trkpt><trkpt lat="44.0887073" lon="12.0436671"><ele>99.0</ele><time>2026-04-04T14:37:11.008Z</time></trkpt><trkpt lat="44.0889674" lon="12.0438867"><ele>99.0</ele><time>2026-04-04T14:37:12.006Z</time></trkpt><trkpt lat="44.0892262" lon="12.0441025"><ele>99.0</ele><time>2026-04-04T14:37:13.006Z</time></trkpt><trkpt lat="44.0894696" lon="12.0443032"><ele>99.0</ele><time>2026-04-04T14:37:14.006Z</time></trkpt><trkpt lat="44.0896973" lon="12.0444885"><ele>99.0</ele><time>2026-04-04T14:37:15.007Z</time></trkpt><trkpt lat="44.0899076" lon="12.0446578"><ele>99.0</ele><time>2026-04-04T14:37:16.007Z</time></trkpt><trkpt lat="44.0901058" lon="12.0448086"><ele>98.66666666666666</ele><time>2026-04-04T14:37:17.006Z</time></trkpt><trkpt lat="44.0902925" lon="12.0449409"><ele>98.33333333333333</ele><time>2026-04-04T14:37:18.006Z</time></trkpt><trkpt lat="44.0904693" lon="12.0450629"><ele>98.0</ele><time>2026-04-04T14:37:19.006Z</time></trkpt><trkpt lat="44.0906326" lon="12.0451755"><ele>99.33333333333333</ele><time>2026-04-04T14:37:20.006Z</time></trkpt><trkpt lat="44.0907839" lon="12.0452829"><ele>100.66666666666666</ele><time>2026-04-04T14:37:21.006Z</time></trkpt><trkpt lat="44.0909221" lon="12.0453815"><ele>102.0</ele><time>2026-04-04T14:37:22.006Z</time></trkpt><trkpt lat="44.0910456" lon="12.0454773"><ele>102.0</ele><time>2026-04-04T14:37:23.005Z</time></trkpt><trkpt lat="44.0911544" lon="12.0455772"><ele>102.0</ele><time>2026-04-04T14:37:24.007Z</time></trkpt><trkpt lat="44.0912509" lon="12.0456896"><ele>102.0</ele><time>2026-04-04T14:37:25.007Z</time></trkpt><trkpt lat="44.0913408" lon="12.045816"><ele>102.0</ele><time>2026-04-04T14:37:26.006Z</time></trkpt><trkpt lat="44.0914384" lon="12.0459374"><ele>102.33333333333334</ele><time>2026-04-04T14:37:27.007Z</time></trkpt><trkpt lat="44.0915597" lon="12.046049"><ele>102.66666666666667</ele><time>2026-04-04T14:37:28.007Z</time></trkpt><trkpt lat="44.0917285" lon="12.0461647"><ele>103.0</ele><time>2026-04-04T14:37:29.007Z</time></trkpt><trkpt lat="44.0919074" lon="12.0462922"><ele>103.0</ele><time>2026-04-04T14:37:30.007Z</time></trkpt><trkpt lat="44.0920842" lon="12.046433"><ele>103.0</ele><time>2026-04-04T14:37:31.006Z</time></trkpt><trkpt lat="44.0922559" lon="12.0465762"><ele>103.0</ele><time>2026-04-04T14:37:32.008Z</time></trkpt><trkpt lat="44.092424" lon="12.0467184"><ele>103.33333333333334</ele><time>2026-04-04T14:37:33.006Z</time></trkpt><trkpt lat="44.0925898" lon="12.0468562"><ele>103.66666666666666</ele><time>2026-04-04T14:37:34.007Z</time></trkpt><trkpt lat="44.0927513" lon="12.0469917"><ele>104.0</ele><time>2026-04-04T14:37:35.006Z</time></trkpt><trkpt lat="44.0929088" lon="12.0471251"><ele>104.0</ele><time>2026-04-04T14:37:36.006Z</time></trkpt><trkpt lat="44.0930636" lon="12.0472566"><ele>104.0</ele><time>2026-04-04T14:37:37.005Z</time></trkpt><trkpt lat="44.0932114" lon="12.0473868"><ele>104.0</ele><time>2026-04-04T14:37:38.005Z</time></trkpt><trkpt lat="44.0933626" lon="12.0475205"><ele>103.66666666666666</ele><time>2026-04-04T14:37:39.007Z</time></trkpt><trkpt lat="44.0935112" lon="12.0476558"><ele>103.33333333333334</ele><time>2026-04-04T14:37:40.006Z</time></trkpt><trkpt lat="44.0936644" lon="12.0477899"><ele>103.0</ele><time>2026-04-04T14:37:41.008Z</time></trkpt><trkpt lat="44.0938172" lon="12.0479214"><ele>103.0</ele><time>2026-04-04T14:37:42.006Z</time></trkpt><trkpt lat="44.093967" lon="12.0480531"><ele>103.0</ele><time>2026-04-04T14:37:43.007Z</time></trkpt><trkpt lat="44.094117" lon="12.0481845"><ele>103.0</ele><time>2026-04-04T14:37:44.008Z</time></trkpt><trkpt lat="44.0942655" lon="12.0483106"><ele>102.0</ele><time>2026-04-04T14:37:45.007Z</time></trkpt><trkpt lat="44.0944104" lon="12.0484246"><ele>101.0</ele><time>2026-04-04T14:37:46.007Z</time></trkpt><trkpt lat="44.0945467" lon="12.0485225"><ele>100.0</ele><time>2026-04-04T14:37:47.005Z</time></trkpt><trkpt lat="44.0946732" lon="12.0486058"><ele>100.0</ele><time>2026-04-04T14:37:48.007Z</time></trkpt><trkpt lat="44.094797" lon="12.0486714"><ele>100.0</ele><time>2026-04-04T14:37:49.007Z</time></trkpt><trkpt lat="44.0949192" lon="12.0487249"><ele>100.0</ele><time>2026-04-04T14:37:50.006Z</time></trkpt><trkpt lat="44.0950439" lon="12.0487703"><ele>100.0</ele><time>2026-04-04T14:37:51.007Z</time></trkpt><trkpt lat="44.0951738" lon="12.0488139"><ele>99.33333333333334</ele><time>2026-04-04T14:37:52.007Z</time></trkpt><trkpt lat="44.0953129" lon="12.048858"><ele>98.66666666666666</ele><time>2026-04-04T14:37:53.008Z</time></trkpt><trkpt lat="44.0954689" lon="12.0489044"><ele>98.0</ele><time>2026-04-04T14:37:54.008Z</time></trkpt><trkpt lat="44.0956436" lon="12.0489583"><ele>97.66666666666666</ele><time>2026-04-04T14:37:55.006Z</time></trkpt><trkpt lat="44.0958445" lon="12.0490226"><ele>97.33333333333334</ele><time>2026-04-04T14:37:56.007Z</time></trkpt><trkpt lat="44.0960716" lon="12.049095"><ele>97.0</ele><time>2026-04-04T14:37:57.006Z</time></trkpt><trkpt lat="44.0963227" lon="12.0491686"><ele>94.5</ele><time>2026-04-04T14:37:58.007Z</time></trkpt><trkpt lat="44.0966007" lon="12.0492482"><ele>92.0</ele><time>2026-04-04T14:37:59.006Z</time></trkpt><trkpt lat="44.0968889" lon="12.0493336"><ele>92.0</ele><time>2026-04-04T14:38:00.007Z</time></trkpt><trkpt lat="44.0971886" lon="12.0494216"><ele>92.0</ele><time>2026-04-04T14:38:01.006Z</time></trkpt><trkpt lat="44.0974883" lon="12.0495119"><ele>91.5</ele><time>2026-04-04T14:38:02.005Z</time></trkpt><trkpt lat="44.0977843" lon="12.0496021"><ele>91.0</ele><time>2026-04-04T14:38:03.007Z</time></trkpt><trkpt lat="44.0980663" lon="12.0496893"><ele>94.0</ele><time>2026-04-04T14:38:04.008Z</time></trkpt><trkpt lat="44.0983291" lon="12.0497713"><ele>97.0</ele><time>2026-04-04T14:38:05.007Z</time></trkpt><trkpt lat="44.0985745" lon="12.0498522"><ele>97.0</ele><time>2026-04-04T14:38:06.009Z</time></trkpt><trkpt lat="44.0988045" lon="12.0499283"><ele>97.0</ele><time>2026-04-04T14:38:07.009Z</time></trkpt><trkpt lat="44.0990313" lon="12.0500004"><ele>96.0</ele><time>2026-04-04T14:38:08.008Z</time></trkpt><trkpt lat="44.099264" lon="12.05007"><ele>95.0</ele><time>2026-04-04T14:38:09.008Z</time></trkpt><trkpt lat="44.0995133" lon="12.0501422"><ele>95.0</ele><time>2026-04-04T14:38:10.006Z</time></trkpt><trkpt lat="44.0997811" lon="12.0502271"><ele>95.0</ele><time>2026-04-04T14:38:11.008Z</time></trkpt><trkpt lat="44.1000645" lon="12.0503203"><ele>95.0</ele><time>2026-04-04T14:38:12.007Z</time></trkpt><trkpt lat="44.1003511" lon="12.0504148"><ele>95.0</ele><time>2026-04-04T14:38:13.01Z</time></trkpt><trkpt lat="44.100623" lon="12.0505019"><ele>95.0</ele><time>2026-04-04T14:38:14.007Z</time></trkpt><trkpt lat="44.1008794" lon="12.0505812"><ele>95.0</ele><time>2026-04-04T14:38:15.007Z</time></trkpt><trkpt lat="44.101122" lon="12.0506574"><ele>95.0</ele><time>2026-04-04T14:38:16.006Z</time></trkpt><trkpt lat="44.1013629" lon="12.0507362"><ele>95.0</ele><time>2026-04-04T14:38:17.008Z</time></trkpt><trkpt lat="44.1016129" lon="12.0508172"><ele>94.0</ele><time>2026-04-04T14:38:18.005Z</time></trkpt><trkpt lat="44.1018832" lon="12.0509037"><ele>93.0</ele><time>2026-04-04T14:38:19.007Z</time></trkpt><trkpt lat="44.1021711" lon="12.0509905"><ele>92.5</ele><time>2026-04-04T14:38:20.009Z</time></trkpt><trkpt lat="44.1024688" lon="12.0510793"><ele>92.0</ele><time>2026-04-04T14:38:21.009Z</time></trkpt><trkpt lat="44.1027536" lon="12.0511714"><ele>92.0</ele><time>2026-04-04T14:38:22.011Z</time></trkpt><trkpt lat="44.1030106" lon="12.051259"><ele>92.0</ele><time>2026-04-04T14:38:23.008Z</time></trkpt><trkpt lat="44.1032452" lon="12.0513347"><ele>92.0</ele><time>2026-04-04T14:38:24.006Z</time></trkpt><trkpt lat="44.1034657" lon="12.0514013"><ele>92.0</ele><time>2026-04-04T14:38:25.007Z</time></trkpt><trkpt lat="44.1036696" lon="12.0514629"><ele>92.0</ele><time>2026-04-04T14:38:26.007Z</time></trkpt><trkpt lat="44.1038593" lon="12.0515223"><ele>92.0</ele><time>2026-04-04T14:38:27.007Z</time></trkpt><trkpt lat="44.1040353" lon="12.0515806"><ele>92.0</ele><time>2026-04-04T14:38:28.006Z</time></trkpt><trkpt lat="44.1042009" lon="12.0516343"><ele>92.0</ele><time>2026-04-04T14:38:29.008Z</time></trkpt><trkpt lat="44.1043556" lon="12.0516866"><ele>92.0</ele><time>2026-04-04T14:38:30.007Z</time></trkpt><trkpt lat="44.1045059" lon="12.0517387"><ele>92.0</ele><time>2026-04-04T14:38:31.007Z</time></trkpt><trkpt lat="44.1046608" lon="12.0517872"><ele>92.0</ele><time>2026-04-04T14:38:32.006Z</time></trkpt><trkpt lat="44.1048201" lon="12.0518406"><ele>92.0</ele><time>2026-04-04T14:38:33.008Z</time></trkpt><trkpt lat="44.104993" lon="12.0519028"><ele>92.0</ele><time>2026-04-04T14:38:34.006Z</time></trkpt><trkpt lat="44.1051698" lon="12.0519765"><ele>92.0</ele><time>2026-04-04T14:38:35.005Z</time></trkpt><trkpt lat="44.1053503" lon="12.0520631"><ele>92.0</ele><time>2026-04-04T14:38:36.008Z</time></trkpt><trkpt lat="44.1055396" lon="12.0521645"><ele>92.0</ele><time>2026-04-04T14:38:37.007Z</time></trkpt><trkpt lat="44.1057436" lon="12.0522873"><ele>92.0</ele><time>2026-04-04T14:38:38.009Z</time></trkpt><trkpt lat="44.105964" lon="12.0524256"><ele>90.5</ele><time>2026-04-04T14:38:39.009Z</time></trkpt><trkpt lat="44.1062022" lon="12.0525811"><ele>89.0</ele><time>2026-04-04T14:38:40.006Z</time></trkpt><trkpt lat="44.1064547" lon="12.052747"><ele>88.5</ele><time>2026-04-04T14:38:41.006Z</time></trkpt><trkpt lat="44.1067054" lon="12.0529094"><ele>88.0</ele><time>2026-04-04T14:38:42.007Z</time></trkpt><trkpt lat="44.1069404" lon="12.0530613"><ele>88.0</ele><time>2026-04-04T14:38:43.006Z</time></trkpt><trkpt lat="44.1071654" lon="12.053207"><ele>88.0</ele><time>2026-04-04T14:38:44.008Z</time></trkpt><trkpt lat="44.1073861" lon="12.053351"><ele>87.0</ele><time>2026-04-04T14:38:45.006Z</time></trkpt><trkpt lat="44.1075994" lon="12.0534905"><ele>86.0</ele><time>2026-04-04T14:38:46.006Z</time></trkpt><trkpt lat="44.1078072" lon="12.0536257"><ele>86.0</ele><time>2026-04-04T14:38:47.006Z</time></trkpt><trkpt lat="44.1080169" lon="12.0537625"><ele>86.0</ele><time>2026-04-04T14:38:48.008Z</time></trkpt><trkpt lat="44.1082397" lon="12.0539041"><ele>85.5</ele><time>2026-04-04T14:38:49.007Z</time></trkpt><trkpt lat="44.1084828" lon="12.0540496"><ele>85.0</ele><time>2026-04-04T14:38:50.007Z</time></trkpt><trkpt lat="44.1087504" lon="12.0542094"><ele>84.5</ele><time>2026-04-04T14:38:51.007Z</time></trkpt><trkpt lat="44.1090402" lon="12.0543931"><ele>84.0</ele><time>2026-04-04T14:38:52.006Z</time></trkpt><trkpt lat="44.109341" lon="12.0545922"><ele>84.0</ele><time>2026-04-04T14:38:53.01Z</time></trkpt><trkpt lat="44.1096435" lon="12.0547944"><ele>84.0</ele><time>2026-04-04T14:38:54.006Z</time></trkpt><trkpt lat="44.1099377" lon="12.0549888"><ele>83.5</ele><time>2026-04-04T14:38:55.007Z</time></trkpt><trkpt lat="44.1102119" lon="12.055172"><ele>83.0</ele><time>2026-04-04T14:38:56.007Z</time></trkpt><trkpt lat="44.1104732" lon="12.055346"><ele>83.0</ele><time>2026-04-04T14:38:57.008Z</time></trkpt><trkpt lat="44.1107306" lon="12.0555129"><ele>83.0</ele><time>2026-04-04T14:38:58.01Z</time></trkpt><trkpt lat="44.1109764" lon="12.055671"><ele>83.5</ele><time>2026-04-04T14:38:59.007Z</time></trkpt><trkpt lat="44.1112045" lon="12.0558162"><ele>84.0</ele><time>2026-04-04T14:39:00.01Z</time></trkpt><trkpt lat="44.1114192" lon="12.0559529"><ele>83.33333333333333</ele><time>2026-04-04T14:39:01.008Z</time></trkpt><trkpt lat="44.1116179" lon="12.0560828"><ele>82.66666666666666</ele><time>2026-04-04T14:39:02.009Z</time></trkpt><trkpt lat="44.1118136" lon="12.0562103"><ele>82.0</ele><time>2026-04-04T14:39:03.007Z</time></trkpt><trkpt lat="44.1120124" lon="12.0563387"><ele>82.0</ele><time>2026-04-04T14:39:04.009Z</time></trkpt><trkpt lat="44.1122125" lon="12.056466"><ele>82.0</ele><time>2026-04-04T14:39:05.014Z</time></trkpt><trkpt lat="44.1124169" lon="12.0565924"><ele>82.0</ele><time>2026-04-04T14:39:06.007Z</time></trkpt><trkpt lat="44.1126267" lon="12.0567212"><ele>81.0</ele><time>2026-04-04T14:39:07.008Z</time></trkpt><trkpt lat="44.1128398" lon="12.0568539"><ele>80.0</ele><time>2026-04-04T14:39:08.006Z</time></trkpt><trkpt lat="44.113059" lon="12.0569929"><ele>79.5</ele><time>2026-04-04T14:39:09.009Z</time></trkpt><trkpt lat="44.1132727" lon="12.0571346"><ele>79.0</ele><time>2026-04-04T14:39:10.006Z</time></trkpt><trkpt lat="44.1134806" lon="12.0572759"><ele>79.0</ele><time>2026-04-04T14:39:11.009Z</time></trkpt><trkpt lat="44.1136828" lon="12.0574133"><ele>79.0</ele><time>2026-04-04T14:39:12.009Z</time></trkpt><trkpt lat="44.1138783" lon="12.0575396"><ele>79.0</ele><time>2026-04-04T14:39:13.007Z</time></trkpt><trkpt lat="44.1140608" lon="12.0576585"><ele>79.0</ele><time>2026-04-04T14:39:14.008Z</time></trkpt><trkpt lat="44.1142363" lon="12.0577731"><ele>79.0</ele><time>2026-04-04T14:39:15.009Z</time></trkpt><trkpt lat="44.1144158" lon="12.0578856"><ele>79.0</ele><time>2026-04-04T14:39:16.009Z</time></trkpt><trkpt lat="44.114603" lon="12.0579953"><ele>79.0</ele><time>2026-04-04T14:39:17.008Z</time></trkpt><trkpt lat="44.1147924" lon="12.0581004"><ele>79.0</ele><time>2026-04-04T14:39:18.009Z</time></trkpt><trkpt lat="44.1149862" lon="12.0581888"><ele>79.0</ele><time>2026-04-04T14:39:19.009Z</time></trkpt><trkpt lat="44.1151791" lon="12.0582601"><ele>78.33333333333333</ele><time>2026-04-04T14:39:20.008Z</time></trkpt><trkpt lat="44.1153631" lon="12.0583145"><ele>77.66666666666667</ele><time>2026-04-04T14:39:21.006Z</time></trkpt><trkpt lat="44.115535" lon="12.058353"><ele>77.0</ele><time>2026-04-04T14:39:22.007Z</time></trkpt><trkpt lat="44.1156965" lon="12.0583709"><ele>77.25</ele><time>2026-04-04T14:39:23.007Z</time></trkpt><trkpt lat="44.1158508" lon="12.0583668"><ele>77.5</ele><time>2026-04-04T14:39:24.009Z</time></trkpt><trkpt lat="44.1159921" lon="12.058348"><ele>77.75</ele><time>2026-04-04T14:39:25.011Z</time></trkpt><trkpt lat="44.1161289" lon="12.0583205"><ele>78.0</ele><time>2026-04-04T14:39:26.007Z</time></trkpt><trkpt lat="44.1162692" lon="12.0582795"><ele>78.0</ele><time>2026-04-04T14:39:27.008Z</time></trkpt><trkpt lat="44.116431" lon="12.0582203"><ele>78.0</ele><time>2026-04-04T14:39:28.008Z</time></trkpt><trkpt lat="44.1166075" lon="12.058151"><ele>78.0</ele><time>2026-04-04T14:39:29.006Z</time></trkpt><trkpt lat="44.116784" lon="12.0580848"><ele>78.33333333333333</ele><time>2026-04-04T14:39:30.009Z</time></trkpt><trkpt lat="44.1169498" lon="12.0580257"><ele>78.66666666666666</ele><time>2026-04-04T14:39:31.007Z</time></trkpt><trkpt lat="44.1171118" lon="12.0579649"><ele>79.0</ele><time>2026-04-04T14:39:32.006Z</time></trkpt><trkpt lat="44.1172748" lon="12.0579029"><ele>77.0</ele><time>2026-04-04T14:39:33.01Z</time></trkpt><trkpt lat="44.1174476" lon="12.0578356"><ele>75.0</ele><time>2026-04-04T14:39:34.009Z</time></trkpt><trkpt lat="44.1176175" lon="12.0577708"><ele>73.0</ele><time>2026-04-04T14:39:35.007Z</time></trkpt><trkpt lat="44.1177803" lon="12.0577145"><ele>73.0</ele><time>2026-04-04T14:39:36.008Z</time></trkpt><trkpt lat="44.1179337" lon="12.0576713"><ele>73.0</ele><time>2026-04-04T14:39:37.009Z</time></trkpt><trkpt lat="44.1180788" lon="12.0576511"><ele>73.0</ele><time>2026-04-04T14:39:38.009Z</time></trkpt><trkpt lat="44.1182159" lon="12.0576525"><ele>73.0</ele><time>2026-04-04T14:39:39.007Z</time></trkpt><trkpt lat="44.1183435" lon="12.0576746"><ele>71.0</ele><time>2026-04-04T14:39:40.005Z</time></trkpt><trkpt lat="44.118469" lon="12.0577209"><ele>69.0</ele><time>2026-04-04T14:39:41.007Z</time></trkpt><trkpt lat="44.1185874" lon="12.0577908"><ele>67.0</ele><time>2026-04-04T14:39:42.005Z</time></trkpt><trkpt lat="44.1186966" lon="12.057878"><ele>65.0</ele><time>2026-04-04T14:39:43.008Z</time></trkpt><trkpt lat="44.1188009" lon="12.0579755"><ele>65.0</ele><time>2026-04-04T14:39:44.006Z</time></trkpt><trkpt lat="44.1189007" lon="12.0580813"><ele>65.0</ele><time>2026-04-04T14:39:45.008Z</time></trkpt><trkpt lat="44.1189914" lon="12.0581888"><ele>65.0</ele><time>2026-04-04T14:39:46.009Z</time></trkpt><trkpt lat="44.119084" lon="12.0582997"><ele>65.0</ele><time>2026-04-04T14:39:47.006Z</time></trkpt><trkpt lat="44.1191768" lon="12.0584109"><ele>65.75</ele><time>2026-04-04T14:39:48.007Z</time></trkpt><trkpt lat="44.1192745" lon="12.0585204"><ele>66.5</ele><time>2026-04-04T14:39:49.005Z</time></trkpt><trkpt lat="44.1193786" lon="12.0586394"><ele>67.25</ele><time>2026-04-04T14:39:50.006Z</time></trkpt><trkpt lat="44.1194941" lon="12.058773"><ele>68.0</ele><time>2026-04-04T14:39:51.007Z</time></trkpt><trkpt lat="44.1196294" lon="12.058915"><ele>68.0</ele><time>2026-04-04T14:39:52.007Z</time></trkpt><trkpt lat="44.1197624" lon="12.0590486"><ele>68.0</ele><time>2026-04-04T14:39:53.006Z</time></trkpt><trkpt lat="44.1199081" lon="12.0591619"><ele>68.0</ele><time>2026-04-04T14:39:54.006Z</time></trkpt><trkpt lat="44.1200867" lon="12.0592553"><ele>67.0</ele><time>2026-04-04T14:39:55.007Z</time></trkpt><trkpt lat="44.120293" lon="12.0593254"><ele>66.0</ele><time>2026-04-04T14:39:56.006Z</time></trkpt><trkpt lat="44.1204962" lon="12.0593787"><ele>65.0</ele><time>2026-04-04T14:39:57.009Z</time></trkpt><trkpt lat="44.120692" lon="12.0594146"><ele>65.66666666666667</ele><time>2026-04-04T14:39:58.006Z</time></trkpt><trkpt lat="44.1208972" lon="12.0594233"><ele>66.33333333333333</ele><time>2026-04-04T14:39:59.007Z</time></trkpt><trkpt lat="44.1211121" lon="12.0594163"><ele>67.0</ele><time>2026-04-04T14:40:00.007Z</time></trkpt><trkpt lat="44.1213246" lon="12.0594072"><ele>67.0</ele><time>2026-04-04T14:40:01.007Z</time></trkpt><trkpt lat="44.1215346" lon="12.0593979"><ele>67.0</ele><time>2026-04-04T14:40:02.008Z</time></trkpt><trkpt lat="44.1217449" lon="12.0593843"><ele>67.0</ele><time>2026-04-04T14:40:03.006Z</time></trkpt><trkpt lat="44.1219519" lon="12.0593715"><ele>68.0</ele><time>2026-04-04T14:40:04.008Z</time></trkpt><trkpt lat="44.1221461" lon="12.0593618"><ele>69.0</ele><time>2026-04-04T14:40:05.009Z</time></trkpt><trkpt lat="44.1223263" lon="12.0593528"><ele>70.0</ele><time>2026-04-04T14:40:06.006Z</time></trkpt><trkpt lat="44.1224972" lon="12.0593435"><ele>70.33333333333333</ele><time>2026-04-04T14:40:07.007Z</time></trkpt><trkpt lat="44.1226634" lon="12.0593289"><ele>70.66666666666667</ele><time>2026-04-04T14:40:08.007Z</time></trkpt><trkpt lat="44.1228301" lon="12.0593049"><ele>71.0</ele><time>2026-04-04T14:40:09.008Z</time></trkpt><trkpt lat="44.1229903" lon="12.059268"><ele>71.0</ele><time>2026-04-04T14:40:10.007Z</time></trkpt><trkpt lat="44.1231545" lon="12.059219"><ele>71.0</ele><time>2026-04-04T14:40:11.007Z</time></trkpt><trkpt lat="44.1233411" lon="12.0591485"><ele>71.0</ele><time>2026-04-04T14:40:12.007Z</time></trkpt><trkpt lat="44.123557" lon="12.059057"><ele>74.0</ele><time>2026-04-04T14:40:13.006Z</time></trkpt><trkpt lat="44.1238025" lon="12.0589624"><ele>77.0</ele><time>2026-04-04T14:40:14.006Z</time></trkpt><trkpt lat="44.1240672" lon="12.058873"><ele>77.0</ele><time>2026-04-04T14:40:15.007Z</time></trkpt><trkpt lat="44.12433" lon="12.0587841"><ele>77.0</ele><time>2026-04-04T14:40:16.006Z</time></trkpt><trkpt lat="44.1245803" lon="12.0586977"><ele>77.0</ele><time>2026-04-04T14:40:17.007Z</time></trkpt><trkpt lat="44.1248254" lon="12.0586139"><ele>77.0</ele><time>2026-04-04T14:40:18.006Z</time></trkpt><trkpt lat="44.1250638" lon="12.0585403"><ele>76.33333333333334</ele><time>2026-04-04T14:40:19.006Z</time></trkpt><trkpt lat="44.1252934" lon="12.0584796"><ele>75.66666666666667</ele><time>2026-04-04T14:40:20.009Z</time></trkpt><trkpt lat="44.1255047" lon="12.0584389"><ele>75.0</ele><time>2026-04-04T14:40:21.008Z</time></trkpt><trkpt lat="44.1257001" lon="12.0584164"><ele>74.0</ele><time>2026-04-04T14:40:22.007Z</time></trkpt><trkpt lat="44.1258847" lon="12.0584089"><ele>73.0</ele><time>2026-04-04T14:40:23.006Z</time></trkpt><trkpt lat="44.1260637" lon="12.0584162"><ele>72.0</ele><time>2026-04-04T14:40:24.006Z</time></trkpt><trkpt lat="44.1262392" lon="12.0584448"><ele>72.0</ele><time>2026-04-04T14:40:25.006Z</time></trkpt><trkpt lat="44.126413" lon="12.0584893"><ele>72.0</ele><time>2026-04-04T14:40:26.009Z</time></trkpt><trkpt lat="44.1265854" lon="12.0585436"><ele>72.0</ele><time>2026-04-04T14:40:27.007Z</time></trkpt><trkpt lat="44.126758" lon="12.0585974"><ele>73.0</ele><time>2026-04-04T14:40:28.009Z</time></trkpt><trkpt lat="44.1269266" lon="12.0586509"><ele>74.0</ele><time>2026-04-04T14:40:29.007Z</time></trkpt><trkpt lat="44.1270908" lon="12.0587111"><ele>75.0</ele><time>2026-04-04T14:40:30.007Z</time></trkpt><trkpt lat="44.1272551" lon="12.0587715"><ele>76.5</ele><time>2026-04-04T14:40:31.008Z</time></trkpt><trkpt lat="44.1274123" lon="12.058825"><ele>78.0</ele><time>2026-04-04T14:40:32.009Z</time></trkpt><trkpt lat="44.1275532" lon="12.0588752"><ele>79.5</ele><time>2026-04-04T14:40:33.01Z</time></trkpt><trkpt lat="44.1276769" lon="12.0589183"><ele>81.0</ele><time>2026-04-04T14:40:34.007Z</time></trkpt><trkpt lat="44.1277729" lon="12.0589495"><ele>81.0</ele><time>2026-04-04T14:40:35.01Z</time></trkpt><trkpt lat="44.1278458" lon="12.0589714"><ele>81.0</ele><time>2026-04-04T14:40:36.008Z</time></trkpt><trkpt lat="44.1279329" lon="12.0589979"><ele>81.0</ele><time>2026-04-04T14:40:38.006Z</time></trkpt><trkpt lat="44.1279905" lon="12.0588922"><ele>81.0</ele><time>2026-04-04T14:40:44.007Z</time></trkpt><trkpt lat="44.1279995" lon="12.0587222"><ele>81.0</ele><time>2026-04-04T14:40:46.005Z</time></trkpt><trkpt lat="44.1279602" lon="12.0586296"><ele>81.0</ele><time>2026-04-04T14:40:47.007Z</time></trkpt><trkpt lat="44.127919" lon="12.0585319"><ele>81.0</ele><time>2026-04-04T14:40:48.007Z</time></trkpt><trkpt lat="44.127873" lon="12.058437"><ele>81.0</ele><time>2026-04-04T14:40:49.008Z</time></trkpt><trkpt lat="44.1278242" lon="12.0583456"><ele>81.0</ele><time>2026-04-04T14:40:50.007Z</time></trkpt><trkpt lat="44.1277748" lon="12.0582578"><ele>81.0</ele><time>2026-04-04T14:40:51.007Z</time></trkpt><trkpt lat="44.1277218" lon="12.0581634"><ele>81.0</ele><time>2026-04-04T14:40:52.01Z</time></trkpt><trkpt lat="44.1276491" lon="12.0580215"><ele>82.75</ele><time>2026-04-04T14:40:53.006Z</time></trkpt><trkpt lat="44.1275709" lon="12.0578652"><ele>84.5</ele><time>2026-04-04T14:40:54.007Z</time></trkpt><trkpt lat="44.1274946" lon="12.0577294"><ele>86.25</ele><time>2026-04-04T14:40:55.007Z</time></trkpt><trkpt lat="44.1274033" lon="12.0576334"><ele>88.0</ele><time>2026-04-04T14:40:56.005Z</time></trkpt><trkpt lat="44.127281" lon="12.0575664"><ele>88.0</ele><time>2026-04-04T14:40:57.007Z</time></trkpt><trkpt lat="44.1271365" lon="12.0575231"><ele>88.0</ele><time>2026-04-04T14:40:58.009Z</time></trkpt><trkpt lat="44.1269875" lon="12.0574878"><ele>88.0</ele><time>2026-04-04T14:40:59.006Z</time></trkpt><trkpt lat="44.126845" lon="12.0574317"><ele>88.0</ele><time>2026-04-04T14:41:00.009Z</time></trkpt><trkpt lat="44.1267073" lon="12.0573319"><ele>88.33333333333333</ele><time>2026-04-04T14:41:01.007Z</time></trkpt><trkpt lat="44.1265839" lon="12.0571938"><ele>88.66666666666667</ele><time>2026-04-04T14:41:02.008Z</time></trkpt><trkpt lat="44.1264778" lon="12.0570292"><ele>89.0</ele><time>2026-04-04T14:41:03.007Z</time></trkpt><trkpt lat="44.1263869" lon="12.056822"><ele>92.0</ele><time>2026-04-04T14:41:04.005Z</time></trkpt><trkpt lat="44.1263114" lon="12.0565612"><ele>95.0</ele><time>2026-04-04T14:41:05.01Z</time></trkpt><trkpt lat="44.1262358" lon="12.0562593"><ele>98.0</ele><time>2026-04-04T14:41:06.005Z</time></trkpt><trkpt lat="44.1261541" lon="12.0559433"><ele>101.33333333333333</ele><time>2026-04-04T14:41:07.006Z</time></trkpt><trkpt lat="44.1260771" lon="12.0556368"><ele>104.66666666666666</ele><time>2026-04-04T14:41:08.004Z</time></trkpt><trkpt lat="44.125997" lon="12.055361"><ele>108.0</ele><time>2026-04-04T14:41:09.006Z</time></trkpt><trkpt lat="44.1259038" lon="12.0551197"><ele>111.0</ele><time>2026-04-04T14:41:10.007Z</time></trkpt><trkpt lat="44.1257806" lon="12.0549128"><ele>114.0</ele><time>2026-04-04T14:41:11.008Z</time></trkpt><trkpt lat="44.1256331" lon="12.0547299"><ele>117.0</ele><time>2026-04-04T14:41:12.005Z</time></trkpt><trkpt lat="44.1254703" lon="12.0545466"><ele>117.0</ele><time>2026-04-04T14:41:13.006Z</time></trkpt><trkpt lat="44.1253098" lon="12.0543672"><ele>117.0</ele><time>2026-04-04T14:41:14.007Z</time></trkpt><trkpt lat="44.1251628" lon="12.054211"><ele>117.0</ele><time>2026-04-04T14:41:15.008Z</time></trkpt><trkpt lat="44.1250246" lon="12.0541143"><ele>118.75</ele><time>2026-04-04T14:41:16.006Z</time></trkpt><trkpt lat="44.12489" lon="12.0540848"><ele>120.5</ele><time>2026-04-04T14:41:17.01Z</time></trkpt><trkpt lat="44.1247544" lon="12.0541063"><ele>122.25</ele><time>2026-04-04T14:41:18.005Z</time></trkpt><trkpt lat="44.1246279" lon="12.0541728"><ele>124.0</ele><time>2026-04-04T14:41:19.006Z</time></trkpt><trkpt lat="44.1245174" lon="12.054291"><ele>124.0</ele><time>2026-04-04T14:41:20.007Z</time></trkpt><trkpt lat="44.1244304" lon="12.0544436"><ele>124.0</ele><time>2026-04-04T14:41:21.007Z</time></trkpt><trkpt lat="44.1243573" lon="12.0545884"><ele>124.0</ele><time>2026-04-04T14:41:22.006Z</time></trkpt><trkpt lat="44.1242777" lon="12.0546906"><ele>124.0</ele><time>2026-04-04T14:41:23.006Z</time></trkpt><trkpt lat="44.1241876" lon="12.0547394"><ele>124.0</ele><time>2026-04-04T14:41:24.006Z</time></trkpt><trkpt lat="44.1240828" lon="12.054721"><ele>124.0</ele><time>2026-04-04T14:41:25.007Z</time></trkpt><trkpt lat="44.1239507" lon="12.0546506"><ele>124.0</ele><time>2026-04-04T14:41:26.01Z</time></trkpt><trkpt lat="44.1238079" lon="12.0545709"><ele>124.0</ele><time>2026-04-04T14:41:27.008Z</time></trkpt><trkpt lat="44.1236769" lon="12.0545185"><ele>126.0</ele><time>2026-04-04T14:41:28.007Z</time></trkpt><trkpt lat="44.1235521" lon="12.0545252"><ele>128.0</ele><time>2026-04-04T14:41:29.006Z</time></trkpt><trkpt lat="44.1234237" lon="12.0546048"><ele>130.0</ele><time>2026-04-04T14:41:30.009Z</time></trkpt><trkpt lat="44.1233038" lon="12.0547325"><ele>132.0</ele><time>2026-04-04T14:41:31.007Z</time></trkpt><trkpt lat="44.1231912" lon="12.0548536"><ele>132.5</ele><time>2026-04-04T14:41:32.012Z</time></trkpt><trkpt lat="44.1230783" lon="12.0549133"><ele>133.0</ele><time>2026-04-04T14:41:33.008Z</time></trkpt><trkpt lat="44.1229662" lon="12.054898"><ele>133.5</ele><time>2026-04-04T14:41:34.005Z</time></trkpt><trkpt lat="44.1228557" lon="12.0548174"><ele>134.0</ele><time>2026-04-04T14:41:35.009Z</time></trkpt><trkpt lat="44.1227522" lon="12.0546674"><ele>134.0</ele><time>2026-04-04T14:41:36.008Z</time></trkpt><trkpt lat="44.1226347" lon="12.0544551"><ele>134.0</ele><time>2026-04-04T14:41:37.011Z</time></trkpt><trkpt lat="44.122504" lon="12.0542053"><ele>134.0</ele><time>2026-04-04T14:41:38.008Z</time></trkpt><trkpt lat="44.1223601" lon="12.0539339"><ele>136.0</ele><time>2026-04-04T14:41:39.006Z</time></trkpt><trkpt lat="44.1222006" lon="12.0536412"><ele>138.0</ele><time>2026-04-04T14:41:40.006Z</time></trkpt><trkpt lat="44.1220429" lon="12.0533495"><ele>138.66666666666666</ele><time>2026-04-04T14:41:41.007Z</time></trkpt><trkpt lat="44.1219052" lon="12.0530831"><ele>139.33333333333331</ele><time>2026-04-04T14:41:42.006Z</time></trkpt><trkpt lat="44.1218033" lon="12.0528384"><ele>140.0</ele><time>2026-04-04T14:41:43.008Z</time></trkpt><trkpt lat="44.1217418" lon="12.0525878"><ele>140.33333333333331</ele><time>2026-04-04T14:41:44.008Z</time></trkpt><trkpt lat="44.1217197" lon="12.0523147"><ele>140.66666666666666</ele><time>2026-04-04T14:41:45.009Z</time></trkpt><trkpt lat="44.121731" lon="12.0520122"><ele>141.0</ele><time>2026-04-04T14:41:46.008Z</time></trkpt><trkpt lat="44.1217621" lon="12.0516803"><ele>142.0</ele><time>2026-04-04T14:41:47.007Z</time></trkpt><trkpt lat="44.1218048" lon="12.0513305"><ele>143.0</ele><time>2026-04-04T14:41:48.007Z</time></trkpt><trkpt lat="44.1218416" lon="12.0509972"><ele>143.66666666666666</ele><time>2026-04-04T14:41:49.007Z</time></trkpt><trkpt lat="44.1218776" lon="12.0506843"><ele>144.33333333333334</ele><time>2026-04-04T14:41:50.007Z</time></trkpt><trkpt lat="44.1219327" lon="12.0503931"><ele>145.0</ele><time>2026-04-04T14:41:51.015Z</time></trkpt><trkpt lat="44.1220222" lon="12.0501148"><ele>145.5</ele><time>2026-04-04T14:41:52.007Z</time></trkpt><trkpt lat="44.1221489" lon="12.049849"><ele>146.0</ele><time>2026-04-04T14:41:53.008Z</time></trkpt><trkpt lat="44.1222914" lon="12.0495974"><ele>144.5</ele><time>2026-04-04T14:41:54.007Z</time></trkpt><trkpt lat="44.1224267" lon="12.0493336"><ele>143.0</ele><time>2026-04-04T14:41:55.008Z</time></trkpt><trkpt lat="44.1225414" lon="12.0490543"><ele>143.0</ele><time>2026-04-04T14:41:56.007Z</time></trkpt><trkpt lat="44.1226341" lon="12.048783"><ele>143.0</ele><time>2026-04-04T14:41:57.008Z</time></trkpt><trkpt lat="44.1227109" lon="12.0485382"><ele>143.0</ele><time>2026-04-04T14:41:58.006Z</time></trkpt><trkpt lat="44.1227684" lon="12.0483171"><ele>143.66666666666666</ele><time>2026-04-04T14:41:59.006Z</time></trkpt><trkpt lat="44.1228034" lon="12.048107"><ele>144.33333333333334</ele><time>2026-04-04T14:42:00.007Z</time></trkpt><trkpt lat="44.1228098" lon="12.0479058"><ele>145.0</ele><time>2026-04-04T14:42:01.01Z</time></trkpt><trkpt lat="44.1227844" lon="12.047696"><ele>145.33333333333334</ele><time>2026-04-04T14:42:02.007Z</time></trkpt><trkpt lat="44.1227208" lon="12.047449"><ele>145.66666666666666</ele><time>2026-04-04T14:42:03.007Z</time></trkpt><trkpt lat="44.1226235" lon="12.047173"><ele>146.0</ele><time>2026-04-04T14:42:04.007Z</time></trkpt><trkpt lat="44.1224999" lon="12.0468871"><ele>149.5</ele><time>2026-04-04T14:42:05.007Z</time></trkpt><trkpt lat="44.1223683" lon="12.0466055"><ele>153.0</ele><time>2026-04-04T14:42:06.009Z</time></trkpt><trkpt lat="44.1222434" lon="12.0463353"><ele>153.0</ele><time>2026-04-04T14:42:07.009Z</time></trkpt><trkpt lat="44.1221402" lon="12.0460764"><ele>153.0</ele><time>2026-04-04T14:42:08.008Z</time></trkpt><trkpt lat="44.1220612" lon="12.0458208"><ele>153.0</ele><time>2026-04-04T14:42:09.007Z</time></trkpt><trkpt lat="44.1220149" lon="12.0455666"><ele>153.66666666666666</ele><time>2026-04-04T14:42:10.007Z</time></trkpt><trkpt lat="44.1220011" lon="12.0453102"><ele>154.33333333333331</ele><time>2026-04-04T14:42:11.007Z</time></trkpt><trkpt lat="44.1220192" lon="12.0450357"><ele>155.0</ele><time>2026-04-04T14:42:12.007Z</time></trkpt><trkpt lat="44.1220725" lon="12.044733"><ele>152.5</ele><time>2026-04-04T14:42:13.009Z</time></trkpt><trkpt lat="44.1221442" lon="12.0443954"><ele>150.0</ele><time>2026-04-04T14:42:14.006Z</time></trkpt><trkpt lat="44.1222257" lon="12.0440228"><ele>147.0</ele><time>2026-04-04T14:42:15.007Z</time></trkpt><trkpt lat="44.1223072" lon="12.0436326"><ele>144.0</ele><time>2026-04-04T14:42:16.008Z</time></trkpt><trkpt lat="44.122392" lon="12.0432262"><ele>154.5</ele><time>2026-04-04T14:42:17.007Z</time></trkpt><trkpt lat="44.122483" lon="12.0428056"><ele>165.0</ele><time>2026-04-04T14:42:18.007Z</time></trkpt><trkpt lat="44.1225714" lon="12.0423958"><ele>165.5</ele><time>2026-04-04T14:42:19.007Z</time></trkpt><trkpt lat="44.1226544" lon="12.0420162"><ele>166.0</ele><time>2026-04-04T14:42:20.01Z</time></trkpt><trkpt lat="44.1227237" lon="12.0416766"><ele>165.0</ele><time>2026-04-04T14:42:21.006Z</time></trkpt><trkpt lat="44.1227861" lon="12.0413616"><ele>164.0</ele><time>2026-04-04T14:42:22.008Z</time></trkpt><trkpt lat="44.1228517" lon="12.0410372"><ele>161.5</ele><time>2026-04-04T14:42:23.007Z</time></trkpt><trkpt lat="44.1229347" lon="12.0406882"><ele>159.0</ele><time>2026-04-04T14:42:24.007Z</time></trkpt><trkpt lat="44.12304" lon="12.040335"><ele>159.0</ele><time>2026-04-04T14:42:25.007Z</time></trkpt><trkpt lat="44.1231483" lon="12.0400033"><ele>159.0</ele><time>2026-04-04T14:42:26.006Z</time></trkpt><trkpt lat="44.123265" lon="12.039665"><ele>162.5</ele><time>2026-04-04T14:42:27.006Z</time></trkpt><trkpt lat="44.123395" lon="12.0393033"><ele>166.0</ele><time>2026-04-04T14:42:28.007Z</time></trkpt><trkpt lat="44.1235283" lon="12.0389317"><ele>166.0</ele><time>2026-04-04T14:42:29.007Z</time></trkpt><trkpt lat="44.123665" lon="12.0385867"><ele>166.0</ele><time>2026-04-04T14:42:30.006Z</time></trkpt><trkpt lat="44.1237917" lon="12.0382833"><ele>162.0</ele><time>2026-04-04T14:42:31.006Z</time></trkpt><trkpt lat="44.1239167" lon="12.0380117"><ele>158.0</ele><time>2026-04-04T14:42:32.008Z</time></trkpt><trkpt lat="44.1240433" lon="12.0377617"><ele>164.33333333333331</ele><time>2026-04-04T14:42:33.007Z</time></trkpt><trkpt lat="44.1241867" lon="12.0375333"><ele>170.66666666666666</ele><time>2026-04-04T14:42:34.005Z</time></trkpt><trkpt lat="44.1243583" lon="12.0373233"><ele>177.0</ele><time>2026-04-04T14:42:35.008Z</time></trkpt><trkpt lat="44.1245383" lon="12.0371217"><ele>177.0</ele><time>2026-04-04T14:42:36.009Z</time></trkpt><trkpt lat="44.124705" lon="12.0369367"><ele>177.0</ele><time>2026-04-04T14:42:37.007Z</time></trkpt><trkpt lat="44.1248567" lon="12.03677"><ele>177.0</ele><time>2026-04-04T14:42:38.007Z</time></trkpt><trkpt lat="44.1249917" lon="12.0366167"><ele>181.75</ele><time>2026-04-04T14:42:39.007Z</time></trkpt><trkpt lat="44.1251233" lon="12.0364883"><ele>186.5</ele><time>2026-04-04T14:42:40.008Z</time></trkpt><trkpt lat="44.1252417" lon="12.0363867"><ele>191.25</ele><time>2026-04-04T14:42:41.011Z</time></trkpt><trkpt lat="44.1253683" lon="12.036305"><ele>196.0</ele><time>2026-04-04T14:42:42.007Z</time></trkpt><trkpt lat="44.1254933" lon="12.0362333"><ele>196.0</ele><time>2026-04-04T14:42:43.008Z</time></trkpt><trkpt lat="44.12562" lon="12.0361567"><ele>196.0</ele><time>2026-04-04T14:42:44.007Z</time></trkpt><trkpt lat="44.1257417" lon="12.036075"><ele>196.0</ele><time>2026-04-04T14:42:45.008Z</time></trkpt><trkpt lat="44.125865" lon="12.0359883"><ele>196.0</ele><time>2026-04-04T14:42:46.005Z</time></trkpt><trkpt lat="44.1259867" lon="12.0358967"><ele>199.5</ele><time>2026-04-04T14:42:47.006Z</time></trkpt><trkpt lat="44.1261033" lon="12.035795"><ele>203.0</ele><time>2026-04-04T14:42:48.008Z</time></trkpt><trkpt lat="44.1262183" lon="12.0356867"><ele>206.5</ele><time>2026-04-04T14:42:49.004Z</time></trkpt><trkpt lat="44.1263333" lon="12.0355783"><ele>210.0</ele><time>2026-04-04T14:42:50.009Z</time></trkpt><trkpt lat="44.12645" lon="12.0354717"><ele>209.75</ele><time>2026-04-04T14:42:51.006Z</time></trkpt><trkpt lat="44.1265667" lon="12.0353617"><ele>209.5</ele><time>2026-04-04T14:42:52.006Z</time></trkpt><trkpt lat="44.1266783" lon="12.035255"><ele>209.25</ele><time>2026-04-04T14:42:53.006Z</time></trkpt><trkpt lat="44.12679" lon="12.0351467"><ele>209.0</ele><time>2026-04-04T14:42:54.007Z</time></trkpt><trkpt lat="44.126905" lon="12.035035"><ele>210.75</ele><time>2026-04-04T14:42:55.007Z</time></trkpt><trkpt lat="44.1270167" lon="12.0349217"><ele>212.5</ele><time>2026-04-04T14:42:56.006Z</time></trkpt><trkpt lat="44.1271267" lon="12.0348067"><ele>214.25</ele><time>2026-04-04T14:42:57.007Z</time></trkpt><trkpt lat="44.12724" lon="12.0346933"><ele>216.0</ele><time>2026-04-04T14:42:58.006Z</time></trkpt><trkpt lat="44.1273483" lon="12.03458"><ele>215.75</ele><time>2026-04-04T14:42:59.006Z</time></trkpt><trkpt lat="44.1274573" lon="12.0344703"><ele>215.5</ele><time>2026-04-04T14:43:00.007Z</time></trkpt><trkpt lat="44.1275686" lon="12.0343752"><ele>215.25</ele><time>2026-04-04T14:43:01.005Z</time></trkpt><trkpt lat="44.1276823" lon="12.0342976"><ele>215.0</ele><time>2026-04-04T14:43:02.009Z</time></trkpt><trkpt lat="44.1278086" lon="12.034239"><ele>215.0</ele><time>2026-04-04T14:43:03.008Z</time></trkpt><trkpt lat="44.1279601" lon="12.0341817"><ele>215.0</ele><time>2026-04-04T14:43:04.006Z</time></trkpt><trkpt lat="44.1281365" lon="12.0341289"><ele>215.0</ele><time>2026-04-04T14:43:05.007Z</time></trkpt><trkpt lat="44.1283096" lon="12.0340809"><ele>217.5</ele><time>2026-04-04T14:43:06.005Z</time></trkpt><trkpt lat="44.1284623" lon="12.0340464"><ele>220.0</ele><time>2026-04-04T14:43:07.009Z</time></trkpt><trkpt lat="44.1285872" lon="12.0340289"><ele>222.5</ele><time>2026-04-04T14:43:08.006Z</time></trkpt><trkpt lat="44.1286913" lon="12.0340131"><ele>225.0</ele><time>2026-04-04T14:43:09.008Z</time></trkpt><trkpt lat="44.1287705" lon="12.0339735"><ele>225.0</ele><time>2026-04-04T14:43:10.007Z</time></trkpt><trkpt lat="44.1288361" lon="12.0339051"><ele>225.0</ele><time>2026-04-04T14:43:11.005Z</time></trkpt><trkpt lat="44.1288492" lon="12.0338153"><ele>225.0</ele><time>2026-04-04T14:43:12.006Z</time></trkpt><trkpt lat="44.1288062" lon="12.0337118"><ele>225.0</ele><time>2026-04-04T14:43:13.006Z</time></trkpt><trkpt lat="44.1287347" lon="12.0336127"><ele>225.0</ele><time>2026-04-04T14:43:14.006Z</time></trkpt><trkpt lat="44.1285845" lon="12.0335232"><ele>225.0</ele><time>2026-04-04T14:43:15.007Z</time></trkpt><trkpt lat="44.1283962" lon="12.0334254"><ele>225.0</ele><time>2026-04-04T14:43:16.008Z</time></trkpt><trkpt lat="44.1281931" lon="12.0333055"><ele>225.0</ele><time>2026-04-04T14:43:17.006Z</time></trkpt><trkpt lat="44.1279821" lon="12.0331604"><ele>228.33333333333331</ele><time>2026-04-04T14:43:18.005Z</time></trkpt><trkpt lat="44.1277826" lon="12.0330163"><ele>231.66666666666666</ele><time>2026-04-04T14:43:19.007Z</time></trkpt><trkpt lat="44.1275955" lon="12.0328768"><ele>235.0</ele><time>2026-04-04T14:43:20.005Z</time></trkpt><trkpt lat="44.1274129" lon="12.0327364"><ele>235.33333333333331</ele><time>2026-04-04T14:43:21.006Z</time></trkpt><trkpt lat="44.1272411" lon="12.0325939"><ele>235.66666666666669</ele><time>2026-04-04T14:43:22.005Z</time></trkpt><trkpt lat="44.1270798" lon="12.0324662"><ele>236.0</ele><time>2026-04-04T14:43:23.006Z</time></trkpt><trkpt lat="44.1269006" lon="12.032379"><ele>238.0</ele><time>2026-04-04T14:43:24.008Z</time></trkpt><trkpt lat="44.1267005" lon="12.0323387"><ele>240.0</ele><time>2026-04-04T14:43:25.006Z</time></trkpt><trkpt lat="44.1264989" lon="12.0323246"><ele>242.0</ele><time>2026-04-04T14:43:26.009Z</time></trkpt><trkpt lat="44.1263118" lon="12.0323232"><ele>242.0</ele><time>2026-04-04T14:43:27.007Z</time></trkpt><trkpt lat="44.1261464" lon="12.0323114"><ele>242.0</ele><time>2026-04-04T14:43:28.007Z</time></trkpt><trkpt lat="44.126005" lon="12.032277"><ele>242.0</ele><time>2026-04-04T14:43:29.006Z</time></trkpt><trkpt lat="44.1258877" lon="12.0322066"><ele>242.0</ele><time>2026-04-04T14:43:30.008Z</time></trkpt><trkpt lat="44.1257938" lon="12.0320962"><ele>242.0</ele><time>2026-04-04T14:43:31.006Z</time></trkpt><trkpt lat="44.1257329" lon="12.0319439"><ele>242.0</ele><time>2026-04-04T14:43:32.006Z</time></trkpt><trkpt lat="44.1257059" lon="12.0317522"><ele>242.0</ele><time>2026-04-04T14:43:33.008Z</time></trkpt><trkpt lat="44.1257054" lon="12.0315327"><ele>242.0</ele><time>2026-04-04T14:43:34.006Z</time></trkpt><trkpt lat="44.1257341" lon="12.0312668"><ele>244.5</ele><time>2026-04-04T14:43:35.007Z</time></trkpt><trkpt lat="44.12578" lon="12.0309518"><ele>247.0</ele><time>2026-04-04T14:43:36.007Z</time></trkpt><trkpt lat="44.1258282" lon="12.0306152"><ele>247.0</ele><time>2026-04-04T14:43:37.008Z</time></trkpt><trkpt lat="44.1258719" lon="12.0302948"><ele>247.0</ele><time>2026-04-04T14:43:38.006Z</time></trkpt><trkpt lat="44.1259151" lon="12.0300052"><ele>247.0</ele><time>2026-04-04T14:43:39.006Z</time></trkpt><trkpt lat="44.1259589" lon="12.0297335"><ele>247.0</ele><time>2026-04-04T14:43:40.009Z</time></trkpt><trkpt lat="44.1260002" lon="12.029467"><ele>247.0</ele><time>2026-04-04T14:43:41.007Z</time></trkpt><trkpt lat="44.1260337" lon="12.0292042"><ele>247.0</ele><time>2026-04-04T14:43:42.005Z</time></trkpt><trkpt lat="44.1260463" lon="12.028944"><ele>247.66666666666666</ele><time>2026-04-04T14:43:43.007Z</time></trkpt><trkpt lat="44.1260339" lon="12.0286767"><ele>248.33333333333331</ele><time>2026-04-04T14:43:44.006Z</time></trkpt><trkpt lat="44.1259834" lon="12.0283799"><ele>249.0</ele><time>2026-04-04T14:43:45.008Z</time></trkpt><trkpt lat="44.1259058" lon="12.0280662"><ele>252.0</ele><time>2026-04-04T14:43:46.006Z</time></trkpt><trkpt lat="44.1258197" lon="12.0277581"><ele>255.0</ele><time>2026-04-04T14:43:47.007Z</time></trkpt><trkpt lat="44.1257319" lon="12.0274728"><ele>254.33333333333331</ele><time>2026-04-04T14:43:48.007Z</time></trkpt><trkpt lat="44.1256433" lon="12.0272144"><ele>253.66666666666666</ele><time>2026-04-04T14:43:49.008Z</time></trkpt><trkpt lat="44.1255414" lon="12.0269719"><ele>253.0</ele><time>2026-04-04T14:43:50.005Z</time></trkpt><trkpt lat="44.1254215" lon="12.0267236"><ele>256.5</ele><time>2026-04-04T14:43:51.006Z</time></trkpt><trkpt lat="44.1252837" lon="12.0264613"><ele>260.0</ele><time>2026-04-04T14:43:52.008Z</time></trkpt><trkpt lat="44.12515" lon="12.0261946"><ele>260.0</ele><time>2026-04-04T14:43:53.007Z</time></trkpt><trkpt lat="44.1250232" lon="12.025923"><ele>260.0</ele><time>2026-04-04T14:43:54.007Z</time></trkpt><trkpt lat="44.1249033" lon="12.0256295"><ele>259.0</ele><time>2026-04-04T14:43:55.007Z</time></trkpt><trkpt lat="44.1247932" lon="12.0253101"><ele>258.0</ele><time>2026-04-04T14:43:56.005Z</time></trkpt><trkpt lat="44.1246878" lon="12.0249767"><ele>263.0</ele><time>2026-04-04T14:43:57.008Z</time></trkpt><trkpt lat="44.1245907" lon="12.0246521"><ele>268.0</ele><time>2026-04-04T14:43:58.006Z</time></trkpt><trkpt lat="44.1245046" lon="12.0243497"><ele>270.0</ele><time>2026-04-04T14:43:59.007Z</time></trkpt><trkpt lat="44.1244329" lon="12.0240735"><ele>272.0</ele><time>2026-04-04T14:44:00.006Z</time></trkpt><trkpt lat="44.1243648" lon="12.0238177"><ele>274.0</ele><time>2026-04-04T14:44:01.008Z</time></trkpt><trkpt lat="44.1242973" lon="12.0235641"><ele>275.3333333333333</ele><time>2026-04-04T14:44:02.007Z</time></trkpt><trkpt lat="44.1242135" lon="12.0232972"><ele>276.6666666666667</ele><time>2026-04-04T14:44:03.008Z</time></trkpt><trkpt lat="44.1241177" lon="12.0230027"><ele>278.0</ele><time>2026-04-04T14:44:04.007Z</time></trkpt><trkpt lat="44.1240073" lon="12.0226776"><ele>277.0</ele><time>2026-04-04T14:44:05.007Z</time></trkpt><trkpt lat="44.1238841" lon="12.0223291"><ele>276.0</ele><time>2026-04-04T14:44:06.009Z</time></trkpt><trkpt lat="44.1237589" lon="12.0219779"><ele>276.0</ele><time>2026-04-04T14:44:07.006Z</time></trkpt><trkpt lat="44.1236395" lon="12.0216527"><ele>276.0</ele><time>2026-04-04T14:44:08.007Z</time></trkpt><trkpt lat="44.1235278" lon="12.0213629"><ele>275.0</ele><time>2026-04-04T14:44:09.007Z</time></trkpt><trkpt lat="44.1234289" lon="12.0211171"><ele>274.0</ele><time>2026-04-04T14:44:10.007Z</time></trkpt><trkpt lat="44.1233367" lon="12.0209126"><ele>273.0</ele><time>2026-04-04T14:44:11.006Z</time></trkpt><trkpt lat="44.1232304" lon="12.02073"><ele>273.0</ele><time>2026-04-04T14:44:12.007Z</time></trkpt><trkpt lat="44.1231033" lon="12.0205328"><ele>273.0</ele><time>2026-04-04T14:44:13.007Z</time></trkpt><trkpt lat="44.1229505" lon="12.0203029"><ele>273.0</ele><time>2026-04-04T14:44:14.005Z</time></trkpt><trkpt lat="44.122776" lon="12.0200378"><ele>272.5</ele><time>2026-04-04T14:44:15.01Z</time></trkpt><trkpt lat="44.1225882" lon="12.0197577"><ele>272.0</ele><time>2026-04-04T14:44:16.005Z</time></trkpt><trkpt lat="44.1224085" lon="12.0194918"><ele>271.5</ele><time>2026-04-04T14:44:17.006Z</time></trkpt><trkpt lat="44.1222416" lon="12.0192432"><ele>271.0</ele><time>2026-04-04T14:44:18.006Z</time></trkpt><trkpt lat="44.1220898" lon="12.0190152"><ele>273.3333333333333</ele><time>2026-04-04T14:44:19.007Z</time></trkpt><trkpt lat="44.121948" lon="12.0188104"><ele>275.6666666666667</ele><time>2026-04-04T14:44:20.007Z</time></trkpt><trkpt lat="44.1218106" lon="12.0186384"><ele>278.0</ele><time>2026-04-04T14:44:21.007Z</time></trkpt><trkpt lat="44.1216622" lon="12.0184975"><ele>278.0</ele><time>2026-04-04T14:44:22.007Z</time></trkpt><trkpt lat="44.1214888" lon="12.01838"><ele>278.0</ele><time>2026-04-04T14:44:23.007Z</time></trkpt><trkpt lat="44.1212882" lon="12.0182733"><ele>278.0</ele><time>2026-04-04T14:44:24.006Z</time></trkpt><trkpt lat="44.1210612" lon="12.0181493"><ele>278.0</ele><time>2026-04-04T14:44:25.005Z</time></trkpt><trkpt lat="44.1208149" lon="12.018003"><ele>278.0</ele><time>2026-04-04T14:44:26.01Z</time></trkpt><trkpt lat="44.1205686" lon="12.0178524"><ele>276.5</ele><time>2026-04-04T14:44:27.006Z</time></trkpt><trkpt lat="44.1203433" lon="12.0177127"><ele>275.0</ele><time>2026-04-04T14:44:28.008Z</time></trkpt><trkpt lat="44.1201407" lon="12.0175879"><ele>273.0</ele><time>2026-04-04T14:44:29.006Z</time></trkpt><trkpt lat="44.1199552" lon="12.0174766"><ele>271.0</ele><time>2026-04-04T14:44:30.007Z</time></trkpt><trkpt lat="44.1197871" lon="12.0173735"><ele>269.0</ele><time>2026-04-04T14:44:31.008Z</time></trkpt><trkpt lat="44.1196322" lon="12.0172728"><ele>274.0</ele><time>2026-04-04T14:44:32.007Z</time></trkpt><trkpt lat="44.1194974" lon="12.0171681"><ele>279.0</ele><time>2026-04-04T14:44:33.007Z</time></trkpt><trkpt lat="44.1193844" lon="12.017043"><ele>284.0</ele><time>2026-04-04T14:44:34.007Z</time></trkpt><trkpt lat="44.1192849" lon="12.0168828"><ele>284.0</ele><time>2026-04-04T14:44:35.007Z</time></trkpt><trkpt lat="44.1192094" lon="12.016695"><ele>284.0</ele><time>2026-04-04T14:44:36.006Z</time></trkpt><trkpt lat="44.1191499" lon="12.0165085"><ele>284.0</ele><time>2026-04-04T14:44:37.008Z</time></trkpt><trkpt lat="44.1190788" lon="12.0163227"><ele>288.6666666666667</ele><time>2026-04-04T14:44:38.007Z</time></trkpt><trkpt lat="44.1189803" lon="12.0161342"><ele>293.3333333333333</ele><time>2026-04-04T14:44:39.005Z</time></trkpt><trkpt lat="44.1188364" lon="12.0159503"><ele>298.0</ele><time>2026-04-04T14:44:40.006Z</time></trkpt><trkpt lat="44.1186617" lon="12.0157654"><ele>298.0</ele><time>2026-04-04T14:44:41.005Z</time></trkpt><trkpt lat="44.1184698" lon="12.0155773"><ele>298.0</ele><time>2026-04-04T14:44:42.007Z</time></trkpt><trkpt lat="44.1182846" lon="12.0153957"><ele>303.0</ele><time>2026-04-04T14:44:43.008Z</time></trkpt><trkpt lat="44.1181268" lon="12.0152329"><ele>308.0</ele><time>2026-04-04T14:44:44.006Z</time></trkpt><trkpt lat="44.1179939" lon="12.0150985"><ele>313.0</ele><time>2026-04-04T14:44:45.01Z</time></trkpt><trkpt lat="44.1178821" lon="12.0150031"><ele>313.0</ele><time>2026-04-04T14:44:46.009Z</time></trkpt><trkpt lat="44.117777" lon="12.0149606"><ele>313.0</ele><time>2026-04-04T14:44:47.009Z</time></trkpt><trkpt lat="44.1176724" lon="12.0149754"><ele>313.0</ele><time>2026-04-04T14:44:48.006Z</time></trkpt><trkpt lat="44.117553" lon="12.0150496"><ele>313.0</ele><time>2026-04-04T14:44:49.006Z</time></trkpt><trkpt lat="44.1174045" lon="12.0151786"><ele>317.3333333333333</ele><time>2026-04-04T14:44:50.006Z</time></trkpt><trkpt lat="44.117255" lon="12.015333"><ele>321.6666666666667</ele><time>2026-04-04T14:44:51.006Z</time></trkpt><trkpt lat="44.1171202" lon="12.0154771"><ele>326.0</ele><time>2026-04-04T14:44:52.005Z</time></trkpt><trkpt lat="44.1170031" lon="12.0155951"><ele>326.0</ele><time>2026-04-04T14:44:53.006Z</time></trkpt><trkpt lat="44.1168955" lon="12.015673"><ele>326.0</ele><time>2026-04-04T14:44:54.006Z</time></trkpt><trkpt lat="44.1167922" lon="12.0157121"><ele>326.0</ele><time>2026-04-04T14:44:55.009Z</time></trkpt><trkpt lat="44.1166798" lon="12.0157053"><ele>326.0</ele><time>2026-04-04T14:44:56.007Z</time></trkpt><trkpt lat="44.1165577" lon="12.0156505"><ele>325.33333333333337</ele><time>2026-04-04T14:44:57.007Z</time></trkpt><trkpt lat="44.1164095" lon="12.0155334"><ele>324.6666666666667</ele><time>2026-04-04T14:44:58.007Z</time></trkpt><trkpt lat="44.1162315" lon="12.0153578"><ele>324.0</ele><time>2026-04-04T14:44:59.008Z</time></trkpt><trkpt lat="44.1160254" lon="12.0151512"><ele>326.5</ele><time>2026-04-04T14:45:00.006Z</time></trkpt><trkpt lat="44.1158088" lon="12.0149271"><ele>329.0</ele><time>2026-04-04T14:45:01.01Z</time></trkpt><trkpt lat="44.1155873" lon="12.0147"><ele>331.0</ele><time>2026-04-04T14:45:02.006Z</time></trkpt><trkpt lat="44.1153747" lon="12.0144827"><ele>333.0</ele><time>2026-04-04T14:45:03.008Z</time></trkpt><trkpt lat="44.1151827" lon="12.0142903"><ele>334.0</ele><time>2026-04-04T14:45:04.006Z</time></trkpt><trkpt lat="44.115018" lon="12.0141267"><ele>335.0</ele><time>2026-04-04T14:45:05.007Z</time></trkpt><trkpt lat="44.1148817" lon="12.0139749"><ele>336.0</ele><time>2026-04-04T14:45:06.007Z</time></trkpt><trkpt lat="44.114776" lon="12.0138178"><ele>340.6666666666667</ele><time>2026-04-04T14:45:07.006Z</time></trkpt><trkpt lat="44.114705" lon="12.0136458"><ele>345.33333333333337</ele><time>2026-04-04T14:45:08.009Z</time></trkpt><trkpt lat="44.1146557" lon="12.0134441"><ele>350.0</ele><time>2026-04-04T14:45:09.007Z</time></trkpt><trkpt lat="44.114619" lon="12.0132057"><ele>350.0</ele><time>2026-04-04T14:45:10.006Z</time></trkpt><trkpt lat="44.1145815" lon="12.0129315"><ele>350.0</ele><time>2026-04-04T14:45:11.006Z</time></trkpt><trkpt lat="44.1145453" lon="12.0126525"><ele>350.0</ele><time>2026-04-04T14:45:12.007Z</time></trkpt><trkpt lat="44.1145114" lon="12.0123878"><ele>348.33333333333337</ele><time>2026-04-04T14:45:13.008Z</time></trkpt><trkpt lat="44.1144791" lon="12.0121454"><ele>346.6666666666667</ele><time>2026-04-04T14:45:14.005Z</time></trkpt><trkpt lat="44.1144466" lon="12.0119314"><ele>345.0</ele><time>2026-04-04T14:45:15.006Z</time></trkpt><trkpt lat="44.1144136" lon="12.0117511"><ele>343.8</ele><time>2026-04-04T14:45:16.006Z</time></trkpt><trkpt lat="44.1143697" lon="12.0116052"><ele>342.6</ele><time>2026-04-04T14:45:17.006Z</time></trkpt><trkpt lat="44.114316" lon="12.0115042"><ele>341.4</ele><time>2026-04-04T14:45:18.007Z</time></trkpt><trkpt lat="44.1142545" lon="12.0114281"><ele>340.2</ele><time>2026-04-04T14:45:19.006Z</time></trkpt><trkpt lat="44.1141571" lon="12.0114312"><ele>339.0</ele><time>2026-04-04T14:45:20.007Z</time></trkpt><trkpt lat="44.1140385" lon="12.0114654"><ele>342.0</ele><time>2026-04-04T14:45:21.006Z</time></trkpt><trkpt lat="44.1139164" lon="12.0114707"><ele>345.0</ele><time>2026-04-04T14:45:22.006Z</time></trkpt><trkpt lat="44.1138095" lon="12.011428"><ele>348.0</ele><time>2026-04-04T14:45:23.007Z</time></trkpt><trkpt lat="44.1137294" lon="12.0113513"><ele>351.0</ele><time>2026-04-04T14:45:24.007Z</time></trkpt><trkpt lat="44.113684" lon="12.0112578"><ele>354.0</ele><time>2026-04-04T14:45:25.011Z</time></trkpt><trkpt lat="44.1136675" lon="12.011162"><ele>354.0</ele><time>2026-04-04T14:45:26.01Z</time></trkpt><trkpt lat="44.1136715" lon="12.0110649"><ele>354.0</ele><time>2026-04-04T14:45:27.006Z</time></trkpt><trkpt lat="44.1136857" lon="12.010956"><ele>354.0</ele><time>2026-04-04T14:45:28.006Z</time></trkpt><trkpt lat="44.1137043" lon="12.0108332"><ele>354.0</ele><time>2026-04-04T14:45:29.007Z</time></trkpt><trkpt lat="44.1137271" lon="12.010715"><ele>354.0</ele><time>2026-04-04T14:45:30.007Z</time></trkpt><trkpt lat="44.113737" lon="12.0105981"><ele>354.0</ele><time>2026-04-04T14:45:31.005Z</time></trkpt><trkpt lat="44.1137258" lon="12.0104904"><ele>354.2</ele><time>2026-04-04T14:45:32.005Z</time></trkpt><trkpt lat="44.113701" lon="12.0103863"><ele>354.4</ele><time>2026-04-04T14:45:33.007Z</time></trkpt><trkpt lat="44.1136569" lon="12.0102844"><ele>354.6</ele><time>2026-04-04T14:45:34.007Z</time></trkpt><trkpt lat="44.1135942" lon="12.0101726"><ele>354.8</ele><time>2026-04-04T14:45:35.007Z</time></trkpt><trkpt lat="44.1135263" lon="12.0100535"><ele>355.0</ele><time>2026-04-04T14:45:36.005Z</time></trkpt><trkpt lat="44.1134788" lon="12.0099182"><ele>355.0</ele><time>2026-04-04T14:45:37.008Z</time></trkpt><trkpt lat="44.1134608" lon="12.0097672"><ele>355.0</ele><time>2026-04-04T14:45:38.008Z</time></trkpt><trkpt lat="44.1134775" lon="12.0095976"><ele>355.0</ele><time>2026-04-04T14:45:39.008Z</time></trkpt><trkpt lat="44.1135197" lon="12.0094027"><ele>355.0</ele><time>2026-04-04T14:45:40.006Z</time></trkpt><trkpt lat="44.1135867" lon="12.0091711"><ele>357.66666666666663</ele><time>2026-04-04T14:45:41.007Z</time></trkpt><trkpt lat="44.113675" lon="12.0089261"><ele>360.3333333333333</ele><time>2026-04-04T14:45:42.006Z</time></trkpt><trkpt lat="44.113778" lon="12.008682"><ele>363.0</ele><time>2026-04-04T14:45:43.006Z</time></trkpt><trkpt lat="44.1138942" lon="12.0084497"><ele>361.6666666666667</ele><time>2026-04-04T14:45:44.008Z</time></trkpt><trkpt lat="44.1140133" lon="12.0082446"><ele>360.33333333333337</ele><time>2026-04-04T14:45:45.007Z</time></trkpt><trkpt lat="44.1141362" lon="12.0080729"><ele>359.0</ele><time>2026-04-04T14:45:46.005Z</time></trkpt><trkpt lat="44.1142702" lon="12.0079419"><ele>359.0</ele><time>2026-04-04T14:45:47.005Z</time></trkpt><trkpt lat="44.1144068" lon="12.0078476"><ele>359.0</ele><time>2026-04-04T14:45:48.006Z</time></trkpt><trkpt lat="44.114536" lon="12.007788"><ele>359.0</ele><time>2026-04-04T14:45:49.008Z</time></trkpt><trkpt lat="44.1146356" lon="12.0077115"><ele>359.0</ele><time>2026-04-04T14:45:50.006Z</time></trkpt><trkpt lat="44.1147052" lon="12.0076055"><ele>362.0</ele><time>2026-04-04T14:45:51.013Z</time></trkpt><trkpt lat="44.114744" lon="12.0074591"><ele>365.0</ele><time>2026-04-04T14:45:52.006Z</time></trkpt><trkpt lat="44.1147598" lon="12.0072685"><ele>368.0</ele><time>2026-04-04T14:45:53.006Z</time></trkpt><trkpt lat="44.1147571" lon="12.0070184"><ele>371.0</ele><time>2026-04-04T14:45:54.008Z</time></trkpt><trkpt lat="44.114751" lon="12.0067126"><ele>370.0</ele><time>2026-04-04T14:45:55.005Z</time></trkpt><trkpt lat="44.1147395" lon="12.0063638"><ele>369.0</ele><time>2026-04-04T14:45:56.006Z</time></trkpt><trkpt lat="44.1147259" lon="12.0059737"><ele>365.0</ele><time>2026-04-04T14:45:57.005Z</time></trkpt><trkpt lat="44.1147188" lon="12.00555"><ele>361.0</ele><time>2026-04-04T14:45:58.006Z</time></trkpt><trkpt lat="44.1147165" lon="12.0051182"><ele>359.5</ele><time>2026-04-04T14:45:59.007Z</time></trkpt><trkpt lat="44.1147138" lon="12.0047111"><ele>358.0</ele><time>2026-04-04T14:46:00.007Z</time></trkpt><trkpt lat="44.1147119" lon="12.0043379"><ele>355.66666666666663</ele><time>2026-04-04T14:46:01.006Z</time></trkpt><trkpt lat="44.1147092" lon="12.0040065"><ele>353.3333333333333</ele><time>2026-04-04T14:46:02.006Z</time></trkpt><trkpt lat="44.1147051" lon="12.0037267"><ele>351.0</ele><time>2026-04-04T14:46:03.007Z</time></trkpt><trkpt lat="44.114702" lon="12.0035077"><ele>351.0</ele><time>2026-04-04T14:46:04.005Z</time></trkpt><trkpt lat="44.1147006" lon="12.0033446"><ele>351.0</ele><time>2026-04-04T14:46:05.008Z</time></trkpt><trkpt lat="44.1147046" lon="12.0032272"><ele>342.0</ele><time>2026-04-04T14:46:06.007Z</time></trkpt><trkpt lat="44.114716" lon="12.0031398"><ele>342.0</ele><time>2026-04-04T14:46:07.006Z</time></trkpt><trkpt lat="44.1147405" lon="12.0030097"><ele>342.0</ele><time>2026-04-04T14:46:09.009Z</time></trkpt></trkseg><trkseg><trkpt lat="44.1147283" lon="12.0028133"><ele>342.0</ele><time>2026-04-04T14:59:14.007Z</time></trkpt><trkpt lat="44.1147133" lon="12.00256"><ele>342.0</ele><time>2026-04-04T14:59:16.005Z</time></trkpt><trkpt lat="44.1147217" lon="12.0023833"><ele>342.0</ele><time>2026-04-04T14:59:17.006Z</time></trkpt><trkpt lat="44.11473" lon="12.0022233"><ele>342.0</ele><time>2026-04-04T14:59:18.007Z</time></trkpt><trkpt lat="44.1147467" lon="12.00208"><ele>341.6666666666667</ele><time>2026-04-04T14:59:19.007Z</time></trkpt><trkpt lat="44.1147633" lon="12.0019717"><ele>341.3333333333333</ele><time>2026-04-04T14:59:20.006Z</time></trkpt><trkpt lat="44.114785" lon="12.0018833"><ele>341.0</ele><time>2026-04-04T14:59:21.006Z</time></trkpt><trkpt lat="44.11482" lon="12.0017533"><ele>340.66666666666663</ele><time>2026-04-04T14:59:23.005Z</time></trkpt><trkpt lat="44.114855" lon="12.00163"><ele>340.3333333333333</ele><time>2026-04-04T14:59:25.006Z</time></trkpt><trkpt lat="44.114885" lon="12.0015"><ele>340.0</ele><time>2026-04-04T14:59:27.007Z</time></trkpt><trkpt lat="44.114895" lon="12.0013483"><ele>340.0</ele><time>2026-04-04T14:59:29.005Z</time></trkpt><trkpt lat="44.1148617" lon="12.0012067"><ele>340.0</ele><time>2026-04-04T14:59:31.008Z</time></trkpt><trkpt lat="44.1148117" lon="12.00107"><ele>340.0</ele><time>2026-04-04T14:59:33.007Z</time></trkpt><trkpt lat="44.11476" lon="12.0009317"><ele>340.0</ele><time>2026-04-04T14:59:35.006Z</time></trkpt><trkpt lat="44.114715" lon="12.000785"><ele>340.0</ele><time>2026-04-04T14:59:37.007Z</time></trkpt><trkpt lat="44.1147052" lon="12.0006287"><ele>341.2</ele><time>2026-04-04T14:59:39.008Z</time></trkpt><trkpt lat="44.1146981" lon="12.0004648"><ele>342.4</ele><time>2026-04-04T14:59:41.007Z</time></trkpt><trkpt lat="44.1146831" lon="12.0003089"><ele>343.6</ele><time>2026-04-04T14:59:43.007Z</time></trkpt><trkpt lat="44.1146765" lon="12.0001705"><ele>344.8</ele><time>2026-04-04T14:59:45.007Z</time></trkpt><trkpt lat="44.1146885" lon="12.0000551"><ele>346.0</ele><time>2026-04-04T14:59:47.007Z</time></trkpt><trkpt lat="44.1147158" lon="11.9999407"><ele>346.0</ele><time>2026-04-04T14:59:49.006Z</time></trkpt><trkpt lat="44.1147977" lon="11.999809"><ele>346.0</ele><time>2026-04-04T14:59:51.006Z</time></trkpt><trkpt lat="44.1148611" lon="11.9997442"><ele>346.0</ele><time>2026-04-04T14:59:52.005Z</time></trkpt><trkpt lat="44.1149216" lon="11.9996933"><ele>346.0</ele><time>2026-04-04T14:59:53.009Z</time></trkpt><trkpt lat="44.1150202" lon="11.9996265"><ele>346.0</ele><time>2026-04-04T14:59:55.007Z</time></trkpt><trkpt lat="44.115012" lon="11.9995303"><ele>346.0</ele><time>2026-04-04T14:59:58.007Z</time></trkpt><trkpt lat="44.1149413" lon="11.9995299"><ele>346.0</ele><time>2026-04-04T15:00:00.007Z</time></trkpt><trkpt lat="44.1148745" lon="11.9996145"><ele>346.0</ele><time>2026-04-04T15:00:02.008Z</time></trkpt><trkpt lat="44.1148308" lon="11.9996949"><ele>346.0</ele><time>2026-04-04T15:00:03.009Z</time></trkpt><trkpt lat="44.114771" lon="11.9998003"><ele>346.0</ele><time>2026-04-04T15:00:04.007Z</time></trkpt><trkpt lat="44.1147051" lon="11.999917"><ele>346.0</ele><time>2026-04-04T15:00:05.007Z</time></trkpt><trkpt lat="44.1146455" lon="12.0000373"><ele>346.0</ele><time>2026-04-04T15:00:06.005Z</time></trkpt><trkpt lat="44.1146062" lon="12.0001674"><ele>346.0</ele><time>2026-04-04T15:00:07.007Z</time></trkpt><trkpt lat="44.1145936" lon="12.0003514"><ele>346.0</ele><time>2026-04-04T15:00:08.005Z</time></trkpt><trkpt lat="44.1146106" lon="12.0005791"><ele>346.0</ele><time>2026-04-04T15:00:09.007Z</time></trkpt><trkpt lat="44.1146555" lon="12.0008319"><ele>344.0</ele><time>2026-04-04T15:00:10.007Z</time></trkpt><trkpt lat="44.1147116" lon="12.001083"><ele>342.0</ele><time>2026-04-04T15:00:11.006Z</time></trkpt><trkpt lat="44.1147573" lon="12.0013263"><ele>340.0</ele><time>2026-04-04T15:00:12.016Z</time></trkpt><trkpt lat="44.1147719" lon="12.0015324"><ele>340.0</ele><time>2026-04-04T15:00:13.008Z</time></trkpt><trkpt lat="44.1147494" lon="12.0017262"><ele>340.0</ele><time>2026-04-04T15:00:14.006Z</time></trkpt><trkpt lat="44.1147115" lon="12.0019452"><ele>340.0</ele><time>2026-04-04T15:00:15.009Z</time></trkpt><trkpt lat="44.1146833" lon="12.0021899"><ele>340.0</ele><time>2026-04-04T15:00:16.007Z</time></trkpt><trkpt lat="44.114666" lon="12.002428"><ele>340.0</ele><time>2026-04-04T15:00:17.007Z</time></trkpt><trkpt lat="44.1146601" lon="12.0026359"><ele>340.0</ele><time>2026-04-04T15:00:18.01Z</time></trkpt><trkpt lat="44.114659" lon="12.0027986"><ele>340.0</ele><time>2026-04-04T15:00:19.007Z</time></trkpt><trkpt lat="44.114657" lon="12.0029191"><ele>340.3333333333333</ele><time>2026-04-04T15:00:20.006Z</time></trkpt><trkpt lat="44.1146593" lon="12.0030113"><ele>340.66666666666663</ele><time>2026-04-04T15:00:21.009Z</time></trkpt><trkpt lat="44.1146764" lon="12.0031146"><ele>341.0</ele><time>2026-04-04T15:00:23.006Z</time></trkpt><trkpt lat="44.1147232" lon="12.0030504"><ele>341.3333333333333</ele><time>2026-04-04T15:00:26.006Z</time></trkpt><trkpt lat="44.1147047" lon="12.0029284"><ele>341.6666666666667</ele><time>2026-04-04T15:00:28.007Z</time></trkpt><trkpt lat="44.1146928" lon="12.0028413"><ele>342.0</ele><time>2026-04-04T15:00:29.008Z</time></trkpt><trkpt lat="44.1146945" lon="12.0026297"><ele>341.3333333333333</ele><time>2026-04-04T15:00:30.006Z</time></trkpt><trkpt lat="44.1147037" lon="12.0023783"><ele>340.66666666666663</ele><time>2026-04-04T15:00:31.007Z</time></trkpt><trkpt lat="44.1147234" lon="12.0021163"><ele>340.0</ele><time>2026-04-04T15:00:32.007Z</time></trkpt><trkpt lat="44.1147725" lon="12.0018594"><ele>340.0</ele><time>2026-04-04T15:00:33.007Z</time></trkpt><trkpt lat="44.1148169" lon="12.0016163"><ele>340.0</ele><time>2026-04-04T15:00:34.006Z</time></trkpt><trkpt lat="44.1148322" lon="12.0013921"><ele>340.0</ele><time>2026-04-04T15:00:35.007Z</time></trkpt><trkpt lat="44.1148097" lon="12.0011683"><ele>340.0</ele><time>2026-04-04T15:00:36.007Z</time></trkpt><trkpt lat="44.1147582" lon="12.000931"><ele>340.0</ele><time>2026-04-04T15:00:37.008Z</time></trkpt><trkpt lat="44.1147095" lon="12.0006965"><ele>340.0</ele><time>2026-04-04T15:00:38.006Z</time></trkpt><trkpt lat="44.1146835" lon="12.0004751"><ele>341.5</ele><time>2026-04-04T15:00:39.006Z</time></trkpt><trkpt lat="44.1146722" lon="12.0002769"><ele>343.0</ele><time>2026-04-04T15:00:40.006Z</time></trkpt><trkpt lat="44.114677" lon="12.0001139"><ele>344.5</ele><time>2026-04-04T15:00:41.006Z</time></trkpt><trkpt lat="44.1146973" lon="11.9999766"><ele>346.0</ele><time>2026-04-04T15:00:42.009Z</time></trkpt><trkpt lat="44.1147433" lon="11.999852"><ele>346.0</ele><time>2026-04-04T15:00:43.006Z</time></trkpt><trkpt lat="44.1148267" lon="11.9997327"><ele>346.0</ele><time>2026-04-04T15:00:44.006Z</time></trkpt><trkpt lat="44.1149304" lon="11.9996397"><ele>346.0</ele><time>2026-04-04T15:00:45.01Z</time></trkpt><trkpt lat="44.115069" lon="11.9995654"><ele>346.0</ele><time>2026-04-04T15:00:46.006Z</time></trkpt><trkpt lat="44.1152296" lon="11.9994867"><ele>349.0</ele><time>2026-04-04T15:00:47.01Z</time></trkpt><trkpt lat="44.1154181" lon="11.9994025"><ele>352.0</ele><time>2026-04-04T15:00:48.008Z</time></trkpt><trkpt lat="44.1156129" lon="11.9993117"><ele>355.0</ele><time>2026-04-04T15:00:49.006Z</time></trkpt><trkpt lat="44.1157906" lon="11.9992149"><ele>354.75</ele><time>2026-04-04T15:00:50.006Z</time></trkpt><trkpt lat="44.1159458" lon="11.9991099"><ele>354.5</ele><time>2026-04-04T15:00:51.006Z</time></trkpt><trkpt lat="44.1160671" lon="11.9989974"><ele>354.25</ele><time>2026-04-04T15:00:52.009Z</time></trkpt><trkpt lat="44.1161631" lon="11.998884"><ele>354.0</ele><time>2026-04-04T15:00:53.006Z</time></trkpt><trkpt lat="44.1162453" lon="11.9987746"><ele>354.0</ele><time>2026-04-04T15:00:54.008Z</time></trkpt><trkpt lat="44.116327" lon="11.9986737"><ele>354.0</ele><time>2026-04-04T15:00:55.008Z</time></trkpt><trkpt lat="44.1164112" lon="11.9985755"><ele>354.0</ele><time>2026-04-04T15:00:56.007Z</time></trkpt><trkpt lat="44.1165047" lon="11.9984911"><ele>354.0</ele><time>2026-04-04T15:00:57.006Z</time></trkpt><trkpt lat="44.1166122" lon="11.9984278"><ele>354.0</ele><time>2026-04-04T15:00:58.007Z</time></trkpt><trkpt lat="44.1167487" lon="11.9983876"><ele>354.0</ele><time>2026-04-04T15:00:59.005Z</time></trkpt><trkpt lat="44.1169007" lon="11.9983626"><ele>354.0</ele><time>2026-04-04T15:01:00.008Z</time></trkpt><trkpt lat="44.1170495" lon="11.9983429"><ele>354.0</ele><time>2026-04-04T15:01:01.006Z</time></trkpt><trkpt lat="44.1171994" lon="11.9983292"><ele>354.0</ele><time>2026-04-04T15:01:02.007Z</time></trkpt><trkpt lat="44.1173495" lon="11.9983219"><ele>354.0</ele><time>2026-04-04T15:01:03.007Z</time></trkpt><trkpt lat="44.1175026" lon="11.9983242"><ele>354.0</ele><time>2026-04-04T15:01:04.007Z</time></trkpt><trkpt lat="44.1176552" lon="11.9983229"><ele>354.75</ele><time>2026-04-04T15:01:05.007Z</time></trkpt><trkpt lat="44.1178024" lon="11.9983056"><ele>355.5</ele><time>2026-04-04T15:01:06.005Z</time></trkpt><trkpt lat="44.1179488" lon="11.9982706"><ele>356.25</ele><time>2026-04-04T15:01:07.008Z</time></trkpt><trkpt lat="44.118085" lon="11.998217"><ele>357.0</ele><time>2026-04-04T15:01:08.006Z</time></trkpt><trkpt lat="44.1182181" lon="11.9981398"><ele>356.3333333333333</ele><time>2026-04-04T15:01:09.007Z</time></trkpt><trkpt lat="44.1183586" lon="11.9980237"><ele>355.66666666666663</ele><time>2026-04-04T15:01:10.006Z</time></trkpt><trkpt lat="44.1185125" lon="11.9978751"><ele>355.0</ele><time>2026-04-04T15:01:11.006Z</time></trkpt><trkpt lat="44.1186705" lon="11.9977183"><ele>355.0</ele><time>2026-04-04T15:01:12.008Z</time></trkpt><trkpt lat="44.1188171" lon="11.9975779"><ele>355.0</ele><time>2026-04-04T15:01:13.005Z</time></trkpt><trkpt lat="44.1189525" lon="11.9974461"><ele>355.0</ele><time>2026-04-04T15:01:14.008Z</time></trkpt><trkpt lat="44.1190831" lon="11.9973358"><ele>354.66666666666663</ele><time>2026-04-04T15:01:15.007Z</time></trkpt><trkpt lat="44.119219" lon="11.9972613"><ele>354.3333333333333</ele><time>2026-04-04T15:01:16.007Z</time></trkpt><trkpt lat="44.1193748" lon="11.9972286"><ele>354.0</ele><time>2026-04-04T15:01:17.007Z</time></trkpt><trkpt lat="44.1195553" lon="11.9972445"><ele>354.0</ele><time>2026-04-04T15:01:18.006Z</time></trkpt><trkpt lat="44.1197436" lon="11.9972905"><ele>354.0</ele><time>2026-04-04T15:01:19.007Z</time></trkpt><trkpt lat="44.1199449" lon="11.997345"><ele>354.0</ele><time>2026-04-04T15:01:20.006Z</time></trkpt><trkpt lat="44.1201516" lon="11.9973865"><ele>352.3333333333333</ele><time>2026-04-04T15:01:21.013Z</time></trkpt><trkpt lat="44.1203479" lon="11.9974211"><ele>350.66666666666663</ele><time>2026-04-04T15:01:22.01Z</time></trkpt><trkpt lat="44.1205408" lon="11.9974355"><ele>349.0</ele><time>2026-04-04T15:01:23.007Z</time></trkpt><trkpt lat="44.1207468" lon="11.9974267"><ele>346.66666666666663</ele><time>2026-04-04T15:01:24.01Z</time></trkpt><trkpt lat="44.1209627" lon="11.9973947"><ele>344.3333333333333</ele><time>2026-04-04T15:01:25.007Z</time></trkpt><trkpt lat="44.1211747" lon="11.9973506"><ele>342.0</ele><time>2026-04-04T15:01:26.016Z</time></trkpt><trkpt lat="44.1213712" lon="11.997301"><ele>342.0</ele><time>2026-04-04T15:01:27.006Z</time></trkpt><trkpt lat="44.1215584" lon="11.9972524"><ele>342.0</ele><time>2026-04-04T15:01:28.007Z</time></trkpt><trkpt lat="44.1217315" lon="11.9972079"><ele>342.0</ele><time>2026-04-04T15:01:29.007Z</time></trkpt><trkpt lat="44.1218845" lon="11.997172"><ele>339.40000000000003</ele><time>2026-04-04T15:01:30.008Z</time></trkpt><trkpt lat="44.1220096" lon="11.9971567"><ele>336.8</ele><time>2026-04-04T15:01:31.006Z</time></trkpt><trkpt lat="44.1221158" lon="11.9971688"><ele>334.2</ele><time>2026-04-04T15:01:32.006Z</time></trkpt><trkpt lat="44.122206" lon="11.9972161"><ele>331.6</ele><time>2026-04-04T15:01:33.007Z</time></trkpt><trkpt lat="44.1222736" lon="11.9973098"><ele>329.0</ele><time>2026-04-04T15:01:34.006Z</time></trkpt><trkpt lat="44.122318" lon="11.9974457"><ele>327.5</ele><time>2026-04-04T15:01:35.005Z</time></trkpt><trkpt lat="44.1223342" lon="11.9976241"><ele>326.0</ele><time>2026-04-04T15:01:36.007Z</time></trkpt><trkpt lat="44.1223316" lon="11.9978215"><ele>324.5</ele><time>2026-04-04T15:01:37.007Z</time></trkpt><trkpt lat="44.1223318" lon="11.9980171"><ele>323.0</ele><time>2026-04-04T15:01:38.006Z</time></trkpt><trkpt lat="44.1223634" lon="11.9981936"><ele>317.75</ele><time>2026-04-04T15:01:39.007Z</time></trkpt><trkpt lat="44.1224308" lon="11.9983452"><ele>312.5</ele><time>2026-04-04T15:01:40.006Z</time></trkpt><trkpt lat="44.1225232" lon="11.9984702"><ele>307.25</ele><time>2026-04-04T15:01:41.008Z</time></trkpt><trkpt lat="44.122635" lon="11.9985608"><ele>302.0</ele><time>2026-04-04T15:01:42.008Z</time></trkpt><trkpt lat="44.1227662" lon="11.9986121"><ele>302.0</ele><time>2026-04-04T15:01:43.007Z</time></trkpt><trkpt lat="44.1229189" lon="11.9986285"><ele>302.0</ele><time>2026-04-04T15:01:44.006Z</time></trkpt><trkpt lat="44.1231049" lon="11.9986341"><ele>302.0</ele><time>2026-04-04T15:01:45.007Z</time></trkpt><trkpt lat="44.1233073" lon="11.9986484"><ele>300.0</ele><time>2026-04-04T15:01:46.007Z</time></trkpt><trkpt lat="44.1234973" lon="11.9986742"><ele>298.0</ele><time>2026-04-04T15:01:47.007Z</time></trkpt><trkpt lat="44.12367" lon="11.9987268"><ele>296.0</ele><time>2026-04-04T15:01:48.005Z</time></trkpt><trkpt lat="44.1238267" lon="11.9988127"><ele>296.0</ele><time>2026-04-04T15:01:49.005Z</time></trkpt><trkpt lat="44.1239675" lon="11.9989121"><ele>296.0</ele><time>2026-04-04T15:01:50.007Z</time></trkpt><trkpt lat="44.1240954" lon="11.9990166"><ele>296.0</ele><time>2026-04-04T15:01:51.007Z</time></trkpt><trkpt lat="44.1242176" lon="11.9991177"><ele>296.0</ele><time>2026-04-04T15:01:52.006Z</time></trkpt><trkpt lat="44.1243377" lon="11.9992093"><ele>291.5</ele><time>2026-04-04T15:01:53.007Z</time></trkpt><trkpt lat="44.1244591" lon="11.9992966"><ele>287.0</ele><time>2026-04-04T15:01:54.009Z</time></trkpt><trkpt lat="44.1245859" lon="11.9993824"><ele>282.5</ele><time>2026-04-04T15:01:55.008Z</time></trkpt><trkpt lat="44.1247157" lon="11.999478"><ele>278.0</ele><time>2026-04-04T15:01:56.005Z</time></trkpt><trkpt lat="44.1248533" lon="11.9995827"><ele>282.6666666666667</ele><time>2026-04-04T15:01:57.006Z</time></trkpt><trkpt lat="44.1249954" lon="11.9996899"><ele>287.3333333333333</ele><time>2026-04-04T15:01:58.005Z</time></trkpt><trkpt lat="44.1251418" lon="11.9997888"><ele>292.0</ele><time>2026-04-04T15:01:59.006Z</time></trkpt><trkpt lat="44.1252999" lon="11.9998634"><ele>292.0</ele><time>2026-04-04T15:02:00.008Z</time></trkpt><trkpt lat="44.1254878" lon="11.9999085"><ele>292.0</ele><time>2026-04-04T15:02:01.007Z</time></trkpt><trkpt lat="44.1257064" lon="11.9999401"><ele>292.0</ele><time>2026-04-04T15:02:02.01Z</time></trkpt><trkpt lat="44.1259379" lon="11.9999737"><ele>293.0</ele><time>2026-04-04T15:02:03.006Z</time></trkpt><trkpt lat="44.1261599" lon="12.0000227"><ele>294.0</ele><time>2026-04-04T15:02:04.007Z</time></trkpt><trkpt lat="44.1263637" lon="12.0000843"><ele>295.0</ele><time>2026-04-04T15:02:05.008Z</time></trkpt><trkpt lat="44.1265451" lon="12.0001493"><ele>294.0</ele><time>2026-04-04T15:02:06.006Z</time></trkpt><trkpt lat="44.1266968" lon="12.0002304"><ele>293.0</ele><time>2026-04-04T15:02:07.009Z</time></trkpt><trkpt lat="44.1268157" lon="12.0003406"><ele>292.0</ele><time>2026-04-04T15:02:08.007Z</time></trkpt><trkpt lat="44.1269099" lon="12.0004991"><ele>292.0</ele><time>2026-04-04T15:02:09.009Z</time></trkpt><trkpt lat="44.1270075" lon="12.0006978"><ele>292.0</ele><time>2026-04-04T15:02:10.007Z</time></trkpt><trkpt lat="44.1271318" lon="12.0009223"><ele>292.0</ele><time>2026-04-04T15:02:11.011Z</time></trkpt><trkpt lat="44.127278" lon="12.0011538"><ele>292.0</ele><time>2026-04-04T15:02:12.007Z</time></trkpt><trkpt lat="44.1274281" lon="12.0013745"><ele>292.0</ele><time>2026-04-04T15:02:13.009Z</time></trkpt><trkpt lat="44.1275605" lon="12.0015929"><ele>292.0</ele><time>2026-04-04T15:02:14.007Z</time></trkpt><trkpt lat="44.1276761" lon="12.0018159"><ele>292.0</ele><time>2026-04-04T15:02:15.008Z</time></trkpt><trkpt lat="44.1277749" lon="12.0020274"><ele>292.0</ele><time>2026-04-04T15:02:16.006Z</time></trkpt><trkpt lat="44.127869" lon="12.0022195"><ele>292.0</ele><time>2026-04-04T15:02:17.01Z</time></trkpt><trkpt lat="44.1279717" lon="12.0023891"><ele>291.0</ele><time>2026-04-04T15:02:18.008Z</time></trkpt><trkpt lat="44.1281009" lon="12.0025448"><ele>290.0</ele><time>2026-04-04T15:02:19.008Z</time></trkpt><trkpt lat="44.1282815" lon="12.0026941"><ele>289.0</ele><time>2026-04-04T15:02:20.008Z</time></trkpt><trkpt lat="44.1285048" lon="12.0028551"><ele>289.0</ele><time>2026-04-04T15:02:21.007Z</time></trkpt><trkpt lat="44.1287434" lon="12.0030345"><ele>289.0</ele><time>2026-04-04T15:02:22.007Z</time></trkpt><trkpt lat="44.1289879" lon="12.0032271"><ele>281.5</ele><time>2026-04-04T15:02:23.009Z</time></trkpt><trkpt lat="44.1292341" lon="12.0034078"><ele>274.0</ele><time>2026-04-04T15:02:24.007Z</time></trkpt><trkpt lat="44.1294607" lon="12.0035566"><ele>274.0</ele><time>2026-04-04T15:02:25.008Z</time></trkpt><trkpt lat="44.1296627" lon="12.0036708"><ele>274.0</ele><time>2026-04-04T15:02:26.009Z</time></trkpt><trkpt lat="44.1298599" lon="12.0037558"><ele>274.0</ele><time>2026-04-04T15:02:27.01Z</time></trkpt><trkpt lat="44.1300551" lon="12.0038261"><ele>272.66666666666663</ele><time>2026-04-04T15:02:28.008Z</time></trkpt><trkpt lat="44.1302427" lon="12.0038862"><ele>271.3333333333333</ele><time>2026-04-04T15:02:29.008Z</time></trkpt><trkpt lat="44.1304255" lon="12.0039303"><ele>270.0</ele><time>2026-04-04T15:02:30.008Z</time></trkpt><trkpt lat="44.1306091" lon="12.003959"><ele>267.6666666666667</ele><time>2026-04-04T15:02:31.007Z</time></trkpt><trkpt lat="44.1308071" lon="12.0039777"><ele>265.33333333333337</ele><time>2026-04-04T15:02:32.009Z</time></trkpt><trkpt lat="44.1310314" lon="12.003995"><ele>263.0</ele><time>2026-04-04T15:02:33.009Z</time></trkpt><trkpt lat="44.1312876" lon="12.0040095"><ele>263.0</ele><time>2026-04-04T15:02:34.008Z</time></trkpt><trkpt lat="44.131546" lon="12.0040186"><ele>263.0</ele><time>2026-04-04T15:02:35.008Z</time></trkpt><trkpt lat="44.131798" lon="12.0040256"><ele>259.5</ele><time>2026-04-04T15:02:36.008Z</time></trkpt><trkpt lat="44.132038" lon="12.0040312"><ele>256.0</ele><time>2026-04-04T15:02:37.008Z</time></trkpt><trkpt lat="44.1322639" lon="12.0040412"><ele>255.33333333333331</ele><time>2026-04-04T15:02:38.008Z</time></trkpt><trkpt lat="44.1324786" lon="12.0040515"><ele>254.66666666666669</ele><time>2026-04-04T15:02:39.009Z</time></trkpt><trkpt lat="44.1326902" lon="12.0040657"><ele>254.0</ele><time>2026-04-04T15:02:40.007Z</time></trkpt><trkpt lat="44.1329204" lon="12.0040878"><ele>254.0</ele><time>2026-04-04T15:02:41.008Z</time></trkpt><trkpt lat="44.1331739" lon="12.0041232"><ele>254.0</ele><time>2026-04-04T15:02:42.008Z</time></trkpt><trkpt lat="44.1334378" lon="12.0041586"><ele>256.5</ele><time>2026-04-04T15:02:43.01Z</time></trkpt><trkpt lat="44.1336946" lon="12.0041936"><ele>259.0</ele><time>2026-04-04T15:02:44.009Z</time></trkpt><trkpt lat="44.1339574" lon="12.0042286"><ele>255.0</ele><time>2026-04-04T15:02:45.009Z</time></trkpt><trkpt lat="44.1342331" lon="12.0042701"><ele>251.0</ele><time>2026-04-04T15:02:46.008Z</time></trkpt><trkpt lat="44.134521" lon="12.0043202"><ele>251.0</ele><time>2026-04-04T15:02:47.008Z</time></trkpt><trkpt lat="44.1348079" lon="12.0043713"><ele>251.0</ele><time>2026-04-04T15:02:48.009Z</time></trkpt><trkpt lat="44.1350842" lon="12.0044223"><ele>249.0</ele><time>2026-04-04T15:02:49.01Z</time></trkpt><trkpt lat="44.1353468" lon="12.0044702"><ele>247.0</ele><time>2026-04-04T15:02:50.007Z</time></trkpt><trkpt lat="44.1355972" lon="12.0045201"><ele>245.5</ele><time>2026-04-04T15:02:51.008Z</time></trkpt><trkpt lat="44.1358459" lon="12.0045675"><ele>244.0</ele><time>2026-04-04T15:02:52.009Z</time></trkpt><trkpt lat="44.1360962" lon="12.0046141"><ele>244.0</ele><time>2026-04-04T15:02:53.007Z</time></trkpt><trkpt lat="44.1363456" lon="12.0046563"><ele>244.0</ele><time>2026-04-04T15:02:54.008Z</time></trkpt><trkpt lat="44.1365802" lon="12.0046975"><ele>241.66666666666666</ele><time>2026-04-04T15:02:55.008Z</time></trkpt><trkpt lat="44.1367959" lon="12.0047334"><ele>239.33333333333331</ele><time>2026-04-04T15:02:56.006Z</time></trkpt><trkpt lat="44.1370002" lon="12.0047628"><ele>237.0</ele><time>2026-04-04T15:02:57.008Z</time></trkpt><trkpt lat="44.1372104" lon="12.004785"><ele>235.5</ele><time>2026-04-04T15:02:58.008Z</time></trkpt><trkpt lat="44.1374451" lon="12.0048026"><ele>234.0</ele><time>2026-04-04T15:02:59.009Z</time></trkpt><trkpt lat="44.1376866" lon="12.0048215"><ele>234.0</ele><time>2026-04-04T15:03:00.008Z</time></trkpt><trkpt lat="44.1379207" lon="12.0048385"><ele>234.0</ele><time>2026-04-04T15:03:01.008Z</time></trkpt><trkpt lat="44.1381449" lon="12.0048524"><ele>232.0</ele><time>2026-04-04T15:03:02.008Z</time></trkpt><trkpt lat="44.1383581" lon="12.0048614"><ele>230.0</ele><time>2026-04-04T15:03:03.007Z</time></trkpt><trkpt lat="44.1385609" lon="12.004876"><ele>228.0</ele><time>2026-04-04T15:03:04.007Z</time></trkpt><trkpt lat="44.1387618" lon="12.0049054"><ele>228.0</ele><time>2026-04-04T15:03:05.006Z</time></trkpt><trkpt lat="44.1389641" lon="12.0049699"><ele>228.0</ele><time>2026-04-04T15:03:06.008Z</time></trkpt><trkpt lat="44.1391792" lon="12.0050733"><ele>228.0</ele><time>2026-04-04T15:03:07.007Z</time></trkpt><trkpt lat="44.1394095" lon="12.0052098"><ele>227.0</ele><time>2026-04-04T15:03:08.009Z</time></trkpt><trkpt lat="44.1396521" lon="12.0053682"><ele>226.0</ele><time>2026-04-04T15:03:09.007Z</time></trkpt><trkpt lat="44.1398991" lon="12.0055321"><ele>222.0</ele><time>2026-04-04T15:03:10.009Z</time></trkpt><trkpt lat="44.1401457" lon="12.005699"><ele>218.0</ele><time>2026-04-04T15:03:11.008Z</time></trkpt><trkpt lat="44.1403917" lon="12.0058645"><ele>218.0</ele><time>2026-04-04T15:03:12.007Z</time></trkpt><trkpt lat="44.1406314" lon="12.006027"><ele>218.0</ele><time>2026-04-04T15:03:13.008Z</time></trkpt><trkpt lat="44.1408562" lon="12.0061849"><ele>218.0</ele><time>2026-04-04T15:03:14.006Z</time></trkpt><trkpt lat="44.1410655" lon="12.0063379"><ele>218.0</ele><time>2026-04-04T15:03:15.009Z</time></trkpt><trkpt lat="44.1412582" lon="12.0064836"><ele>218.0</ele><time>2026-04-04T15:03:16.008Z</time></trkpt><trkpt lat="44.1414371" lon="12.006624"><ele>218.0</ele><time>2026-04-04T15:03:17.008Z</time></trkpt><trkpt lat="44.1415991" lon="12.0067615"><ele>218.0</ele><time>2026-04-04T15:03:18.009Z</time></trkpt><trkpt lat="44.1417441" lon="12.0068976"><ele>215.66666666666669</ele><time>2026-04-04T15:03:19.007Z</time></trkpt><trkpt lat="44.1418658" lon="12.007044"><ele>213.33333333333331</ele><time>2026-04-04T15:03:20.011Z</time></trkpt><trkpt lat="44.1419614" lon="12.007204"><ele>211.0</ele><time>2026-04-04T15:03:21.008Z</time></trkpt><trkpt lat="44.1420245" lon="12.0073872"><ele>210.33333333333331</ele><time>2026-04-04T15:03:22.008Z</time></trkpt><trkpt lat="44.1420579" lon="12.0076069"><ele>209.66666666666669</ele><time>2026-04-04T15:03:23.008Z</time></trkpt><trkpt lat="44.1420684" lon="12.0078688"><ele>209.0</ele><time>2026-04-04T15:03:24.007Z</time></trkpt><trkpt lat="44.1420689" lon="12.0081361"><ele>208.33333333333334</ele><time>2026-04-04T15:03:25.007Z</time></trkpt><trkpt lat="44.1420635" lon="12.0083813"><ele>207.66666666666669</ele><time>2026-04-04T15:03:26.007Z</time></trkpt><trkpt lat="44.1420619" lon="12.0085916"><ele>207.0</ele><time>2026-04-04T15:03:27.008Z</time></trkpt><trkpt lat="44.142074" lon="12.0087666"><ele>207.0</ele><time>2026-04-04T15:03:28.008Z</time></trkpt><trkpt lat="44.142111" lon="12.0089252"><ele>207.0</ele><time>2026-04-04T15:03:29.01Z</time></trkpt><trkpt lat="44.1421854" lon="12.0090758"><ele>207.0</ele><time>2026-04-04T15:03:30.008Z</time></trkpt><trkpt lat="44.1422974" lon="12.0092379"><ele>207.0</ele><time>2026-04-04T15:03:31.008Z</time></trkpt><trkpt lat="44.1424462" lon="12.0094225"><ele>214.0</ele><time>2026-04-04T15:03:32.007Z</time></trkpt><trkpt lat="44.142627" lon="12.0096343"><ele>221.0</ele><time>2026-04-04T15:03:33.011Z</time></trkpt><trkpt lat="44.1428264" lon="12.009877"><ele>217.0</ele><time>2026-04-04T15:03:34.006Z</time></trkpt><trkpt lat="44.1430471" lon="12.010145"><ele>213.0</ele><time>2026-04-04T15:03:35.007Z</time></trkpt><trkpt lat="44.1432683" lon="12.0104075"><ele>213.0</ele><time>2026-04-04T15:03:36.007Z</time></trkpt><trkpt lat="44.1434731" lon="12.0106473"><ele>213.0</ele><time>2026-04-04T15:03:37.008Z</time></trkpt><trkpt lat="44.1436507" lon="12.0108557"><ele>212.0</ele><time>2026-04-04T15:03:38.007Z</time></trkpt><trkpt lat="44.143801" lon="12.0110348"><ele>211.0</ele><time>2026-04-04T15:03:39.009Z</time></trkpt><trkpt lat="44.1439293" lon="12.0111956"><ele>210.0</ele><time>2026-04-04T15:03:40.008Z</time></trkpt><trkpt lat="44.1440214" lon="12.0113563"><ele>212.33333333333331</ele><time>2026-04-04T15:03:41.008Z</time></trkpt><trkpt lat="44.1440782" lon="12.0115315"><ele>214.66666666666666</ele><time>2026-04-04T15:03:42.009Z</time></trkpt><trkpt lat="44.1440989" lon="12.0117351"><ele>217.0</ele><time>2026-04-04T15:03:43.007Z</time></trkpt><trkpt lat="44.144086" lon="12.0119686"><ele>216.66666666666666</ele><time>2026-04-04T15:03:44.007Z</time></trkpt><trkpt lat="44.1440451" lon="12.0122195"><ele>216.33333333333331</ele><time>2026-04-04T15:03:45.009Z</time></trkpt><trkpt lat="44.1439965" lon="12.0124649"><ele>216.0</ele><time>2026-04-04T15:03:46.008Z</time></trkpt><trkpt lat="44.1439642" lon="12.0126872"><ele>216.0</ele><time>2026-04-04T15:03:47.004Z</time></trkpt><trkpt lat="44.1439591" lon="12.0128837"><ele>216.0</ele><time>2026-04-04T15:03:48.007Z</time></trkpt><trkpt lat="44.1439801" lon="12.0130667"><ele>216.0</ele><time>2026-04-04T15:03:49.012Z</time></trkpt><trkpt lat="44.1440415" lon="12.0132586"><ele>216.0</ele><time>2026-04-04T15:03:50.008Z</time></trkpt><trkpt lat="44.1441383" lon="12.0134641"><ele>220.66666666666669</ele><time>2026-04-04T15:03:51.008Z</time></trkpt><trkpt lat="44.1442657" lon="12.0136883"><ele>225.33333333333334</ele><time>2026-04-04T15:03:52.008Z</time></trkpt><trkpt lat="44.1444102" lon="12.0139281"><ele>230.0</ele><time>2026-04-04T15:03:53.007Z</time></trkpt><trkpt lat="44.1445495" lon="12.0141641"><ele>230.0</ele><time>2026-04-04T15:03:54.007Z</time></trkpt><trkpt lat="44.1446756" lon="12.0143861"><ele>230.0</ele><time>2026-04-04T15:03:55.011Z</time></trkpt><trkpt lat="44.1447937" lon="12.0145861"><ele>230.0</ele><time>2026-04-04T15:03:56.008Z</time></trkpt><trkpt lat="44.1449039" lon="12.0147564"><ele>232.5</ele><time>2026-04-04T15:03:57.008Z</time></trkpt><trkpt lat="44.1450165" lon="12.0148834"><ele>235.0</ele><time>2026-04-04T15:03:58.006Z</time></trkpt><trkpt lat="44.1451362" lon="12.0149689"><ele>237.5</ele><time>2026-04-04T15:03:59.007Z</time></trkpt><trkpt lat="44.1452593" lon="12.0150031"><ele>240.0</ele><time>2026-04-04T15:04:00.009Z</time></trkpt><trkpt lat="44.1453937" lon="12.0149995"><ele>243.0</ele><time>2026-04-04T15:04:01.008Z</time></trkpt><trkpt lat="44.1455442" lon="12.0149643"><ele>246.0</ele><time>2026-04-04T15:04:02.006Z</time></trkpt><trkpt lat="44.1456972" lon="12.014909"><ele>249.0</ele><time>2026-04-04T15:04:03.009Z</time></trkpt><trkpt lat="44.1458522" lon="12.0148471"><ele>249.0</ele><time>2026-04-04T15:04:04.006Z</time></trkpt><trkpt lat="44.146016" lon="12.0147726"><ele>249.0</ele><time>2026-04-04T15:04:05.008Z</time></trkpt><trkpt lat="44.1461889" lon="12.0147022"><ele>249.0</ele><time>2026-04-04T15:04:06.008Z</time></trkpt><trkpt lat="44.1463614" lon="12.0146385"><ele>249.0</ele><time>2026-04-04T15:04:07.008Z</time></trkpt><trkpt lat="44.1465345" lon="12.0145747"><ele>249.0</ele><time>2026-04-04T15:04:08.007Z</time></trkpt><trkpt lat="44.1467044" lon="12.0145098"><ele>249.0</ele><time>2026-04-04T15:04:09.008Z</time></trkpt><trkpt lat="44.1468651" lon="12.0144444"><ele>247.5</ele><time>2026-04-04T15:04:10.007Z</time></trkpt><trkpt lat="44.1470104" lon="12.0143833"><ele>246.0</ele><time>2026-04-04T15:04:11.007Z</time></trkpt><trkpt lat="44.1471417" lon="12.0143249"><ele>244.5</ele><time>2026-04-04T15:04:12.008Z</time></trkpt><trkpt lat="44.1472619" lon="12.014276"><ele>243.0</ele><time>2026-04-04T15:04:13.009Z</time></trkpt><trkpt lat="44.1473811" lon="12.0142355"><ele>242.0</ele><time>2026-04-04T15:04:14.007Z</time></trkpt><trkpt lat="44.1475078" lon="12.014215"><ele>241.0</ele><time>2026-04-04T15:04:15.007Z</time></trkpt><trkpt lat="44.1476393" lon="12.0142258"><ele>240.0</ele><time>2026-04-04T15:04:16.007Z</time></trkpt><trkpt lat="44.1477718" lon="12.0142764"><ele>239.0</ele><time>2026-04-04T15:04:17.008Z</time></trkpt><trkpt lat="44.1479078" lon="12.0143738"><ele>239.0</ele><time>2026-04-04T15:04:18.008Z</time></trkpt><trkpt lat="44.1480419" lon="12.0145158"><ele>239.0</ele><time>2026-04-04T15:04:19.006Z</time></trkpt><trkpt lat="44.1481741" lon="12.0147024"><ele>239.0</ele><time>2026-04-04T15:04:20.008Z</time></trkpt><trkpt lat="44.1483179" lon="12.0149354"><ele>236.0</ele><time>2026-04-04T15:04:21.006Z</time></trkpt><trkpt lat="44.1484735" lon="12.0151829"><ele>233.0</ele><time>2026-04-04T15:04:22.006Z</time></trkpt><trkpt lat="44.1486241" lon="12.015418"><ele>233.0</ele><time>2026-04-04T15:04:23.009Z</time></trkpt><trkpt lat="44.1487614" lon="12.0156288"><ele>233.0</ele><time>2026-04-04T15:04:24.006Z</time></trkpt><trkpt lat="44.1488887" lon="12.0158095"><ele>233.0</ele><time>2026-04-04T15:04:25.008Z</time></trkpt><trkpt lat="44.1490141" lon="12.0159445"><ele>234.33333333333334</ele><time>2026-04-04T15:04:26.007Z</time></trkpt><trkpt lat="44.1491507" lon="12.0160199"><ele>235.66666666666669</ele><time>2026-04-04T15:04:27.007Z</time></trkpt><trkpt lat="44.1493169" lon="12.0160465"><ele>237.0</ele><time>2026-04-04T15:04:28.008Z</time></trkpt><trkpt lat="44.1494954" lon="12.0160387"><ele>237.0</ele><time>2026-04-04T15:04:29.008Z</time></trkpt><trkpt lat="44.1496709" lon="12.0160232"><ele>237.0</ele><time>2026-04-04T15:04:30.008Z</time></trkpt><trkpt lat="44.1498379" lon="12.016035"><ele>237.0</ele><time>2026-04-04T15:04:31.006Z</time></trkpt><trkpt lat="44.1500067" lon="12.0160866"><ele>235.66666666666669</ele><time>2026-04-04T15:04:32.007Z</time></trkpt><trkpt lat="44.1501734" lon="12.0161639"><ele>234.33333333333334</ele><time>2026-04-04T15:04:33.009Z</time></trkpt><trkpt lat="44.1503408" lon="12.0162316"><ele>233.0</ele><time>2026-04-04T15:04:34.005Z</time></trkpt><trkpt lat="44.1505311" lon="12.0162574"><ele>228.5</ele><time>2026-04-04T15:04:35.006Z</time></trkpt><trkpt lat="44.1507484" lon="12.0162472"><ele>224.0</ele><time>2026-04-04T15:04:36.007Z</time></trkpt><trkpt lat="44.1509833" lon="12.0161883"><ele>224.0</ele><time>2026-04-04T15:04:37.007Z</time></trkpt><trkpt lat="44.15119" lon="12.0161333"><ele>224.0</ele><time>2026-04-04T15:04:38.007Z</time></trkpt><trkpt lat="44.151395" lon="12.01607"><ele>224.0</ele><time>2026-04-04T15:04:39.008Z</time></trkpt><trkpt lat="44.1515883" lon="12.016035"><ele>223.66666666666669</ele><time>2026-04-04T15:04:40.008Z</time></trkpt><trkpt lat="44.1517717" lon="12.016035"><ele>223.33333333333331</ele><time>2026-04-04T15:04:41.007Z</time></trkpt><trkpt lat="44.15196" lon="12.0160767"><ele>223.0</ele><time>2026-04-04T15:04:42.008Z</time></trkpt><trkpt lat="44.15216" lon="12.016175"><ele>222.0</ele><time>2026-04-04T15:04:43.008Z</time></trkpt><trkpt lat="44.1523867" lon="12.01631"><ele>221.0</ele><time>2026-04-04T15:04:44.008Z</time></trkpt><trkpt lat="44.1526133" lon="12.01645"><ele>221.0</ele><time>2026-04-04T15:04:45.009Z</time></trkpt><trkpt lat="44.1528333" lon="12.0166"><ele>221.0</ele><time>2026-04-04T15:04:46.008Z</time></trkpt><trkpt lat="44.1530367" lon="12.0167583"><ele>213.5</ele><time>2026-04-04T15:04:47.009Z</time></trkpt><trkpt lat="44.1532333" lon="12.0169367"><ele>206.0</ele><time>2026-04-04T15:04:48.006Z</time></trkpt><trkpt lat="44.1534483" lon="12.01713"><ele>206.0</ele><time>2026-04-04T15:04:49.008Z</time></trkpt><trkpt lat="44.1536683" lon="12.01733"><ele>206.0</ele><time>2026-04-04T15:04:50.007Z</time></trkpt><trkpt lat="44.1538767" lon="12.01753"><ele>205.0</ele><time>2026-04-04T15:04:51.007Z</time></trkpt><trkpt lat="44.154065" lon="12.0177217"><ele>204.0</ele><time>2026-04-04T15:04:52.006Z</time></trkpt><trkpt lat="44.154245" lon="12.017895"><ele>204.0</ele><time>2026-04-04T15:04:53.008Z</time></trkpt><trkpt lat="44.1544133" lon="12.0180633"><ele>204.0</ele><time>2026-04-04T15:04:54.007Z</time></trkpt><trkpt lat="44.15457" lon="12.018255"><ele>204.0</ele><time>2026-04-04T15:04:55.007Z</time></trkpt><trkpt lat="44.1547283" lon="12.0184783"><ele>201.0</ele><time>2026-04-04T15:04:56.007Z</time></trkpt><trkpt lat="44.154905" lon="12.0187167"><ele>198.0</ele><time>2026-04-04T15:04:57.006Z</time></trkpt><trkpt lat="44.15511" lon="12.0189717"><ele>191.0</ele><time>2026-04-04T15:04:58.007Z</time></trkpt><trkpt lat="44.1553217" lon="12.0192217"><ele>184.0</ele><time>2026-04-04T15:04:59.006Z</time></trkpt><trkpt lat="44.15552" lon="12.0194617"><ele>184.0</ele><time>2026-04-04T15:05:00.008Z</time></trkpt><trkpt lat="44.1557017" lon="12.0196733"><ele>184.0</ele><time>2026-04-04T15:05:01.005Z</time></trkpt><trkpt lat="44.155865" lon="12.019855"><ele>184.0</ele><time>2026-04-04T15:05:02.007Z</time></trkpt><trkpt lat="44.15602" lon="12.0200083"><ele>181.33333333333334</ele><time>2026-04-04T15:05:03.007Z</time></trkpt><trkpt lat="44.1561967" lon="12.020135"><ele>178.66666666666666</ele><time>2026-04-04T15:05:04.007Z</time></trkpt><trkpt lat="44.1564133" lon="12.0202467"><ele>176.0</ele><time>2026-04-04T15:05:05.006Z</time></trkpt><trkpt lat="44.15667" lon="12.020355"><ele>176.0</ele><time>2026-04-04T15:05:06.007Z</time></trkpt><trkpt lat="44.1569533" lon="12.0204667"><ele>176.0</ele><time>2026-04-04T15:05:07.006Z</time></trkpt><trkpt lat="44.157255" lon="12.0205917"><ele>169.0</ele><time>2026-04-04T15:05:08.006Z</time></trkpt><trkpt lat="44.1575767" lon="12.0207283"><ele>162.0</ele><time>2026-04-04T15:05:09.008Z</time></trkpt><trkpt lat="44.15792" lon="12.0208617"><ele>158.0</ele><time>2026-04-04T15:05:10.008Z</time></trkpt><trkpt lat="44.15826" lon="12.0209967"><ele>154.0</ele><time>2026-04-04T15:05:11.008Z</time></trkpt><trkpt lat="44.1585767" lon="12.0211283"><ele>154.0</ele><time>2026-04-04T15:05:12.007Z</time></trkpt><trkpt lat="44.1588767" lon="12.0212483"><ele>154.0</ele><time>2026-04-04T15:05:13.009Z</time></trkpt><trkpt lat="44.1591533" lon="12.02136"><ele>151.0</ele><time>2026-04-04T15:05:14.007Z</time></trkpt><trkpt lat="44.1594083" lon="12.0214717"><ele>148.0</ele><time>2026-04-04T15:05:15.011Z</time></trkpt><trkpt lat="44.1596417" lon="12.0215717"><ele>147.66666666666669</ele><time>2026-04-04T15:05:16.008Z</time></trkpt><trkpt lat="44.1598583" lon="12.02165"><ele>147.33333333333334</ele><time>2026-04-04T15:05:17.008Z</time></trkpt><trkpt lat="44.1600583" lon="12.0217217"><ele>147.0</ele><time>2026-04-04T15:05:18.008Z</time></trkpt><trkpt lat="44.1602467" lon="12.0217967"><ele>148.0</ele><time>2026-04-04T15:05:19.008Z</time></trkpt><trkpt lat="44.1604367" lon="12.0218733"><ele>149.0</ele><time>2026-04-04T15:05:20.009Z</time></trkpt><trkpt lat="44.1606183" lon="12.0219567"><ele>150.0</ele><time>2026-04-04T15:05:21.008Z</time></trkpt><trkpt lat="44.160785" lon="12.022045"><ele>150.0</ele><time>2026-04-04T15:05:22.01Z</time></trkpt><trkpt lat="44.160945" lon="12.022145"><ele>150.0</ele><time>2026-04-04T15:05:23.007Z</time></trkpt><trkpt lat="44.16111" lon="12.022285"><ele>150.0</ele><time>2026-04-04T15:05:24.009Z</time></trkpt><trkpt lat="44.1612917" lon="12.0224733"><ele>153.0</ele><time>2026-04-04T15:05:25.008Z</time></trkpt><trkpt lat="44.1614833" lon="12.0226883"><ele>156.0</ele><time>2026-04-04T15:05:26.007Z</time></trkpt><trkpt lat="44.1616733" lon="12.0229"><ele>156.0</ele><time>2026-04-04T15:05:27.008Z</time></trkpt><trkpt lat="44.16185" lon="12.0230967"><ele>156.0</ele><time>2026-04-04T15:05:28.011Z</time></trkpt><trkpt lat="44.162015" lon="12.0232783"><ele>156.0</ele><time>2026-04-04T15:05:29.009Z</time></trkpt><trkpt lat="44.1621667" lon="12.023455"><ele>155.66666666666666</ele><time>2026-04-04T15:05:30.007Z</time></trkpt><trkpt lat="44.1623067" lon="12.0236183"><ele>155.33333333333331</ele><time>2026-04-04T15:05:31.01Z</time></trkpt><trkpt lat="44.1624267" lon="12.0237567"><ele>155.0</ele><time>2026-04-04T15:05:32.009Z</time></trkpt><trkpt lat="44.1625317" lon="12.0238717"><ele>154.66666666666666</ele><time>2026-04-04T15:05:33.008Z</time></trkpt><trkpt lat="44.162645" lon="12.0239983"><ele>154.33333333333334</ele><time>2026-04-04T15:05:34.006Z</time></trkpt><trkpt lat="44.16278" lon="12.0241567"><ele>154.0</ele><time>2026-04-04T15:05:35.008Z</time></trkpt><trkpt lat="44.1629383" lon="12.0243567"><ele>151.0</ele><time>2026-04-04T15:05:36.007Z</time></trkpt><trkpt lat="44.16312" lon="12.0245967"><ele>148.0</ele><time>2026-04-04T15:05:37.009Z</time></trkpt><trkpt lat="44.16331" lon="12.02488"><ele>144.5</ele><time>2026-04-04T15:05:38.01Z</time></trkpt><trkpt lat="44.1635133" lon="12.025185"><ele>141.0</ele><time>2026-04-04T15:05:39.007Z</time></trkpt><trkpt lat="44.1637183" lon="12.0254867"><ele>141.0</ele><time>2026-04-04T15:05:40.008Z</time></trkpt><trkpt lat="44.1639167" lon="12.0257733"><ele>141.0</ele><time>2026-04-04T15:05:41.008Z</time></trkpt><trkpt lat="44.164105" lon="12.0260417"><ele>138.5</ele><time>2026-04-04T15:05:42.008Z</time></trkpt><trkpt lat="44.1642817" lon="12.0262883"><ele>136.0</ele><time>2026-04-04T15:05:43.008Z</time></trkpt><trkpt lat="44.16444" lon="12.0265167"><ele>135.0</ele><time>2026-04-04T15:05:44.008Z</time></trkpt><trkpt lat="44.164585" lon="12.0267217"><ele>134.0</ele><time>2026-04-04T15:05:45.012Z</time></trkpt><trkpt lat="44.1647183" lon="12.026905"><ele>133.0</ele><time>2026-04-04T15:05:46.009Z</time></trkpt><trkpt lat="44.1648417" lon="12.0270583"><ele>132.33333333333334</ele><time>2026-04-04T15:05:47.007Z</time></trkpt><trkpt lat="44.1649783" lon="12.0271717"><ele>131.66666666666666</ele><time>2026-04-04T15:05:48.007Z</time></trkpt><trkpt lat="44.1651417" lon="12.027255"><ele>131.0</ele><time>2026-04-04T15:05:49.01Z</time></trkpt><trkpt lat="44.1653467" lon="12.0273117"><ele>131.0</ele><time>2026-04-04T15:05:50.011Z</time></trkpt><trkpt lat="44.16557" lon="12.0273633"><ele>131.0</ele><time>2026-04-04T15:05:51.009Z</time></trkpt><trkpt lat="44.1657967" lon="12.0274167"><ele>128.33333333333331</ele><time>2026-04-04T15:05:52.009Z</time></trkpt><trkpt lat="44.1660033" lon="12.0274667"><ele>125.66666666666666</ele><time>2026-04-04T15:05:53.007Z</time></trkpt><trkpt lat="44.16619" lon="12.0275083"><ele>123.0</ele><time>2026-04-04T15:05:54.007Z</time></trkpt><trkpt lat="44.16635" lon="12.02755"><ele>123.0</ele><time>2026-04-04T15:05:55.007Z</time></trkpt><trkpt lat="44.16649" lon="12.0276"><ele>123.0</ele><time>2026-04-04T15:05:56.012Z</time></trkpt><trkpt lat="44.166615" lon="12.0276633"><ele>123.0</ele><time>2026-04-04T15:05:57.009Z</time></trkpt><trkpt lat="44.1667217" lon="12.0277483"><ele>123.0</ele><time>2026-04-04T15:05:58.01Z</time></trkpt><trkpt lat="44.166805" lon="12.027855"><ele>120.33333333333334</ele><time>2026-04-04T15:05:59.01Z</time></trkpt><trkpt lat="44.1668617" lon="12.0280083"><ele>117.66666666666667</ele><time>2026-04-04T15:06:00.009Z</time></trkpt><trkpt lat="44.1669067" lon="12.0282167"><ele>115.0</ele><time>2026-04-04T15:06:01.008Z</time></trkpt><trkpt lat="44.166955" lon="12.02848"><ele>115.0</ele><time>2026-04-04T15:06:02.008Z</time></trkpt><trkpt lat="44.1669967" lon="12.0287933"><ele>115.0</ele><time>2026-04-04T15:06:03.008Z</time></trkpt><trkpt lat="44.1670467" lon="12.0291517"><ele>116.5</ele><time>2026-04-04T15:06:04.009Z</time></trkpt><trkpt lat="44.1670783" lon="12.0295117"><ele>118.0</ele><time>2026-04-04T15:06:05.007Z</time></trkpt><trkpt lat="44.1671117" lon="12.0298467"><ele>116.0</ele><time>2026-04-04T15:06:06.008Z</time></trkpt><trkpt lat="44.1671533" lon="12.030155"><ele>114.0</ele><time>2026-04-04T15:06:07.007Z</time></trkpt><trkpt lat="44.1671933" lon="12.030445"><ele>112.0</ele><time>2026-04-04T15:06:08.01Z</time></trkpt><trkpt lat="44.16723" lon="12.0307233"><ele>109.66666666666667</ele><time>2026-04-04T15:06:09.009Z</time></trkpt><trkpt lat="44.1672583" lon="12.0309833"><ele>107.33333333333334</ele><time>2026-04-04T15:06:10.007Z</time></trkpt><trkpt lat="44.1672683" lon="12.0312283"><ele>105.0</ele><time>2026-04-04T15:06:11.009Z</time></trkpt><trkpt lat="44.167255" lon="12.0314617"><ele>103.0</ele><time>2026-04-04T15:06:12.007Z</time></trkpt><trkpt lat="44.1672283" lon="12.0317"><ele>101.0</ele><time>2026-04-04T15:06:13.009Z</time></trkpt><trkpt lat="44.16717" lon="12.0319617"><ele>99.0</ele><time>2026-04-04T15:06:14.004Z</time></trkpt><trkpt lat="44.1670967" lon="12.03222"><ele>99.0</ele><time>2026-04-04T15:06:15.007Z</time></trkpt><trkpt lat="44.1670267" lon="12.032455"><ele>99.0</ele><time>2026-04-04T15:06:16.008Z</time></trkpt><trkpt lat="44.166965" lon="12.032665"><ele>99.0</ele><time>2026-04-04T15:06:17.006Z</time></trkpt><trkpt lat="44.1669067" lon="12.032855"><ele>98.2</ele><time>2026-04-04T15:06:18.006Z</time></trkpt><trkpt lat="44.1668583" lon="12.0330167"><ele>97.4</ele><time>2026-04-04T15:06:19.009Z</time></trkpt><trkpt lat="44.1668282" lon="12.0331659"><ele>96.6</ele><time>2026-04-04T15:06:20.01Z</time></trkpt><trkpt lat="44.1668342" lon="12.033299"><ele>95.8</ele><time>2026-04-04T15:06:21.008Z</time></trkpt><trkpt lat="44.1668816" lon="12.0334159"><ele>95.0</ele><time>2026-04-04T15:06:22.008Z</time></trkpt><trkpt lat="44.1669689" lon="12.0335205"><ele>93.33333333333334</ele><time>2026-04-04T15:06:23.006Z</time></trkpt><trkpt lat="44.1670961" lon="12.0336292"><ele>91.66666666666667</ele><time>2026-04-04T15:06:24.01Z</time></trkpt><trkpt lat="44.1672584" lon="12.0337415"><ele>90.0</ele><time>2026-04-04T15:06:25.007Z</time></trkpt><trkpt lat="44.1674823" lon="12.0338654"><ele>88.33333333333333</ele><time>2026-04-04T15:06:26.006Z</time></trkpt><trkpt lat="44.1676977" lon="12.033989"><ele>86.66666666666666</ele><time>2026-04-04T15:06:27.007Z</time></trkpt><trkpt lat="44.1678971" lon="12.0340992"><ele>85.0</ele><time>2026-04-04T15:06:28.007Z</time></trkpt><trkpt lat="44.1680792" lon="12.0341867"><ele>81.0</ele><time>2026-04-04T15:06:29.006Z</time></trkpt><trkpt lat="44.1682452" lon="12.0342353"><ele>77.0</ele><time>2026-04-04T15:06:30.005Z</time></trkpt><trkpt lat="44.1683925" lon="12.0342261"><ele>73.0</ele><time>2026-04-04T15:06:31.007Z</time></trkpt><trkpt lat="44.1685308" lon="12.0341552"><ele>75.33333333333333</ele><time>2026-04-04T15:06:32.006Z</time></trkpt><trkpt lat="44.1686574" lon="12.0340311"><ele>77.66666666666667</ele><time>2026-04-04T15:06:33.008Z</time></trkpt><trkpt lat="44.1687668" lon="12.0338576"><ele>80.0</ele><time>2026-04-04T15:06:34.007Z</time></trkpt><trkpt lat="44.1688623" lon="12.0336359"><ele>80.0</ele><time>2026-04-04T15:06:35.006Z</time></trkpt><trkpt lat="44.1689564" lon="12.0333616"><ele>80.0</ele><time>2026-04-04T15:06:36.008Z</time></trkpt><trkpt lat="44.1690606" lon="12.0330439"><ele>74.33333333333334</ele><time>2026-04-04T15:06:37.005Z</time></trkpt><trkpt lat="44.1691579" lon="12.0327575"><ele>68.66666666666667</ele><time>2026-04-04T15:06:38.009Z</time></trkpt><trkpt lat="44.1692445" lon="12.0325195"><ele>63.0</ele><time>2026-04-04T15:06:39.007Z</time></trkpt><trkpt lat="44.1693193" lon="12.0323155"><ele>63.0</ele><time>2026-04-04T15:06:40.008Z</time></trkpt><trkpt lat="44.1693893" lon="12.0321444"><ele>63.0</ele><time>2026-04-04T15:06:41.006Z</time></trkpt><trkpt lat="44.1694714" lon="12.032016"><ele>63.0</ele><time>2026-04-04T15:06:42.007Z</time></trkpt><trkpt lat="44.1695826" lon="12.0319319"><ele>63.0</ele><time>2026-04-04T15:06:43.009Z</time></trkpt><trkpt lat="44.1697318" lon="12.0318812"><ele>59.66666666666667</ele><time>2026-04-04T15:06:44.007Z</time></trkpt><trkpt lat="44.1699256" lon="12.0318508"><ele>56.333333333333336</ele><time>2026-04-04T15:06:45.007Z</time></trkpt><trkpt lat="44.1701515" lon="12.0318235"><ele>53.0</ele><time>2026-04-04T15:06:46.006Z</time></trkpt><trkpt lat="44.1703788" lon="12.0317942"><ele>53.0</ele><time>2026-04-04T15:06:47.007Z</time></trkpt><trkpt lat="44.1705833" lon="12.0317583"><ele>53.0</ele><time>2026-04-04T15:06:48.007Z</time></trkpt><trkpt lat="44.1707602" lon="12.0317313"><ele>53.0</ele><time>2026-04-04T15:06:49.006Z</time></trkpt><trkpt lat="44.1709119" lon="12.0317147"><ele>52.8</ele><time>2026-04-04T15:06:50.007Z</time></trkpt><trkpt lat="44.1710407" lon="12.0317038"><ele>52.599999999999994</ele><time>2026-04-04T15:06:51.007Z</time></trkpt><trkpt lat="44.1711479" lon="12.0316941"><ele>52.400000000000006</ele><time>2026-04-04T15:06:52.007Z</time></trkpt><trkpt lat="44.1712366" lon="12.0316866"><ele>52.2</ele><time>2026-04-04T15:06:53.008Z</time></trkpt><trkpt lat="44.171307" lon="12.0316886"><ele>52.0</ele><time>2026-04-04T15:06:54.008Z</time></trkpt><trkpt lat="44.1713951" lon="12.0317087"><ele>52.0</ele><time>2026-04-04T15:06:56.009Z</time></trkpt><trkpt lat="44.1714937" lon="12.0317615"><ele>52.0</ele><time>2026-04-04T15:06:59.007Z</time></trkpt><trkpt lat="44.1716125" lon="12.0317923"><ele>52.0</ele><time>2026-04-04T15:07:01.008Z</time></trkpt><trkpt lat="44.1716853" lon="12.0317768"><ele>52.0</ele><time>2026-04-04T15:07:02.009Z</time></trkpt><trkpt lat="44.1717581" lon="12.0317302"><ele>52.0</ele><time>2026-04-04T15:07:03.008Z</time></trkpt><trkpt lat="44.1718354" lon="12.0316556"><ele>51.666666666666664</ele><time>2026-04-04T15:07:04.008Z</time></trkpt><trkpt lat="44.1719292" lon="12.0315448"><ele>51.33333333333333</ele><time>2026-04-04T15:07:05.006Z</time></trkpt><trkpt lat="44.1720595" lon="12.0314225"><ele>51.0</ele><time>2026-04-04T15:07:06.007Z</time></trkpt><trkpt lat="44.172235" lon="12.0312947"><ele>51.0</ele><time>2026-04-04T15:07:07.006Z</time></trkpt><trkpt lat="44.1724413" lon="12.0311605"><ele>51.0</ele><time>2026-04-04T15:07:08.008Z</time></trkpt><trkpt lat="44.1726712" lon="12.0310002"><ele>50.5</ele><time>2026-04-04T15:07:09.009Z</time></trkpt><trkpt lat="44.1729165" lon="12.0308049"><ele>50.0</ele><time>2026-04-04T15:07:10.007Z</time></trkpt><trkpt lat="44.1731544" lon="12.0305946"><ele>50.5</ele><time>2026-04-04T15:07:11.005Z</time></trkpt><trkpt lat="44.1733664" lon="12.0303962"><ele>51.0</ele><time>2026-04-04T15:07:12.006Z</time></trkpt><trkpt lat="44.1735522" lon="12.0302139"><ele>51.0</ele><time>2026-04-04T15:07:13.007Z</time></trkpt><trkpt lat="44.1737118" lon="12.0300507"><ele>51.0</ele><time>2026-04-04T15:07:14.006Z</time></trkpt><trkpt lat="44.1738458" lon="12.0299099"><ele>51.0</ele><time>2026-04-04T15:07:15.005Z</time></trkpt><trkpt lat="44.1739549" lon="12.0297964"><ele>50.8</ele><time>2026-04-04T15:07:16.006Z</time></trkpt><trkpt lat="44.1740442" lon="12.0297081"><ele>50.599999999999994</ele><time>2026-04-04T15:07:17.006Z</time></trkpt><trkpt lat="44.1741238" lon="12.0296418"><ele>50.4</ele><time>2026-04-04T15:07:18.006Z</time></trkpt><trkpt lat="44.1742019" lon="12.0295935"><ele>50.2</ele><time>2026-04-04T15:07:19.009Z</time></trkpt><trkpt lat="44.1742846" lon="12.02956"><ele>50.0</ele><time>2026-04-04T15:07:20.006Z</time></trkpt><trkpt lat="44.174378" lon="12.029542"><ele>50.0</ele><time>2026-04-04T15:07:21.006Z</time></trkpt><trkpt lat="44.1744893" lon="12.0295521"><ele>50.0</ele><time>2026-04-04T15:07:22.006Z</time></trkpt><trkpt lat="44.17462" lon="12.0295848"><ele>50.0</ele><time>2026-04-04T15:07:23.006Z</time></trkpt><trkpt lat="44.1747693" lon="12.0296286"><ele>50.0</ele><time>2026-04-04T15:07:24.007Z</time></trkpt><trkpt lat="44.1749401" lon="12.0296728"><ele>50.0</ele><time>2026-04-04T15:07:25.006Z</time></trkpt><trkpt lat="44.1751316" lon="12.0297144"><ele>50.0</ele><time>2026-04-04T15:07:26.005Z</time></trkpt><trkpt lat="44.1753407" lon="12.0297568"><ele>50.0</ele><time>2026-04-04T15:07:27.008Z</time></trkpt><trkpt lat="44.1755633" lon="12.0297992"><ele>49.66666666666667</ele><time>2026-04-04T15:07:28.006Z</time></trkpt><trkpt lat="44.1757918" lon="12.0298372"><ele>49.33333333333333</ele><time>2026-04-04T15:07:29.005Z</time></trkpt><trkpt lat="44.1760086" lon="12.0298761"><ele>49.0</ele><time>2026-04-04T15:07:30.007Z</time></trkpt><trkpt lat="44.1762091" lon="12.0299173"><ele>49.0</ele><time>2026-04-04T15:07:31.007Z</time></trkpt><trkpt lat="44.1763926" lon="12.0299522"><ele>49.0</ele><time>2026-04-04T15:07:32.008Z</time></trkpt><trkpt lat="44.1765601" lon="12.0299813"><ele>49.0</ele><time>2026-04-04T15:07:33.007Z</time></trkpt><trkpt lat="44.1767197" lon="12.0300123"><ele>48.75</ele><time>2026-04-04T15:07:34.004Z</time></trkpt><trkpt lat="44.1768696" lon="12.0300465"><ele>48.5</ele><time>2026-04-04T15:07:35.005Z</time></trkpt><trkpt lat="44.1770125" lon="12.0300781"><ele>48.25</ele><time>2026-04-04T15:07:36.004Z</time></trkpt><trkpt lat="44.1771641" lon="12.0301036"><ele>48.0</ele><time>2026-04-04T15:07:37.007Z</time></trkpt><trkpt lat="44.1773345" lon="12.0301311"><ele>48.33333333333333</ele><time>2026-04-04T15:07:38.005Z</time></trkpt><trkpt lat="44.1775083" lon="12.030159"><ele>48.666666666666664</ele><time>2026-04-04T15:07:39.007Z</time></trkpt><trkpt lat="44.1776625" lon="12.0301878"><ele>49.0</ele><time>2026-04-04T15:07:40.007Z</time></trkpt><trkpt lat="44.1777934" lon="12.0302132"><ele>49.0</ele><time>2026-04-04T15:07:41.008Z</time></trkpt><trkpt lat="44.1779065" lon="12.030237"><ele>49.0</ele><time>2026-04-04T15:07:42.005Z</time></trkpt><trkpt lat="44.1780191" lon="12.030266"><ele>49.0</ele><time>2026-04-04T15:07:43.006Z</time></trkpt><trkpt lat="44.1781306" lon="12.0303088"><ele>49.0</ele><time>2026-04-04T15:07:44.006Z</time></trkpt><trkpt lat="44.1782528" lon="12.0303928"><ele>49.0</ele><time>2026-04-04T15:07:45.008Z</time></trkpt><trkpt lat="44.1783831" lon="12.030536"><ele>49.0</ele><time>2026-04-04T15:07:46.007Z</time></trkpt><trkpt lat="44.1785161" lon="12.0307003"><ele>49.0</ele><time>2026-04-04T15:07:47.006Z</time></trkpt><trkpt lat="44.1786501" lon="12.0308517"><ele>48.666666666666664</ele><time>2026-04-04T15:07:48.007Z</time></trkpt><trkpt lat="44.1787862" lon="12.0309795"><ele>48.33333333333333</ele><time>2026-04-04T15:07:49.008Z</time></trkpt><trkpt lat="44.1789278" lon="12.0310893"><ele>48.0</ele><time>2026-04-04T15:07:50.008Z</time></trkpt><trkpt lat="44.1790675" lon="12.0311932"><ele>47.75</ele><time>2026-04-04T15:07:51.008Z</time></trkpt><trkpt lat="44.1792022" lon="12.0312873"><ele>47.5</ele><time>2026-04-04T15:07:52.007Z</time></trkpt><trkpt lat="44.1793245" lon="12.0313737"><ele>47.25</ele><time>2026-04-04T15:07:53.006Z</time></trkpt><trkpt lat="44.1794331" lon="12.0314505"><ele>47.0</ele><time>2026-04-04T15:07:54.009Z</time></trkpt><trkpt lat="44.1795364" lon="12.0315157"><ele>47.0</ele><time>2026-04-04T15:07:55.006Z</time></trkpt><trkpt lat="44.1796428" lon="12.03157"><ele>47.0</ele><time>2026-04-04T15:07:56.009Z</time></trkpt><trkpt lat="44.1797645" lon="12.0316367"><ele>47.0</ele><time>2026-04-04T15:07:57.007Z</time></trkpt><trkpt lat="44.1798953" lon="12.0317164"><ele>47.0</ele><time>2026-04-04T15:07:58.007Z</time></trkpt><trkpt lat="44.1800309" lon="12.0318028"><ele>47.5</ele><time>2026-04-04T15:07:59.009Z</time></trkpt><trkpt lat="44.1801574" lon="12.031891"><ele>48.0</ele><time>2026-04-04T15:08:00.008Z</time></trkpt><trkpt lat="44.1802645" lon="12.0319645"><ele>48.5</ele><time>2026-04-04T15:08:01.008Z</time></trkpt><trkpt lat="44.180363" lon="12.0320324"><ele>49.0</ele><time>2026-04-04T15:08:02.007Z</time></trkpt><trkpt lat="44.1804633" lon="12.032097"><ele>49.0</ele><time>2026-04-04T15:08:03.009Z</time></trkpt><trkpt lat="44.1805776" lon="12.0321615"><ele>49.0</ele><time>2026-04-04T15:08:04.007Z</time></trkpt><trkpt lat="44.1807053" lon="12.0322269"><ele>49.0</ele><time>2026-04-04T15:08:05.008Z</time></trkpt><trkpt lat="44.1808416" lon="12.0323002"><ele>49.0</ele><time>2026-04-04T15:08:06.006Z</time></trkpt><trkpt lat="44.1809904" lon="12.0323877"><ele>48.666666666666664</ele><time>2026-04-04T15:08:07.006Z</time></trkpt><trkpt lat="44.1811562" lon="12.0324899"><ele>48.33333333333333</ele><time>2026-04-04T15:08:08.009Z</time></trkpt><trkpt lat="44.1813264" lon="12.0326091"><ele>48.0</ele><time>2026-04-04T15:08:09.009Z</time></trkpt><trkpt lat="44.1814885" lon="12.0327231"><ele>48.0</ele><time>2026-04-04T15:08:10.007Z</time></trkpt><trkpt lat="44.1816462" lon="12.0328286"><ele>48.0</ele><time>2026-04-04T15:08:11.005Z</time></trkpt><trkpt lat="44.1817949" lon="12.0329195"><ele>48.0</ele><time>2026-04-04T15:08:12.008Z</time></trkpt><trkpt lat="44.1819307" lon="12.0330048"><ele>48.0</ele><time>2026-04-04T15:08:13.007Z</time></trkpt><trkpt lat="44.1820539" lon="12.0330846"><ele>48.0</ele><time>2026-04-04T15:08:14.006Z</time></trkpt><trkpt lat="44.1821668" lon="12.0331559"><ele>48.0</ele><time>2026-04-04T15:08:15.008Z</time></trkpt><trkpt lat="44.1822686" lon="12.033218"><ele>48.0</ele><time>2026-04-04T15:08:16.007Z</time></trkpt><trkpt lat="44.1823589" lon="12.0332754"><ele>47.8</ele><time>2026-04-04T15:08:17.006Z</time></trkpt><trkpt lat="44.1824418" lon="12.0333268"><ele>47.599999999999994</ele><time>2026-04-04T15:08:18.013Z</time></trkpt><trkpt lat="44.1825232" lon="12.0333721"><ele>47.400000000000006</ele><time>2026-04-04T15:08:19.009Z</time></trkpt><trkpt lat="44.182604" lon="12.0334192"><ele>47.2</ele><time>2026-04-04T15:08:20.006Z</time></trkpt><trkpt lat="44.1826921" lon="12.0334741"><ele>47.0</ele><time>2026-04-04T15:08:21.011Z</time></trkpt><trkpt lat="44.1827994" lon="12.0335417"><ele>47.0</ele><time>2026-04-04T15:08:22.007Z</time></trkpt><trkpt lat="44.1829202" lon="12.0336253"><ele>47.0</ele><time>2026-04-04T15:08:23.006Z</time></trkpt><trkpt lat="44.1830418" lon="12.0337117"><ele>47.0</ele><time>2026-04-04T15:08:24.009Z</time></trkpt><trkpt lat="44.1831531" lon="12.0337888"><ele>47.0</ele><time>2026-04-04T15:08:25.007Z</time></trkpt><trkpt lat="44.1832553" lon="12.0338556"><ele>47.2</ele><time>2026-04-04T15:08:26.007Z</time></trkpt><trkpt lat="44.1833508" lon="12.033912"><ele>47.400000000000006</ele><time>2026-04-04T15:08:27.009Z</time></trkpt><trkpt lat="44.1834406" lon="12.0339658"><ele>47.599999999999994</ele><time>2026-04-04T15:08:28.007Z</time></trkpt><trkpt lat="44.1835298" lon="12.0340201"><ele>47.8</ele><time>2026-04-04T15:08:29.008Z</time></trkpt><trkpt lat="44.1836223" lon="12.0340777"><ele>48.0</ele><time>2026-04-04T15:08:30.007Z</time></trkpt><trkpt lat="44.1837238" lon="12.0341469"><ele>48.33333333333333</ele><time>2026-04-04T15:08:31.007Z</time></trkpt><trkpt lat="44.1838397" lon="12.0342245"><ele>48.666666666666664</ele><time>2026-04-04T15:08:32.007Z</time></trkpt><trkpt lat="44.183987" lon="12.0343205"><ele>49.0</ele><time>2026-04-04T15:08:33.007Z</time></trkpt><trkpt lat="44.1841571" lon="12.0344297"><ele>48.33333333333333</ele><time>2026-04-04T15:08:34.007Z</time></trkpt><trkpt lat="44.1843312" lon="12.0345462"><ele>47.666666666666664</ele><time>2026-04-04T15:08:35.006Z</time></trkpt><trkpt lat="44.1844835" lon="12.0346583"><ele>47.0</ele><time>2026-04-04T15:08:36.007Z</time></trkpt><trkpt lat="44.1846166" lon="12.0347581"><ele>47.0</ele><time>2026-04-04T15:08:37.008Z</time></trkpt><trkpt lat="44.184739" lon="12.0348479"><ele>47.0</ele><time>2026-04-04T15:08:38.007Z</time></trkpt><trkpt lat="44.1848592" lon="12.0349302"><ele>47.0</ele><time>2026-04-04T15:08:39.006Z</time></trkpt><trkpt lat="44.1849804" lon="12.0350038"><ele>47.0</ele><time>2026-04-04T15:08:40.008Z</time></trkpt><trkpt lat="44.1850934" lon="12.0350717"><ele>46.83333333333333</ele><time>2026-04-04T15:08:41.008Z</time></trkpt><trkpt lat="44.1851892" lon="12.0351295"><ele>46.666666666666664</ele><time>2026-04-04T15:08:42.006Z</time></trkpt><trkpt lat="44.1852704" lon="12.0351778"><ele>46.5</ele><time>2026-04-04T15:08:43.007Z</time></trkpt><trkpt lat="44.1853481" lon="12.0352175"><ele>46.333333333333336</ele><time>2026-04-04T15:08:44.007Z</time></trkpt><trkpt lat="44.1854252" lon="12.0352621"><ele>46.16666666666667</ele><time>2026-04-04T15:08:45.007Z</time></trkpt><trkpt lat="44.1854973" lon="12.0353077"><ele>46.0</ele><time>2026-04-04T15:08:46.007Z</time></trkpt><trkpt lat="44.1855615" lon="12.0353499"><ele>46.0</ele><time>2026-04-04T15:08:47.007Z</time></trkpt><trkpt lat="44.1856245" lon="12.0353784"><ele>46.0</ele><time>2026-04-04T15:08:48.006Z</time></trkpt><trkpt lat="44.1856952" lon="12.0354018"><ele>46.0</ele><time>2026-04-04T15:08:49.009Z</time></trkpt><trkpt lat="44.1857795" lon="12.0354259"><ele>46.0</ele><time>2026-04-04T15:08:50.01Z</time></trkpt><trkpt lat="44.1858756" lon="12.0354526"><ele>46.0</ele><time>2026-04-04T15:08:51.007Z</time></trkpt><trkpt lat="44.185996" lon="12.0354807"><ele>46.0</ele><time>2026-04-04T15:08:52.007Z</time></trkpt><trkpt lat="44.1861353" lon="12.0355023"><ele>46.0</ele><time>2026-04-04T15:08:53.006Z</time></trkpt><trkpt lat="44.1862759" lon="12.0355176"><ele>46.0</ele><time>2026-04-04T15:08:54.006Z</time></trkpt><trkpt lat="44.1864001" lon="12.035524"><ele>46.0</ele><time>2026-04-04T15:08:55.008Z</time></trkpt><trkpt lat="44.1865045" lon="12.0355187"><ele>46.0</ele><time>2026-04-04T15:08:56.007Z</time></trkpt><trkpt lat="44.186589" lon="12.0355063"><ele>46.0</ele><time>2026-04-04T15:08:57.009Z</time></trkpt><trkpt lat="44.1866638" lon="12.0354963"><ele>46.0</ele><time>2026-04-04T15:08:58.008Z</time></trkpt><trkpt lat="44.1867324" lon="12.0354822"><ele>46.0</ele><time>2026-04-04T15:08:59.008Z</time></trkpt><trkpt lat="44.1868051" lon="12.0354662"><ele>46.0</ele><time>2026-04-04T15:09:00.008Z</time></trkpt><trkpt lat="44.1868751" lon="12.0354423"><ele>46.0</ele><time>2026-04-04T15:09:01.008Z</time></trkpt><trkpt lat="44.1869406" lon="12.0354189"><ele>46.0</ele><time>2026-04-04T15:09:02.007Z</time></trkpt><trkpt lat="44.1870077" lon="12.0353937"><ele>46.0</ele><time>2026-04-04T15:09:03.008Z</time></trkpt><trkpt lat="44.1870919" lon="12.0353583"><ele>46.0</ele><time>2026-04-04T15:09:04.006Z</time></trkpt><trkpt lat="44.1872005" lon="12.0353021"><ele>46.0</ele><time>2026-04-04T15:09:05.007Z</time></trkpt><trkpt lat="44.187347" lon="12.0352283"><ele>46.0</ele><time>2026-04-04T15:09:06.007Z</time></trkpt><trkpt lat="44.1875382" lon="12.0351434"><ele>46.0</ele><time>2026-04-04T15:09:07.007Z</time></trkpt><trkpt lat="44.1877533" lon="12.0350533"><ele>46.0</ele><time>2026-04-04T15:09:08.007Z</time></trkpt><trkpt lat="44.1879467" lon="12.0349633"><ele>46.0</ele><time>2026-04-04T15:09:09.007Z</time></trkpt><trkpt lat="44.1881117" lon="12.0348617"><ele>45.333333333333336</ele><time>2026-04-04T15:09:10.009Z</time></trkpt><trkpt lat="44.18825" lon="12.0347517"><ele>44.666666666666664</ele><time>2026-04-04T15:09:11.005Z</time></trkpt><trkpt lat="44.1883717" lon="12.03464"><ele>44.0</ele><time>2026-04-04T15:09:12.005Z</time></trkpt><trkpt lat="44.1884967" lon="12.03452"><ele>44.0</ele><time>2026-04-04T15:09:13.006Z</time></trkpt><trkpt lat="44.188635" lon="12.0343833"><ele>44.0</ele><time>2026-04-04T15:09:14.007Z</time></trkpt><trkpt lat="44.1887983" lon="12.0342233"><ele>44.0</ele><time>2026-04-04T15:09:15.007Z</time></trkpt><trkpt lat="44.1889867" lon="12.03405"><ele>44.0</ele><time>2026-04-04T15:09:16.007Z</time></trkpt><trkpt lat="44.1891767" lon="12.0338733"><ele>44.0</ele><time>2026-04-04T15:09:17.007Z</time></trkpt><trkpt lat="44.1893467" lon="12.033715"><ele>44.0</ele><time>2026-04-04T15:09:18.011Z</time></trkpt><trkpt lat="44.1895" lon="12.033575"><ele>44.0</ele><time>2026-04-04T15:09:19.007Z</time></trkpt><trkpt lat="44.1896417" lon="12.033455"><ele>44.0</ele><time>2026-04-04T15:09:20.008Z</time></trkpt><trkpt lat="44.18977" lon="12.0333433"><ele>44.0</ele><time>2026-04-04T15:09:21.007Z</time></trkpt><trkpt lat="44.1898883" lon="12.0332433"><ele>44.0</ele><time>2026-04-04T15:09:22.007Z</time></trkpt><trkpt lat="44.1899967" lon="12.033145"><ele>44.0</ele><time>2026-04-04T15:09:23.008Z</time></trkpt><trkpt lat="44.1901" lon="12.033045"><ele>44.0</ele><time>2026-04-04T15:09:24.007Z</time></trkpt><trkpt lat="44.19021" lon="12.032935"><ele>44.0</ele><time>2026-04-04T15:09:25.008Z</time></trkpt><trkpt lat="44.1903467" lon="12.0328117"><ele>44.0</ele><time>2026-04-04T15:09:26.009Z</time></trkpt><trkpt lat="44.190495" lon="12.0326883"><ele>44.0</ele><time>2026-04-04T15:09:27.008Z</time></trkpt><trkpt lat="44.190645" lon="12.0325683"><ele>44.0</ele><time>2026-04-04T15:09:28.009Z</time></trkpt><trkpt lat="44.1908033" lon="12.032455"><ele>42.75</ele><time>2026-04-04T15:09:29.007Z</time></trkpt><trkpt lat="44.1909517" lon="12.0323583"><ele>41.5</ele><time>2026-04-04T15:09:30.01Z</time></trkpt><trkpt lat="44.191085" lon="12.0322833"><ele>40.25</ele><time>2026-04-04T15:09:31.007Z</time></trkpt><trkpt lat="44.19121" lon="12.0322133"><ele>39.0</ele><time>2026-04-04T15:09:32.007Z</time></trkpt><trkpt lat="44.1913533" lon="12.0321483"><ele>39.333333333333336</ele><time>2026-04-04T15:09:33.007Z</time></trkpt><trkpt lat="44.1915167" lon="12.0321017"><ele>39.66666666666667</ele><time>2026-04-04T15:09:34.007Z</time></trkpt><trkpt lat="44.19169" lon="12.032045"><ele>40.0</ele><time>2026-04-04T15:09:35.006Z</time></trkpt><trkpt lat="44.1918567" lon="12.031985"><ele>40.0</ele><time>2026-04-04T15:09:36.007Z</time></trkpt><trkpt lat="44.19202" lon="12.0319267"><ele>40.0</ele><time>2026-04-04T15:09:37.008Z</time></trkpt><trkpt lat="44.192195" lon="12.03186"><ele>40.0</ele><time>2026-04-04T15:09:38.006Z</time></trkpt><trkpt lat="44.192395" lon="12.0317783"><ele>40.0</ele><time>2026-04-04T15:09:39.008Z</time></trkpt><trkpt lat="44.1926233" lon="12.0316833"><ele>40.0</ele><time>2026-04-04T15:09:40.007Z</time></trkpt><trkpt lat="44.1928783" lon="12.0315833"><ele>40.0</ele><time>2026-04-04T15:09:41.007Z</time></trkpt><trkpt lat="44.1931433" lon="12.0314833"><ele>40.0</ele><time>2026-04-04T15:09:42.007Z</time></trkpt><trkpt lat="44.1933933" lon="12.03139"><ele>40.0</ele><time>2026-04-04T15:09:43.006Z</time></trkpt><trkpt lat="44.1936233" lon="12.0313017"><ele>40.0</ele><time>2026-04-04T15:09:44.008Z</time></trkpt><trkpt lat="44.1938383" lon="12.031225"><ele>40.333333333333336</ele><time>2026-04-04T15:09:45.009Z</time></trkpt><trkpt lat="44.1940383" lon="12.0311517"><ele>40.666666666666664</ele><time>2026-04-04T15:09:46.007Z</time></trkpt><trkpt lat="44.194225" lon="12.0310917"><ele>41.0</ele><time>2026-04-04T15:09:47.007Z</time></trkpt><trkpt lat="44.1943983" lon="12.0310333"><ele>41.0</ele><time>2026-04-04T15:09:48.008Z</time></trkpt><trkpt lat="44.1945617" lon="12.0309833"><ele>41.0</ele><time>2026-04-04T15:09:49.007Z</time></trkpt><trkpt lat="44.19472" lon="12.0309533"><ele>41.0</ele><time>2026-04-04T15:09:50.01Z</time></trkpt><trkpt lat="44.1948733" lon="12.0309283"><ele>41.33333333333333</ele><time>2026-04-04T15:09:51.007Z</time></trkpt><trkpt lat="44.19503" lon="12.0309133"><ele>41.666666666666664</ele><time>2026-04-04T15:09:52.007Z</time></trkpt><trkpt lat="44.195185" lon="12.0309"><ele>42.0</ele><time>2026-04-04T15:09:53.004Z</time></trkpt><trkpt lat="44.195335" lon="12.0308933"><ele>42.0</ele><time>2026-04-04T15:09:54.006Z</time></trkpt><trkpt lat="44.19548" lon="12.03088"><ele>42.0</ele><time>2026-04-04T15:09:55.006Z</time></trkpt><trkpt lat="44.1956167" lon="12.0308733"><ele>42.0</ele><time>2026-04-04T15:09:56.006Z</time></trkpt><trkpt lat="44.19574" lon="12.030875"><ele>42.0</ele><time>2026-04-04T15:09:57.007Z</time></trkpt><trkpt lat="44.1958467" lon="12.0308917"><ele>41.833333333333336</ele><time>2026-04-04T15:09:58.007Z</time></trkpt><trkpt lat="44.1959383" lon="12.0309283"><ele>41.666666666666664</ele><time>2026-04-04T15:09:59.006Z</time></trkpt><trkpt lat="44.1960117" lon="12.0309683"><ele>41.5</ele><time>2026-04-04T15:10:00.006Z</time></trkpt><trkpt lat="44.1960717" lon="12.0310217"><ele>41.33333333333333</ele><time>2026-04-04T15:10:01.009Z</time></trkpt><trkpt lat="44.1961167" lon="12.0310833"><ele>41.166666666666664</ele><time>2026-04-04T15:10:02.006Z</time></trkpt><trkpt lat="44.1962033" lon="12.031165"><ele>41.0</ele><time>2026-04-04T15:10:04.005Z</time></trkpt><trkpt lat="44.1963117" lon="12.031145"><ele>41.0</ele><time>2026-04-04T15:10:06.006Z</time></trkpt><trkpt lat="44.1963667" lon="12.031085"><ele>41.0</ele><time>2026-04-04T15:10:07.009Z</time></trkpt><trkpt lat="44.1964067" lon="12.031"><ele>41.0</ele><time>2026-04-04T15:10:08.008Z</time></trkpt><trkpt lat="44.1964583" lon="12.0308967"><ele>41.0</ele><time>2026-04-04T15:10:09.007Z</time></trkpt><trkpt lat="44.1965233" lon="12.0308"><ele>41.0</ele><time>2026-04-04T15:10:10.01Z</time></trkpt><trkpt lat="44.1966133" lon="12.030715"><ele>41.0</ele><time>2026-04-04T15:10:11.007Z</time></trkpt><trkpt lat="44.1967267" lon="12.030645"><ele>40.25</ele><time>2026-04-04T15:10:12.008Z</time></trkpt><trkpt lat="44.1968633" lon="12.03057"><ele>39.5</ele><time>2026-04-04T15:10:13.01Z</time></trkpt><trkpt lat="44.19701" lon="12.030495"><ele>38.75</ele><time>2026-04-04T15:10:14.006Z</time></trkpt><trkpt lat="44.197145" lon="12.0304217"><ele>38.0</ele><time>2026-04-04T15:10:15.004Z</time></trkpt><trkpt lat="44.1972817" lon="12.0303567"><ele>38.0</ele><time>2026-04-04T15:10:16.006Z</time></trkpt><trkpt lat="44.19742" lon="12.0303"><ele>38.0</ele><time>2026-04-04T15:10:17.005Z</time></trkpt><trkpt lat="44.1975567" lon="12.0302567"><ele>38.0</ele><time>2026-04-04T15:10:18.005Z</time></trkpt><trkpt lat="44.19769" lon="12.0302183"><ele>38.0</ele><time>2026-04-04T15:10:19.006Z</time></trkpt><trkpt lat="44.1978233" lon="12.0301817"><ele>38.0</ele><time>2026-04-04T15:10:20.009Z</time></trkpt><trkpt lat="44.1979617" lon="12.0301433"><ele>38.0</ele><time>2026-04-04T15:10:21.007Z</time></trkpt><trkpt lat="44.1981017" lon="12.030105"><ele>38.0</ele><time>2026-04-04T15:10:22.006Z</time></trkpt><trkpt lat="44.1982383" lon="12.0300683"><ele>38.0</ele><time>2026-04-04T15:10:23.006Z</time></trkpt><trkpt lat="44.1983667" lon="12.03004"><ele>37.75</ele><time>2026-04-04T15:10:24.008Z</time></trkpt><trkpt lat="44.1984917" lon="12.0300117"><ele>37.5</ele><time>2026-04-04T15:10:25.006Z</time></trkpt><trkpt lat="44.1986117" lon="12.02998"><ele>37.25</ele><time>2026-04-04T15:10:26.006Z</time></trkpt><trkpt lat="44.1987217" lon="12.0299533"><ele>37.0</ele><time>2026-04-04T15:10:27.008Z</time></trkpt><trkpt lat="44.198825" lon="12.02993"><ele>36.4</ele><time>2026-04-04T15:10:28.007Z</time></trkpt><trkpt lat="44.1989233" lon="12.0299033"><ele>35.800000000000004</ele><time>2026-04-04T15:10:29.007Z</time></trkpt><trkpt lat="44.1990233" lon="12.0298767"><ele>35.2</ele><time>2026-04-04T15:10:30.007Z</time></trkpt><trkpt lat="44.1991233" lon="12.0298517"><ele>34.6</ele><time>2026-04-04T15:10:31.006Z</time></trkpt><trkpt lat="44.1992267" lon="12.0298283"><ele>34.0</ele><time>2026-04-04T15:10:32.006Z</time></trkpt><trkpt lat="44.1993333" lon="12.0298"><ele>34.0</ele><time>2026-04-04T15:10:33.008Z</time></trkpt><trkpt lat="44.1994483" lon="12.029765"><ele>34.0</ele><time>2026-04-04T15:10:34.007Z</time></trkpt><trkpt lat="44.1995983" lon="12.02972"><ele>34.0</ele><time>2026-04-04T15:10:35.009Z</time></trkpt><trkpt lat="44.1997783" lon="12.0296533"><ele>34.0</ele><time>2026-04-04T15:10:36.007Z</time></trkpt><trkpt lat="44.19996" lon="12.0295917"><ele>34.0</ele><time>2026-04-04T15:10:37.009Z</time></trkpt><trkpt lat="44.200125" lon="12.0295317"><ele>34.0</ele><time>2026-04-04T15:10:38.008Z</time></trkpt><trkpt lat="44.20027" lon="12.0294733"><ele>34.0</ele><time>2026-04-04T15:10:39.009Z</time></trkpt><trkpt lat="44.2003867" lon="12.02942"><ele>34.0</ele><time>2026-04-04T15:10:40.007Z</time></trkpt><trkpt lat="44.2004867" lon="12.0293833"><ele>34.0</ele><time>2026-04-04T15:10:41.006Z</time></trkpt><trkpt lat="44.20058" lon="12.02937"><ele>34.0</ele><time>2026-04-04T15:10:42.008Z</time></trkpt><trkpt lat="44.2006583" lon="12.0293633"><ele>34.0</ele><time>2026-04-04T15:10:43.008Z</time></trkpt><trkpt lat="44.20073" lon="12.0293533"><ele>33.6</ele><time>2026-04-04T15:10:44.006Z</time></trkpt><trkpt lat="44.20079" lon="12.029325"><ele>33.2</ele><time>2026-04-04T15:10:45.008Z</time></trkpt><trkpt lat="44.2008717" lon="12.0292283"><ele>32.800000000000004</ele><time>2026-04-04T15:10:47.005Z</time></trkpt><trkpt lat="44.20086" lon="12.0290483"><ele>32.4</ele><time>2026-04-04T15:10:49.007Z</time></trkpt><trkpt lat="44.200838" lon="12.0289264"><ele>32.0</ele><time>2026-04-04T15:10:50.006Z</time></trkpt><trkpt lat="44.2007841" lon="12.0287577"><ele>32.0</ele><time>2026-04-04T15:10:51.01Z</time></trkpt><trkpt lat="44.2007169" lon="12.0285114"><ele>32.0</ele><time>2026-04-04T15:10:52.007Z</time></trkpt><trkpt lat="44.2006568" lon="12.0282436"><ele>32.0</ele><time>2026-04-04T15:10:53.005Z</time></trkpt><trkpt lat="44.2006074" lon="12.0279538"><ele>29.5</ele><time>2026-04-04T15:10:54.007Z</time></trkpt><trkpt lat="44.2005684" lon="12.0276406"><ele>27.0</ele><time>2026-04-04T15:10:55.01Z</time></trkpt><trkpt lat="44.2005403" lon="12.0273018"><ele>27.0</ele><time>2026-04-04T15:10:56.009Z</time></trkpt><trkpt lat="44.2005095" lon="12.0269409"><ele>27.0</ele><time>2026-04-04T15:10:57.008Z</time></trkpt><trkpt lat="44.2004835" lon="12.0265831"><ele>27.5</ele><time>2026-04-04T15:10:58.007Z</time></trkpt><trkpt lat="44.2004677" lon="12.0262437"><ele>28.0</ele><time>2026-04-04T15:10:59.007Z</time></trkpt><trkpt lat="44.2004642" lon="12.0259232"><ele>28.0</ele><time>2026-04-04T15:11:00.008Z</time></trkpt><trkpt lat="44.2004713" lon="12.0256194"><ele>28.0</ele><time>2026-04-04T15:11:01.008Z</time></trkpt><trkpt lat="44.2004837" lon="12.0253377"><ele>28.0</ele><time>2026-04-04T15:11:02.008Z</time></trkpt><trkpt lat="44.200495" lon="12.0250724"><ele>29.666666666666668</ele><time>2026-04-04T15:11:03.007Z</time></trkpt><trkpt lat="44.2005152" lon="12.0248214"><ele>31.333333333333336</ele><time>2026-04-04T15:11:04.006Z</time></trkpt><trkpt lat="44.2005421" lon="12.024578"><ele>33.0</ele><time>2026-04-04T15:11:05.006Z</time></trkpt><trkpt lat="44.2005719" lon="12.024351"><ele>34.0</ele><time>2026-04-04T15:11:06.007Z</time></trkpt><trkpt lat="44.2005933" lon="12.0241366"><ele>35.0</ele><time>2026-04-04T15:11:07.008Z</time></trkpt><trkpt lat="44.200609" lon="12.0239376"><ele>36.0</ele><time>2026-04-04T15:11:08.006Z</time></trkpt><trkpt lat="44.2006266" lon="12.0237522"><ele>37.0</ele><time>2026-04-04T15:11:09.007Z</time></trkpt><trkpt lat="44.2006436" lon="12.0235778"><ele>37.0</ele><time>2026-04-04T15:11:10.007Z</time></trkpt><trkpt lat="44.2006585" lon="12.0234146"><ele>37.0</ele><time>2026-04-04T15:11:11.006Z</time></trkpt><trkpt lat="44.200672" lon="12.023259"><ele>37.0</ele><time>2026-04-04T15:11:12.01Z</time></trkpt><trkpt lat="44.2006851" lon="12.0231098"><ele>37.0</ele><time>2026-04-04T15:11:13.007Z</time></trkpt><trkpt lat="44.2007018" lon="12.022965"><ele>37.0</ele><time>2026-04-04T15:11:14.008Z</time></trkpt><trkpt lat="44.2007229" lon="12.0228294"><ele>37.16666666666667</ele><time>2026-04-04T15:11:15.008Z</time></trkpt><trkpt lat="44.2007495" lon="12.0227052"><ele>37.333333333333336</ele><time>2026-04-04T15:11:16.007Z</time></trkpt><trkpt lat="44.2007852" lon="12.0225899"><ele>37.5</ele><time>2026-04-04T15:11:17.006Z</time></trkpt><trkpt lat="44.2008379" lon="12.0224867"><ele>37.666666666666664</ele><time>2026-04-04T15:11:18.007Z</time></trkpt><trkpt lat="44.2008904" lon="12.0223927"><ele>37.83333333333333</ele><time>2026-04-04T15:11:19.007Z</time></trkpt><trkpt lat="44.2009251" lon="12.0222911"><ele>38.0</ele><time>2026-04-04T15:11:20.009Z</time></trkpt><trkpt lat="44.20093" lon="12.0221851"><ele>38.0</ele><time>2026-04-04T15:11:21.007Z</time></trkpt><trkpt lat="44.2009115" lon="12.0220838"><ele>38.0</ele><time>2026-04-04T15:11:22.007Z</time></trkpt><trkpt lat="44.2008843" lon="12.0219883"><ele>38.0</ele><time>2026-04-04T15:11:23.007Z</time></trkpt><trkpt lat="44.200862" lon="12.0218955"><ele>38.0</ele><time>2026-04-04T15:11:24.007Z</time></trkpt><trkpt lat="44.200849" lon="12.0217958"><ele>38.0</ele><time>2026-04-04T15:11:25.006Z</time></trkpt><trkpt lat="44.2008411" lon="12.0216817"><ele>38.0</ele><time>2026-04-04T15:11:26.006Z</time></trkpt><trkpt lat="44.2008408" lon="12.0215389"><ele>37.666666666666664</ele><time>2026-04-04T15:11:27.008Z</time></trkpt><trkpt lat="44.2008545" lon="12.021349"><ele>37.333333333333336</ele><time>2026-04-04T15:11:28.007Z</time></trkpt><trkpt lat="44.2008748" lon="12.0211153"><ele>37.0</ele><time>2026-04-04T15:11:29.01Z</time></trkpt><trkpt lat="44.2009044" lon="12.0208274"><ele>37.5</ele><time>2026-04-04T15:11:30.007Z</time></trkpt><trkpt lat="44.200939" lon="12.0204867"><ele>38.0</ele><time>2026-04-04T15:11:31.008Z</time></trkpt><trkpt lat="44.2009802" lon="12.0201114"><ele>37.5</ele><time>2026-04-04T15:11:32.007Z</time></trkpt><trkpt lat="44.201018" lon="12.0197521"><ele>37.0</ele><time>2026-04-04T15:11:33.008Z</time></trkpt><trkpt lat="44.2010564" lon="12.0194299"><ele>37.0</ele><time>2026-04-04T15:11:34.009Z</time></trkpt><trkpt lat="44.2010886" lon="12.0191568"><ele>37.0</ele><time>2026-04-04T15:11:35.007Z</time></trkpt><trkpt lat="44.2011166" lon="12.0189295"><ele>37.0</ele><time>2026-04-04T15:11:36.006Z</time></trkpt><trkpt lat="44.2011459" lon="12.0187456"><ele>36.800000000000004</ele><time>2026-04-04T15:11:37.007Z</time></trkpt><trkpt lat="44.2011824" lon="12.0186008"><ele>36.6</ele><time>2026-04-04T15:11:38.006Z</time></trkpt><trkpt lat="44.2012343" lon="12.0184906"><ele>36.400000000000006</ele><time>2026-04-04T15:11:39.008Z</time></trkpt><trkpt lat="44.2012917" lon="12.0183835"><ele>36.2</ele><time>2026-04-04T15:11:40.01Z</time></trkpt><trkpt lat="44.2013296" lon="12.0182704"><ele>36.0</ele><time>2026-04-04T15:11:41.006Z</time></trkpt><trkpt lat="44.2013383" lon="12.0181428"><ele>36.0</ele><time>2026-04-04T15:11:42.007Z</time></trkpt><trkpt lat="44.2013122" lon="12.0180098"><ele>36.0</ele><time>2026-04-04T15:11:43.007Z</time></trkpt><trkpt lat="44.2012648" lon="12.0178695"><ele>36.0</ele><time>2026-04-04T15:11:44.007Z</time></trkpt><trkpt lat="44.2012213" lon="12.0177064"><ele>36.0</ele><time>2026-04-04T15:11:45.009Z</time></trkpt><trkpt lat="44.2012018" lon="12.0175161"><ele>36.0</ele><time>2026-04-04T15:11:46.007Z</time></trkpt><trkpt lat="44.2012007" lon="12.0172899"><ele>36.0</ele><time>2026-04-04T15:11:47.008Z</time></trkpt><trkpt lat="44.2012135" lon="12.0170306"><ele>36.0</ele><time>2026-04-04T15:11:48.007Z</time></trkpt><trkpt lat="44.2012408" lon="12.0167456"><ele>36.333333333333336</ele><time>2026-04-04T15:11:49.007Z</time></trkpt><trkpt lat="44.2012798" lon="12.0164604"><ele>36.66666666666667</ele><time>2026-04-04T15:11:50.008Z</time></trkpt><trkpt lat="44.2013261" lon="12.0161943"><ele>37.0</ele><time>2026-04-04T15:11:51.007Z</time></trkpt><trkpt lat="44.2013815" lon="12.0159536"><ele>37.0</ele><time>2026-04-04T15:11:52.01Z</time></trkpt><trkpt lat="44.2014473" lon="12.0157217"><ele>37.0</ele><time>2026-04-04T15:11:53.008Z</time></trkpt><trkpt lat="44.2015243" lon="12.0154903"><ele>37.0</ele><time>2026-04-04T15:11:54.007Z</time></trkpt><trkpt lat="44.2016227" lon="12.0152684"><ele>37.0</ele><time>2026-04-04T15:11:55.01Z</time></trkpt><trkpt lat="44.2017476" lon="12.0150676"><ele>37.0</ele><time>2026-04-04T15:11:56.008Z</time></trkpt><trkpt lat="44.2018976" lon="12.0148981"><ele>37.0</ele><time>2026-04-04T15:11:57.01Z</time></trkpt><trkpt lat="44.2020677" lon="12.0147603"><ele>37.0</ele><time>2026-04-04T15:11:58.008Z</time></trkpt><trkpt lat="44.2022473" lon="12.0146583"><ele>37.0</ele><time>2026-04-04T15:11:59.005Z</time></trkpt><trkpt lat="44.2024243" lon="12.0145891"><ele>37.0</ele><time>2026-04-04T15:12:00.008Z</time></trkpt><trkpt lat="44.2025907" lon="12.0145267"><ele>36.75</ele><time>2026-04-04T15:12:01.008Z</time></trkpt><trkpt lat="44.2027427" lon="12.0144419"><ele>36.5</ele><time>2026-04-04T15:12:02.008Z</time></trkpt><trkpt lat="44.2028744" lon="12.0143393"><ele>36.25</ele><time>2026-04-04T15:12:03.009Z</time></trkpt><trkpt lat="44.2029933" lon="12.0142524"><ele>36.0</ele><time>2026-04-04T15:12:04.006Z</time></trkpt><trkpt lat="44.2031024" lon="12.0141977"><ele>36.2</ele><time>2026-04-04T15:12:05.007Z</time></trkpt><trkpt lat="44.2032035" lon="12.0141702"><ele>36.400000000000006</ele><time>2026-04-04T15:12:06.007Z</time></trkpt><trkpt lat="44.2032985" lon="12.0141612"><ele>36.6</ele><time>2026-04-04T15:12:07.008Z</time></trkpt><trkpt lat="44.2033885" lon="12.0141754"><ele>36.800000000000004</ele><time>2026-04-04T15:12:08.007Z</time></trkpt><trkpt lat="44.2034735" lon="12.0142089"><ele>37.0</ele><time>2026-04-04T15:12:09.009Z</time></trkpt><trkpt lat="44.203559" lon="12.0142579"><ele>37.0</ele><time>2026-04-04T15:12:10.007Z</time></trkpt><trkpt lat="44.2036458" lon="12.0143203"><ele>37.0</ele><time>2026-04-04T15:12:11.007Z</time></trkpt><trkpt lat="44.2037356" lon="12.0143891"><ele>37.0</ele><time>2026-04-04T15:12:12.008Z</time></trkpt><trkpt lat="44.2038269" lon="12.0144654"><ele>37.0</ele><time>2026-04-04T15:12:13.008Z</time></trkpt><trkpt lat="44.2039177" lon="12.0145453"><ele>37.0</ele><time>2026-04-04T15:12:14.009Z</time></trkpt><trkpt lat="44.2040059" lon="12.0146178"><ele>36.4</ele><time>2026-04-04T15:12:15.007Z</time></trkpt><trkpt lat="44.2040925" lon="12.0146847"><ele>35.800000000000004</ele><time>2026-04-04T15:12:16.007Z</time></trkpt><trkpt lat="44.2041765" lon="12.0147481"><ele>35.2</ele><time>2026-04-04T15:12:17.007Z</time></trkpt><trkpt lat="44.2042595" lon="12.0148154"><ele>34.6</ele><time>2026-04-04T15:12:18.006Z</time></trkpt><trkpt lat="44.2043415" lon="12.0148865"><ele>34.0</ele><time>2026-04-04T15:12:19.009Z</time></trkpt><trkpt lat="44.2044244" lon="12.0149528"><ele>34.5</ele><time>2026-04-04T15:12:20.006Z</time></trkpt><trkpt lat="44.2045117" lon="12.0150173"><ele>35.0</ele><time>2026-04-04T15:12:21.006Z</time></trkpt><trkpt lat="44.2046205" lon="12.0150944"><ele>35.5</ele><time>2026-04-04T15:12:22.007Z</time></trkpt><trkpt lat="44.2047547" lon="12.0152013"><ele>36.0</ele><time>2026-04-04T15:12:23.006Z</time></trkpt><trkpt lat="44.2049118" lon="12.0153407"><ele>36.0</ele><time>2026-04-04T15:12:24.006Z</time></trkpt><trkpt lat="44.2050713" lon="12.0154816"><ele>36.0</ele><time>2026-04-04T15:12:25.007Z</time></trkpt><trkpt lat="44.2052145" lon="12.0156005"><ele>36.0</ele><time>2026-04-04T15:12:26.007Z</time></trkpt><trkpt lat="44.2053319" lon="12.0156992"><ele>36.0</ele><time>2026-04-04T15:12:27.01Z</time></trkpt><trkpt lat="44.2054288" lon="12.0157862"><ele>36.0</ele><time>2026-04-04T15:12:28.008Z</time></trkpt><trkpt lat="44.20551" lon="12.015869"><ele>36.0</ele><time>2026-04-04T15:12:29.007Z</time></trkpt><trkpt lat="44.205577" lon="12.0159411"><ele>36.0</ele><time>2026-04-04T15:12:30.006Z</time></trkpt><trkpt lat="44.2056414" lon="12.0159933"><ele>36.0</ele><time>2026-04-04T15:12:31.008Z</time></trkpt><trkpt lat="44.2057451" lon="12.0160074"><ele>36.0</ele><time>2026-04-04T15:12:33.009Z</time></trkpt><trkpt lat="44.2057637" lon="12.0158893"><ele>36.0</ele><time>2026-04-04T15:12:34.006Z</time></trkpt><trkpt lat="44.2057976" lon="12.0157509"><ele>36.0</ele><time>2026-04-04T15:12:35.006Z</time></trkpt><trkpt lat="44.2058664" lon="12.0155828"><ele>36.0</ele><time>2026-04-04T15:12:36.006Z</time></trkpt><trkpt lat="44.205952" lon="12.0153786"><ele>35.666666666666664</ele><time>2026-04-04T15:12:37.006Z</time></trkpt><trkpt lat="44.2060461" lon="12.0151394"><ele>35.33333333333333</ele><time>2026-04-04T15:12:38.006Z</time></trkpt><trkpt lat="44.2061319" lon="12.0148873"><ele>35.0</ele><time>2026-04-04T15:12:39.009Z</time></trkpt><trkpt lat="44.2061971" lon="12.0146477"><ele>33.666666666666664</ele><time>2026-04-04T15:12:40.006Z</time></trkpt><trkpt lat="44.2062263" lon="12.0144141"><ele>32.333333333333336</ele><time>2026-04-04T15:12:41.006Z</time></trkpt><trkpt lat="44.2062246" lon="12.0141738"><ele>31.0</ele><time>2026-04-04T15:12:42.007Z</time></trkpt><trkpt lat="44.2061823" lon="12.0139363"><ele>30.0</ele><time>2026-04-04T15:12:43.006Z</time></trkpt><trkpt lat="44.2061029" lon="12.0136931"><ele>29.0</ele><time>2026-04-04T15:12:44.005Z</time></trkpt><trkpt lat="44.2059647" lon="12.013431"><ele>28.0</ele><time>2026-04-04T15:12:45.007Z</time></trkpt><trkpt lat="44.2058345" lon="12.0131818"><ele>28.0</ele><time>2026-04-04T15:12:46.006Z</time></trkpt><trkpt lat="44.2057329" lon="12.0129432"><ele>28.0</ele><time>2026-04-04T15:12:47.006Z</time></trkpt><trkpt lat="44.2056804" lon="12.0127176"><ele>28.0</ele><time>2026-04-04T15:12:48.007Z</time></trkpt><trkpt lat="44.205681" lon="12.012514"><ele>28.0</ele><time>2026-04-04T15:12:49.007Z</time></trkpt><trkpt lat="44.2057228" lon="12.0123463"><ele>28.0</ele><time>2026-04-04T15:12:50.007Z</time></trkpt><trkpt lat="44.2058012" lon="12.0122177"><ele>28.0</ele><time>2026-04-04T15:12:51.009Z</time></trkpt><trkpt lat="44.2059209" lon="12.0121077"><ele>28.0</ele><time>2026-04-04T15:12:52.008Z</time></trkpt><trkpt lat="44.2060827" lon="12.0120114"><ele>28.0</ele><time>2026-04-04T15:12:53.005Z</time></trkpt><trkpt lat="44.2062834" lon="12.0119081"><ele>28.0</ele><time>2026-04-04T15:12:54.006Z</time></trkpt><trkpt lat="44.2065104" lon="12.0117878"><ele>28.0</ele><time>2026-04-04T15:12:55.008Z</time></trkpt><trkpt lat="44.2067596" lon="12.0116507"><ele>28.0</ele><time>2026-04-04T15:12:56.012Z</time></trkpt><trkpt lat="44.2070268" lon="12.0115007"><ele>28.0</ele><time>2026-04-04T15:12:57.008Z</time></trkpt><trkpt lat="44.2073131" lon="12.0113386"><ele>28.0</ele><time>2026-04-04T15:12:58.006Z</time></trkpt><trkpt lat="44.2076156" lon="12.0111645"><ele>28.0</ele><time>2026-04-04T15:12:59.008Z</time></trkpt><trkpt lat="44.2079164" lon="12.0109831"><ele>28.0</ele><time>2026-04-04T15:13:00.006Z</time></trkpt><trkpt lat="44.2081984" lon="12.0108119"><ele>29.0</ele><time>2026-04-04T15:13:01.007Z</time></trkpt><trkpt lat="44.2084559" lon="12.0106586"><ele>30.0</ele><time>2026-04-04T15:13:02.007Z</time></trkpt><trkpt lat="44.2086913" lon="12.0105227"><ele>30.0</ele><time>2026-04-04T15:13:03.007Z</time></trkpt><trkpt lat="44.2089095" lon="12.0103975"><ele>30.0</ele><time>2026-04-04T15:13:04.006Z</time></trkpt><trkpt lat="44.2091097" lon="12.0102835"><ele>31.333333333333336</ele><time>2026-04-04T15:13:05.007Z</time></trkpt><trkpt lat="44.2092926" lon="12.0101788"><ele>32.66666666666667</ele><time>2026-04-04T15:13:06.008Z</time></trkpt><trkpt lat="44.2094594" lon="12.010085"><ele>34.0</ele><time>2026-04-04T15:13:07.006Z</time></trkpt><trkpt lat="44.2096092" lon="12.0099997"><ele>34.5</ele><time>2026-04-04T15:13:08.006Z</time></trkpt><trkpt lat="44.20974" lon="12.0099254"><ele>35.0</ele><time>2026-04-04T15:13:09.01Z</time></trkpt><trkpt lat="44.2098557" lon="12.0098747"><ele>35.5</ele><time>2026-04-04T15:13:10.007Z</time></trkpt><trkpt lat="44.2099599" lon="12.0098498"><ele>36.0</ele><time>2026-04-04T15:13:11.006Z</time></trkpt><trkpt lat="44.2100492" lon="12.0098525"><ele>36.0</ele><time>2026-04-04T15:13:12.006Z</time></trkpt><trkpt lat="44.210131" lon="12.009881"><ele>36.0</ele><time>2026-04-04T15:13:13.006Z</time></trkpt><trkpt lat="44.2102051" lon="12.009931"><ele>36.0</ele><time>2026-04-04T15:13:14.009Z</time></trkpt><trkpt lat="44.2102721" lon="12.0100269"><ele>36.0</ele><time>2026-04-04T15:13:15.008Z</time></trkpt><trkpt lat="44.2103347" lon="12.010173"><ele>36.0</ele><time>2026-04-04T15:13:16.007Z</time></trkpt><trkpt lat="44.2103943" lon="12.0103903"><ele>36.5</ele><time>2026-04-04T15:13:17.006Z</time></trkpt><trkpt lat="44.2104464" lon="12.0106876"><ele>37.0</ele><time>2026-04-04T15:13:18.008Z</time></trkpt><trkpt lat="44.2105108" lon="12.0110445"><ele>36.0</ele><time>2026-04-04T15:13:19.006Z</time></trkpt><trkpt lat="44.2105997" lon="12.0114678"><ele>35.0</ele><time>2026-04-04T15:13:20.009Z</time></trkpt><trkpt lat="44.2106997" lon="12.0119194"><ele>35.0</ele><time>2026-04-04T15:13:21.008Z</time></trkpt><trkpt lat="44.2108007" lon="12.0123521"><ele>35.0</ele><time>2026-04-04T15:13:22.006Z</time></trkpt><trkpt lat="44.2108951" lon="12.0127372"><ele>34.0</ele><time>2026-04-04T15:13:23.006Z</time></trkpt><trkpt lat="44.210985" lon="12.0130835"><ele>33.0</ele><time>2026-04-04T15:13:24.005Z</time></trkpt><trkpt lat="44.2110748" lon="12.0133911"><ele>33.0</ele><time>2026-04-04T15:13:25.009Z</time></trkpt><trkpt lat="44.211166" lon="12.0136608"><ele>33.0</ele><time>2026-04-04T15:13:26.005Z</time></trkpt><trkpt lat="44.2112577" lon="12.0138987"><ele>33.0</ele><time>2026-04-04T15:13:27.01Z</time></trkpt><trkpt lat="44.2113449" lon="12.0141077"><ele>32.75</ele><time>2026-04-04T15:13:28.007Z</time></trkpt><trkpt lat="44.2114213" lon="12.0142863"><ele>32.5</ele><time>2026-04-04T15:13:29.007Z</time></trkpt><trkpt lat="44.2114815" lon="12.0144244"><ele>32.25</ele><time>2026-04-04T15:13:30.007Z</time></trkpt><trkpt lat="44.2115259" lon="12.0145247"><ele>32.0</ele><time>2026-04-04T15:13:31.007Z</time></trkpt><trkpt lat="44.2115941" lon="12.014648"><ele>35.0</ele><time>2026-04-04T15:13:33.008Z</time></trkpt><trkpt lat="44.2116644" lon="12.0146945"><ele>35.0</ele><time>2026-04-04T15:13:35.008Z</time></trkpt><trkpt lat="44.2117236" lon="12.0147519"><ele>35.0</ele><time>2026-04-04T15:13:37.007Z</time></trkpt><trkpt lat="44.2117779" lon="12.0148048"><ele>35.0</ele><time>2026-04-04T15:13:40.006Z</time></trkpt></trkseg></trk></gpx>